<?xml version="1.0" encoding="UTF-8" standalone="no" ?>
<gpx xmlns="http://www.topografix.com/GPX/1/1" xmlns:xsi="http://www.w3.org/2001/XMLSchema-instance" xsi:schemaLocation="http://www.topografix.com/GPX/1/1 http://www.topografix.com/GPX/1/1/gpx.xsd" version="1.1" creator="VisuGPX - https://www.visugpx.com">
  <metadata>
    <name>Vélo dans l'après-midi</name>
  </metadata>
  <trk>
    <name><![CDATA[Vélo dans l'après-midi_1]]></name>
    <trkseg>
      <trkpt lat="44.497" lon="1.38695">
        <ele>151</ele>
        <time>2022-01-15T13:47:20Z</time>
      </trkpt>
      <trkpt lat="44.49686" lon="1.38701">
        <ele>151.2</ele>
        <time>2022-01-15T13:47:21Z</time>
      </trkpt>
      <trkpt lat="44.49686" lon="1.38696">
        <ele>151.3</ele>
        <time>2022-01-15T13:47:22Z</time>
      </trkpt>
      <trkpt lat="44.49686" lon="1.38695">
        <ele>151.3</ele>
        <time>2022-01-15T13:47:23Z</time>
      </trkpt>
      <trkpt lat="44.49688" lon="1.38697">
        <ele>151.3</ele>
        <time>2022-01-15T13:47:24Z</time>
      </trkpt>
      <trkpt lat="44.49689" lon="1.38698">
        <ele>151.3</ele>
        <time>2022-01-15T13:47:25Z</time>
      </trkpt>
      <trkpt lat="44.4969" lon="1.387">
        <ele>151.3</ele>
        <time>2022-01-15T13:47:27Z</time>
      </trkpt>
      <trkpt lat="44.49691" lon="1.38702">
        <ele>151.3</ele>
        <time>2022-01-15T13:47:28Z</time>
      </trkpt>
      <trkpt lat="44.49693" lon="1.38703">
        <ele>151.4</ele>
        <time>2022-01-15T13:47:29Z</time>
      </trkpt>
      <trkpt lat="44.49694" lon="1.38705">
        <ele>151.4</ele>
        <time>2022-01-15T13:47:30Z</time>
      </trkpt>
      <trkpt lat="44.49695" lon="1.38706">
        <ele>151.4</ele>
        <time>2022-01-15T13:48:17Z</time>
      </trkpt>
      <trkpt lat="44.49696" lon="1.38708">
        <ele>151.4</ele>
        <time>2022-01-15T13:48:18Z</time>
      </trkpt>
      <trkpt lat="44.49697" lon="1.38713">
        <ele>151.5</ele>
        <time>2022-01-15T13:48:19Z</time>
      </trkpt>
      <trkpt lat="44.49697" lon="1.38719">
        <ele>151.5</ele>
        <time>2022-01-15T13:48:20Z</time>
      </trkpt>
      <trkpt lat="44.49698" lon="1.38725">
        <ele>151.6</ele>
        <time>2022-01-15T13:48:22Z</time>
      </trkpt>
      <trkpt lat="44.49697" lon="1.3873">
        <ele>151.6</ele>
        <time>2022-01-15T13:48:23Z</time>
      </trkpt>
      <trkpt lat="44.49697" lon="1.38733">
        <ele>151.7</ele>
        <time>2022-01-15T13:48:24Z</time>
      </trkpt>
      <trkpt lat="44.49697" lon="1.3874">
        <ele>151.7</ele>
        <time>2022-01-15T13:48:25Z</time>
      </trkpt>
      <trkpt lat="44.49698" lon="1.38742">
        <ele>151.8</ele>
        <time>2022-01-15T13:48:26Z</time>
      </trkpt>
      <trkpt lat="44.497" lon="1.38749">
        <ele>151.8</ele>
        <time>2022-01-15T13:48:28Z</time>
      </trkpt>
      <trkpt lat="44.497" lon="1.38752">
        <ele>151.8</ele>
        <time>2022-01-15T13:48:29Z</time>
      </trkpt>
      <trkpt lat="44.497" lon="1.38754">
        <ele>151.8</ele>
        <time>2022-01-15T13:48:30Z</time>
      </trkpt>
      <trkpt lat="44.497" lon="1.38759">
        <ele>151.8</ele>
        <time>2022-01-15T13:48:31Z</time>
      </trkpt>
      <trkpt lat="44.49699" lon="1.38761">
        <ele>151.8</ele>
        <time>2022-01-15T13:48:32Z</time>
      </trkpt>
      <trkpt lat="44.49698" lon="1.38766">
        <ele>151.9</ele>
        <time>2022-01-15T13:48:33Z</time>
      </trkpt>
      <trkpt lat="44.49697" lon="1.38769">
        <ele>151.9</ele>
        <time>2022-01-15T13:48:34Z</time>
      </trkpt>
      <trkpt lat="44.49697" lon="1.38777">
        <ele>151.9</ele>
        <time>2022-01-15T13:48:36Z</time>
      </trkpt>
      <trkpt lat="44.49695" lon="1.38781">
        <ele>151.9</ele>
        <time>2022-01-15T13:48:38Z</time>
      </trkpt>
      <trkpt lat="44.49694" lon="1.38787">
        <ele>152</ele>
        <time>2022-01-15T13:48:39Z</time>
      </trkpt>
      <trkpt lat="44.49694" lon="1.38791">
        <ele>152</ele>
        <time>2022-01-15T13:48:40Z</time>
      </trkpt>
      <trkpt lat="44.49694" lon="1.38795">
        <ele>152.1</ele>
        <time>2022-01-15T13:48:42Z</time>
      </trkpt>
      <trkpt lat="44.49693" lon="1.388">
        <ele>152.1</ele>
        <time>2022-01-15T13:48:43Z</time>
      </trkpt>
      <trkpt lat="44.49693" lon="1.38804">
        <ele>152.2</ele>
        <time>2022-01-15T13:48:44Z</time>
      </trkpt>
      <trkpt lat="44.49693" lon="1.38805">
        <ele>152.2</ele>
        <time>2022-01-15T13:48:45Z</time>
      </trkpt>
      <trkpt lat="44.49692" lon="1.3881">
        <ele>152.3</ele>
        <time>2022-01-15T13:48:46Z</time>
      </trkpt>
      <trkpt lat="44.49692" lon="1.38812">
        <ele>152.3</ele>
        <time>2022-01-15T13:48:47Z</time>
      </trkpt>
      <trkpt lat="44.49692" lon="1.38818">
        <ele>152.4</ele>
        <time>2022-01-15T13:48:49Z</time>
      </trkpt>
      <trkpt lat="44.49691" lon="1.3882">
        <ele>152.4</ele>
        <time>2022-01-15T13:48:50Z</time>
      </trkpt>
      <trkpt lat="44.49691" lon="1.38822">
        <ele>152.5</ele>
        <time>2022-01-15T13:48:51Z</time>
      </trkpt>
      <trkpt lat="44.49689" lon="1.38827">
        <ele>152.5</ele>
        <time>2022-01-15T13:48:52Z</time>
      </trkpt>
      <trkpt lat="44.49689" lon="1.38828">
        <ele>152.6</ele>
        <time>2022-01-15T13:48:53Z</time>
      </trkpt>
      <trkpt lat="44.49688" lon="1.38832">
        <ele>152.6</ele>
        <time>2022-01-15T13:48:54Z</time>
      </trkpt>
      <trkpt lat="44.49686" lon="1.38837">
        <ele>152.7</ele>
        <time>2022-01-15T13:48:55Z</time>
      </trkpt>
      <trkpt lat="44.49685" lon="1.38839">
        <ele>152.8</ele>
        <time>2022-01-15T13:48:56Z</time>
      </trkpt>
      <trkpt lat="44.49685" lon="1.38844">
        <ele>152.9</ele>
        <time>2022-01-15T13:48:57Z</time>
      </trkpt>
      <trkpt lat="44.49684" lon="1.38845">
        <ele>152.9</ele>
        <time>2022-01-15T13:48:58Z</time>
      </trkpt>
      <trkpt lat="44.49684" lon="1.38849">
        <ele>153</ele>
        <time>2022-01-15T13:48:59Z</time>
      </trkpt>
      <trkpt lat="44.49684" lon="1.38851">
        <ele>153</ele>
        <time>2022-01-15T13:49:00Z</time>
      </trkpt>
      <trkpt lat="44.49683" lon="1.38856">
        <ele>153.1</ele>
        <time>2022-01-15T13:49:01Z</time>
      </trkpt>
      <trkpt lat="44.49683" lon="1.38857">
        <ele>153.1</ele>
        <time>2022-01-15T13:49:02Z</time>
      </trkpt>
      <trkpt lat="44.49681" lon="1.38861">
        <ele>153.2</ele>
        <time>2022-01-15T13:49:03Z</time>
      </trkpt>
      <trkpt lat="44.4968" lon="1.38864">
        <ele>153.3</ele>
        <time>2022-01-15T13:49:04Z</time>
      </trkpt>
      <trkpt lat="44.49679" lon="1.3887">
        <ele>153.4</ele>
        <time>2022-01-15T13:49:06Z</time>
      </trkpt>
      <trkpt lat="44.49679" lon="1.38875">
        <ele>153.5</ele>
        <time>2022-01-15T13:49:07Z</time>
      </trkpt>
      <trkpt lat="44.49679" lon="1.38877">
        <ele>153.5</ele>
        <time>2022-01-15T13:49:08Z</time>
      </trkpt>
      <trkpt lat="44.49678" lon="1.38881">
        <ele>153.6</ele>
        <time>2022-01-15T13:49:09Z</time>
      </trkpt>
      <trkpt lat="44.49678" lon="1.38887">
        <ele>153.7</ele>
        <time>2022-01-15T13:49:10Z</time>
      </trkpt>
      <trkpt lat="44.49678" lon="1.3889">
        <ele>153.8</ele>
        <time>2022-01-15T13:49:11Z</time>
      </trkpt>
      <trkpt lat="44.49677" lon="1.38893">
        <ele>153.8</ele>
        <time>2022-01-15T13:49:12Z</time>
      </trkpt>
      <trkpt lat="44.49676" lon="1.389">
        <ele>153.9</ele>
        <time>2022-01-15T13:49:14Z</time>
      </trkpt>
      <trkpt lat="44.49675" lon="1.38903">
        <ele>153.9</ele>
        <time>2022-01-15T13:49:15Z</time>
      </trkpt>
      <trkpt lat="44.49675" lon="1.38905">
        <ele>154</ele>
        <time>2022-01-15T13:49:16Z</time>
      </trkpt>
      <trkpt lat="44.49676" lon="1.38909">
        <ele>154</ele>
        <time>2022-01-15T13:49:17Z</time>
      </trkpt>
      <trkpt lat="44.49676" lon="1.38911">
        <ele>154</ele>
        <time>2022-01-15T13:49:18Z</time>
      </trkpt>
      <trkpt lat="44.49675" lon="1.38916">
        <ele>154.1</ele>
        <time>2022-01-15T13:49:19Z</time>
      </trkpt>
      <trkpt lat="44.49675" lon="1.38918">
        <ele>154.1</ele>
        <time>2022-01-15T13:49:20Z</time>
      </trkpt>
      <trkpt lat="44.49674" lon="1.38923">
        <ele>154.2</ele>
        <time>2022-01-15T13:49:21Z</time>
      </trkpt>
      <trkpt lat="44.49673" lon="1.38925">
        <ele>154.2</ele>
        <time>2022-01-15T13:49:22Z</time>
      </trkpt>
      <trkpt lat="44.49673" lon="1.38929">
        <ele>154.3</ele>
        <time>2022-01-15T13:49:23Z</time>
      </trkpt>
      <trkpt lat="44.49671" lon="1.38935">
        <ele>154.4</ele>
        <time>2022-01-15T13:49:24Z</time>
      </trkpt>
      <trkpt lat="44.4967" lon="1.38941">
        <ele>154.6</ele>
        <time>2022-01-15T13:49:26Z</time>
      </trkpt>
      <trkpt lat="44.4967" lon="1.38945">
        <ele>154.7</ele>
        <time>2022-01-15T13:49:27Z</time>
      </trkpt>
      <trkpt lat="44.49669" lon="1.38951">
        <ele>154.9</ele>
        <time>2022-01-15T13:49:28Z</time>
      </trkpt>
      <trkpt lat="44.49668" lon="1.38957">
        <ele>155</ele>
        <time>2022-01-15T13:49:30Z</time>
      </trkpt>
      <trkpt lat="44.49667" lon="1.38961">
        <ele>155.1</ele>
        <time>2022-01-15T13:49:31Z</time>
      </trkpt>
      <trkpt lat="44.49666" lon="1.38967">
        <ele>155.3</ele>
        <time>2022-01-15T13:49:32Z</time>
      </trkpt>
      <trkpt lat="44.49665" lon="1.38973">
        <ele>155.5</ele>
        <time>2022-01-15T13:49:34Z</time>
      </trkpt>
      <trkpt lat="44.49664" lon="1.38977">
        <ele>155.6</ele>
        <time>2022-01-15T13:49:35Z</time>
      </trkpt>
      <trkpt lat="44.49663" lon="1.38983">
        <ele>155.7</ele>
        <time>2022-01-15T13:49:36Z</time>
      </trkpt>
      <trkpt lat="44.49662" lon="1.38985">
        <ele>155.8</ele>
        <time>2022-01-15T13:49:37Z</time>
      </trkpt>
      <trkpt lat="44.49661" lon="1.3899">
        <ele>156</ele>
        <time>2022-01-15T13:49:38Z</time>
      </trkpt>
      <trkpt lat="44.49661" lon="1.38992">
        <ele>156</ele>
        <time>2022-01-15T13:49:39Z</time>
      </trkpt>
      <trkpt lat="44.4966" lon="1.38996">
        <ele>156.2</ele>
        <time>2022-01-15T13:49:40Z</time>
      </trkpt>
      <trkpt lat="44.49658" lon="1.39001">
        <ele>156.3</ele>
        <time>2022-01-15T13:49:41Z</time>
      </trkpt>
      <trkpt lat="44.49657" lon="1.39003">
        <ele>156.4</ele>
        <time>2022-01-15T13:49:42Z</time>
      </trkpt>
      <trkpt lat="44.49656" lon="1.39008">
        <ele>156.6</ele>
        <time>2022-01-15T13:49:43Z</time>
      </trkpt>
      <trkpt lat="44.49656" lon="1.3901">
        <ele>156.7</ele>
        <time>2022-01-15T13:49:44Z</time>
      </trkpt>
      <trkpt lat="44.49654" lon="1.39014">
        <ele>156.9</ele>
        <time>2022-01-15T13:49:45Z</time>
      </trkpt>
      <trkpt lat="44.49654" lon="1.39016">
        <ele>157</ele>
        <time>2022-01-15T13:49:46Z</time>
      </trkpt>
      <trkpt lat="44.49654" lon="1.39021">
        <ele>157.2</ele>
        <time>2022-01-15T13:49:47Z</time>
      </trkpt>
      <trkpt lat="44.49654" lon="1.39023">
        <ele>157.3</ele>
        <time>2022-01-15T13:49:48Z</time>
      </trkpt>
      <trkpt lat="44.49654" lon="1.39027">
        <ele>157.5</ele>
        <time>2022-01-15T13:49:49Z</time>
      </trkpt>
      <trkpt lat="44.49654" lon="1.39028">
        <ele>157.5</ele>
        <time>2022-01-15T13:49:50Z</time>
      </trkpt>
      <trkpt lat="44.49654" lon="1.39033">
        <ele>157.8</ele>
        <time>2022-01-15T13:49:51Z</time>
      </trkpt>
      <trkpt lat="44.49654" lon="1.39035">
        <ele>157.9</ele>
        <time>2022-01-15T13:49:52Z</time>
      </trkpt>
      <trkpt lat="44.49654" lon="1.39039">
        <ele>158.1</ele>
        <time>2022-01-15T13:49:53Z</time>
      </trkpt>
      <trkpt lat="44.49653" lon="1.39041">
        <ele>158.2</ele>
        <time>2022-01-15T13:49:54Z</time>
      </trkpt>
      <trkpt lat="44.49653" lon="1.39044">
        <ele>158.3</ele>
        <time>2022-01-15T13:49:55Z</time>
      </trkpt>
      <trkpt lat="44.49652" lon="1.39048">
        <ele>158.5</ele>
        <time>2022-01-15T13:49:57Z</time>
      </trkpt>
      <trkpt lat="44.49651" lon="1.39051">
        <ele>158.7</ele>
        <time>2022-01-15T13:49:58Z</time>
      </trkpt>
      <trkpt lat="44.49651" lon="1.39053">
        <ele>158.8</ele>
        <time>2022-01-15T13:49:59Z</time>
      </trkpt>
      <trkpt lat="44.49649" lon="1.39057">
        <ele>159.1</ele>
        <time>2022-01-15T13:50:00Z</time>
      </trkpt>
      <trkpt lat="44.49649" lon="1.39059">
        <ele>159.2</ele>
        <time>2022-01-15T13:50:01Z</time>
      </trkpt>
      <trkpt lat="44.49647" lon="1.39062">
        <ele>159.4</ele>
        <time>2022-01-15T13:50:02Z</time>
      </trkpt>
      <trkpt lat="44.49647" lon="1.39063">
        <ele>159.4</ele>
        <time>2022-01-15T13:50:03Z</time>
      </trkpt>
      <trkpt lat="44.49646" lon="1.39067">
        <ele>159.7</ele>
        <time>2022-01-15T13:50:04Z</time>
      </trkpt>
      <trkpt lat="44.49645" lon="1.39069">
        <ele>159.8</ele>
        <time>2022-01-15T13:50:05Z</time>
      </trkpt>
      <trkpt lat="44.49645" lon="1.39071">
        <ele>160</ele>
        <time>2022-01-15T13:50:06Z</time>
      </trkpt>
      <trkpt lat="44.49643" lon="1.39073">
        <ele>160.2</ele>
        <time>2022-01-15T13:50:08Z</time>
      </trkpt>
      <trkpt lat="44.49641" lon="1.39077">
        <ele>160.5</ele>
        <time>2022-01-15T13:50:09Z</time>
      </trkpt>
      <trkpt lat="44.4964" lon="1.39078">
        <ele>160.6</ele>
        <time>2022-01-15T13:50:10Z</time>
      </trkpt>
      <trkpt lat="44.4964" lon="1.39082">
        <ele>160.9</ele>
        <time>2022-01-15T13:50:11Z</time>
      </trkpt>
      <trkpt lat="44.49639" lon="1.39084">
        <ele>161</ele>
        <time>2022-01-15T13:50:12Z</time>
      </trkpt>
      <trkpt lat="44.49638" lon="1.39088">
        <ele>161.3</ele>
        <time>2022-01-15T13:50:13Z</time>
      </trkpt>
      <trkpt lat="44.49638" lon="1.39089">
        <ele>161.3</ele>
        <time>2022-01-15T13:50:14Z</time>
      </trkpt>
      <trkpt lat="44.49638" lon="1.39091">
        <ele>161.5</ele>
        <time>2022-01-15T13:50:15Z</time>
      </trkpt>
      <trkpt lat="44.49637" lon="1.39094">
        <ele>161.7</ele>
        <time>2022-01-15T13:50:16Z</time>
      </trkpt>
      <trkpt lat="44.49637" lon="1.39097">
        <ele>161.9</ele>
        <time>2022-01-15T13:50:17Z</time>
      </trkpt>
      <trkpt lat="44.49636" lon="1.391">
        <ele>162.1</ele>
        <time>2022-01-15T13:50:19Z</time>
      </trkpt>
      <trkpt lat="44.49635" lon="1.39104">
        <ele>162.4</ele>
        <time>2022-01-15T13:50:20Z</time>
      </trkpt>
      <trkpt lat="44.49635" lon="1.39105">
        <ele>162.5</ele>
        <time>2022-01-15T13:50:21Z</time>
      </trkpt>
      <trkpt lat="44.49634" lon="1.39109">
        <ele>162.8</ele>
        <time>2022-01-15T13:50:22Z</time>
      </trkpt>
      <trkpt lat="44.49633" lon="1.3911">
        <ele>162.9</ele>
        <time>2022-01-15T13:50:23Z</time>
      </trkpt>
      <trkpt lat="44.49632" lon="1.39116">
        <ele>163.3</ele>
        <time>2022-01-15T13:50:25Z</time>
      </trkpt>
      <trkpt lat="44.49631" lon="1.39117">
        <ele>163.4</ele>
        <time>2022-01-15T13:50:26Z</time>
      </trkpt>
      <trkpt lat="44.49631" lon="1.39119">
        <ele>163.5</ele>
        <time>2022-01-15T13:50:27Z</time>
      </trkpt>
      <trkpt lat="44.4963" lon="1.39123">
        <ele>163.7</ele>
        <time>2022-01-15T13:50:28Z</time>
      </trkpt>
      <trkpt lat="44.4963" lon="1.39124">
        <ele>163.8</ele>
        <time>2022-01-15T13:50:29Z</time>
      </trkpt>
      <trkpt lat="44.49629" lon="1.39126">
        <ele>164</ele>
        <time>2022-01-15T13:50:30Z</time>
      </trkpt>
      <trkpt lat="44.49629" lon="1.39129">
        <ele>164.1</ele>
        <time>2022-01-15T13:50:31Z</time>
      </trkpt>
      <trkpt lat="44.49629" lon="1.39133">
        <ele>164.4</ele>
        <time>2022-01-15T13:50:32Z</time>
      </trkpt>
      <trkpt lat="44.49628" lon="1.39134">
        <ele>164.5</ele>
        <time>2022-01-15T13:50:33Z</time>
      </trkpt>
      <trkpt lat="44.49627" lon="1.39137">
        <ele>164.7</ele>
        <time>2022-01-15T13:50:34Z</time>
      </trkpt>
      <trkpt lat="44.49627" lon="1.39138">
        <ele>164.8</ele>
        <time>2022-01-15T13:50:35Z</time>
      </trkpt>
      <trkpt lat="44.49626" lon="1.39143">
        <ele>165.1</ele>
        <time>2022-01-15T13:50:36Z</time>
      </trkpt>
      <trkpt lat="44.49626" lon="1.39144">
        <ele>165.2</ele>
        <time>2022-01-15T13:50:37Z</time>
      </trkpt>
      <trkpt lat="44.49626" lon="1.39147">
        <ele>165.3</ele>
        <time>2022-01-15T13:50:38Z</time>
      </trkpt>
      <trkpt lat="44.49625" lon="1.39149">
        <ele>165.5</ele>
        <time>2022-01-15T13:50:39Z</time>
      </trkpt>
      <trkpt lat="44.49626" lon="1.39153">
        <ele>165.7</ele>
        <time>2022-01-15T13:50:41Z</time>
      </trkpt>
      <trkpt lat="44.49626" lon="1.39154">
        <ele>165.8</ele>
        <time>2022-01-15T13:50:42Z</time>
      </trkpt>
      <trkpt lat="44.49625" lon="1.39157">
        <ele>166</ele>
        <time>2022-01-15T13:50:43Z</time>
      </trkpt>
      <trkpt lat="44.49625" lon="1.39158">
        <ele>166.1</ele>
        <time>2022-01-15T13:50:44Z</time>
      </trkpt>
      <trkpt lat="44.49625" lon="1.3916">
        <ele>166.2</ele>
        <time>2022-01-15T13:50:45Z</time>
      </trkpt>
      <trkpt lat="44.49623" lon="1.39163">
        <ele>166.5</ele>
        <time>2022-01-15T13:50:46Z</time>
      </trkpt>
      <trkpt lat="44.49623" lon="1.39164">
        <ele>166.6</ele>
        <time>2022-01-15T13:50:47Z</time>
      </trkpt>
      <trkpt lat="44.49622" lon="1.39167">
        <ele>166.7</ele>
        <time>2022-01-15T13:50:48Z</time>
      </trkpt>
      <trkpt lat="44.49621" lon="1.39169">
        <ele>166.9</ele>
        <time>2022-01-15T13:50:49Z</time>
      </trkpt>
      <trkpt lat="44.49621" lon="1.39171">
        <ele>167</ele>
        <time>2022-01-15T13:50:50Z</time>
      </trkpt>
      <trkpt lat="44.4962" lon="1.39173">
        <ele>167.2</ele>
        <time>2022-01-15T13:50:51Z</time>
      </trkpt>
      <trkpt lat="44.49619" lon="1.39177">
        <ele>167.5</ele>
        <time>2022-01-15T13:50:53Z</time>
      </trkpt>
      <trkpt lat="44.49619" lon="1.39178">
        <ele>167.6</ele>
        <time>2022-01-15T13:50:54Z</time>
      </trkpt>
      <trkpt lat="44.49618" lon="1.39182">
        <ele>167.9</ele>
        <time>2022-01-15T13:50:55Z</time>
      </trkpt>
      <trkpt lat="44.49618" lon="1.39185">
        <ele>168</ele>
        <time>2022-01-15T13:50:57Z</time>
      </trkpt>
      <trkpt lat="44.49617" lon="1.39187">
        <ele>168.2</ele>
        <time>2022-01-15T13:50:58Z</time>
      </trkpt>
      <trkpt lat="44.49617" lon="1.39188">
        <ele>168.4</ele>
        <time>2022-01-15T13:50:59Z</time>
      </trkpt>
      <trkpt lat="44.49616" lon="1.3919">
        <ele>168.5</ele>
        <time>2022-01-15T13:51:00Z</time>
      </trkpt>
      <trkpt lat="44.49616" lon="1.39192">
        <ele>168.7</ele>
        <time>2022-01-15T13:51:01Z</time>
      </trkpt>
      <trkpt lat="44.49615" lon="1.39195">
        <ele>168.9</ele>
        <time>2022-01-15T13:51:02Z</time>
      </trkpt>
      <trkpt lat="44.49615" lon="1.39197">
        <ele>169.1</ele>
        <time>2022-01-15T13:51:03Z</time>
      </trkpt>
      <trkpt lat="44.49614" lon="1.39199">
        <ele>169.3</ele>
        <time>2022-01-15T13:51:05Z</time>
      </trkpt>
      <trkpt lat="44.49614" lon="1.39201">
        <ele>169.5</ele>
        <time>2022-01-15T13:51:06Z</time>
      </trkpt>
      <trkpt lat="44.49614" lon="1.39202">
        <ele>169.6</ele>
        <time>2022-01-15T13:51:07Z</time>
      </trkpt>
      <trkpt lat="44.49613" lon="1.39203">
        <ele>169.6</ele>
        <time>2022-01-15T13:51:08Z</time>
      </trkpt>
      <trkpt lat="44.49613" lon="1.39205">
        <ele>170.1</ele>
        <time>2022-01-15T13:51:09Z</time>
      </trkpt>
      <trkpt lat="44.49613" lon="1.39206">
        <ele>170.1</ele>
        <time>2022-01-15T13:51:10Z</time>
      </trkpt>
      <trkpt lat="44.49612" lon="1.39208">
        <ele>170.1</ele>
        <time>2022-01-15T13:51:12Z</time>
      </trkpt>
      <trkpt lat="44.49612" lon="1.3921">
        <ele>170.6</ele>
        <time>2022-01-15T13:51:13Z</time>
      </trkpt>
      <trkpt lat="44.49612" lon="1.39212">
        <ele>170.6</ele>
        <time>2022-01-15T13:51:14Z</time>
      </trkpt>
      <trkpt lat="44.49612" lon="1.39214">
        <ele>171.1</ele>
        <time>2022-01-15T13:51:15Z</time>
      </trkpt>
      <trkpt lat="44.49613" lon="1.39216">
        <ele>171.1</ele>
        <time>2022-01-15T13:51:17Z</time>
      </trkpt>
      <trkpt lat="44.49614" lon="1.39218">
        <ele>171.7</ele>
        <time>2022-01-15T13:51:18Z</time>
      </trkpt>
      <trkpt lat="44.49614" lon="1.39219">
        <ele>172.6</ele>
        <time>2022-01-15T13:51:19Z</time>
      </trkpt>
      <trkpt lat="44.49615" lon="1.39221">
        <ele>172.6</ele>
        <time>2022-01-15T13:51:20Z</time>
      </trkpt>
      <trkpt lat="44.49616" lon="1.39223">
        <ele>173.2</ele>
        <time>2022-01-15T13:51:22Z</time>
      </trkpt>
      <trkpt lat="44.49616" lon="1.39225">
        <ele>173.2</ele>
        <time>2022-01-15T13:51:24Z</time>
      </trkpt>
      <trkpt lat="44.49617" lon="1.39224">
        <ele>173.2</ele>
        <time>2022-01-15T13:51:25Z</time>
      </trkpt>
      <trkpt lat="44.49617" lon="1.39224">
        <ele>174.1</ele>
        <time>2022-01-15T13:51:26Z</time>
      </trkpt>
      <trkpt lat="44.49618" lon="1.39223">
        <ele>174.1</ele>
        <time>2022-01-15T13:51:27Z</time>
      </trkpt>
      <trkpt lat="44.49618" lon="1.39223">
        <ele>174.1</ele>
        <time>2022-01-15T13:51:29Z</time>
      </trkpt>
      <trkpt lat="44.49619" lon="1.39223">
        <ele>174.1</ele>
        <time>2022-01-15T13:51:30Z</time>
      </trkpt>
      <trkpt lat="44.4962" lon="1.39223">
        <ele>174.2</ele>
        <time>2022-01-15T13:51:31Z</time>
      </trkpt>
      <trkpt lat="44.49621" lon="1.39223">
        <ele>174.9</ele>
        <time>2022-01-15T13:51:33Z</time>
      </trkpt>
      <trkpt lat="44.49623" lon="1.39224">
        <ele>174.9</ele>
        <time>2022-01-15T13:51:34Z</time>
      </trkpt>
      <trkpt lat="44.49624" lon="1.39225">
        <ele>175.5</ele>
        <time>2022-01-15T13:51:35Z</time>
      </trkpt>
      <trkpt lat="44.49626" lon="1.39226">
        <ele>175.9</ele>
        <time>2022-01-15T13:51:37Z</time>
      </trkpt>
      <trkpt lat="44.49628" lon="1.39227">
        <ele>176.4</ele>
        <time>2022-01-15T13:51:39Z</time>
      </trkpt>
      <trkpt lat="44.49628" lon="1.39228">
        <ele>176.5</ele>
        <time>2022-01-15T13:51:40Z</time>
      </trkpt>
      <trkpt lat="44.49628" lon="1.39228">
        <ele>176.5</ele>
        <time>2022-01-15T13:51:42Z</time>
      </trkpt>
      <trkpt lat="44.49626" lon="1.39229">
        <ele>176.1</ele>
        <time>2022-01-15T13:51:44Z</time>
      </trkpt>
      <trkpt lat="44.49625" lon="1.39228">
        <ele>176.1</ele>
        <time>2022-01-15T13:51:45Z</time>
      </trkpt>
      <trkpt lat="44.49624" lon="1.39228">
        <ele>176.1</ele>
        <time>2022-01-15T13:51:46Z</time>
      </trkpt>
      <trkpt lat="44.49624" lon="1.39228">
        <ele>176.2</ele>
        <time>2022-01-15T13:51:47Z</time>
      </trkpt>
      <trkpt lat="44.49622" lon="1.39228">
        <ele>175.6</ele>
        <time>2022-01-15T13:51:49Z</time>
      </trkpt>
      <trkpt lat="44.49622" lon="1.39228">
        <ele>175.7</ele>
        <time>2022-01-15T13:51:50Z</time>
      </trkpt>
      <trkpt lat="44.49621" lon="1.39228">
        <ele>175.7</ele>
        <time>2022-01-15T13:51:51Z</time>
      </trkpt>
      <trkpt lat="44.49619" lon="1.39228">
        <ele>175</ele>
        <time>2022-01-15T13:51:52Z</time>
      </trkpt>
      <trkpt lat="44.49618" lon="1.39228">
        <ele>175</ele>
        <time>2022-01-15T13:51:53Z</time>
      </trkpt>
      <trkpt lat="44.49617" lon="1.3923">
        <ele>174.7</ele>
        <time>2022-01-15T13:51:55Z</time>
      </trkpt>
      <trkpt lat="44.49616" lon="1.39231">
        <ele>174.7</ele>
        <time>2022-01-15T13:51:56Z</time>
      </trkpt>
      <trkpt lat="44.49616" lon="1.39232">
        <ele>174.7</ele>
        <time>2022-01-15T13:51:57Z</time>
      </trkpt>
      <trkpt lat="44.49615" lon="1.39234">
        <ele>174.7</ele>
        <time>2022-01-15T13:51:58Z</time>
      </trkpt>
      <trkpt lat="44.49613" lon="1.39236">
        <ele>174.3</ele>
        <time>2022-01-15T13:51:59Z</time>
      </trkpt>
      <trkpt lat="44.49611" lon="1.39239">
        <ele>174.8</ele>
        <time>2022-01-15T13:52:00Z</time>
      </trkpt>
      <trkpt lat="44.4961" lon="1.3924">
        <ele>173.8</ele>
        <time>2022-01-15T13:52:01Z</time>
      </trkpt>
      <trkpt lat="44.49609" lon="1.39243">
        <ele>173.8</ele>
        <time>2022-01-15T13:52:02Z</time>
      </trkpt>
      <trkpt lat="44.49608" lon="1.39247">
        <ele>174.3</ele>
        <time>2022-01-15T13:52:04Z</time>
      </trkpt>
      <trkpt lat="44.49607" lon="1.39251">
        <ele>173.8</ele>
        <time>2022-01-15T13:52:05Z</time>
      </trkpt>
      <trkpt lat="44.49607" lon="1.39252">
        <ele>174.5</ele>
        <time>2022-01-15T13:52:06Z</time>
      </trkpt>
      <trkpt lat="44.49608" lon="1.39255">
        <ele>175.6</ele>
        <time>2022-01-15T13:52:08Z</time>
      </trkpt>
      <trkpt lat="44.49609" lon="1.39256">
        <ele>175.6</ele>
        <time>2022-01-15T13:52:09Z</time>
      </trkpt>
      <trkpt lat="44.4961" lon="1.39256">
        <ele>175.6</ele>
        <time>2022-01-15T13:52:10Z</time>
      </trkpt>
      <trkpt lat="44.4961" lon="1.39256">
        <ele>175.7</ele>
        <time>2022-01-15T13:52:11Z</time>
      </trkpt>
      <trkpt lat="44.4961" lon="1.39256">
        <ele>175.7</ele>
        <time>2022-01-15T13:52:12Z</time>
      </trkpt>
      <trkpt lat="44.4961" lon="1.39255">
        <ele>175.7</ele>
        <time>2022-01-15T13:52:13Z</time>
      </trkpt>
      <trkpt lat="44.4961" lon="1.39255">
        <ele>175.7</ele>
        <time>2022-01-15T13:52:14Z</time>
      </trkpt>
      <trkpt lat="44.4961" lon="1.39254">
        <ele>175.7</ele>
        <time>2022-01-15T13:52:16Z</time>
      </trkpt>
      <trkpt lat="44.4961" lon="1.39254">
        <ele>175.8</ele>
        <time>2022-01-15T13:52:17Z</time>
      </trkpt>
      <trkpt lat="44.4961" lon="1.39254">
        <ele>175.8</ele>
        <time>2022-01-15T13:52:18Z</time>
      </trkpt>
      <trkpt lat="44.4961" lon="1.39254">
        <ele>175.8</ele>
        <time>2022-01-15T13:52:19Z</time>
      </trkpt>
      <trkpt lat="44.4961" lon="1.39255">
        <ele>175.8</ele>
        <time>2022-01-15T13:52:21Z</time>
      </trkpt>
      <trkpt lat="44.4961" lon="1.39259">
        <ele>176.5</ele>
        <time>2022-01-15T13:52:22Z</time>
      </trkpt>
      <trkpt lat="44.49611" lon="1.39262">
        <ele>177.1</ele>
        <time>2022-01-15T13:52:24Z</time>
      </trkpt>
      <trkpt lat="44.4961" lon="1.39266">
        <ele>177.7</ele>
        <time>2022-01-15T13:52:25Z</time>
      </trkpt>
      <trkpt lat="44.4961" lon="1.3927">
        <ele>178.3</ele>
        <time>2022-01-15T13:52:26Z</time>
      </trkpt>
      <trkpt lat="44.49611" lon="1.39275">
        <ele>178.9</ele>
        <time>2022-01-15T13:52:28Z</time>
      </trkpt>
      <trkpt lat="44.4961" lon="1.3928">
        <ele>179.6</ele>
        <time>2022-01-15T13:52:29Z</time>
      </trkpt>
      <trkpt lat="44.4961" lon="1.39281">
        <ele>179.6</ele>
        <time>2022-01-15T13:52:30Z</time>
      </trkpt>
      <trkpt lat="44.49609" lon="1.39286">
        <ele>180.9</ele>
        <time>2022-01-15T13:52:31Z</time>
      </trkpt>
      <trkpt lat="44.49608" lon="1.39289">
        <ele>180.9</ele>
        <time>2022-01-15T13:52:32Z</time>
      </trkpt>
      <trkpt lat="44.49608" lon="1.39291">
        <ele>181.6</ele>
        <time>2022-01-15T13:52:33Z</time>
      </trkpt>
      <trkpt lat="44.49607" lon="1.39295">
        <ele>180.4</ele>
        <time>2022-01-15T13:52:35Z</time>
      </trkpt>
      <trkpt lat="44.49607" lon="1.39298">
        <ele>181.1</ele>
        <time>2022-01-15T13:52:36Z</time>
      </trkpt>
      <trkpt lat="44.49607" lon="1.39301">
        <ele>181.8</ele>
        <time>2022-01-15T13:52:38Z</time>
      </trkpt>
      <trkpt lat="44.49605" lon="1.39304">
        <ele>182.5</ele>
        <time>2022-01-15T13:52:39Z</time>
      </trkpt>
      <trkpt lat="44.49605" lon="1.39306">
        <ele>182.6</ele>
        <time>2022-01-15T13:52:40Z</time>
      </trkpt>
      <trkpt lat="44.49605" lon="1.39308">
        <ele>183.3</ele>
        <time>2022-01-15T13:52:41Z</time>
      </trkpt>
      <trkpt lat="44.49606" lon="1.3931">
        <ele>183.3</ele>
        <time>2022-01-15T13:52:42Z</time>
      </trkpt>
      <trkpt lat="44.49607" lon="1.39313">
        <ele>184</ele>
        <time>2022-01-15T13:52:43Z</time>
      </trkpt>
      <trkpt lat="44.49608" lon="1.39315">
        <ele>184</ele>
        <time>2022-01-15T13:52:44Z</time>
      </trkpt>
      <trkpt lat="44.49609" lon="1.39319">
        <ele>185.9</ele>
        <time>2022-01-15T13:52:45Z</time>
      </trkpt>
      <trkpt lat="44.49609" lon="1.3932">
        <ele>186</ele>
        <time>2022-01-15T13:52:46Z</time>
      </trkpt>
      <trkpt lat="44.49609" lon="1.39325">
        <ele>187.2</ele>
        <time>2022-01-15T13:52:47Z</time>
      </trkpt>
      <trkpt lat="44.49609" lon="1.39327">
        <ele>187.2</ele>
        <time>2022-01-15T13:52:48Z</time>
      </trkpt>
      <trkpt lat="44.49608" lon="1.39333">
        <ele>187.9</ele>
        <time>2022-01-15T13:52:49Z</time>
      </trkpt>
      <trkpt lat="44.49608" lon="1.39335">
        <ele>187.2</ele>
        <time>2022-01-15T13:52:50Z</time>
      </trkpt>
      <trkpt lat="44.49607" lon="1.3934">
        <ele>187.9</ele>
        <time>2022-01-15T13:52:51Z</time>
      </trkpt>
      <trkpt lat="44.49608" lon="1.39344">
        <ele>188.6</ele>
        <time>2022-01-15T13:52:52Z</time>
      </trkpt>
      <trkpt lat="44.49607" lon="1.39348">
        <ele>189.3</ele>
        <time>2022-01-15T13:52:53Z</time>
      </trkpt>
      <trkpt lat="44.49608" lon="1.39354">
        <ele>191.4</ele>
        <time>2022-01-15T13:52:55Z</time>
      </trkpt>
      <trkpt lat="44.49608" lon="1.39356">
        <ele>192.1</ele>
        <time>2022-01-15T13:52:56Z</time>
      </trkpt>
      <trkpt lat="44.49608" lon="1.39358">
        <ele>192.1</ele>
        <time>2022-01-15T13:52:57Z</time>
      </trkpt>
      <trkpt lat="44.49609" lon="1.3936">
        <ele>192.8</ele>
        <time>2022-01-15T13:52:58Z</time>
      </trkpt>
      <trkpt lat="44.49609" lon="1.39362">
        <ele>192.8</ele>
        <time>2022-01-15T13:52:59Z</time>
      </trkpt>
      <trkpt lat="44.49609" lon="1.39368">
        <ele>194.1</ele>
        <time>2022-01-15T13:53:01Z</time>
      </trkpt>
      <trkpt lat="44.49608" lon="1.39372">
        <ele>194.8</ele>
        <time>2022-01-15T13:53:02Z</time>
      </trkpt>
      <trkpt lat="44.49607" lon="1.39376">
        <ele>194</ele>
        <time>2022-01-15T13:53:03Z</time>
      </trkpt>
      <trkpt lat="44.49607" lon="1.39378">
        <ele>194.1</ele>
        <time>2022-01-15T13:53:04Z</time>
      </trkpt>
      <trkpt lat="44.49606" lon="1.39381">
        <ele>194.7</ele>
        <time>2022-01-15T13:53:05Z</time>
      </trkpt>
      <trkpt lat="44.49605" lon="1.39382">
        <ele>194.8</ele>
        <time>2022-01-15T13:53:06Z</time>
      </trkpt>
      <trkpt lat="44.49601" lon="1.39388">
        <ele>192.3</ele>
        <time>2022-01-15T13:53:08Z</time>
      </trkpt>
      <trkpt lat="44.496" lon="1.3939">
        <ele>192.9</ele>
        <time>2022-01-15T13:53:09Z</time>
      </trkpt>
      <trkpt lat="44.49599" lon="1.39392">
        <ele>192.9</ele>
        <time>2022-01-15T13:53:10Z</time>
      </trkpt>
      <trkpt lat="44.49597" lon="1.39398">
        <ele>191.7</ele>
        <time>2022-01-15T13:53:12Z</time>
      </trkpt>
      <trkpt lat="44.49596" lon="1.39403">
        <ele>192.7</ele>
        <time>2022-01-15T13:53:13Z</time>
      </trkpt>
      <trkpt lat="44.49595" lon="1.39409">
        <ele>191</ele>
        <time>2022-01-15T13:53:14Z</time>
      </trkpt>
      <trkpt lat="44.49594" lon="1.39413">
        <ele>191.4</ele>
        <time>2022-01-15T13:53:15Z</time>
      </trkpt>
      <trkpt lat="44.49594" lon="1.39418">
        <ele>191.8</ele>
        <time>2022-01-15T13:53:16Z</time>
      </trkpt>
      <trkpt lat="44.49595" lon="1.39423">
        <ele>192.2</ele>
        <time>2022-01-15T13:53:18Z</time>
      </trkpt>
      <trkpt lat="44.49596" lon="1.39425">
        <ele>194.6</ele>
        <time>2022-01-15T13:53:19Z</time>
      </trkpt>
      <trkpt lat="44.49597" lon="1.39427">
        <ele>194.6</ele>
        <time>2022-01-15T13:53:20Z</time>
      </trkpt>
      <trkpt lat="44.49599" lon="1.39431">
        <ele>196.9</ele>
        <time>2022-01-15T13:53:21Z</time>
      </trkpt>
      <trkpt lat="44.496" lon="1.39432">
        <ele>197</ele>
        <time>2022-01-15T13:53:22Z</time>
      </trkpt>
      <trkpt lat="44.49602" lon="1.39435">
        <ele>199.2</ele>
        <time>2022-01-15T13:53:23Z</time>
      </trkpt>
      <trkpt lat="44.49603" lon="1.39441">
        <ele>200.1</ele>
        <time>2022-01-15T13:53:25Z</time>
      </trkpt>
      <trkpt lat="44.49604" lon="1.39443">
        <ele>200.1</ele>
        <time>2022-01-15T13:53:26Z</time>
      </trkpt>
      <trkpt lat="44.49604" lon="1.39445">
        <ele>200.1</ele>
        <time>2022-01-15T13:53:27Z</time>
      </trkpt>
      <trkpt lat="44.49602" lon="1.39448">
        <ele>200.6</ele>
        <time>2022-01-15T13:53:28Z</time>
      </trkpt>
      <trkpt lat="44.49601" lon="1.39449">
        <ele>199.2</ele>
        <time>2022-01-15T13:53:29Z</time>
      </trkpt>
      <trkpt lat="44.49598" lon="1.39453">
        <ele>197.2</ele>
        <time>2022-01-15T13:53:31Z</time>
      </trkpt>
      <trkpt lat="44.49597" lon="1.39453">
        <ele>197.2</ele>
        <time>2022-01-15T13:53:32Z</time>
      </trkpt>
      <trkpt lat="44.49595" lon="1.39453">
        <ele>195.1</ele>
        <time>2022-01-15T13:53:33Z</time>
      </trkpt>
      <trkpt lat="44.49594" lon="1.39455">
        <ele>195.5</ele>
        <time>2022-01-15T13:53:34Z</time>
      </trkpt>
      <trkpt lat="44.49594" lon="1.39456">
        <ele>195.6</ele>
        <time>2022-01-15T13:53:35Z</time>
      </trkpt>
      <trkpt lat="44.49593" lon="1.39457">
        <ele>195.6</ele>
        <time>2022-01-15T13:53:36Z</time>
      </trkpt>
      <trkpt lat="44.49593" lon="1.39458">
        <ele>195.6</ele>
        <time>2022-01-15T13:53:37Z</time>
      </trkpt>
      <trkpt lat="44.49593" lon="1.39458">
        <ele>196</ele>
        <time>2022-01-15T13:53:38Z</time>
      </trkpt>
      <trkpt lat="44.49592" lon="1.39459">
        <ele>196.1</ele>
        <time>2022-01-15T13:53:39Z</time>
      </trkpt>
      <trkpt lat="44.49592" lon="1.3946">
        <ele>193.8</ele>
        <time>2022-01-15T13:53:41Z</time>
      </trkpt>
      <trkpt lat="44.49592" lon="1.39461">
        <ele>193.8</ele>
        <time>2022-01-15T13:53:42Z</time>
      </trkpt>
      <trkpt lat="44.49591" lon="1.39462">
        <ele>193.9</ele>
        <time>2022-01-15T13:53:43Z</time>
      </trkpt>
      <trkpt lat="44.49591" lon="1.39463">
        <ele>194.3</ele>
        <time>2022-01-15T13:53:44Z</time>
      </trkpt>
      <trkpt lat="44.49589" lon="1.39466">
        <ele>192.3</ele>
        <time>2022-01-15T13:53:45Z</time>
      </trkpt>
      <trkpt lat="44.49588" lon="1.39468">
        <ele>192.3</ele>
        <time>2022-01-15T13:53:46Z</time>
      </trkpt>
      <trkpt lat="44.49587" lon="1.39473">
        <ele>192.8</ele>
        <time>2022-01-15T13:53:47Z</time>
      </trkpt>
      <trkpt lat="44.49588" lon="1.39475">
        <ele>193.2</ele>
        <time>2022-01-15T13:53:48Z</time>
      </trkpt>
      <trkpt lat="44.49588" lon="1.3948">
        <ele>193.7</ele>
        <time>2022-01-15T13:53:49Z</time>
      </trkpt>
      <trkpt lat="44.49589" lon="1.39486">
        <ele>194.1</ele>
        <time>2022-01-15T13:53:50Z</time>
      </trkpt>
      <trkpt lat="44.4959" lon="1.39488">
        <ele>197.1</ele>
        <time>2022-01-15T13:53:51Z</time>
      </trkpt>
      <trkpt lat="44.49591" lon="1.39491">
        <ele>197.1</ele>
        <time>2022-01-15T13:53:52Z</time>
      </trkpt>
      <trkpt lat="44.49593" lon="1.39496">
        <ele>200</ele>
        <time>2022-01-15T13:53:54Z</time>
      </trkpt>
      <trkpt lat="44.49594" lon="1.39499">
        <ele>200.4</ele>
        <time>2022-01-15T13:53:55Z</time>
      </trkpt>
      <trkpt lat="44.49595" lon="1.39504">
        <ele>200.8</ele>
        <time>2022-01-15T13:53:56Z</time>
      </trkpt>
      <trkpt lat="44.49595" lon="1.39506">
        <ele>201.2</ele>
        <time>2022-01-15T13:53:57Z</time>
      </trkpt>
      <trkpt lat="44.49598" lon="1.39511">
        <ele>203.8</ele>
        <time>2022-01-15T13:53:59Z</time>
      </trkpt>
      <trkpt lat="44.49599" lon="1.39512">
        <ele>205.9</ele>
        <time>2022-01-15T13:54:00Z</time>
      </trkpt>
      <trkpt lat="44.496" lon="1.39514">
        <ele>206.2</ele>
        <time>2022-01-15T13:54:01Z</time>
      </trkpt>
      <trkpt lat="44.49602" lon="1.39519">
        <ele>208.4</ele>
        <time>2022-01-15T13:54:02Z</time>
      </trkpt>
      <trkpt lat="44.49603" lon="1.39521">
        <ele>208.4</ele>
        <time>2022-01-15T13:54:03Z</time>
      </trkpt>
      <trkpt lat="44.49602" lon="1.39527">
        <ele>208.8</ele>
        <time>2022-01-15T13:54:05Z</time>
      </trkpt>
      <trkpt lat="44.49601" lon="1.39529">
        <ele>206.9</ele>
        <time>2022-01-15T13:54:06Z</time>
      </trkpt>
      <trkpt lat="44.49601" lon="1.39531">
        <ele>207</ele>
        <time>2022-01-15T13:54:07Z</time>
      </trkpt>
      <trkpt lat="44.496" lon="1.39535">
        <ele>207</ele>
        <time>2022-01-15T13:54:08Z</time>
      </trkpt>
      <trkpt lat="44.496" lon="1.39539">
        <ele>207.2</ele>
        <time>2022-01-15T13:54:09Z</time>
      </trkpt>
      <trkpt lat="44.49601" lon="1.39542">
        <ele>207.3</ele>
        <time>2022-01-15T13:54:10Z</time>
      </trkpt>
      <trkpt lat="44.496" lon="1.39547">
        <ele>207.4</ele>
        <time>2022-01-15T13:54:12Z</time>
      </trkpt>
      <trkpt lat="44.49598" lon="1.39551">
        <ele>205.5</ele>
        <time>2022-01-15T13:54:13Z</time>
      </trkpt>
      <trkpt lat="44.49596" lon="1.39555">
        <ele>205.6</ele>
        <time>2022-01-15T13:54:14Z</time>
      </trkpt>
      <trkpt lat="44.49596" lon="1.39556">
        <ele>205.6</ele>
        <time>2022-01-15T13:54:15Z</time>
      </trkpt>
      <trkpt lat="44.49594" lon="1.3956">
        <ele>203.6</ele>
        <time>2022-01-15T13:54:16Z</time>
      </trkpt>
      <trkpt lat="44.49591" lon="1.39563">
        <ele>201.6</ele>
        <time>2022-01-15T13:54:17Z</time>
      </trkpt>
      <trkpt lat="44.49588" lon="1.39565">
        <ele>199.2</ele>
        <time>2022-01-15T13:54:18Z</time>
      </trkpt>
      <trkpt lat="44.49585" lon="1.39566">
        <ele>197</ele>
        <time>2022-01-15T13:54:20Z</time>
      </trkpt>
      <trkpt lat="44.49583" lon="1.39568">
        <ele>194.5</ele>
        <time>2022-01-15T13:54:21Z</time>
      </trkpt>
      <trkpt lat="44.4958" lon="1.39569">
        <ele>194.6</ele>
        <time>2022-01-15T13:54:22Z</time>
      </trkpt>
      <trkpt lat="44.49578" lon="1.39571">
        <ele>192.1</ele>
        <time>2022-01-15T13:54:23Z</time>
      </trkpt>
      <trkpt lat="44.49577" lon="1.39572">
        <ele>189.5</ele>
        <time>2022-01-15T13:54:24Z</time>
      </trkpt>
      <trkpt lat="44.49575" lon="1.39573">
        <ele>189.5</ele>
        <time>2022-01-15T13:54:25Z</time>
      </trkpt>
      <trkpt lat="44.49574" lon="1.39574">
        <ele>187.1</ele>
        <time>2022-01-15T13:54:26Z</time>
      </trkpt>
      <trkpt lat="44.49573" lon="1.39577">
        <ele>187.2</ele>
        <time>2022-01-15T13:54:27Z</time>
      </trkpt>
      <trkpt lat="44.49573" lon="1.39579">
        <ele>187.3</ele>
        <time>2022-01-15T13:54:28Z</time>
      </trkpt>
      <trkpt lat="44.49572" lon="1.39583">
        <ele>187.5</ele>
        <time>2022-01-15T13:54:29Z</time>
      </trkpt>
      <trkpt lat="44.49571" lon="1.3959">
        <ele>187.7</ele>
        <time>2022-01-15T13:54:31Z</time>
      </trkpt>
      <trkpt lat="44.49571" lon="1.39592">
        <ele>185.3</ele>
        <time>2022-01-15T13:54:32Z</time>
      </trkpt>
      <trkpt lat="44.4957" lon="1.39594">
        <ele>185.3</ele>
        <time>2022-01-15T13:54:33Z</time>
      </trkpt>
      <trkpt lat="44.49569" lon="1.39598">
        <ele>185.5</ele>
        <time>2022-01-15T13:54:34Z</time>
      </trkpt>
      <trkpt lat="44.49569" lon="1.39599">
        <ele>185.5</ele>
        <time>2022-01-15T13:54:35Z</time>
      </trkpt>
      <trkpt lat="44.49567" lon="1.39603">
        <ele>183.2</ele>
        <time>2022-01-15T13:54:36Z</time>
      </trkpt>
      <trkpt lat="44.49566" lon="1.39604">
        <ele>183.4</ele>
        <time>2022-01-15T13:54:37Z</time>
      </trkpt>
      <trkpt lat="44.49565" lon="1.3961">
        <ele>183.6</ele>
        <time>2022-01-15T13:54:38Z</time>
      </trkpt>
      <trkpt lat="44.49564" lon="1.39615">
        <ele>181.3</ele>
        <time>2022-01-15T13:54:40Z</time>
      </trkpt>
      <trkpt lat="44.49565" lon="1.3962">
        <ele>184.1</ele>
        <time>2022-01-15T13:54:41Z</time>
      </trkpt>
      <trkpt lat="44.49566" lon="1.39621">
        <ele>184.3</ele>
        <time>2022-01-15T13:54:42Z</time>
      </trkpt>
      <trkpt lat="44.49566" lon="1.39625">
        <ele>184.4</ele>
        <time>2022-01-15T13:54:43Z</time>
      </trkpt>
      <trkpt lat="44.49566" lon="1.39629">
        <ele>184.5</ele>
        <time>2022-01-15T13:54:44Z</time>
      </trkpt>
      <trkpt lat="44.49565" lon="1.39633">
        <ele>182.2</ele>
        <time>2022-01-15T13:54:45Z</time>
      </trkpt>
      <trkpt lat="44.49563" lon="1.39638">
        <ele>182.6</ele>
        <time>2022-01-15T13:54:46Z</time>
      </trkpt>
      <trkpt lat="44.49563" lon="1.39641">
        <ele>182.6</ele>
        <time>2022-01-15T13:54:47Z</time>
      </trkpt>
      <trkpt lat="44.4956" lon="1.39645">
        <ele>180.3</ele>
        <time>2022-01-15T13:54:49Z</time>
      </trkpt>
      <trkpt lat="44.49558" lon="1.39648">
        <ele>178</ele>
        <time>2022-01-15T13:54:50Z</time>
      </trkpt>
      <trkpt lat="44.49557" lon="1.39651">
        <ele>178.3</ele>
        <time>2022-01-15T13:54:51Z</time>
      </trkpt>
      <trkpt lat="44.49556" lon="1.39656">
        <ele>176</ele>
        <time>2022-01-15T13:54:52Z</time>
      </trkpt>
      <trkpt lat="44.49555" lon="1.39661">
        <ele>176.4</ele>
        <time>2022-01-15T13:54:53Z</time>
      </trkpt>
      <trkpt lat="44.49556" lon="1.39667">
        <ele>179.4</ele>
        <time>2022-01-15T13:54:55Z</time>
      </trkpt>
      <trkpt lat="44.49557" lon="1.39671">
        <ele>179.8</ele>
        <time>2022-01-15T13:54:56Z</time>
      </trkpt>
      <trkpt lat="44.49558" lon="1.39676">
        <ele>180.2</ele>
        <time>2022-01-15T13:54:57Z</time>
      </trkpt>
      <trkpt lat="44.49559" lon="1.3968">
        <ele>183</ele>
        <time>2022-01-15T13:54:58Z</time>
      </trkpt>
      <trkpt lat="44.49559" lon="1.39682">
        <ele>183.4</ele>
        <time>2022-01-15T13:54:59Z</time>
      </trkpt>
      <trkpt lat="44.49559" lon="1.39687">
        <ele>183.8</ele>
        <time>2022-01-15T13:55:00Z</time>
      </trkpt>
      <trkpt lat="44.4956" lon="1.39688">
        <ele>183.8</ele>
        <time>2022-01-15T13:55:01Z</time>
      </trkpt>
      <trkpt lat="44.49559" lon="1.39691">
        <ele>184.3</ele>
        <time>2022-01-15T13:55:02Z</time>
      </trkpt>
      <trkpt lat="44.49559" lon="1.39697">
        <ele>182.4</ele>
        <time>2022-01-15T13:55:04Z</time>
      </trkpt>
      <trkpt lat="44.49559" lon="1.39701">
        <ele>185.3</ele>
        <time>2022-01-15T13:55:05Z</time>
      </trkpt>
      <trkpt lat="44.4956" lon="1.39705">
        <ele>185.9</ele>
        <time>2022-01-15T13:55:06Z</time>
      </trkpt>
      <trkpt lat="44.49562" lon="1.3971">
        <ele>188.6</ele>
        <time>2022-01-15T13:55:07Z</time>
      </trkpt>
      <trkpt lat="44.49563" lon="1.39711">
        <ele>189.2</ele>
        <time>2022-01-15T13:55:08Z</time>
      </trkpt>
      <trkpt lat="44.49564" lon="1.39714">
        <ele>189.2</ele>
        <time>2022-01-15T13:55:09Z</time>
      </trkpt>
      <trkpt lat="44.49565" lon="1.39717">
        <ele>191.7</ele>
        <time>2022-01-15T13:55:11Z</time>
      </trkpt>
      <trkpt lat="44.49565" lon="1.39721">
        <ele>192.3</ele>
        <time>2022-01-15T13:55:12Z</time>
      </trkpt>
      <trkpt lat="44.49567" lon="1.39724">
        <ele>192.8</ele>
        <time>2022-01-15T13:55:13Z</time>
      </trkpt>
      <trkpt lat="44.49569" lon="1.39725">
        <ele>194.6</ele>
        <time>2022-01-15T13:55:15Z</time>
      </trkpt>
      <trkpt lat="44.4957" lon="1.39727">
        <ele>194.6</ele>
        <time>2022-01-15T13:55:16Z</time>
      </trkpt>
      <trkpt lat="44.49571" lon="1.39729">
        <ele>195.1</ele>
        <time>2022-01-15T13:55:17Z</time>
      </trkpt>
      <trkpt lat="44.49572" lon="1.39731">
        <ele>196.9</ele>
        <time>2022-01-15T13:55:18Z</time>
      </trkpt>
      <trkpt lat="44.49574" lon="1.39735">
        <ele>197.3</ele>
        <time>2022-01-15T13:55:20Z</time>
      </trkpt>
      <trkpt lat="44.49575" lon="1.39738">
        <ele>199.4</ele>
        <time>2022-01-15T13:55:21Z</time>
      </trkpt>
      <trkpt lat="44.49576" lon="1.3974">
        <ele>199.4</ele>
        <time>2022-01-15T13:55:22Z</time>
      </trkpt>
      <trkpt lat="44.49576" lon="1.39742">
        <ele>199.8</ele>
        <time>2022-01-15T13:55:23Z</time>
      </trkpt>
      <trkpt lat="44.49578" lon="1.39744">
        <ele>201.5</ele>
        <time>2022-01-15T13:55:24Z</time>
      </trkpt>
      <trkpt lat="44.49579" lon="1.39745">
        <ele>201.8</ele>
        <time>2022-01-15T13:55:26Z</time>
      </trkpt>
      <trkpt lat="44.4958" lon="1.39747">
        <ele>203.4</ele>
        <time>2022-01-15T13:55:27Z</time>
      </trkpt>
      <trkpt lat="44.49581" lon="1.39748">
        <ele>203.4</ele>
        <time>2022-01-15T13:55:28Z</time>
      </trkpt>
      <trkpt lat="44.49583" lon="1.3975">
        <ele>203.5</ele>
        <time>2022-01-15T13:55:29Z</time>
      </trkpt>
      <trkpt lat="44.49583" lon="1.39752">
        <ele>205.2</ele>
        <time>2022-01-15T13:55:30Z</time>
      </trkpt>
      <trkpt lat="44.49584" lon="1.39754">
        <ele>205.2</ele>
        <time>2022-01-15T13:55:31Z</time>
      </trkpt>
      <trkpt lat="44.49584" lon="1.39757">
        <ele>205.5</ele>
        <time>2022-01-15T13:55:32Z</time>
      </trkpt>
      <trkpt lat="44.49584" lon="1.39758">
        <ele>205.5</ele>
        <time>2022-01-15T13:55:33Z</time>
      </trkpt>
      <trkpt lat="44.49585" lon="1.39759">
        <ele>205.8</ele>
        <time>2022-01-15T13:55:34Z</time>
      </trkpt>
      <trkpt lat="44.49585" lon="1.39761">
        <ele>205.8</ele>
        <time>2022-01-15T13:55:35Z</time>
      </trkpt>
      <trkpt lat="44.49585" lon="1.39764">
        <ele>206.1</ele>
        <time>2022-01-15T13:55:36Z</time>
      </trkpt>
      <trkpt lat="44.49585" lon="1.39766">
        <ele>206.1</ele>
        <time>2022-01-15T13:55:37Z</time>
      </trkpt>
      <trkpt lat="44.49585" lon="1.39767">
        <ele>206.4</ele>
        <time>2022-01-15T13:55:38Z</time>
      </trkpt>
      <trkpt lat="44.49587" lon="1.39769">
        <ele>206.2</ele>
        <time>2022-01-15T13:55:40Z</time>
      </trkpt>
      <trkpt lat="44.49587" lon="1.3977">
        <ele>206.1</ele>
        <time>2022-01-15T13:55:41Z</time>
      </trkpt>
      <trkpt lat="44.49586" lon="1.39771">
        <ele>206.1</ele>
        <time>2022-01-15T13:55:42Z</time>
      </trkpt>
      <trkpt lat="44.49586" lon="1.39772">
        <ele>206</ele>
        <time>2022-01-15T13:55:43Z</time>
      </trkpt>
      <trkpt lat="44.49586" lon="1.39773">
        <ele>205.9</ele>
        <time>2022-01-15T13:55:44Z</time>
      </trkpt>
      <trkpt lat="44.49585" lon="1.39775">
        <ele>205.8</ele>
        <time>2022-01-15T13:55:45Z</time>
      </trkpt>
      <trkpt lat="44.49585" lon="1.39776">
        <ele>205.7</ele>
        <time>2022-01-15T13:55:46Z</time>
      </trkpt>
      <trkpt lat="44.49584" lon="1.39778">
        <ele>205.7</ele>
        <time>2022-01-15T13:55:47Z</time>
      </trkpt>
      <trkpt lat="44.49584" lon="1.39779">
        <ele>205.6</ele>
        <time>2022-01-15T13:55:48Z</time>
      </trkpt>
      <trkpt lat="44.49584" lon="1.39781">
        <ele>205.5</ele>
        <time>2022-01-15T13:55:49Z</time>
      </trkpt>
      <trkpt lat="44.49584" lon="1.39782">
        <ele>205.4</ele>
        <time>2022-01-15T13:55:50Z</time>
      </trkpt>
      <trkpt lat="44.49583" lon="1.39783">
        <ele>205.4</ele>
        <time>2022-01-15T13:55:51Z</time>
      </trkpt>
      <trkpt lat="44.49583" lon="1.39785">
        <ele>205.3</ele>
        <time>2022-01-15T13:55:52Z</time>
      </trkpt>
      <trkpt lat="44.49583" lon="1.39786">
        <ele>205.2</ele>
        <time>2022-01-15T13:55:53Z</time>
      </trkpt>
      <trkpt lat="44.49582" lon="1.39787">
        <ele>205.2</ele>
        <time>2022-01-15T13:55:55Z</time>
      </trkpt>
      <trkpt lat="44.49582" lon="1.39789">
        <ele>205.1</ele>
        <time>2022-01-15T13:55:56Z</time>
      </trkpt>
      <trkpt lat="44.49582" lon="1.3979">
        <ele>205</ele>
        <time>2022-01-15T13:56:39Z</time>
      </trkpt>
      <trkpt lat="44.49581" lon="1.39791">
        <ele>205</ele>
        <time>2022-01-15T13:56:40Z</time>
      </trkpt>
      <trkpt lat="44.49581" lon="1.39793">
        <ele>204.9</ele>
        <time>2022-01-15T13:56:41Z</time>
      </trkpt>
      <trkpt lat="44.49578" lon="1.39797">
        <ele>204.7</ele>
        <time>2022-01-15T13:56:42Z</time>
      </trkpt>
      <trkpt lat="44.49574" lon="1.39803">
        <ele>204.4</ele>
        <time>2022-01-15T13:56:43Z</time>
      </trkpt>
      <trkpt lat="44.4957" lon="1.3981">
        <ele>204</ele>
        <time>2022-01-15T13:56:45Z</time>
      </trkpt>
      <trkpt lat="44.49567" lon="1.39816">
        <ele>203.9</ele>
        <time>2022-01-15T13:56:46Z</time>
      </trkpt>
      <trkpt lat="44.49564" lon="1.39821">
        <ele>203.7</ele>
        <time>2022-01-15T13:56:47Z</time>
      </trkpt>
      <trkpt lat="44.49562" lon="1.3983">
        <ele>203.6</ele>
        <time>2022-01-15T13:56:48Z</time>
      </trkpt>
      <trkpt lat="44.4956" lon="1.39838">
        <ele>203.6</ele>
        <time>2022-01-15T13:56:50Z</time>
      </trkpt>
      <trkpt lat="44.49559" lon="1.39844">
        <ele>203.5</ele>
        <time>2022-01-15T13:56:51Z</time>
      </trkpt>
      <trkpt lat="44.49558" lon="1.39852">
        <ele>203.5</ele>
        <time>2022-01-15T13:56:52Z</time>
      </trkpt>
      <trkpt lat="44.49557" lon="1.39856">
        <ele>203.5</ele>
        <time>2022-01-15T13:56:53Z</time>
      </trkpt>
      <trkpt lat="44.49556" lon="1.39862">
        <ele>203.5</ele>
        <time>2022-01-15T13:56:55Z</time>
      </trkpt>
      <trkpt lat="44.49555" lon="1.39865">
        <ele>203.7</ele>
        <time>2022-01-15T13:56:56Z</time>
      </trkpt>
      <trkpt lat="44.49554" lon="1.39871">
        <ele>204.1</ele>
        <time>2022-01-15T13:56:57Z</time>
      </trkpt>
      <trkpt lat="44.49552" lon="1.39875">
        <ele>204.3</ele>
        <time>2022-01-15T13:56:59Z</time>
      </trkpt>
      <trkpt lat="44.4955" lon="1.3988">
        <ele>204.7</ele>
        <time>2022-01-15T13:57:00Z</time>
      </trkpt>
      <trkpt lat="44.49549" lon="1.39884">
        <ele>204.9</ele>
        <time>2022-01-15T13:57:01Z</time>
      </trkpt>
      <trkpt lat="44.49548" lon="1.39888">
        <ele>205.1</ele>
        <time>2022-01-15T13:57:02Z</time>
      </trkpt>
      <trkpt lat="44.49546" lon="1.39893">
        <ele>205.4</ele>
        <time>2022-01-15T13:57:03Z</time>
      </trkpt>
      <trkpt lat="44.49545" lon="1.399">
        <ele>205.7</ele>
        <time>2022-01-15T13:57:05Z</time>
      </trkpt>
      <trkpt lat="44.49544" lon="1.39905">
        <ele>205.9</ele>
        <time>2022-01-15T13:57:06Z</time>
      </trkpt>
      <trkpt lat="44.49544" lon="1.3991">
        <ele>206.1</ele>
        <time>2022-01-15T13:57:07Z</time>
      </trkpt>
      <trkpt lat="44.49543" lon="1.39915">
        <ele>206.3</ele>
        <time>2022-01-15T13:57:08Z</time>
      </trkpt>
      <trkpt lat="44.49542" lon="1.39921">
        <ele>206.4</ele>
        <time>2022-01-15T13:57:09Z</time>
      </trkpt>
      <trkpt lat="44.4954" lon="1.39928">
        <ele>206.6</ele>
        <time>2022-01-15T13:57:10Z</time>
      </trkpt>
      <trkpt lat="44.49539" lon="1.39935">
        <ele>206.7</ele>
        <time>2022-01-15T13:57:12Z</time>
      </trkpt>
      <trkpt lat="44.49538" lon="1.39939">
        <ele>206.8</ele>
        <time>2022-01-15T13:57:13Z</time>
      </trkpt>
      <trkpt lat="44.49536" lon="1.39944">
        <ele>206.9</ele>
        <time>2022-01-15T13:57:14Z</time>
      </trkpt>
      <trkpt lat="44.49533" lon="1.39948">
        <ele>206.9</ele>
        <time>2022-01-15T13:57:15Z</time>
      </trkpt>
      <trkpt lat="44.4953" lon="1.39951">
        <ele>207</ele>
        <time>2022-01-15T13:57:16Z</time>
      </trkpt>
      <trkpt lat="44.4953" lon="1.39953">
        <ele>207</ele>
        <time>2022-01-15T13:57:17Z</time>
      </trkpt>
      <trkpt lat="44.49528" lon="1.39958">
        <ele>207.1</ele>
        <time>2022-01-15T13:57:18Z</time>
      </trkpt>
      <trkpt lat="44.49529" lon="1.39962">
        <ele>207.1</ele>
        <time>2022-01-15T13:57:19Z</time>
      </trkpt>
      <trkpt lat="44.4953" lon="1.39967">
        <ele>207.2</ele>
        <time>2022-01-15T13:57:20Z</time>
      </trkpt>
      <trkpt lat="44.4953" lon="1.39971">
        <ele>207.2</ele>
        <time>2022-01-15T13:57:21Z</time>
      </trkpt>
      <trkpt lat="44.4953" lon="1.39975">
        <ele>207.3</ele>
        <time>2022-01-15T13:57:22Z</time>
      </trkpt>
      <trkpt lat="44.49529" lon="1.39979">
        <ele>207.3</ele>
        <time>2022-01-15T13:57:24Z</time>
      </trkpt>
      <trkpt lat="44.49527" lon="1.39983">
        <ele>207.4</ele>
        <time>2022-01-15T13:57:25Z</time>
      </trkpt>
      <trkpt lat="44.49525" lon="1.39987">
        <ele>207.4</ele>
        <time>2022-01-15T13:57:26Z</time>
      </trkpt>
      <trkpt lat="44.49524" lon="1.3999">
        <ele>207.4</ele>
        <time>2022-01-15T13:57:27Z</time>
      </trkpt>
      <trkpt lat="44.49521" lon="1.39994">
        <ele>207.5</ele>
        <time>2022-01-15T13:57:28Z</time>
      </trkpt>
      <trkpt lat="44.49518" lon="1.39999">
        <ele>207.5</ele>
        <time>2022-01-15T13:57:29Z</time>
      </trkpt>
      <trkpt lat="44.49517" lon="1.40001">
        <ele>207.5</ele>
        <time>2022-01-15T13:57:30Z</time>
      </trkpt>
      <trkpt lat="44.49514" lon="1.40004">
        <ele>207.6</ele>
        <time>2022-01-15T13:57:31Z</time>
      </trkpt>
      <trkpt lat="44.4951" lon="1.40008">
        <ele>207.6</ele>
        <time>2022-01-15T13:57:33Z</time>
      </trkpt>
      <trkpt lat="44.49507" lon="1.40011">
        <ele>207.6</ele>
        <time>2022-01-15T13:57:34Z</time>
      </trkpt>
      <trkpt lat="44.49505" lon="1.40014">
        <ele>207.6</ele>
        <time>2022-01-15T13:57:35Z</time>
      </trkpt>
      <trkpt lat="44.49503" lon="1.40018">
        <ele>207.6</ele>
        <time>2022-01-15T13:57:36Z</time>
      </trkpt>
      <trkpt lat="44.49503" lon="1.40023">
        <ele>207.7</ele>
        <time>2022-01-15T13:57:38Z</time>
      </trkpt>
      <trkpt lat="44.49504" lon="1.40029">
        <ele>207.7</ele>
        <time>2022-01-15T13:57:39Z</time>
      </trkpt>
      <trkpt lat="44.49504" lon="1.40034">
        <ele>207.8</ele>
        <time>2022-01-15T13:57:40Z</time>
      </trkpt>
      <trkpt lat="44.49505" lon="1.4004">
        <ele>207.8</ele>
        <time>2022-01-15T13:57:42Z</time>
      </trkpt>
      <trkpt lat="44.49504" lon="1.40045">
        <ele>207.9</ele>
        <time>2022-01-15T13:57:43Z</time>
      </trkpt>
      <trkpt lat="44.49502" lon="1.40052">
        <ele>208</ele>
        <time>2022-01-15T13:57:45Z</time>
      </trkpt>
      <trkpt lat="44.49501" lon="1.40054">
        <ele>208.1</ele>
        <time>2022-01-15T13:57:46Z</time>
      </trkpt>
      <trkpt lat="44.495" lon="1.40055">
        <ele>208.1</ele>
        <time>2022-01-15T13:57:47Z</time>
      </trkpt>
      <trkpt lat="44.49497" lon="1.40059">
        <ele>208.2</ele>
        <time>2022-01-15T13:57:48Z</time>
      </trkpt>
      <trkpt lat="44.49495" lon="1.40061">
        <ele>208.3</ele>
        <time>2022-01-15T13:57:49Z</time>
      </trkpt>
      <trkpt lat="44.49493" lon="1.40064">
        <ele>208.4</ele>
        <time>2022-01-15T13:57:50Z</time>
      </trkpt>
      <trkpt lat="44.49491" lon="1.40067">
        <ele>208.5</ele>
        <time>2022-01-15T13:57:51Z</time>
      </trkpt>
      <trkpt lat="44.49488" lon="1.40072">
        <ele>208.6</ele>
        <time>2022-01-15T13:57:53Z</time>
      </trkpt>
      <trkpt lat="44.49487" lon="1.40076">
        <ele>208.7</ele>
        <time>2022-01-15T13:57:54Z</time>
      </trkpt>
      <trkpt lat="44.49485" lon="1.4008">
        <ele>208.9</ele>
        <time>2022-01-15T13:57:55Z</time>
      </trkpt>
      <trkpt lat="44.49484" lon="1.40084">
        <ele>209</ele>
        <time>2022-01-15T13:57:56Z</time>
      </trkpt>
      <trkpt lat="44.49485" lon="1.40089">
        <ele>209.2</ele>
        <time>2022-01-15T13:57:57Z</time>
      </trkpt>
      <trkpt lat="44.49486" lon="1.40092">
        <ele>209.3</ele>
        <time>2022-01-15T13:57:58Z</time>
      </trkpt>
      <trkpt lat="44.49487" lon="1.40095">
        <ele>209.4</ele>
        <time>2022-01-15T13:58:00Z</time>
      </trkpt>
      <trkpt lat="44.49487" lon="1.40099">
        <ele>209.5</ele>
        <time>2022-01-15T13:58:01Z</time>
      </trkpt>
      <trkpt lat="44.49488" lon="1.40104">
        <ele>209.7</ele>
        <time>2022-01-15T13:58:02Z</time>
      </trkpt>
      <trkpt lat="44.49488" lon="1.40105">
        <ele>209.8</ele>
        <time>2022-01-15T13:58:03Z</time>
      </trkpt>
      <trkpt lat="44.49488" lon="1.40109">
        <ele>209.9</ele>
        <time>2022-01-15T13:58:04Z</time>
      </trkpt>
      <trkpt lat="44.49485" lon="1.40113">
        <ele>210.1</ele>
        <time>2022-01-15T13:58:06Z</time>
      </trkpt>
      <trkpt lat="44.49485" lon="1.40114">
        <ele>210.2</ele>
        <time>2022-01-15T13:58:07Z</time>
      </trkpt>
      <trkpt lat="44.49484" lon="1.40119">
        <ele>210.3</ele>
        <time>2022-01-15T13:58:08Z</time>
      </trkpt>
      <trkpt lat="44.49483" lon="1.40122">
        <ele>210.4</ele>
        <time>2022-01-15T13:58:09Z</time>
      </trkpt>
      <trkpt lat="44.49482" lon="1.40126">
        <ele>210.6</ele>
        <time>2022-01-15T13:58:10Z</time>
      </trkpt>
      <trkpt lat="44.49481" lon="1.4013">
        <ele>210.7</ele>
        <time>2022-01-15T13:58:11Z</time>
      </trkpt>
      <trkpt lat="44.49479" lon="1.40134">
        <ele>210.9</ele>
        <time>2022-01-15T13:58:13Z</time>
      </trkpt>
      <trkpt lat="44.49478" lon="1.40139">
        <ele>211.1</ele>
        <time>2022-01-15T13:58:14Z</time>
      </trkpt>
      <trkpt lat="44.49476" lon="1.40144">
        <ele>211.2</ele>
        <time>2022-01-15T13:58:15Z</time>
      </trkpt>
      <trkpt lat="44.49475" lon="1.40148">
        <ele>211.4</ele>
        <time>2022-01-15T13:58:16Z</time>
      </trkpt>
      <trkpt lat="44.49473" lon="1.40153">
        <ele>211.5</ele>
        <time>2022-01-15T13:58:18Z</time>
      </trkpt>
      <trkpt lat="44.4947" lon="1.40155">
        <ele>211.6</ele>
        <time>2022-01-15T13:58:19Z</time>
      </trkpt>
      <trkpt lat="44.49468" lon="1.4016">
        <ele>211.8</ele>
        <time>2022-01-15T13:58:20Z</time>
      </trkpt>
      <trkpt lat="44.49467" lon="1.40162">
        <ele>211.8</ele>
        <time>2022-01-15T13:58:21Z</time>
      </trkpt>
      <trkpt lat="44.49465" lon="1.40166">
        <ele>212</ele>
        <time>2022-01-15T13:58:22Z</time>
      </trkpt>
      <trkpt lat="44.49463" lon="1.40169">
        <ele>212.1</ele>
        <time>2022-01-15T13:58:23Z</time>
      </trkpt>
      <trkpt lat="44.49461" lon="1.40173">
        <ele>212.2</ele>
        <time>2022-01-15T13:58:25Z</time>
      </trkpt>
      <trkpt lat="44.49458" lon="1.40176">
        <ele>212.4</ele>
        <time>2022-01-15T13:58:26Z</time>
      </trkpt>
      <trkpt lat="44.49455" lon="1.4018">
        <ele>212.6</ele>
        <time>2022-01-15T13:58:27Z</time>
      </trkpt>
      <trkpt lat="44.49452" lon="1.40184">
        <ele>212.7</ele>
        <time>2022-01-15T13:58:29Z</time>
      </trkpt>
      <trkpt lat="44.49449" lon="1.40187">
        <ele>212.9</ele>
        <time>2022-01-15T13:58:30Z</time>
      </trkpt>
      <trkpt lat="44.49448" lon="1.40188">
        <ele>213</ele>
        <time>2022-01-15T13:58:31Z</time>
      </trkpt>
      <trkpt lat="44.49445" lon="1.40192">
        <ele>213.2</ele>
        <time>2022-01-15T13:58:32Z</time>
      </trkpt>
      <trkpt lat="44.49444" lon="1.40194">
        <ele>213.2</ele>
        <time>2022-01-15T13:58:33Z</time>
      </trkpt>
      <trkpt lat="44.49443" lon="1.40198">
        <ele>213.4</ele>
        <time>2022-01-15T13:58:34Z</time>
      </trkpt>
      <trkpt lat="44.49441" lon="1.40205">
        <ele>213.8</ele>
        <time>2022-01-15T13:58:36Z</time>
      </trkpt>
      <trkpt lat="44.49441" lon="1.40207">
        <ele>213.9</ele>
        <time>2022-01-15T13:58:37Z</time>
      </trkpt>
      <trkpt lat="44.4944" lon="1.40209">
        <ele>214</ele>
        <time>2022-01-15T13:58:38Z</time>
      </trkpt>
      <trkpt lat="44.49441" lon="1.40214">
        <ele>214.3</ele>
        <time>2022-01-15T13:58:39Z</time>
      </trkpt>
      <trkpt lat="44.49441" lon="1.40216">
        <ele>214.4</ele>
        <time>2022-01-15T13:58:40Z</time>
      </trkpt>
      <trkpt lat="44.49441" lon="1.40221">
        <ele>214.8</ele>
        <time>2022-01-15T13:58:41Z</time>
      </trkpt>
      <trkpt lat="44.49442" lon="1.40223">
        <ele>214.9</ele>
        <time>2022-01-15T13:58:42Z</time>
      </trkpt>
      <trkpt lat="44.49443" lon="1.4023">
        <ele>215.5</ele>
        <time>2022-01-15T13:58:44Z</time>
      </trkpt>
      <trkpt lat="44.49443" lon="1.40232">
        <ele>215.7</ele>
        <time>2022-01-15T13:58:45Z</time>
      </trkpt>
      <trkpt lat="44.49444" lon="1.40234">
        <ele>215.7</ele>
        <time>2022-01-15T13:58:46Z</time>
      </trkpt>
      <trkpt lat="44.49445" lon="1.40236">
        <ele>215.8</ele>
        <time>2022-01-15T13:58:48Z</time>
      </trkpt>
      <trkpt lat="44.49446" lon="1.40237">
        <ele>217.2</ele>
        <time>2022-01-15T13:58:49Z</time>
      </trkpt>
      <trkpt lat="44.49446" lon="1.40238">
        <ele>217.2</ele>
        <time>2022-01-15T13:58:50Z</time>
      </trkpt>
      <trkpt lat="44.49445" lon="1.40239">
        <ele>215.9</ele>
        <time>2022-01-15T13:58:51Z</time>
      </trkpt>
      <trkpt lat="44.49444" lon="1.40239">
        <ele>215.9</ele>
        <time>2022-01-15T13:58:52Z</time>
      </trkpt>
      <trkpt lat="44.49444" lon="1.4024">
        <ele>215.9</ele>
        <time>2022-01-15T13:58:53Z</time>
      </trkpt>
      <trkpt lat="44.49444" lon="1.4024">
        <ele>215.9</ele>
        <time>2022-01-15T13:58:54Z</time>
      </trkpt>
      <trkpt lat="44.49444" lon="1.40241">
        <ele>215.9</ele>
        <time>2022-01-15T13:58:55Z</time>
      </trkpt>
      <trkpt lat="44.49444" lon="1.4024">
        <ele>215.9</ele>
        <time>2022-01-15T13:58:56Z</time>
      </trkpt>
      <trkpt lat="44.49444" lon="1.4024">
        <ele>215.9</ele>
        <time>2022-01-15T13:58:57Z</time>
      </trkpt>
      <trkpt lat="44.49444" lon="1.4024">
        <ele>215.9</ele>
        <time>2022-01-15T13:58:58Z</time>
      </trkpt>
      <trkpt lat="44.49444" lon="1.4024">
        <ele>215.9</ele>
        <time>2022-01-15T13:58:59Z</time>
      </trkpt>
      <trkpt lat="44.49444" lon="1.4024">
        <ele>215.9</ele>
        <time>2022-01-15T13:59:00Z</time>
      </trkpt>
      <trkpt lat="44.49444" lon="1.4024">
        <ele>215.9</ele>
        <time>2022-01-15T13:59:01Z</time>
      </trkpt>
      <trkpt lat="44.49443" lon="1.40239">
        <ele>215.9</ele>
        <time>2022-01-15T13:59:03Z</time>
      </trkpt>
      <trkpt lat="44.49443" lon="1.4024">
        <ele>215.9</ele>
        <time>2022-01-15T13:59:04Z</time>
      </trkpt>
      <trkpt lat="44.49443" lon="1.4024">
        <ele>215.9</ele>
        <time>2022-01-15T13:59:05Z</time>
      </trkpt>
      <trkpt lat="44.4944" lon="1.40245">
        <ele>214.6</ele>
        <time>2022-01-15T13:59:30Z</time>
      </trkpt>
      <trkpt lat="44.49438" lon="1.40249">
        <ele>213.4</ele>
        <time>2022-01-15T13:59:31Z</time>
      </trkpt>
      <trkpt lat="44.49436" lon="1.40253">
        <ele>212.3</ele>
        <time>2022-01-15T13:59:32Z</time>
      </trkpt>
      <trkpt lat="44.49434" lon="1.4026">
        <ele>212.4</ele>
        <time>2022-01-15T13:59:33Z</time>
      </trkpt>
      <trkpt lat="44.49432" lon="1.40265">
        <ele>211.5</ele>
        <time>2022-01-15T13:59:34Z</time>
      </trkpt>
      <trkpt lat="44.4943" lon="1.40271">
        <ele>210.5</ele>
        <time>2022-01-15T13:59:36Z</time>
      </trkpt>
      <trkpt lat="44.49429" lon="1.40278">
        <ele>210.4</ele>
        <time>2022-01-15T13:59:37Z</time>
      </trkpt>
      <trkpt lat="44.49426" lon="1.40282">
        <ele>209.4</ele>
        <time>2022-01-15T13:59:38Z</time>
      </trkpt>
      <trkpt lat="44.4942" lon="1.40287">
        <ele>206.9</ele>
        <time>2022-01-15T13:59:40Z</time>
      </trkpt>
      <trkpt lat="44.4942" lon="1.40292">
        <ele>206.8</ele>
        <time>2022-01-15T13:59:41Z</time>
      </trkpt>
      <trkpt lat="44.4942" lon="1.40299">
        <ele>206.7</ele>
        <time>2022-01-15T13:59:42Z</time>
      </trkpt>
      <trkpt lat="44.49419" lon="1.40303">
        <ele>206.5</ele>
        <time>2022-01-15T13:59:43Z</time>
      </trkpt>
      <trkpt lat="44.49415" lon="1.40308">
        <ele>204.2</ele>
        <time>2022-01-15T13:59:44Z</time>
      </trkpt>
      <trkpt lat="44.49412" lon="1.40314">
        <ele>203.1</ele>
        <time>2022-01-15T13:59:45Z</time>
      </trkpt>
      <trkpt lat="44.49408" lon="1.4032">
        <ele>202.1</ele>
        <time>2022-01-15T13:59:46Z</time>
      </trkpt>
      <trkpt lat="44.49402" lon="1.40326">
        <ele>200.1</ele>
        <time>2022-01-15T13:59:48Z</time>
      </trkpt>
      <trkpt lat="44.49399" lon="1.40332">
        <ele>199.1</ele>
        <time>2022-01-15T13:59:49Z</time>
      </trkpt>
      <trkpt lat="44.49396" lon="1.40337">
        <ele>197.9</ele>
        <time>2022-01-15T13:59:50Z</time>
      </trkpt>
      <trkpt lat="44.49393" lon="1.40342">
        <ele>196.7</ele>
        <time>2022-01-15T13:59:51Z</time>
      </trkpt>
      <trkpt lat="44.49391" lon="1.40348">
        <ele>196.7</ele>
        <time>2022-01-15T13:59:52Z</time>
      </trkpt>
      <trkpt lat="44.4939" lon="1.40353">
        <ele>195.5</ele>
        <time>2022-01-15T13:59:53Z</time>
      </trkpt>
      <trkpt lat="44.49391" lon="1.40359">
        <ele>196.4</ele>
        <time>2022-01-15T13:59:54Z</time>
      </trkpt>
      <trkpt lat="44.49392" lon="1.40364">
        <ele>196.1</ele>
        <time>2022-01-15T13:59:55Z</time>
      </trkpt>
      <trkpt lat="44.49391" lon="1.4037">
        <ele>195.8</ele>
        <time>2022-01-15T13:59:56Z</time>
      </trkpt>
      <trkpt lat="44.4939" lon="1.40375">
        <ele>194.7</ele>
        <time>2022-01-15T13:59:57Z</time>
      </trkpt>
      <trkpt lat="44.49386" lon="1.40379">
        <ele>193.6</ele>
        <time>2022-01-15T13:59:58Z</time>
      </trkpt>
      <trkpt lat="44.49381" lon="1.40383">
        <ele>192.5</ele>
        <time>2022-01-15T13:59:59Z</time>
      </trkpt>
      <trkpt lat="44.49377" lon="1.40386">
        <ele>190.5</ele>
        <time>2022-01-15T14:00:01Z</time>
      </trkpt>
      <trkpt lat="44.49373" lon="1.40389">
        <ele>189.5</ele>
        <time>2022-01-15T14:00:02Z</time>
      </trkpt>
      <trkpt lat="44.49369" lon="1.40393">
        <ele>188.3</ele>
        <time>2022-01-15T14:00:03Z</time>
      </trkpt>
      <trkpt lat="44.49367" lon="1.40396">
        <ele>187.1</ele>
        <time>2022-01-15T14:00:04Z</time>
      </trkpt>
      <trkpt lat="44.49363" lon="1.40401">
        <ele>185.8</ele>
        <time>2022-01-15T14:00:05Z</time>
      </trkpt>
      <trkpt lat="44.49359" lon="1.40407">
        <ele>183.2</ele>
        <time>2022-01-15T14:00:06Z</time>
      </trkpt>
      <trkpt lat="44.49356" lon="1.40412">
        <ele>182.1</ele>
        <time>2022-01-15T14:00:07Z</time>
      </trkpt>
      <trkpt lat="44.49353" lon="1.40417">
        <ele>181</ele>
        <time>2022-01-15T14:00:09Z</time>
      </trkpt>
      <trkpt lat="44.49352" lon="1.40421">
        <ele>181</ele>
        <time>2022-01-15T14:00:10Z</time>
      </trkpt>
      <trkpt lat="44.49352" lon="1.40426">
        <ele>180.9</ele>
        <time>2022-01-15T14:00:11Z</time>
      </trkpt>
      <trkpt lat="44.49351" lon="1.40431">
        <ele>180.8</ele>
        <time>2022-01-15T14:00:12Z</time>
      </trkpt>
      <trkpt lat="44.4935" lon="1.40436">
        <ele>179.8</ele>
        <time>2022-01-15T14:00:13Z</time>
      </trkpt>
      <trkpt lat="44.49349" lon="1.4044">
        <ele>179.7</ele>
        <time>2022-01-15T14:00:14Z</time>
      </trkpt>
      <trkpt lat="44.49348" lon="1.40445">
        <ele>179.4</ele>
        <time>2022-01-15T14:00:15Z</time>
      </trkpt>
      <trkpt lat="44.49346" lon="1.40449">
        <ele>178.5</ele>
        <time>2022-01-15T14:00:16Z</time>
      </trkpt>
      <trkpt lat="44.49344" lon="1.40452">
        <ele>177.5</ele>
        <time>2022-01-15T14:00:17Z</time>
      </trkpt>
      <trkpt lat="44.4934" lon="1.40455">
        <ele>176.4</ele>
        <time>2022-01-15T14:00:18Z</time>
      </trkpt>
      <trkpt lat="44.49337" lon="1.40459">
        <ele>175.3</ele>
        <time>2022-01-15T14:00:19Z</time>
      </trkpt>
      <trkpt lat="44.49336" lon="1.40464">
        <ele>175.1</ele>
        <time>2022-01-15T14:00:20Z</time>
      </trkpt>
      <trkpt lat="44.49335" lon="1.40468">
        <ele>173.9</ele>
        <time>2022-01-15T14:00:21Z</time>
      </trkpt>
      <trkpt lat="44.49334" lon="1.40472">
        <ele>173.6</ele>
        <time>2022-01-15T14:00:22Z</time>
      </trkpt>
      <trkpt lat="44.4933" lon="1.40475">
        <ele>172.5</ele>
        <time>2022-01-15T14:00:23Z</time>
      </trkpt>
      <trkpt lat="44.49327" lon="1.40476">
        <ele>171.3</ele>
        <time>2022-01-15T14:00:24Z</time>
      </trkpt>
      <trkpt lat="44.49326" lon="1.40479">
        <ele>171</ele>
        <time>2022-01-15T14:00:25Z</time>
      </trkpt>
      <trkpt lat="44.49324" lon="1.40482">
        <ele>170.2</ele>
        <time>2022-01-15T14:00:27Z</time>
      </trkpt>
      <trkpt lat="44.49322" lon="1.40481">
        <ele>169.5</ele>
        <time>2022-01-15T14:00:28Z</time>
      </trkpt>
      <trkpt lat="44.49324" lon="1.40481">
        <ele>170.2</ele>
        <time>2022-01-15T14:00:30Z</time>
      </trkpt>
      <trkpt lat="44.49323" lon="1.40481">
        <ele>170.2</ele>
        <time>2022-01-15T14:00:31Z</time>
      </trkpt>
      <trkpt lat="44.49323" lon="1.40481">
        <ele>169.5</ele>
        <time>2022-01-15T14:00:33Z</time>
      </trkpt>
      <trkpt lat="44.49322" lon="1.40483">
        <ele>169.5</ele>
        <time>2022-01-15T14:00:34Z</time>
      </trkpt>
      <trkpt lat="44.49323" lon="1.40486">
        <ele>169.3</ele>
        <time>2022-01-15T14:00:35Z</time>
      </trkpt>
      <trkpt lat="44.49324" lon="1.40489">
        <ele>169.8</ele>
        <time>2022-01-15T14:00:36Z</time>
      </trkpt>
      <trkpt lat="44.49326" lon="1.40493">
        <ele>169.6</ele>
        <time>2022-01-15T14:00:37Z</time>
      </trkpt>
      <trkpt lat="44.49328" lon="1.40497">
        <ele>170.2</ele>
        <time>2022-01-15T14:00:38Z</time>
      </trkpt>
      <trkpt lat="44.49331" lon="1.40501">
        <ele>170.8</ele>
        <time>2022-01-15T14:00:40Z</time>
      </trkpt>
      <trkpt lat="44.49334" lon="1.40506">
        <ele>171.4</ele>
        <time>2022-01-15T14:00:41Z</time>
      </trkpt>
      <trkpt lat="44.49337" lon="1.40511">
        <ele>171.8</ele>
        <time>2022-01-15T14:00:42Z</time>
      </trkpt>
      <trkpt lat="44.49339" lon="1.40516">
        <ele>172.2</ele>
        <time>2022-01-15T14:00:44Z</time>
      </trkpt>
      <trkpt lat="44.49342" lon="1.40521">
        <ele>172.4</ele>
        <time>2022-01-15T14:00:45Z</time>
      </trkpt>
      <trkpt lat="44.49345" lon="1.40524">
        <ele>172.7</ele>
        <time>2022-01-15T14:00:46Z</time>
      </trkpt>
      <trkpt lat="44.49348" lon="1.40528">
        <ele>172.9</ele>
        <time>2022-01-15T14:00:48Z</time>
      </trkpt>
      <trkpt lat="44.49351" lon="1.40532">
        <ele>173.1</ele>
        <time>2022-01-15T14:00:50Z</time>
      </trkpt>
      <trkpt lat="44.49352" lon="1.40537">
        <ele>172.7</ele>
        <time>2022-01-15T14:00:51Z</time>
      </trkpt>
      <trkpt lat="44.49352" lon="1.40541">
        <ele>172.4</ele>
        <time>2022-01-15T14:00:52Z</time>
      </trkpt>
      <trkpt lat="44.49353" lon="1.40543">
        <ele>172.4</ele>
        <time>2022-01-15T14:00:53Z</time>
      </trkpt>
      <trkpt lat="44.49353" lon="1.40547">
        <ele>172</ele>
        <time>2022-01-15T14:00:54Z</time>
      </trkpt>
      <trkpt lat="44.4935" lon="1.4055">
        <ele>171</ele>
        <time>2022-01-15T14:00:55Z</time>
      </trkpt>
      <trkpt lat="44.49348" lon="1.40548">
        <ele>171</ele>
        <time>2022-01-15T14:00:57Z</time>
      </trkpt>
      <trkpt lat="44.49347" lon="1.40548">
        <ele>170.5</ele>
        <time>2022-01-15T14:00:58Z</time>
      </trkpt>
      <trkpt lat="44.49346" lon="1.40549">
        <ele>170.5</ele>
        <time>2022-01-15T14:00:59Z</time>
      </trkpt>
      <trkpt lat="44.49346" lon="1.40549">
        <ele>170.5</ele>
        <time>2022-01-15T14:01:00Z</time>
      </trkpt>
      <trkpt lat="44.49346" lon="1.40548">
        <ele>170.5</ele>
        <time>2022-01-15T14:01:01Z</time>
      </trkpt>
      <trkpt lat="44.49347" lon="1.4055">
        <ele>170.5</ele>
        <time>2022-01-15T14:01:02Z</time>
      </trkpt>
      <trkpt lat="44.49348" lon="1.40551">
        <ele>171</ele>
        <time>2022-01-15T14:01:03Z</time>
      </trkpt>
      <trkpt lat="44.49348" lon="1.40551">
        <ele>171</ele>
        <time>2022-01-15T14:01:04Z</time>
      </trkpt>
      <trkpt lat="44.49348" lon="1.40552">
        <ele>171</ele>
        <time>2022-01-15T14:01:05Z</time>
      </trkpt>
      <trkpt lat="44.49347" lon="1.40552">
        <ele>170.5</ele>
        <time>2022-01-15T14:01:06Z</time>
      </trkpt>
      <trkpt lat="44.49347" lon="1.40551">
        <ele>170.5</ele>
        <time>2022-01-15T14:01:07Z</time>
      </trkpt>
      <trkpt lat="44.49347" lon="1.40551">
        <ele>170.5</ele>
        <time>2022-01-15T14:01:09Z</time>
      </trkpt>
      <trkpt lat="44.49347" lon="1.40551">
        <ele>170.5</ele>
        <time>2022-01-15T14:01:10Z</time>
      </trkpt>
      <trkpt lat="44.49347" lon="1.40551">
        <ele>170.5</ele>
        <time>2022-01-15T14:01:11Z</time>
      </trkpt>
      <trkpt lat="44.49347" lon="1.40551">
        <ele>170.5</ele>
        <time>2022-01-15T14:01:12Z</time>
      </trkpt>
      <trkpt lat="44.49347" lon="1.40551">
        <ele>170.5</ele>
        <time>2022-01-15T14:01:13Z</time>
      </trkpt>
      <trkpt lat="44.49347" lon="1.40551">
        <ele>170.5</ele>
        <time>2022-01-15T14:01:14Z</time>
      </trkpt>
      <trkpt lat="44.49347" lon="1.40551">
        <ele>170.5</ele>
        <time>2022-01-15T14:01:15Z</time>
      </trkpt>
      <trkpt lat="44.49348" lon="1.40552">
        <ele>171</ele>
        <time>2022-01-15T14:04:17Z</time>
      </trkpt>
      <trkpt lat="44.49349" lon="1.40552">
        <ele>171</ele>
        <time>2022-01-15T14:04:18Z</time>
      </trkpt>
      <trkpt lat="44.49351" lon="1.40552">
        <ele>171</ele>
        <time>2022-01-15T14:04:19Z</time>
      </trkpt>
      <trkpt lat="44.49354" lon="1.40552">
        <ele>172</ele>
        <time>2022-01-15T14:04:20Z</time>
      </trkpt>
      <trkpt lat="44.49356" lon="1.40552">
        <ele>172</ele>
        <time>2022-01-15T14:04:21Z</time>
      </trkpt>
      <trkpt lat="44.49359" lon="1.40551">
        <ele>172.6</ele>
        <time>2022-01-15T14:04:22Z</time>
      </trkpt>
      <trkpt lat="44.49361" lon="1.40551">
        <ele>173</ele>
        <time>2022-01-15T14:04:23Z</time>
      </trkpt>
      <trkpt lat="44.49364" lon="1.40553">
        <ele>172.9</ele>
        <time>2022-01-15T14:04:24Z</time>
      </trkpt>
      <trkpt lat="44.49366" lon="1.40553">
        <ele>172.9</ele>
        <time>2022-01-15T14:04:25Z</time>
      </trkpt>
      <trkpt lat="44.4937" lon="1.40554">
        <ele>173.6</ele>
        <time>2022-01-15T14:04:27Z</time>
      </trkpt>
      <trkpt lat="44.49372" lon="1.40554">
        <ele>173.6</ele>
        <time>2022-01-15T14:04:28Z</time>
      </trkpt>
      <trkpt lat="44.49373" lon="1.40554">
        <ele>173.9</ele>
        <time>2022-01-15T14:04:29Z</time>
      </trkpt>
      <trkpt lat="44.49377" lon="1.40554">
        <ele>174.2</ele>
        <time>2022-01-15T14:04:31Z</time>
      </trkpt>
      <trkpt lat="44.49378" lon="1.40554">
        <ele>174.2</ele>
        <time>2022-01-15T14:04:32Z</time>
      </trkpt>
      <trkpt lat="44.4938" lon="1.40554">
        <ele>174.5</ele>
        <time>2022-01-15T14:04:33Z</time>
      </trkpt>
      <trkpt lat="44.49381" lon="1.40555">
        <ele>174.5</ele>
        <time>2022-01-15T14:04:34Z</time>
      </trkpt>
      <trkpt lat="44.49383" lon="1.40554">
        <ele>174.8</ele>
        <time>2022-01-15T14:04:35Z</time>
      </trkpt>
      <trkpt lat="44.49384" lon="1.40554">
        <ele>175</ele>
        <time>2022-01-15T14:04:36Z</time>
      </trkpt>
      <trkpt lat="44.49387" lon="1.40553">
        <ele>175.3</ele>
        <time>2022-01-15T14:04:37Z</time>
      </trkpt>
      <trkpt lat="44.49388" lon="1.40552">
        <ele>175.3</ele>
        <time>2022-01-15T14:04:38Z</time>
      </trkpt>
      <trkpt lat="44.4939" lon="1.40551">
        <ele>176</ele>
        <time>2022-01-15T14:04:39Z</time>
      </trkpt>
      <trkpt lat="44.49391" lon="1.40549">
        <ele>176.2</ele>
        <time>2022-01-15T14:04:41Z</time>
      </trkpt>
      <trkpt lat="44.49393" lon="1.40548">
        <ele>176.9</ele>
        <time>2022-01-15T14:04:42Z</time>
      </trkpt>
      <trkpt lat="44.49395" lon="1.40547">
        <ele>177.2</ele>
        <time>2022-01-15T14:04:44Z</time>
      </trkpt>
      <trkpt lat="44.49395" lon="1.40545">
        <ele>177.2</ele>
        <time>2022-01-15T14:04:45Z</time>
      </trkpt>
      <trkpt lat="44.49396" lon="1.40544">
        <ele>177.2</ele>
        <time>2022-01-15T14:04:46Z</time>
      </trkpt>
      <trkpt lat="44.49397" lon="1.40541">
        <ele>178</ele>
        <time>2022-01-15T14:04:48Z</time>
      </trkpt>
      <trkpt lat="44.49398" lon="1.40538">
        <ele>178.6</ele>
        <time>2022-01-15T14:04:49Z</time>
      </trkpt>
      <trkpt lat="44.49398" lon="1.40537">
        <ele>178.6</ele>
        <time>2022-01-15T14:04:50Z</time>
      </trkpt>
      <trkpt lat="44.49399" lon="1.40534">
        <ele>179.2</ele>
        <time>2022-01-15T14:04:51Z</time>
      </trkpt>
      <trkpt lat="44.494" lon="1.40531">
        <ele>179.4</ele>
        <time>2022-01-15T14:04:53Z</time>
      </trkpt>
      <trkpt lat="44.49402" lon="1.40529">
        <ele>180</ele>
        <time>2022-01-15T14:04:54Z</time>
      </trkpt>
      <trkpt lat="44.49403" lon="1.40528">
        <ele>180.1</ele>
        <time>2022-01-15T14:04:55Z</time>
      </trkpt>
      <trkpt lat="44.49405" lon="1.40524">
        <ele>180.7</ele>
        <time>2022-01-15T14:04:57Z</time>
      </trkpt>
      <trkpt lat="44.49406" lon="1.40523">
        <ele>180.8</ele>
        <time>2022-01-15T14:04:58Z</time>
      </trkpt>
      <trkpt lat="44.49407" lon="1.4052">
        <ele>181.4</ele>
        <time>2022-01-15T14:04:59Z</time>
      </trkpt>
      <trkpt lat="44.49407" lon="1.40519">
        <ele>181.4</ele>
        <time>2022-01-15T14:05:00Z</time>
      </trkpt>
      <trkpt lat="44.49408" lon="1.40518">
        <ele>181.4</ele>
        <time>2022-01-15T14:05:01Z</time>
      </trkpt>
      <trkpt lat="44.49409" lon="1.40516">
        <ele>182</ele>
        <time>2022-01-15T14:05:02Z</time>
      </trkpt>
      <trkpt lat="44.4941" lon="1.40515">
        <ele>182</ele>
        <time>2022-01-15T14:05:03Z</time>
      </trkpt>
      <trkpt lat="44.4941" lon="1.40513">
        <ele>182.6</ele>
        <time>2022-01-15T14:05:04Z</time>
      </trkpt>
      <trkpt lat="44.49412" lon="1.40511">
        <ele>182.6</ele>
        <time>2022-01-15T14:05:05Z</time>
      </trkpt>
      <trkpt lat="44.49412" lon="1.40509">
        <ele>183.3</ele>
        <time>2022-01-15T14:05:06Z</time>
      </trkpt>
      <trkpt lat="44.49413" lon="1.40508">
        <ele>183.3</ele>
        <time>2022-01-15T14:05:07Z</time>
      </trkpt>
      <trkpt lat="44.49414" lon="1.40506">
        <ele>183.3</ele>
        <time>2022-01-15T14:05:09Z</time>
      </trkpt>
      <trkpt lat="44.49415" lon="1.40502">
        <ele>184</ele>
        <time>2022-01-15T14:05:10Z</time>
      </trkpt>
      <trkpt lat="44.49416" lon="1.40499">
        <ele>184.5</ele>
        <time>2022-01-15T14:05:12Z</time>
      </trkpt>
      <trkpt lat="44.49417" lon="1.40497">
        <ele>184.5</ele>
        <time>2022-01-15T14:05:13Z</time>
      </trkpt>
      <trkpt lat="44.49418" lon="1.40495">
        <ele>185</ele>
        <time>2022-01-15T14:05:14Z</time>
      </trkpt>
      <trkpt lat="44.49419" lon="1.40492">
        <ele>185.2</ele>
        <time>2022-01-15T14:05:16Z</time>
      </trkpt>
      <trkpt lat="44.49419" lon="1.40491">
        <ele>185.7</ele>
        <time>2022-01-15T14:05:17Z</time>
      </trkpt>
      <trkpt lat="44.4942" lon="1.40489">
        <ele>185.7</ele>
        <time>2022-01-15T14:05:18Z</time>
      </trkpt>
      <trkpt lat="44.49422" lon="1.40488">
        <ele>185.8</ele>
        <time>2022-01-15T14:05:19Z</time>
      </trkpt>
      <trkpt lat="44.49423" lon="1.40486">
        <ele>186.3</ele>
        <time>2022-01-15T14:05:21Z</time>
      </trkpt>
      <trkpt lat="44.49423" lon="1.40485">
        <ele>186.3</ele>
        <time>2022-01-15T14:05:22Z</time>
      </trkpt>
      <trkpt lat="44.49424" lon="1.40484">
        <ele>186.3</ele>
        <time>2022-01-15T14:05:23Z</time>
      </trkpt>
      <trkpt lat="44.49424" lon="1.40482">
        <ele>186.9</ele>
        <time>2022-01-15T14:05:24Z</time>
      </trkpt>
      <trkpt lat="44.49425" lon="1.40481">
        <ele>186.9</ele>
        <time>2022-01-15T14:05:25Z</time>
      </trkpt>
      <trkpt lat="44.49426" lon="1.40479">
        <ele>186.9</ele>
        <time>2022-01-15T14:05:26Z</time>
      </trkpt>
      <trkpt lat="44.49427" lon="1.40477">
        <ele>187.5</ele>
        <time>2022-01-15T14:05:28Z</time>
      </trkpt>
      <trkpt lat="44.49428" lon="1.40474">
        <ele>188.1</ele>
        <time>2022-01-15T14:05:29Z</time>
      </trkpt>
      <trkpt lat="44.49428" lon="1.40473">
        <ele>188.1</ele>
        <time>2022-01-15T14:05:30Z</time>
      </trkpt>
      <trkpt lat="44.49428" lon="1.40472">
        <ele>188.1</ele>
        <time>2022-01-15T14:05:31Z</time>
      </trkpt>
      <trkpt lat="44.49429" lon="1.40469">
        <ele>188.7</ele>
        <time>2022-01-15T14:05:33Z</time>
      </trkpt>
      <trkpt lat="44.4943" lon="1.40468">
        <ele>188.8</ele>
        <time>2022-01-15T14:05:34Z</time>
      </trkpt>
      <trkpt lat="44.49432" lon="1.40466">
        <ele>189.4</ele>
        <time>2022-01-15T14:05:35Z</time>
      </trkpt>
      <trkpt lat="44.49432" lon="1.40465">
        <ele>189.4</ele>
        <time>2022-01-15T14:05:36Z</time>
      </trkpt>
      <trkpt lat="44.49433" lon="1.40464">
        <ele>189.4</ele>
        <time>2022-01-15T14:05:37Z</time>
      </trkpt>
      <trkpt lat="44.49435" lon="1.40462">
        <ele>189.5</ele>
        <time>2022-01-15T14:05:39Z</time>
      </trkpt>
      <trkpt lat="44.49435" lon="1.40461">
        <ele>190</ele>
        <time>2022-01-15T14:05:40Z</time>
      </trkpt>
      <trkpt lat="44.49436" lon="1.40459">
        <ele>190</ele>
        <time>2022-01-15T14:05:41Z</time>
      </trkpt>
      <trkpt lat="44.49437" lon="1.40457">
        <ele>190.7</ele>
        <time>2022-01-15T14:05:42Z</time>
      </trkpt>
      <trkpt lat="44.49438" lon="1.40455">
        <ele>190.7</ele>
        <time>2022-01-15T14:05:43Z</time>
      </trkpt>
      <trkpt lat="44.49438" lon="1.40454">
        <ele>190.7</ele>
        <time>2022-01-15T14:05:44Z</time>
      </trkpt>
      <trkpt lat="44.49439" lon="1.40452">
        <ele>191.3</ele>
        <time>2022-01-15T14:05:45Z</time>
      </trkpt>
      <trkpt lat="44.4944" lon="1.40451">
        <ele>191.5</ele>
        <time>2022-01-15T14:05:46Z</time>
      </trkpt>
      <trkpt lat="44.49441" lon="1.4045">
        <ele>191.5</ele>
        <time>2022-01-15T14:05:47Z</time>
      </trkpt>
      <trkpt lat="44.49442" lon="1.40446">
        <ele>192.3</ele>
        <time>2022-01-15T14:05:48Z</time>
      </trkpt>
      <trkpt lat="44.49443" lon="1.40445">
        <ele>192.8</ele>
        <time>2022-01-15T14:05:50Z</time>
      </trkpt>
      <trkpt lat="44.49444" lon="1.40443">
        <ele>192.8</ele>
        <time>2022-01-15T14:05:51Z</time>
      </trkpt>
      <trkpt lat="44.49445" lon="1.40441">
        <ele>192.8</ele>
        <time>2022-01-15T14:05:52Z</time>
      </trkpt>
      <trkpt lat="44.49446" lon="1.4044">
        <ele>193.7</ele>
        <time>2022-01-15T14:05:53Z</time>
      </trkpt>
      <trkpt lat="44.49447" lon="1.40438">
        <ele>193.7</ele>
        <time>2022-01-15T14:05:54Z</time>
      </trkpt>
      <trkpt lat="44.49449" lon="1.40435">
        <ele>194.4</ele>
        <time>2022-01-15T14:05:56Z</time>
      </trkpt>
      <trkpt lat="44.4945" lon="1.40434">
        <ele>194.4</ele>
        <time>2022-01-15T14:05:57Z</time>
      </trkpt>
      <trkpt lat="44.49452" lon="1.40431">
        <ele>195.2</ele>
        <time>2022-01-15T14:05:59Z</time>
      </trkpt>
      <trkpt lat="44.49453" lon="1.4043">
        <ele>195.2</ele>
        <time>2022-01-15T14:06:00Z</time>
      </trkpt>
      <trkpt lat="44.49455" lon="1.40427">
        <ele>195.9</ele>
        <time>2022-01-15T14:06:01Z</time>
      </trkpt>
      <trkpt lat="44.49455" lon="1.40426">
        <ele>196</ele>
        <time>2022-01-15T14:06:02Z</time>
      </trkpt>
      <trkpt lat="44.49456" lon="1.40425">
        <ele>196</ele>
        <time>2022-01-15T14:06:04Z</time>
      </trkpt>
      <trkpt lat="44.49456" lon="1.40423">
        <ele>196.7</ele>
        <time>2022-01-15T14:06:05Z</time>
      </trkpt>
      <trkpt lat="44.49457" lon="1.40422">
        <ele>196.7</ele>
        <time>2022-01-15T14:06:06Z</time>
      </trkpt>
      <trkpt lat="44.49457" lon="1.40421">
        <ele>196.7</ele>
        <time>2022-01-15T14:06:07Z</time>
      </trkpt>
      <trkpt lat="44.49457" lon="1.40419">
        <ele>197.4</ele>
        <time>2022-01-15T14:06:08Z</time>
      </trkpt>
      <trkpt lat="44.49457" lon="1.40418">
        <ele>197.4</ele>
        <time>2022-01-15T14:06:09Z</time>
      </trkpt>
      <trkpt lat="44.49457" lon="1.40417">
        <ele>197.4</ele>
        <time>2022-01-15T14:06:10Z</time>
      </trkpt>
      <trkpt lat="44.49458" lon="1.40417">
        <ele>197.4</ele>
        <time>2022-01-15T14:06:11Z</time>
      </trkpt>
      <trkpt lat="44.49458" lon="1.40417">
        <ele>197.4</ele>
        <time>2022-01-15T14:06:12Z</time>
      </trkpt>
      <trkpt lat="44.49458" lon="1.40417">
        <ele>197.5</ele>
        <time>2022-01-15T14:06:13Z</time>
      </trkpt>
      <trkpt lat="44.49459" lon="1.40417">
        <ele>197.5</ele>
        <time>2022-01-15T14:06:14Z</time>
      </trkpt>
      <trkpt lat="44.49459" lon="1.40418">
        <ele>197.5</ele>
        <time>2022-01-15T14:06:15Z</time>
      </trkpt>
      <trkpt lat="44.4946" lon="1.40418">
        <ele>197.5</ele>
        <time>2022-01-15T14:06:16Z</time>
      </trkpt>
      <trkpt lat="44.4946" lon="1.40418">
        <ele>197.5</ele>
        <time>2022-01-15T14:06:17Z</time>
      </trkpt>
      <trkpt lat="44.4946" lon="1.40417">
        <ele>197.5</ele>
        <time>2022-01-15T14:06:18Z</time>
      </trkpt>
      <trkpt lat="44.49461" lon="1.40417">
        <ele>197.5</ele>
        <time>2022-01-15T14:06:19Z</time>
      </trkpt>
      <trkpt lat="44.49461" lon="1.40416">
        <ele>197.7</ele>
        <time>2022-01-15T14:06:20Z</time>
      </trkpt>
      <trkpt lat="44.49461" lon="1.40415">
        <ele>197.7</ele>
        <time>2022-01-15T14:06:21Z</time>
      </trkpt>
      <trkpt lat="44.49461" lon="1.40415">
        <ele>198.4</ele>
        <time>2022-01-15T14:06:22Z</time>
      </trkpt>
      <trkpt lat="44.49462" lon="1.40414">
        <ele>198.4</ele>
        <time>2022-01-15T14:06:23Z</time>
      </trkpt>
      <trkpt lat="44.49462" lon="1.40413">
        <ele>198.4</ele>
        <time>2022-01-15T14:06:24Z</time>
      </trkpt>
      <trkpt lat="44.49462" lon="1.40412">
        <ele>198.4</ele>
        <time>2022-01-15T14:06:25Z</time>
      </trkpt>
      <trkpt lat="44.49462" lon="1.40412">
        <ele>198.4</ele>
        <time>2022-01-15T14:06:47Z</time>
      </trkpt>
      <trkpt lat="44.49463" lon="1.40411">
        <ele>198.4</ele>
        <time>2022-01-15T14:06:48Z</time>
      </trkpt>
      <trkpt lat="44.49463" lon="1.4041">
        <ele>199.1</ele>
        <time>2022-01-15T14:06:49Z</time>
      </trkpt>
      <trkpt lat="44.49463" lon="1.40409">
        <ele>199.1</ele>
        <time>2022-01-15T14:06:50Z</time>
      </trkpt>
      <trkpt lat="44.49465" lon="1.40406">
        <ele>199.4</ele>
        <time>2022-01-15T14:06:52Z</time>
      </trkpt>
      <trkpt lat="44.49465" lon="1.40405">
        <ele>200</ele>
        <time>2022-01-15T14:06:53Z</time>
      </trkpt>
      <trkpt lat="44.49467" lon="1.40403">
        <ele>200.3</ele>
        <time>2022-01-15T14:06:54Z</time>
      </trkpt>
      <trkpt lat="44.49469" lon="1.40401">
        <ele>201</ele>
        <time>2022-01-15T14:06:56Z</time>
      </trkpt>
      <trkpt lat="44.4947" lon="1.40399">
        <ele>201.3</ele>
        <time>2022-01-15T14:06:57Z</time>
      </trkpt>
      <trkpt lat="44.49472" lon="1.40397">
        <ele>202</ele>
        <time>2022-01-15T14:06:58Z</time>
      </trkpt>
      <trkpt lat="44.49473" lon="1.40395">
        <ele>202</ele>
        <time>2022-01-15T14:06:59Z</time>
      </trkpt>
      <trkpt lat="44.49474" lon="1.40394">
        <ele>202.3</ele>
        <time>2022-01-15T14:07:00Z</time>
      </trkpt>
      <trkpt lat="44.49476" lon="1.40392">
        <ele>203.1</ele>
        <time>2022-01-15T14:07:01Z</time>
      </trkpt>
      <trkpt lat="44.49476" lon="1.40391">
        <ele>203.3</ele>
        <time>2022-01-15T14:07:02Z</time>
      </trkpt>
      <trkpt lat="44.49477" lon="1.4039">
        <ele>203.3</ele>
        <time>2022-01-15T14:07:03Z</time>
      </trkpt>
      <trkpt lat="44.49479" lon="1.40388">
        <ele>204.1</ele>
        <time>2022-01-15T14:07:04Z</time>
      </trkpt>
      <trkpt lat="44.4948" lon="1.40387">
        <ele>204.4</ele>
        <time>2022-01-15T14:07:05Z</time>
      </trkpt>
      <trkpt lat="44.4948" lon="1.40387">
        <ele>204.4</ele>
        <time>2022-01-15T14:07:06Z</time>
      </trkpt>
      <trkpt lat="44.49481" lon="1.40385">
        <ele>204.4</ele>
        <time>2022-01-15T14:07:07Z</time>
      </trkpt>
      <trkpt lat="44.49482" lon="1.40384">
        <ele>205.3</ele>
        <time>2022-01-15T14:07:08Z</time>
      </trkpt>
      <trkpt lat="44.49483" lon="1.40381">
        <ele>205.3</ele>
        <time>2022-01-15T14:07:10Z</time>
      </trkpt>
      <trkpt lat="44.49484" lon="1.4038">
        <ele>206.1</ele>
        <time>2022-01-15T14:07:11Z</time>
      </trkpt>
      <trkpt lat="44.49485" lon="1.40379">
        <ele>206.3</ele>
        <time>2022-01-15T14:07:12Z</time>
      </trkpt>
      <trkpt lat="44.49486" lon="1.40378">
        <ele>206.3</ele>
        <time>2022-01-15T14:07:13Z</time>
      </trkpt>
      <trkpt lat="44.49488" lon="1.40376">
        <ele>206.3</ele>
        <time>2022-01-15T14:07:15Z</time>
      </trkpt>
      <trkpt lat="44.4949" lon="1.40375">
        <ele>207.3</ele>
        <time>2022-01-15T14:07:17Z</time>
      </trkpt>
      <trkpt lat="44.49491" lon="1.40374">
        <ele>207.3</ele>
        <time>2022-01-15T14:07:18Z</time>
      </trkpt>
      <trkpt lat="44.49492" lon="1.40373">
        <ele>207.5</ele>
        <time>2022-01-15T14:07:19Z</time>
      </trkpt>
      <trkpt lat="44.49493" lon="1.40373">
        <ele>207.5</ele>
        <time>2022-01-15T14:07:20Z</time>
      </trkpt>
      <trkpt lat="44.49494" lon="1.40373">
        <ele>207.5</ele>
        <time>2022-01-15T14:07:21Z</time>
      </trkpt>
      <trkpt lat="44.49496" lon="1.40371">
        <ele>208.5</ele>
        <time>2022-01-15T14:07:23Z</time>
      </trkpt>
      <trkpt lat="44.49497" lon="1.40371">
        <ele>208.5</ele>
        <time>2022-01-15T14:07:24Z</time>
      </trkpt>
      <trkpt lat="44.49498" lon="1.40371">
        <ele>208.8</ele>
        <time>2022-01-15T14:07:25Z</time>
      </trkpt>
      <trkpt lat="44.49499" lon="1.4037">
        <ele>208.8</ele>
        <time>2022-01-15T14:07:26Z</time>
      </trkpt>
      <trkpt lat="44.49501" lon="1.4037">
        <ele>209.2</ele>
        <time>2022-01-15T14:07:28Z</time>
      </trkpt>
      <trkpt lat="44.49502" lon="1.4037">
        <ele>209.2</ele>
        <time>2022-01-15T14:07:29Z</time>
      </trkpt>
      <trkpt lat="44.49503" lon="1.4037">
        <ele>209.2</ele>
        <time>2022-01-15T14:07:31Z</time>
      </trkpt>
      <trkpt lat="44.49504" lon="1.4037">
        <ele>209.5</ele>
        <time>2022-01-15T14:07:32Z</time>
      </trkpt>
      <trkpt lat="44.49506" lon="1.40372">
        <ele>209.5</ele>
        <time>2022-01-15T14:07:33Z</time>
      </trkpt>
      <trkpt lat="44.49507" lon="1.40372">
        <ele>209.2</ele>
        <time>2022-01-15T14:07:34Z</time>
      </trkpt>
      <trkpt lat="44.49508" lon="1.40373">
        <ele>209.2</ele>
        <time>2022-01-15T14:07:35Z</time>
      </trkpt>
      <trkpt lat="44.49511" lon="1.40376">
        <ele>209.6</ele>
        <time>2022-01-15T14:07:37Z</time>
      </trkpt>
      <trkpt lat="44.49512" lon="1.40376">
        <ele>208.9</ele>
        <time>2022-01-15T14:07:38Z</time>
      </trkpt>
      <trkpt lat="44.49513" lon="1.40378">
        <ele>208.9</ele>
        <time>2022-01-15T14:07:39Z</time>
      </trkpt>
      <trkpt lat="44.49514" lon="1.40382">
        <ele>208.5</ele>
        <time>2022-01-15T14:07:41Z</time>
      </trkpt>
      <trkpt lat="44.49514" lon="1.40386">
        <ele>207.8</ele>
        <time>2022-01-15T14:07:42Z</time>
      </trkpt>
      <trkpt lat="44.49514" lon="1.40387">
        <ele>207.8</ele>
        <time>2022-01-15T14:07:43Z</time>
      </trkpt>
      <trkpt lat="44.49514" lon="1.40389">
        <ele>207.2</ele>
        <time>2022-01-15T14:07:44Z</time>
      </trkpt>
      <trkpt lat="44.49514" lon="1.40391">
        <ele>207.2</ele>
        <time>2022-01-15T14:07:45Z</time>
      </trkpt>
      <trkpt lat="44.49513" lon="1.40394">
        <ele>206.6</ele>
        <time>2022-01-15T14:07:46Z</time>
      </trkpt>
      <trkpt lat="44.49512" lon="1.40395">
        <ele>206.2</ele>
        <time>2022-01-15T14:07:47Z</time>
      </trkpt>
      <trkpt lat="44.49511" lon="1.40396">
        <ele>206.2</ele>
        <time>2022-01-15T14:07:49Z</time>
      </trkpt>
      <trkpt lat="44.4951" lon="1.40399">
        <ele>205.7</ele>
        <time>2022-01-15T14:07:50Z</time>
      </trkpt>
      <trkpt lat="44.4951" lon="1.40403">
        <ele>204.8</ele>
        <time>2022-01-15T14:07:51Z</time>
      </trkpt>
      <trkpt lat="44.49509" lon="1.40404">
        <ele>204.8</ele>
        <time>2022-01-15T14:07:52Z</time>
      </trkpt>
      <trkpt lat="44.49509" lon="1.40409">
        <ele>204.3</ele>
        <time>2022-01-15T14:07:53Z</time>
      </trkpt>
      <trkpt lat="44.49508" lon="1.4041">
        <ele>204.3</ele>
        <time>2022-01-15T14:07:54Z</time>
      </trkpt>
      <trkpt lat="44.49508" lon="1.40415">
        <ele>203.8</ele>
        <time>2022-01-15T14:07:56Z</time>
      </trkpt>
      <trkpt lat="44.49508" lon="1.40416">
        <ele>203.4</ele>
        <time>2022-01-15T14:07:57Z</time>
      </trkpt>
      <trkpt lat="44.49508" lon="1.40419">
        <ele>203.4</ele>
        <time>2022-01-15T14:07:58Z</time>
      </trkpt>
      <trkpt lat="44.49507" lon="1.4042">
        <ele>203</ele>
        <time>2022-01-15T14:07:59Z</time>
      </trkpt>
      <trkpt lat="44.49507" lon="1.40421">
        <ele>202.4</ele>
        <time>2022-01-15T14:08:00Z</time>
      </trkpt>
      <trkpt lat="44.49506" lon="1.40425">
        <ele>202</ele>
        <time>2022-01-15T14:08:01Z</time>
      </trkpt>
      <trkpt lat="44.49506" lon="1.40426">
        <ele>202</ele>
        <time>2022-01-15T14:08:02Z</time>
      </trkpt>
      <trkpt lat="44.49506" lon="1.4043">
        <ele>201.6</ele>
        <time>2022-01-15T14:08:03Z</time>
      </trkpt>
      <trkpt lat="44.49506" lon="1.40432">
        <ele>201.6</ele>
        <time>2022-01-15T14:08:04Z</time>
      </trkpt>
      <trkpt lat="44.49505" lon="1.40434">
        <ele>201.3</ele>
        <time>2022-01-15T14:08:06Z</time>
      </trkpt>
      <trkpt lat="44.49505" lon="1.40438">
        <ele>201</ele>
        <time>2022-01-15T14:08:08Z</time>
      </trkpt>
      <trkpt lat="44.49505" lon="1.40443">
        <ele>200.7</ele>
        <time>2022-01-15T14:08:09Z</time>
      </trkpt>
      <trkpt lat="44.49504" lon="1.40444">
        <ele>200.7</ele>
        <time>2022-01-15T14:08:10Z</time>
      </trkpt>
      <trkpt lat="44.49504" lon="1.40446">
        <ele>200.4</ele>
        <time>2022-01-15T14:08:11Z</time>
      </trkpt>
      <trkpt lat="44.49505" lon="1.40452">
        <ele>200.2</ele>
        <time>2022-01-15T14:08:13Z</time>
      </trkpt>
      <trkpt lat="44.49504" lon="1.40455">
        <ele>199.9</ele>
        <time>2022-01-15T14:08:15Z</time>
      </trkpt>
      <trkpt lat="44.49504" lon="1.40457">
        <ele>199.9</ele>
        <time>2022-01-15T14:08:16Z</time>
      </trkpt>
      <trkpt lat="44.49504" lon="1.40459">
        <ele>199.7</ele>
        <time>2022-01-15T14:08:17Z</time>
      </trkpt>
      <trkpt lat="44.49504" lon="1.40462">
        <ele>199.7</ele>
        <time>2022-01-15T14:08:18Z</time>
      </trkpt>
      <trkpt lat="44.49504" lon="1.40465">
        <ele>199.4</ele>
        <time>2022-01-15T14:08:20Z</time>
      </trkpt>
      <trkpt lat="44.49504" lon="1.40468">
        <ele>199.1</ele>
        <time>2022-01-15T14:08:21Z</time>
      </trkpt>
      <trkpt lat="44.49504" lon="1.4047">
        <ele>199.1</ele>
        <time>2022-01-15T14:08:22Z</time>
      </trkpt>
      <trkpt lat="44.49504" lon="1.40472">
        <ele>198.8</ele>
        <time>2022-01-15T14:08:23Z</time>
      </trkpt>
      <trkpt lat="44.49504" lon="1.40475">
        <ele>198.8</ele>
        <time>2022-01-15T14:08:24Z</time>
      </trkpt>
      <trkpt lat="44.49504" lon="1.40477">
        <ele>198.5</ele>
        <time>2022-01-15T14:08:25Z</time>
      </trkpt>
      <trkpt lat="44.49504" lon="1.40479">
        <ele>198.5</ele>
        <time>2022-01-15T14:08:26Z</time>
      </trkpt>
      <trkpt lat="44.49504" lon="1.40481">
        <ele>197.2</ele>
        <time>2022-01-15T14:08:27Z</time>
      </trkpt>
      <trkpt lat="44.49504" lon="1.40483">
        <ele>198.2</ele>
        <time>2022-01-15T14:08:28Z</time>
      </trkpt>
      <trkpt lat="44.49504" lon="1.40485">
        <ele>197.9</ele>
        <time>2022-01-15T14:08:29Z</time>
      </trkpt>
      <trkpt lat="44.49504" lon="1.40487">
        <ele>197.9</ele>
        <time>2022-01-15T14:08:30Z</time>
      </trkpt>
      <trkpt lat="44.49504" lon="1.40489">
        <ele>197.6</ele>
        <time>2022-01-15T14:08:31Z</time>
      </trkpt>
      <trkpt lat="44.49504" lon="1.40491">
        <ele>197.6</ele>
        <time>2022-01-15T14:08:32Z</time>
      </trkpt>
      <trkpt lat="44.49504" lon="1.40495">
        <ele>197.3</ele>
        <time>2022-01-15T14:08:33Z</time>
      </trkpt>
      <trkpt lat="44.49504" lon="1.40497">
        <ele>197.1</ele>
        <time>2022-01-15T14:08:35Z</time>
      </trkpt>
      <trkpt lat="44.49504" lon="1.40498">
        <ele>197.1</ele>
        <time>2022-01-15T14:08:36Z</time>
      </trkpt>
      <trkpt lat="44.49504" lon="1.405">
        <ele>197.1</ele>
        <time>2022-01-15T14:08:37Z</time>
      </trkpt>
      <trkpt lat="44.49504" lon="1.40501">
        <ele>196.8</ele>
        <time>2022-01-15T14:08:38Z</time>
      </trkpt>
      <trkpt lat="44.49504" lon="1.40504">
        <ele>196.8</ele>
        <time>2022-01-15T14:08:39Z</time>
      </trkpt>
      <trkpt lat="44.49504" lon="1.40506">
        <ele>196.4</ele>
        <time>2022-01-15T14:08:40Z</time>
      </trkpt>
      <trkpt lat="44.49505" lon="1.4051">
        <ele>196.1</ele>
        <time>2022-01-15T14:08:42Z</time>
      </trkpt>
      <trkpt lat="44.49506" lon="1.40512">
        <ele>196.1</ele>
        <time>2022-01-15T14:08:43Z</time>
      </trkpt>
      <trkpt lat="44.49507" lon="1.40516">
        <ele>196.7</ele>
        <time>2022-01-15T14:08:44Z</time>
      </trkpt>
      <trkpt lat="44.49507" lon="1.40517">
        <ele>196.7</ele>
        <time>2022-01-15T14:08:45Z</time>
      </trkpt>
      <trkpt lat="44.49509" lon="1.40521">
        <ele>196.3</ele>
        <time>2022-01-15T14:08:47Z</time>
      </trkpt>
      <trkpt lat="44.4951" lon="1.40522">
        <ele>196.3</ele>
        <time>2022-01-15T14:08:48Z</time>
      </trkpt>
      <trkpt lat="44.49512" lon="1.40524">
        <ele>196.9</ele>
        <time>2022-01-15T14:08:49Z</time>
      </trkpt>
      <trkpt lat="44.49512" lon="1.40525">
        <ele>196.9</ele>
        <time>2022-01-15T14:08:50Z</time>
      </trkpt>
      <trkpt lat="44.49513" lon="1.40525">
        <ele>197.8</ele>
        <time>2022-01-15T14:08:51Z</time>
      </trkpt>
      <trkpt lat="44.49515" lon="1.40526">
        <ele>197.8</ele>
        <time>2022-01-15T14:08:52Z</time>
      </trkpt>
      <trkpt lat="44.49517" lon="1.40526">
        <ele>198.7</ele>
        <time>2022-01-15T14:08:53Z</time>
      </trkpt>
      <trkpt lat="44.49519" lon="1.40524">
        <ele>198.7</ele>
        <time>2022-01-15T14:08:55Z</time>
      </trkpt>
      <trkpt lat="44.49519" lon="1.40523">
        <ele>199.6</ele>
        <time>2022-01-15T14:08:56Z</time>
      </trkpt>
      <trkpt lat="44.49518" lon="1.40518">
        <ele>199</ele>
        <time>2022-01-15T14:08:58Z</time>
      </trkpt>
      <trkpt lat="44.49518" lon="1.40517">
        <ele>199.4</ele>
        <time>2022-01-15T14:08:59Z</time>
      </trkpt>
      <trkpt lat="44.49517" lon="1.40513">
        <ele>199.7</ele>
        <time>2022-01-15T14:09:00Z</time>
      </trkpt>
      <trkpt lat="44.49517" lon="1.40512">
        <ele>199.7</ele>
        <time>2022-01-15T14:09:02Z</time>
      </trkpt>
      <trkpt lat="44.49516" lon="1.4051">
        <ele>199.7</ele>
        <time>2022-01-15T14:09:03Z</time>
      </trkpt>
      <trkpt lat="44.49516" lon="1.40509">
        <ele>200</ele>
        <time>2022-01-15T14:09:04Z</time>
      </trkpt>
      <trkpt lat="44.49516" lon="1.40507">
        <ele>199.2</ele>
        <time>2022-01-15T14:09:05Z</time>
      </trkpt>
      <trkpt lat="44.49516" lon="1.40506">
        <ele>199.2</ele>
        <time>2022-01-15T14:09:06Z</time>
      </trkpt>
      <trkpt lat="44.49516" lon="1.40503">
        <ele>200.3</ele>
        <time>2022-01-15T14:09:08Z</time>
      </trkpt>
      <trkpt lat="44.49516" lon="1.405">
        <ele>200.7</ele>
        <time>2022-01-15T14:09:09Z</time>
      </trkpt>
      <trkpt lat="44.49516" lon="1.40499">
        <ele>200.7</ele>
        <time>2022-01-15T14:09:10Z</time>
      </trkpt>
      <trkpt lat="44.49517" lon="1.40495">
        <ele>200.9</ele>
        <time>2022-01-15T14:09:11Z</time>
      </trkpt>
      <trkpt lat="44.49517" lon="1.40493">
        <ele>200.9</ele>
        <time>2022-01-15T14:09:13Z</time>
      </trkpt>
      <trkpt lat="44.49517" lon="1.40491">
        <ele>201.2</ele>
        <time>2022-01-15T14:09:14Z</time>
      </trkpt>
      <trkpt lat="44.49518" lon="1.40489">
        <ele>201.2</ele>
        <time>2022-01-15T14:09:15Z</time>
      </trkpt>
      <trkpt lat="44.49519" lon="1.40487">
        <ele>201.4</ele>
        <time>2022-01-15T14:09:16Z</time>
      </trkpt>
      <trkpt lat="44.49519" lon="1.40485">
        <ele>202.3</ele>
        <time>2022-01-15T14:09:17Z</time>
      </trkpt>
      <trkpt lat="44.4952" lon="1.40482">
        <ele>202.5</ele>
        <time>2022-01-15T14:09:18Z</time>
      </trkpt>
      <trkpt lat="44.49521" lon="1.4048">
        <ele>202.5</ele>
        <time>2022-01-15T14:09:20Z</time>
      </trkpt>
      <trkpt lat="44.49522" lon="1.40479">
        <ele>202.7</ele>
        <time>2022-01-15T14:09:21Z</time>
      </trkpt>
      <trkpt lat="44.49522" lon="1.40477">
        <ele>203.6</ele>
        <time>2022-01-15T14:09:22Z</time>
      </trkpt>
      <trkpt lat="44.49523" lon="1.40475">
        <ele>203.6</ele>
        <time>2022-01-15T14:09:23Z</time>
      </trkpt>
      <trkpt lat="44.49523" lon="1.40474">
        <ele>203.8</ele>
        <time>2022-01-15T14:09:24Z</time>
      </trkpt>
      <trkpt lat="44.49523" lon="1.40472">
        <ele>203.8</ele>
        <time>2022-01-15T14:09:25Z</time>
      </trkpt>
      <trkpt lat="44.49524" lon="1.4047">
        <ele>204</ele>
        <time>2022-01-15T14:09:26Z</time>
      </trkpt>
      <trkpt lat="44.49524" lon="1.40468">
        <ele>204</ele>
        <time>2022-01-15T14:09:27Z</time>
      </trkpt>
      <trkpt lat="44.49525" lon="1.40464">
        <ele>205.2</ele>
        <time>2022-01-15T14:09:28Z</time>
      </trkpt>
      <trkpt lat="44.49526" lon="1.40463">
        <ele>205.2</ele>
        <time>2022-01-15T14:09:30Z</time>
      </trkpt>
      <trkpt lat="44.49526" lon="1.40461">
        <ele>205.4</ele>
        <time>2022-01-15T14:09:31Z</time>
      </trkpt>
      <trkpt lat="44.49526" lon="1.40459">
        <ele>205.4</ele>
        <time>2022-01-15T14:09:32Z</time>
      </trkpt>
      <trkpt lat="44.49527" lon="1.40458">
        <ele>205.5</ele>
        <time>2022-01-15T14:09:33Z</time>
      </trkpt>
      <trkpt lat="44.49528" lon="1.40453">
        <ele>206.7</ele>
        <time>2022-01-15T14:09:35Z</time>
      </trkpt>
      <trkpt lat="44.49529" lon="1.40453">
        <ele>206.7</ele>
        <time>2022-01-15T14:09:36Z</time>
      </trkpt>
      <trkpt lat="44.4953" lon="1.40451">
        <ele>206.7</ele>
        <time>2022-01-15T14:09:37Z</time>
      </trkpt>
      <trkpt lat="44.49532" lon="1.40448">
        <ele>207.8</ele>
        <time>2022-01-15T14:09:39Z</time>
      </trkpt>
      <trkpt lat="44.49534" lon="1.40444">
        <ele>209</ele>
        <time>2022-01-15T14:09:41Z</time>
      </trkpt>
      <trkpt lat="44.49535" lon="1.40442">
        <ele>209</ele>
        <time>2022-01-15T14:09:42Z</time>
      </trkpt>
      <trkpt lat="44.49536" lon="1.40441">
        <ele>209</ele>
        <time>2022-01-15T14:09:43Z</time>
      </trkpt>
      <trkpt lat="44.49536" lon="1.4044">
        <ele>209.1</ele>
        <time>2022-01-15T14:09:44Z</time>
      </trkpt>
      <trkpt lat="44.49537" lon="1.40438">
        <ele>209.1</ele>
        <time>2022-01-15T14:09:45Z</time>
      </trkpt>
      <trkpt lat="44.49538" lon="1.40437">
        <ele>210</ele>
        <time>2022-01-15T14:09:46Z</time>
      </trkpt>
      <trkpt lat="44.49538" lon="1.40434">
        <ele>210.2</ele>
        <time>2022-01-15T14:09:48Z</time>
      </trkpt>
      <trkpt lat="44.49539" lon="1.40432">
        <ele>210.2</ele>
        <time>2022-01-15T14:09:49Z</time>
      </trkpt>
      <trkpt lat="44.4954" lon="1.4043">
        <ele>210.3</ele>
        <time>2022-01-15T14:09:50Z</time>
      </trkpt>
      <trkpt lat="44.4954" lon="1.40428">
        <ele>210.3</ele>
        <time>2022-01-15T14:09:52Z</time>
      </trkpt>
      <trkpt lat="44.49541" lon="1.40426">
        <ele>211.5</ele>
        <time>2022-01-15T14:09:53Z</time>
      </trkpt>
      <trkpt lat="44.49542" lon="1.40425">
        <ele>211.5</ele>
        <time>2022-01-15T14:09:54Z</time>
      </trkpt>
      <trkpt lat="44.49542" lon="1.40422">
        <ele>211.7</ele>
        <time>2022-01-15T14:09:55Z</time>
      </trkpt>
      <trkpt lat="44.49543" lon="1.40421">
        <ele>211.7</ele>
        <time>2022-01-15T14:09:56Z</time>
      </trkpt>
      <trkpt lat="44.49543" lon="1.4042">
        <ele>212.7</ele>
        <time>2022-01-15T14:09:57Z</time>
      </trkpt>
      <trkpt lat="44.49545" lon="1.40418">
        <ele>212.9</ele>
        <time>2022-01-15T14:09:58Z</time>
      </trkpt>
      <trkpt lat="44.49547" lon="1.40416">
        <ele>214</ele>
        <time>2022-01-15T14:10:00Z</time>
      </trkpt>
      <trkpt lat="44.49548" lon="1.40415">
        <ele>214.2</ele>
        <time>2022-01-15T14:10:01Z</time>
      </trkpt>
      <trkpt lat="44.49549" lon="1.40413">
        <ele>214.2</ele>
        <time>2022-01-15T14:10:02Z</time>
      </trkpt>
      <trkpt lat="44.4955" lon="1.40412">
        <ele>215.4</ele>
        <time>2022-01-15T14:10:03Z</time>
      </trkpt>
      <trkpt lat="44.49551" lon="1.40411">
        <ele>215.4</ele>
        <time>2022-01-15T14:10:05Z</time>
      </trkpt>
      <trkpt lat="44.49553" lon="1.40409">
        <ele>216.8</ele>
        <time>2022-01-15T14:10:06Z</time>
      </trkpt>
      <trkpt lat="44.49554" lon="1.40407">
        <ele>216.8</ele>
        <time>2022-01-15T14:10:07Z</time>
      </trkpt>
      <trkpt lat="44.49555" lon="1.40405">
        <ele>216.9</ele>
        <time>2022-01-15T14:10:08Z</time>
      </trkpt>
      <trkpt lat="44.49556" lon="1.40404">
        <ele>216.9</ele>
        <time>2022-01-15T14:10:09Z</time>
      </trkpt>
      <trkpt lat="44.49556" lon="1.40403">
        <ele>218.2</ele>
        <time>2022-01-15T14:10:10Z</time>
      </trkpt>
      <trkpt lat="44.49558" lon="1.40401">
        <ele>218.3</ele>
        <time>2022-01-15T14:10:12Z</time>
      </trkpt>
      <trkpt lat="44.49559" lon="1.404">
        <ele>219.5</ele>
        <time>2022-01-15T14:10:13Z</time>
      </trkpt>
      <trkpt lat="44.4956" lon="1.40398">
        <ele>219.5</ele>
        <time>2022-01-15T14:10:14Z</time>
      </trkpt>
      <trkpt lat="44.49562" lon="1.40397">
        <ele>219.6</ele>
        <time>2022-01-15T14:10:15Z</time>
      </trkpt>
      <trkpt lat="44.49563" lon="1.40395">
        <ele>220.8</ele>
        <time>2022-01-15T14:10:16Z</time>
      </trkpt>
      <trkpt lat="44.49564" lon="1.40394">
        <ele>220.8</ele>
        <time>2022-01-15T14:10:17Z</time>
      </trkpt>
      <trkpt lat="44.49565" lon="1.40394">
        <ele>221.9</ele>
        <time>2022-01-15T14:10:18Z</time>
      </trkpt>
      <trkpt lat="44.49567" lon="1.40392">
        <ele>222.1</ele>
        <time>2022-01-15T14:10:19Z</time>
      </trkpt>
      <trkpt lat="44.49569" lon="1.40391">
        <ele>223.2</ele>
        <time>2022-01-15T14:10:21Z</time>
      </trkpt>
      <trkpt lat="44.4957" lon="1.40389">
        <ele>223.2</ele>
        <time>2022-01-15T14:10:22Z</time>
      </trkpt>
      <trkpt lat="44.49571" lon="1.40389">
        <ele>224.6</ele>
        <time>2022-01-15T14:10:23Z</time>
      </trkpt>
      <trkpt lat="44.49572" lon="1.40388">
        <ele>224.6</ele>
        <time>2022-01-15T14:10:25Z</time>
      </trkpt>
      <trkpt lat="44.49574" lon="1.40386">
        <ele>224.6</ele>
        <time>2022-01-15T14:10:26Z</time>
      </trkpt>
      <trkpt lat="44.49575" lon="1.40385">
        <ele>225.9</ele>
        <time>2022-01-15T14:10:27Z</time>
      </trkpt>
      <trkpt lat="44.49576" lon="1.40385">
        <ele>225.9</ele>
        <time>2022-01-15T14:10:28Z</time>
      </trkpt>
      <trkpt lat="44.49577" lon="1.40384">
        <ele>226.1</ele>
        <time>2022-01-15T14:10:29Z</time>
      </trkpt>
      <trkpt lat="44.49579" lon="1.40382">
        <ele>227.4</ele>
        <time>2022-01-15T14:10:31Z</time>
      </trkpt>
      <trkpt lat="44.49582" lon="1.4038">
        <ele>229</ele>
        <time>2022-01-15T14:10:33Z</time>
      </trkpt>
      <trkpt lat="44.49582" lon="1.40379">
        <ele>229</ele>
        <time>2022-01-15T14:10:34Z</time>
      </trkpt>
      <trkpt lat="44.49584" lon="1.40377">
        <ele>230.4</ele>
        <time>2022-01-15T14:10:35Z</time>
      </trkpt>
      <trkpt lat="44.49586" lon="1.40375">
        <ele>230.7</ele>
        <time>2022-01-15T14:10:37Z</time>
      </trkpt>
      <trkpt lat="44.49587" lon="1.40372">
        <ele>232.1</ele>
        <time>2022-01-15T14:10:38Z</time>
      </trkpt>
      <trkpt lat="44.49588" lon="1.40371">
        <ele>232.4</ele>
        <time>2022-01-15T14:10:39Z</time>
      </trkpt>
      <trkpt lat="44.49588" lon="1.4037">
        <ele>232.4</ele>
        <time>2022-01-15T14:10:40Z</time>
      </trkpt>
      <trkpt lat="44.4959" lon="1.40369">
        <ele>233.8</ele>
        <time>2022-01-15T14:10:42Z</time>
      </trkpt>
      <trkpt lat="44.49591" lon="1.40368">
        <ele>233.8</ele>
        <time>2022-01-15T14:10:43Z</time>
      </trkpt>
      <trkpt lat="44.49592" lon="1.40366">
        <ele>234</ele>
        <time>2022-01-15T14:10:44Z</time>
      </trkpt>
      <trkpt lat="44.49593" lon="1.40364">
        <ele>235.5</ele>
        <time>2022-01-15T14:10:46Z</time>
      </trkpt>
      <trkpt lat="44.49594" lon="1.40362">
        <ele>235.7</ele>
        <time>2022-01-15T14:10:47Z</time>
      </trkpt>
      <trkpt lat="44.49594" lon="1.4036">
        <ele>235.7</ele>
        <time>2022-01-15T14:10:48Z</time>
      </trkpt>
      <trkpt lat="44.49595" lon="1.40358">
        <ele>236</ele>
        <time>2022-01-15T14:10:49Z</time>
      </trkpt>
      <trkpt lat="44.49595" lon="1.40354">
        <ele>236.2</ele>
        <time>2022-01-15T14:10:51Z</time>
      </trkpt>
      <trkpt lat="44.49595" lon="1.40352">
        <ele>236.2</ele>
        <time>2022-01-15T14:10:52Z</time>
      </trkpt>
      <trkpt lat="44.49595" lon="1.4035">
        <ele>236.6</ele>
        <time>2022-01-15T14:10:54Z</time>
      </trkpt>
      <trkpt lat="44.49594" lon="1.40348">
        <ele>236.6</ele>
        <time>2022-01-15T14:10:55Z</time>
      </trkpt>
      <trkpt lat="44.49593" lon="1.40346">
        <ele>236.9</ele>
        <time>2022-01-15T14:10:56Z</time>
      </trkpt>
      <trkpt lat="44.49593" lon="1.40344">
        <ele>236.9</ele>
        <time>2022-01-15T14:10:57Z</time>
      </trkpt>
      <trkpt lat="44.49592" lon="1.40343">
        <ele>235.6</ele>
        <time>2022-01-15T14:10:58Z</time>
      </trkpt>
      <trkpt lat="44.49591" lon="1.40342">
        <ele>236</ele>
        <time>2022-01-15T14:11:00Z</time>
      </trkpt>
      <trkpt lat="44.49589" lon="1.40339">
        <ele>234.7</ele>
        <time>2022-01-15T14:11:01Z</time>
      </trkpt>
      <trkpt lat="44.49588" lon="1.40337">
        <ele>235.2</ele>
        <time>2022-01-15T14:11:03Z</time>
      </trkpt>
      <trkpt lat="44.49587" lon="1.40335">
        <ele>235.2</ele>
        <time>2022-01-15T14:11:04Z</time>
      </trkpt>
      <trkpt lat="44.49586" lon="1.40334">
        <ele>234</ele>
        <time>2022-01-15T14:11:05Z</time>
      </trkpt>
      <trkpt lat="44.49585" lon="1.40332">
        <ele>234.6</ele>
        <time>2022-01-15T14:11:06Z</time>
      </trkpt>
      <trkpt lat="44.49584" lon="1.4033">
        <ele>234.6</ele>
        <time>2022-01-15T14:11:07Z</time>
      </trkpt>
      <trkpt lat="44.49583" lon="1.40328">
        <ele>233.9</ele>
        <time>2022-01-15T14:11:08Z</time>
      </trkpt>
      <trkpt lat="44.49582" lon="1.40327">
        <ele>233.9</ele>
        <time>2022-01-15T14:11:09Z</time>
      </trkpt>
      <trkpt lat="44.49581" lon="1.40325">
        <ele>233.9</ele>
        <time>2022-01-15T14:11:10Z</time>
      </trkpt>
      <trkpt lat="44.4958" lon="1.40321">
        <ele>233.4</ele>
        <time>2022-01-15T14:11:12Z</time>
      </trkpt>
      <trkpt lat="44.49579" lon="1.40319">
        <ele>234</ele>
        <time>2022-01-15T14:11:13Z</time>
      </trkpt>
      <trkpt lat="44.49579" lon="1.40317">
        <ele>234</ele>
        <time>2022-01-15T14:11:14Z</time>
      </trkpt>
      <trkpt lat="44.49579" lon="1.40315">
        <ele>234.7</ele>
        <time>2022-01-15T14:11:15Z</time>
      </trkpt>
      <trkpt lat="44.49578" lon="1.40313">
        <ele>234.7</ele>
        <time>2022-01-15T14:11:16Z</time>
      </trkpt>
      <trkpt lat="44.49577" lon="1.40311">
        <ele>234.2</ele>
        <time>2022-01-15T14:11:17Z</time>
      </trkpt>
      <trkpt lat="44.49577" lon="1.40309">
        <ele>234.2</ele>
        <time>2022-01-15T14:11:18Z</time>
      </trkpt>
      <trkpt lat="44.49576" lon="1.40305">
        <ele>234.9</ele>
        <time>2022-01-15T14:11:20Z</time>
      </trkpt>
      <trkpt lat="44.49576" lon="1.40303">
        <ele>234.9</ele>
        <time>2022-01-15T14:11:21Z</time>
      </trkpt>
      <trkpt lat="44.49575" lon="1.403">
        <ele>235.6</ele>
        <time>2022-01-15T14:11:23Z</time>
      </trkpt>
      <trkpt lat="44.49575" lon="1.40299">
        <ele>236.3</ele>
        <time>2022-01-15T14:11:24Z</time>
      </trkpt>
      <trkpt lat="44.49574" lon="1.40297">
        <ele>236.3</ele>
        <time>2022-01-15T14:11:25Z</time>
      </trkpt>
      <trkpt lat="44.49573" lon="1.40295">
        <ele>235.3</ele>
        <time>2022-01-15T14:11:26Z</time>
      </trkpt>
      <trkpt lat="44.49573" lon="1.40293">
        <ele>236.1</ele>
        <time>2022-01-15T14:11:28Z</time>
      </trkpt>
      <trkpt lat="44.49572" lon="1.40291">
        <ele>236.1</ele>
        <time>2022-01-15T14:11:29Z</time>
      </trkpt>
      <trkpt lat="44.49572" lon="1.40289">
        <ele>236.9</ele>
        <time>2022-01-15T14:11:30Z</time>
      </trkpt>
      <trkpt lat="44.49571" lon="1.40287">
        <ele>236</ele>
        <time>2022-01-15T14:11:31Z</time>
      </trkpt>
      <trkpt lat="44.4957" lon="1.40286">
        <ele>236.8</ele>
        <time>2022-01-15T14:11:32Z</time>
      </trkpt>
      <trkpt lat="44.4957" lon="1.40284">
        <ele>236.8</ele>
        <time>2022-01-15T14:11:33Z</time>
      </trkpt>
      <trkpt lat="44.49569" lon="1.40281">
        <ele>237.7</ele>
        <time>2022-01-15T14:11:35Z</time>
      </trkpt>
      <trkpt lat="44.49568" lon="1.40277">
        <ele>238.6</ele>
        <time>2022-01-15T14:11:37Z</time>
      </trkpt>
      <trkpt lat="44.49568" lon="1.40275">
        <ele>238.6</ele>
        <time>2022-01-15T14:11:38Z</time>
      </trkpt>
      <trkpt lat="44.49568" lon="1.40272">
        <ele>239.5</ele>
        <time>2022-01-15T14:11:40Z</time>
      </trkpt>
      <trkpt lat="44.49567" lon="1.40269">
        <ele>238.7</ele>
        <time>2022-01-15T14:11:41Z</time>
      </trkpt>
      <trkpt lat="44.49567" lon="1.40267">
        <ele>239.6</ele>
        <time>2022-01-15T14:11:43Z</time>
      </trkpt>
      <trkpt lat="44.49566" lon="1.40265">
        <ele>239.6</ele>
        <time>2022-01-15T14:11:44Z</time>
      </trkpt>
      <trkpt lat="44.49565" lon="1.40263">
        <ele>240.5</ele>
        <time>2022-01-15T14:11:45Z</time>
      </trkpt>
      <trkpt lat="44.49564" lon="1.4026">
        <ele>239.8</ele>
        <time>2022-01-15T14:11:47Z</time>
      </trkpt>
      <trkpt lat="44.49563" lon="1.40259">
        <ele>240.7</ele>
        <time>2022-01-15T14:11:48Z</time>
      </trkpt>
      <trkpt lat="44.49563" lon="1.40258">
        <ele>240.7</ele>
        <time>2022-01-15T14:11:49Z</time>
      </trkpt>
      <trkpt lat="44.49563" lon="1.40256">
        <ele>240.7</ele>
        <time>2022-01-15T14:11:50Z</time>
      </trkpt>
      <trkpt lat="44.49562" lon="1.40255">
        <ele>241.7</ele>
        <time>2022-01-15T14:11:51Z</time>
      </trkpt>
      <trkpt lat="44.49561" lon="1.40253">
        <ele>241</ele>
        <time>2022-01-15T14:11:52Z</time>
      </trkpt>
      <trkpt lat="44.4956" lon="1.40251">
        <ele>242.1</ele>
        <time>2022-01-15T14:11:53Z</time>
      </trkpt>
      <trkpt lat="44.4956" lon="1.40247">
        <ele>243.1</ele>
        <time>2022-01-15T14:11:55Z</time>
      </trkpt>
      <trkpt lat="44.49559" lon="1.40246">
        <ele>243.1</ele>
        <time>2022-01-15T14:11:56Z</time>
      </trkpt>
      <trkpt lat="44.49559" lon="1.40243">
        <ele>243.1</ele>
        <time>2022-01-15T14:11:57Z</time>
      </trkpt>
      <trkpt lat="44.49559" lon="1.40241">
        <ele>244.2</ele>
        <time>2022-01-15T14:11:58Z</time>
      </trkpt>
      <trkpt lat="44.4956" lon="1.40239">
        <ele>244.2</ele>
        <time>2022-01-15T14:11:59Z</time>
      </trkpt>
      <trkpt lat="44.49562" lon="1.40237">
        <ele>245.2</ele>
        <time>2022-01-15T14:12:01Z</time>
      </trkpt>
      <trkpt lat="44.49564" lon="1.40236">
        <ele>245.8</ele>
        <time>2022-01-15T14:12:02Z</time>
      </trkpt>
      <trkpt lat="44.49565" lon="1.40236">
        <ele>245.8</ele>
        <time>2022-01-15T14:12:03Z</time>
      </trkpt>
      <trkpt lat="44.49566" lon="1.40236">
        <ele>246.4</ele>
        <time>2022-01-15T14:12:04Z</time>
      </trkpt>
      <trkpt lat="44.49567" lon="1.40237">
        <ele>246.4</ele>
        <time>2022-01-15T14:12:05Z</time>
      </trkpt>
      <trkpt lat="44.49569" lon="1.40239">
        <ele>247.1</ele>
        <time>2022-01-15T14:12:07Z</time>
      </trkpt>
      <trkpt lat="44.49571" lon="1.40241">
        <ele>246.7</ele>
        <time>2022-01-15T14:12:08Z</time>
      </trkpt>
      <trkpt lat="44.49572" lon="1.40241">
        <ele>246.7</ele>
        <time>2022-01-15T14:12:09Z</time>
      </trkpt>
      <trkpt lat="44.49572" lon="1.40242">
        <ele>246.7</ele>
        <time>2022-01-15T14:12:10Z</time>
      </trkpt>
      <trkpt lat="44.49574" lon="1.40244">
        <ele>245.8</ele>
        <time>2022-01-15T14:12:11Z</time>
      </trkpt>
      <trkpt lat="44.49574" lon="1.40245">
        <ele>245.8</ele>
        <time>2022-01-15T14:12:12Z</time>
      </trkpt>
      <trkpt lat="44.49574" lon="1.40246">
        <ele>246.5</ele>
        <time>2022-01-15T14:12:13Z</time>
      </trkpt>
      <trkpt lat="44.49575" lon="1.40249">
        <ele>245.5</ele>
        <time>2022-01-15T14:12:15Z</time>
      </trkpt>
      <trkpt lat="44.49576" lon="1.40251">
        <ele>245.5</ele>
        <time>2022-01-15T14:12:16Z</time>
      </trkpt>
      <trkpt lat="44.49577" lon="1.40252">
        <ele>244.6</ele>
        <time>2022-01-15T14:12:17Z</time>
      </trkpt>
      <trkpt lat="44.49577" lon="1.40254">
        <ele>245.4</ele>
        <time>2022-01-15T14:12:18Z</time>
      </trkpt>
      <trkpt lat="44.49578" lon="1.40255">
        <ele>245.4</ele>
        <time>2022-01-15T14:12:19Z</time>
      </trkpt>
      <trkpt lat="44.49579" lon="1.40259">
        <ele>244.6</ele>
        <time>2022-01-15T14:12:21Z</time>
      </trkpt>
      <trkpt lat="44.4958" lon="1.4026">
        <ele>243.7</ele>
        <time>2022-01-15T14:12:22Z</time>
      </trkpt>
      <trkpt lat="44.49581" lon="1.40262">
        <ele>244.7</ele>
        <time>2022-01-15T14:12:24Z</time>
      </trkpt>
      <trkpt lat="44.49581" lon="1.40264">
        <ele>244.7</ele>
        <time>2022-01-15T14:12:25Z</time>
      </trkpt>
      <trkpt lat="44.49582" lon="1.40269">
        <ele>243.9</ele>
        <time>2022-01-15T14:12:27Z</time>
      </trkpt>
      <trkpt lat="44.49582" lon="1.40271">
        <ele>243.2</ele>
        <time>2022-01-15T14:12:28Z</time>
      </trkpt>
      <trkpt lat="44.49582" lon="1.40273">
        <ele>243.2</ele>
        <time>2022-01-15T14:12:29Z</time>
      </trkpt>
      <trkpt lat="44.49583" lon="1.40275">
        <ele>242.5</ele>
        <time>2022-01-15T14:12:30Z</time>
      </trkpt>
      <trkpt lat="44.49583" lon="1.40277">
        <ele>243.5</ele>
        <time>2022-01-15T14:12:31Z</time>
      </trkpt>
      <trkpt lat="44.49584" lon="1.40279">
        <ele>242.8</ele>
        <time>2022-01-15T14:12:32Z</time>
      </trkpt>
      <trkpt lat="44.49585" lon="1.40281">
        <ele>242.8</ele>
        <time>2022-01-15T14:12:33Z</time>
      </trkpt>
      <trkpt lat="44.49585" lon="1.40282">
        <ele>242.8</ele>
        <time>2022-01-15T14:12:34Z</time>
      </trkpt>
      <trkpt lat="44.49586" lon="1.40283">
        <ele>242</ele>
        <time>2022-01-15T14:12:35Z</time>
      </trkpt>
      <trkpt lat="44.49587" lon="1.40285">
        <ele>243.2</ele>
        <time>2022-01-15T14:12:36Z</time>
      </trkpt>
      <trkpt lat="44.49588" lon="1.40286">
        <ele>243.2</ele>
        <time>2022-01-15T14:12:37Z</time>
      </trkpt>
      <trkpt lat="44.49589" lon="1.40287">
        <ele>242.4</ele>
        <time>2022-01-15T14:12:38Z</time>
      </trkpt>
      <trkpt lat="44.49589" lon="1.40288">
        <ele>243.6</ele>
        <time>2022-01-15T14:12:39Z</time>
      </trkpt>
      <trkpt lat="44.49591" lon="1.4029">
        <ele>243.6</ele>
        <time>2022-01-15T14:12:40Z</time>
      </trkpt>
      <trkpt lat="44.49592" lon="1.40291">
        <ele>242.9</ele>
        <time>2022-01-15T14:12:41Z</time>
      </trkpt>
      <trkpt lat="44.49593" lon="1.40292">
        <ele>244.1</ele>
        <time>2022-01-15T14:12:43Z</time>
      </trkpt>
      <trkpt lat="44.49595" lon="1.40294">
        <ele>244.1</ele>
        <time>2022-01-15T14:12:44Z</time>
      </trkpt>
      <trkpt lat="44.49596" lon="1.40295">
        <ele>244.6</ele>
        <time>2022-01-15T14:12:45Z</time>
      </trkpt>
      <trkpt lat="44.49599" lon="1.40299">
        <ele>245.7</ele>
        <time>2022-01-15T14:12:47Z</time>
      </trkpt>
      <trkpt lat="44.496" lon="1.40301">
        <ele>245.1</ele>
        <time>2022-01-15T14:12:48Z</time>
      </trkpt>
      <trkpt lat="44.49601" lon="1.40302">
        <ele>245.1</ele>
        <time>2022-01-15T14:12:49Z</time>
      </trkpt>
      <trkpt lat="44.49602" lon="1.40304">
        <ele>245.6</ele>
        <time>2022-01-15T14:12:50Z</time>
      </trkpt>
      <trkpt lat="44.49603" lon="1.40305">
        <ele>245.6</ele>
        <time>2022-01-15T14:12:52Z</time>
      </trkpt>
      <trkpt lat="44.49605" lon="1.40306">
        <ele>245.6</ele>
        <time>2022-01-15T14:12:53Z</time>
      </trkpt>
      <trkpt lat="44.49606" lon="1.40308">
        <ele>246.3</ele>
        <time>2022-01-15T14:12:54Z</time>
      </trkpt>
      <trkpt lat="44.49607" lon="1.40308">
        <ele>246.3</ele>
        <time>2022-01-15T14:12:55Z</time>
      </trkpt>
      <trkpt lat="44.49609" lon="1.40309">
        <ele>247.6</ele>
        <time>2022-01-15T14:12:56Z</time>
      </trkpt>
      <trkpt lat="44.4961" lon="1.4031">
        <ele>247.6</ele>
        <time>2022-01-15T14:12:57Z</time>
      </trkpt>
      <trkpt lat="44.49611" lon="1.4031">
        <ele>247.6</ele>
        <time>2022-01-15T14:12:58Z</time>
      </trkpt>
      <trkpt lat="44.49614" lon="1.40313">
        <ele>250</ele>
        <time>2022-01-15T14:13:00Z</time>
      </trkpt>
      <trkpt lat="44.49615" lon="1.40314">
        <ele>250</ele>
        <time>2022-01-15T14:13:01Z</time>
      </trkpt>
      <trkpt lat="44.49616" lon="1.40316">
        <ele>250</ele>
        <time>2022-01-15T14:13:02Z</time>
      </trkpt>
      <trkpt lat="44.49617" lon="1.40317">
        <ele>251.1</ele>
        <time>2022-01-15T14:13:03Z</time>
      </trkpt>
      <trkpt lat="44.49619" lon="1.40318">
        <ele>251.1</ele>
        <time>2022-01-15T14:13:04Z</time>
      </trkpt>
      <trkpt lat="44.4962" lon="1.4032">
        <ele>252.5</ele>
        <time>2022-01-15T14:13:05Z</time>
      </trkpt>
      <trkpt lat="44.49622" lon="1.40322">
        <ele>252.1</ele>
        <time>2022-01-15T14:13:07Z</time>
      </trkpt>
      <trkpt lat="44.49624" lon="1.40324">
        <ele>253.5</ele>
        <time>2022-01-15T14:13:08Z</time>
      </trkpt>
      <trkpt lat="44.49625" lon="1.40325">
        <ele>253.1</ele>
        <time>2022-01-15T14:13:09Z</time>
      </trkpt>
      <trkpt lat="44.49627" lon="1.40327">
        <ele>254.4</ele>
        <time>2022-01-15T14:13:11Z</time>
      </trkpt>
      <trkpt lat="44.49628" lon="1.40328">
        <ele>254.4</ele>
        <time>2022-01-15T14:13:12Z</time>
      </trkpt>
      <trkpt lat="44.49628" lon="1.4033">
        <ele>254.1</ele>
        <time>2022-01-15T14:13:13Z</time>
      </trkpt>
      <trkpt lat="44.49629" lon="1.40331">
        <ele>255.4</ele>
        <time>2022-01-15T14:13:14Z</time>
      </trkpt>
      <trkpt lat="44.49631" lon="1.40332">
        <ele>255.4</ele>
        <time>2022-01-15T14:13:15Z</time>
      </trkpt>
      <trkpt lat="44.49632" lon="1.40335">
        <ele>255</ele>
        <time>2022-01-15T14:13:17Z</time>
      </trkpt>
      <trkpt lat="44.49633" lon="1.40337">
        <ele>256.5</ele>
        <time>2022-01-15T14:13:18Z</time>
      </trkpt>
      <trkpt lat="44.49636" lon="1.4034">
        <ele>257.6</ele>
        <time>2022-01-15T14:13:20Z</time>
      </trkpt>
      <trkpt lat="44.49638" lon="1.40343">
        <ele>257.3</ele>
        <time>2022-01-15T14:13:21Z</time>
      </trkpt>
      <trkpt lat="44.49639" lon="1.40343">
        <ele>258.8</ele>
        <time>2022-01-15T14:13:22Z</time>
      </trkpt>
      <trkpt lat="44.4964" lon="1.40348">
        <ele>258.6</ele>
        <time>2022-01-15T14:13:24Z</time>
      </trkpt>
      <trkpt lat="44.4964" lon="1.40349">
        <ele>258.6</ele>
        <time>2022-01-15T14:13:25Z</time>
      </trkpt>
      <trkpt lat="44.4964" lon="1.40354">
        <ele>258.3</ele>
        <time>2022-01-15T14:13:27Z</time>
      </trkpt>
      <trkpt lat="44.4964" lon="1.40355">
        <ele>258</ele>
        <time>2022-01-15T14:13:28Z</time>
      </trkpt>
      <trkpt lat="44.4964" lon="1.40357">
        <ele>258</ele>
        <time>2022-01-15T14:13:29Z</time>
      </trkpt>
      <trkpt lat="44.4964" lon="1.4036">
        <ele>257.8</ele>
        <time>2022-01-15T14:13:30Z</time>
      </trkpt>
      <trkpt lat="44.4964" lon="1.40364">
        <ele>257.5</ele>
        <time>2022-01-15T14:13:32Z</time>
      </trkpt>
      <trkpt lat="44.4964" lon="1.40366">
        <ele>257.5</ele>
        <time>2022-01-15T14:13:33Z</time>
      </trkpt>
      <trkpt lat="44.49641" lon="1.40369">
        <ele>257.3</ele>
        <time>2022-01-15T14:13:34Z</time>
      </trkpt>
      <trkpt lat="44.49641" lon="1.4037">
        <ele>257.3</ele>
        <time>2022-01-15T14:13:35Z</time>
      </trkpt>
      <trkpt lat="44.49642" lon="1.40372">
        <ele>258.8</ele>
        <time>2022-01-15T14:13:36Z</time>
      </trkpt>
      <trkpt lat="44.49643" lon="1.40374">
        <ele>258.5</ele>
        <time>2022-01-15T14:13:37Z</time>
      </trkpt>
      <trkpt lat="44.49644" lon="1.40374">
        <ele>258.5</ele>
        <time>2022-01-15T14:13:38Z</time>
      </trkpt>
      <trkpt lat="44.49646" lon="1.40374">
        <ele>260</ele>
        <time>2022-01-15T14:13:40Z</time>
      </trkpt>
      <trkpt lat="44.49647" lon="1.40373">
        <ele>260</ele>
        <time>2022-01-15T14:13:41Z</time>
      </trkpt>
      <trkpt lat="44.49648" lon="1.40371">
        <ele>261.5</ele>
        <time>2022-01-15T14:13:42Z</time>
      </trkpt>
      <trkpt lat="44.49649" lon="1.40367">
        <ele>261.7</ele>
        <time>2022-01-15T14:13:44Z</time>
      </trkpt>
      <trkpt lat="44.49649" lon="1.40365">
        <ele>261.7</ele>
        <time>2022-01-15T14:13:45Z</time>
      </trkpt>
      <trkpt lat="44.49649" lon="1.40363">
        <ele>261.9</ele>
        <time>2022-01-15T14:13:46Z</time>
      </trkpt>
      <trkpt lat="44.49648" lon="1.40361">
        <ele>261.9</ele>
        <time>2022-01-15T14:13:47Z</time>
      </trkpt>
      <trkpt lat="44.49648" lon="1.4036">
        <ele>261.9</ele>
        <time>2022-01-15T14:13:48Z</time>
      </trkpt>
      <trkpt lat="44.49648" lon="1.40358">
        <ele>262.2</ele>
        <time>2022-01-15T14:13:49Z</time>
      </trkpt>
      <trkpt lat="44.49648" lon="1.40355">
        <ele>262.2</ele>
        <time>2022-01-15T14:13:50Z</time>
      </trkpt>
      <trkpt lat="44.49648" lon="1.40354">
        <ele>262.4</ele>
        <time>2022-01-15T14:13:51Z</time>
      </trkpt>
      <trkpt lat="44.49647" lon="1.40353">
        <ele>261.2</ele>
        <time>2022-01-15T14:13:52Z</time>
      </trkpt>
      <trkpt lat="44.49647" lon="1.40351">
        <ele>261.2</ele>
        <time>2022-01-15T14:13:53Z</time>
      </trkpt>
      <trkpt lat="44.49647" lon="1.40349">
        <ele>261.4</ele>
        <time>2022-01-15T14:13:54Z</time>
      </trkpt>
      <trkpt lat="44.49647" lon="1.40348">
        <ele>261.4</ele>
        <time>2022-01-15T14:13:55Z</time>
      </trkpt>
      <trkpt lat="44.49646" lon="1.40346">
        <ele>261.4</ele>
        <time>2022-01-15T14:13:56Z</time>
      </trkpt>
      <trkpt lat="44.49646" lon="1.40344">
        <ele>261.7</ele>
        <time>2022-01-15T14:13:57Z</time>
      </trkpt>
      <trkpt lat="44.49646" lon="1.40341">
        <ele>262</ele>
        <time>2022-01-15T14:13:58Z</time>
      </trkpt>
      <trkpt lat="44.49646" lon="1.4034">
        <ele>262</ele>
        <time>2022-01-15T14:13:59Z</time>
      </trkpt>
      <trkpt lat="44.49646" lon="1.40339">
        <ele>262</ele>
        <time>2022-01-15T14:14:00Z</time>
      </trkpt>
      <trkpt lat="44.49645" lon="1.40336">
        <ele>262.3</ele>
        <time>2022-01-15T14:14:02Z</time>
      </trkpt>
      <trkpt lat="44.49645" lon="1.40331">
        <ele>262.7</ele>
        <time>2022-01-15T14:14:04Z</time>
      </trkpt>
      <trkpt lat="44.49644" lon="1.40329">
        <ele>261.3</ele>
        <time>2022-01-15T14:14:05Z</time>
      </trkpt>
      <trkpt lat="44.49643" lon="1.40327">
        <ele>261.6</ele>
        <time>2022-01-15T14:14:06Z</time>
      </trkpt>
      <trkpt lat="44.49642" lon="1.40325">
        <ele>261.6</ele>
        <time>2022-01-15T14:14:07Z</time>
      </trkpt>
      <trkpt lat="44.49641" lon="1.40321">
        <ele>260.4</ele>
        <time>2022-01-15T14:14:09Z</time>
      </trkpt>
      <trkpt lat="44.4964" lon="1.40319">
        <ele>260.7</ele>
        <time>2022-01-15T14:14:10Z</time>
      </trkpt>
      <trkpt lat="44.49639" lon="1.40317">
        <ele>260.7</ele>
        <time>2022-01-15T14:14:11Z</time>
      </trkpt>
      <trkpt lat="44.49637" lon="1.40313">
        <ele>259.5</ele>
        <time>2022-01-15T14:14:12Z</time>
      </trkpt>
      <trkpt lat="44.49636" lon="1.40312">
        <ele>259.5</ele>
        <time>2022-01-15T14:14:13Z</time>
      </trkpt>
      <trkpt lat="44.49633" lon="1.40307">
        <ele>258.7</ele>
        <time>2022-01-15T14:14:15Z</time>
      </trkpt>
      <trkpt lat="44.49631" lon="1.40305">
        <ele>257.4</ele>
        <time>2022-01-15T14:14:16Z</time>
      </trkpt>
      <trkpt lat="44.4963" lon="1.40303">
        <ele>257.4</ele>
        <time>2022-01-15T14:14:17Z</time>
      </trkpt>
      <trkpt lat="44.49628" lon="1.403">
        <ele>256.6</ele>
        <time>2022-01-15T14:14:18Z</time>
      </trkpt>
      <trkpt lat="44.49627" lon="1.40299">
        <ele>256.6</ele>
        <time>2022-01-15T14:14:19Z</time>
      </trkpt>
      <trkpt lat="44.49625" lon="1.40296">
        <ele>255.8</ele>
        <time>2022-01-15T14:14:20Z</time>
      </trkpt>
      <trkpt lat="44.49624" lon="1.40295">
        <ele>255.8</ele>
        <time>2022-01-15T14:14:21Z</time>
      </trkpt>
      <trkpt lat="44.49622" lon="1.40292">
        <ele>254.8</ele>
        <time>2022-01-15T14:14:22Z</time>
      </trkpt>
      <trkpt lat="44.49621" lon="1.40291">
        <ele>254.5</ele>
        <time>2022-01-15T14:14:23Z</time>
      </trkpt>
      <trkpt lat="44.4962" lon="1.4029">
        <ele>253.5</ele>
        <time>2022-01-15T14:14:24Z</time>
      </trkpt>
      <trkpt lat="44.49619" lon="1.40288">
        <ele>253.2</ele>
        <time>2022-01-15T14:14:25Z</time>
      </trkpt>
      <trkpt lat="44.49617" lon="1.40286">
        <ele>253.5</ele>
        <time>2022-01-15T14:14:26Z</time>
      </trkpt>
      <trkpt lat="44.49617" lon="1.40284">
        <ele>251.9</ele>
        <time>2022-01-15T14:14:27Z</time>
      </trkpt>
      <trkpt lat="44.49616" lon="1.40282">
        <ele>251.6</ele>
        <time>2022-01-15T14:14:29Z</time>
      </trkpt>
      <trkpt lat="44.49615" lon="1.4028">
        <ele>251.8</ele>
        <time>2022-01-15T14:14:30Z</time>
      </trkpt>
      <trkpt lat="44.49614" lon="1.40279">
        <ele>251.5</ele>
        <time>2022-01-15T14:14:31Z</time>
      </trkpt>
      <trkpt lat="44.49614" lon="1.40277">
        <ele>251.7</ele>
        <time>2022-01-15T14:14:32Z</time>
      </trkpt>
      <trkpt lat="44.49614" lon="1.40275">
        <ele>250.2</ele>
        <time>2022-01-15T14:14:34Z</time>
      </trkpt>
      <trkpt lat="44.49613" lon="1.40274">
        <ele>249.9</ele>
        <time>2022-01-15T14:14:35Z</time>
      </trkpt>
      <trkpt lat="44.49613" lon="1.40273">
        <ele>250.1</ele>
        <time>2022-01-15T14:14:36Z</time>
      </trkpt>
      <trkpt lat="44.49613" lon="1.40272">
        <ele>249.8</ele>
        <time>2022-01-15T14:14:37Z</time>
      </trkpt>
      <trkpt lat="44.49613" lon="1.40271">
        <ele>249.5</ele>
        <time>2022-01-15T14:14:38Z</time>
      </trkpt>
      <trkpt lat="44.49613" lon="1.4027">
        <ele>249.2</ele>
        <time>2022-01-15T14:14:40Z</time>
      </trkpt>
      <trkpt lat="44.49614" lon="1.4027">
        <ele>248.9</ele>
        <time>2022-01-15T14:14:41Z</time>
      </trkpt>
      <trkpt lat="44.49614" lon="1.40271">
        <ele>249.9</ele>
        <time>2022-01-15T14:14:42Z</time>
      </trkpt>
      <trkpt lat="44.49614" lon="1.40272">
        <ele>249.6</ele>
        <time>2022-01-15T14:14:43Z</time>
      </trkpt>
      <trkpt lat="44.49615" lon="1.40273">
        <ele>249.3</ele>
        <time>2022-01-15T14:14:44Z</time>
      </trkpt>
      <trkpt lat="44.49615" lon="1.40273">
        <ele>249</ele>
        <time>2022-01-15T14:14:45Z</time>
      </trkpt>
      <trkpt lat="44.49615" lon="1.40273">
        <ele>248.6</ele>
        <time>2022-01-15T14:14:46Z</time>
      </trkpt>
      <trkpt lat="44.49615" lon="1.40273">
        <ele>247.8</ele>
        <time>2022-01-15T14:14:47Z</time>
      </trkpt>
      <trkpt lat="44.49615" lon="1.40273">
        <ele>247.5</ele>
        <time>2022-01-15T14:14:48Z</time>
      </trkpt>
      <trkpt lat="44.49615" lon="1.40273">
        <ele>247.2</ele>
        <time>2022-01-15T14:14:50Z</time>
      </trkpt>
      <trkpt lat="44.49615" lon="1.40274">
        <ele>246.8</ele>
        <time>2022-01-15T14:14:51Z</time>
      </trkpt>
      <trkpt lat="44.49614" lon="1.40269">
        <ele>245.8</ele>
        <time>2022-01-15T14:15:09Z</time>
      </trkpt>
      <trkpt lat="44.49613" lon="1.40267">
        <ele>246.1</ele>
        <time>2022-01-15T14:15:10Z</time>
      </trkpt>
      <trkpt lat="44.49613" lon="1.40265">
        <ele>245.8</ele>
        <time>2022-01-15T14:15:11Z</time>
      </trkpt>
      <trkpt lat="44.49611" lon="1.4026">
        <ele>246.5</ele>
        <time>2022-01-15T14:15:13Z</time>
      </trkpt>
      <trkpt lat="44.49611" lon="1.40258">
        <ele>246.2</ele>
        <time>2022-01-15T14:15:14Z</time>
      </trkpt>
      <trkpt lat="44.49611" lon="1.40256">
        <ele>245.4</ele>
        <time>2022-01-15T14:15:15Z</time>
      </trkpt>
      <trkpt lat="44.4961" lon="1.40253">
        <ele>245.1</ele>
        <time>2022-01-15T14:15:16Z</time>
      </trkpt>
      <trkpt lat="44.4961" lon="1.40249">
        <ele>245.4</ele>
        <time>2022-01-15T14:15:18Z</time>
      </trkpt>
      <trkpt lat="44.4961" lon="1.40248">
        <ele>245.1</ele>
        <time>2022-01-15T14:15:19Z</time>
      </trkpt>
      <trkpt lat="44.49611" lon="1.40244">
        <ele>245.3</ele>
        <time>2022-01-15T14:15:20Z</time>
      </trkpt>
      <trkpt lat="44.49611" lon="1.40243">
        <ele>245</ele>
        <time>2022-01-15T14:15:21Z</time>
      </trkpt>
      <trkpt lat="44.49611" lon="1.40241">
        <ele>246.4</ele>
        <time>2022-01-15T14:15:22Z</time>
      </trkpt>
      <trkpt lat="44.4961" lon="1.40236">
        <ele>245.6</ele>
        <time>2022-01-15T14:15:24Z</time>
      </trkpt>
      <trkpt lat="44.49608" lon="1.40233">
        <ele>245.9</ele>
        <time>2022-01-15T14:15:26Z</time>
      </trkpt>
      <trkpt lat="44.49608" lon="1.4023">
        <ele>246.1</ele>
        <time>2022-01-15T14:15:27Z</time>
      </trkpt>
      <trkpt lat="44.49607" lon="1.40228">
        <ele>245</ele>
        <time>2022-01-15T14:15:28Z</time>
      </trkpt>
      <trkpt lat="44.49606" lon="1.40226">
        <ele>244.7</ele>
        <time>2022-01-15T14:15:29Z</time>
      </trkpt>
      <trkpt lat="44.49605" lon="1.40225">
        <ele>245</ele>
        <time>2022-01-15T14:15:30Z</time>
      </trkpt>
      <trkpt lat="44.49605" lon="1.40223">
        <ele>244.7</ele>
        <time>2022-01-15T14:15:31Z</time>
      </trkpt>
      <trkpt lat="44.49604" lon="1.40221">
        <ele>244.3</ele>
        <time>2022-01-15T14:15:32Z</time>
      </trkpt>
      <trkpt lat="44.49603" lon="1.40217">
        <ele>244.6</ele>
        <time>2022-01-15T14:15:33Z</time>
      </trkpt>
      <trkpt lat="44.49603" lon="1.40216">
        <ele>244.3</ele>
        <time>2022-01-15T14:15:35Z</time>
      </trkpt>
      <trkpt lat="44.49603" lon="1.40214">
        <ele>244</ele>
        <time>2022-01-15T14:15:36Z</time>
      </trkpt>
      <trkpt lat="44.49603" lon="1.40213">
        <ele>244.3</ele>
        <time>2022-01-15T14:15:37Z</time>
      </trkpt>
      <trkpt lat="44.49603" lon="1.40211">
        <ele>243.9</ele>
        <time>2022-01-15T14:15:38Z</time>
      </trkpt>
      <trkpt lat="44.49603" lon="1.40208">
        <ele>244.2</ele>
        <time>2022-01-15T14:15:40Z</time>
      </trkpt>
      <trkpt lat="44.49603" lon="1.40205">
        <ele>243.9</ele>
        <time>2022-01-15T14:15:42Z</time>
      </trkpt>
      <trkpt lat="44.49602" lon="1.40203">
        <ele>244.2</ele>
        <time>2022-01-15T14:15:43Z</time>
      </trkpt>
      <trkpt lat="44.49601" lon="1.402">
        <ele>243.4</ele>
        <time>2022-01-15T14:15:45Z</time>
      </trkpt>
      <trkpt lat="44.496" lon="1.40199">
        <ele>243.7</ele>
        <time>2022-01-15T14:15:46Z</time>
      </trkpt>
      <trkpt lat="44.496" lon="1.40197">
        <ele>243.4</ele>
        <time>2022-01-15T14:15:47Z</time>
      </trkpt>
      <trkpt lat="44.49599" lon="1.40195">
        <ele>243.7</ele>
        <time>2022-01-15T14:15:48Z</time>
      </trkpt>
      <trkpt lat="44.49599" lon="1.40193">
        <ele>243.4</ele>
        <time>2022-01-15T14:15:49Z</time>
      </trkpt>
      <trkpt lat="44.49598" lon="1.40191">
        <ele>243.2</ele>
        <time>2022-01-15T14:15:51Z</time>
      </trkpt>
      <trkpt lat="44.49597" lon="1.4019">
        <ele>242.9</ele>
        <time>2022-01-15T14:15:52Z</time>
      </trkpt>
      <trkpt lat="44.49595" lon="1.40187">
        <ele>242.1</ele>
        <time>2022-01-15T14:15:53Z</time>
      </trkpt>
      <trkpt lat="44.49595" lon="1.40186">
        <ele>242.3</ele>
        <time>2022-01-15T14:15:54Z</time>
      </trkpt>
      <trkpt lat="44.49594" lon="1.40186">
        <ele>242</ele>
        <time>2022-01-15T14:15:55Z</time>
      </trkpt>
      <trkpt lat="44.49594" lon="1.40185">
        <ele>241.6</ele>
        <time>2022-01-15T14:15:56Z</time>
      </trkpt>
      <trkpt lat="44.49593" lon="1.40184">
        <ele>241.3</ele>
        <time>2022-01-15T14:15:57Z</time>
      </trkpt>
      <trkpt lat="44.49592" lon="1.4018">
        <ele>241.1</ele>
        <time>2022-01-15T14:15:59Z</time>
      </trkpt>
      <trkpt lat="44.49591" lon="1.40179">
        <ele>240.8</ele>
        <time>2022-01-15T14:16:00Z</time>
      </trkpt>
      <trkpt lat="44.4959" lon="1.40178">
        <ele>241</ele>
        <time>2022-01-15T14:16:01Z</time>
      </trkpt>
      <trkpt lat="44.4959" lon="1.40176">
        <ele>240.7</ele>
        <time>2022-01-15T14:16:02Z</time>
      </trkpt>
      <trkpt lat="44.49587" lon="1.40171">
        <ele>240.4</ele>
        <time>2022-01-15T14:16:04Z</time>
      </trkpt>
      <trkpt lat="44.49586" lon="1.4017">
        <ele>240.1</ele>
        <time>2022-01-15T14:16:05Z</time>
      </trkpt>
      <trkpt lat="44.49585" lon="1.40169">
        <ele>239.8</ele>
        <time>2022-01-15T14:16:06Z</time>
      </trkpt>
      <trkpt lat="44.49583" lon="1.40165">
        <ele>240</ele>
        <time>2022-01-15T14:16:07Z</time>
      </trkpt>
      <trkpt lat="44.49582" lon="1.40164">
        <ele>239.3</ele>
        <time>2022-01-15T14:16:08Z</time>
      </trkpt>
      <trkpt lat="44.4958" lon="1.40161">
        <ele>239</ele>
        <time>2022-01-15T14:16:09Z</time>
      </trkpt>
      <trkpt lat="44.49579" lon="1.40158">
        <ele>238.7</ele>
        <time>2022-01-15T14:16:10Z</time>
      </trkpt>
      <trkpt lat="44.49578" lon="1.40156">
        <ele>238.9</ele>
        <time>2022-01-15T14:16:12Z</time>
      </trkpt>
      <trkpt lat="44.49576" lon="1.40153">
        <ele>238.6</ele>
        <time>2022-01-15T14:16:13Z</time>
      </trkpt>
      <trkpt lat="44.49575" lon="1.40152">
        <ele>238.3</ele>
        <time>2022-01-15T14:16:14Z</time>
      </trkpt>
      <trkpt lat="44.49573" lon="1.4015">
        <ele>237.6</ele>
        <time>2022-01-15T14:16:15Z</time>
      </trkpt>
      <trkpt lat="44.49571" lon="1.40149">
        <ele>237.3</ele>
        <time>2022-01-15T14:16:17Z</time>
      </trkpt>
      <trkpt lat="44.4957" lon="1.40148">
        <ele>237.1</ele>
        <time>2022-01-15T14:16:18Z</time>
      </trkpt>
      <trkpt lat="44.49569" lon="1.40147">
        <ele>236.8</ele>
        <time>2022-01-15T14:16:19Z</time>
      </trkpt>
      <trkpt lat="44.49568" lon="1.40146">
        <ele>236.2</ele>
        <time>2022-01-15T14:16:20Z</time>
      </trkpt>
      <trkpt lat="44.49567" lon="1.40146">
        <ele>235.9</ele>
        <time>2022-01-15T14:16:21Z</time>
      </trkpt>
      <trkpt lat="44.49566" lon="1.40145">
        <ele>235.6</ele>
        <time>2022-01-15T14:16:22Z</time>
      </trkpt>
      <trkpt lat="44.49563" lon="1.40144">
        <ele>235.3</ele>
        <time>2022-01-15T14:16:24Z</time>
      </trkpt>
      <trkpt lat="44.49562" lon="1.40144">
        <ele>235</ele>
        <time>2022-01-15T14:16:25Z</time>
      </trkpt>
      <trkpt lat="44.49561" lon="1.40143">
        <ele>234.3</ele>
        <time>2022-01-15T14:16:26Z</time>
      </trkpt>
      <trkpt lat="44.49559" lon="1.40143">
        <ele>234</ele>
        <time>2022-01-15T14:16:27Z</time>
      </trkpt>
      <trkpt lat="44.49557" lon="1.40143">
        <ele>233.2</ele>
        <time>2022-01-15T14:16:28Z</time>
      </trkpt>
      <trkpt lat="44.49556" lon="1.40143">
        <ele>232.2</ele>
        <time>2022-01-15T14:16:29Z</time>
      </trkpt>
      <trkpt lat="44.49553" lon="1.40142">
        <ele>231.9</ele>
        <time>2022-01-15T14:16:31Z</time>
      </trkpt>
      <trkpt lat="44.49552" lon="1.40142">
        <ele>231</ele>
        <time>2022-01-15T14:16:32Z</time>
      </trkpt>
      <trkpt lat="44.49549" lon="1.40141">
        <ele>230</ele>
        <time>2022-01-15T14:16:33Z</time>
      </trkpt>
      <trkpt lat="44.49548" lon="1.4014">
        <ele>229.7</ele>
        <time>2022-01-15T14:16:34Z</time>
      </trkpt>
      <trkpt lat="44.49546" lon="1.4014">
        <ele>229.3</ele>
        <time>2022-01-15T14:16:35Z</time>
      </trkpt>
      <trkpt lat="44.49545" lon="1.40139">
        <ele>229</ele>
        <time>2022-01-15T14:16:37Z</time>
      </trkpt>
      <trkpt lat="44.49543" lon="1.40138">
        <ele>228.1</ele>
        <time>2022-01-15T14:16:38Z</time>
      </trkpt>
      <trkpt lat="44.49542" lon="1.40138">
        <ele>228.1</ele>
        <time>2022-01-15T14:16:39Z</time>
      </trkpt>
      <trkpt lat="44.49541" lon="1.40138">
        <ele>228.1</ele>
        <time>2022-01-15T14:16:40Z</time>
      </trkpt>
      <trkpt lat="44.4954" lon="1.40137">
        <ele>227.5</ele>
        <time>2022-01-15T14:16:41Z</time>
      </trkpt>
      <trkpt lat="44.4954" lon="1.40136">
        <ele>227.8</ele>
        <time>2022-01-15T14:16:43Z</time>
      </trkpt>
      <trkpt lat="44.49539" lon="1.40135">
        <ele>227.8</ele>
        <time>2022-01-15T14:16:44Z</time>
      </trkpt>
      <trkpt lat="44.49539" lon="1.40135">
        <ele>227.8</ele>
        <time>2022-01-15T14:16:45Z</time>
      </trkpt>
      <trkpt lat="44.49539" lon="1.40135">
        <ele>227.8</ele>
        <time>2022-01-15T14:16:46Z</time>
      </trkpt>
      <trkpt lat="44.49539" lon="1.40136">
        <ele>227.5</ele>
        <time>2022-01-15T14:16:47Z</time>
      </trkpt>
      <trkpt lat="44.4954" lon="1.40137">
        <ele>227.5</ele>
        <time>2022-01-15T14:16:49Z</time>
      </trkpt>
      <trkpt lat="44.4954" lon="1.40137">
        <ele>227.5</ele>
        <time>2022-01-15T14:16:50Z</time>
      </trkpt>
      <trkpt lat="44.4954" lon="1.40137">
        <ele>227.5</ele>
        <time>2022-01-15T14:16:51Z</time>
      </trkpt>
      <trkpt lat="44.4954" lon="1.40136">
        <ele>228.1</ele>
        <time>2022-01-15T14:16:52Z</time>
      </trkpt>
      <trkpt lat="44.49541" lon="1.40135">
        <ele>228.4</ele>
        <time>2022-01-15T14:16:53Z</time>
      </trkpt>
      <trkpt lat="44.49541" lon="1.40134">
        <ele>228.4</ele>
        <time>2022-01-15T14:16:54Z</time>
      </trkpt>
      <trkpt lat="44.49541" lon="1.40134">
        <ele>228.4</ele>
        <time>2022-01-15T14:16:55Z</time>
      </trkpt>
      <trkpt lat="44.49541" lon="1.40134">
        <ele>228.4</ele>
        <time>2022-01-15T14:16:56Z</time>
      </trkpt>
      <trkpt lat="44.49542" lon="1.40131">
        <ele>228.7</ele>
        <time>2022-01-15T14:17:02Z</time>
      </trkpt>
      <trkpt lat="44.49544" lon="1.40129">
        <ele>229.3</ele>
        <time>2022-01-15T14:17:03Z</time>
      </trkpt>
      <trkpt lat="44.49546" lon="1.40128">
        <ele>229.3</ele>
        <time>2022-01-15T14:17:05Z</time>
      </trkpt>
      <trkpt lat="44.49549" lon="1.40126">
        <ele>230.2</ele>
        <time>2022-01-15T14:17:06Z</time>
      </trkpt>
      <trkpt lat="44.4955" lon="1.40126">
        <ele>230.9</ele>
        <time>2022-01-15T14:17:07Z</time>
      </trkpt>
      <trkpt lat="44.49554" lon="1.40124">
        <ele>231.5</ele>
        <time>2022-01-15T14:17:09Z</time>
      </trkpt>
      <trkpt lat="44.49556" lon="1.40122">
        <ele>232.4</ele>
        <time>2022-01-15T14:17:10Z</time>
      </trkpt>
      <trkpt lat="44.49557" lon="1.40121">
        <ele>232.4</ele>
        <time>2022-01-15T14:17:11Z</time>
      </trkpt>
      <trkpt lat="44.49558" lon="1.40119">
        <ele>232.6</ele>
        <time>2022-01-15T14:17:12Z</time>
      </trkpt>
      <trkpt lat="44.49559" lon="1.40118">
        <ele>233.2</ele>
        <time>2022-01-15T14:17:13Z</time>
      </trkpt>
      <trkpt lat="44.4956" lon="1.40117">
        <ele>233.2</ele>
        <time>2022-01-15T14:17:14Z</time>
      </trkpt>
      <trkpt lat="44.49559" lon="1.40112">
        <ele>233.4</ele>
        <time>2022-01-15T14:17:15Z</time>
      </trkpt>
      <trkpt lat="44.49559" lon="1.40111">
        <ele>233.4</ele>
        <time>2022-01-15T14:17:16Z</time>
      </trkpt>
      <trkpt lat="44.4956" lon="1.40109">
        <ele>233.6</ele>
        <time>2022-01-15T14:17:18Z</time>
      </trkpt>
      <trkpt lat="44.49561" lon="1.40107">
        <ele>233.6</ele>
        <time>2022-01-15T14:17:19Z</time>
      </trkpt>
      <trkpt lat="44.49562" lon="1.40104">
        <ele>233.7</ele>
        <time>2022-01-15T14:17:20Z</time>
      </trkpt>
      <trkpt lat="44.49562" lon="1.40103">
        <ele>234.2</ele>
        <time>2022-01-15T14:17:21Z</time>
      </trkpt>
      <trkpt lat="44.49563" lon="1.40103">
        <ele>234.2</ele>
        <time>2022-01-15T14:17:22Z</time>
      </trkpt>
      <trkpt lat="44.49564" lon="1.40102">
        <ele>234.2</ele>
        <time>2022-01-15T14:17:23Z</time>
      </trkpt>
      <trkpt lat="44.49566" lon="1.40101">
        <ele>234.6</ele>
        <time>2022-01-15T14:17:24Z</time>
      </trkpt>
      <trkpt lat="44.49568" lon="1.40099">
        <ele>234.6</ele>
        <time>2022-01-15T14:17:25Z</time>
      </trkpt>
      <trkpt lat="44.49569" lon="1.40099">
        <ele>234.9</ele>
        <time>2022-01-15T14:17:27Z</time>
      </trkpt>
      <trkpt lat="44.4957" lon="1.40098">
        <ele>234.9</ele>
        <time>2022-01-15T14:17:28Z</time>
      </trkpt>
      <trkpt lat="44.49572" lon="1.40097">
        <ele>235.2</ele>
        <time>2022-01-15T14:17:29Z</time>
      </trkpt>
      <trkpt lat="44.49575" lon="1.40097">
        <ele>235.4</ele>
        <time>2022-01-15T14:17:31Z</time>
      </trkpt>
      <trkpt lat="44.49577" lon="1.40096">
        <ele>235.4</ele>
        <time>2022-01-15T14:17:32Z</time>
      </trkpt>
      <trkpt lat="44.4958" lon="1.40096">
        <ele>235.7</ele>
        <time>2022-01-15T14:17:34Z</time>
      </trkpt>
      <trkpt lat="44.49581" lon="1.40095">
        <ele>235.9</ele>
        <time>2022-01-15T14:17:35Z</time>
      </trkpt>
      <trkpt lat="44.49583" lon="1.40094">
        <ele>235.9</ele>
        <time>2022-01-15T14:17:36Z</time>
      </trkpt>
      <trkpt lat="44.49585" lon="1.40096">
        <ele>236.2</ele>
        <time>2022-01-15T14:17:37Z</time>
      </trkpt>
      <trkpt lat="44.49586" lon="1.40096">
        <ele>236.2</ele>
        <time>2022-01-15T14:17:38Z</time>
      </trkpt>
      <trkpt lat="44.49587" lon="1.40097">
        <ele>236.4</ele>
        <time>2022-01-15T14:17:39Z</time>
      </trkpt>
      <trkpt lat="44.49588" lon="1.40098">
        <ele>236.3</ele>
        <time>2022-01-15T14:17:40Z</time>
      </trkpt>
      <trkpt lat="44.4959" lon="1.40099">
        <ele>236.5</ele>
        <time>2022-01-15T14:17:41Z</time>
      </trkpt>
      <trkpt lat="44.49592" lon="1.40099">
        <ele>236.5</ele>
        <time>2022-01-15T14:17:42Z</time>
      </trkpt>
      <trkpt lat="44.49593" lon="1.40099">
        <ele>236.6</ele>
        <time>2022-01-15T14:17:43Z</time>
      </trkpt>
      <trkpt lat="44.49594" lon="1.40101">
        <ele>236.6</ele>
        <time>2022-01-15T14:17:44Z</time>
      </trkpt>
      <trkpt lat="44.49594" lon="1.40103">
        <ele>236.6</ele>
        <time>2022-01-15T14:17:45Z</time>
      </trkpt>
      <trkpt lat="44.49595" lon="1.40105">
        <ele>236.6</ele>
        <time>2022-01-15T14:17:46Z</time>
      </trkpt>
      <trkpt lat="44.49596" lon="1.40106">
        <ele>236.7</ele>
        <time>2022-01-15T14:17:47Z</time>
      </trkpt>
      <trkpt lat="44.49597" lon="1.40106">
        <ele>236.6</ele>
        <time>2022-01-15T14:17:48Z</time>
      </trkpt>
      <trkpt lat="44.496" lon="1.40106">
        <ele>236.7</ele>
        <time>2022-01-15T14:17:50Z</time>
      </trkpt>
      <trkpt lat="44.49601" lon="1.40106">
        <ele>236.7</ele>
        <time>2022-01-15T14:17:51Z</time>
      </trkpt>
      <trkpt lat="44.49602" lon="1.40106">
        <ele>236.7</ele>
        <time>2022-01-15T14:17:52Z</time>
      </trkpt>
      <trkpt lat="44.49603" lon="1.40107">
        <ele>236.7</ele>
        <time>2022-01-15T14:17:53Z</time>
      </trkpt>
      <trkpt lat="44.49603" lon="1.40109">
        <ele>236.7</ele>
        <time>2022-01-15T14:17:54Z</time>
      </trkpt>
      <trkpt lat="44.49604" lon="1.40112">
        <ele>236.7</ele>
        <time>2022-01-15T14:17:56Z</time>
      </trkpt>
      <trkpt lat="44.49605" lon="1.40114">
        <ele>236.7</ele>
        <time>2022-01-15T14:17:57Z</time>
      </trkpt>
      <trkpt lat="44.49606" lon="1.40115">
        <ele>236.7</ele>
        <time>2022-01-15T14:17:58Z</time>
      </trkpt>
      <trkpt lat="44.49607" lon="1.40116">
        <ele>236.7</ele>
        <time>2022-01-15T14:17:59Z</time>
      </trkpt>
      <trkpt lat="44.4961" lon="1.40118">
        <ele>236.8</ele>
        <time>2022-01-15T14:18:01Z</time>
      </trkpt>
      <trkpt lat="44.49611" lon="1.40118">
        <ele>236.9</ele>
        <time>2022-01-15T14:18:02Z</time>
      </trkpt>
      <trkpt lat="44.49612" lon="1.40118">
        <ele>236.9</ele>
        <time>2022-01-15T14:18:03Z</time>
      </trkpt>
      <trkpt lat="44.49613" lon="1.40118">
        <ele>236.9</ele>
        <time>2022-01-15T14:18:04Z</time>
      </trkpt>
      <trkpt lat="44.49615" lon="1.40119">
        <ele>237</ele>
        <time>2022-01-15T14:18:05Z</time>
      </trkpt>
      <trkpt lat="44.49616" lon="1.4012">
        <ele>237</ele>
        <time>2022-01-15T14:18:06Z</time>
      </trkpt>
      <trkpt lat="44.49619" lon="1.40122">
        <ele>237.1</ele>
        <time>2022-01-15T14:18:08Z</time>
      </trkpt>
      <trkpt lat="44.4962" lon="1.40122">
        <ele>237.1</ele>
        <time>2022-01-15T14:18:09Z</time>
      </trkpt>
      <trkpt lat="44.49622" lon="1.40125">
        <ele>237.3</ele>
        <time>2022-01-15T14:18:11Z</time>
      </trkpt>
      <trkpt lat="44.49623" lon="1.40126">
        <ele>237.4</ele>
        <time>2022-01-15T14:18:12Z</time>
      </trkpt>
      <trkpt lat="44.49624" lon="1.40127">
        <ele>237.4</ele>
        <time>2022-01-15T14:18:13Z</time>
      </trkpt>
      <trkpt lat="44.49625" lon="1.40128">
        <ele>237.5</ele>
        <time>2022-01-15T14:18:14Z</time>
      </trkpt>
      <trkpt lat="44.49629" lon="1.40129">
        <ele>237.6</ele>
        <time>2022-01-15T14:18:16Z</time>
      </trkpt>
      <trkpt lat="44.4963" lon="1.4013">
        <ele>237.8</ele>
        <time>2022-01-15T14:18:17Z</time>
      </trkpt>
      <trkpt lat="44.49631" lon="1.40131">
        <ele>237.8</ele>
        <time>2022-01-15T14:18:18Z</time>
      </trkpt>
      <trkpt lat="44.49633" lon="1.40134">
        <ele>238.1</ele>
        <time>2022-01-15T14:18:19Z</time>
      </trkpt>
      <trkpt lat="44.49634" lon="1.40135">
        <ele>238.1</ele>
        <time>2022-01-15T14:18:20Z</time>
      </trkpt>
      <trkpt lat="44.49635" lon="1.40138">
        <ele>238.4</ele>
        <time>2022-01-15T14:18:22Z</time>
      </trkpt>
      <trkpt lat="44.49636" lon="1.40139">
        <ele>238.4</ele>
        <time>2022-01-15T14:18:23Z</time>
      </trkpt>
      <trkpt lat="44.49638" lon="1.40142">
        <ele>238.4</ele>
        <time>2022-01-15T14:18:24Z</time>
      </trkpt>
      <trkpt lat="44.49639" lon="1.40143">
        <ele>238.7</ele>
        <time>2022-01-15T14:18:25Z</time>
      </trkpt>
      <trkpt lat="44.4964" lon="1.40145">
        <ele>238.8</ele>
        <time>2022-01-15T14:18:26Z</time>
      </trkpt>
      <trkpt lat="44.49641" lon="1.40146">
        <ele>238.8</ele>
        <time>2022-01-15T14:18:27Z</time>
      </trkpt>
      <trkpt lat="44.49642" lon="1.40147">
        <ele>239</ele>
        <time>2022-01-15T14:18:28Z</time>
      </trkpt>
      <trkpt lat="44.49643" lon="1.40148">
        <ele>239</ele>
        <time>2022-01-15T14:18:29Z</time>
      </trkpt>
      <trkpt lat="44.49644" lon="1.40149">
        <ele>239.1</ele>
        <time>2022-01-15T14:18:30Z</time>
      </trkpt>
      <trkpt lat="44.49645" lon="1.40151">
        <ele>239.4</ele>
        <time>2022-01-15T14:18:31Z</time>
      </trkpt>
      <trkpt lat="44.49647" lon="1.40152">
        <ele>239.4</ele>
        <time>2022-01-15T14:18:32Z</time>
      </trkpt>
      <trkpt lat="44.49648" lon="1.40153">
        <ele>239.6</ele>
        <time>2022-01-15T14:18:33Z</time>
      </trkpt>
      <trkpt lat="44.49649" lon="1.40154">
        <ele>239.7</ele>
        <time>2022-01-15T14:18:34Z</time>
      </trkpt>
      <trkpt lat="44.49651" lon="1.40157">
        <ele>240.2</ele>
        <time>2022-01-15T14:18:36Z</time>
      </trkpt>
      <trkpt lat="44.49653" lon="1.40159">
        <ele>240.2</ele>
        <time>2022-01-15T14:18:37Z</time>
      </trkpt>
      <trkpt lat="44.49654" lon="1.40161">
        <ele>240.4</ele>
        <time>2022-01-15T14:18:38Z</time>
      </trkpt>
      <trkpt lat="44.49657" lon="1.40163">
        <ele>240.5</ele>
        <time>2022-01-15T14:18:39Z</time>
      </trkpt>
      <trkpt lat="44.49658" lon="1.40163">
        <ele>240.9</ele>
        <time>2022-01-15T14:18:40Z</time>
      </trkpt>
      <trkpt lat="44.49659" lon="1.40165">
        <ele>240.9</ele>
        <time>2022-01-15T14:18:41Z</time>
      </trkpt>
      <trkpt lat="44.4966" lon="1.40166">
        <ele>241.3</ele>
        <time>2022-01-15T14:18:42Z</time>
      </trkpt>
      <trkpt lat="44.49663" lon="1.40168">
        <ele>241.9</ele>
        <time>2022-01-15T14:18:44Z</time>
      </trkpt>
      <trkpt lat="44.49664" lon="1.40168">
        <ele>241.9</ele>
        <time>2022-01-15T14:18:45Z</time>
      </trkpt>
      <trkpt lat="44.49666" lon="1.4017">
        <ele>242</ele>
        <time>2022-01-15T14:18:46Z</time>
      </trkpt>
      <trkpt lat="44.49667" lon="1.40173">
        <ele>242.5</ele>
        <time>2022-01-15T14:18:48Z</time>
      </trkpt>
      <trkpt lat="44.49667" lon="1.40175">
        <ele>242.7</ele>
        <time>2022-01-15T14:18:49Z</time>
      </trkpt>
      <trkpt lat="44.49666" lon="1.40177">
        <ele>242.2</ele>
        <time>2022-01-15T14:18:50Z</time>
      </trkpt>
      <trkpt lat="44.49663" lon="1.4018">
        <ele>242.4</ele>
        <time>2022-01-15T14:18:51Z</time>
      </trkpt>
      <trkpt lat="44.49663" lon="1.40181">
        <ele>241.9</ele>
        <time>2022-01-15T14:18:52Z</time>
      </trkpt>
      <trkpt lat="44.49662" lon="1.40185">
        <ele>242.1</ele>
        <time>2022-01-15T14:18:53Z</time>
      </trkpt>
      <trkpt lat="44.49661" lon="1.40187">
        <ele>242.2</ele>
        <time>2022-01-15T14:18:55Z</time>
      </trkpt>
      <trkpt lat="44.49657" lon="1.40191">
        <ele>241.7</ele>
        <time>2022-01-15T14:18:56Z</time>
      </trkpt>
      <trkpt lat="44.49656" lon="1.40192">
        <ele>241.3</ele>
        <time>2022-01-15T14:18:57Z</time>
      </trkpt>
      <trkpt lat="44.49653" lon="1.40194">
        <ele>240.7</ele>
        <time>2022-01-15T14:18:58Z</time>
      </trkpt>
      <trkpt lat="44.49649" lon="1.40198">
        <ele>239.9</ele>
        <time>2022-01-15T14:18:59Z</time>
      </trkpt>
      <trkpt lat="44.49647" lon="1.40202">
        <ele>239.2</ele>
        <time>2022-01-15T14:19:01Z</time>
      </trkpt>
      <trkpt lat="44.49647" lon="1.40204">
        <ele>239.2</ele>
        <time>2022-01-15T14:19:02Z</time>
      </trkpt>
      <trkpt lat="44.49647" lon="1.40207">
        <ele>239.1</ele>
        <time>2022-01-15T14:19:03Z</time>
      </trkpt>
      <trkpt lat="44.49647" lon="1.40208">
        <ele>239.1</ele>
        <time>2022-01-15T14:19:04Z</time>
      </trkpt>
      <trkpt lat="44.49647" lon="1.40209">
        <ele>239.1</ele>
        <time>2022-01-15T14:19:05Z</time>
      </trkpt>
      <trkpt lat="44.49648" lon="1.40211">
        <ele>239.8</ele>
        <time>2022-01-15T14:19:07Z</time>
      </trkpt>
      <trkpt lat="44.49648" lon="1.40214">
        <ele>239.7</ele>
        <time>2022-01-15T14:19:08Z</time>
      </trkpt>
      <trkpt lat="44.4965" lon="1.40216">
        <ele>239.7</ele>
        <time>2022-01-15T14:19:09Z</time>
      </trkpt>
      <trkpt lat="44.49652" lon="1.40218">
        <ele>240.7</ele>
        <time>2022-01-15T14:19:10Z</time>
      </trkpt>
      <trkpt lat="44.49653" lon="1.40219">
        <ele>240.7</ele>
        <time>2022-01-15T14:19:11Z</time>
      </trkpt>
      <trkpt lat="44.49654" lon="1.40222">
        <ele>241.3</ele>
        <time>2022-01-15T14:19:13Z</time>
      </trkpt>
      <trkpt lat="44.49655" lon="1.40224">
        <ele>241.3</ele>
        <time>2022-01-15T14:19:14Z</time>
      </trkpt>
      <trkpt lat="44.49656" lon="1.40225">
        <ele>241.3</ele>
        <time>2022-01-15T14:19:15Z</time>
      </trkpt>
      <trkpt lat="44.49658" lon="1.40224">
        <ele>242</ele>
        <time>2022-01-15T14:19:16Z</time>
      </trkpt>
      <trkpt lat="44.4966" lon="1.40221">
        <ele>242.7</ele>
        <time>2022-01-15T14:19:17Z</time>
      </trkpt>
      <trkpt lat="44.49661" lon="1.4022">
        <ele>242.7</ele>
        <time>2022-01-15T14:19:18Z</time>
      </trkpt>
      <trkpt lat="44.49663" lon="1.40218">
        <ele>243.4</ele>
        <time>2022-01-15T14:19:19Z</time>
      </trkpt>
      <trkpt lat="44.49664" lon="1.40216">
        <ele>243.4</ele>
        <time>2022-01-15T14:19:21Z</time>
      </trkpt>
      <trkpt lat="44.49666" lon="1.40216">
        <ele>243.4</ele>
        <time>2022-01-15T14:19:22Z</time>
      </trkpt>
      <trkpt lat="44.49667" lon="1.40217">
        <ele>244</ele>
        <time>2022-01-15T14:19:23Z</time>
      </trkpt>
      <trkpt lat="44.49669" lon="1.40218">
        <ele>244.1</ele>
        <time>2022-01-15T14:19:24Z</time>
      </trkpt>
      <trkpt lat="44.49669" lon="1.4022">
        <ele>244.7</ele>
        <time>2022-01-15T14:19:25Z</time>
      </trkpt>
      <trkpt lat="44.4967" lon="1.40221">
        <ele>244.7</ele>
        <time>2022-01-15T14:19:26Z</time>
      </trkpt>
      <trkpt lat="44.4967" lon="1.40224">
        <ele>244.7</ele>
        <time>2022-01-15T14:19:27Z</time>
      </trkpt>
      <trkpt lat="44.4967" lon="1.40226">
        <ele>244.8</ele>
        <time>2022-01-15T14:19:29Z</time>
      </trkpt>
      <trkpt lat="44.4967" lon="1.40228">
        <ele>244.8</ele>
        <time>2022-01-15T14:19:30Z</time>
      </trkpt>
      <trkpt lat="44.4967" lon="1.40229">
        <ele>244.8</ele>
        <time>2022-01-15T14:19:31Z</time>
      </trkpt>
      <trkpt lat="44.4967" lon="1.40232">
        <ele>244.8</ele>
        <time>2022-01-15T14:19:32Z</time>
      </trkpt>
      <trkpt lat="44.4967" lon="1.40234">
        <ele>244.8</ele>
        <time>2022-01-15T14:19:33Z</time>
      </trkpt>
      <trkpt lat="44.49671" lon="1.40237">
        <ele>244.9</ele>
        <time>2022-01-15T14:19:35Z</time>
      </trkpt>
      <trkpt lat="44.4967" lon="1.40241">
        <ele>244.9</ele>
        <time>2022-01-15T14:19:36Z</time>
      </trkpt>
      <trkpt lat="44.4967" lon="1.40247">
        <ele>244.9</ele>
        <time>2022-01-15T14:19:38Z</time>
      </trkpt>
      <trkpt lat="44.49672" lon="1.40252">
        <ele>244.9</ele>
        <time>2022-01-15T14:19:39Z</time>
      </trkpt>
      <trkpt lat="44.49673" lon="1.40253">
        <ele>245.7</ele>
        <time>2022-01-15T14:19:40Z</time>
      </trkpt>
      <trkpt lat="44.49675" lon="1.40256">
        <ele>246.4</ele>
        <time>2022-01-15T14:19:41Z</time>
      </trkpt>
      <trkpt lat="44.49676" lon="1.40256">
        <ele>246.4</ele>
        <time>2022-01-15T14:19:42Z</time>
      </trkpt>
      <trkpt lat="44.49678" lon="1.4026">
        <ele>247.1</ele>
        <time>2022-01-15T14:19:43Z</time>
      </trkpt>
      <trkpt lat="44.49679" lon="1.40261">
        <ele>247.1</ele>
        <time>2022-01-15T14:19:44Z</time>
      </trkpt>
      <trkpt lat="44.49679" lon="1.40264">
        <ele>247.1</ele>
        <time>2022-01-15T14:19:45Z</time>
      </trkpt>
      <trkpt lat="44.4968" lon="1.40268">
        <ele>247.1</ele>
        <time>2022-01-15T14:19:47Z</time>
      </trkpt>
      <trkpt lat="44.49681" lon="1.40271">
        <ele>247.7</ele>
        <time>2022-01-15T14:19:48Z</time>
      </trkpt>
      <trkpt lat="44.49684" lon="1.40275">
        <ele>247.6</ele>
        <time>2022-01-15T14:19:49Z</time>
      </trkpt>
      <trkpt lat="44.49685" lon="1.40276">
        <ele>248.3</ele>
        <time>2022-01-15T14:19:50Z</time>
      </trkpt>
      <trkpt lat="44.49688" lon="1.40281">
        <ele>249</ele>
        <time>2022-01-15T14:19:52Z</time>
      </trkpt>
      <trkpt lat="44.49689" lon="1.40282">
        <ele>248.9</ele>
        <time>2022-01-15T14:19:53Z</time>
      </trkpt>
      <trkpt lat="44.49689" lon="1.40284">
        <ele>248.9</ele>
        <time>2022-01-15T14:19:54Z</time>
      </trkpt>
      <trkpt lat="44.49691" lon="1.40287">
        <ele>249.6</ele>
        <time>2022-01-15T14:19:55Z</time>
      </trkpt>
      <trkpt lat="44.49692" lon="1.40288">
        <ele>249.6</ele>
        <time>2022-01-15T14:19:56Z</time>
      </trkpt>
      <trkpt lat="44.49694" lon="1.40291">
        <ele>250.3</ele>
        <time>2022-01-15T14:19:57Z</time>
      </trkpt>
      <trkpt lat="44.49696" lon="1.40294">
        <ele>250.3</ele>
        <time>2022-01-15T14:19:59Z</time>
      </trkpt>
      <trkpt lat="44.49697" lon="1.40296">
        <ele>251</ele>
        <time>2022-01-15T14:20:00Z</time>
      </trkpt>
      <trkpt lat="44.49698" lon="1.40298">
        <ele>251</ele>
        <time>2022-01-15T14:20:01Z</time>
      </trkpt>
      <trkpt lat="44.49699" lon="1.40299">
        <ele>251</ele>
        <time>2022-01-15T14:20:02Z</time>
      </trkpt>
      <trkpt lat="44.497" lon="1.40299">
        <ele>251.7</ele>
        <time>2022-01-15T14:20:03Z</time>
      </trkpt>
      <trkpt lat="44.49699" lon="1.40298">
        <ele>251</ele>
        <time>2022-01-15T14:20:04Z</time>
      </trkpt>
      <trkpt lat="44.49697" lon="1.40297">
        <ele>251</ele>
        <time>2022-01-15T14:20:06Z</time>
      </trkpt>
      <trkpt lat="44.49697" lon="1.40297">
        <ele>251</ele>
        <time>2022-01-15T14:20:07Z</time>
      </trkpt>
      <trkpt lat="44.49696" lon="1.40297">
        <ele>250.2</ele>
        <time>2022-01-15T14:20:08Z</time>
      </trkpt>
      <trkpt lat="44.49696" lon="1.40298">
        <ele>250.2</ele>
        <time>2022-01-15T14:20:09Z</time>
      </trkpt>
      <trkpt lat="44.49696" lon="1.40298">
        <ele>250.2</ele>
        <time>2022-01-15T14:20:10Z</time>
      </trkpt>
      <trkpt lat="44.49696" lon="1.40298">
        <ele>250.2</ele>
        <time>2022-01-15T14:20:11Z</time>
      </trkpt>
      <trkpt lat="44.49697" lon="1.40298">
        <ele>251</ele>
        <time>2022-01-15T14:20:13Z</time>
      </trkpt>
      <trkpt lat="44.49697" lon="1.40298">
        <ele>251</ele>
        <time>2022-01-15T14:20:14Z</time>
      </trkpt>
      <trkpt lat="44.49698" lon="1.40299">
        <ele>251</ele>
        <time>2022-01-15T14:20:15Z</time>
      </trkpt>
      <trkpt lat="44.49698" lon="1.40299">
        <ele>251</ele>
        <time>2022-01-15T14:20:16Z</time>
      </trkpt>
      <trkpt lat="44.49698" lon="1.40299">
        <ele>251</ele>
        <time>2022-01-15T14:20:18Z</time>
      </trkpt>
      <trkpt lat="44.49698" lon="1.40299">
        <ele>251</ele>
        <time>2022-01-15T14:20:19Z</time>
      </trkpt>
      <trkpt lat="44.49698" lon="1.40299">
        <ele>251</ele>
        <time>2022-01-15T14:20:20Z</time>
      </trkpt>
      <trkpt lat="44.49699" lon="1.40301">
        <ele>250.9</ele>
        <time>2022-01-15T14:20:27Z</time>
      </trkpt>
      <trkpt lat="44.497" lon="1.40301">
        <ele>251.7</ele>
        <time>2022-01-15T14:20:28Z</time>
      </trkpt>
      <trkpt lat="44.49701" lon="1.40301">
        <ele>251.7</ele>
        <time>2022-01-15T14:20:29Z</time>
      </trkpt>
      <trkpt lat="44.49703" lon="1.403">
        <ele>251.7</ele>
        <time>2022-01-15T14:20:31Z</time>
      </trkpt>
      <trkpt lat="44.49703" lon="1.40299">
        <ele>252.4</ele>
        <time>2022-01-15T14:20:32Z</time>
      </trkpt>
      <trkpt lat="44.49703" lon="1.40296">
        <ele>252.4</ele>
        <time>2022-01-15T14:20:33Z</time>
      </trkpt>
      <trkpt lat="44.49703" lon="1.40294">
        <ele>252.5</ele>
        <time>2022-01-15T14:20:34Z</time>
      </trkpt>
      <trkpt lat="44.49704" lon="1.40293">
        <ele>252.5</ele>
        <time>2022-01-15T14:20:35Z</time>
      </trkpt>
      <trkpt lat="44.49705" lon="1.40292">
        <ele>252.5</ele>
        <time>2022-01-15T14:20:36Z</time>
      </trkpt>
      <trkpt lat="44.49706" lon="1.40292">
        <ele>253.1</ele>
        <time>2022-01-15T14:20:38Z</time>
      </trkpt>
      <trkpt lat="44.49707" lon="1.40293">
        <ele>253.1</ele>
        <time>2022-01-15T14:20:39Z</time>
      </trkpt>
      <trkpt lat="44.49707" lon="1.40294">
        <ele>253.1</ele>
        <time>2022-01-15T14:20:40Z</time>
      </trkpt>
      <trkpt lat="44.49706" lon="1.40294">
        <ele>253.1</ele>
        <time>2022-01-15T14:20:41Z</time>
      </trkpt>
      <trkpt lat="44.49706" lon="1.40294">
        <ele>253.1</ele>
        <time>2022-01-15T14:20:43Z</time>
      </trkpt>
      <trkpt lat="44.49706" lon="1.40294">
        <ele>253.1</ele>
        <time>2022-01-15T14:20:44Z</time>
      </trkpt>
      <trkpt lat="44.49706" lon="1.40294">
        <ele>253.1</ele>
        <time>2022-01-15T14:20:45Z</time>
      </trkpt>
      <trkpt lat="44.49706" lon="1.40294">
        <ele>253.1</ele>
        <time>2022-01-15T14:20:46Z</time>
      </trkpt>
      <trkpt lat="44.49706" lon="1.40293">
        <ele>253.1</ele>
        <time>2022-01-15T14:20:47Z</time>
      </trkpt>
      <trkpt lat="44.49706" lon="1.40293">
        <ele>253.1</ele>
        <time>2022-01-15T14:20:48Z</time>
      </trkpt>
      <trkpt lat="44.49706" lon="1.40292">
        <ele>253.1</ele>
        <time>2022-01-15T14:20:49Z</time>
      </trkpt>
      <trkpt lat="44.49706" lon="1.40292">
        <ele>253.1</ele>
        <time>2022-01-15T14:20:50Z</time>
      </trkpt>
      <trkpt lat="44.49706" lon="1.40292">
        <ele>253.1</ele>
        <time>2022-01-15T14:20:51Z</time>
      </trkpt>
      <trkpt lat="44.49707" lon="1.40292">
        <ele>253.1</ele>
        <time>2022-01-15T14:20:53Z</time>
      </trkpt>
      <trkpt lat="44.49707" lon="1.40292">
        <ele>253.1</ele>
        <time>2022-01-15T14:20:54Z</time>
      </trkpt>
      <trkpt lat="44.49707" lon="1.40292">
        <ele>253.1</ele>
        <time>2022-01-15T14:20:55Z</time>
      </trkpt>
      <trkpt lat="44.49707" lon="1.40292">
        <ele>253.1</ele>
        <time>2022-01-15T14:20:56Z</time>
      </trkpt>
      <trkpt lat="44.49706" lon="1.40296">
        <ele>253.1</ele>
        <time>2022-01-15T14:22:24Z</time>
      </trkpt>
      <trkpt lat="44.49706" lon="1.40299">
        <ele>253.1</ele>
        <time>2022-01-15T14:22:25Z</time>
      </trkpt>
      <trkpt lat="44.49707" lon="1.40301">
        <ele>253</ele>
        <time>2022-01-15T14:22:26Z</time>
      </trkpt>
      <trkpt lat="44.49708" lon="1.40303">
        <ele>253</ele>
        <time>2022-01-15T14:22:27Z</time>
      </trkpt>
      <trkpt lat="44.49709" lon="1.40304">
        <ele>253</ele>
        <time>2022-01-15T14:22:28Z</time>
      </trkpt>
      <trkpt lat="44.49709" lon="1.40304">
        <ele>253.6</ele>
        <time>2022-01-15T14:22:29Z</time>
      </trkpt>
      <trkpt lat="44.4971" lon="1.40307">
        <ele>253.6</ele>
        <time>2022-01-15T14:22:30Z</time>
      </trkpt>
      <trkpt lat="44.49712" lon="1.40311">
        <ele>253.6</ele>
        <time>2022-01-15T14:22:31Z</time>
      </trkpt>
      <trkpt lat="44.49712" lon="1.40313">
        <ele>254.1</ele>
        <time>2022-01-15T14:22:32Z</time>
      </trkpt>
      <trkpt lat="44.49714" lon="1.40316">
        <ele>254.1</ele>
        <time>2022-01-15T14:22:33Z</time>
      </trkpt>
      <trkpt lat="44.49716" lon="1.40318">
        <ele>254.8</ele>
        <time>2022-01-15T14:22:34Z</time>
      </trkpt>
      <trkpt lat="44.49718" lon="1.4032">
        <ele>254.8</ele>
        <time>2022-01-15T14:22:35Z</time>
      </trkpt>
      <trkpt lat="44.49719" lon="1.40322">
        <ele>255.5</ele>
        <time>2022-01-15T14:22:37Z</time>
      </trkpt>
      <trkpt lat="44.4972" lon="1.40322">
        <ele>255.5</ele>
        <time>2022-01-15T14:22:38Z</time>
      </trkpt>
      <trkpt lat="44.49721" lon="1.40322">
        <ele>255.5</ele>
        <time>2022-01-15T14:22:39Z</time>
      </trkpt>
      <trkpt lat="44.49721" lon="1.40323">
        <ele>255.5</ele>
        <time>2022-01-15T14:22:40Z</time>
      </trkpt>
      <trkpt lat="44.49721" lon="1.40323">
        <ele>256.2</ele>
        <time>2022-01-15T14:22:41Z</time>
      </trkpt>
      <trkpt lat="44.49722" lon="1.40324">
        <ele>256.2</ele>
        <time>2022-01-15T14:22:42Z</time>
      </trkpt>
      <trkpt lat="44.49722" lon="1.40324">
        <ele>256.2</ele>
        <time>2022-01-15T14:22:44Z</time>
      </trkpt>
      <trkpt lat="44.49722" lon="1.40324">
        <ele>256.2</ele>
        <time>2022-01-15T14:22:45Z</time>
      </trkpt>
      <trkpt lat="44.49722" lon="1.40325">
        <ele>256.3</ele>
        <time>2022-01-15T14:22:46Z</time>
      </trkpt>
      <trkpt lat="44.49723" lon="1.40325">
        <ele>256.3</ele>
        <time>2022-01-15T14:22:48Z</time>
      </trkpt>
      <trkpt lat="44.49723" lon="1.40326">
        <ele>256.3</ele>
        <time>2022-01-15T14:22:49Z</time>
      </trkpt>
      <trkpt lat="44.49723" lon="1.40326">
        <ele>256.3</ele>
        <time>2022-01-15T14:22:50Z</time>
      </trkpt>
      <trkpt lat="44.49724" lon="1.40327">
        <ele>256.3</ele>
        <time>2022-01-15T14:22:51Z</time>
      </trkpt>
      <trkpt lat="44.49724" lon="1.40327">
        <ele>256.3</ele>
        <time>2022-01-15T14:22:52Z</time>
      </trkpt>
      <trkpt lat="44.49724" lon="1.40327">
        <ele>257</ele>
        <time>2022-01-15T14:22:53Z</time>
      </trkpt>
      <trkpt lat="44.49725" lon="1.40328">
        <ele>257</ele>
        <time>2022-01-15T14:22:54Z</time>
      </trkpt>
      <trkpt lat="44.49725" lon="1.40328">
        <ele>257</ele>
        <time>2022-01-15T14:22:55Z</time>
      </trkpt>
      <trkpt lat="44.49725" lon="1.40329">
        <ele>257</ele>
        <time>2022-01-15T14:22:58Z</time>
      </trkpt>
      <trkpt lat="44.49726" lon="1.40329">
        <ele>257</ele>
        <time>2022-01-15T14:22:59Z</time>
      </trkpt>
      <trkpt lat="44.49726" lon="1.4033">
        <ele>257</ele>
        <time>2022-01-15T14:23:00Z</time>
      </trkpt>
      <trkpt lat="44.49726" lon="1.4033">
        <ele>257</ele>
        <time>2022-01-15T14:23:01Z</time>
      </trkpt>
      <trkpt lat="44.49728" lon="1.40334">
        <ele>257.8</ele>
        <time>2022-01-15T14:23:03Z</time>
      </trkpt>
      <trkpt lat="44.49729" lon="1.40335">
        <ele>257.8</ele>
        <time>2022-01-15T14:23:04Z</time>
      </trkpt>
      <trkpt lat="44.49731" lon="1.40338">
        <ele>258.5</ele>
        <time>2022-01-15T14:23:05Z</time>
      </trkpt>
      <trkpt lat="44.49732" lon="1.40339">
        <ele>258.5</ele>
        <time>2022-01-15T14:23:06Z</time>
      </trkpt>
      <trkpt lat="44.49734" lon="1.40341">
        <ele>259</ele>
        <time>2022-01-15T14:23:07Z</time>
      </trkpt>
      <trkpt lat="44.49735" lon="1.40342">
        <ele>259.1</ele>
        <time>2022-01-15T14:23:08Z</time>
      </trkpt>
      <trkpt lat="44.49736" lon="1.40344">
        <ele>259.1</ele>
        <time>2022-01-15T14:23:09Z</time>
      </trkpt>
      <trkpt lat="44.49738" lon="1.40346">
        <ele>259.6</ele>
        <time>2022-01-15T14:23:11Z</time>
      </trkpt>
      <trkpt lat="44.49739" lon="1.40348">
        <ele>259.6</ele>
        <time>2022-01-15T14:23:12Z</time>
      </trkpt>
      <trkpt lat="44.4974" lon="1.40351">
        <ele>260.1</ele>
        <time>2022-01-15T14:23:14Z</time>
      </trkpt>
      <trkpt lat="44.49741" lon="1.40352">
        <ele>260.1</ele>
        <time>2022-01-15T14:23:15Z</time>
      </trkpt>
      <trkpt lat="44.49741" lon="1.40353">
        <ele>260.1</ele>
        <time>2022-01-15T14:23:16Z</time>
      </trkpt>
      <trkpt lat="44.49742" lon="1.40354">
        <ele>260.1</ele>
        <time>2022-01-15T14:23:18Z</time>
      </trkpt>
      <trkpt lat="44.49742" lon="1.40353">
        <ele>260.1</ele>
        <time>2022-01-15T14:23:19Z</time>
      </trkpt>
      <trkpt lat="44.49742" lon="1.40353">
        <ele>260.1</ele>
        <time>2022-01-15T14:23:20Z</time>
      </trkpt>
      <trkpt lat="44.49742" lon="1.40352">
        <ele>260.1</ele>
        <time>2022-01-15T14:23:21Z</time>
      </trkpt>
      <trkpt lat="44.49741" lon="1.40351">
        <ele>260.1</ele>
        <time>2022-01-15T14:23:23Z</time>
      </trkpt>
      <trkpt lat="44.49741" lon="1.4035">
        <ele>260.1</ele>
        <time>2022-01-15T14:23:24Z</time>
      </trkpt>
      <trkpt lat="44.49741" lon="1.4035">
        <ele>260.1</ele>
        <time>2022-01-15T14:23:25Z</time>
      </trkpt>
      <trkpt lat="44.4974" lon="1.4035">
        <ele>260.1</ele>
        <time>2022-01-15T14:23:26Z</time>
      </trkpt>
      <trkpt lat="44.4974" lon="1.40349">
        <ele>260.1</ele>
        <time>2022-01-15T14:23:28Z</time>
      </trkpt>
      <trkpt lat="44.4974" lon="1.40349">
        <ele>260.1</ele>
        <time>2022-01-15T14:23:29Z</time>
      </trkpt>
      <trkpt lat="44.4974" lon="1.40349">
        <ele>260.1</ele>
        <time>2022-01-15T14:23:31Z</time>
      </trkpt>
      <trkpt lat="44.49737" lon="1.40343">
        <ele>259.6</ele>
        <time>2022-01-15T14:24:31Z</time>
      </trkpt>
      <trkpt lat="44.49737" lon="1.40343">
        <ele>259.6</ele>
        <time>2022-01-15T14:24:32Z</time>
      </trkpt>
      <trkpt lat="44.49736" lon="1.40342">
        <ele>259.6</ele>
        <time>2022-01-15T14:24:33Z</time>
      </trkpt>
      <trkpt lat="44.49736" lon="1.40342">
        <ele>259.1</ele>
        <time>2022-01-15T14:24:34Z</time>
      </trkpt>
      <trkpt lat="44.49736" lon="1.40342">
        <ele>259.1</ele>
        <time>2022-01-15T14:24:35Z</time>
      </trkpt>
      <trkpt lat="44.49736" lon="1.40342">
        <ele>259.1</ele>
        <time>2022-01-15T14:24:36Z</time>
      </trkpt>
      <trkpt lat="44.49736" lon="1.40342">
        <ele>259.1</ele>
        <time>2022-01-15T14:24:37Z</time>
      </trkpt>
      <trkpt lat="44.49736" lon="1.40342">
        <ele>259.1</ele>
        <time>2022-01-15T14:24:38Z</time>
      </trkpt>
      <trkpt lat="44.49736" lon="1.40342">
        <ele>259</ele>
        <time>2022-01-15T14:24:39Z</time>
      </trkpt>
      <trkpt lat="44.49736" lon="1.40341">
        <ele>259</ele>
        <time>2022-01-15T14:24:40Z</time>
      </trkpt>
      <trkpt lat="44.49735" lon="1.4034">
        <ele>259</ele>
        <time>2022-01-15T14:24:41Z</time>
      </trkpt>
      <trkpt lat="44.49735" lon="1.40339">
        <ele>259</ele>
        <time>2022-01-15T14:24:42Z</time>
      </trkpt>
      <trkpt lat="44.49736" lon="1.40337">
        <ele>259</ele>
        <time>2022-01-15T14:24:44Z</time>
      </trkpt>
      <trkpt lat="44.49737" lon="1.40335">
        <ele>259.5</ele>
        <time>2022-01-15T14:24:46Z</time>
      </trkpt>
      <trkpt lat="44.49738" lon="1.40335">
        <ele>259.5</ele>
        <time>2022-01-15T14:24:47Z</time>
      </trkpt>
      <trkpt lat="44.49738" lon="1.40336">
        <ele>259.5</ele>
        <time>2022-01-15T14:24:48Z</time>
      </trkpt>
      <trkpt lat="44.49739" lon="1.40336">
        <ele>259.5</ele>
        <time>2022-01-15T14:24:49Z</time>
      </trkpt>
      <trkpt lat="44.49739" lon="1.40337">
        <ele>259.5</ele>
        <time>2022-01-15T14:24:51Z</time>
      </trkpt>
      <trkpt lat="44.4974" lon="1.40338">
        <ele>260.1</ele>
        <time>2022-01-15T14:24:52Z</time>
      </trkpt>
      <trkpt lat="44.4974" lon="1.40338">
        <ele>260.1</ele>
        <time>2022-01-15T14:24:53Z</time>
      </trkpt>
      <trkpt lat="44.49741" lon="1.40339">
        <ele>260.1</ele>
        <time>2022-01-15T14:24:54Z</time>
      </trkpt>
      <trkpt lat="44.49741" lon="1.40339">
        <ele>260.1</ele>
        <time>2022-01-15T14:24:55Z</time>
      </trkpt>
      <trkpt lat="44.49742" lon="1.4034">
        <ele>260.1</ele>
        <time>2022-01-15T14:24:56Z</time>
      </trkpt>
      <trkpt lat="44.49742" lon="1.4034">
        <ele>260.1</ele>
        <time>2022-01-15T14:24:57Z</time>
      </trkpt>
      <trkpt lat="44.49743" lon="1.40341">
        <ele>260.6</ele>
        <time>2022-01-15T14:24:58Z</time>
      </trkpt>
      <trkpt lat="44.49743" lon="1.40341">
        <ele>260.6</ele>
        <time>2022-01-15T14:24:59Z</time>
      </trkpt>
      <trkpt lat="44.49743" lon="1.40342">
        <ele>260.6</ele>
        <time>2022-01-15T14:25:00Z</time>
      </trkpt>
      <trkpt lat="44.49744" lon="1.40343">
        <ele>260.6</ele>
        <time>2022-01-15T14:25:01Z</time>
      </trkpt>
      <trkpt lat="44.49744" lon="1.40343">
        <ele>260.6</ele>
        <time>2022-01-15T14:25:02Z</time>
      </trkpt>
      <trkpt lat="44.49745" lon="1.40344">
        <ele>260.6</ele>
        <time>2022-01-15T14:25:11Z</time>
      </trkpt>
      <trkpt lat="44.49745" lon="1.40344">
        <ele>260.6</ele>
        <time>2022-01-15T14:25:12Z</time>
      </trkpt>
      <trkpt lat="44.49746" lon="1.40345">
        <ele>261.2</ele>
        <time>2022-01-15T14:25:13Z</time>
      </trkpt>
      <trkpt lat="44.49746" lon="1.40345">
        <ele>261.2</ele>
        <time>2022-01-15T14:25:14Z</time>
      </trkpt>
      <trkpt lat="44.49745" lon="1.4035">
        <ele>260.7</ele>
        <time>2022-01-15T14:25:16Z</time>
      </trkpt>
      <trkpt lat="44.49744" lon="1.40354">
        <ele>260.7</ele>
        <time>2022-01-15T14:25:17Z</time>
      </trkpt>
      <trkpt lat="44.49743" lon="1.40361">
        <ele>260.7</ele>
        <time>2022-01-15T14:25:18Z</time>
      </trkpt>
      <trkpt lat="44.49741" lon="1.4037">
        <ele>259.9</ele>
        <time>2022-01-15T14:25:19Z</time>
      </trkpt>
      <trkpt lat="44.4974" lon="1.40377">
        <ele>259.7</ele>
        <time>2022-01-15T14:25:20Z</time>
      </trkpt>
      <trkpt lat="44.49739" lon="1.40386">
        <ele>258.8</ele>
        <time>2022-01-15T14:25:21Z</time>
      </trkpt>
      <trkpt lat="44.49737" lon="1.40398">
        <ele>258.3</ele>
        <time>2022-01-15T14:25:22Z</time>
      </trkpt>
      <trkpt lat="44.49738" lon="1.40407">
        <ele>258</ele>
        <time>2022-01-15T14:25:24Z</time>
      </trkpt>
      <trkpt lat="44.49741" lon="1.40413">
        <ele>258.4</ele>
        <time>2022-01-15T14:25:25Z</time>
      </trkpt>
      <trkpt lat="44.49743" lon="1.40418">
        <ele>258.9</ele>
        <time>2022-01-15T14:25:26Z</time>
      </trkpt>
      <trkpt lat="44.49743" lon="1.40422">
        <ele>258.6</ele>
        <time>2022-01-15T14:25:27Z</time>
      </trkpt>
      <trkpt lat="44.49742" lon="1.40425">
        <ele>257.6</ele>
        <time>2022-01-15T14:25:28Z</time>
      </trkpt>
      <trkpt lat="44.49743" lon="1.40427">
        <ele>258.3</ele>
        <time>2022-01-15T14:25:29Z</time>
      </trkpt>
      <trkpt lat="44.49744" lon="1.40429">
        <ele>258</ele>
        <time>2022-01-15T14:25:30Z</time>
      </trkpt>
      <trkpt lat="44.49747" lon="1.40433">
        <ele>258.3</ele>
        <time>2022-01-15T14:25:32Z</time>
      </trkpt>
      <trkpt lat="44.49747" lon="1.40436">
        <ele>258.3</ele>
        <time>2022-01-15T14:25:33Z</time>
      </trkpt>
      <trkpt lat="44.49748" lon="1.40437">
        <ele>258</ele>
        <time>2022-01-15T14:25:34Z</time>
      </trkpt>
      <trkpt lat="44.49748" lon="1.40438">
        <ele>258</ele>
        <time>2022-01-15T14:25:35Z</time>
      </trkpt>
      <trkpt lat="44.49751" lon="1.40441">
        <ele>258.3</ele>
        <time>2022-01-15T14:25:37Z</time>
      </trkpt>
      <trkpt lat="44.49751" lon="1.40441">
        <ele>258.3</ele>
        <time>2022-01-15T14:25:38Z</time>
      </trkpt>
      <trkpt lat="44.49752" lon="1.40442">
        <ele>258.9</ele>
        <time>2022-01-15T14:25:39Z</time>
      </trkpt>
      <trkpt lat="44.49752" lon="1.40443">
        <ele>258.9</ele>
        <time>2022-01-15T14:25:40Z</time>
      </trkpt>
      <trkpt lat="44.49752" lon="1.40443">
        <ele>258.9</ele>
        <time>2022-01-15T14:25:41Z</time>
      </trkpt>
      <trkpt lat="44.49752" lon="1.40442">
        <ele>258.9</ele>
        <time>2022-01-15T14:25:42Z</time>
      </trkpt>
      <trkpt lat="44.49753" lon="1.40441">
        <ele>258.9</ele>
        <time>2022-01-15T14:25:44Z</time>
      </trkpt>
      <trkpt lat="44.49753" lon="1.40441">
        <ele>258.9</ele>
        <time>2022-01-15T14:25:45Z</time>
      </trkpt>
      <trkpt lat="44.49752" lon="1.4044">
        <ele>259.3</ele>
        <time>2022-01-15T14:25:46Z</time>
      </trkpt>
      <trkpt lat="44.49752" lon="1.4044">
        <ele>259.3</ele>
        <time>2022-01-15T14:25:47Z</time>
      </trkpt>
      <trkpt lat="44.49752" lon="1.40441">
        <ele>258.9</ele>
        <time>2022-01-15T14:25:48Z</time>
      </trkpt>
      <trkpt lat="44.49753" lon="1.40442">
        <ele>258.9</ele>
        <time>2022-01-15T14:25:49Z</time>
      </trkpt>
      <trkpt lat="44.49754" lon="1.40444">
        <ele>258.9</ele>
        <time>2022-01-15T14:25:50Z</time>
      </trkpt>
      <trkpt lat="44.49755" lon="1.40448">
        <ele>259</ele>
        <time>2022-01-15T14:25:52Z</time>
      </trkpt>
      <trkpt lat="44.49755" lon="1.4045">
        <ele>258.6</ele>
        <time>2022-01-15T14:25:53Z</time>
      </trkpt>
      <trkpt lat="44.49755" lon="1.40454">
        <ele>258.2</ele>
        <time>2022-01-15T14:25:54Z</time>
      </trkpt>
      <trkpt lat="44.49755" lon="1.40456">
        <ele>258.2</ele>
        <time>2022-01-15T14:25:55Z</time>
      </trkpt>
      <trkpt lat="44.49755" lon="1.40461">
        <ele>257.1</ele>
        <time>2022-01-15T14:25:56Z</time>
      </trkpt>
      <trkpt lat="44.49755" lon="1.40469">
        <ele>256.5</ele>
        <time>2022-01-15T14:25:57Z</time>
      </trkpt>
      <trkpt lat="44.49755" lon="1.40473">
        <ele>255.9</ele>
        <time>2022-01-15T14:25:59Z</time>
      </trkpt>
      <trkpt lat="44.49757" lon="1.40476">
        <ele>255.2</ele>
        <time>2022-01-15T14:26:00Z</time>
      </trkpt>
      <trkpt lat="44.49759" lon="1.40479">
        <ele>255.7</ele>
        <time>2022-01-15T14:26:01Z</time>
      </trkpt>
      <trkpt lat="44.4976" lon="1.4048">
        <ele>255</ele>
        <time>2022-01-15T14:26:02Z</time>
      </trkpt>
      <trkpt lat="44.49762" lon="1.40483">
        <ele>255.5</ele>
        <time>2022-01-15T14:26:04Z</time>
      </trkpt>
      <trkpt lat="44.49762" lon="1.40484">
        <ele>254.8</ele>
        <time>2022-01-15T14:26:05Z</time>
      </trkpt>
      <trkpt lat="44.49763" lon="1.40485">
        <ele>254.8</ele>
        <time>2022-01-15T14:26:06Z</time>
      </trkpt>
      <trkpt lat="44.49764" lon="1.40485">
        <ele>255.2</ele>
        <time>2022-01-15T14:26:07Z</time>
      </trkpt>
      <trkpt lat="44.49763" lon="1.40487">
        <ele>254.8</ele>
        <time>2022-01-15T14:26:08Z</time>
      </trkpt>
      <trkpt lat="44.49761" lon="1.40491">
        <ele>254</ele>
        <time>2022-01-15T14:26:10Z</time>
      </trkpt>
      <trkpt lat="44.4976" lon="1.40492">
        <ele>252.9</ele>
        <time>2022-01-15T14:26:11Z</time>
      </trkpt>
      <trkpt lat="44.49761" lon="1.40498">
        <ele>252.4</ele>
        <time>2022-01-15T14:26:12Z</time>
      </trkpt>
      <trkpt lat="44.49762" lon="1.40501">
        <ele>251.5</ele>
        <time>2022-01-15T14:26:13Z</time>
      </trkpt>
      <trkpt lat="44.49765" lon="1.40506">
        <ele>250.9</ele>
        <time>2022-01-15T14:26:15Z</time>
      </trkpt>
      <trkpt lat="44.49767" lon="1.4051">
        <ele>250.2</ele>
        <time>2022-01-15T14:26:16Z</time>
      </trkpt>
      <trkpt lat="44.49775" lon="1.40516">
        <ele>249.8</ele>
        <time>2022-01-15T14:26:18Z</time>
      </trkpt>
      <trkpt lat="44.49778" lon="1.40517">
        <ele>250.2</ele>
        <time>2022-01-15T14:26:19Z</time>
      </trkpt>
      <trkpt lat="44.4978" lon="1.40518">
        <ele>249.5</ele>
        <time>2022-01-15T14:26:20Z</time>
      </trkpt>
      <trkpt lat="44.49786" lon="1.40518">
        <ele>250.1</ele>
        <time>2022-01-15T14:26:22Z</time>
      </trkpt>
      <trkpt lat="44.49789" lon="1.4052">
        <ele>250.4</ele>
        <time>2022-01-15T14:26:23Z</time>
      </trkpt>
      <trkpt lat="44.4979" lon="1.40521">
        <ele>250.4</ele>
        <time>2022-01-15T14:26:24Z</time>
      </trkpt>
      <trkpt lat="44.49792" lon="1.40523">
        <ele>249.5</ele>
        <time>2022-01-15T14:26:25Z</time>
      </trkpt>
      <trkpt lat="44.49793" lon="1.40522">
        <ele>249.5</ele>
        <time>2022-01-15T14:26:26Z</time>
      </trkpt>
      <trkpt lat="44.49795" lon="1.40522">
        <ele>251</ele>
        <time>2022-01-15T14:26:27Z</time>
      </trkpt>
      <trkpt lat="44.49797" lon="1.40522">
        <ele>251</ele>
        <time>2022-01-15T14:26:28Z</time>
      </trkpt>
      <trkpt lat="44.49798" lon="1.40523">
        <ele>250</ele>
        <time>2022-01-15T14:26:29Z</time>
      </trkpt>
      <trkpt lat="44.49799" lon="1.40524">
        <ele>250</ele>
        <time>2022-01-15T14:26:30Z</time>
      </trkpt>
      <trkpt lat="44.49797" lon="1.40525">
        <ele>249.7</ele>
        <time>2022-01-15T14:26:31Z</time>
      </trkpt>
      <trkpt lat="44.49796" lon="1.40524">
        <ele>249.7</ele>
        <time>2022-01-15T14:26:32Z</time>
      </trkpt>
      <trkpt lat="44.49797" lon="1.40523">
        <ele>249.7</ele>
        <time>2022-01-15T14:26:33Z</time>
      </trkpt>
      <trkpt lat="44.49798" lon="1.40522">
        <ele>250</ele>
        <time>2022-01-15T14:26:34Z</time>
      </trkpt>
      <trkpt lat="44.49798" lon="1.40522">
        <ele>251.2</ele>
        <time>2022-01-15T14:26:35Z</time>
      </trkpt>
      <trkpt lat="44.49798" lon="1.40522">
        <ele>251.2</ele>
        <time>2022-01-15T14:26:36Z</time>
      </trkpt>
      <trkpt lat="44.49798" lon="1.40522">
        <ele>250</ele>
        <time>2022-01-15T14:26:37Z</time>
      </trkpt>
      <trkpt lat="44.49797" lon="1.40522">
        <ele>249.7</ele>
        <time>2022-01-15T14:26:38Z</time>
      </trkpt>
      <trkpt lat="44.49797" lon="1.40523">
        <ele>249.7</ele>
        <time>2022-01-15T14:26:40Z</time>
      </trkpt>
      <trkpt lat="44.49797" lon="1.40523">
        <ele>249.7</ele>
        <time>2022-01-15T14:26:41Z</time>
      </trkpt>
      <trkpt lat="44.49797" lon="1.40523">
        <ele>249.7</ele>
        <time>2022-01-15T14:26:42Z</time>
      </trkpt>
      <trkpt lat="44.49797" lon="1.40523">
        <ele>249.7</ele>
        <time>2022-01-15T14:26:43Z</time>
      </trkpt>
      <trkpt lat="44.49797" lon="1.40523">
        <ele>249.7</ele>
        <time>2022-01-15T14:26:44Z</time>
      </trkpt>
      <trkpt lat="44.49797" lon="1.40523">
        <ele>249.7</ele>
        <time>2022-01-15T14:26:45Z</time>
      </trkpt>
      <trkpt lat="44.49799" lon="1.40523">
        <ele>250</ele>
        <time>2022-01-15T14:27:02Z</time>
      </trkpt>
      <trkpt lat="44.498" lon="1.40523">
        <ele>250</ele>
        <time>2022-01-15T14:27:03Z</time>
      </trkpt>
      <trkpt lat="44.49801" lon="1.40522">
        <ele>250.3</ele>
        <time>2022-01-15T14:27:04Z</time>
      </trkpt>
      <trkpt lat="44.49802" lon="1.40522">
        <ele>251.5</ele>
        <time>2022-01-15T14:27:05Z</time>
      </trkpt>
      <trkpt lat="44.49803" lon="1.40521">
        <ele>251.5</ele>
        <time>2022-01-15T14:27:06Z</time>
      </trkpt>
      <trkpt lat="44.49804" lon="1.4052">
        <ele>251.8</ele>
        <time>2022-01-15T14:27:07Z</time>
      </trkpt>
      <trkpt lat="44.49805" lon="1.4052">
        <ele>251.8</ele>
        <time>2022-01-15T14:27:09Z</time>
      </trkpt>
      <trkpt lat="44.49806" lon="1.4052">
        <ele>251.8</ele>
        <time>2022-01-15T14:27:10Z</time>
      </trkpt>
      <trkpt lat="44.49807" lon="1.40519">
        <ele>251.8</ele>
        <time>2022-01-15T14:27:11Z</time>
      </trkpt>
      <trkpt lat="44.49807" lon="1.40518">
        <ele>253.3</ele>
        <time>2022-01-15T14:27:13Z</time>
      </trkpt>
      <trkpt lat="44.49808" lon="1.40517">
        <ele>253.3</ele>
        <time>2022-01-15T14:27:14Z</time>
      </trkpt>
      <trkpt lat="44.49809" lon="1.40516">
        <ele>253.3</ele>
        <time>2022-01-15T14:27:15Z</time>
      </trkpt>
      <trkpt lat="44.4981" lon="1.40515">
        <ele>253.6</ele>
        <time>2022-01-15T14:27:16Z</time>
      </trkpt>
      <trkpt lat="44.49811" lon="1.40514">
        <ele>253.6</ele>
        <time>2022-01-15T14:27:18Z</time>
      </trkpt>
      <trkpt lat="44.49813" lon="1.40513">
        <ele>255.1</ele>
        <time>2022-01-15T14:27:20Z</time>
      </trkpt>
      <trkpt lat="44.49814" lon="1.40512">
        <ele>255.1</ele>
        <time>2022-01-15T14:27:21Z</time>
      </trkpt>
      <trkpt lat="44.49815" lon="1.40511">
        <ele>255.1</ele>
        <time>2022-01-15T14:27:22Z</time>
      </trkpt>
      <trkpt lat="44.49815" lon="1.40509">
        <ele>255.1</ele>
        <time>2022-01-15T14:27:23Z</time>
      </trkpt>
      <trkpt lat="44.49816" lon="1.40508">
        <ele>256.6</ele>
        <time>2022-01-15T14:27:24Z</time>
      </trkpt>
      <trkpt lat="44.49817" lon="1.40505">
        <ele>256.6</ele>
        <time>2022-01-15T14:27:26Z</time>
      </trkpt>
      <trkpt lat="44.49817" lon="1.40504">
        <ele>257.7</ele>
        <time>2022-01-15T14:27:27Z</time>
      </trkpt>
      <trkpt lat="44.49817" lon="1.40503">
        <ele>257.7</ele>
        <time>2022-01-15T14:27:28Z</time>
      </trkpt>
      <trkpt lat="44.49818" lon="1.40502">
        <ele>257.7</ele>
        <time>2022-01-15T14:27:29Z</time>
      </trkpt>
      <trkpt lat="44.49818" lon="1.40501">
        <ele>257.7</ele>
        <time>2022-01-15T14:27:30Z</time>
      </trkpt>
      <trkpt lat="44.49818" lon="1.405">
        <ele>258.7</ele>
        <time>2022-01-15T14:27:31Z</time>
      </trkpt>
      <trkpt lat="44.49819" lon="1.40499">
        <ele>258.7</ele>
        <time>2022-01-15T14:27:32Z</time>
      </trkpt>
      <trkpt lat="44.4982" lon="1.40498">
        <ele>258.9</ele>
        <time>2022-01-15T14:27:33Z</time>
      </trkpt>
      <trkpt lat="44.49821" lon="1.40497">
        <ele>258.9</ele>
        <time>2022-01-15T14:27:34Z</time>
      </trkpt>
      <trkpt lat="44.49821" lon="1.40497">
        <ele>258.9</ele>
        <time>2022-01-15T14:27:35Z</time>
      </trkpt>
      <trkpt lat="44.49823" lon="1.40495">
        <ele>260.1</ele>
        <time>2022-01-15T14:27:37Z</time>
      </trkpt>
      <trkpt lat="44.49824" lon="1.40494">
        <ele>260.1</ele>
        <time>2022-01-15T14:27:38Z</time>
      </trkpt>
      <trkpt lat="44.49825" lon="1.40493">
        <ele>260.1</ele>
        <time>2022-01-15T14:27:39Z</time>
      </trkpt>
      <trkpt lat="44.49825" lon="1.40491">
        <ele>261.1</ele>
        <time>2022-01-15T14:27:40Z</time>
      </trkpt>
      <trkpt lat="44.49825" lon="1.40489">
        <ele>261.1</ele>
        <time>2022-01-15T14:27:41Z</time>
      </trkpt>
      <trkpt lat="44.49826" lon="1.40487">
        <ele>261.9</ele>
        <time>2022-01-15T14:27:42Z</time>
      </trkpt>
      <trkpt lat="44.49827" lon="1.40486">
        <ele>261.9</ele>
        <time>2022-01-15T14:27:44Z</time>
      </trkpt>
      <trkpt lat="44.49829" lon="1.40484">
        <ele>262.2</ele>
        <time>2022-01-15T14:27:45Z</time>
      </trkpt>
      <trkpt lat="44.4983" lon="1.40484">
        <ele>262.2</ele>
        <time>2022-01-15T14:27:46Z</time>
      </trkpt>
      <trkpt lat="44.49832" lon="1.40483">
        <ele>263.2</ele>
        <time>2022-01-15T14:27:47Z</time>
      </trkpt>
      <trkpt lat="44.49833" lon="1.40483">
        <ele>263.2</ele>
        <time>2022-01-15T14:27:48Z</time>
      </trkpt>
      <trkpt lat="44.49834" lon="1.40483">
        <ele>263.2</ele>
        <time>2022-01-15T14:27:49Z</time>
      </trkpt>
      <trkpt lat="44.49836" lon="1.40483">
        <ele>263.5</ele>
        <time>2022-01-15T14:27:50Z</time>
      </trkpt>
      <trkpt lat="44.49837" lon="1.40483">
        <ele>263.5</ele>
        <time>2022-01-15T14:27:52Z</time>
      </trkpt>
      <trkpt lat="44.49838" lon="1.40483">
        <ele>263.7</ele>
        <time>2022-01-15T14:27:53Z</time>
      </trkpt>
      <trkpt lat="44.49839" lon="1.40483">
        <ele>263.7</ele>
        <time>2022-01-15T14:27:54Z</time>
      </trkpt>
      <trkpt lat="44.49839" lon="1.40484">
        <ele>262.9</ele>
        <time>2022-01-15T14:27:55Z</time>
      </trkpt>
      <trkpt lat="44.49839" lon="1.40484">
        <ele>262.9</ele>
        <time>2022-01-15T14:27:56Z</time>
      </trkpt>
      <trkpt lat="44.4984" lon="1.40484">
        <ele>262.9</ele>
        <time>2022-01-15T14:27:57Z</time>
      </trkpt>
      <trkpt lat="44.4984" lon="1.40483">
        <ele>262.9</ele>
        <time>2022-01-15T14:27:58Z</time>
      </trkpt>
      <trkpt lat="44.4984" lon="1.40483">
        <ele>263.7</ele>
        <time>2022-01-15T14:27:59Z</time>
      </trkpt>
      <trkpt lat="44.49839" lon="1.40482">
        <ele>263.7</ele>
        <time>2022-01-15T14:28:00Z</time>
      </trkpt>
      <trkpt lat="44.4984" lon="1.40482">
        <ele>263.7</ele>
        <time>2022-01-15T14:28:01Z</time>
      </trkpt>
      <trkpt lat="44.4984" lon="1.40482">
        <ele>263.7</ele>
        <time>2022-01-15T14:28:02Z</time>
      </trkpt>
      <trkpt lat="44.49841" lon="1.40481">
        <ele>263.9</ele>
        <time>2022-01-15T14:28:03Z</time>
      </trkpt>
      <trkpt lat="44.49843" lon="1.4048">
        <ele>263.9</ele>
        <time>2022-01-15T14:28:04Z</time>
      </trkpt>
      <trkpt lat="44.49844" lon="1.40479">
        <ele>264.1</ele>
        <time>2022-01-15T14:28:05Z</time>
      </trkpt>
      <trkpt lat="44.49847" lon="1.40477">
        <ele>265.1</ele>
        <time>2022-01-15T14:28:07Z</time>
      </trkpt>
      <trkpt lat="44.49848" lon="1.40476">
        <ele>265.1</ele>
        <time>2022-01-15T14:28:08Z</time>
      </trkpt>
      <trkpt lat="44.49852" lon="1.40475">
        <ele>265.3</ele>
        <time>2022-01-15T14:28:10Z</time>
      </trkpt>
      <trkpt lat="44.49855" lon="1.40473">
        <ele>266.3</ele>
        <time>2022-01-15T14:28:11Z</time>
      </trkpt>
      <trkpt lat="44.49856" lon="1.40472">
        <ele>266.4</ele>
        <time>2022-01-15T14:28:12Z</time>
      </trkpt>
      <trkpt lat="44.4986" lon="1.40472">
        <ele>266.6</ele>
        <time>2022-01-15T14:28:13Z</time>
      </trkpt>
      <trkpt lat="44.49861" lon="1.40472">
        <ele>266.6</ele>
        <time>2022-01-15T14:28:14Z</time>
      </trkpt>
      <trkpt lat="44.49863" lon="1.40471">
        <ele>266.7</ele>
        <time>2022-01-15T14:28:15Z</time>
      </trkpt>
      <trkpt lat="44.49866" lon="1.40468">
        <ele>267.4</ele>
        <time>2022-01-15T14:28:17Z</time>
      </trkpt>
      <trkpt lat="44.49869" lon="1.40468">
        <ele>267.4</ele>
        <time>2022-01-15T14:28:19Z</time>
      </trkpt>
      <trkpt lat="44.4987" lon="1.40468">
        <ele>267.4</ele>
        <time>2022-01-15T14:28:20Z</time>
      </trkpt>
      <trkpt lat="44.49873" lon="1.40465">
        <ele>267.8</ele>
        <time>2022-01-15T14:28:21Z</time>
      </trkpt>
      <trkpt lat="44.49874" lon="1.40464">
        <ele>267.8</ele>
        <time>2022-01-15T14:28:22Z</time>
      </trkpt>
      <trkpt lat="44.49876" lon="1.40461">
        <ele>268</ele>
        <time>2022-01-15T14:28:23Z</time>
      </trkpt>
      <trkpt lat="44.49877" lon="1.4046">
        <ele>268</ele>
        <time>2022-01-15T14:28:24Z</time>
      </trkpt>
      <trkpt lat="44.49879" lon="1.40459">
        <ele>268</ele>
        <time>2022-01-15T14:28:25Z</time>
      </trkpt>
      <trkpt lat="44.4988" lon="1.40459">
        <ele>268</ele>
        <time>2022-01-15T14:28:26Z</time>
      </trkpt>
      <trkpt lat="44.49881" lon="1.40458">
        <ele>268</ele>
        <time>2022-01-15T14:28:27Z</time>
      </trkpt>
      <trkpt lat="44.49882" lon="1.40457">
        <ele>268.1</ele>
        <time>2022-01-15T14:28:28Z</time>
      </trkpt>
      <trkpt lat="44.49884" lon="1.40457">
        <ele>268.1</ele>
        <time>2022-01-15T14:28:30Z</time>
      </trkpt>
      <trkpt lat="44.49885" lon="1.40457">
        <ele>268.1</ele>
        <time>2022-01-15T14:28:31Z</time>
      </trkpt>
      <trkpt lat="44.49886" lon="1.40456">
        <ele>268.1</ele>
        <time>2022-01-15T14:28:32Z</time>
      </trkpt>
      <trkpt lat="44.49887" lon="1.40455">
        <ele>268</ele>
        <time>2022-01-15T14:28:33Z</time>
      </trkpt>
      <trkpt lat="44.49887" lon="1.40454">
        <ele>268</ele>
        <time>2022-01-15T14:28:34Z</time>
      </trkpt>
      <trkpt lat="44.49889" lon="1.40452">
        <ele>268.2</ele>
        <time>2022-01-15T14:28:35Z</time>
      </trkpt>
      <trkpt lat="44.4989" lon="1.40451">
        <ele>268.2</ele>
        <time>2022-01-15T14:28:36Z</time>
      </trkpt>
      <trkpt lat="44.49893" lon="1.4045">
        <ele>268.2</ele>
        <time>2022-01-15T14:28:38Z</time>
      </trkpt>
      <trkpt lat="44.49894" lon="1.4045">
        <ele>268.2</ele>
        <time>2022-01-15T14:28:39Z</time>
      </trkpt>
      <trkpt lat="44.49896" lon="1.4045">
        <ele>268.1</ele>
        <time>2022-01-15T14:28:40Z</time>
      </trkpt>
      <trkpt lat="44.499" lon="1.40451">
        <ele>268.1</ele>
        <time>2022-01-15T14:28:42Z</time>
      </trkpt>
      <trkpt lat="44.49903" lon="1.40449">
        <ele>268.3</ele>
        <time>2022-01-15T14:28:43Z</time>
      </trkpt>
      <trkpt lat="44.49905" lon="1.40445">
        <ele>268.5</ele>
        <time>2022-01-15T14:28:45Z</time>
      </trkpt>
      <trkpt lat="44.49905" lon="1.40442">
        <ele>268.5</ele>
        <time>2022-01-15T14:28:46Z</time>
      </trkpt>
      <trkpt lat="44.49905" lon="1.40441">
        <ele>268.5</ele>
        <time>2022-01-15T14:28:47Z</time>
      </trkpt>
      <trkpt lat="44.49904" lon="1.40439">
        <ele>268.7</ele>
        <time>2022-01-15T14:28:49Z</time>
      </trkpt>
      <trkpt lat="44.49906" lon="1.40439">
        <ele>268.7</ele>
        <time>2022-01-15T14:28:50Z</time>
      </trkpt>
      <trkpt lat="44.49907" lon="1.40439">
        <ele>268.7</ele>
        <time>2022-01-15T14:28:51Z</time>
      </trkpt>
      <trkpt lat="44.49909" lon="1.4044">
        <ele>268.7</ele>
        <time>2022-01-15T14:28:52Z</time>
      </trkpt>
      <trkpt lat="44.4991" lon="1.40443">
        <ele>268.5</ele>
        <time>2022-01-15T14:28:53Z</time>
      </trkpt>
      <trkpt lat="44.4991" lon="1.40444">
        <ele>268.5</ele>
        <time>2022-01-15T14:28:54Z</time>
      </trkpt>
      <trkpt lat="44.49912" lon="1.40448">
        <ele>268.4</ele>
        <time>2022-01-15T14:28:55Z</time>
      </trkpt>
      <trkpt lat="44.49915" lon="1.40453">
        <ele>268.2</ele>
        <time>2022-01-15T14:28:57Z</time>
      </trkpt>
      <trkpt lat="44.49917" lon="1.40455">
        <ele>268.1</ele>
        <time>2022-01-15T14:28:58Z</time>
      </trkpt>
      <trkpt lat="44.49918" lon="1.40457">
        <ele>268.1</ele>
        <time>2022-01-15T14:28:59Z</time>
      </trkpt>
      <trkpt lat="44.49922" lon="1.40457">
        <ele>268.2</ele>
        <time>2022-01-15T14:29:00Z</time>
      </trkpt>
      <trkpt lat="44.49924" lon="1.40457">
        <ele>268.2</ele>
        <time>2022-01-15T14:29:01Z</time>
      </trkpt>
      <trkpt lat="44.49927" lon="1.40458">
        <ele>268.3</ele>
        <time>2022-01-15T14:29:03Z</time>
      </trkpt>
      <trkpt lat="44.49928" lon="1.40459">
        <ele>268.3</ele>
        <time>2022-01-15T14:29:04Z</time>
      </trkpt>
      <trkpt lat="44.4993" lon="1.4046">
        <ele>268.5</ele>
        <time>2022-01-15T14:29:05Z</time>
      </trkpt>
      <trkpt lat="44.49931" lon="1.40461">
        <ele>268.6</ele>
        <time>2022-01-15T14:29:06Z</time>
      </trkpt>
      <trkpt lat="44.49934" lon="1.40463">
        <ele>268.8</ele>
        <time>2022-01-15T14:29:08Z</time>
      </trkpt>
      <trkpt lat="44.49937" lon="1.40465">
        <ele>269</ele>
        <time>2022-01-15T14:29:09Z</time>
      </trkpt>
      <trkpt lat="44.49938" lon="1.40466">
        <ele>269.1</ele>
        <time>2022-01-15T14:29:10Z</time>
      </trkpt>
      <trkpt lat="44.49941" lon="1.40468">
        <ele>269.4</ele>
        <time>2022-01-15T14:29:12Z</time>
      </trkpt>
      <trkpt lat="44.49942" lon="1.40469">
        <ele>269.4</ele>
        <time>2022-01-15T14:29:13Z</time>
      </trkpt>
      <trkpt lat="44.49944" lon="1.4047">
        <ele>269.5</ele>
        <time>2022-01-15T14:29:14Z</time>
      </trkpt>
      <trkpt lat="44.49945" lon="1.40471">
        <ele>269.7</ele>
        <time>2022-01-15T14:29:15Z</time>
      </trkpt>
      <trkpt lat="44.49947" lon="1.40473">
        <ele>269.8</ele>
        <time>2022-01-15T14:29:16Z</time>
      </trkpt>
      <trkpt lat="44.49948" lon="1.40473">
        <ele>269.9</ele>
        <time>2022-01-15T14:29:17Z</time>
      </trkpt>
      <trkpt lat="44.49952" lon="1.40475">
        <ele>270.2</ele>
        <time>2022-01-15T14:29:19Z</time>
      </trkpt>
      <trkpt lat="44.49954" lon="1.40475">
        <ele>270.3</ele>
        <time>2022-01-15T14:29:20Z</time>
      </trkpt>
      <trkpt lat="44.49955" lon="1.40476">
        <ele>270.4</ele>
        <time>2022-01-15T14:29:21Z</time>
      </trkpt>
      <trkpt lat="44.49956" lon="1.40477">
        <ele>270.5</ele>
        <time>2022-01-15T14:29:22Z</time>
      </trkpt>
      <trkpt lat="44.49958" lon="1.40478">
        <ele>270.6</ele>
        <time>2022-01-15T14:29:23Z</time>
      </trkpt>
      <trkpt lat="44.49961" lon="1.40479">
        <ele>270.8</ele>
        <time>2022-01-15T14:29:24Z</time>
      </trkpt>
      <trkpt lat="44.49962" lon="1.40479">
        <ele>270.8</ele>
        <time>2022-01-15T14:29:25Z</time>
      </trkpt>
      <trkpt lat="44.49963" lon="1.4048">
        <ele>271</ele>
        <time>2022-01-15T14:29:26Z</time>
      </trkpt>
      <trkpt lat="44.49967" lon="1.40481">
        <ele>271.2</ele>
        <time>2022-01-15T14:29:28Z</time>
      </trkpt>
      <trkpt lat="44.49968" lon="1.40481">
        <ele>271.3</ele>
        <time>2022-01-15T14:29:29Z</time>
      </trkpt>
      <trkpt lat="44.49971" lon="1.40482">
        <ele>271.5</ele>
        <time>2022-01-15T14:29:31Z</time>
      </trkpt>
      <trkpt lat="44.49973" lon="1.40484">
        <ele>271.6</ele>
        <time>2022-01-15T14:29:32Z</time>
      </trkpt>
      <trkpt lat="44.49974" lon="1.40484">
        <ele>271.7</ele>
        <time>2022-01-15T14:29:33Z</time>
      </trkpt>
      <trkpt lat="44.49977" lon="1.40486">
        <ele>271.9</ele>
        <time>2022-01-15T14:29:34Z</time>
      </trkpt>
      <trkpt lat="44.4998" lon="1.40487">
        <ele>272.1</ele>
        <time>2022-01-15T14:29:36Z</time>
      </trkpt>
      <trkpt lat="44.49981" lon="1.40487">
        <ele>272.2</ele>
        <time>2022-01-15T14:29:37Z</time>
      </trkpt>
      <trkpt lat="44.49983" lon="1.40488">
        <ele>272.3</ele>
        <time>2022-01-15T14:29:38Z</time>
      </trkpt>
      <trkpt lat="44.49984" lon="1.40488">
        <ele>272.4</ele>
        <time>2022-01-15T14:29:39Z</time>
      </trkpt>
      <trkpt lat="44.49986" lon="1.40489">
        <ele>272.5</ele>
        <time>2022-01-15T14:29:40Z</time>
      </trkpt>
      <trkpt lat="44.49987" lon="1.40489">
        <ele>272.6</ele>
        <time>2022-01-15T14:29:41Z</time>
      </trkpt>
      <trkpt lat="44.49988" lon="1.4049">
        <ele>272.7</ele>
        <time>2022-01-15T14:29:42Z</time>
      </trkpt>
      <trkpt lat="44.4999" lon="1.4049">
        <ele>272.8</ele>
        <time>2022-01-15T14:29:43Z</time>
      </trkpt>
      <trkpt lat="44.49991" lon="1.4049">
        <ele>272.9</ele>
        <time>2022-01-15T14:29:44Z</time>
      </trkpt>
      <trkpt lat="44.49993" lon="1.4049">
        <ele>273</ele>
        <time>2022-01-15T14:29:45Z</time>
      </trkpt>
      <trkpt lat="44.49995" lon="1.40491">
        <ele>273.2</ele>
        <time>2022-01-15T14:29:47Z</time>
      </trkpt>
      <trkpt lat="44.49997" lon="1.40491">
        <ele>273.3</ele>
        <time>2022-01-15T14:29:48Z</time>
      </trkpt>
      <trkpt lat="44.49998" lon="1.40491">
        <ele>273.4</ele>
        <time>2022-01-15T14:29:49Z</time>
      </trkpt>
      <trkpt lat="44.5" lon="1.40492">
        <ele>273.5</ele>
        <time>2022-01-15T14:29:50Z</time>
      </trkpt>
      <trkpt lat="44.50001" lon="1.40493">
        <ele>273.6</ele>
        <time>2022-01-15T14:29:51Z</time>
      </trkpt>
      <trkpt lat="44.50003" lon="1.40493">
        <ele>273.7</ele>
        <time>2022-01-15T14:29:52Z</time>
      </trkpt>
      <trkpt lat="44.50004" lon="1.40494">
        <ele>273.8</ele>
        <time>2022-01-15T14:29:53Z</time>
      </trkpt>
      <trkpt lat="44.50005" lon="1.40494">
        <ele>273.8</ele>
        <time>2022-01-15T14:29:54Z</time>
      </trkpt>
      <trkpt lat="44.50007" lon="1.40495">
        <ele>274</ele>
        <time>2022-01-15T14:29:55Z</time>
      </trkpt>
      <trkpt lat="44.50009" lon="1.40497">
        <ele>274.1</ele>
        <time>2022-01-15T14:29:56Z</time>
      </trkpt>
      <trkpt lat="44.5001" lon="1.40498">
        <ele>274.2</ele>
        <time>2022-01-15T14:29:57Z</time>
      </trkpt>
      <trkpt lat="44.50013" lon="1.405">
        <ele>274.4</ele>
        <time>2022-01-15T14:29:58Z</time>
      </trkpt>
      <trkpt lat="44.50014" lon="1.40502">
        <ele>274.5</ele>
        <time>2022-01-15T14:29:59Z</time>
      </trkpt>
      <trkpt lat="44.50021" lon="1.40506">
        <ele>275</ele>
        <time>2022-01-15T14:30:01Z</time>
      </trkpt>
      <trkpt lat="44.50025" lon="1.4051">
        <ele>275.3</ele>
        <time>2022-01-15T14:30:03Z</time>
      </trkpt>
      <trkpt lat="44.50029" lon="1.40512">
        <ele>275.5</ele>
        <time>2022-01-15T14:30:04Z</time>
      </trkpt>
      <trkpt lat="44.50032" lon="1.40515">
        <ele>275.8</ele>
        <time>2022-01-15T14:30:05Z</time>
      </trkpt>
      <trkpt lat="44.50036" lon="1.40517">
        <ele>276</ele>
        <time>2022-01-15T14:30:06Z</time>
      </trkpt>
      <trkpt lat="44.50039" lon="1.40518">
        <ele>276.2</ele>
        <time>2022-01-15T14:30:07Z</time>
      </trkpt>
      <trkpt lat="44.50044" lon="1.40521">
        <ele>276.5</ele>
        <time>2022-01-15T14:30:09Z</time>
      </trkpt>
      <trkpt lat="44.50047" lon="1.40523">
        <ele>276.8</ele>
        <time>2022-01-15T14:30:10Z</time>
      </trkpt>
      <trkpt lat="44.50048" lon="1.40524">
        <ele>276.8</ele>
        <time>2022-01-15T14:30:11Z</time>
      </trkpt>
      <trkpt lat="44.50052" lon="1.40526">
        <ele>277</ele>
        <time>2022-01-15T14:30:12Z</time>
      </trkpt>
      <trkpt lat="44.50053" lon="1.40527">
        <ele>277.1</ele>
        <time>2022-01-15T14:30:13Z</time>
      </trkpt>
      <trkpt lat="44.50058" lon="1.40529">
        <ele>277.4</ele>
        <time>2022-01-15T14:30:15Z</time>
      </trkpt>
      <trkpt lat="44.50059" lon="1.40529">
        <ele>277.5</ele>
        <time>2022-01-15T14:30:16Z</time>
      </trkpt>
      <trkpt lat="44.5006" lon="1.4053">
        <ele>277.5</ele>
        <time>2022-01-15T14:30:17Z</time>
      </trkpt>
      <trkpt lat="44.50063" lon="1.40531">
        <ele>277.7</ele>
        <time>2022-01-15T14:30:18Z</time>
      </trkpt>
      <trkpt lat="44.50065" lon="1.40533">
        <ele>277.8</ele>
        <time>2022-01-15T14:30:20Z</time>
      </trkpt>
      <trkpt lat="44.50066" lon="1.40534">
        <ele>277.9</ele>
        <time>2022-01-15T14:30:21Z</time>
      </trkpt>
      <trkpt lat="44.50068" lon="1.40536">
        <ele>278</ele>
        <time>2022-01-15T14:30:22Z</time>
      </trkpt>
      <trkpt lat="44.5007" lon="1.40538">
        <ele>278.2</ele>
        <time>2022-01-15T14:30:23Z</time>
      </trkpt>
      <trkpt lat="44.50071" lon="1.40539">
        <ele>278.3</ele>
        <time>2022-01-15T14:30:24Z</time>
      </trkpt>
      <trkpt lat="44.50074" lon="1.40542">
        <ele>278.4</ele>
        <time>2022-01-15T14:30:25Z</time>
      </trkpt>
      <trkpt lat="44.50077" lon="1.40545">
        <ele>278.7</ele>
        <time>2022-01-15T14:30:27Z</time>
      </trkpt>
      <trkpt lat="44.50078" lon="1.40546">
        <ele>278.8</ele>
        <time>2022-01-15T14:30:28Z</time>
      </trkpt>
      <trkpt lat="44.50079" lon="1.40546">
        <ele>278.8</ele>
        <time>2022-01-15T14:30:29Z</time>
      </trkpt>
      <trkpt lat="44.50081" lon="1.40547">
        <ele>278.9</ele>
        <time>2022-01-15T14:30:30Z</time>
      </trkpt>
      <trkpt lat="44.50082" lon="1.4055">
        <ele>279</ele>
        <time>2022-01-15T14:30:31Z</time>
      </trkpt>
      <trkpt lat="44.50086" lon="1.40552">
        <ele>279.3</ele>
        <time>2022-01-15T14:30:33Z</time>
      </trkpt>
      <trkpt lat="44.50087" lon="1.40552">
        <ele>279.4</ele>
        <time>2022-01-15T14:30:34Z</time>
      </trkpt>
      <trkpt lat="44.50088" lon="1.40553">
        <ele>279.4</ele>
        <time>2022-01-15T14:30:35Z</time>
      </trkpt>
      <trkpt lat="44.5009" lon="1.40552">
        <ele>279.6</ele>
        <time>2022-01-15T14:30:36Z</time>
      </trkpt>
      <trkpt lat="44.50091" lon="1.40551">
        <ele>279.6</ele>
        <time>2022-01-15T14:30:37Z</time>
      </trkpt>
      <trkpt lat="44.50093" lon="1.4055">
        <ele>279.7</ele>
        <time>2022-01-15T14:30:38Z</time>
      </trkpt>
      <trkpt lat="44.50094" lon="1.40548">
        <ele>279.8</ele>
        <time>2022-01-15T14:30:39Z</time>
      </trkpt>
      <trkpt lat="44.50092" lon="1.40544">
        <ele>280</ele>
        <time>2022-01-15T14:30:40Z</time>
      </trkpt>
      <trkpt lat="44.50091" lon="1.40542">
        <ele>280.1</ele>
        <time>2022-01-15T14:30:41Z</time>
      </trkpt>
      <trkpt lat="44.5009" lon="1.40539">
        <ele>280.2</ele>
        <time>2022-01-15T14:30:42Z</time>
      </trkpt>
      <trkpt lat="44.50089" lon="1.40536">
        <ele>280.4</ele>
        <time>2022-01-15T14:30:44Z</time>
      </trkpt>
      <trkpt lat="44.50088" lon="1.40532">
        <ele>280.5</ele>
        <time>2022-01-15T14:30:45Z</time>
      </trkpt>
      <trkpt lat="44.50088" lon="1.40528">
        <ele>280.7</ele>
        <time>2022-01-15T14:30:46Z</time>
      </trkpt>
      <trkpt lat="44.50088" lon="1.40523">
        <ele>280.9</ele>
        <time>2022-01-15T14:30:47Z</time>
      </trkpt>
      <trkpt lat="44.50089" lon="1.40519">
        <ele>281</ele>
        <time>2022-01-15T14:30:48Z</time>
      </trkpt>
      <trkpt lat="44.50091" lon="1.40514">
        <ele>281.2</ele>
        <time>2022-01-15T14:30:49Z</time>
      </trkpt>
      <trkpt lat="44.50092" lon="1.40512">
        <ele>281.3</ele>
        <time>2022-01-15T14:30:50Z</time>
      </trkpt>
      <trkpt lat="44.50094" lon="1.40509">
        <ele>281.4</ele>
        <time>2022-01-15T14:30:51Z</time>
      </trkpt>
      <trkpt lat="44.50095" lon="1.40508">
        <ele>281.5</ele>
        <time>2022-01-15T14:30:52Z</time>
      </trkpt>
      <trkpt lat="44.50098" lon="1.40506">
        <ele>281.6</ele>
        <time>2022-01-15T14:30:53Z</time>
      </trkpt>
      <trkpt lat="44.501" lon="1.40506">
        <ele>281.7</ele>
        <time>2022-01-15T14:30:54Z</time>
      </trkpt>
      <trkpt lat="44.50103" lon="1.40506">
        <ele>281.8</ele>
        <time>2022-01-15T14:30:56Z</time>
      </trkpt>
      <trkpt lat="44.50106" lon="1.40506">
        <ele>282</ele>
        <time>2022-01-15T14:30:57Z</time>
      </trkpt>
      <trkpt lat="44.5011" lon="1.40506">
        <ele>282.1</ele>
        <time>2022-01-15T14:30:58Z</time>
      </trkpt>
      <trkpt lat="44.50111" lon="1.40506">
        <ele>282.2</ele>
        <time>2022-01-15T14:30:59Z</time>
      </trkpt>
      <trkpt lat="44.50116" lon="1.40506">
        <ele>282.3</ele>
        <time>2022-01-15T14:31:01Z</time>
      </trkpt>
      <trkpt lat="44.50119" lon="1.40506">
        <ele>282.5</ele>
        <time>2022-01-15T14:31:02Z</time>
      </trkpt>
      <trkpt lat="44.50125" lon="1.40508">
        <ele>282.7</ele>
        <time>2022-01-15T14:31:03Z</time>
      </trkpt>
      <trkpt lat="44.50129" lon="1.40507">
        <ele>282.9</ele>
        <time>2022-01-15T14:31:05Z</time>
      </trkpt>
      <trkpt lat="44.50131" lon="1.40502">
        <ele>283</ele>
        <time>2022-01-15T14:31:06Z</time>
      </trkpt>
      <trkpt lat="44.50134" lon="1.40497">
        <ele>283.2</ele>
        <time>2022-01-15T14:31:07Z</time>
      </trkpt>
      <trkpt lat="44.50139" lon="1.40495">
        <ele>283.4</ele>
        <time>2022-01-15T14:31:08Z</time>
      </trkpt>
      <trkpt lat="44.50144" lon="1.40493">
        <ele>283.6</ele>
        <time>2022-01-15T14:31:09Z</time>
      </trkpt>
      <trkpt lat="44.5015" lon="1.40483">
        <ele>283.9</ele>
        <time>2022-01-15T14:31:11Z</time>
      </trkpt>
      <trkpt lat="44.50154" lon="1.40478">
        <ele>284.1</ele>
        <time>2022-01-15T14:31:12Z</time>
      </trkpt>
      <trkpt lat="44.5016" lon="1.40473">
        <ele>284.3</ele>
        <time>2022-01-15T14:31:13Z</time>
      </trkpt>
      <trkpt lat="44.50165" lon="1.40468">
        <ele>284.6</ele>
        <time>2022-01-15T14:31:14Z</time>
      </trkpt>
      <trkpt lat="44.50169" lon="1.40462">
        <ele>284.8</ele>
        <time>2022-01-15T14:31:15Z</time>
      </trkpt>
      <trkpt lat="44.50173" lon="1.40455">
        <ele>284.5</ele>
        <time>2022-01-15T14:31:16Z</time>
      </trkpt>
      <trkpt lat="44.50177" lon="1.40449">
        <ele>284.3</ele>
        <time>2022-01-15T14:31:17Z</time>
      </trkpt>
      <trkpt lat="44.50181" lon="1.40445">
        <ele>284.6</ele>
        <time>2022-01-15T14:31:18Z</time>
      </trkpt>
      <trkpt lat="44.50185" lon="1.40442">
        <ele>284.4</ele>
        <time>2022-01-15T14:31:19Z</time>
      </trkpt>
      <trkpt lat="44.50188" lon="1.40439">
        <ele>284.2</ele>
        <time>2022-01-15T14:31:20Z</time>
      </trkpt>
      <trkpt lat="44.50191" lon="1.40435">
        <ele>284</ele>
        <time>2022-01-15T14:31:21Z</time>
      </trkpt>
      <trkpt lat="44.50193" lon="1.40431">
        <ele>283.8</ele>
        <time>2022-01-15T14:31:22Z</time>
      </trkpt>
      <trkpt lat="44.50196" lon="1.40427">
        <ele>283.5</ele>
        <time>2022-01-15T14:31:23Z</time>
      </trkpt>
      <trkpt lat="44.50198" lon="1.40423">
        <ele>283.5</ele>
        <time>2022-01-15T14:31:24Z</time>
      </trkpt>
      <trkpt lat="44.502" lon="1.4042">
        <ele>283.1</ele>
        <time>2022-01-15T14:31:25Z</time>
      </trkpt>
      <trkpt lat="44.50203" lon="1.40416">
        <ele>282.8</ele>
        <time>2022-01-15T14:31:26Z</time>
      </trkpt>
      <trkpt lat="44.50207" lon="1.4041">
        <ele>281.5</ele>
        <time>2022-01-15T14:31:28Z</time>
      </trkpt>
      <trkpt lat="44.50211" lon="1.40405">
        <ele>281.1</ele>
        <time>2022-01-15T14:31:29Z</time>
      </trkpt>
      <trkpt lat="44.50217" lon="1.40398">
        <ele>281</ele>
        <time>2022-01-15T14:31:30Z</time>
      </trkpt>
      <trkpt lat="44.50222" lon="1.40392">
        <ele>279.8</ele>
        <time>2022-01-15T14:31:31Z</time>
      </trkpt>
      <trkpt lat="44.50228" lon="1.40384">
        <ele>278.3</ele>
        <time>2022-01-15T14:31:32Z</time>
      </trkpt>
      <trkpt lat="44.50232" lon="1.40378">
        <ele>277.5</ele>
        <time>2022-01-15T14:31:33Z</time>
      </trkpt>
      <trkpt lat="44.50234" lon="1.40375">
        <ele>276.6</ele>
        <time>2022-01-15T14:31:34Z</time>
      </trkpt>
      <trkpt lat="44.50238" lon="1.40372">
        <ele>276.1</ele>
        <time>2022-01-15T14:31:35Z</time>
      </trkpt>
      <trkpt lat="44.50244" lon="1.4037">
        <ele>276.3</ele>
        <time>2022-01-15T14:31:36Z</time>
      </trkpt>
      <trkpt lat="44.5025" lon="1.4037">
        <ele>276.8</ele>
        <time>2022-01-15T14:31:37Z</time>
      </trkpt>
      <trkpt lat="44.50254" lon="1.40372">
        <ele>278.3</ele>
        <time>2022-01-15T14:31:38Z</time>
      </trkpt>
      <trkpt lat="44.50259" lon="1.40374">
        <ele>278.4</ele>
        <time>2022-01-15T14:31:39Z</time>
      </trkpt>
      <trkpt lat="44.50262" lon="1.40374">
        <ele>278.6</ele>
        <time>2022-01-15T14:31:40Z</time>
      </trkpt>
      <trkpt lat="44.50265" lon="1.40374">
        <ele>278.7</ele>
        <time>2022-01-15T14:31:41Z</time>
      </trkpt>
      <trkpt lat="44.50269" lon="1.40373">
        <ele>278.7</ele>
        <time>2022-01-15T14:31:42Z</time>
      </trkpt>
      <trkpt lat="44.50272" lon="1.40373">
        <ele>278.8</ele>
        <time>2022-01-15T14:31:43Z</time>
      </trkpt>
      <trkpt lat="44.50276" lon="1.40372">
        <ele>278.8</ele>
        <time>2022-01-15T14:31:44Z</time>
      </trkpt>
      <trkpt lat="44.50278" lon="1.40372">
        <ele>278.8</ele>
        <time>2022-01-15T14:31:45Z</time>
      </trkpt>
      <trkpt lat="44.50281" lon="1.40371">
        <ele>277.7</ele>
        <time>2022-01-15T14:31:46Z</time>
      </trkpt>
      <trkpt lat="44.50284" lon="1.40368">
        <ele>277.7</ele>
        <time>2022-01-15T14:31:47Z</time>
      </trkpt>
      <trkpt lat="44.50285" lon="1.40367">
        <ele>276.6</ele>
        <time>2022-01-15T14:31:48Z</time>
      </trkpt>
      <trkpt lat="44.50286" lon="1.4036">
        <ele>275.5</ele>
        <time>2022-01-15T14:31:49Z</time>
      </trkpt>
      <trkpt lat="44.50287" lon="1.40353">
        <ele>273.5</ele>
        <time>2022-01-15T14:31:50Z</time>
      </trkpt>
      <trkpt lat="44.5029" lon="1.40347">
        <ele>272.4</ele>
        <time>2022-01-15T14:31:51Z</time>
      </trkpt>
      <trkpt lat="44.50294" lon="1.40342">
        <ele>271.4</ele>
        <time>2022-01-15T14:31:52Z</time>
      </trkpt>
      <trkpt lat="44.503" lon="1.40338">
        <ele>270.3</ele>
        <time>2022-01-15T14:31:53Z</time>
      </trkpt>
      <trkpt lat="44.50305" lon="1.40332">
        <ele>268.2</ele>
        <time>2022-01-15T14:31:54Z</time>
      </trkpt>
      <trkpt lat="44.5031" lon="1.40326">
        <ele>266.9</ele>
        <time>2022-01-15T14:31:55Z</time>
      </trkpt>
      <trkpt lat="44.50314" lon="1.40319">
        <ele>264.9</ele>
        <time>2022-01-15T14:31:56Z</time>
      </trkpt>
      <trkpt lat="44.50318" lon="1.40313">
        <ele>263.7</ele>
        <time>2022-01-15T14:31:57Z</time>
      </trkpt>
      <trkpt lat="44.50322" lon="1.40306">
        <ele>261.7</ele>
        <time>2022-01-15T14:31:58Z</time>
      </trkpt>
      <trkpt lat="44.50325" lon="1.40298">
        <ele>259.6</ele>
        <time>2022-01-15T14:31:59Z</time>
      </trkpt>
      <trkpt lat="44.50327" lon="1.40291">
        <ele>258.7</ele>
        <time>2022-01-15T14:32:00Z</time>
      </trkpt>
      <trkpt lat="44.50326" lon="1.40284">
        <ele>256.8</ele>
        <time>2022-01-15T14:32:01Z</time>
      </trkpt>
      <trkpt lat="44.50324" lon="1.40278">
        <ele>255.8</ele>
        <time>2022-01-15T14:32:02Z</time>
      </trkpt>
      <trkpt lat="44.50323" lon="1.40272">
        <ele>254</ele>
        <time>2022-01-15T14:32:03Z</time>
      </trkpt>
      <trkpt lat="44.50322" lon="1.40265">
        <ele>253.2</ele>
        <time>2022-01-15T14:32:04Z</time>
      </trkpt>
      <trkpt lat="44.50322" lon="1.40257">
        <ele>251.5</ele>
        <time>2022-01-15T14:32:05Z</time>
      </trkpt>
      <trkpt lat="44.50323" lon="1.40249">
        <ele>249.8</ele>
        <time>2022-01-15T14:32:06Z</time>
      </trkpt>
      <trkpt lat="44.50324" lon="1.40241">
        <ele>248.1</ele>
        <time>2022-01-15T14:32:07Z</time>
      </trkpt>
      <trkpt lat="44.50326" lon="1.40233">
        <ele>246.7</ele>
        <time>2022-01-15T14:32:08Z</time>
      </trkpt>
      <trkpt lat="44.50327" lon="1.40225">
        <ele>245.5</ele>
        <time>2022-01-15T14:32:09Z</time>
      </trkpt>
      <trkpt lat="44.50327" lon="1.40215">
        <ele>244.6</ele>
        <time>2022-01-15T14:32:10Z</time>
      </trkpt>
      <trkpt lat="44.50325" lon="1.40206">
        <ele>243.6</ele>
        <time>2022-01-15T14:32:11Z</time>
      </trkpt>
      <trkpt lat="44.50323" lon="1.40195">
        <ele>242.2</ele>
        <time>2022-01-15T14:32:12Z</time>
      </trkpt>
      <trkpt lat="44.5032" lon="1.40187">
        <ele>241.4</ele>
        <time>2022-01-15T14:32:13Z</time>
      </trkpt>
      <trkpt lat="44.50316" lon="1.4018">
        <ele>240.9</ele>
        <time>2022-01-15T14:32:14Z</time>
      </trkpt>
      <trkpt lat="44.50312" lon="1.40175">
        <ele>240.5</ele>
        <time>2022-01-15T14:32:15Z</time>
      </trkpt>
      <trkpt lat="44.50309" lon="1.40169">
        <ele>239.8</ele>
        <time>2022-01-15T14:32:16Z</time>
      </trkpt>
      <trkpt lat="44.50307" lon="1.40162">
        <ele>239.4</ele>
        <time>2022-01-15T14:32:17Z</time>
      </trkpt>
      <trkpt lat="44.50306" lon="1.40154">
        <ele>238.9</ele>
        <time>2022-01-15T14:32:18Z</time>
      </trkpt>
      <trkpt lat="44.50306" lon="1.40146">
        <ele>238.5</ele>
        <time>2022-01-15T14:32:19Z</time>
      </trkpt>
      <trkpt lat="44.50306" lon="1.40138">
        <ele>238.3</ele>
        <time>2022-01-15T14:32:20Z</time>
      </trkpt>
      <trkpt lat="44.50308" lon="1.4013">
        <ele>238.1</ele>
        <time>2022-01-15T14:32:21Z</time>
      </trkpt>
      <trkpt lat="44.50312" lon="1.40124">
        <ele>238.5</ele>
        <time>2022-01-15T14:32:22Z</time>
      </trkpt>
      <trkpt lat="44.50316" lon="1.4012">
        <ele>238.7</ele>
        <time>2022-01-15T14:32:23Z</time>
      </trkpt>
      <trkpt lat="44.50317" lon="1.40116">
        <ele>238.6</ele>
        <time>2022-01-15T14:32:24Z</time>
      </trkpt>
      <trkpt lat="44.50317" lon="1.40109">
        <ele>238.3</ele>
        <time>2022-01-15T14:32:25Z</time>
      </trkpt>
      <trkpt lat="44.50316" lon="1.40102">
        <ele>238.1</ele>
        <time>2022-01-15T14:32:26Z</time>
      </trkpt>
      <trkpt lat="44.50318" lon="1.40095">
        <ele>238.1</ele>
        <time>2022-01-15T14:32:27Z</time>
      </trkpt>
      <trkpt lat="44.50321" lon="1.40089">
        <ele>238</ele>
        <time>2022-01-15T14:32:28Z</time>
      </trkpt>
      <trkpt lat="44.50322" lon="1.40082">
        <ele>238</ele>
        <time>2022-01-15T14:32:29Z</time>
      </trkpt>
      <trkpt lat="44.50322" lon="1.40074">
        <ele>237.7</ele>
        <time>2022-01-15T14:32:30Z</time>
      </trkpt>
      <trkpt lat="44.50322" lon="1.40066">
        <ele>237.3</ele>
        <time>2022-01-15T14:32:31Z</time>
      </trkpt>
      <trkpt lat="44.50321" lon="1.40058">
        <ele>236.6</ele>
        <time>2022-01-15T14:32:32Z</time>
      </trkpt>
      <trkpt lat="44.5032" lon="1.40051">
        <ele>236.4</ele>
        <time>2022-01-15T14:32:33Z</time>
      </trkpt>
      <trkpt lat="44.50318" lon="1.40043">
        <ele>236</ele>
        <time>2022-01-15T14:32:34Z</time>
      </trkpt>
      <trkpt lat="44.50317" lon="1.40036">
        <ele>235.2</ele>
        <time>2022-01-15T14:32:35Z</time>
      </trkpt>
      <trkpt lat="44.50316" lon="1.40029">
        <ele>235.1</ele>
        <time>2022-01-15T14:32:36Z</time>
      </trkpt>
      <trkpt lat="44.50317" lon="1.40023">
        <ele>234.8</ele>
        <time>2022-01-15T14:32:37Z</time>
      </trkpt>
      <trkpt lat="44.50319" lon="1.40019">
        <ele>235.1</ele>
        <time>2022-01-15T14:32:38Z</time>
      </trkpt>
      <trkpt lat="44.50322" lon="1.40016">
        <ele>235.5</ele>
        <time>2022-01-15T14:32:39Z</time>
      </trkpt>
      <trkpt lat="44.50325" lon="1.40015">
        <ele>235.8</ele>
        <time>2022-01-15T14:32:40Z</time>
      </trkpt>
      <trkpt lat="44.50327" lon="1.40013">
        <ele>236.2</ele>
        <time>2022-01-15T14:32:41Z</time>
      </trkpt>
      <trkpt lat="44.50328" lon="1.40012">
        <ele>236.1</ele>
        <time>2022-01-15T14:32:42Z</time>
      </trkpt>
      <trkpt lat="44.5033" lon="1.40011">
        <ele>236.5</ele>
        <time>2022-01-15T14:32:43Z</time>
      </trkpt>
      <trkpt lat="44.50331" lon="1.40011">
        <ele>236.4</ele>
        <time>2022-01-15T14:32:44Z</time>
      </trkpt>
      <trkpt lat="44.50331" lon="1.40011">
        <ele>236.4</ele>
        <time>2022-01-15T14:32:45Z</time>
      </trkpt>
      <trkpt lat="44.50332" lon="1.4001">
        <ele>236.3</ele>
        <time>2022-01-15T14:32:46Z</time>
      </trkpt>
      <trkpt lat="44.50332" lon="1.4001">
        <ele>236.3</ele>
        <time>2022-01-15T14:32:47Z</time>
      </trkpt>
      <trkpt lat="44.50333" lon="1.4001">
        <ele>236.2</ele>
        <time>2022-01-15T14:32:48Z</time>
      </trkpt>
      <trkpt lat="44.50333" lon="1.4001">
        <ele>236.6</ele>
        <time>2022-01-15T14:32:49Z</time>
      </trkpt>
      <trkpt lat="44.50334" lon="1.4001">
        <ele>236.5</ele>
        <time>2022-01-15T14:32:50Z</time>
      </trkpt>
      <trkpt lat="44.50334" lon="1.40009">
        <ele>236.5</ele>
        <time>2022-01-15T14:32:51Z</time>
      </trkpt>
      <trkpt lat="44.50335" lon="1.40009">
        <ele>236.4</ele>
        <time>2022-01-15T14:32:52Z</time>
      </trkpt>
      <trkpt lat="44.50335" lon="1.40009">
        <ele>236.4</ele>
        <time>2022-01-15T14:32:54Z</time>
      </trkpt>
      <trkpt lat="44.50336" lon="1.40009">
        <ele>236.3</ele>
        <time>2022-01-15T14:33:12Z</time>
      </trkpt>
      <trkpt lat="44.50336" lon="1.40008">
        <ele>236.6</ele>
        <time>2022-01-15T14:33:13Z</time>
      </trkpt>
      <trkpt lat="44.5034" lon="1.40007">
        <ele>236.7</ele>
        <time>2022-01-15T14:33:14Z</time>
      </trkpt>
      <trkpt lat="44.50342" lon="1.40006">
        <ele>236.6</ele>
        <time>2022-01-15T14:33:15Z</time>
      </trkpt>
      <trkpt lat="44.50346" lon="1.40004">
        <ele>236.6</ele>
        <time>2022-01-15T14:33:16Z</time>
      </trkpt>
      <trkpt lat="44.50351" lon="1.40001">
        <ele>236.3</ele>
        <time>2022-01-15T14:33:18Z</time>
      </trkpt>
      <trkpt lat="44.50354" lon="1.39998">
        <ele>235.8</ele>
        <time>2022-01-15T14:33:19Z</time>
      </trkpt>
      <trkpt lat="44.50357" lon="1.39996">
        <ele>235.4</ele>
        <time>2022-01-15T14:33:20Z</time>
      </trkpt>
      <trkpt lat="44.5036" lon="1.39995">
        <ele>234.8</ele>
        <time>2022-01-15T14:33:21Z</time>
      </trkpt>
      <trkpt lat="44.50363" lon="1.39993">
        <ele>234</ele>
        <time>2022-01-15T14:33:22Z</time>
      </trkpt>
      <trkpt lat="44.50367" lon="1.39991">
        <ele>232.7</ele>
        <time>2022-01-15T14:33:23Z</time>
      </trkpt>
      <trkpt lat="44.50371" lon="1.39989">
        <ele>232.1</ele>
        <time>2022-01-15T14:33:24Z</time>
      </trkpt>
      <trkpt lat="44.50377" lon="1.3999">
        <ele>230.9</ele>
        <time>2022-01-15T14:33:26Z</time>
      </trkpt>
      <trkpt lat="44.50382" lon="1.39992">
        <ele>230.4</ele>
        <time>2022-01-15T14:33:27Z</time>
      </trkpt>
      <trkpt lat="44.50387" lon="1.39989">
        <ele>229.5</ele>
        <time>2022-01-15T14:33:28Z</time>
      </trkpt>
      <trkpt lat="44.50392" lon="1.39985">
        <ele>228.6</ele>
        <time>2022-01-15T14:33:29Z</time>
      </trkpt>
      <trkpt lat="44.50399" lon="1.39981">
        <ele>227.7</ele>
        <time>2022-01-15T14:33:30Z</time>
      </trkpt>
      <trkpt lat="44.50404" lon="1.39978">
        <ele>226.8</ele>
        <time>2022-01-15T14:33:31Z</time>
      </trkpt>
      <trkpt lat="44.50409" lon="1.39975">
        <ele>226.2</ele>
        <time>2022-01-15T14:33:32Z</time>
      </trkpt>
      <trkpt lat="44.50413" lon="1.39971">
        <ele>225.2</ele>
        <time>2022-01-15T14:33:33Z</time>
      </trkpt>
      <trkpt lat="44.50418" lon="1.39971">
        <ele>224.7</ele>
        <time>2022-01-15T14:33:34Z</time>
      </trkpt>
      <trkpt lat="44.50421" lon="1.39974">
        <ele>224.1</ele>
        <time>2022-01-15T14:33:35Z</time>
      </trkpt>
      <trkpt lat="44.50425" lon="1.39975">
        <ele>223.6</ele>
        <time>2022-01-15T14:33:36Z</time>
      </trkpt>
      <trkpt lat="44.50426" lon="1.39975">
        <ele>223.2</ele>
        <time>2022-01-15T14:33:37Z</time>
      </trkpt>
      <trkpt lat="44.5043" lon="1.39971">
        <ele>222.9</ele>
        <time>2022-01-15T14:33:39Z</time>
      </trkpt>
      <trkpt lat="44.50433" lon="1.39967">
        <ele>222.7</ele>
        <time>2022-01-15T14:33:40Z</time>
      </trkpt>
      <trkpt lat="44.50436" lon="1.39963">
        <ele>222.5</ele>
        <time>2022-01-15T14:33:41Z</time>
      </trkpt>
      <trkpt lat="44.50442" lon="1.3996">
        <ele>222.2</ele>
        <time>2022-01-15T14:33:43Z</time>
      </trkpt>
      <trkpt lat="44.50448" lon="1.39958">
        <ele>221.7</ele>
        <time>2022-01-15T14:33:44Z</time>
      </trkpt>
      <trkpt lat="44.50454" lon="1.39955">
        <ele>221.5</ele>
        <time>2022-01-15T14:33:45Z</time>
      </trkpt>
      <trkpt lat="44.50459" lon="1.39952">
        <ele>221.1</ele>
        <time>2022-01-15T14:33:46Z</time>
      </trkpt>
      <trkpt lat="44.5046" lon="1.39949">
        <ele>221.2</ele>
        <time>2022-01-15T14:33:47Z</time>
      </trkpt>
      <trkpt lat="44.50461" lon="1.39947">
        <ele>221.1</ele>
        <time>2022-01-15T14:33:48Z</time>
      </trkpt>
      <trkpt lat="44.50463" lon="1.39946">
        <ele>221</ele>
        <time>2022-01-15T14:33:50Z</time>
      </trkpt>
      <trkpt lat="44.50464" lon="1.39946">
        <ele>221</ele>
        <time>2022-01-15T14:33:51Z</time>
      </trkpt>
      <trkpt lat="44.50464" lon="1.39946">
        <ele>220.9</ele>
        <time>2022-01-15T14:33:52Z</time>
      </trkpt>
      <trkpt lat="44.50465" lon="1.39946">
        <ele>220.9</ele>
        <time>2022-01-15T14:33:53Z</time>
      </trkpt>
      <trkpt lat="44.50473" lon="1.39946">
        <ele>219.9</ele>
        <time>2022-01-15T14:33:54Z</time>
      </trkpt>
      <trkpt lat="44.50479" lon="1.39946">
        <ele>219</ele>
        <time>2022-01-15T14:33:56Z</time>
      </trkpt>
      <trkpt lat="44.50486" lon="1.39947">
        <ele>218.1</ele>
        <time>2022-01-15T14:33:57Z</time>
      </trkpt>
      <trkpt lat="44.50491" lon="1.39948">
        <ele>216.7</ele>
        <time>2022-01-15T14:33:58Z</time>
      </trkpt>
      <trkpt lat="44.50495" lon="1.39946">
        <ele>216.3</ele>
        <time>2022-01-15T14:33:59Z</time>
      </trkpt>
      <trkpt lat="44.50498" lon="1.39945">
        <ele>215.6</ele>
        <time>2022-01-15T14:34:00Z</time>
      </trkpt>
      <trkpt lat="44.50501" lon="1.39941">
        <ele>215.1</ele>
        <time>2022-01-15T14:34:01Z</time>
      </trkpt>
      <trkpt lat="44.50504" lon="1.39938">
        <ele>214.6</ele>
        <time>2022-01-15T14:34:02Z</time>
      </trkpt>
      <trkpt lat="44.50507" lon="1.39935">
        <ele>214</ele>
        <time>2022-01-15T14:34:03Z</time>
      </trkpt>
      <trkpt lat="44.50508" lon="1.39933">
        <ele>213.5</ele>
        <time>2022-01-15T14:34:04Z</time>
      </trkpt>
      <trkpt lat="44.5051" lon="1.39928">
        <ele>213.6</ele>
        <time>2022-01-15T14:34:05Z</time>
      </trkpt>
      <trkpt lat="44.50511" lon="1.39927">
        <ele>213</ele>
        <time>2022-01-15T14:34:07Z</time>
      </trkpt>
      <trkpt lat="44.50512" lon="1.39925">
        <ele>213.1</ele>
        <time>2022-01-15T14:34:08Z</time>
      </trkpt>
      <trkpt lat="44.50513" lon="1.39922">
        <ele>213</ele>
        <time>2022-01-15T14:34:09Z</time>
      </trkpt>
      <trkpt lat="44.50514" lon="1.3992">
        <ele>212.6</ele>
        <time>2022-01-15T14:34:10Z</time>
      </trkpt>
      <trkpt lat="44.50515" lon="1.39917">
        <ele>212.6</ele>
        <time>2022-01-15T14:34:11Z</time>
      </trkpt>
      <trkpt lat="44.50516" lon="1.39915">
        <ele>212.7</ele>
        <time>2022-01-15T14:34:13Z</time>
      </trkpt>
      <trkpt lat="44.50516" lon="1.39912">
        <ele>212.7</ele>
        <time>2022-01-15T14:34:14Z</time>
      </trkpt>
      <trkpt lat="44.50517" lon="1.3991">
        <ele>212.2</ele>
        <time>2022-01-15T14:34:16Z</time>
      </trkpt>
      <trkpt lat="44.50518" lon="1.39907">
        <ele>212.2</ele>
        <time>2022-01-15T14:34:31Z</time>
      </trkpt>
      <trkpt lat="44.50519" lon="1.39905">
        <ele>212.1</ele>
        <time>2022-01-15T14:34:32Z</time>
      </trkpt>
      <trkpt lat="44.50525" lon="1.39904">
        <ele>211.1</ele>
        <time>2022-01-15T14:34:34Z</time>
      </trkpt>
      <trkpt lat="44.50531" lon="1.39899">
        <ele>210</ele>
        <time>2022-01-15T14:34:35Z</time>
      </trkpt>
      <trkpt lat="44.50535" lon="1.39893">
        <ele>209</ele>
        <time>2022-01-15T14:34:36Z</time>
      </trkpt>
      <trkpt lat="44.50538" lon="1.39885">
        <ele>208.2</ele>
        <time>2022-01-15T14:34:37Z</time>
      </trkpt>
      <trkpt lat="44.5054" lon="1.39877">
        <ele>207.7</ele>
        <time>2022-01-15T14:34:38Z</time>
      </trkpt>
      <trkpt lat="44.50542" lon="1.39871">
        <ele>206.9</ele>
        <time>2022-01-15T14:34:39Z</time>
      </trkpt>
      <trkpt lat="44.50546" lon="1.39865">
        <ele>205.9</ele>
        <time>2022-01-15T14:34:40Z</time>
      </trkpt>
      <trkpt lat="44.5055" lon="1.39858">
        <ele>205</ele>
        <time>2022-01-15T14:34:41Z</time>
      </trkpt>
      <trkpt lat="44.50551" lon="1.39851">
        <ele>203.9</ele>
        <time>2022-01-15T14:34:42Z</time>
      </trkpt>
      <trkpt lat="44.50552" lon="1.39843">
        <ele>203.1</ele>
        <time>2022-01-15T14:34:43Z</time>
      </trkpt>
      <trkpt lat="44.50554" lon="1.39835">
        <ele>201.8</ele>
        <time>2022-01-15T14:34:44Z</time>
      </trkpt>
      <trkpt lat="44.50557" lon="1.39828">
        <ele>200.9</ele>
        <time>2022-01-15T14:34:45Z</time>
      </trkpt>
      <trkpt lat="44.5056" lon="1.3982">
        <ele>199.7</ele>
        <time>2022-01-15T14:34:46Z</time>
      </trkpt>
      <trkpt lat="44.50561" lon="1.39813">
        <ele>198.9</ele>
        <time>2022-01-15T14:34:47Z</time>
      </trkpt>
      <trkpt lat="44.50561" lon="1.39809">
        <ele>198.4</ele>
        <time>2022-01-15T14:34:48Z</time>
      </trkpt>
      <trkpt lat="44.50563" lon="1.39804">
        <ele>197.5</ele>
        <time>2022-01-15T14:34:49Z</time>
      </trkpt>
      <trkpt lat="44.50566" lon="1.39802">
        <ele>197.2</ele>
        <time>2022-01-15T14:34:50Z</time>
      </trkpt>
      <trkpt lat="44.5057" lon="1.398">
        <ele>196.4</ele>
        <time>2022-01-15T14:34:51Z</time>
      </trkpt>
      <trkpt lat="44.50575" lon="1.39798">
        <ele>195.9</ele>
        <time>2022-01-15T14:34:52Z</time>
      </trkpt>
      <trkpt lat="44.5058" lon="1.39794">
        <ele>195.3</ele>
        <time>2022-01-15T14:34:53Z</time>
      </trkpt>
      <trkpt lat="44.5058" lon="1.39789">
        <ele>194.8</ele>
        <time>2022-01-15T14:34:54Z</time>
      </trkpt>
      <trkpt lat="44.5058" lon="1.39786">
        <ele>194.3</ele>
        <time>2022-01-15T14:34:55Z</time>
      </trkpt>
      <trkpt lat="44.50582" lon="1.39777">
        <ele>193.3</ele>
        <time>2022-01-15T14:34:56Z</time>
      </trkpt>
      <trkpt lat="44.50584" lon="1.39767">
        <ele>192.4</ele>
        <time>2022-01-15T14:34:57Z</time>
      </trkpt>
      <trkpt lat="44.50584" lon="1.39757">
        <ele>190.8</ele>
        <time>2022-01-15T14:34:58Z</time>
      </trkpt>
      <trkpt lat="44.50583" lon="1.39747">
        <ele>189.6</ele>
        <time>2022-01-15T14:34:59Z</time>
      </trkpt>
      <trkpt lat="44.50582" lon="1.39737">
        <ele>188.5</ele>
        <time>2022-01-15T14:35:00Z</time>
      </trkpt>
      <trkpt lat="44.5058" lon="1.39729">
        <ele>187.4</ele>
        <time>2022-01-15T14:35:01Z</time>
      </trkpt>
      <trkpt lat="44.50579" lon="1.39721">
        <ele>186.4</ele>
        <time>2022-01-15T14:35:02Z</time>
      </trkpt>
      <trkpt lat="44.50581" lon="1.39715">
        <ele>185.5</ele>
        <time>2022-01-15T14:35:03Z</time>
      </trkpt>
      <trkpt lat="44.50583" lon="1.39709">
        <ele>185</ele>
        <time>2022-01-15T14:35:04Z</time>
      </trkpt>
      <trkpt lat="44.50587" lon="1.39705">
        <ele>184.7</ele>
        <time>2022-01-15T14:35:05Z</time>
      </trkpt>
      <trkpt lat="44.50589" lon="1.397">
        <ele>184.4</ele>
        <time>2022-01-15T14:35:06Z</time>
      </trkpt>
      <trkpt lat="44.50591" lon="1.39696">
        <ele>184.3</ele>
        <time>2022-01-15T14:35:07Z</time>
      </trkpt>
      <trkpt lat="44.50594" lon="1.39689">
        <ele>184</ele>
        <time>2022-01-15T14:35:08Z</time>
      </trkpt>
      <trkpt lat="44.50598" lon="1.39686">
        <ele>184.3</ele>
        <time>2022-01-15T14:35:10Z</time>
      </trkpt>
      <trkpt lat="44.506" lon="1.39686">
        <ele>184.6</ele>
        <time>2022-01-15T14:35:11Z</time>
      </trkpt>
      <trkpt lat="44.50602" lon="1.39686">
        <ele>184.6</ele>
        <time>2022-01-15T14:35:12Z</time>
      </trkpt>
      <trkpt lat="44.50599" lon="1.39686">
        <ele>184.2</ele>
        <time>2022-01-15T14:35:14Z</time>
      </trkpt>
      <trkpt lat="44.50598" lon="1.39685">
        <ele>183.9</ele>
        <time>2022-01-15T14:35:15Z</time>
      </trkpt>
      <trkpt lat="44.50597" lon="1.39683">
        <ele>183.8</ele>
        <time>2022-01-15T14:35:16Z</time>
      </trkpt>
      <trkpt lat="44.50596" lon="1.39682">
        <ele>183.4</ele>
        <time>2022-01-15T14:35:17Z</time>
      </trkpt>
      <trkpt lat="44.50595" lon="1.39681">
        <ele>183.1</ele>
        <time>2022-01-15T14:35:18Z</time>
      </trkpt>
      <trkpt lat="44.50594" lon="1.39679">
        <ele>183.1</ele>
        <time>2022-01-15T14:35:19Z</time>
      </trkpt>
      <trkpt lat="44.50592" lon="1.39678">
        <ele>182.7</ele>
        <time>2022-01-15T14:35:20Z</time>
      </trkpt>
      <trkpt lat="44.50591" lon="1.39677">
        <ele>182.7</ele>
        <time>2022-01-15T14:35:21Z</time>
      </trkpt>
      <trkpt lat="44.5059" lon="1.39676">
        <ele>182</ele>
        <time>2022-01-15T14:35:22Z</time>
      </trkpt>
      <trkpt lat="44.50589" lon="1.39674">
        <ele>182</ele>
        <time>2022-01-15T14:38:30Z</time>
      </trkpt>
      <trkpt lat="44.50588" lon="1.39673">
        <ele>181.9</ele>
        <time>2022-01-15T14:38:31Z</time>
      </trkpt>
      <trkpt lat="44.50587" lon="1.39672">
        <ele>181.3</ele>
        <time>2022-01-15T14:38:32Z</time>
      </trkpt>
      <trkpt lat="44.50584" lon="1.3967">
        <ele>181</ele>
        <time>2022-01-15T14:38:33Z</time>
      </trkpt>
      <trkpt lat="44.50583" lon="1.39669">
        <ele>180.9</ele>
        <time>2022-01-15T14:38:34Z</time>
      </trkpt>
      <trkpt lat="44.50579" lon="1.39668">
        <ele>180.6</ele>
        <time>2022-01-15T14:38:35Z</time>
      </trkpt>
      <trkpt lat="44.50578" lon="1.39668">
        <ele>180.6</ele>
        <time>2022-01-15T14:38:36Z</time>
      </trkpt>
      <trkpt lat="44.50576" lon="1.39668">
        <ele>180.3</ele>
        <time>2022-01-15T14:38:37Z</time>
      </trkpt>
      <trkpt lat="44.50574" lon="1.39668">
        <ele>180</ele>
        <time>2022-01-15T14:38:38Z</time>
      </trkpt>
      <trkpt lat="44.50572" lon="1.39668">
        <ele>179.7</ele>
        <time>2022-01-15T14:38:39Z</time>
      </trkpt>
      <trkpt lat="44.50571" lon="1.39668">
        <ele>179.5</ele>
        <time>2022-01-15T14:38:40Z</time>
      </trkpt>
      <trkpt lat="44.5057" lon="1.39667">
        <ele>179.5</ele>
        <time>2022-01-15T14:38:41Z</time>
      </trkpt>
      <trkpt lat="44.50567" lon="1.39667">
        <ele>179.3</ele>
        <time>2022-01-15T14:38:42Z</time>
      </trkpt>
      <trkpt lat="44.50565" lon="1.39666">
        <ele>179.2</ele>
        <time>2022-01-15T14:38:43Z</time>
      </trkpt>
      <trkpt lat="44.50562" lon="1.39665">
        <ele>179.1</ele>
        <time>2022-01-15T14:38:44Z</time>
      </trkpt>
      <trkpt lat="44.50561" lon="1.39665">
        <ele>179.1</ele>
        <time>2022-01-15T14:38:45Z</time>
      </trkpt>
      <trkpt lat="44.50558" lon="1.39663">
        <ele>178.7</ele>
        <time>2022-01-15T14:38:46Z</time>
      </trkpt>
      <trkpt lat="44.50557" lon="1.39663">
        <ele>178.6</ele>
        <time>2022-01-15T14:38:47Z</time>
      </trkpt>
      <trkpt lat="44.50555" lon="1.39661">
        <ele>178.6</ele>
        <time>2022-01-15T14:38:48Z</time>
      </trkpt>
      <trkpt lat="44.50554" lon="1.3966">
        <ele>178.5</ele>
        <time>2022-01-15T14:38:49Z</time>
      </trkpt>
      <trkpt lat="44.50551" lon="1.39657">
        <ele>178.2</ele>
        <time>2022-01-15T14:38:50Z</time>
      </trkpt>
      <trkpt lat="44.5055" lon="1.39656">
        <ele>178.2</ele>
        <time>2022-01-15T14:38:51Z</time>
      </trkpt>
      <trkpt lat="44.50549" lon="1.39652">
        <ele>177.7</ele>
        <time>2022-01-15T14:38:52Z</time>
      </trkpt>
      <trkpt lat="44.50548" lon="1.39651">
        <ele>177.3</ele>
        <time>2022-01-15T14:38:53Z</time>
      </trkpt>
      <trkpt lat="44.50547" lon="1.39646">
        <ele>176.9</ele>
        <time>2022-01-15T14:38:54Z</time>
      </trkpt>
      <trkpt lat="44.50546" lon="1.39644">
        <ele>176.9</ele>
        <time>2022-01-15T14:38:55Z</time>
      </trkpt>
      <trkpt lat="44.50545" lon="1.39639">
        <ele>176.5</ele>
        <time>2022-01-15T14:38:56Z</time>
      </trkpt>
      <trkpt lat="44.50545" lon="1.39637">
        <ele>176.2</ele>
        <time>2022-01-15T14:38:57Z</time>
      </trkpt>
      <trkpt lat="44.50544" lon="1.39633">
        <ele>175.9</ele>
        <time>2022-01-15T14:38:58Z</time>
      </trkpt>
      <trkpt lat="44.50543" lon="1.39629">
        <ele>175.5</ele>
        <time>2022-01-15T14:38:59Z</time>
      </trkpt>
      <trkpt lat="44.50542" lon="1.39624">
        <ele>175.2</ele>
        <time>2022-01-15T14:39:00Z</time>
      </trkpt>
      <trkpt lat="44.50541" lon="1.3962">
        <ele>175</ele>
        <time>2022-01-15T14:39:01Z</time>
      </trkpt>
      <trkpt lat="44.5054" lon="1.39617">
        <ele>174.9</ele>
        <time>2022-01-15T14:39:02Z</time>
      </trkpt>
      <trkpt lat="44.50539" lon="1.39612">
        <ele>174.3</ele>
        <time>2022-01-15T14:39:03Z</time>
      </trkpt>
      <trkpt lat="44.50539" lon="1.3961">
        <ele>174.3</ele>
        <time>2022-01-15T14:39:04Z</time>
      </trkpt>
      <trkpt lat="44.50538" lon="1.39606">
        <ele>174</ele>
        <time>2022-01-15T14:39:05Z</time>
      </trkpt>
      <trkpt lat="44.50537" lon="1.396">
        <ele>173.7</ele>
        <time>2022-01-15T14:39:06Z</time>
      </trkpt>
      <trkpt lat="44.50537" lon="1.39599">
        <ele>173.4</ele>
        <time>2022-01-15T14:39:07Z</time>
      </trkpt>
      <trkpt lat="44.50537" lon="1.39595">
        <ele>173.2</ele>
        <time>2022-01-15T14:39:08Z</time>
      </trkpt>
      <trkpt lat="44.50537" lon="1.39591">
        <ele>173.1</ele>
        <time>2022-01-15T14:39:09Z</time>
      </trkpt>
      <trkpt lat="44.50537" lon="1.39586">
        <ele>172.7</ele>
        <time>2022-01-15T14:39:10Z</time>
      </trkpt>
      <trkpt lat="44.50536" lon="1.39584">
        <ele>172.7</ele>
        <time>2022-01-15T14:39:11Z</time>
      </trkpt>
      <trkpt lat="44.50536" lon="1.3958">
        <ele>172.5</ele>
        <time>2022-01-15T14:39:12Z</time>
      </trkpt>
      <trkpt lat="44.50536" lon="1.39576">
        <ele>172.3</ele>
        <time>2022-01-15T14:39:13Z</time>
      </trkpt>
      <trkpt lat="44.50535" lon="1.3957">
        <ele>172.2</ele>
        <time>2022-01-15T14:39:14Z</time>
      </trkpt>
      <trkpt lat="44.50535" lon="1.39568">
        <ele>172.2</ele>
        <time>2022-01-15T14:39:15Z</time>
      </trkpt>
      <trkpt lat="44.50535" lon="1.39563">
        <ele>172.1</ele>
        <time>2022-01-15T14:39:16Z</time>
      </trkpt>
      <trkpt lat="44.50534" lon="1.39558">
        <ele>172.1</ele>
        <time>2022-01-15T14:39:17Z</time>
      </trkpt>
      <trkpt lat="44.50534" lon="1.39554">
        <ele>172</ele>
        <time>2022-01-15T14:39:18Z</time>
      </trkpt>
      <trkpt lat="44.50533" lon="1.39548">
        <ele>172.1</ele>
        <time>2022-01-15T14:39:19Z</time>
      </trkpt>
      <trkpt lat="44.50533" lon="1.39542">
        <ele>172.3</ele>
        <time>2022-01-15T14:39:20Z</time>
      </trkpt>
      <trkpt lat="44.50532" lon="1.39536">
        <ele>172.5</ele>
        <time>2022-01-15T14:39:21Z</time>
      </trkpt>
      <trkpt lat="44.50532" lon="1.39528">
        <ele>172.8</ele>
        <time>2022-01-15T14:39:22Z</time>
      </trkpt>
      <trkpt lat="44.50531" lon="1.39517">
        <ele>173.4</ele>
        <time>2022-01-15T14:39:23Z</time>
      </trkpt>
      <trkpt lat="44.50529" lon="1.39508">
        <ele>173.1</ele>
        <time>2022-01-15T14:39:24Z</time>
      </trkpt>
      <trkpt lat="44.50527" lon="1.39498">
        <ele>173</ele>
        <time>2022-01-15T14:39:25Z</time>
      </trkpt>
      <trkpt lat="44.50526" lon="1.39488">
        <ele>172.4</ele>
        <time>2022-01-15T14:39:26Z</time>
      </trkpt>
      <trkpt lat="44.50524" lon="1.39479">
        <ele>172.3</ele>
        <time>2022-01-15T14:39:27Z</time>
      </trkpt>
      <trkpt lat="44.50523" lon="1.3947">
        <ele>172.1</ele>
        <time>2022-01-15T14:39:28Z</time>
      </trkpt>
      <trkpt lat="44.5052" lon="1.39462">
        <ele>172.1</ele>
        <time>2022-01-15T14:39:29Z</time>
      </trkpt>
      <trkpt lat="44.50518" lon="1.39453">
        <ele>171.9</ele>
        <time>2022-01-15T14:39:30Z</time>
      </trkpt>
      <trkpt lat="44.50515" lon="1.39445">
        <ele>171.6</ele>
        <time>2022-01-15T14:39:31Z</time>
      </trkpt>
      <trkpt lat="44.50513" lon="1.39436">
        <ele>171.3</ele>
        <time>2022-01-15T14:39:32Z</time>
      </trkpt>
      <trkpt lat="44.5051" lon="1.39428">
        <ele>171</ele>
        <time>2022-01-15T14:39:33Z</time>
      </trkpt>
      <trkpt lat="44.50507" lon="1.39421">
        <ele>170.5</ele>
        <time>2022-01-15T14:39:34Z</time>
      </trkpt>
      <trkpt lat="44.50505" lon="1.39415">
        <ele>170.2</ele>
        <time>2022-01-15T14:39:35Z</time>
      </trkpt>
      <trkpt lat="44.50504" lon="1.39411">
        <ele>169.9</ele>
        <time>2022-01-15T14:39:36Z</time>
      </trkpt>
      <trkpt lat="44.50503" lon="1.39407">
        <ele>169.7</ele>
        <time>2022-01-15T14:39:37Z</time>
      </trkpt>
      <trkpt lat="44.50503" lon="1.39403">
        <ele>169.4</ele>
        <time>2022-01-15T14:39:38Z</time>
      </trkpt>
      <trkpt lat="44.50502" lon="1.39402">
        <ele>169.5</ele>
        <time>2022-01-15T14:39:39Z</time>
      </trkpt>
      <trkpt lat="44.50501" lon="1.39398">
        <ele>169.6</ele>
        <time>2022-01-15T14:39:40Z</time>
      </trkpt>
      <trkpt lat="44.505" lon="1.39397">
        <ele>169.7</ele>
        <time>2022-01-15T14:39:41Z</time>
      </trkpt>
      <trkpt lat="44.50497" lon="1.39397">
        <ele>169.8</ele>
        <time>2022-01-15T14:39:42Z</time>
      </trkpt>
      <trkpt lat="44.50493" lon="1.39394">
        <ele>169.9</ele>
        <time>2022-01-15T14:39:44Z</time>
      </trkpt>
      <trkpt lat="44.5049" lon="1.39392">
        <ele>170</ele>
        <time>2022-01-15T14:39:45Z</time>
      </trkpt>
      <trkpt lat="44.50487" lon="1.39388">
        <ele>170</ele>
        <time>2022-01-15T14:39:46Z</time>
      </trkpt>
      <trkpt lat="44.50484" lon="1.39386">
        <ele>170</ele>
        <time>2022-01-15T14:39:47Z</time>
      </trkpt>
      <trkpt lat="44.50481" lon="1.39384">
        <ele>170</ele>
        <time>2022-01-15T14:39:48Z</time>
      </trkpt>
      <trkpt lat="44.50478" lon="1.39381">
        <ele>170</ele>
        <time>2022-01-15T14:39:49Z</time>
      </trkpt>
      <trkpt lat="44.50475" lon="1.39378">
        <ele>169.9</ele>
        <time>2022-01-15T14:39:51Z</time>
      </trkpt>
      <trkpt lat="44.50471" lon="1.39373">
        <ele>169.8</ele>
        <time>2022-01-15T14:39:52Z</time>
      </trkpt>
      <trkpt lat="44.50468" lon="1.3937">
        <ele>169.7</ele>
        <time>2022-01-15T14:39:53Z</time>
      </trkpt>
      <trkpt lat="44.50465" lon="1.39368">
        <ele>169.6</ele>
        <time>2022-01-15T14:39:54Z</time>
      </trkpt>
      <trkpt lat="44.5046" lon="1.39363">
        <ele>169.4</ele>
        <time>2022-01-15T14:39:55Z</time>
      </trkpt>
      <trkpt lat="44.50454" lon="1.39358">
        <ele>169.2</ele>
        <time>2022-01-15T14:39:57Z</time>
      </trkpt>
      <trkpt lat="44.5045" lon="1.39354">
        <ele>169.1</ele>
        <time>2022-01-15T14:39:58Z</time>
      </trkpt>
      <trkpt lat="44.50446" lon="1.39351">
        <ele>168.9</ele>
        <time>2022-01-15T14:39:59Z</time>
      </trkpt>
      <trkpt lat="44.50442" lon="1.39348">
        <ele>168.7</ele>
        <time>2022-01-15T14:40:00Z</time>
      </trkpt>
      <trkpt lat="44.50437" lon="1.39344">
        <ele>168.6</ele>
        <time>2022-01-15T14:40:01Z</time>
      </trkpt>
      <trkpt lat="44.50433" lon="1.39342">
        <ele>168.4</ele>
        <time>2022-01-15T14:40:02Z</time>
      </trkpt>
      <trkpt lat="44.50428" lon="1.39341">
        <ele>168.4</ele>
        <time>2022-01-15T14:40:04Z</time>
      </trkpt>
      <trkpt lat="44.50427" lon="1.39341">
        <ele>168.3</ele>
        <time>2022-01-15T14:40:05Z</time>
      </trkpt>
      <trkpt lat="44.50425" lon="1.3934">
        <ele>168.3</ele>
        <time>2022-01-15T14:40:06Z</time>
      </trkpt>
      <trkpt lat="44.50423" lon="1.3934">
        <ele>168.4</ele>
        <time>2022-01-15T14:40:08Z</time>
      </trkpt>
      <trkpt lat="44.50422" lon="1.3934">
        <ele>168.4</ele>
        <time>2022-01-15T14:40:09Z</time>
      </trkpt>
      <trkpt lat="44.50421" lon="1.39339">
        <ele>168.4</ele>
        <time>2022-01-15T14:40:10Z</time>
      </trkpt>
      <trkpt lat="44.50423" lon="1.39342">
        <ele>168.4</ele>
        <time>2022-01-15T14:40:11Z</time>
      </trkpt>
      <trkpt lat="44.50424" lon="1.39342">
        <ele>168.5</ele>
        <time>2022-01-15T14:40:13Z</time>
      </trkpt>
      <trkpt lat="44.50426" lon="1.39342">
        <ele>168.5</ele>
        <time>2022-01-15T14:40:14Z</time>
      </trkpt>
      <trkpt lat="44.50427" lon="1.39342">
        <ele>168.5</ele>
        <time>2022-01-15T14:40:15Z</time>
      </trkpt>
      <trkpt lat="44.50431" lon="1.39343">
        <ele>168.6</ele>
        <time>2022-01-15T14:40:16Z</time>
      </trkpt>
      <trkpt lat="44.50432" lon="1.39344">
        <ele>168.7</ele>
        <time>2022-01-15T14:40:17Z</time>
      </trkpt>
      <trkpt lat="44.50435" lon="1.39345">
        <ele>168.8</ele>
        <time>2022-01-15T14:40:18Z</time>
      </trkpt>
      <trkpt lat="44.50439" lon="1.39347">
        <ele>168.9</ele>
        <time>2022-01-15T14:40:19Z</time>
      </trkpt>
      <trkpt lat="44.50442" lon="1.39348">
        <ele>169</ele>
        <time>2022-01-15T14:40:20Z</time>
      </trkpt>
      <trkpt lat="44.50445" lon="1.39351">
        <ele>169.1</ele>
        <time>2022-01-15T14:40:21Z</time>
      </trkpt>
      <trkpt lat="44.50449" lon="1.39354">
        <ele>169.3</ele>
        <time>2022-01-15T14:40:23Z</time>
      </trkpt>
      <trkpt lat="44.50451" lon="1.39357">
        <ele>169.4</ele>
        <time>2022-01-15T14:40:24Z</time>
      </trkpt>
      <trkpt lat="44.50453" lon="1.3936">
        <ele>169.5</ele>
        <time>2022-01-15T14:40:25Z</time>
      </trkpt>
      <trkpt lat="44.50458" lon="1.39363">
        <ele>169.6</ele>
        <time>2022-01-15T14:40:26Z</time>
      </trkpt>
      <trkpt lat="44.50462" lon="1.39366">
        <ele>169.7</ele>
        <time>2022-01-15T14:40:28Z</time>
      </trkpt>
      <trkpt lat="44.50466" lon="1.3937">
        <ele>169.8</ele>
        <time>2022-01-15T14:40:29Z</time>
      </trkpt>
      <trkpt lat="44.5047" lon="1.39373">
        <ele>169.9</ele>
        <time>2022-01-15T14:40:30Z</time>
      </trkpt>
      <trkpt lat="44.50475" lon="1.39377">
        <ele>170</ele>
        <time>2022-01-15T14:40:31Z</time>
      </trkpt>
      <trkpt lat="44.50479" lon="1.39382">
        <ele>170</ele>
        <time>2022-01-15T14:40:32Z</time>
      </trkpt>
      <trkpt lat="44.50483" lon="1.39386">
        <ele>170</ele>
        <time>2022-01-15T14:40:33Z</time>
      </trkpt>
      <trkpt lat="44.50488" lon="1.3939">
        <ele>169.9</ele>
        <time>2022-01-15T14:40:34Z</time>
      </trkpt>
      <trkpt lat="44.50492" lon="1.39394">
        <ele>169.8</ele>
        <time>2022-01-15T14:40:35Z</time>
      </trkpt>
      <trkpt lat="44.50496" lon="1.39397">
        <ele>169.6</ele>
        <time>2022-01-15T14:40:36Z</time>
      </trkpt>
      <trkpt lat="44.50501" lon="1.39398">
        <ele>169.4</ele>
        <time>2022-01-15T14:40:37Z</time>
      </trkpt>
      <trkpt lat="44.50506" lon="1.39397">
        <ele>169.1</ele>
        <time>2022-01-15T14:40:38Z</time>
      </trkpt>
      <trkpt lat="44.50511" lon="1.39394">
        <ele>168.8</ele>
        <time>2022-01-15T14:40:39Z</time>
      </trkpt>
      <trkpt lat="44.50516" lon="1.39388">
        <ele>168.6</ele>
        <time>2022-01-15T14:40:40Z</time>
      </trkpt>
      <trkpt lat="44.5052" lon="1.39382">
        <ele>168.4</ele>
        <time>2022-01-15T14:40:41Z</time>
      </trkpt>
      <trkpt lat="44.50524" lon="1.39375">
        <ele>168.2</ele>
        <time>2022-01-15T14:40:42Z</time>
      </trkpt>
      <trkpt lat="44.50528" lon="1.39368">
        <ele>168.1</ele>
        <time>2022-01-15T14:40:43Z</time>
      </trkpt>
      <trkpt lat="44.50532" lon="1.39361">
        <ele>168</ele>
        <time>2022-01-15T14:40:44Z</time>
      </trkpt>
      <trkpt lat="44.50535" lon="1.39354">
        <ele>168</ele>
        <time>2022-01-15T14:40:45Z</time>
      </trkpt>
      <trkpt lat="44.50539" lon="1.39348">
        <ele>168</ele>
        <time>2022-01-15T14:40:46Z</time>
      </trkpt>
      <trkpt lat="44.50543" lon="1.39341">
        <ele>168</ele>
        <time>2022-01-15T14:40:47Z</time>
      </trkpt>
      <trkpt lat="44.50547" lon="1.39336">
        <ele>168</ele>
        <time>2022-01-15T14:40:48Z</time>
      </trkpt>
      <trkpt lat="44.5055" lon="1.39332">
        <ele>168.1</ele>
        <time>2022-01-15T14:40:49Z</time>
      </trkpt>
      <trkpt lat="44.50552" lon="1.39328">
        <ele>168.1</ele>
        <time>2022-01-15T14:40:50Z</time>
      </trkpt>
      <trkpt lat="44.50555" lon="1.39324">
        <ele>168.2</ele>
        <time>2022-01-15T14:40:51Z</time>
      </trkpt>
      <trkpt lat="44.50557" lon="1.39319">
        <ele>168.3</ele>
        <time>2022-01-15T14:40:52Z</time>
      </trkpt>
      <trkpt lat="44.5056" lon="1.39314">
        <ele>168.3</ele>
        <time>2022-01-15T14:40:53Z</time>
      </trkpt>
      <trkpt lat="44.50562" lon="1.39308">
        <ele>168.2</ele>
        <time>2022-01-15T14:40:54Z</time>
      </trkpt>
      <trkpt lat="44.50564" lon="1.39302">
        <ele>168</ele>
        <time>2022-01-15T14:40:55Z</time>
      </trkpt>
      <trkpt lat="44.50565" lon="1.39298">
        <ele>167.9</ele>
        <time>2022-01-15T14:40:56Z</time>
      </trkpt>
      <trkpt lat="44.50566" lon="1.39294">
        <ele>167.8</ele>
        <time>2022-01-15T14:40:57Z</time>
      </trkpt>
      <trkpt lat="44.50566" lon="1.39286">
        <ele>167.5</ele>
        <time>2022-01-15T14:40:58Z</time>
      </trkpt>
      <trkpt lat="44.50566" lon="1.3928">
        <ele>167.3</ele>
        <time>2022-01-15T14:40:59Z</time>
      </trkpt>
      <trkpt lat="44.50567" lon="1.39273">
        <ele>167.1</ele>
        <time>2022-01-15T14:41:00Z</time>
      </trkpt>
      <trkpt lat="44.50567" lon="1.39266">
        <ele>166.8</ele>
        <time>2022-01-15T14:41:02Z</time>
      </trkpt>
      <trkpt lat="44.50567" lon="1.3926">
        <ele>166.5</ele>
        <time>2022-01-15T14:41:03Z</time>
      </trkpt>
      <trkpt lat="44.50568" lon="1.39255">
        <ele>166.3</ele>
        <time>2022-01-15T14:41:04Z</time>
      </trkpt>
      <trkpt lat="44.50569" lon="1.3925">
        <ele>166.1</ele>
        <time>2022-01-15T14:41:05Z</time>
      </trkpt>
      <trkpt lat="44.5057" lon="1.39248">
        <ele>166.1</ele>
        <time>2022-01-15T14:41:06Z</time>
      </trkpt>
      <trkpt lat="44.5057" lon="1.39246">
        <ele>166.2</ele>
        <time>2022-01-15T14:41:08Z</time>
      </trkpt>
      <trkpt lat="44.5057" lon="1.39245">
        <ele>166.2</ele>
        <time>2022-01-15T14:41:09Z</time>
      </trkpt>
      <trkpt lat="44.5057" lon="1.39245">
        <ele>166.2</ele>
        <time>2022-01-15T14:41:10Z</time>
      </trkpt>
      <trkpt lat="44.5057" lon="1.39245">
        <ele>166.2</ele>
        <time>2022-01-15T14:41:11Z</time>
      </trkpt>
      <trkpt lat="44.5057" lon="1.39245">
        <ele>166.3</ele>
        <time>2022-01-15T14:41:12Z</time>
      </trkpt>
      <trkpt lat="44.5057" lon="1.39245">
        <ele>166.3</ele>
        <time>2022-01-15T14:41:13Z</time>
      </trkpt>
      <trkpt lat="44.5057" lon="1.39245">
        <ele>166.3</ele>
        <time>2022-01-15T14:41:14Z</time>
      </trkpt>
      <trkpt lat="44.5057" lon="1.39245">
        <ele>166.3</ele>
        <time>2022-01-15T14:41:15Z</time>
      </trkpt>
      <trkpt lat="44.5057" lon="1.39245">
        <ele>166.3</ele>
        <time>2022-01-15T14:41:16Z</time>
      </trkpt>
      <trkpt lat="44.5057" lon="1.39245">
        <ele>166.3</ele>
        <time>2022-01-15T14:41:17Z</time>
      </trkpt>
      <trkpt lat="44.5057" lon="1.39245">
        <ele>166.3</ele>
        <time>2022-01-15T14:41:18Z</time>
      </trkpt>
      <trkpt lat="44.50573" lon="1.39242">
        <ele>166.6</ele>
        <time>2022-01-15T14:41:52Z</time>
      </trkpt>
      <trkpt lat="44.50575" lon="1.3924">
        <ele>166.8</ele>
        <time>2022-01-15T14:41:53Z</time>
      </trkpt>
      <trkpt lat="44.50578" lon="1.39238">
        <ele>167</ele>
        <time>2022-01-15T14:41:54Z</time>
      </trkpt>
      <trkpt lat="44.5058" lon="1.39238">
        <ele>167.1</ele>
        <time>2022-01-15T14:41:55Z</time>
      </trkpt>
      <trkpt lat="44.50581" lon="1.39237">
        <ele>167.2</ele>
        <time>2022-01-15T14:41:56Z</time>
      </trkpt>
      <trkpt lat="44.50584" lon="1.39234">
        <ele>167.5</ele>
        <time>2022-01-15T14:41:57Z</time>
      </trkpt>
      <trkpt lat="44.50587" lon="1.39233">
        <ele>167.7</ele>
        <time>2022-01-15T14:41:58Z</time>
      </trkpt>
      <trkpt lat="44.5059" lon="1.39231">
        <ele>167.9</ele>
        <time>2022-01-15T14:41:59Z</time>
      </trkpt>
      <trkpt lat="44.50593" lon="1.39229">
        <ele>168.2</ele>
        <time>2022-01-15T14:42:00Z</time>
      </trkpt>
      <trkpt lat="44.50594" lon="1.39229">
        <ele>168.3</ele>
        <time>2022-01-15T14:42:01Z</time>
      </trkpt>
      <trkpt lat="44.50595" lon="1.39227">
        <ele>168.4</ele>
        <time>2022-01-15T14:42:02Z</time>
      </trkpt>
      <trkpt lat="44.50597" lon="1.39226">
        <ele>168.6</ele>
        <time>2022-01-15T14:42:03Z</time>
      </trkpt>
      <trkpt lat="44.506" lon="1.39224">
        <ele>168.8</ele>
        <time>2022-01-15T14:42:04Z</time>
      </trkpt>
      <trkpt lat="44.50601" lon="1.39223">
        <ele>168.9</ele>
        <time>2022-01-15T14:42:05Z</time>
      </trkpt>
      <trkpt lat="44.50604" lon="1.39222">
        <ele>169.2</ele>
        <time>2022-01-15T14:42:06Z</time>
      </trkpt>
      <trkpt lat="44.50605" lon="1.39221">
        <ele>169.2</ele>
        <time>2022-01-15T14:42:07Z</time>
      </trkpt>
      <trkpt lat="44.50608" lon="1.3922">
        <ele>169.4</ele>
        <time>2022-01-15T14:42:08Z</time>
      </trkpt>
      <trkpt lat="44.50609" lon="1.3922">
        <ele>169.5</ele>
        <time>2022-01-15T14:42:09Z</time>
      </trkpt>
      <trkpt lat="44.50612" lon="1.39219">
        <ele>169.7</ele>
        <time>2022-01-15T14:42:10Z</time>
      </trkpt>
      <trkpt lat="44.50613" lon="1.39218">
        <ele>169.8</ele>
        <time>2022-01-15T14:42:11Z</time>
      </trkpt>
      <trkpt lat="44.50616" lon="1.39216">
        <ele>170</ele>
        <time>2022-01-15T14:42:12Z</time>
      </trkpt>
      <trkpt lat="44.50617" lon="1.39215">
        <ele>170.1</ele>
        <time>2022-01-15T14:42:13Z</time>
      </trkpt>
      <trkpt lat="44.5062" lon="1.39214">
        <ele>170.4</ele>
        <time>2022-01-15T14:42:14Z</time>
      </trkpt>
      <trkpt lat="44.50622" lon="1.39213">
        <ele>170.4</ele>
        <time>2022-01-15T14:42:15Z</time>
      </trkpt>
      <trkpt lat="44.50623" lon="1.39213">
        <ele>170.5</ele>
        <time>2022-01-15T14:42:16Z</time>
      </trkpt>
      <trkpt lat="44.50625" lon="1.39212">
        <ele>170.7</ele>
        <time>2022-01-15T14:42:17Z</time>
      </trkpt>
      <trkpt lat="44.50628" lon="1.39211">
        <ele>170.9</ele>
        <time>2022-01-15T14:42:18Z</time>
      </trkpt>
      <trkpt lat="44.50629" lon="1.39211">
        <ele>171</ele>
        <time>2022-01-15T14:42:19Z</time>
      </trkpt>
      <trkpt lat="44.50632" lon="1.3921">
        <ele>171.2</ele>
        <time>2022-01-15T14:42:20Z</time>
      </trkpt>
      <trkpt lat="44.50633" lon="1.3921">
        <ele>171.3</ele>
        <time>2022-01-15T14:42:21Z</time>
      </trkpt>
      <trkpt lat="44.50636" lon="1.39208">
        <ele>171.4</ele>
        <time>2022-01-15T14:42:22Z</time>
      </trkpt>
      <trkpt lat="44.50637" lon="1.39208">
        <ele>171.5</ele>
        <time>2022-01-15T14:42:23Z</time>
      </trkpt>
      <trkpt lat="44.50641" lon="1.39205">
        <ele>171.8</ele>
        <time>2022-01-15T14:42:25Z</time>
      </trkpt>
      <trkpt lat="44.50644" lon="1.39205">
        <ele>172</ele>
        <time>2022-01-15T14:42:26Z</time>
      </trkpt>
      <trkpt lat="44.50647" lon="1.39203">
        <ele>172.2</ele>
        <time>2022-01-15T14:42:27Z</time>
      </trkpt>
      <trkpt lat="44.50648" lon="1.39203">
        <ele>172.3</ele>
        <time>2022-01-15T14:42:28Z</time>
      </trkpt>
      <trkpt lat="44.50651" lon="1.392">
        <ele>172.5</ele>
        <time>2022-01-15T14:42:29Z</time>
      </trkpt>
      <trkpt lat="44.50652" lon="1.392">
        <ele>172.5</ele>
        <time>2022-01-15T14:42:30Z</time>
      </trkpt>
      <trkpt lat="44.50655" lon="1.39198">
        <ele>172.7</ele>
        <time>2022-01-15T14:42:31Z</time>
      </trkpt>
      <trkpt lat="44.50656" lon="1.39197">
        <ele>172.8</ele>
        <time>2022-01-15T14:42:32Z</time>
      </trkpt>
      <trkpt lat="44.50659" lon="1.39195">
        <ele>173</ele>
        <time>2022-01-15T14:42:33Z</time>
      </trkpt>
      <trkpt lat="44.5066" lon="1.39195">
        <ele>173.1</ele>
        <time>2022-01-15T14:42:34Z</time>
      </trkpt>
      <trkpt lat="44.50662" lon="1.39193">
        <ele>173.2</ele>
        <time>2022-01-15T14:42:35Z</time>
      </trkpt>
      <trkpt lat="44.50663" lon="1.39192">
        <ele>173.3</ele>
        <time>2022-01-15T14:42:36Z</time>
      </trkpt>
      <trkpt lat="44.50666" lon="1.39191">
        <ele>173.5</ele>
        <time>2022-01-15T14:42:37Z</time>
      </trkpt>
      <trkpt lat="44.50667" lon="1.39191">
        <ele>173.6</ele>
        <time>2022-01-15T14:42:38Z</time>
      </trkpt>
      <trkpt lat="44.50671" lon="1.39189">
        <ele>173.8</ele>
        <time>2022-01-15T14:42:40Z</time>
      </trkpt>
      <trkpt lat="44.50674" lon="1.39188">
        <ele>174</ele>
        <time>2022-01-15T14:42:41Z</time>
      </trkpt>
      <trkpt lat="44.50676" lon="1.39188">
        <ele>174.1</ele>
        <time>2022-01-15T14:42:42Z</time>
      </trkpt>
      <trkpt lat="44.50679" lon="1.39188">
        <ele>174.3</ele>
        <time>2022-01-15T14:42:43Z</time>
      </trkpt>
      <trkpt lat="44.5068" lon="1.39187">
        <ele>174.4</ele>
        <time>2022-01-15T14:42:44Z</time>
      </trkpt>
      <trkpt lat="44.50683" lon="1.39185">
        <ele>174.6</ele>
        <time>2022-01-15T14:42:45Z</time>
      </trkpt>
      <trkpt lat="44.50684" lon="1.39185">
        <ele>174.6</ele>
        <time>2022-01-15T14:42:46Z</time>
      </trkpt>
      <trkpt lat="44.50686" lon="1.39183">
        <ele>174.8</ele>
        <time>2022-01-15T14:42:47Z</time>
      </trkpt>
      <trkpt lat="44.50687" lon="1.39183">
        <ele>174.9</ele>
        <time>2022-01-15T14:42:48Z</time>
      </trkpt>
      <trkpt lat="44.5069" lon="1.3918">
        <ele>175.1</ele>
        <time>2022-01-15T14:42:49Z</time>
      </trkpt>
      <trkpt lat="44.50692" lon="1.3918">
        <ele>175.2</ele>
        <time>2022-01-15T14:42:50Z</time>
      </trkpt>
      <trkpt lat="44.50695" lon="1.39178">
        <ele>175.4</ele>
        <time>2022-01-15T14:42:51Z</time>
      </trkpt>
      <trkpt lat="44.50696" lon="1.39178">
        <ele>175.4</ele>
        <time>2022-01-15T14:42:52Z</time>
      </trkpt>
      <trkpt lat="44.50698" lon="1.39176">
        <ele>175.6</ele>
        <time>2022-01-15T14:42:53Z</time>
      </trkpt>
      <trkpt lat="44.50699" lon="1.39176">
        <ele>175.6</ele>
        <time>2022-01-15T14:42:54Z</time>
      </trkpt>
      <trkpt lat="44.50702" lon="1.39175">
        <ele>175.8</ele>
        <time>2022-01-15T14:42:55Z</time>
      </trkpt>
      <trkpt lat="44.50703" lon="1.39174">
        <ele>175.9</ele>
        <time>2022-01-15T14:42:56Z</time>
      </trkpt>
      <trkpt lat="44.50705" lon="1.39173">
        <ele>176.1</ele>
        <time>2022-01-15T14:42:57Z</time>
      </trkpt>
      <trkpt lat="44.50706" lon="1.39172">
        <ele>176.1</ele>
        <time>2022-01-15T14:42:58Z</time>
      </trkpt>
      <trkpt lat="44.5071" lon="1.39172">
        <ele>176.4</ele>
        <time>2022-01-15T14:42:59Z</time>
      </trkpt>
      <trkpt lat="44.50711" lon="1.39172">
        <ele>176.5</ele>
        <time>2022-01-15T14:43:00Z</time>
      </trkpt>
      <trkpt lat="44.50713" lon="1.39171">
        <ele>176.7</ele>
        <time>2022-01-15T14:43:01Z</time>
      </trkpt>
      <trkpt lat="44.50717" lon="1.39169">
        <ele>176.9</ele>
        <time>2022-01-15T14:43:02Z</time>
      </trkpt>
      <trkpt lat="44.50718" lon="1.39169">
        <ele>177</ele>
        <time>2022-01-15T14:43:03Z</time>
      </trkpt>
      <trkpt lat="44.50721" lon="1.39167">
        <ele>177.2</ele>
        <time>2022-01-15T14:43:04Z</time>
      </trkpt>
      <trkpt lat="44.50722" lon="1.39166">
        <ele>177.3</ele>
        <time>2022-01-15T14:43:05Z</time>
      </trkpt>
      <trkpt lat="44.50724" lon="1.39164">
        <ele>177.5</ele>
        <time>2022-01-15T14:43:06Z</time>
      </trkpt>
      <trkpt lat="44.50725" lon="1.39164">
        <ele>177.6</ele>
        <time>2022-01-15T14:43:07Z</time>
      </trkpt>
      <trkpt lat="44.50728" lon="1.39162">
        <ele>177.8</ele>
        <time>2022-01-15T14:43:08Z</time>
      </trkpt>
      <trkpt lat="44.50729" lon="1.39161">
        <ele>177.8</ele>
        <time>2022-01-15T14:43:09Z</time>
      </trkpt>
      <trkpt lat="44.50733" lon="1.3916">
        <ele>178</ele>
        <time>2022-01-15T14:43:10Z</time>
      </trkpt>
      <trkpt lat="44.50734" lon="1.3916">
        <ele>178.1</ele>
        <time>2022-01-15T14:43:11Z</time>
      </trkpt>
      <trkpt lat="44.50737" lon="1.39158">
        <ele>178.3</ele>
        <time>2022-01-15T14:43:12Z</time>
      </trkpt>
      <trkpt lat="44.50738" lon="1.39158">
        <ele>178.4</ele>
        <time>2022-01-15T14:43:13Z</time>
      </trkpt>
      <trkpt lat="44.50742" lon="1.39156">
        <ele>178.6</ele>
        <time>2022-01-15T14:43:14Z</time>
      </trkpt>
      <trkpt lat="44.50743" lon="1.39156">
        <ele>178.7</ele>
        <time>2022-01-15T14:43:15Z</time>
      </trkpt>
      <trkpt lat="44.50746" lon="1.39154">
        <ele>178.9</ele>
        <time>2022-01-15T14:43:16Z</time>
      </trkpt>
      <trkpt lat="44.50747" lon="1.39153">
        <ele>178.9</ele>
        <time>2022-01-15T14:43:17Z</time>
      </trkpt>
      <trkpt lat="44.5075" lon="1.39151">
        <ele>179.2</ele>
        <time>2022-01-15T14:43:18Z</time>
      </trkpt>
      <trkpt lat="44.50752" lon="1.39151">
        <ele>179.2</ele>
        <time>2022-01-15T14:43:19Z</time>
      </trkpt>
      <trkpt lat="44.50755" lon="1.39149">
        <ele>179.5</ele>
        <time>2022-01-15T14:43:20Z</time>
      </trkpt>
      <trkpt lat="44.50756" lon="1.39149">
        <ele>179.5</ele>
        <time>2022-01-15T14:43:21Z</time>
      </trkpt>
      <trkpt lat="44.50759" lon="1.39148">
        <ele>179.8</ele>
        <time>2022-01-15T14:43:22Z</time>
      </trkpt>
      <trkpt lat="44.5076" lon="1.39147">
        <ele>179.8</ele>
        <time>2022-01-15T14:43:23Z</time>
      </trkpt>
      <trkpt lat="44.50764" lon="1.39146">
        <ele>180</ele>
        <time>2022-01-15T14:43:24Z</time>
      </trkpt>
      <trkpt lat="44.50765" lon="1.39146">
        <ele>180.1</ele>
        <time>2022-01-15T14:43:25Z</time>
      </trkpt>
      <trkpt lat="44.50768" lon="1.39145">
        <ele>180.3</ele>
        <time>2022-01-15T14:43:26Z</time>
      </trkpt>
      <trkpt lat="44.50769" lon="1.39144">
        <ele>180.4</ele>
        <time>2022-01-15T14:43:27Z</time>
      </trkpt>
      <trkpt lat="44.50772" lon="1.39144">
        <ele>180.6</ele>
        <time>2022-01-15T14:43:28Z</time>
      </trkpt>
      <trkpt lat="44.50773" lon="1.39144">
        <ele>180.7</ele>
        <time>2022-01-15T14:43:29Z</time>
      </trkpt>
      <trkpt lat="44.50776" lon="1.39142">
        <ele>180.9</ele>
        <time>2022-01-15T14:43:30Z</time>
      </trkpt>
      <trkpt lat="44.50777" lon="1.39142">
        <ele>180.9</ele>
        <time>2022-01-15T14:43:31Z</time>
      </trkpt>
      <trkpt lat="44.5078" lon="1.39141">
        <ele>181.1</ele>
        <time>2022-01-15T14:43:32Z</time>
      </trkpt>
      <trkpt lat="44.50781" lon="1.3914">
        <ele>181.2</ele>
        <time>2022-01-15T14:43:33Z</time>
      </trkpt>
      <trkpt lat="44.50784" lon="1.39139">
        <ele>181.4</ele>
        <time>2022-01-15T14:43:34Z</time>
      </trkpt>
      <trkpt lat="44.50786" lon="1.39138">
        <ele>181.5</ele>
        <time>2022-01-15T14:43:35Z</time>
      </trkpt>
      <trkpt lat="44.50789" lon="1.39137">
        <ele>181.7</ele>
        <time>2022-01-15T14:43:36Z</time>
      </trkpt>
      <trkpt lat="44.5079" lon="1.39137">
        <ele>181.8</ele>
        <time>2022-01-15T14:43:37Z</time>
      </trkpt>
      <trkpt lat="44.50793" lon="1.39136">
        <ele>182</ele>
        <time>2022-01-15T14:43:38Z</time>
      </trkpt>
      <trkpt lat="44.50794" lon="1.39135">
        <ele>182.1</ele>
        <time>2022-01-15T14:43:39Z</time>
      </trkpt>
      <trkpt lat="44.50798" lon="1.39134">
        <ele>182.3</ele>
        <time>2022-01-15T14:43:40Z</time>
      </trkpt>
      <trkpt lat="44.50799" lon="1.39133">
        <ele>182.4</ele>
        <time>2022-01-15T14:43:41Z</time>
      </trkpt>
      <trkpt lat="44.50802" lon="1.39132">
        <ele>182.6</ele>
        <time>2022-01-15T14:43:42Z</time>
      </trkpt>
      <trkpt lat="44.50803" lon="1.39132">
        <ele>182.6</ele>
        <time>2022-01-15T14:43:43Z</time>
      </trkpt>
      <trkpt lat="44.50805" lon="1.39131">
        <ele>182.8</ele>
        <time>2022-01-15T14:43:44Z</time>
      </trkpt>
      <trkpt lat="44.50806" lon="1.39131">
        <ele>182.8</ele>
        <time>2022-01-15T14:43:45Z</time>
      </trkpt>
      <trkpt lat="44.5081" lon="1.39129">
        <ele>183</ele>
        <time>2022-01-15T14:43:46Z</time>
      </trkpt>
      <trkpt lat="44.50812" lon="1.39128">
        <ele>183.2</ele>
        <time>2022-01-15T14:43:48Z</time>
      </trkpt>
      <trkpt lat="44.50814" lon="1.39128">
        <ele>183.3</ele>
        <time>2022-01-15T14:43:49Z</time>
      </trkpt>
      <trkpt lat="44.50818" lon="1.39126">
        <ele>183.5</ele>
        <time>2022-01-15T14:43:51Z</time>
      </trkpt>
      <trkpt lat="44.50821" lon="1.39126">
        <ele>183.7</ele>
        <time>2022-01-15T14:43:52Z</time>
      </trkpt>
      <trkpt lat="44.50822" lon="1.39125">
        <ele>183.8</ele>
        <time>2022-01-15T14:43:53Z</time>
      </trkpt>
      <trkpt lat="44.50825" lon="1.39125">
        <ele>184</ele>
        <time>2022-01-15T14:43:54Z</time>
      </trkpt>
      <trkpt lat="44.50826" lon="1.39124">
        <ele>184</ele>
        <time>2022-01-15T14:43:55Z</time>
      </trkpt>
      <trkpt lat="44.50829" lon="1.39123">
        <ele>184.2</ele>
        <time>2022-01-15T14:43:56Z</time>
      </trkpt>
      <trkpt lat="44.5083" lon="1.39123">
        <ele>184.3</ele>
        <time>2022-01-15T14:43:57Z</time>
      </trkpt>
      <trkpt lat="44.50832" lon="1.39122">
        <ele>184.5</ele>
        <time>2022-01-15T14:43:58Z</time>
      </trkpt>
      <trkpt lat="44.50837" lon="1.39121">
        <ele>184.8</ele>
        <time>2022-01-15T14:44:00Z</time>
      </trkpt>
      <trkpt lat="44.50841" lon="1.3912">
        <ele>185.1</ele>
        <time>2022-01-15T14:44:01Z</time>
      </trkpt>
      <trkpt lat="44.50842" lon="1.3912">
        <ele>185.2</ele>
        <time>2022-01-15T14:44:02Z</time>
      </trkpt>
      <trkpt lat="44.50846" lon="1.39119">
        <ele>185.4</ele>
        <time>2022-01-15T14:44:03Z</time>
      </trkpt>
      <trkpt lat="44.50847" lon="1.39118">
        <ele>185.5</ele>
        <time>2022-01-15T14:44:04Z</time>
      </trkpt>
      <trkpt lat="44.5085" lon="1.39116">
        <ele>185.8</ele>
        <time>2022-01-15T14:44:05Z</time>
      </trkpt>
      <trkpt lat="44.50851" lon="1.39115">
        <ele>185.9</ele>
        <time>2022-01-15T14:44:06Z</time>
      </trkpt>
      <trkpt lat="44.50855" lon="1.39113">
        <ele>186.1</ele>
        <time>2022-01-15T14:44:07Z</time>
      </trkpt>
      <trkpt lat="44.50856" lon="1.39113">
        <ele>186.2</ele>
        <time>2022-01-15T14:44:08Z</time>
      </trkpt>
      <trkpt lat="44.50858" lon="1.39113">
        <ele>186.3</ele>
        <time>2022-01-15T14:44:09Z</time>
      </trkpt>
      <trkpt lat="44.50859" lon="1.39112">
        <ele>186.5</ele>
        <time>2022-01-15T14:44:10Z</time>
      </trkpt>
      <trkpt lat="44.50862" lon="1.39111">
        <ele>186.6</ele>
        <time>2022-01-15T14:44:11Z</time>
      </trkpt>
      <trkpt lat="44.50863" lon="1.39111">
        <ele>186.7</ele>
        <time>2022-01-15T14:44:12Z</time>
      </trkpt>
      <trkpt lat="44.50866" lon="1.39108">
        <ele>186.9</ele>
        <time>2022-01-15T14:44:13Z</time>
      </trkpt>
      <trkpt lat="44.50867" lon="1.39107">
        <ele>187</ele>
        <time>2022-01-15T14:44:14Z</time>
      </trkpt>
      <trkpt lat="44.50869" lon="1.39106">
        <ele>187.2</ele>
        <time>2022-01-15T14:44:15Z</time>
      </trkpt>
      <trkpt lat="44.50873" lon="1.39104">
        <ele>187.5</ele>
        <time>2022-01-15T14:44:17Z</time>
      </trkpt>
      <trkpt lat="44.50876" lon="1.39103">
        <ele>187.7</ele>
        <time>2022-01-15T14:44:18Z</time>
      </trkpt>
      <trkpt lat="44.50877" lon="1.39103">
        <ele>187.8</ele>
        <time>2022-01-15T14:44:19Z</time>
      </trkpt>
      <trkpt lat="44.5088" lon="1.391">
        <ele>188</ele>
        <time>2022-01-15T14:44:20Z</time>
      </trkpt>
      <trkpt lat="44.50881" lon="1.391">
        <ele>188.1</ele>
        <time>2022-01-15T14:44:21Z</time>
      </trkpt>
      <trkpt lat="44.50884" lon="1.39099">
        <ele>188.3</ele>
        <time>2022-01-15T14:44:22Z</time>
      </trkpt>
      <trkpt lat="44.50885" lon="1.39098">
        <ele>188.4</ele>
        <time>2022-01-15T14:44:23Z</time>
      </trkpt>
      <trkpt lat="44.50888" lon="1.39097">
        <ele>188.6</ele>
        <time>2022-01-15T14:44:24Z</time>
      </trkpt>
      <trkpt lat="44.50889" lon="1.39097">
        <ele>188.7</ele>
        <time>2022-01-15T14:44:25Z</time>
      </trkpt>
      <trkpt lat="44.50892" lon="1.39096">
        <ele>188.9</ele>
        <time>2022-01-15T14:44:26Z</time>
      </trkpt>
      <trkpt lat="44.50894" lon="1.39096">
        <ele>189</ele>
        <time>2022-01-15T14:44:27Z</time>
      </trkpt>
      <trkpt lat="44.50897" lon="1.39096">
        <ele>189.3</ele>
        <time>2022-01-15T14:44:28Z</time>
      </trkpt>
      <trkpt lat="44.50898" lon="1.39095">
        <ele>189.3</ele>
        <time>2022-01-15T14:44:29Z</time>
      </trkpt>
      <trkpt lat="44.509" lon="1.39095">
        <ele>189.5</ele>
        <time>2022-01-15T14:44:30Z</time>
      </trkpt>
      <trkpt lat="44.50905" lon="1.39096">
        <ele>189.8</ele>
        <time>2022-01-15T14:44:32Z</time>
      </trkpt>
      <trkpt lat="44.50908" lon="1.39099">
        <ele>190.1</ele>
        <time>2022-01-15T14:44:33Z</time>
      </trkpt>
      <trkpt lat="44.50909" lon="1.391">
        <ele>190.2</ele>
        <time>2022-01-15T14:44:34Z</time>
      </trkpt>
      <trkpt lat="44.50911" lon="1.39102">
        <ele>190.4</ele>
        <time>2022-01-15T14:44:35Z</time>
      </trkpt>
      <trkpt lat="44.50916" lon="1.39105">
        <ele>190.8</ele>
        <time>2022-01-15T14:44:37Z</time>
      </trkpt>
      <trkpt lat="44.50918" lon="1.39109">
        <ele>191.1</ele>
        <time>2022-01-15T14:44:38Z</time>
      </trkpt>
      <trkpt lat="44.50919" lon="1.39111">
        <ele>191.2</ele>
        <time>2022-01-15T14:44:39Z</time>
      </trkpt>
      <trkpt lat="44.5092" lon="1.39114">
        <ele>191.4</ele>
        <time>2022-01-15T14:44:40Z</time>
      </trkpt>
      <trkpt lat="44.50921" lon="1.3912">
        <ele>191.7</ele>
        <time>2022-01-15T14:44:42Z</time>
      </trkpt>
      <trkpt lat="44.50921" lon="1.39123">
        <ele>191.9</ele>
        <time>2022-01-15T14:44:43Z</time>
      </trkpt>
      <trkpt lat="44.50921" lon="1.39125">
        <ele>192</ele>
        <time>2022-01-15T14:44:44Z</time>
      </trkpt>
      <trkpt lat="44.50921" lon="1.3913">
        <ele>192.3</ele>
        <time>2022-01-15T14:44:45Z</time>
      </trkpt>
      <trkpt lat="44.50921" lon="1.39131">
        <ele>192.3</ele>
        <time>2022-01-15T14:44:46Z</time>
      </trkpt>
      <trkpt lat="44.50921" lon="1.39136">
        <ele>192.6</ele>
        <time>2022-01-15T14:44:47Z</time>
      </trkpt>
      <trkpt lat="44.50921" lon="1.39137">
        <ele>192.7</ele>
        <time>2022-01-15T14:44:48Z</time>
      </trkpt>
      <trkpt lat="44.5092" lon="1.39142">
        <ele>192.9</ele>
        <time>2022-01-15T14:44:49Z</time>
      </trkpt>
      <trkpt lat="44.5092" lon="1.39143">
        <ele>193</ele>
        <time>2022-01-15T14:44:50Z</time>
      </trkpt>
      <trkpt lat="44.5092" lon="1.39148">
        <ele>193.2</ele>
        <time>2022-01-15T14:44:51Z</time>
      </trkpt>
      <trkpt lat="44.5092" lon="1.3915">
        <ele>193.3</ele>
        <time>2022-01-15T14:44:52Z</time>
      </trkpt>
      <trkpt lat="44.5092" lon="1.39154">
        <ele>193.6</ele>
        <time>2022-01-15T14:44:53Z</time>
      </trkpt>
      <trkpt lat="44.5092" lon="1.39155">
        <ele>193.6</ele>
        <time>2022-01-15T14:44:54Z</time>
      </trkpt>
      <trkpt lat="44.5092" lon="1.39159">
        <ele>193.8</ele>
        <time>2022-01-15T14:44:55Z</time>
      </trkpt>
      <trkpt lat="44.5092" lon="1.3916">
        <ele>193.9</ele>
        <time>2022-01-15T14:44:56Z</time>
      </trkpt>
      <trkpt lat="44.5092" lon="1.39165">
        <ele>194.1</ele>
        <time>2022-01-15T14:44:57Z</time>
      </trkpt>
      <trkpt lat="44.5092" lon="1.39167">
        <ele>194.2</ele>
        <time>2022-01-15T14:44:58Z</time>
      </trkpt>
      <trkpt lat="44.50919" lon="1.39171">
        <ele>194.4</ele>
        <time>2022-01-15T14:44:59Z</time>
      </trkpt>
      <trkpt lat="44.50919" lon="1.39172">
        <ele>194.5</ele>
        <time>2022-01-15T14:45:00Z</time>
      </trkpt>
      <trkpt lat="44.50919" lon="1.39176">
        <ele>194.7</ele>
        <time>2022-01-15T14:45:01Z</time>
      </trkpt>
      <trkpt lat="44.50919" lon="1.39178">
        <ele>194.7</ele>
        <time>2022-01-15T14:45:02Z</time>
      </trkpt>
      <trkpt lat="44.50919" lon="1.39182">
        <ele>194.9</ele>
        <time>2022-01-15T14:45:03Z</time>
      </trkpt>
      <trkpt lat="44.50919" lon="1.39183">
        <ele>194.9</ele>
        <time>2022-01-15T14:45:04Z</time>
      </trkpt>
      <trkpt lat="44.50919" lon="1.39188">
        <ele>195.1</ele>
        <time>2022-01-15T14:45:05Z</time>
      </trkpt>
      <trkpt lat="44.50919" lon="1.39189">
        <ele>195.2</ele>
        <time>2022-01-15T14:45:06Z</time>
      </trkpt>
      <trkpt lat="44.50919" lon="1.39193">
        <ele>195.4</ele>
        <time>2022-01-15T14:45:07Z</time>
      </trkpt>
      <trkpt lat="44.50918" lon="1.39195">
        <ele>195.5</ele>
        <time>2022-01-15T14:45:08Z</time>
      </trkpt>
      <trkpt lat="44.50918" lon="1.39199">
        <ele>195.7</ele>
        <time>2022-01-15T14:45:09Z</time>
      </trkpt>
      <trkpt lat="44.50918" lon="1.39201">
        <ele>195.8</ele>
        <time>2022-01-15T14:45:10Z</time>
      </trkpt>
      <trkpt lat="44.50917" lon="1.39205">
        <ele>196</ele>
        <time>2022-01-15T14:45:11Z</time>
      </trkpt>
      <trkpt lat="44.50916" lon="1.39206">
        <ele>196.1</ele>
        <time>2022-01-15T14:45:12Z</time>
      </trkpt>
      <trkpt lat="44.50916" lon="1.39211">
        <ele>196.3</ele>
        <time>2022-01-15T14:45:13Z</time>
      </trkpt>
      <trkpt lat="44.50916" lon="1.39212">
        <ele>196.3</ele>
        <time>2022-01-15T14:45:14Z</time>
      </trkpt>
      <trkpt lat="44.50915" lon="1.39216">
        <ele>196.5</ele>
        <time>2022-01-15T14:45:15Z</time>
      </trkpt>
      <trkpt lat="44.50915" lon="1.39217">
        <ele>196.6</ele>
        <time>2022-01-15T14:45:16Z</time>
      </trkpt>
      <trkpt lat="44.50915" lon="1.39222">
        <ele>196.8</ele>
        <time>2022-01-15T14:45:17Z</time>
      </trkpt>
      <trkpt lat="44.50915" lon="1.39224">
        <ele>196.9</ele>
        <time>2022-01-15T14:45:18Z</time>
      </trkpt>
      <trkpt lat="44.50914" lon="1.39226">
        <ele>197.1</ele>
        <time>2022-01-15T14:45:19Z</time>
      </trkpt>
      <trkpt lat="44.50915" lon="1.39232">
        <ele>197.3</ele>
        <time>2022-01-15T14:45:21Z</time>
      </trkpt>
      <trkpt lat="44.50915" lon="1.39234">
        <ele>197.4</ele>
        <time>2022-01-15T14:45:22Z</time>
      </trkpt>
      <trkpt lat="44.50915" lon="1.39236">
        <ele>197.6</ele>
        <time>2022-01-15T14:45:23Z</time>
      </trkpt>
      <trkpt lat="44.50915" lon="1.39238">
        <ele>197.7</ele>
        <time>2022-01-15T14:45:24Z</time>
      </trkpt>
      <trkpt lat="44.50915" lon="1.39241">
        <ele>197.8</ele>
        <time>2022-01-15T14:45:25Z</time>
      </trkpt>
      <trkpt lat="44.50916" lon="1.39245">
        <ele>197.9</ele>
        <time>2022-01-15T14:45:26Z</time>
      </trkpt>
      <trkpt lat="44.50916" lon="1.39246">
        <ele>198</ele>
        <time>2022-01-15T14:45:27Z</time>
      </trkpt>
      <trkpt lat="44.50915" lon="1.3925">
        <ele>198.2</ele>
        <time>2022-01-15T14:45:28Z</time>
      </trkpt>
      <trkpt lat="44.50915" lon="1.39252">
        <ele>198.3</ele>
        <time>2022-01-15T14:45:29Z</time>
      </trkpt>
      <trkpt lat="44.50914" lon="1.39256">
        <ele>198.5</ele>
        <time>2022-01-15T14:45:30Z</time>
      </trkpt>
      <trkpt lat="44.50914" lon="1.39258">
        <ele>198.5</ele>
        <time>2022-01-15T14:45:31Z</time>
      </trkpt>
      <trkpt lat="44.50915" lon="1.3926">
        <ele>198.6</ele>
        <time>2022-01-15T14:45:32Z</time>
      </trkpt>
      <trkpt lat="44.50914" lon="1.39266">
        <ele>198.9</ele>
        <time>2022-01-15T14:45:34Z</time>
      </trkpt>
      <trkpt lat="44.50913" lon="1.3927">
        <ele>199.1</ele>
        <time>2022-01-15T14:45:35Z</time>
      </trkpt>
      <trkpt lat="44.50913" lon="1.39272">
        <ele>199.2</ele>
        <time>2022-01-15T14:45:36Z</time>
      </trkpt>
      <trkpt lat="44.50913" lon="1.39278">
        <ele>199.5</ele>
        <time>2022-01-15T14:45:38Z</time>
      </trkpt>
      <trkpt lat="44.50913" lon="1.39282">
        <ele>199.7</ele>
        <time>2022-01-15T14:45:39Z</time>
      </trkpt>
      <trkpt lat="44.50912" lon="1.39283">
        <ele>199.8</ele>
        <time>2022-01-15T14:45:40Z</time>
      </trkpt>
      <trkpt lat="44.50912" lon="1.39288">
        <ele>200</ele>
        <time>2022-01-15T14:45:41Z</time>
      </trkpt>
      <trkpt lat="44.50912" lon="1.39289">
        <ele>200.1</ele>
        <time>2022-01-15T14:45:42Z</time>
      </trkpt>
      <trkpt lat="44.50912" lon="1.39295">
        <ele>200.3</ele>
        <time>2022-01-15T14:45:43Z</time>
      </trkpt>
      <trkpt lat="44.50912" lon="1.39296">
        <ele>200.4</ele>
        <time>2022-01-15T14:45:44Z</time>
      </trkpt>
      <trkpt lat="44.50911" lon="1.39301">
        <ele>200.6</ele>
        <time>2022-01-15T14:45:45Z</time>
      </trkpt>
      <trkpt lat="44.50911" lon="1.39302">
        <ele>200.7</ele>
        <time>2022-01-15T14:45:46Z</time>
      </trkpt>
      <trkpt lat="44.50911" lon="1.39307">
        <ele>200.9</ele>
        <time>2022-01-15T14:45:47Z</time>
      </trkpt>
      <trkpt lat="44.50911" lon="1.39308">
        <ele>200.9</ele>
        <time>2022-01-15T14:45:48Z</time>
      </trkpt>
      <trkpt lat="44.5091" lon="1.39313">
        <ele>201.1</ele>
        <time>2022-01-15T14:45:49Z</time>
      </trkpt>
      <trkpt lat="44.5091" lon="1.39315">
        <ele>201.2</ele>
        <time>2022-01-15T14:45:50Z</time>
      </trkpt>
      <trkpt lat="44.50909" lon="1.39318">
        <ele>201.3</ele>
        <time>2022-01-15T14:45:51Z</time>
      </trkpt>
      <trkpt lat="44.50908" lon="1.39325">
        <ele>201.6</ele>
        <time>2022-01-15T14:45:53Z</time>
      </trkpt>
      <trkpt lat="44.50907" lon="1.39329">
        <ele>201.7</ele>
        <time>2022-01-15T14:45:54Z</time>
      </trkpt>
      <trkpt lat="44.50907" lon="1.39334">
        <ele>202</ele>
        <time>2022-01-15T14:45:56Z</time>
      </trkpt>
      <trkpt lat="44.50906" lon="1.3934">
        <ele>202.2</ele>
        <time>2022-01-15T14:45:57Z</time>
      </trkpt>
      <trkpt lat="44.50906" lon="1.39341">
        <ele>202.3</ele>
        <time>2022-01-15T14:45:58Z</time>
      </trkpt>
      <trkpt lat="44.50905" lon="1.39345">
        <ele>202.5</ele>
        <time>2022-01-15T14:45:59Z</time>
      </trkpt>
      <trkpt lat="44.50905" lon="1.39348">
        <ele>202.6</ele>
        <time>2022-01-15T14:46:00Z</time>
      </trkpt>
      <trkpt lat="44.50904" lon="1.39353">
        <ele>202.9</ele>
        <time>2022-01-15T14:46:02Z</time>
      </trkpt>
      <trkpt lat="44.50903" lon="1.39358">
        <ele>203.1</ele>
        <time>2022-01-15T14:46:03Z</time>
      </trkpt>
      <trkpt lat="44.50903" lon="1.39359">
        <ele>203.2</ele>
        <time>2022-01-15T14:46:04Z</time>
      </trkpt>
      <trkpt lat="44.50901" lon="1.39366">
        <ele>203.6</ele>
        <time>2022-01-15T14:46:06Z</time>
      </trkpt>
      <trkpt lat="44.50901" lon="1.39368">
        <ele>203.7</ele>
        <time>2022-01-15T14:46:07Z</time>
      </trkpt>
      <trkpt lat="44.50901" lon="1.3937">
        <ele>203.8</ele>
        <time>2022-01-15T14:46:08Z</time>
      </trkpt>
      <trkpt lat="44.50899" lon="1.39375">
        <ele>204</ele>
        <time>2022-01-15T14:46:09Z</time>
      </trkpt>
      <trkpt lat="44.50899" lon="1.39376">
        <ele>204.1</ele>
        <time>2022-01-15T14:46:10Z</time>
      </trkpt>
      <trkpt lat="44.50898" lon="1.39381">
        <ele>204.4</ele>
        <time>2022-01-15T14:46:11Z</time>
      </trkpt>
      <trkpt lat="44.50897" lon="1.39383">
        <ele>204.5</ele>
        <time>2022-01-15T14:46:12Z</time>
      </trkpt>
      <trkpt lat="44.50896" lon="1.39386">
        <ele>204.6</ele>
        <time>2022-01-15T14:46:13Z</time>
      </trkpt>
      <trkpt lat="44.50895" lon="1.39391">
        <ele>204.9</ele>
        <time>2022-01-15T14:46:15Z</time>
      </trkpt>
      <trkpt lat="44.50894" lon="1.39395">
        <ele>205.1</ele>
        <time>2022-01-15T14:46:16Z</time>
      </trkpt>
      <trkpt lat="44.50894" lon="1.39397">
        <ele>205.2</ele>
        <time>2022-01-15T14:46:17Z</time>
      </trkpt>
      <trkpt lat="44.50892" lon="1.39403">
        <ele>205.5</ele>
        <time>2022-01-15T14:46:19Z</time>
      </trkpt>
      <trkpt lat="44.50891" lon="1.39407">
        <ele>205.7</ele>
        <time>2022-01-15T14:46:20Z</time>
      </trkpt>
      <trkpt lat="44.50891" lon="1.39409">
        <ele>205.8</ele>
        <time>2022-01-15T14:46:21Z</time>
      </trkpt>
      <trkpt lat="44.50889" lon="1.39413">
        <ele>206</ele>
        <time>2022-01-15T14:46:22Z</time>
      </trkpt>
      <trkpt lat="44.50889" lon="1.39415">
        <ele>206.1</ele>
        <time>2022-01-15T14:46:23Z</time>
      </trkpt>
      <trkpt lat="44.50887" lon="1.39419">
        <ele>206.4</ele>
        <time>2022-01-15T14:46:25Z</time>
      </trkpt>
      <trkpt lat="44.50885" lon="1.39422">
        <ele>206.5</ele>
        <time>2022-01-15T14:46:26Z</time>
      </trkpt>
      <trkpt lat="44.50884" lon="1.39427">
        <ele>206.8</ele>
        <time>2022-01-15T14:46:28Z</time>
      </trkpt>
      <trkpt lat="44.50882" lon="1.3943">
        <ele>207</ele>
        <time>2022-01-15T14:46:29Z</time>
      </trkpt>
      <trkpt lat="44.50882" lon="1.39432">
        <ele>207.1</ele>
        <time>2022-01-15T14:46:30Z</time>
      </trkpt>
      <trkpt lat="44.5088" lon="1.39435">
        <ele>207.3</ele>
        <time>2022-01-15T14:46:31Z</time>
      </trkpt>
      <trkpt lat="44.50879" lon="1.39436">
        <ele>207.4</ele>
        <time>2022-01-15T14:46:32Z</time>
      </trkpt>
      <trkpt lat="44.50878" lon="1.3944">
        <ele>207.6</ele>
        <time>2022-01-15T14:46:33Z</time>
      </trkpt>
      <trkpt lat="44.50878" lon="1.39442">
        <ele>207.7</ele>
        <time>2022-01-15T14:46:34Z</time>
      </trkpt>
      <trkpt lat="44.50876" lon="1.39446">
        <ele>207.9</ele>
        <time>2022-01-15T14:46:35Z</time>
      </trkpt>
      <trkpt lat="44.50876" lon="1.39448">
        <ele>208</ele>
        <time>2022-01-15T14:46:36Z</time>
      </trkpt>
      <trkpt lat="44.50875" lon="1.39452">
        <ele>208.2</ele>
        <time>2022-01-15T14:46:37Z</time>
      </trkpt>
      <trkpt lat="44.50874" lon="1.39453">
        <ele>208.3</ele>
        <time>2022-01-15T14:46:38Z</time>
      </trkpt>
      <trkpt lat="44.50873" lon="1.39458">
        <ele>208.5</ele>
        <time>2022-01-15T14:46:39Z</time>
      </trkpt>
      <trkpt lat="44.50873" lon="1.39459">
        <ele>208.5</ele>
        <time>2022-01-15T14:46:40Z</time>
      </trkpt>
      <trkpt lat="44.50872" lon="1.39463">
        <ele>208.7</ele>
        <time>2022-01-15T14:46:41Z</time>
      </trkpt>
      <trkpt lat="44.50872" lon="1.39468">
        <ele>208.9</ele>
        <time>2022-01-15T14:46:42Z</time>
      </trkpt>
      <trkpt lat="44.50871" lon="1.39469">
        <ele>209</ele>
        <time>2022-01-15T14:46:43Z</time>
      </trkpt>
      <trkpt lat="44.50871" lon="1.39473">
        <ele>209.2</ele>
        <time>2022-01-15T14:46:44Z</time>
      </trkpt>
      <trkpt lat="44.50871" lon="1.39475">
        <ele>209.3</ele>
        <time>2022-01-15T14:46:45Z</time>
      </trkpt>
      <trkpt lat="44.50871" lon="1.3948">
        <ele>209.5</ele>
        <time>2022-01-15T14:46:46Z</time>
      </trkpt>
      <trkpt lat="44.50871" lon="1.39481">
        <ele>209.6</ele>
        <time>2022-01-15T14:46:47Z</time>
      </trkpt>
      <trkpt lat="44.50871" lon="1.39486">
        <ele>209.8</ele>
        <time>2022-01-15T14:46:48Z</time>
      </trkpt>
      <trkpt lat="44.50871" lon="1.39488">
        <ele>209.9</ele>
        <time>2022-01-15T14:46:49Z</time>
      </trkpt>
      <trkpt lat="44.50872" lon="1.39492">
        <ele>210.1</ele>
        <time>2022-01-15T14:46:50Z</time>
      </trkpt>
      <trkpt lat="44.50872" lon="1.39493">
        <ele>210.2</ele>
        <time>2022-01-15T14:46:51Z</time>
      </trkpt>
      <trkpt lat="44.50873" lon="1.39497">
        <ele>210.4</ele>
        <time>2022-01-15T14:46:52Z</time>
      </trkpt>
      <trkpt lat="44.50874" lon="1.39503">
        <ele>210.7</ele>
        <time>2022-01-15T14:46:54Z</time>
      </trkpt>
      <trkpt lat="44.50876" lon="1.39507">
        <ele>211</ele>
        <time>2022-01-15T14:46:55Z</time>
      </trkpt>
      <trkpt lat="44.50877" lon="1.39508">
        <ele>211.1</ele>
        <time>2022-01-15T14:46:56Z</time>
      </trkpt>
      <trkpt lat="44.50881" lon="1.39512">
        <ele>211.4</ele>
        <time>2022-01-15T14:46:58Z</time>
      </trkpt>
      <trkpt lat="44.50883" lon="1.39516">
        <ele>211.6</ele>
        <time>2022-01-15T14:46:59Z</time>
      </trkpt>
      <trkpt lat="44.50884" lon="1.39517">
        <ele>211.7</ele>
        <time>2022-01-15T14:47:00Z</time>
      </trkpt>
      <trkpt lat="44.50887" lon="1.3952">
        <ele>212</ele>
        <time>2022-01-15T14:47:01Z</time>
      </trkpt>
      <trkpt lat="44.50888" lon="1.39521">
        <ele>212.1</ele>
        <time>2022-01-15T14:47:02Z</time>
      </trkpt>
      <trkpt lat="44.50891" lon="1.39524">
        <ele>212.3</ele>
        <time>2022-01-15T14:47:04Z</time>
      </trkpt>
      <trkpt lat="44.50894" lon="1.39527">
        <ele>212.5</ele>
        <time>2022-01-15T14:47:05Z</time>
      </trkpt>
      <trkpt lat="44.50895" lon="1.39528">
        <ele>212.6</ele>
        <time>2022-01-15T14:47:06Z</time>
      </trkpt>
      <trkpt lat="44.50898" lon="1.39531">
        <ele>212.9</ele>
        <time>2022-01-15T14:47:07Z</time>
      </trkpt>
      <trkpt lat="44.50899" lon="1.39532">
        <ele>212.9</ele>
        <time>2022-01-15T14:47:08Z</time>
      </trkpt>
      <trkpt lat="44.50901" lon="1.39534">
        <ele>213.1</ele>
        <time>2022-01-15T14:47:09Z</time>
      </trkpt>
      <trkpt lat="44.50902" lon="1.39535">
        <ele>213.2</ele>
        <time>2022-01-15T14:47:10Z</time>
      </trkpt>
      <trkpt lat="44.50905" lon="1.39537">
        <ele>213.4</ele>
        <time>2022-01-15T14:47:11Z</time>
      </trkpt>
      <trkpt lat="44.50907" lon="1.39539">
        <ele>213.6</ele>
        <time>2022-01-15T14:47:12Z</time>
      </trkpt>
      <trkpt lat="44.50909" lon="1.39541">
        <ele>213.8</ele>
        <time>2022-01-15T14:47:14Z</time>
      </trkpt>
      <trkpt lat="44.50911" lon="1.39543">
        <ele>214</ele>
        <time>2022-01-15T14:47:15Z</time>
      </trkpt>
      <trkpt lat="44.50912" lon="1.39544">
        <ele>214</ele>
        <time>2022-01-15T14:47:16Z</time>
      </trkpt>
      <trkpt lat="44.50914" lon="1.39546">
        <ele>214.2</ele>
        <time>2022-01-15T14:47:17Z</time>
      </trkpt>
      <trkpt lat="44.50917" lon="1.39549">
        <ele>214.5</ele>
        <time>2022-01-15T14:47:19Z</time>
      </trkpt>
      <trkpt lat="44.5092" lon="1.39552">
        <ele>214.7</ele>
        <time>2022-01-15T14:47:20Z</time>
      </trkpt>
      <trkpt lat="44.5092" lon="1.39553">
        <ele>214.8</ele>
        <time>2022-01-15T14:47:21Z</time>
      </trkpt>
      <trkpt lat="44.50922" lon="1.39555">
        <ele>214.9</ele>
        <time>2022-01-15T14:47:22Z</time>
      </trkpt>
      <trkpt lat="44.50923" lon="1.39556">
        <ele>215</ele>
        <time>2022-01-15T14:47:23Z</time>
      </trkpt>
      <trkpt lat="44.50925" lon="1.39559">
        <ele>215.2</ele>
        <time>2022-01-15T14:47:24Z</time>
      </trkpt>
      <trkpt lat="44.50926" lon="1.3956">
        <ele>215.2</ele>
        <time>2022-01-15T14:47:25Z</time>
      </trkpt>
      <trkpt lat="44.50928" lon="1.39563">
        <ele>215.4</ele>
        <time>2022-01-15T14:47:26Z</time>
      </trkpt>
      <trkpt lat="44.50929" lon="1.39564">
        <ele>215.5</ele>
        <time>2022-01-15T14:47:27Z</time>
      </trkpt>
      <trkpt lat="44.50931" lon="1.39568">
        <ele>215.7</ele>
        <time>2022-01-15T14:47:28Z</time>
      </trkpt>
      <trkpt lat="44.50931" lon="1.39569">
        <ele>215.8</ele>
        <time>2022-01-15T14:47:29Z</time>
      </trkpt>
      <trkpt lat="44.50934" lon="1.39572">
        <ele>216</ele>
        <time>2022-01-15T14:47:30Z</time>
      </trkpt>
      <trkpt lat="44.50935" lon="1.39573">
        <ele>216.1</ele>
        <time>2022-01-15T14:47:31Z</time>
      </trkpt>
      <trkpt lat="44.50937" lon="1.39577">
        <ele>216.3</ele>
        <time>2022-01-15T14:47:32Z</time>
      </trkpt>
      <trkpt lat="44.50938" lon="1.39578">
        <ele>216.4</ele>
        <time>2022-01-15T14:47:33Z</time>
      </trkpt>
      <trkpt lat="44.50939" lon="1.39582">
        <ele>216.6</ele>
        <time>2022-01-15T14:47:34Z</time>
      </trkpt>
      <trkpt lat="44.50941" lon="1.39585">
        <ele>216.8</ele>
        <time>2022-01-15T14:47:35Z</time>
      </trkpt>
      <trkpt lat="44.50942" lon="1.39586">
        <ele>216.8</ele>
        <time>2022-01-15T14:47:36Z</time>
      </trkpt>
      <trkpt lat="44.50944" lon="1.3959">
        <ele>217.1</ele>
        <time>2022-01-15T14:47:37Z</time>
      </trkpt>
      <trkpt lat="44.50944" lon="1.39592">
        <ele>217.1</ele>
        <time>2022-01-15T14:47:38Z</time>
      </trkpt>
      <trkpt lat="44.50946" lon="1.39595">
        <ele>217.4</ele>
        <time>2022-01-15T14:47:39Z</time>
      </trkpt>
      <trkpt lat="44.50946" lon="1.39596">
        <ele>217.4</ele>
        <time>2022-01-15T14:47:40Z</time>
      </trkpt>
      <trkpt lat="44.50948" lon="1.396">
        <ele>217.6</ele>
        <time>2022-01-15T14:47:41Z</time>
      </trkpt>
      <trkpt lat="44.50949" lon="1.39601">
        <ele>217.7</ele>
        <time>2022-01-15T14:47:42Z</time>
      </trkpt>
      <trkpt lat="44.5095" lon="1.39605">
        <ele>217.9</ele>
        <time>2022-01-15T14:47:43Z</time>
      </trkpt>
      <trkpt lat="44.5095" lon="1.39607">
        <ele>218</ele>
        <time>2022-01-15T14:47:44Z</time>
      </trkpt>
      <trkpt lat="44.50952" lon="1.39611">
        <ele>218.2</ele>
        <time>2022-01-15T14:47:45Z</time>
      </trkpt>
      <trkpt lat="44.50952" lon="1.39612">
        <ele>218.3</ele>
        <time>2022-01-15T14:47:46Z</time>
      </trkpt>
      <trkpt lat="44.50953" lon="1.39616">
        <ele>218.5</ele>
        <time>2022-01-15T14:47:47Z</time>
      </trkpt>
      <trkpt lat="44.50953" lon="1.39617">
        <ele>218.5</ele>
        <time>2022-01-15T14:47:48Z</time>
      </trkpt>
      <trkpt lat="44.50954" lon="1.39622">
        <ele>218.8</ele>
        <time>2022-01-15T14:47:50Z</time>
      </trkpt>
      <trkpt lat="44.50955" lon="1.39626">
        <ele>218.9</ele>
        <time>2022-01-15T14:47:51Z</time>
      </trkpt>
      <trkpt lat="44.50957" lon="1.3963">
        <ele>219.1</ele>
        <time>2022-01-15T14:47:53Z</time>
      </trkpt>
      <trkpt lat="44.50957" lon="1.39631">
        <ele>219.2</ele>
        <time>2022-01-15T14:47:54Z</time>
      </trkpt>
      <trkpt lat="44.50957" lon="1.39633">
        <ele>219.3</ele>
        <time>2022-01-15T14:47:55Z</time>
      </trkpt>
      <trkpt lat="44.50957" lon="1.39635">
        <ele>219.4</ele>
        <time>2022-01-15T14:47:56Z</time>
      </trkpt>
      <trkpt lat="44.50958" lon="1.3964">
        <ele>219.7</ele>
        <time>2022-01-15T14:47:58Z</time>
      </trkpt>
      <trkpt lat="44.50958" lon="1.39642">
        <ele>219.7</ele>
        <time>2022-01-15T14:47:59Z</time>
      </trkpt>
      <trkpt lat="44.50958" lon="1.39643">
        <ele>219.8</ele>
        <time>2022-01-15T14:48:00Z</time>
      </trkpt>
      <trkpt lat="44.50958" lon="1.39644">
        <ele>219.8</ele>
        <time>2022-01-15T14:48:01Z</time>
      </trkpt>
      <trkpt lat="44.50959" lon="1.39648">
        <ele>220</ele>
        <time>2022-01-15T14:48:02Z</time>
      </trkpt>
      <trkpt lat="44.50959" lon="1.3965">
        <ele>220.1</ele>
        <time>2022-01-15T14:48:03Z</time>
      </trkpt>
      <trkpt lat="44.50959" lon="1.39653">
        <ele>220.3</ele>
        <time>2022-01-15T14:48:05Z</time>
      </trkpt>
      <trkpt lat="44.5096" lon="1.39655">
        <ele>220.3</ele>
        <time>2022-01-15T14:48:06Z</time>
      </trkpt>
      <trkpt lat="44.50961" lon="1.39658">
        <ele>220.5</ele>
        <time>2022-01-15T14:48:07Z</time>
      </trkpt>
      <trkpt lat="44.50961" lon="1.39659">
        <ele>220.6</ele>
        <time>2022-01-15T14:48:08Z</time>
      </trkpt>
      <trkpt lat="44.50961" lon="1.3966">
        <ele>220.6</ele>
        <time>2022-01-15T14:48:09Z</time>
      </trkpt>
      <trkpt lat="44.50962" lon="1.39664">
        <ele>220.8</ele>
        <time>2022-01-15T14:48:10Z</time>
      </trkpt>
      <trkpt lat="44.50962" lon="1.39665">
        <ele>220.8</ele>
        <time>2022-01-15T14:48:11Z</time>
      </trkpt>
      <trkpt lat="44.50963" lon="1.3967">
        <ele>221</ele>
        <time>2022-01-15T14:48:12Z</time>
      </trkpt>
      <trkpt lat="44.50963" lon="1.39671">
        <ele>221.1</ele>
        <time>2022-01-15T14:48:13Z</time>
      </trkpt>
      <trkpt lat="44.50963" lon="1.39673">
        <ele>221.2</ele>
        <time>2022-01-15T14:48:14Z</time>
      </trkpt>
      <trkpt lat="44.50964" lon="1.39677">
        <ele>221.4</ele>
        <time>2022-01-15T14:48:16Z</time>
      </trkpt>
      <trkpt lat="44.50964" lon="1.3968">
        <ele>221.5</ele>
        <time>2022-01-15T14:48:17Z</time>
      </trkpt>
      <trkpt lat="44.50964" lon="1.39682">
        <ele>221.6</ele>
        <time>2022-01-15T14:48:18Z</time>
      </trkpt>
      <trkpt lat="44.50964" lon="1.39685">
        <ele>221.7</ele>
        <time>2022-01-15T14:48:19Z</time>
      </trkpt>
      <trkpt lat="44.50964" lon="1.39687">
        <ele>221.8</ele>
        <time>2022-01-15T14:48:20Z</time>
      </trkpt>
      <trkpt lat="44.50964" lon="1.39689">
        <ele>221.9</ele>
        <time>2022-01-15T14:48:21Z</time>
      </trkpt>
      <trkpt lat="44.50965" lon="1.39692">
        <ele>222</ele>
        <time>2022-01-15T14:48:22Z</time>
      </trkpt>
      <trkpt lat="44.50965" lon="1.39694">
        <ele>222.2</ele>
        <time>2022-01-15T14:48:23Z</time>
      </trkpt>
      <trkpt lat="44.50965" lon="1.39696">
        <ele>222.3</ele>
        <time>2022-01-15T14:48:24Z</time>
      </trkpt>
      <trkpt lat="44.50965" lon="1.397">
        <ele>222.5</ele>
        <time>2022-01-15T14:48:25Z</time>
      </trkpt>
      <trkpt lat="44.50964" lon="1.39701">
        <ele>222.6</ele>
        <time>2022-01-15T14:48:26Z</time>
      </trkpt>
      <trkpt lat="44.50964" lon="1.39704">
        <ele>222.7</ele>
        <time>2022-01-15T14:48:27Z</time>
      </trkpt>
      <trkpt lat="44.50964" lon="1.39708">
        <ele>223</ele>
        <time>2022-01-15T14:48:29Z</time>
      </trkpt>
      <trkpt lat="44.50964" lon="1.39711">
        <ele>223.1</ele>
        <time>2022-01-15T14:48:30Z</time>
      </trkpt>
      <trkpt lat="44.50964" lon="1.39713">
        <ele>223.2</ele>
        <time>2022-01-15T14:48:31Z</time>
      </trkpt>
      <trkpt lat="44.50964" lon="1.39715">
        <ele>223.3</ele>
        <time>2022-01-15T14:48:32Z</time>
      </trkpt>
      <trkpt lat="44.50964" lon="1.39717">
        <ele>223.4</ele>
        <time>2022-01-15T14:48:33Z</time>
      </trkpt>
      <trkpt lat="44.50964" lon="1.39719">
        <ele>223.5</ele>
        <time>2022-01-15T14:48:34Z</time>
      </trkpt>
      <trkpt lat="44.50963" lon="1.39721">
        <ele>223.6</ele>
        <time>2022-01-15T14:48:35Z</time>
      </trkpt>
      <trkpt lat="44.50963" lon="1.39725">
        <ele>223.8</ele>
        <time>2022-01-15T14:48:36Z</time>
      </trkpt>
      <trkpt lat="44.50963" lon="1.39727">
        <ele>223.9</ele>
        <time>2022-01-15T14:48:37Z</time>
      </trkpt>
      <trkpt lat="44.50963" lon="1.39731">
        <ele>224.1</ele>
        <time>2022-01-15T14:48:38Z</time>
      </trkpt>
      <trkpt lat="44.50963" lon="1.39733">
        <ele>224.2</ele>
        <time>2022-01-15T14:48:39Z</time>
      </trkpt>
      <trkpt lat="44.50963" lon="1.39737">
        <ele>224.3</ele>
        <time>2022-01-15T14:48:40Z</time>
      </trkpt>
      <trkpt lat="44.50963" lon="1.3974">
        <ele>224.5</ele>
        <time>2022-01-15T14:48:41Z</time>
      </trkpt>
      <trkpt lat="44.50964" lon="1.39744">
        <ele>224.6</ele>
        <time>2022-01-15T14:48:43Z</time>
      </trkpt>
      <trkpt lat="44.50963" lon="1.39748">
        <ele>224.9</ele>
        <time>2022-01-15T14:48:44Z</time>
      </trkpt>
      <trkpt lat="44.50963" lon="1.3975">
        <ele>224.9</ele>
        <time>2022-01-15T14:48:45Z</time>
      </trkpt>
      <trkpt lat="44.50963" lon="1.39754">
        <ele>225.2</ele>
        <time>2022-01-15T14:48:46Z</time>
      </trkpt>
      <trkpt lat="44.50963" lon="1.39756">
        <ele>225.3</ele>
        <time>2022-01-15T14:48:47Z</time>
      </trkpt>
      <trkpt lat="44.50962" lon="1.39761">
        <ele>225.5</ele>
        <time>2022-01-15T14:48:49Z</time>
      </trkpt>
      <trkpt lat="44.50961" lon="1.39767">
        <ele>225.9</ele>
        <time>2022-01-15T14:48:51Z</time>
      </trkpt>
      <trkpt lat="44.5096" lon="1.39771">
        <ele>226.1</ele>
        <time>2022-01-15T14:48:52Z</time>
      </trkpt>
      <trkpt lat="44.5096" lon="1.39772">
        <ele>226.1</ele>
        <time>2022-01-15T14:48:53Z</time>
      </trkpt>
      <trkpt lat="44.50959" lon="1.39777">
        <ele>226.3</ele>
        <time>2022-01-15T14:48:54Z</time>
      </trkpt>
      <trkpt lat="44.50958" lon="1.39778">
        <ele>226.4</ele>
        <time>2022-01-15T14:48:55Z</time>
      </trkpt>
      <trkpt lat="44.50958" lon="1.39782">
        <ele>226.6</ele>
        <time>2022-01-15T14:48:56Z</time>
      </trkpt>
      <trkpt lat="44.50958" lon="1.39784">
        <ele>226.7</ele>
        <time>2022-01-15T14:48:57Z</time>
      </trkpt>
      <trkpt lat="44.50957" lon="1.39788">
        <ele>226.9</ele>
        <time>2022-01-15T14:48:58Z</time>
      </trkpt>
      <trkpt lat="44.50956" lon="1.39789">
        <ele>227</ele>
        <time>2022-01-15T14:48:59Z</time>
      </trkpt>
      <trkpt lat="44.50955" lon="1.39793">
        <ele>227.2</ele>
        <time>2022-01-15T14:49:00Z</time>
      </trkpt>
      <trkpt lat="44.50955" lon="1.39794">
        <ele>227.3</ele>
        <time>2022-01-15T14:49:01Z</time>
      </trkpt>
      <trkpt lat="44.50954" lon="1.39798">
        <ele>227.5</ele>
        <time>2022-01-15T14:49:02Z</time>
      </trkpt>
      <trkpt lat="44.50953" lon="1.39799">
        <ele>227.6</ele>
        <time>2022-01-15T14:49:03Z</time>
      </trkpt>
      <trkpt lat="44.50953" lon="1.39804">
        <ele>227.8</ele>
        <time>2022-01-15T14:49:04Z</time>
      </trkpt>
      <trkpt lat="44.50952" lon="1.39805">
        <ele>227.9</ele>
        <time>2022-01-15T14:49:05Z</time>
      </trkpt>
      <trkpt lat="44.50952" lon="1.39807">
        <ele>227.9</ele>
        <time>2022-01-15T14:49:06Z</time>
      </trkpt>
      <trkpt lat="44.50951" lon="1.39811">
        <ele>228.2</ele>
        <time>2022-01-15T14:49:08Z</time>
      </trkpt>
      <trkpt lat="44.5095" lon="1.39817">
        <ele>228.4</ele>
        <time>2022-01-15T14:49:10Z</time>
      </trkpt>
      <trkpt lat="44.50949" lon="1.39819">
        <ele>228.6</ele>
        <time>2022-01-15T14:49:11Z</time>
      </trkpt>
      <trkpt lat="44.50948" lon="1.39821">
        <ele>228.7</ele>
        <time>2022-01-15T14:49:12Z</time>
      </trkpt>
      <trkpt lat="44.50948" lon="1.39825">
        <ele>228.9</ele>
        <time>2022-01-15T14:49:13Z</time>
      </trkpt>
      <trkpt lat="44.50947" lon="1.3983">
        <ele>229.1</ele>
        <time>2022-01-15T14:49:15Z</time>
      </trkpt>
      <trkpt lat="44.50946" lon="1.39834">
        <ele>229.3</ele>
        <time>2022-01-15T14:49:16Z</time>
      </trkpt>
      <trkpt lat="44.50946" lon="1.39838">
        <ele>229.5</ele>
        <time>2022-01-15T14:49:17Z</time>
      </trkpt>
      <trkpt lat="44.50945" lon="1.39839">
        <ele>229.6</ele>
        <time>2022-01-15T14:49:18Z</time>
      </trkpt>
      <trkpt lat="44.50944" lon="1.39843">
        <ele>229.8</ele>
        <time>2022-01-15T14:49:19Z</time>
      </trkpt>
      <trkpt lat="44.50944" lon="1.39845">
        <ele>229.9</ele>
        <time>2022-01-15T14:49:20Z</time>
      </trkpt>
      <trkpt lat="44.50943" lon="1.39851">
        <ele>230.2</ele>
        <time>2022-01-15T14:49:22Z</time>
      </trkpt>
      <trkpt lat="44.50943" lon="1.39853">
        <ele>230.3</ele>
        <time>2022-01-15T14:49:23Z</time>
      </trkpt>
      <trkpt lat="44.50942" lon="1.39855">
        <ele>230.4</ele>
        <time>2022-01-15T14:49:24Z</time>
      </trkpt>
      <trkpt lat="44.50941" lon="1.39859">
        <ele>230.6</ele>
        <time>2022-01-15T14:49:25Z</time>
      </trkpt>
      <trkpt lat="44.50941" lon="1.39861">
        <ele>230.7</ele>
        <time>2022-01-15T14:49:26Z</time>
      </trkpt>
      <trkpt lat="44.5094" lon="1.39865">
        <ele>230.9</ele>
        <time>2022-01-15T14:49:27Z</time>
      </trkpt>
      <trkpt lat="44.50939" lon="1.39867">
        <ele>231</ele>
        <time>2022-01-15T14:49:28Z</time>
      </trkpt>
      <trkpt lat="44.50938" lon="1.39871">
        <ele>231.2</ele>
        <time>2022-01-15T14:49:30Z</time>
      </trkpt>
      <trkpt lat="44.50938" lon="1.39873">
        <ele>231.3</ele>
        <time>2022-01-15T14:49:31Z</time>
      </trkpt>
      <trkpt lat="44.50937" lon="1.39875">
        <ele>231.4</ele>
        <time>2022-01-15T14:49:32Z</time>
      </trkpt>
      <trkpt lat="44.50935" lon="1.39881">
        <ele>231.8</ele>
        <time>2022-01-15T14:49:34Z</time>
      </trkpt>
      <trkpt lat="44.50934" lon="1.39883">
        <ele>231.9</ele>
        <time>2022-01-15T14:49:35Z</time>
      </trkpt>
      <trkpt lat="44.50934" lon="1.39885">
        <ele>232</ele>
        <time>2022-01-15T14:49:36Z</time>
      </trkpt>
      <trkpt lat="44.50933" lon="1.39889">
        <ele>232.2</ele>
        <time>2022-01-15T14:49:37Z</time>
      </trkpt>
      <trkpt lat="44.50932" lon="1.3989">
        <ele>232.3</ele>
        <time>2022-01-15T14:49:38Z</time>
      </trkpt>
      <trkpt lat="44.50931" lon="1.39895">
        <ele>232.5</ele>
        <time>2022-01-15T14:49:39Z</time>
      </trkpt>
      <trkpt lat="44.50931" lon="1.39896">
        <ele>232.6</ele>
        <time>2022-01-15T14:49:40Z</time>
      </trkpt>
      <trkpt lat="44.5093" lon="1.399">
        <ele>232.8</ele>
        <time>2022-01-15T14:49:41Z</time>
      </trkpt>
      <trkpt lat="44.50929" lon="1.39901">
        <ele>232.9</ele>
        <time>2022-01-15T14:49:42Z</time>
      </trkpt>
      <trkpt lat="44.50928" lon="1.39903">
        <ele>233.1</ele>
        <time>2022-01-15T14:49:43Z</time>
      </trkpt>
      <trkpt lat="44.50927" lon="1.39905">
        <ele>233.2</ele>
        <time>2022-01-15T14:49:44Z</time>
      </trkpt>
      <trkpt lat="44.50926" lon="1.39909">
        <ele>233.4</ele>
        <time>2022-01-15T14:49:45Z</time>
      </trkpt>
      <trkpt lat="44.50926" lon="1.3991">
        <ele>233.5</ele>
        <time>2022-01-15T14:49:46Z</time>
      </trkpt>
      <trkpt lat="44.50925" lon="1.39914">
        <ele>233.7</ele>
        <time>2022-01-15T14:49:47Z</time>
      </trkpt>
      <trkpt lat="44.50924" lon="1.39915">
        <ele>233.8</ele>
        <time>2022-01-15T14:49:48Z</time>
      </trkpt>
      <trkpt lat="44.50922" lon="1.39918">
        <ele>234.1</ele>
        <time>2022-01-15T14:49:49Z</time>
      </trkpt>
      <trkpt lat="44.50922" lon="1.3992">
        <ele>234.1</ele>
        <time>2022-01-15T14:49:50Z</time>
      </trkpt>
      <trkpt lat="44.50921" lon="1.39921">
        <ele>234.3</ele>
        <time>2022-01-15T14:49:51Z</time>
      </trkpt>
      <trkpt lat="44.5092" lon="1.39923">
        <ele>234.4</ele>
        <time>2022-01-15T14:49:52Z</time>
      </trkpt>
      <trkpt lat="44.50919" lon="1.39927">
        <ele>234.6</ele>
        <time>2022-01-15T14:49:53Z</time>
      </trkpt>
      <trkpt lat="44.50918" lon="1.39928">
        <ele>234.6</ele>
        <time>2022-01-15T14:49:54Z</time>
      </trkpt>
      <trkpt lat="44.50917" lon="1.39933">
        <ele>234.9</ele>
        <time>2022-01-15T14:49:55Z</time>
      </trkpt>
      <trkpt lat="44.50916" lon="1.39934">
        <ele>235</ele>
        <time>2022-01-15T14:49:56Z</time>
      </trkpt>
      <trkpt lat="44.50915" lon="1.39938">
        <ele>235.2</ele>
        <time>2022-01-15T14:49:57Z</time>
      </trkpt>
      <trkpt lat="44.50915" lon="1.39939">
        <ele>235.2</ele>
        <time>2022-01-15T14:49:58Z</time>
      </trkpt>
      <trkpt lat="44.50912" lon="1.39944">
        <ele>235.5</ele>
        <time>2022-01-15T14:50:00Z</time>
      </trkpt>
      <trkpt lat="44.50911" lon="1.39945">
        <ele>235.6</ele>
        <time>2022-01-15T14:50:01Z</time>
      </trkpt>
      <trkpt lat="44.50911" lon="1.39948">
        <ele>235.8</ele>
        <time>2022-01-15T14:50:02Z</time>
      </trkpt>
      <trkpt lat="44.5091" lon="1.39951">
        <ele>235.9</ele>
        <time>2022-01-15T14:50:03Z</time>
      </trkpt>
      <trkpt lat="44.50908" lon="1.39955">
        <ele>236.2</ele>
        <time>2022-01-15T14:50:05Z</time>
      </trkpt>
      <trkpt lat="44.50906" lon="1.39958">
        <ele>236.4</ele>
        <time>2022-01-15T14:50:06Z</time>
      </trkpt>
      <trkpt lat="44.50906" lon="1.3996">
        <ele>236.5</ele>
        <time>2022-01-15T14:50:07Z</time>
      </trkpt>
      <trkpt lat="44.50904" lon="1.39964">
        <ele>236.7</ele>
        <time>2022-01-15T14:50:08Z</time>
      </trkpt>
      <trkpt lat="44.50904" lon="1.39965">
        <ele>236.8</ele>
        <time>2022-01-15T14:50:09Z</time>
      </trkpt>
      <trkpt lat="44.50902" lon="1.39971">
        <ele>237.2</ele>
        <time>2022-01-15T14:50:11Z</time>
      </trkpt>
      <trkpt lat="44.50901" lon="1.39973">
        <ele>237.3</ele>
        <time>2022-01-15T14:50:12Z</time>
      </trkpt>
      <trkpt lat="44.509" lon="1.39974">
        <ele>237.4</ele>
        <time>2022-01-15T14:50:13Z</time>
      </trkpt>
      <trkpt lat="44.50898" lon="1.39978">
        <ele>237.6</ele>
        <time>2022-01-15T14:50:14Z</time>
      </trkpt>
      <trkpt lat="44.50897" lon="1.3998">
        <ele>237.7</ele>
        <time>2022-01-15T14:50:15Z</time>
      </trkpt>
      <trkpt lat="44.50896" lon="1.39982">
        <ele>237.9</ele>
        <time>2022-01-15T14:50:16Z</time>
      </trkpt>
      <trkpt lat="44.50895" lon="1.39986">
        <ele>238.1</ele>
        <time>2022-01-15T14:50:18Z</time>
      </trkpt>
      <trkpt lat="44.50892" lon="1.39989">
        <ele>238.4</ele>
        <time>2022-01-15T14:50:19Z</time>
      </trkpt>
      <trkpt lat="44.50891" lon="1.39993">
        <ele>238.6</ele>
        <time>2022-01-15T14:50:21Z</time>
      </trkpt>
      <trkpt lat="44.50889" lon="1.39995">
        <ele>238.8</ele>
        <time>2022-01-15T14:50:22Z</time>
      </trkpt>
      <trkpt lat="44.50888" lon="1.4">
        <ele>239</ele>
        <time>2022-01-15T14:50:24Z</time>
      </trkpt>
      <trkpt lat="44.50885" lon="1.40003">
        <ele>239.2</ele>
        <time>2022-01-15T14:50:25Z</time>
      </trkpt>
      <trkpt lat="44.50885" lon="1.40005">
        <ele>239.3</ele>
        <time>2022-01-15T14:50:26Z</time>
      </trkpt>
      <trkpt lat="44.50883" lon="1.40008">
        <ele>239.5</ele>
        <time>2022-01-15T14:50:27Z</time>
      </trkpt>
      <trkpt lat="44.50882" lon="1.40009">
        <ele>239.5</ele>
        <time>2022-01-15T14:50:28Z</time>
      </trkpt>
      <trkpt lat="44.50881" lon="1.40011">
        <ele>239.7</ele>
        <time>2022-01-15T14:50:29Z</time>
      </trkpt>
      <trkpt lat="44.50879" lon="1.40016">
        <ele>239.9</ele>
        <time>2022-01-15T14:50:31Z</time>
      </trkpt>
      <trkpt lat="44.50877" lon="1.4002">
        <ele>240.1</ele>
        <time>2022-01-15T14:50:32Z</time>
      </trkpt>
      <trkpt lat="44.50877" lon="1.40021">
        <ele>240.2</ele>
        <time>2022-01-15T14:50:33Z</time>
      </trkpt>
      <trkpt lat="44.50875" lon="1.40025">
        <ele>240.4</ele>
        <time>2022-01-15T14:50:34Z</time>
      </trkpt>
      <trkpt lat="44.50874" lon="1.40026">
        <ele>240.4</ele>
        <time>2022-01-15T14:50:35Z</time>
      </trkpt>
      <trkpt lat="44.50873" lon="1.40028">
        <ele>240.5</ele>
        <time>2022-01-15T14:50:36Z</time>
      </trkpt>
      <trkpt lat="44.50872" lon="1.4003">
        <ele>240.6</ele>
        <time>2022-01-15T14:50:37Z</time>
      </trkpt>
      <trkpt lat="44.5087" lon="1.40033">
        <ele>240.9</ele>
        <time>2022-01-15T14:50:38Z</time>
      </trkpt>
      <trkpt lat="44.50869" lon="1.40034">
        <ele>240.9</ele>
        <time>2022-01-15T14:50:39Z</time>
      </trkpt>
      <trkpt lat="44.50867" lon="1.40038">
        <ele>241.2</ele>
        <time>2022-01-15T14:50:40Z</time>
      </trkpt>
      <trkpt lat="44.50867" lon="1.40039">
        <ele>241.3</ele>
        <time>2022-01-15T14:50:41Z</time>
      </trkpt>
      <trkpt lat="44.50865" lon="1.40042">
        <ele>241.4</ele>
        <time>2022-01-15T14:50:42Z</time>
      </trkpt>
      <trkpt lat="44.50863" lon="1.40045">
        <ele>241.7</ele>
        <time>2022-01-15T14:50:44Z</time>
      </trkpt>
      <trkpt lat="44.50861" lon="1.40049">
        <ele>241.9</ele>
        <time>2022-01-15T14:50:45Z</time>
      </trkpt>
      <trkpt lat="44.50861" lon="1.4005">
        <ele>242</ele>
        <time>2022-01-15T14:50:46Z</time>
      </trkpt>
      <trkpt lat="44.50859" lon="1.40054">
        <ele>242.2</ele>
        <time>2022-01-15T14:50:47Z</time>
      </trkpt>
      <trkpt lat="44.50858" lon="1.40055">
        <ele>242.3</ele>
        <time>2022-01-15T14:50:48Z</time>
      </trkpt>
      <trkpt lat="44.50857" lon="1.40057">
        <ele>242.4</ele>
        <time>2022-01-15T14:50:49Z</time>
      </trkpt>
      <trkpt lat="44.50855" lon="1.40062">
        <ele>242.7</ele>
        <time>2022-01-15T14:50:51Z</time>
      </trkpt>
      <trkpt lat="44.50852" lon="1.40065">
        <ele>242.9</ele>
        <time>2022-01-15T14:50:52Z</time>
      </trkpt>
      <trkpt lat="44.50852" lon="1.40066">
        <ele>243</ele>
        <time>2022-01-15T14:50:53Z</time>
      </trkpt>
      <trkpt lat="44.5085" lon="1.4007">
        <ele>243.2</ele>
        <time>2022-01-15T14:50:54Z</time>
      </trkpt>
      <trkpt lat="44.50849" lon="1.40072">
        <ele>243.3</ele>
        <time>2022-01-15T14:50:55Z</time>
      </trkpt>
      <trkpt lat="44.50848" lon="1.40074">
        <ele>243.4</ele>
        <time>2022-01-15T14:50:56Z</time>
      </trkpt>
      <trkpt lat="44.50846" lon="1.40078">
        <ele>243.6</ele>
        <time>2022-01-15T14:50:58Z</time>
      </trkpt>
      <trkpt lat="44.50845" lon="1.40082">
        <ele>243.8</ele>
        <time>2022-01-15T14:50:59Z</time>
      </trkpt>
      <trkpt lat="44.50844" lon="1.40083">
        <ele>243.9</ele>
        <time>2022-01-15T14:51:00Z</time>
      </trkpt>
      <trkpt lat="44.50844" lon="1.40086">
        <ele>244</ele>
        <time>2022-01-15T14:51:01Z</time>
      </trkpt>
      <trkpt lat="44.50842" lon="1.40091">
        <ele>244.3</ele>
        <time>2022-01-15T14:51:03Z</time>
      </trkpt>
      <trkpt lat="44.50842" lon="1.40095">
        <ele>244.5</ele>
        <time>2022-01-15T14:51:04Z</time>
      </trkpt>
      <trkpt lat="44.50841" lon="1.40096">
        <ele>244.5</ele>
        <time>2022-01-15T14:51:05Z</time>
      </trkpt>
      <trkpt lat="44.5084" lon="1.40101">
        <ele>244.8</ele>
        <time>2022-01-15T14:51:06Z</time>
      </trkpt>
      <trkpt lat="44.5084" lon="1.40102">
        <ele>244.9</ele>
        <time>2022-01-15T14:51:07Z</time>
      </trkpt>
      <trkpt lat="44.50839" lon="1.40106">
        <ele>245</ele>
        <time>2022-01-15T14:51:08Z</time>
      </trkpt>
      <trkpt lat="44.50838" lon="1.4011">
        <ele>245.2</ele>
        <time>2022-01-15T14:51:10Z</time>
      </trkpt>
      <trkpt lat="44.50837" lon="1.40114">
        <ele>245.5</ele>
        <time>2022-01-15T14:51:11Z</time>
      </trkpt>
      <trkpt lat="44.50837" lon="1.40116">
        <ele>245.6</ele>
        <time>2022-01-15T14:51:12Z</time>
      </trkpt>
      <trkpt lat="44.50837" lon="1.4012">
        <ele>245.8</ele>
        <time>2022-01-15T14:51:13Z</time>
      </trkpt>
      <trkpt lat="44.50837" lon="1.40121">
        <ele>245.9</ele>
        <time>2022-01-15T14:51:14Z</time>
      </trkpt>
      <trkpt lat="44.50836" lon="1.40125">
        <ele>246.1</ele>
        <time>2022-01-15T14:51:15Z</time>
      </trkpt>
      <trkpt lat="44.50836" lon="1.40127">
        <ele>246.1</ele>
        <time>2022-01-15T14:51:16Z</time>
      </trkpt>
      <trkpt lat="44.50835" lon="1.40131">
        <ele>246.4</ele>
        <time>2022-01-15T14:51:17Z</time>
      </trkpt>
      <trkpt lat="44.50835" lon="1.40133">
        <ele>246.4</ele>
        <time>2022-01-15T14:51:18Z</time>
      </trkpt>
      <trkpt lat="44.50835" lon="1.40137">
        <ele>246.7</ele>
        <time>2022-01-15T14:51:19Z</time>
      </trkpt>
      <trkpt lat="44.50834" lon="1.40138">
        <ele>246.8</ele>
        <time>2022-01-15T14:51:20Z</time>
      </trkpt>
      <trkpt lat="44.50834" lon="1.40142">
        <ele>247</ele>
        <time>2022-01-15T14:51:21Z</time>
      </trkpt>
      <trkpt lat="44.50834" lon="1.40144">
        <ele>247</ele>
        <time>2022-01-15T14:51:22Z</time>
      </trkpt>
      <trkpt lat="44.50833" lon="1.40147">
        <ele>247.2</ele>
        <time>2022-01-15T14:51:23Z</time>
      </trkpt>
      <trkpt lat="44.50833" lon="1.40149">
        <ele>247.3</ele>
        <time>2022-01-15T14:51:24Z</time>
      </trkpt>
      <trkpt lat="44.50832" lon="1.40153">
        <ele>247.5</ele>
        <time>2022-01-15T14:51:25Z</time>
      </trkpt>
      <trkpt lat="44.50832" lon="1.40154">
        <ele>247.6</ele>
        <time>2022-01-15T14:51:26Z</time>
      </trkpt>
      <trkpt lat="44.50831" lon="1.4016">
        <ele>247.8</ele>
        <time>2022-01-15T14:51:28Z</time>
      </trkpt>
      <trkpt lat="44.5083" lon="1.40164">
        <ele>248</ele>
        <time>2022-01-15T14:51:29Z</time>
      </trkpt>
      <trkpt lat="44.5083" lon="1.40166">
        <ele>248.1</ele>
        <time>2022-01-15T14:51:30Z</time>
      </trkpt>
      <trkpt lat="44.50829" lon="1.4017">
        <ele>248.3</ele>
        <time>2022-01-15T14:51:31Z</time>
      </trkpt>
      <trkpt lat="44.50829" lon="1.40172">
        <ele>248.4</ele>
        <time>2022-01-15T14:51:32Z</time>
      </trkpt>
      <trkpt lat="44.50828" lon="1.40176">
        <ele>248.6</ele>
        <time>2022-01-15T14:51:33Z</time>
      </trkpt>
      <trkpt lat="44.50828" lon="1.40177">
        <ele>248.7</ele>
        <time>2022-01-15T14:51:34Z</time>
      </trkpt>
      <trkpt lat="44.50827" lon="1.40181">
        <ele>248.8</ele>
        <time>2022-01-15T14:51:35Z</time>
      </trkpt>
      <trkpt lat="44.50827" lon="1.40182">
        <ele>248.9</ele>
        <time>2022-01-15T14:51:36Z</time>
      </trkpt>
      <trkpt lat="44.50827" lon="1.40186">
        <ele>249</ele>
        <time>2022-01-15T14:51:37Z</time>
      </trkpt>
      <trkpt lat="44.50825" lon="1.40192">
        <ele>249.3</ele>
        <time>2022-01-15T14:51:39Z</time>
      </trkpt>
      <trkpt lat="44.50825" lon="1.40195">
        <ele>249.5</ele>
        <time>2022-01-15T14:51:40Z</time>
      </trkpt>
      <trkpt lat="44.50825" lon="1.40197">
        <ele>249.6</ele>
        <time>2022-01-15T14:51:41Z</time>
      </trkpt>
      <trkpt lat="44.50824" lon="1.40202">
        <ele>249.9</ele>
        <time>2022-01-15T14:51:43Z</time>
      </trkpt>
      <trkpt lat="44.50824" lon="1.40206">
        <ele>250.1</ele>
        <time>2022-01-15T14:51:44Z</time>
      </trkpt>
      <trkpt lat="44.50824" lon="1.40208">
        <ele>250.1</ele>
        <time>2022-01-15T14:51:45Z</time>
      </trkpt>
      <trkpt lat="44.50823" lon="1.4021">
        <ele>250.3</ele>
        <time>2022-01-15T14:51:46Z</time>
      </trkpt>
      <trkpt lat="44.50823" lon="1.40213">
        <ele>250.4</ele>
        <time>2022-01-15T14:51:47Z</time>
      </trkpt>
      <trkpt lat="44.50822" lon="1.40217">
        <ele>250.6</ele>
        <time>2022-01-15T14:51:48Z</time>
      </trkpt>
      <trkpt lat="44.50821" lon="1.40218">
        <ele>250.6</ele>
        <time>2022-01-15T14:51:49Z</time>
      </trkpt>
      <trkpt lat="44.5082" lon="1.40222">
        <ele>250.9</ele>
        <time>2022-01-15T14:51:50Z</time>
      </trkpt>
      <trkpt lat="44.5082" lon="1.40224">
        <ele>250.9</ele>
        <time>2022-01-15T14:51:51Z</time>
      </trkpt>
      <trkpt lat="44.50819" lon="1.40228">
        <ele>251.1</ele>
        <time>2022-01-15T14:51:52Z</time>
      </trkpt>
      <trkpt lat="44.50819" lon="1.40229">
        <ele>251.2</ele>
        <time>2022-01-15T14:51:53Z</time>
      </trkpt>
      <trkpt lat="44.50819" lon="1.40233">
        <ele>251.4</ele>
        <time>2022-01-15T14:51:54Z</time>
      </trkpt>
      <trkpt lat="44.50819" lon="1.40235">
        <ele>251.5</ele>
        <time>2022-01-15T14:51:55Z</time>
      </trkpt>
      <trkpt lat="44.50819" lon="1.40239">
        <ele>251.7</ele>
        <time>2022-01-15T14:51:56Z</time>
      </trkpt>
      <trkpt lat="44.50818" lon="1.40241">
        <ele>251.8</ele>
        <time>2022-01-15T14:51:57Z</time>
      </trkpt>
      <trkpt lat="44.50818" lon="1.40245">
        <ele>252</ele>
        <time>2022-01-15T14:51:58Z</time>
      </trkpt>
      <trkpt lat="44.50818" lon="1.40246">
        <ele>252</ele>
        <time>2022-01-15T14:51:59Z</time>
      </trkpt>
      <trkpt lat="44.50817" lon="1.40251">
        <ele>252.3</ele>
        <time>2022-01-15T14:52:01Z</time>
      </trkpt>
      <trkpt lat="44.50817" lon="1.40255">
        <ele>252.5</ele>
        <time>2022-01-15T14:52:02Z</time>
      </trkpt>
      <trkpt lat="44.50817" lon="1.40257">
        <ele>252.5</ele>
        <time>2022-01-15T14:52:03Z</time>
      </trkpt>
      <trkpt lat="44.50817" lon="1.40261">
        <ele>252.8</ele>
        <time>2022-01-15T14:52:04Z</time>
      </trkpt>
      <trkpt lat="44.50817" lon="1.40263">
        <ele>252.8</ele>
        <time>2022-01-15T14:52:05Z</time>
      </trkpt>
      <trkpt lat="44.50816" lon="1.40268">
        <ele>253.1</ele>
        <time>2022-01-15T14:52:07Z</time>
      </trkpt>
      <trkpt lat="44.50815" lon="1.40272">
        <ele>253.3</ele>
        <time>2022-01-15T14:52:08Z</time>
      </trkpt>
      <trkpt lat="44.50815" lon="1.40273">
        <ele>253.4</ele>
        <time>2022-01-15T14:52:09Z</time>
      </trkpt>
      <trkpt lat="44.50815" lon="1.40274">
        <ele>253.4</ele>
        <time>2022-01-15T14:52:10Z</time>
      </trkpt>
      <trkpt lat="44.50814" lon="1.40275">
        <ele>253.5</ele>
        <time>2022-01-15T14:52:11Z</time>
      </trkpt>
      <trkpt lat="44.50813" lon="1.40276">
        <ele>253.6</ele>
        <time>2022-01-15T14:52:12Z</time>
      </trkpt>
      <trkpt lat="44.50812" lon="1.4028">
        <ele>253.8</ele>
        <time>2022-01-15T14:52:13Z</time>
      </trkpt>
      <trkpt lat="44.50812" lon="1.40281">
        <ele>253.9</ele>
        <time>2022-01-15T14:52:14Z</time>
      </trkpt>
      <trkpt lat="44.50812" lon="1.40285">
        <ele>254</ele>
        <time>2022-01-15T14:52:15Z</time>
      </trkpt>
      <trkpt lat="44.50812" lon="1.40289">
        <ele>254.3</ele>
        <time>2022-01-15T14:52:17Z</time>
      </trkpt>
      <trkpt lat="44.50812" lon="1.40293">
        <ele>254.5</ele>
        <time>2022-01-15T14:52:18Z</time>
      </trkpt>
      <trkpt lat="44.50812" lon="1.40294">
        <ele>254.5</ele>
        <time>2022-01-15T14:52:19Z</time>
      </trkpt>
      <trkpt lat="44.50812" lon="1.40296">
        <ele>254.6</ele>
        <time>2022-01-15T14:52:20Z</time>
      </trkpt>
      <trkpt lat="44.50811" lon="1.40299">
        <ele>254.8</ele>
        <time>2022-01-15T14:52:21Z</time>
      </trkpt>
      <trkpt lat="44.50811" lon="1.40303">
        <ele>255</ele>
        <time>2022-01-15T14:52:22Z</time>
      </trkpt>
      <trkpt lat="44.50811" lon="1.40305">
        <ele>255.1</ele>
        <time>2022-01-15T14:52:23Z</time>
      </trkpt>
      <trkpt lat="44.50811" lon="1.40309">
        <ele>255.3</ele>
        <time>2022-01-15T14:52:24Z</time>
      </trkpt>
      <trkpt lat="44.50811" lon="1.40311">
        <ele>255.4</ele>
        <time>2022-01-15T14:52:25Z</time>
      </trkpt>
      <trkpt lat="44.5081" lon="1.40315">
        <ele>255.6</ele>
        <time>2022-01-15T14:52:26Z</time>
      </trkpt>
      <trkpt lat="44.5081" lon="1.40316">
        <ele>255.6</ele>
        <time>2022-01-15T14:52:27Z</time>
      </trkpt>
      <trkpt lat="44.50809" lon="1.4032">
        <ele>255.8</ele>
        <time>2022-01-15T14:52:28Z</time>
      </trkpt>
      <trkpt lat="44.50808" lon="1.40321">
        <ele>255.9</ele>
        <time>2022-01-15T14:52:29Z</time>
      </trkpt>
      <trkpt lat="44.50808" lon="1.40323">
        <ele>256</ele>
        <time>2022-01-15T14:52:30Z</time>
      </trkpt>
      <trkpt lat="44.50808" lon="1.40325">
        <ele>256.1</ele>
        <time>2022-01-15T14:52:31Z</time>
      </trkpt>
      <trkpt lat="44.50806" lon="1.4033">
        <ele>256.4</ele>
        <time>2022-01-15T14:52:32Z</time>
      </trkpt>
      <trkpt lat="44.50806" lon="1.40331">
        <ele>256.4</ele>
        <time>2022-01-15T14:52:33Z</time>
      </trkpt>
      <trkpt lat="44.50805" lon="1.40335">
        <ele>256.6</ele>
        <time>2022-01-15T14:52:34Z</time>
      </trkpt>
      <trkpt lat="44.50805" lon="1.40336">
        <ele>256.7</ele>
        <time>2022-01-15T14:52:35Z</time>
      </trkpt>
      <trkpt lat="44.50803" lon="1.40341">
        <ele>256.9</ele>
        <time>2022-01-15T14:52:36Z</time>
      </trkpt>
      <trkpt lat="44.50803" lon="1.40342">
        <ele>257</ele>
        <time>2022-01-15T14:52:37Z</time>
      </trkpt>
      <trkpt lat="44.50802" lon="1.40346">
        <ele>257.2</ele>
        <time>2022-01-15T14:52:38Z</time>
      </trkpt>
      <trkpt lat="44.50802" lon="1.40347">
        <ele>257.3</ele>
        <time>2022-01-15T14:52:39Z</time>
      </trkpt>
      <trkpt lat="44.50801" lon="1.40349">
        <ele>257.4</ele>
        <time>2022-01-15T14:52:40Z</time>
      </trkpt>
      <trkpt lat="44.508" lon="1.40351">
        <ele>257.5</ele>
        <time>2022-01-15T14:52:41Z</time>
      </trkpt>
      <trkpt lat="44.50799" lon="1.40353">
        <ele>257.6</ele>
        <time>2022-01-15T14:52:42Z</time>
      </trkpt>
      <trkpt lat="44.50798" lon="1.40355">
        <ele>257.8</ele>
        <time>2022-01-15T14:52:43Z</time>
      </trkpt>
      <trkpt lat="44.50795" lon="1.40361">
        <ele>258.1</ele>
        <time>2022-01-15T14:52:45Z</time>
      </trkpt>
      <trkpt lat="44.50794" lon="1.40363">
        <ele>258.2</ele>
        <time>2022-01-15T14:52:46Z</time>
      </trkpt>
      <trkpt lat="44.50794" lon="1.40364">
        <ele>258.3</ele>
        <time>2022-01-15T14:52:47Z</time>
      </trkpt>
      <trkpt lat="44.50792" lon="1.40368">
        <ele>258.5</ele>
        <time>2022-01-15T14:52:48Z</time>
      </trkpt>
      <trkpt lat="44.50792" lon="1.4037">
        <ele>258.6</ele>
        <time>2022-01-15T14:52:49Z</time>
      </trkpt>
      <trkpt lat="44.5079" lon="1.40373">
        <ele>258.8</ele>
        <time>2022-01-15T14:52:50Z</time>
      </trkpt>
      <trkpt lat="44.50789" lon="1.40374">
        <ele>258.9</ele>
        <time>2022-01-15T14:52:51Z</time>
      </trkpt>
      <trkpt lat="44.50788" lon="1.40378">
        <ele>259.1</ele>
        <time>2022-01-15T14:52:52Z</time>
      </trkpt>
      <trkpt lat="44.50787" lon="1.40379">
        <ele>259.2</ele>
        <time>2022-01-15T14:52:53Z</time>
      </trkpt>
      <trkpt lat="44.50785" lon="1.40383">
        <ele>259.4</ele>
        <time>2022-01-15T14:52:54Z</time>
      </trkpt>
      <trkpt lat="44.50785" lon="1.40384">
        <ele>259.5</ele>
        <time>2022-01-15T14:52:55Z</time>
      </trkpt>
      <trkpt lat="44.50783" lon="1.40387">
        <ele>259.7</ele>
        <time>2022-01-15T14:52:56Z</time>
      </trkpt>
      <trkpt lat="44.50782" lon="1.40388">
        <ele>259.7</ele>
        <time>2022-01-15T14:52:57Z</time>
      </trkpt>
      <trkpt lat="44.50781" lon="1.40391">
        <ele>259.9</ele>
        <time>2022-01-15T14:52:58Z</time>
      </trkpt>
      <trkpt lat="44.5078" lon="1.40393">
        <ele>260</ele>
        <time>2022-01-15T14:52:59Z</time>
      </trkpt>
      <trkpt lat="44.50779" lon="1.40396">
        <ele>260.2</ele>
        <time>2022-01-15T14:53:00Z</time>
      </trkpt>
      <trkpt lat="44.50779" lon="1.40397">
        <ele>260.2</ele>
        <time>2022-01-15T14:53:01Z</time>
      </trkpt>
      <trkpt lat="44.50777" lon="1.404">
        <ele>260.4</ele>
        <time>2022-01-15T14:53:02Z</time>
      </trkpt>
      <trkpt lat="44.50777" lon="1.40402">
        <ele>260.5</ele>
        <time>2022-01-15T14:53:03Z</time>
      </trkpt>
      <trkpt lat="44.50777" lon="1.40404">
        <ele>260.6</ele>
        <time>2022-01-15T14:53:04Z</time>
      </trkpt>
      <trkpt lat="44.50776" lon="1.40406">
        <ele>260.7</ele>
        <time>2022-01-15T14:53:05Z</time>
      </trkpt>
      <trkpt lat="44.50775" lon="1.40408">
        <ele>260.8</ele>
        <time>2022-01-15T14:53:06Z</time>
      </trkpt>
      <trkpt lat="44.50774" lon="1.4041">
        <ele>261</ele>
        <time>2022-01-15T14:53:07Z</time>
      </trkpt>
      <trkpt lat="44.50773" lon="1.40412">
        <ele>261.1</ele>
        <time>2022-01-15T14:53:08Z</time>
      </trkpt>
      <trkpt lat="44.50772" lon="1.40415">
        <ele>261.2</ele>
        <time>2022-01-15T14:53:09Z</time>
      </trkpt>
      <trkpt lat="44.50771" lon="1.40418">
        <ele>261.4</ele>
        <time>2022-01-15T14:53:10Z</time>
      </trkpt>
      <trkpt lat="44.50771" lon="1.40419">
        <ele>261.5</ele>
        <time>2022-01-15T14:53:11Z</time>
      </trkpt>
      <trkpt lat="44.5077" lon="1.40423">
        <ele>261.7</ele>
        <time>2022-01-15T14:53:12Z</time>
      </trkpt>
      <trkpt lat="44.5077" lon="1.40424">
        <ele>261.7</ele>
        <time>2022-01-15T14:53:13Z</time>
      </trkpt>
      <trkpt lat="44.5077" lon="1.40429">
        <ele>262</ele>
        <time>2022-01-15T14:53:14Z</time>
      </trkpt>
      <trkpt lat="44.50769" lon="1.4043">
        <ele>262.1</ele>
        <time>2022-01-15T14:53:15Z</time>
      </trkpt>
      <trkpt lat="44.50769" lon="1.40434">
        <ele>262.3</ele>
        <time>2022-01-15T14:53:16Z</time>
      </trkpt>
      <trkpt lat="44.50769" lon="1.40436">
        <ele>262.4</ele>
        <time>2022-01-15T14:53:17Z</time>
      </trkpt>
      <trkpt lat="44.50768" lon="1.40439">
        <ele>262.6</ele>
        <time>2022-01-15T14:53:18Z</time>
      </trkpt>
      <trkpt lat="44.50767" lon="1.4044">
        <ele>262.7</ele>
        <time>2022-01-15T14:53:19Z</time>
      </trkpt>
      <trkpt lat="44.50767" lon="1.40445">
        <ele>262.9</ele>
        <time>2022-01-15T14:53:20Z</time>
      </trkpt>
      <trkpt lat="44.50766" lon="1.40446">
        <ele>263</ele>
        <time>2022-01-15T14:53:21Z</time>
      </trkpt>
      <trkpt lat="44.50765" lon="1.40451">
        <ele>263.3</ele>
        <time>2022-01-15T14:53:22Z</time>
      </trkpt>
      <trkpt lat="44.50765" lon="1.40452">
        <ele>263.4</ele>
        <time>2022-01-15T14:53:23Z</time>
      </trkpt>
      <trkpt lat="44.50765" lon="1.40456">
        <ele>263.6</ele>
        <time>2022-01-15T14:53:24Z</time>
      </trkpt>
      <trkpt lat="44.50765" lon="1.40457">
        <ele>263.7</ele>
        <time>2022-01-15T14:53:25Z</time>
      </trkpt>
      <trkpt lat="44.50764" lon="1.40461">
        <ele>263.9</ele>
        <time>2022-01-15T14:53:26Z</time>
      </trkpt>
      <trkpt lat="44.50764" lon="1.40463">
        <ele>264</ele>
        <time>2022-01-15T14:53:27Z</time>
      </trkpt>
      <trkpt lat="44.50764" lon="1.40465">
        <ele>264.1</ele>
        <time>2022-01-15T14:53:28Z</time>
      </trkpt>
      <trkpt lat="44.50765" lon="1.40467">
        <ele>264.3</ele>
        <time>2022-01-15T14:53:29Z</time>
      </trkpt>
      <trkpt lat="44.50765" lon="1.40471">
        <ele>264.5</ele>
        <time>2022-01-15T14:53:30Z</time>
      </trkpt>
      <trkpt lat="44.50766" lon="1.40473">
        <ele>264.6</ele>
        <time>2022-01-15T14:53:31Z</time>
      </trkpt>
      <trkpt lat="44.50767" lon="1.40478">
        <ele>264.8</ele>
        <time>2022-01-15T14:53:32Z</time>
      </trkpt>
      <trkpt lat="44.50768" lon="1.40479">
        <ele>264.9</ele>
        <time>2022-01-15T14:53:33Z</time>
      </trkpt>
      <trkpt lat="44.50769" lon="1.40484">
        <ele>265.2</ele>
        <time>2022-01-15T14:53:34Z</time>
      </trkpt>
      <trkpt lat="44.50769" lon="1.40485">
        <ele>265.2</ele>
        <time>2022-01-15T14:53:35Z</time>
      </trkpt>
      <trkpt lat="44.5077" lon="1.40488">
        <ele>265.4</ele>
        <time>2022-01-15T14:53:36Z</time>
      </trkpt>
      <trkpt lat="44.50772" lon="1.40492">
        <ele>265.6</ele>
        <time>2022-01-15T14:53:38Z</time>
      </trkpt>
      <trkpt lat="44.50775" lon="1.40495">
        <ele>265.8</ele>
        <time>2022-01-15T14:53:39Z</time>
      </trkpt>
      <trkpt lat="44.50776" lon="1.40496">
        <ele>265.9</ele>
        <time>2022-01-15T14:53:40Z</time>
      </trkpt>
      <trkpt lat="44.50778" lon="1.40498">
        <ele>266.1</ele>
        <time>2022-01-15T14:53:41Z</time>
      </trkpt>
      <trkpt lat="44.50779" lon="1.40499">
        <ele>266.2</ele>
        <time>2022-01-15T14:53:42Z</time>
      </trkpt>
      <trkpt lat="44.50782" lon="1.40501">
        <ele>266.4</ele>
        <time>2022-01-15T14:53:43Z</time>
      </trkpt>
      <trkpt lat="44.50783" lon="1.40501">
        <ele>266.4</ele>
        <time>2022-01-15T14:53:44Z</time>
      </trkpt>
      <trkpt lat="44.50787" lon="1.40503">
        <ele>266.7</ele>
        <time>2022-01-15T14:53:45Z</time>
      </trkpt>
      <trkpt lat="44.50788" lon="1.40504">
        <ele>266.8</ele>
        <time>2022-01-15T14:53:46Z</time>
      </trkpt>
      <trkpt lat="44.50791" lon="1.40505">
        <ele>267.1</ele>
        <time>2022-01-15T14:53:48Z</time>
      </trkpt>
      <trkpt lat="44.50793" lon="1.40506">
        <ele>267.2</ele>
        <time>2022-01-15T14:53:49Z</time>
      </trkpt>
      <trkpt lat="44.50796" lon="1.40507">
        <ele>267.4</ele>
        <time>2022-01-15T14:53:51Z</time>
      </trkpt>
      <trkpt lat="44.50798" lon="1.40507">
        <ele>267.5</ele>
        <time>2022-01-15T14:53:52Z</time>
      </trkpt>
      <trkpt lat="44.508" lon="1.40507">
        <ele>267.7</ele>
        <time>2022-01-15T14:53:53Z</time>
      </trkpt>
      <trkpt lat="44.50802" lon="1.40508">
        <ele>267.9</ele>
        <time>2022-01-15T14:53:54Z</time>
      </trkpt>
      <trkpt lat="44.50803" lon="1.40508">
        <ele>267.9</ele>
        <time>2022-01-15T14:53:55Z</time>
      </trkpt>
      <trkpt lat="44.50805" lon="1.40509">
        <ele>268.1</ele>
        <time>2022-01-15T14:53:56Z</time>
      </trkpt>
      <trkpt lat="44.50809" lon="1.4051">
        <ele>268.4</ele>
        <time>2022-01-15T14:53:58Z</time>
      </trkpt>
      <trkpt lat="44.50812" lon="1.40511">
        <ele>268.6</ele>
        <time>2022-01-15T14:53:59Z</time>
      </trkpt>
      <trkpt lat="44.50813" lon="1.40511">
        <ele>268.7</ele>
        <time>2022-01-15T14:54:00Z</time>
      </trkpt>
      <trkpt lat="44.50816" lon="1.40511">
        <ele>268.9</ele>
        <time>2022-01-15T14:54:01Z</time>
      </trkpt>
      <trkpt lat="44.50817" lon="1.40511">
        <ele>268.9</ele>
        <time>2022-01-15T14:54:02Z</time>
      </trkpt>
      <trkpt lat="44.50821" lon="1.40513">
        <ele>269.2</ele>
        <time>2022-01-15T14:54:04Z</time>
      </trkpt>
      <trkpt lat="44.50825" lon="1.40514">
        <ele>269.4</ele>
        <time>2022-01-15T14:54:06Z</time>
      </trkpt>
      <trkpt lat="44.50827" lon="1.40514">
        <ele>269.6</ele>
        <time>2022-01-15T14:54:07Z</time>
      </trkpt>
      <trkpt lat="44.50828" lon="1.40514">
        <ele>269.7</ele>
        <time>2022-01-15T14:54:08Z</time>
      </trkpt>
      <trkpt lat="44.5083" lon="1.40515">
        <ele>269.8</ele>
        <time>2022-01-15T14:54:09Z</time>
      </trkpt>
      <trkpt lat="44.50831" lon="1.40516">
        <ele>269.9</ele>
        <time>2022-01-15T14:54:10Z</time>
      </trkpt>
      <trkpt lat="44.50834" lon="1.40517">
        <ele>270.1</ele>
        <time>2022-01-15T14:54:11Z</time>
      </trkpt>
      <trkpt lat="44.50835" lon="1.40517">
        <ele>270.1</ele>
        <time>2022-01-15T14:54:12Z</time>
      </trkpt>
      <trkpt lat="44.50838" lon="1.40517">
        <ele>270.3</ele>
        <time>2022-01-15T14:54:13Z</time>
      </trkpt>
      <trkpt lat="44.50839" lon="1.40518">
        <ele>270.4</ele>
        <time>2022-01-15T14:54:14Z</time>
      </trkpt>
      <trkpt lat="44.50841" lon="1.40518">
        <ele>270.4</ele>
        <time>2022-01-15T14:54:15Z</time>
      </trkpt>
      <trkpt lat="44.50842" lon="1.40518">
        <ele>270.5</ele>
        <time>2022-01-15T14:54:16Z</time>
      </trkpt>
      <trkpt lat="44.50845" lon="1.40519">
        <ele>270.7</ele>
        <time>2022-01-15T14:54:17Z</time>
      </trkpt>
      <trkpt lat="44.50846" lon="1.40519">
        <ele>270.8</ele>
        <time>2022-01-15T14:54:18Z</time>
      </trkpt>
      <trkpt lat="44.50849" lon="1.4052">
        <ele>271</ele>
        <time>2022-01-15T14:54:19Z</time>
      </trkpt>
      <trkpt lat="44.5085" lon="1.4052">
        <ele>271</ele>
        <time>2022-01-15T14:54:20Z</time>
      </trkpt>
      <trkpt lat="44.50852" lon="1.40521">
        <ele>271.1</ele>
        <time>2022-01-15T14:54:21Z</time>
      </trkpt>
      <trkpt lat="44.50853" lon="1.40521">
        <ele>271.2</ele>
        <time>2022-01-15T14:54:22Z</time>
      </trkpt>
      <trkpt lat="44.50856" lon="1.40522">
        <ele>271.4</ele>
        <time>2022-01-15T14:54:23Z</time>
      </trkpt>
      <trkpt lat="44.50857" lon="1.40522">
        <ele>271.5</ele>
        <time>2022-01-15T14:54:24Z</time>
      </trkpt>
      <trkpt lat="44.5086" lon="1.40522">
        <ele>271.7</ele>
        <time>2022-01-15T14:54:25Z</time>
      </trkpt>
      <trkpt lat="44.50861" lon="1.40522">
        <ele>271.7</ele>
        <time>2022-01-15T14:54:26Z</time>
      </trkpt>
      <trkpt lat="44.50863" lon="1.40523">
        <ele>271.9</ele>
        <time>2022-01-15T14:54:27Z</time>
      </trkpt>
      <trkpt lat="44.50865" lon="1.40523">
        <ele>272</ele>
        <time>2022-01-15T14:54:28Z</time>
      </trkpt>
      <trkpt lat="44.50868" lon="1.40525">
        <ele>272.2</ele>
        <time>2022-01-15T14:54:29Z</time>
      </trkpt>
      <trkpt lat="44.50869" lon="1.40525">
        <ele>272.2</ele>
        <time>2022-01-15T14:54:30Z</time>
      </trkpt>
      <trkpt lat="44.50872" lon="1.40526">
        <ele>272.4</ele>
        <time>2022-01-15T14:54:31Z</time>
      </trkpt>
      <trkpt lat="44.50873" lon="1.40526">
        <ele>272.5</ele>
        <time>2022-01-15T14:54:32Z</time>
      </trkpt>
      <trkpt lat="44.50876" lon="1.40527">
        <ele>272.7</ele>
        <time>2022-01-15T14:54:33Z</time>
      </trkpt>
      <trkpt lat="44.50877" lon="1.40527">
        <ele>272.8</ele>
        <time>2022-01-15T14:54:34Z</time>
      </trkpt>
      <trkpt lat="44.5088" lon="1.40528">
        <ele>272.9</ele>
        <time>2022-01-15T14:54:35Z</time>
      </trkpt>
      <trkpt lat="44.50881" lon="1.40528">
        <ele>273</ele>
        <time>2022-01-15T14:54:36Z</time>
      </trkpt>
      <trkpt lat="44.50884" lon="1.40529">
        <ele>273.2</ele>
        <time>2022-01-15T14:54:37Z</time>
      </trkpt>
      <trkpt lat="44.50885" lon="1.4053">
        <ele>273.3</ele>
        <time>2022-01-15T14:54:38Z</time>
      </trkpt>
      <trkpt lat="44.50887" lon="1.4053">
        <ele>273.4</ele>
        <time>2022-01-15T14:54:39Z</time>
      </trkpt>
      <trkpt lat="44.50889" lon="1.40532">
        <ele>273.5</ele>
        <time>2022-01-15T14:54:40Z</time>
      </trkpt>
      <trkpt lat="44.5089" lon="1.40532">
        <ele>273.6</ele>
        <time>2022-01-15T14:54:41Z</time>
      </trkpt>
      <trkpt lat="44.50892" lon="1.40533">
        <ele>273.7</ele>
        <time>2022-01-15T14:54:42Z</time>
      </trkpt>
      <trkpt lat="44.50893" lon="1.40534">
        <ele>273.8</ele>
        <time>2022-01-15T14:54:43Z</time>
      </trkpt>
      <trkpt lat="44.50895" lon="1.40536">
        <ele>274</ele>
        <time>2022-01-15T14:54:44Z</time>
      </trkpt>
      <trkpt lat="44.50897" lon="1.40538">
        <ele>274.2</ele>
        <time>2022-01-15T14:54:45Z</time>
      </trkpt>
      <trkpt lat="44.50898" lon="1.40539">
        <ele>274.2</ele>
        <time>2022-01-15T14:54:46Z</time>
      </trkpt>
      <trkpt lat="44.509" lon="1.40541">
        <ele>274.4</ele>
        <time>2022-01-15T14:54:47Z</time>
      </trkpt>
      <trkpt lat="44.50901" lon="1.40542">
        <ele>274.5</ele>
        <time>2022-01-15T14:54:48Z</time>
      </trkpt>
      <trkpt lat="44.50903" lon="1.40545">
        <ele>274.7</ele>
        <time>2022-01-15T14:54:49Z</time>
      </trkpt>
      <trkpt lat="44.50903" lon="1.40546">
        <ele>274.8</ele>
        <time>2022-01-15T14:54:50Z</time>
      </trkpt>
      <trkpt lat="44.50904" lon="1.40549">
        <ele>274.9</ele>
        <time>2022-01-15T14:54:51Z</time>
      </trkpt>
      <trkpt lat="44.50905" lon="1.4055">
        <ele>275</ele>
        <time>2022-01-15T14:54:52Z</time>
      </trkpt>
      <trkpt lat="44.50906" lon="1.40553">
        <ele>275.1</ele>
        <time>2022-01-15T14:54:53Z</time>
      </trkpt>
      <trkpt lat="44.50906" lon="1.40555">
        <ele>275.2</ele>
        <time>2022-01-15T14:54:54Z</time>
      </trkpt>
      <trkpt lat="44.50907" lon="1.40559">
        <ele>275.4</ele>
        <time>2022-01-15T14:54:55Z</time>
      </trkpt>
      <trkpt lat="44.50907" lon="1.40561">
        <ele>275.5</ele>
        <time>2022-01-15T14:54:56Z</time>
      </trkpt>
      <trkpt lat="44.50907" lon="1.40563">
        <ele>275.6</ele>
        <time>2022-01-15T14:54:57Z</time>
      </trkpt>
      <trkpt lat="44.50907" lon="1.40565">
        <ele>275.7</ele>
        <time>2022-01-15T14:54:58Z</time>
      </trkpt>
      <trkpt lat="44.50907" lon="1.40567">
        <ele>275.8</ele>
        <time>2022-01-15T14:54:59Z</time>
      </trkpt>
      <trkpt lat="44.50907" lon="1.40569">
        <ele>275.8</ele>
        <time>2022-01-15T14:55:00Z</time>
      </trkpt>
      <trkpt lat="44.50907" lon="1.4057">
        <ele>275.9</ele>
        <time>2022-01-15T14:55:01Z</time>
      </trkpt>
      <trkpt lat="44.50907" lon="1.4057">
        <ele>275.9</ele>
        <time>2022-01-15T14:55:02Z</time>
      </trkpt>
      <trkpt lat="44.50907" lon="1.4057">
        <ele>275.9</ele>
        <time>2022-01-15T14:55:03Z</time>
      </trkpt>
      <trkpt lat="44.50907" lon="1.40571">
        <ele>275.9</ele>
        <time>2022-01-15T14:55:04Z</time>
      </trkpt>
      <trkpt lat="44.50907" lon="1.40571">
        <ele>275.9</ele>
        <time>2022-01-15T14:55:05Z</time>
      </trkpt>
      <trkpt lat="44.50907" lon="1.40571">
        <ele>275.9</ele>
        <time>2022-01-15T14:55:06Z</time>
      </trkpt>
      <trkpt lat="44.50907" lon="1.40571">
        <ele>275.9</ele>
        <time>2022-01-15T14:55:07Z</time>
      </trkpt>
      <trkpt lat="44.50907" lon="1.40571">
        <ele>275.9</ele>
        <time>2022-01-15T14:55:08Z</time>
      </trkpt>
      <trkpt lat="44.50907" lon="1.40571">
        <ele>275.9</ele>
        <time>2022-01-15T14:55:09Z</time>
      </trkpt>
      <trkpt lat="44.50907" lon="1.40571">
        <ele>275.9</ele>
        <time>2022-01-15T14:55:10Z</time>
      </trkpt>
      <trkpt lat="44.50908" lon="1.40575">
        <ele>276.1</ele>
        <time>2022-01-15T14:58:43Z</time>
      </trkpt>
      <trkpt lat="44.5091" lon="1.40578">
        <ele>276.2</ele>
        <time>2022-01-15T14:58:44Z</time>
      </trkpt>
      <trkpt lat="44.50912" lon="1.40579">
        <ele>276.2</ele>
        <time>2022-01-15T14:58:45Z</time>
      </trkpt>
      <trkpt lat="44.50913" lon="1.40579">
        <ele>276.2</ele>
        <time>2022-01-15T14:58:46Z</time>
      </trkpt>
      <trkpt lat="44.50916" lon="1.40578">
        <ele>276.1</ele>
        <time>2022-01-15T14:58:47Z</time>
      </trkpt>
      <trkpt lat="44.50917" lon="1.40578">
        <ele>276.1</ele>
        <time>2022-01-15T14:58:48Z</time>
      </trkpt>
      <trkpt lat="44.5092" lon="1.40577">
        <ele>276</ele>
        <time>2022-01-15T14:58:49Z</time>
      </trkpt>
      <trkpt lat="44.50922" lon="1.40577">
        <ele>276</ele>
        <time>2022-01-15T14:58:50Z</time>
      </trkpt>
      <trkpt lat="44.50925" lon="1.40577">
        <ele>275.9</ele>
        <time>2022-01-15T14:58:51Z</time>
      </trkpt>
      <trkpt lat="44.50927" lon="1.40576">
        <ele>275.9</ele>
        <time>2022-01-15T14:58:52Z</time>
      </trkpt>
      <trkpt lat="44.50931" lon="1.40574">
        <ele>275.8</ele>
        <time>2022-01-15T14:58:53Z</time>
      </trkpt>
      <trkpt lat="44.50933" lon="1.40574">
        <ele>275.7</ele>
        <time>2022-01-15T14:58:54Z</time>
      </trkpt>
      <trkpt lat="44.50936" lon="1.40573">
        <ele>275.7</ele>
        <time>2022-01-15T14:58:55Z</time>
      </trkpt>
      <trkpt lat="44.5094" lon="1.40571">
        <ele>275.6</ele>
        <time>2022-01-15T14:58:56Z</time>
      </trkpt>
      <trkpt lat="44.50941" lon="1.40571">
        <ele>275.5</ele>
        <time>2022-01-15T14:58:57Z</time>
      </trkpt>
      <trkpt lat="44.50945" lon="1.40569">
        <ele>275.4</ele>
        <time>2022-01-15T14:58:58Z</time>
      </trkpt>
      <trkpt lat="44.50948" lon="1.40569">
        <ele>275.3</ele>
        <time>2022-01-15T14:58:59Z</time>
      </trkpt>
      <trkpt lat="44.50951" lon="1.40568">
        <ele>275.2</ele>
        <time>2022-01-15T14:59:00Z</time>
      </trkpt>
      <trkpt lat="44.50955" lon="1.40566">
        <ele>275.2</ele>
        <time>2022-01-15T14:59:01Z</time>
      </trkpt>
      <trkpt lat="44.50956" lon="1.40565">
        <ele>275.1</ele>
        <time>2022-01-15T14:59:02Z</time>
      </trkpt>
      <trkpt lat="44.50959" lon="1.40564">
        <ele>275</ele>
        <time>2022-01-15T14:59:03Z</time>
      </trkpt>
      <trkpt lat="44.50962" lon="1.40564">
        <ele>275</ele>
        <time>2022-01-15T14:59:04Z</time>
      </trkpt>
      <trkpt lat="44.50965" lon="1.40563">
        <ele>274.9</ele>
        <time>2022-01-15T14:59:05Z</time>
      </trkpt>
      <trkpt lat="44.50968" lon="1.40562">
        <ele>274.8</ele>
        <time>2022-01-15T14:59:06Z</time>
      </trkpt>
      <trkpt lat="44.50971" lon="1.40561">
        <ele>274.8</ele>
        <time>2022-01-15T14:59:07Z</time>
      </trkpt>
      <trkpt lat="44.50974" lon="1.4056">
        <ele>274.7</ele>
        <time>2022-01-15T14:59:08Z</time>
      </trkpt>
      <trkpt lat="44.50977" lon="1.40559">
        <ele>274.7</ele>
        <time>2022-01-15T14:59:09Z</time>
      </trkpt>
      <trkpt lat="44.50981" lon="1.40558">
        <ele>274.6</ele>
        <time>2022-01-15T14:59:10Z</time>
      </trkpt>
      <trkpt lat="44.50985" lon="1.40556">
        <ele>274.5</ele>
        <time>2022-01-15T14:59:11Z</time>
      </trkpt>
      <trkpt lat="44.50989" lon="1.40555">
        <ele>274.4</ele>
        <time>2022-01-15T14:59:12Z</time>
      </trkpt>
      <trkpt lat="44.50992" lon="1.40554">
        <ele>274.4</ele>
        <time>2022-01-15T14:59:13Z</time>
      </trkpt>
      <trkpt lat="44.50997" lon="1.40553">
        <ele>274.3</ele>
        <time>2022-01-15T14:59:14Z</time>
      </trkpt>
      <trkpt lat="44.51" lon="1.40551">
        <ele>274.2</ele>
        <time>2022-01-15T14:59:15Z</time>
      </trkpt>
      <trkpt lat="44.51005" lon="1.4055">
        <ele>274.1</ele>
        <time>2022-01-15T14:59:16Z</time>
      </trkpt>
      <trkpt lat="44.51009" lon="1.40549">
        <ele>274.1</ele>
        <time>2022-01-15T14:59:17Z</time>
      </trkpt>
      <trkpt lat="44.51013" lon="1.40548">
        <ele>274</ele>
        <time>2022-01-15T14:59:18Z</time>
      </trkpt>
      <trkpt lat="44.51017" lon="1.40547">
        <ele>273.9</ele>
        <time>2022-01-15T14:59:19Z</time>
      </trkpt>
      <trkpt lat="44.51021" lon="1.40546">
        <ele>273.9</ele>
        <time>2022-01-15T14:59:20Z</time>
      </trkpt>
      <trkpt lat="44.51024" lon="1.40545">
        <ele>273.8</ele>
        <time>2022-01-15T14:59:21Z</time>
      </trkpt>
      <trkpt lat="44.51028" lon="1.40544">
        <ele>273.8</ele>
        <time>2022-01-15T14:59:22Z</time>
      </trkpt>
      <trkpt lat="44.51032" lon="1.40543">
        <ele>273.7</ele>
        <time>2022-01-15T14:59:23Z</time>
      </trkpt>
      <trkpt lat="44.51035" lon="1.40542">
        <ele>273.6</ele>
        <time>2022-01-15T14:59:24Z</time>
      </trkpt>
      <trkpt lat="44.51039" lon="1.40541">
        <ele>273.5</ele>
        <time>2022-01-15T14:59:25Z</time>
      </trkpt>
      <trkpt lat="44.51043" lon="1.4054">
        <ele>273.5</ele>
        <time>2022-01-15T14:59:26Z</time>
      </trkpt>
      <trkpt lat="44.51046" lon="1.40539">
        <ele>273.4</ele>
        <time>2022-01-15T14:59:27Z</time>
      </trkpt>
      <trkpt lat="44.5105" lon="1.40538">
        <ele>273.3</ele>
        <time>2022-01-15T14:59:28Z</time>
      </trkpt>
      <trkpt lat="44.51053" lon="1.40538">
        <ele>273.2</ele>
        <time>2022-01-15T14:59:29Z</time>
      </trkpt>
      <trkpt lat="44.51056" lon="1.40537">
        <ele>273.1</ele>
        <time>2022-01-15T14:59:30Z</time>
      </trkpt>
      <trkpt lat="44.5106" lon="1.40536">
        <ele>273</ele>
        <time>2022-01-15T14:59:31Z</time>
      </trkpt>
      <trkpt lat="44.51064" lon="1.40535">
        <ele>272.9</ele>
        <time>2022-01-15T14:59:32Z</time>
      </trkpt>
      <trkpt lat="44.51068" lon="1.40533">
        <ele>272.7</ele>
        <time>2022-01-15T14:59:33Z</time>
      </trkpt>
      <trkpt lat="44.51073" lon="1.40532">
        <ele>272.5</ele>
        <time>2022-01-15T14:59:34Z</time>
      </trkpt>
      <trkpt lat="44.51079" lon="1.4053">
        <ele>272.3</ele>
        <time>2022-01-15T14:59:35Z</time>
      </trkpt>
      <trkpt lat="44.51082" lon="1.40528">
        <ele>272.1</ele>
        <time>2022-01-15T14:59:36Z</time>
      </trkpt>
      <trkpt lat="44.51084" lon="1.40527">
        <ele>272.1</ele>
        <time>2022-01-15T14:59:37Z</time>
      </trkpt>
      <trkpt lat="44.51084" lon="1.40526">
        <ele>272</ele>
        <time>2022-01-15T14:59:38Z</time>
      </trkpt>
      <trkpt lat="44.51085" lon="1.40525">
        <ele>272</ele>
        <time>2022-01-15T14:59:39Z</time>
      </trkpt>
      <trkpt lat="44.51085" lon="1.40525">
        <ele>272</ele>
        <time>2022-01-15T14:59:40Z</time>
      </trkpt>
      <trkpt lat="44.51086" lon="1.40524">
        <ele>271.9</ele>
        <time>2022-01-15T14:59:41Z</time>
      </trkpt>
      <trkpt lat="44.51086" lon="1.40524">
        <ele>271.9</ele>
        <time>2022-01-15T14:59:42Z</time>
      </trkpt>
      <trkpt lat="44.51086" lon="1.40523">
        <ele>271.9</ele>
        <time>2022-01-15T14:59:43Z</time>
      </trkpt>
      <trkpt lat="44.51087" lon="1.40522">
        <ele>271.9</ele>
        <time>2022-01-15T14:59:44Z</time>
      </trkpt>
      <trkpt lat="44.51087" lon="1.40522">
        <ele>271.8</ele>
        <time>2022-01-15T14:59:45Z</time>
      </trkpt>
      <trkpt lat="44.51088" lon="1.40519">
        <ele>271.8</ele>
        <time>2022-01-15T14:59:46Z</time>
      </trkpt>
      <trkpt lat="44.51089" lon="1.40518">
        <ele>271.7</ele>
        <time>2022-01-15T14:59:47Z</time>
      </trkpt>
      <trkpt lat="44.51091" lon="1.40514">
        <ele>271.6</ele>
        <time>2022-01-15T14:59:48Z</time>
      </trkpt>
      <trkpt lat="44.51091" lon="1.40513">
        <ele>271.5</ele>
        <time>2022-01-15T14:59:49Z</time>
      </trkpt>
      <trkpt lat="44.51092" lon="1.40509">
        <ele>271.4</ele>
        <time>2022-01-15T14:59:50Z</time>
      </trkpt>
      <trkpt lat="44.51094" lon="1.40504">
        <ele>271.2</ele>
        <time>2022-01-15T14:59:51Z</time>
      </trkpt>
      <trkpt lat="44.51094" lon="1.405">
        <ele>271.1</ele>
        <time>2022-01-15T14:59:52Z</time>
      </trkpt>
      <trkpt lat="44.51094" lon="1.40496">
        <ele>270.9</ele>
        <time>2022-01-15T14:59:53Z</time>
      </trkpt>
      <trkpt lat="44.51094" lon="1.40494">
        <ele>270.8</ele>
        <time>2022-01-15T14:59:54Z</time>
      </trkpt>
      <trkpt lat="44.51094" lon="1.4049">
        <ele>270.6</ele>
        <time>2022-01-15T14:59:55Z</time>
      </trkpt>
      <trkpt lat="44.51094" lon="1.40488">
        <ele>270.5</ele>
        <time>2022-01-15T14:59:56Z</time>
      </trkpt>
      <trkpt lat="44.51096" lon="1.40485">
        <ele>270.4</ele>
        <time>2022-01-15T14:59:57Z</time>
      </trkpt>
      <trkpt lat="44.51096" lon="1.40484">
        <ele>270.3</ele>
        <time>2022-01-15T14:59:58Z</time>
      </trkpt>
      <trkpt lat="44.51098" lon="1.4048">
        <ele>270.1</ele>
        <time>2022-01-15T14:59:59Z</time>
      </trkpt>
      <trkpt lat="44.51099" lon="1.40479">
        <ele>270</ele>
        <time>2022-01-15T15:00:00Z</time>
      </trkpt>
      <trkpt lat="44.51101" lon="1.40477">
        <ele>269.9</ele>
        <time>2022-01-15T15:00:01Z</time>
      </trkpt>
      <trkpt lat="44.51102" lon="1.40477">
        <ele>269.8</ele>
        <time>2022-01-15T15:00:02Z</time>
      </trkpt>
      <trkpt lat="44.51105" lon="1.40477">
        <ele>269.6</ele>
        <time>2022-01-15T15:00:03Z</time>
      </trkpt>
      <trkpt lat="44.51109" lon="1.40471">
        <ele>269.2</ele>
        <time>2022-01-15T15:00:05Z</time>
      </trkpt>
      <trkpt lat="44.51112" lon="1.40468">
        <ele>269</ele>
        <time>2022-01-15T15:00:06Z</time>
      </trkpt>
      <trkpt lat="44.51115" lon="1.40467">
        <ele>268.8</ele>
        <time>2022-01-15T15:00:07Z</time>
      </trkpt>
      <trkpt lat="44.51119" lon="1.40466">
        <ele>268.6</ele>
        <time>2022-01-15T15:00:08Z</time>
      </trkpt>
      <trkpt lat="44.51122" lon="1.40466">
        <ele>268.4</ele>
        <time>2022-01-15T15:00:09Z</time>
      </trkpt>
      <trkpt lat="44.51126" lon="1.40463">
        <ele>268.1</ele>
        <time>2022-01-15T15:00:10Z</time>
      </trkpt>
      <trkpt lat="44.5113" lon="1.4046">
        <ele>267.9</ele>
        <time>2022-01-15T15:00:12Z</time>
      </trkpt>
      <trkpt lat="44.51134" lon="1.40457">
        <ele>266.8</ele>
        <time>2022-01-15T15:00:13Z</time>
      </trkpt>
      <trkpt lat="44.51138" lon="1.40455">
        <ele>266.8</ele>
        <time>2022-01-15T15:00:14Z</time>
      </trkpt>
      <trkpt lat="44.51142" lon="1.40455">
        <ele>266.8</ele>
        <time>2022-01-15T15:00:15Z</time>
      </trkpt>
      <trkpt lat="44.51149" lon="1.40455">
        <ele>265.5</ele>
        <time>2022-01-15T15:00:17Z</time>
      </trkpt>
      <trkpt lat="44.51152" lon="1.40454">
        <ele>265.5</ele>
        <time>2022-01-15T15:00:18Z</time>
      </trkpt>
      <trkpt lat="44.51154" lon="1.40453">
        <ele>266.6</ele>
        <time>2022-01-15T15:00:19Z</time>
      </trkpt>
      <trkpt lat="44.51157" lon="1.40453">
        <ele>265.1</ele>
        <time>2022-01-15T15:00:21Z</time>
      </trkpt>
      <trkpt lat="44.51159" lon="1.40453">
        <ele>265.1</ele>
        <time>2022-01-15T15:00:22Z</time>
      </trkpt>
      <trkpt lat="44.51163" lon="1.40453">
        <ele>265.1</ele>
        <time>2022-01-15T15:00:23Z</time>
      </trkpt>
      <trkpt lat="44.51167" lon="1.4045">
        <ele>265.2</ele>
        <time>2022-01-15T15:00:24Z</time>
      </trkpt>
      <trkpt lat="44.51171" lon="1.40448">
        <ele>263.2</ele>
        <time>2022-01-15T15:00:25Z</time>
      </trkpt>
      <trkpt lat="44.51176" lon="1.40446">
        <ele>263.2</ele>
        <time>2022-01-15T15:00:27Z</time>
      </trkpt>
      <trkpt lat="44.51183" lon="1.4044">
        <ele>261.4</ele>
        <time>2022-01-15T15:00:28Z</time>
      </trkpt>
      <trkpt lat="44.51188" lon="1.40434">
        <ele>261.5</ele>
        <time>2022-01-15T15:00:29Z</time>
      </trkpt>
      <trkpt lat="44.51191" lon="1.40429">
        <ele>261.5</ele>
        <time>2022-01-15T15:00:30Z</time>
      </trkpt>
      <trkpt lat="44.51192" lon="1.40424">
        <ele>261.5</ele>
        <time>2022-01-15T15:00:31Z</time>
      </trkpt>
      <trkpt lat="44.51193" lon="1.40422">
        <ele>261.5</ele>
        <time>2022-01-15T15:00:32Z</time>
      </trkpt>
      <trkpt lat="44.51191" lon="1.40417">
        <ele>261.2</ele>
        <time>2022-01-15T15:00:33Z</time>
      </trkpt>
      <trkpt lat="44.51192" lon="1.40414">
        <ele>261.3</ele>
        <time>2022-01-15T15:00:34Z</time>
      </trkpt>
      <trkpt lat="44.51193" lon="1.40414">
        <ele>261.3</ele>
        <time>2022-01-15T15:00:35Z</time>
      </trkpt>
      <trkpt lat="44.51197" lon="1.40416">
        <ele>258.4</ele>
        <time>2022-01-15T15:00:36Z</time>
      </trkpt>
      <trkpt lat="44.51198" lon="1.40417">
        <ele>258.4</ele>
        <time>2022-01-15T15:00:37Z</time>
      </trkpt>
      <trkpt lat="44.51203" lon="1.40419">
        <ele>258.4</ele>
        <time>2022-01-15T15:00:38Z</time>
      </trkpt>
      <trkpt lat="44.51212" lon="1.40421">
        <ele>256.6</ele>
        <time>2022-01-15T15:00:40Z</time>
      </trkpt>
      <trkpt lat="44.51215" lon="1.40423">
        <ele>256.6</ele>
        <time>2022-01-15T15:00:41Z</time>
      </trkpt>
      <trkpt lat="44.51218" lon="1.40423">
        <ele>256.6</ele>
        <time>2022-01-15T15:00:42Z</time>
      </trkpt>
      <trkpt lat="44.51219" lon="1.40417">
        <ele>252.4</ele>
        <time>2022-01-15T15:00:44Z</time>
      </trkpt>
      <trkpt lat="44.51218" lon="1.40412">
        <ele>252.4</ele>
        <time>2022-01-15T15:00:45Z</time>
      </trkpt>
      <trkpt lat="44.51216" lon="1.40405">
        <ele>255.7</ele>
        <time>2022-01-15T15:00:46Z</time>
      </trkpt>
      <trkpt lat="44.51214" lon="1.40399">
        <ele>254.4</ele>
        <time>2022-01-15T15:00:47Z</time>
      </trkpt>
      <trkpt lat="44.51211" lon="1.40395">
        <ele>254.4</ele>
        <time>2022-01-15T15:00:48Z</time>
      </trkpt>
      <trkpt lat="44.51207" lon="1.40387">
        <ele>254.4</ele>
        <time>2022-01-15T15:00:49Z</time>
      </trkpt>
      <trkpt lat="44.51204" lon="1.40381">
        <ele>255.7</ele>
        <time>2022-01-15T15:00:50Z</time>
      </trkpt>
      <trkpt lat="44.51201" lon="1.40375">
        <ele>255.7</ele>
        <time>2022-01-15T15:00:51Z</time>
      </trkpt>
      <trkpt lat="44.51198" lon="1.40368">
        <ele>255.8</ele>
        <time>2022-01-15T15:00:52Z</time>
      </trkpt>
      <trkpt lat="44.51195" lon="1.40361">
        <ele>253.8</ele>
        <time>2022-01-15T15:00:53Z</time>
      </trkpt>
      <trkpt lat="44.51194" lon="1.40355">
        <ele>253.8</ele>
        <time>2022-01-15T15:00:54Z</time>
      </trkpt>
      <trkpt lat="44.5119" lon="1.4035">
        <ele>256.2</ele>
        <time>2022-01-15T15:00:56Z</time>
      </trkpt>
      <trkpt lat="44.51188" lon="1.40341">
        <ele>256.2</ele>
        <time>2022-01-15T15:00:57Z</time>
      </trkpt>
      <trkpt lat="44.51186" lon="1.40335">
        <ele>256.2</ele>
        <time>2022-01-15T15:00:58Z</time>
      </trkpt>
      <trkpt lat="44.51186" lon="1.4033">
        <ele>254.9</ele>
        <time>2022-01-15T15:00:59Z</time>
      </trkpt>
      <trkpt lat="44.51186" lon="1.40324">
        <ele>255</ele>
        <time>2022-01-15T15:01:00Z</time>
      </trkpt>
      <trkpt lat="44.51185" lon="1.40318">
        <ele>255</ele>
        <time>2022-01-15T15:01:01Z</time>
      </trkpt>
      <trkpt lat="44.51183" lon="1.40314">
        <ele>253.4</ele>
        <time>2022-01-15T15:01:02Z</time>
      </trkpt>
      <trkpt lat="44.5118" lon="1.40305">
        <ele>256.6</ele>
        <time>2022-01-15T15:01:03Z</time>
      </trkpt>
      <trkpt lat="44.51177" lon="1.40299">
        <ele>256.6</ele>
        <time>2022-01-15T15:01:04Z</time>
      </trkpt>
      <trkpt lat="44.51174" lon="1.40294">
        <ele>254.8</ele>
        <time>2022-01-15T15:01:06Z</time>
      </trkpt>
      <trkpt lat="44.51171" lon="1.4029">
        <ele>254.8</ele>
        <time>2022-01-15T15:01:07Z</time>
      </trkpt>
      <trkpt lat="44.5117" lon="1.40287">
        <ele>254.8</ele>
        <time>2022-01-15T15:01:08Z</time>
      </trkpt>
      <trkpt lat="44.51166" lon="1.40279">
        <ele>256.7</ele>
        <time>2022-01-15T15:01:10Z</time>
      </trkpt>
      <trkpt lat="44.51164" lon="1.40274">
        <ele>256.7</ele>
        <time>2022-01-15T15:01:11Z</time>
      </trkpt>
      <trkpt lat="44.51164" lon="1.4027">
        <ele>256.8</ele>
        <time>2022-01-15T15:01:12Z</time>
      </trkpt>
      <trkpt lat="44.51164" lon="1.40266">
        <ele>256.8</ele>
        <time>2022-01-15T15:01:13Z</time>
      </trkpt>
      <trkpt lat="44.51164" lon="1.40262">
        <ele>255</ele>
        <time>2022-01-15T15:01:14Z</time>
      </trkpt>
      <trkpt lat="44.51163" lon="1.40257">
        <ele>255</ele>
        <time>2022-01-15T15:01:15Z</time>
      </trkpt>
      <trkpt lat="44.51163" lon="1.40255">
        <ele>255</ele>
        <time>2022-01-15T15:01:16Z</time>
      </trkpt>
      <trkpt lat="44.51161" lon="1.40247">
        <ele>253.2</ele>
        <time>2022-01-15T15:01:17Z</time>
      </trkpt>
      <trkpt lat="44.51157" lon="1.4024">
        <ele>253.2</ele>
        <time>2022-01-15T15:01:18Z</time>
      </trkpt>
      <trkpt lat="44.51155" lon="1.40234">
        <ele>255.9</ele>
        <time>2022-01-15T15:01:19Z</time>
      </trkpt>
      <trkpt lat="44.51153" lon="1.40228">
        <ele>254.3</ele>
        <time>2022-01-15T15:01:20Z</time>
      </trkpt>
      <trkpt lat="44.51154" lon="1.40222">
        <ele>254.3</ele>
        <time>2022-01-15T15:01:22Z</time>
      </trkpt>
      <trkpt lat="44.51154" lon="1.40218">
        <ele>254.3</ele>
        <time>2022-01-15T15:01:23Z</time>
      </trkpt>
      <trkpt lat="44.51153" lon="1.40212">
        <ele>252.9</ele>
        <time>2022-01-15T15:01:24Z</time>
      </trkpt>
      <trkpt lat="44.51153" lon="1.40201">
        <ele>252.9</ele>
        <time>2022-01-15T15:01:26Z</time>
      </trkpt>
      <trkpt lat="44.51151" lon="1.40195">
        <ele>251</ele>
        <time>2022-01-15T15:01:27Z</time>
      </trkpt>
      <trkpt lat="44.5115" lon="1.4019">
        <ele>251</ele>
        <time>2022-01-15T15:01:28Z</time>
      </trkpt>
      <trkpt lat="44.51148" lon="1.40185">
        <ele>251</ele>
        <time>2022-01-15T15:01:29Z</time>
      </trkpt>
      <trkpt lat="44.51145" lon="1.40178">
        <ele>249</ele>
        <time>2022-01-15T15:01:31Z</time>
      </trkpt>
      <trkpt lat="44.51144" lon="1.40172">
        <ele>251.3</ele>
        <time>2022-01-15T15:01:33Z</time>
      </trkpt>
      <trkpt lat="44.51143" lon="1.40163">
        <ele>251.3</ele>
        <time>2022-01-15T15:01:35Z</time>
      </trkpt>
      <trkpt lat="44.51142" lon="1.40152">
        <ele>248.4</ele>
        <time>2022-01-15T15:01:36Z</time>
      </trkpt>
      <trkpt lat="44.51141" lon="1.40143">
        <ele>245.1</ele>
        <time>2022-01-15T15:01:38Z</time>
      </trkpt>
      <trkpt lat="44.51142" lon="1.40137">
        <ele>245.1</ele>
        <time>2022-01-15T15:01:39Z</time>
      </trkpt>
      <trkpt lat="44.51142" lon="1.4013">
        <ele>245.1</ele>
        <time>2022-01-15T15:01:40Z</time>
      </trkpt>
      <trkpt lat="44.51143" lon="1.40123">
        <ele>241.9</ele>
        <time>2022-01-15T15:01:41Z</time>
      </trkpt>
      <trkpt lat="44.51143" lon="1.40115">
        <ele>241.9</ele>
        <time>2022-01-15T15:01:43Z</time>
      </trkpt>
      <trkpt lat="44.51145" lon="1.40111">
        <ele>240.8</ele>
        <time>2022-01-15T15:01:44Z</time>
      </trkpt>
      <trkpt lat="44.51146" lon="1.40108">
        <ele>237.5</ele>
        <time>2022-01-15T15:01:45Z</time>
      </trkpt>
      <trkpt lat="44.51146" lon="1.40103">
        <ele>237.5</ele>
        <time>2022-01-15T15:01:46Z</time>
      </trkpt>
      <trkpt lat="44.51147" lon="1.40096">
        <ele>237.5</ele>
        <time>2022-01-15T15:01:47Z</time>
      </trkpt>
      <trkpt lat="44.51147" lon="1.40092">
        <ele>234.3</ele>
        <time>2022-01-15T15:01:48Z</time>
      </trkpt>
      <trkpt lat="44.51149" lon="1.40079">
        <ele>234.3</ele>
        <time>2022-01-15T15:01:50Z</time>
      </trkpt>
      <trkpt lat="44.51152" lon="1.40071">
        <ele>230.8</ele>
        <time>2022-01-15T15:01:51Z</time>
      </trkpt>
      <trkpt lat="44.51156" lon="1.40064">
        <ele>230.8</ele>
        <time>2022-01-15T15:01:52Z</time>
      </trkpt>
      <trkpt lat="44.51158" lon="1.40056">
        <ele>226.9</ele>
        <time>2022-01-15T15:01:53Z</time>
      </trkpt>
      <trkpt lat="44.51159" lon="1.40049">
        <ele>226.9</ele>
        <time>2022-01-15T15:01:54Z</time>
      </trkpt>
      <trkpt lat="44.51161" lon="1.40041">
        <ele>226.9</ele>
        <time>2022-01-15T15:01:55Z</time>
      </trkpt>
      <trkpt lat="44.51163" lon="1.40037">
        <ele>224</ele>
        <time>2022-01-15T15:01:56Z</time>
      </trkpt>
      <trkpt lat="44.51166" lon="1.40032">
        <ele>224</ele>
        <time>2022-01-15T15:01:57Z</time>
      </trkpt>
      <trkpt lat="44.51175" lon="1.40028">
        <ele>223.7</ele>
        <time>2022-01-15T15:01:59Z</time>
      </trkpt>
      <trkpt lat="44.51179" lon="1.40032">
        <ele>223.8</ele>
        <time>2022-01-15T15:02:00Z</time>
      </trkpt>
      <trkpt lat="44.51188" lon="1.40033">
        <ele>223.6</ele>
        <time>2022-01-15T15:02:02Z</time>
      </trkpt>
      <trkpt lat="44.51191" lon="1.40031">
        <ele>223.6</ele>
        <time>2022-01-15T15:02:03Z</time>
      </trkpt>
      <trkpt lat="44.51195" lon="1.40026">
        <ele>223.3</ele>
        <time>2022-01-15T15:02:04Z</time>
      </trkpt>
      <trkpt lat="44.51199" lon="1.40022">
        <ele>221.3</ele>
        <time>2022-01-15T15:02:05Z</time>
      </trkpt>
      <trkpt lat="44.51202" lon="1.40017">
        <ele>221.3</ele>
        <time>2022-01-15T15:02:06Z</time>
      </trkpt>
      <trkpt lat="44.51204" lon="1.40015">
        <ele>221.3</ele>
        <time>2022-01-15T15:02:07Z</time>
      </trkpt>
      <trkpt lat="44.5121" lon="1.40005">
        <ele>219.7</ele>
        <time>2022-01-15T15:02:09Z</time>
      </trkpt>
      <trkpt lat="44.51212" lon="1.39996">
        <ele>219.7</ele>
        <time>2022-01-15T15:02:11Z</time>
      </trkpt>
      <trkpt lat="44.51214" lon="1.39991">
        <ele>219.7</ele>
        <time>2022-01-15T15:02:12Z</time>
      </trkpt>
      <trkpt lat="44.51218" lon="1.3999">
        <ele>219.2</ele>
        <time>2022-01-15T15:02:13Z</time>
      </trkpt>
      <trkpt lat="44.5122" lon="1.3999">
        <ele>218.3</ele>
        <time>2022-01-15T15:02:14Z</time>
      </trkpt>
      <trkpt lat="44.51228" lon="1.39985">
        <ele>218.3</ele>
        <time>2022-01-15T15:02:16Z</time>
      </trkpt>
      <trkpt lat="44.51232" lon="1.39983">
        <ele>217.5</ele>
        <time>2022-01-15T15:02:17Z</time>
      </trkpt>
      <trkpt lat="44.51232" lon="1.39979">
        <ele>217.5</ele>
        <time>2022-01-15T15:02:18Z</time>
      </trkpt>
      <trkpt lat="44.51235" lon="1.3997">
        <ele>216.6</ele>
        <time>2022-01-15T15:02:20Z</time>
      </trkpt>
      <trkpt lat="44.51237" lon="1.39965">
        <ele>216.6</ele>
        <time>2022-01-15T15:02:21Z</time>
      </trkpt>
      <trkpt lat="44.51241" lon="1.39956">
        <ele>216.6</ele>
        <time>2022-01-15T15:02:22Z</time>
      </trkpt>
      <trkpt lat="44.51243" lon="1.3995">
        <ele>215.3</ele>
        <time>2022-01-15T15:02:23Z</time>
      </trkpt>
      <trkpt lat="44.51245" lon="1.39943">
        <ele>215.3</ele>
        <time>2022-01-15T15:02:24Z</time>
      </trkpt>
      <trkpt lat="44.51248" lon="1.39935">
        <ele>215.6</ele>
        <time>2022-01-15T15:02:25Z</time>
      </trkpt>
      <trkpt lat="44.51251" lon="1.39926">
        <ele>215.6</ele>
        <time>2022-01-15T15:02:26Z</time>
      </trkpt>
      <trkpt lat="44.51255" lon="1.39917">
        <ele>215.4</ele>
        <time>2022-01-15T15:02:27Z</time>
      </trkpt>
      <trkpt lat="44.51258" lon="1.39907">
        <ele>215.4</ele>
        <time>2022-01-15T15:02:28Z</time>
      </trkpt>
      <trkpt lat="44.5126" lon="1.39898">
        <ele>216.1</ele>
        <time>2022-01-15T15:02:29Z</time>
      </trkpt>
      <trkpt lat="44.5126" lon="1.39889">
        <ele>216.1</ele>
        <time>2022-01-15T15:02:30Z</time>
      </trkpt>
      <trkpt lat="44.51259" lon="1.39881">
        <ele>216.7</ele>
        <time>2022-01-15T15:02:31Z</time>
      </trkpt>
      <trkpt lat="44.51258" lon="1.39873">
        <ele>216.7</ele>
        <time>2022-01-15T15:02:32Z</time>
      </trkpt>
      <trkpt lat="44.51258" lon="1.39865">
        <ele>217.2</ele>
        <time>2022-01-15T15:02:33Z</time>
      </trkpt>
      <trkpt lat="44.51259" lon="1.39858">
        <ele>217.2</ele>
        <time>2022-01-15T15:02:34Z</time>
      </trkpt>
      <trkpt lat="44.51261" lon="1.39851">
        <ele>217.6</ele>
        <time>2022-01-15T15:02:35Z</time>
      </trkpt>
      <trkpt lat="44.51262" lon="1.39845">
        <ele>217.6</ele>
        <time>2022-01-15T15:02:36Z</time>
      </trkpt>
      <trkpt lat="44.51261" lon="1.39839">
        <ele>217.6</ele>
        <time>2022-01-15T15:02:37Z</time>
      </trkpt>
      <trkpt lat="44.5126" lon="1.39835">
        <ele>217.8</ele>
        <time>2022-01-15T15:02:38Z</time>
      </trkpt>
      <trkpt lat="44.51259" lon="1.3983">
        <ele>217.8</ele>
        <time>2022-01-15T15:02:39Z</time>
      </trkpt>
      <trkpt lat="44.51258" lon="1.39824">
        <ele>217.8</ele>
        <time>2022-01-15T15:02:40Z</time>
      </trkpt>
      <trkpt lat="44.51257" lon="1.3982">
        <ele>217.8</ele>
        <time>2022-01-15T15:02:41Z</time>
      </trkpt>
      <trkpt lat="44.51255" lon="1.39815">
        <ele>217.8</ele>
        <time>2022-01-15T15:02:42Z</time>
      </trkpt>
      <trkpt lat="44.51253" lon="1.39807">
        <ele>218</ele>
        <time>2022-01-15T15:02:43Z</time>
      </trkpt>
      <trkpt lat="44.51253" lon="1.39802">
        <ele>218</ele>
        <time>2022-01-15T15:02:44Z</time>
      </trkpt>
      <trkpt lat="44.51255" lon="1.398">
        <ele>217.6</ele>
        <time>2022-01-15T15:02:45Z</time>
      </trkpt>
      <trkpt lat="44.51255" lon="1.39794">
        <ele>217.6</ele>
        <time>2022-01-15T15:02:46Z</time>
      </trkpt>
      <trkpt lat="44.51254" lon="1.39787">
        <ele>217.9</ele>
        <time>2022-01-15T15:02:47Z</time>
      </trkpt>
      <trkpt lat="44.51253" lon="1.39779">
        <ele>217.4</ele>
        <time>2022-01-15T15:02:49Z</time>
      </trkpt>
      <trkpt lat="44.51253" lon="1.39769">
        <ele>217.4</ele>
        <time>2022-01-15T15:02:50Z</time>
      </trkpt>
      <trkpt lat="44.51255" lon="1.39761">
        <ele>216.8</ele>
        <time>2022-01-15T15:02:51Z</time>
      </trkpt>
      <trkpt lat="44.51255" lon="1.39754">
        <ele>216.8</ele>
        <time>2022-01-15T15:02:52Z</time>
      </trkpt>
      <trkpt lat="44.51255" lon="1.39747">
        <ele>216</ele>
        <time>2022-01-15T15:02:53Z</time>
      </trkpt>
      <trkpt lat="44.51254" lon="1.3974">
        <ele>215.9</ele>
        <time>2022-01-15T15:02:54Z</time>
      </trkpt>
      <trkpt lat="44.51253" lon="1.39733">
        <ele>215.9</ele>
        <time>2022-01-15T15:02:55Z</time>
      </trkpt>
      <trkpt lat="44.51252" lon="1.39725">
        <ele>215</ele>
        <time>2022-01-15T15:02:56Z</time>
      </trkpt>
      <trkpt lat="44.5125" lon="1.39717">
        <ele>215</ele>
        <time>2022-01-15T15:02:57Z</time>
      </trkpt>
      <trkpt lat="44.5125" lon="1.3971">
        <ele>214</ele>
        <time>2022-01-15T15:02:58Z</time>
      </trkpt>
      <trkpt lat="44.5125" lon="1.39702">
        <ele>214</ele>
        <time>2022-01-15T15:02:59Z</time>
      </trkpt>
      <trkpt lat="44.51249" lon="1.39696">
        <ele>212.8</ele>
        <time>2022-01-15T15:03:00Z</time>
      </trkpt>
      <trkpt lat="44.51248" lon="1.3969">
        <ele>212.9</ele>
        <time>2022-01-15T15:03:01Z</time>
      </trkpt>
      <trkpt lat="44.51249" lon="1.39687">
        <ele>212.9</ele>
        <time>2022-01-15T15:03:02Z</time>
      </trkpt>
      <trkpt lat="44.51251" lon="1.3968">
        <ele>211.7</ele>
        <time>2022-01-15T15:03:03Z</time>
      </trkpt>
      <trkpt lat="44.51252" lon="1.39673">
        <ele>211.7</ele>
        <time>2022-01-15T15:03:04Z</time>
      </trkpt>
      <trkpt lat="44.51254" lon="1.39665">
        <ele>211.7</ele>
        <time>2022-01-15T15:03:05Z</time>
      </trkpt>
      <trkpt lat="44.51254" lon="1.39656">
        <ele>210.3</ele>
        <time>2022-01-15T15:03:06Z</time>
      </trkpt>
      <trkpt lat="44.51251" lon="1.39647">
        <ele>210.3</ele>
        <time>2022-01-15T15:03:07Z</time>
      </trkpt>
      <trkpt lat="44.51249" lon="1.39639">
        <ele>208.7</ele>
        <time>2022-01-15T15:03:08Z</time>
      </trkpt>
      <trkpt lat="44.51246" lon="1.3963">
        <ele>208.7</ele>
        <time>2022-01-15T15:03:09Z</time>
      </trkpt>
      <trkpt lat="44.51244" lon="1.3962">
        <ele>207.2</ele>
        <time>2022-01-15T15:03:10Z</time>
      </trkpt>
      <trkpt lat="44.51241" lon="1.39611">
        <ele>205.7</ele>
        <time>2022-01-15T15:03:11Z</time>
      </trkpt>
      <trkpt lat="44.51241" lon="1.39602">
        <ele>205.7</ele>
        <time>2022-01-15T15:03:12Z</time>
      </trkpt>
      <trkpt lat="44.51239" lon="1.39595">
        <ele>204.6</ele>
        <time>2022-01-15T15:03:13Z</time>
      </trkpt>
      <trkpt lat="44.51236" lon="1.39588">
        <ele>204.6</ele>
        <time>2022-01-15T15:03:14Z</time>
      </trkpt>
      <trkpt lat="44.51235" lon="1.39579">
        <ele>204.6</ele>
        <time>2022-01-15T15:03:15Z</time>
      </trkpt>
      <trkpt lat="44.51233" lon="1.3957">
        <ele>203.5</ele>
        <time>2022-01-15T15:03:16Z</time>
      </trkpt>
      <trkpt lat="44.51231" lon="1.39561">
        <ele>203.5</ele>
        <time>2022-01-15T15:03:17Z</time>
      </trkpt>
      <trkpt lat="44.51228" lon="1.39553">
        <ele>201.5</ele>
        <time>2022-01-15T15:03:18Z</time>
      </trkpt>
      <trkpt lat="44.51227" lon="1.39545">
        <ele>201.5</ele>
        <time>2022-01-15T15:03:19Z</time>
      </trkpt>
      <trkpt lat="44.51227" lon="1.39536">
        <ele>200.5</ele>
        <time>2022-01-15T15:03:20Z</time>
      </trkpt>
      <trkpt lat="44.51226" lon="1.39527">
        <ele>200.5</ele>
        <time>2022-01-15T15:03:21Z</time>
      </trkpt>
      <trkpt lat="44.51225" lon="1.39517">
        <ele>199.1</ele>
        <time>2022-01-15T15:03:22Z</time>
      </trkpt>
      <trkpt lat="44.51224" lon="1.39508">
        <ele>197.4</ele>
        <time>2022-01-15T15:03:23Z</time>
      </trkpt>
      <trkpt lat="44.51225" lon="1.39498">
        <ele>197.4</ele>
        <time>2022-01-15T15:03:24Z</time>
      </trkpt>
      <trkpt lat="44.51224" lon="1.3949">
        <ele>195.4</ele>
        <time>2022-01-15T15:03:25Z</time>
      </trkpt>
      <trkpt lat="44.51222" lon="1.39483">
        <ele>195.4</ele>
        <time>2022-01-15T15:03:26Z</time>
      </trkpt>
      <trkpt lat="44.5122" lon="1.39476">
        <ele>195.4</ele>
        <time>2022-01-15T15:03:27Z</time>
      </trkpt>
      <trkpt lat="44.51219" lon="1.39468">
        <ele>193.6</ele>
        <time>2022-01-15T15:03:28Z</time>
      </trkpt>
      <trkpt lat="44.51218" lon="1.3946">
        <ele>193.6</ele>
        <time>2022-01-15T15:03:29Z</time>
      </trkpt>
      <trkpt lat="44.51215" lon="1.39452">
        <ele>192</ele>
        <time>2022-01-15T15:03:30Z</time>
      </trkpt>
      <trkpt lat="44.51211" lon="1.39445">
        <ele>192</ele>
        <time>2022-01-15T15:03:31Z</time>
      </trkpt>
      <trkpt lat="44.51208" lon="1.39439">
        <ele>190.5</ele>
        <time>2022-01-15T15:03:32Z</time>
      </trkpt>
      <trkpt lat="44.51207" lon="1.39435">
        <ele>190.6</ele>
        <time>2022-01-15T15:03:33Z</time>
      </trkpt>
      <trkpt lat="44.51208" lon="1.39431">
        <ele>190.6</ele>
        <time>2022-01-15T15:03:34Z</time>
      </trkpt>
      <trkpt lat="44.5121" lon="1.39427">
        <ele>190.6</ele>
        <time>2022-01-15T15:03:35Z</time>
      </trkpt>
      <trkpt lat="44.51212" lon="1.3942">
        <ele>189.1</ele>
        <time>2022-01-15T15:03:36Z</time>
      </trkpt>
      <trkpt lat="44.51212" lon="1.39415">
        <ele>189.1</ele>
        <time>2022-01-15T15:03:37Z</time>
      </trkpt>
      <trkpt lat="44.51212" lon="1.39407">
        <ele>189.1</ele>
        <time>2022-01-15T15:03:38Z</time>
      </trkpt>
      <trkpt lat="44.5121" lon="1.394">
        <ele>187.9</ele>
        <time>2022-01-15T15:03:39Z</time>
      </trkpt>
      <trkpt lat="44.51206" lon="1.39393">
        <ele>187.9</ele>
        <time>2022-01-15T15:03:40Z</time>
      </trkpt>
      <trkpt lat="44.51202" lon="1.39388">
        <ele>187.1</ele>
        <time>2022-01-15T15:03:41Z</time>
      </trkpt>
      <trkpt lat="44.51198" lon="1.39382">
        <ele>187.1</ele>
        <time>2022-01-15T15:03:42Z</time>
      </trkpt>
      <trkpt lat="44.51195" lon="1.39377">
        <ele>187.1</ele>
        <time>2022-01-15T15:03:43Z</time>
      </trkpt>
      <trkpt lat="44.51191" lon="1.39379">
        <ele>187.2</ele>
        <time>2022-01-15T15:03:44Z</time>
      </trkpt>
      <trkpt lat="44.51187" lon="1.39372">
        <ele>186.5</ele>
        <time>2022-01-15T15:03:45Z</time>
      </trkpt>
      <trkpt lat="44.51182" lon="1.39359">
        <ele>186.6</ele>
        <time>2022-01-15T15:03:47Z</time>
      </trkpt>
      <trkpt lat="44.51178" lon="1.3935">
        <ele>186.6</ele>
        <time>2022-01-15T15:03:48Z</time>
      </trkpt>
      <trkpt lat="44.51175" lon="1.39341">
        <ele>186.6</ele>
        <time>2022-01-15T15:03:49Z</time>
      </trkpt>
      <trkpt lat="44.51172" lon="1.39333">
        <ele>185.7</ele>
        <time>2022-01-15T15:03:50Z</time>
      </trkpt>
      <trkpt lat="44.51172" lon="1.39325">
        <ele>185.8</ele>
        <time>2022-01-15T15:03:51Z</time>
      </trkpt>
      <trkpt lat="44.51172" lon="1.39316">
        <ele>184.8</ele>
        <time>2022-01-15T15:03:52Z</time>
      </trkpt>
      <trkpt lat="44.51173" lon="1.39308">
        <ele>184.8</ele>
        <time>2022-01-15T15:03:53Z</time>
      </trkpt>
      <trkpt lat="44.51175" lon="1.39301">
        <ele>183.6</ele>
        <time>2022-01-15T15:03:54Z</time>
      </trkpt>
      <trkpt lat="44.51177" lon="1.39296">
        <ele>183.6</ele>
        <time>2022-01-15T15:03:55Z</time>
      </trkpt>
      <trkpt lat="44.51181" lon="1.39294">
        <ele>182</ele>
        <time>2022-01-15T15:03:56Z</time>
      </trkpt>
      <trkpt lat="44.51183" lon="1.39293">
        <ele>182</ele>
        <time>2022-01-15T15:03:57Z</time>
      </trkpt>
      <trkpt lat="44.51186" lon="1.39289">
        <ele>182</ele>
        <time>2022-01-15T15:03:59Z</time>
      </trkpt>
      <trkpt lat="44.51189" lon="1.39285">
        <ele>180.7</ele>
        <time>2022-01-15T15:04:00Z</time>
      </trkpt>
      <trkpt lat="44.51191" lon="1.39283">
        <ele>180.7</ele>
        <time>2022-01-15T15:04:01Z</time>
      </trkpt>
      <trkpt lat="44.51196" lon="1.39281">
        <ele>178.6</ele>
        <time>2022-01-15T15:04:02Z</time>
      </trkpt>
      <trkpt lat="44.512" lon="1.39278">
        <ele>178.6</ele>
        <time>2022-01-15T15:04:04Z</time>
      </trkpt>
      <trkpt lat="44.51202" lon="1.39277">
        <ele>178.6</ele>
        <time>2022-01-15T15:04:05Z</time>
      </trkpt>
      <trkpt lat="44.51203" lon="1.39275">
        <ele>178.6</ele>
        <time>2022-01-15T15:04:06Z</time>
      </trkpt>
      <trkpt lat="44.51206" lon="1.39273">
        <ele>176.4</ele>
        <time>2022-01-15T15:04:07Z</time>
      </trkpt>
      <trkpt lat="44.51211" lon="1.39272">
        <ele>176.4</ele>
        <time>2022-01-15T15:04:08Z</time>
      </trkpt>
      <trkpt lat="44.51215" lon="1.39271">
        <ele>176.4</ele>
        <time>2022-01-15T15:04:09Z</time>
      </trkpt>
      <trkpt lat="44.5122" lon="1.39267">
        <ele>172</ele>
        <time>2022-01-15T15:04:10Z</time>
      </trkpt>
      <trkpt lat="44.51228" lon="1.39259">
        <ele>172</ele>
        <time>2022-01-15T15:04:12Z</time>
      </trkpt>
      <trkpt lat="44.51234" lon="1.39255">
        <ele>169.5</ele>
        <time>2022-01-15T15:04:13Z</time>
      </trkpt>
      <trkpt lat="44.5124" lon="1.39251">
        <ele>167.9</ele>
        <time>2022-01-15T15:04:14Z</time>
      </trkpt>
      <trkpt lat="44.51244" lon="1.39246">
        <ele>165.7</ele>
        <time>2022-01-15T15:04:15Z</time>
      </trkpt>
      <trkpt lat="44.51249" lon="1.39243">
        <ele>165.7</ele>
        <time>2022-01-15T15:04:16Z</time>
      </trkpt>
      <trkpt lat="44.51254" lon="1.3924">
        <ele>165.7</ele>
        <time>2022-01-15T15:04:17Z</time>
      </trkpt>
      <trkpt lat="44.5126" lon="1.39236">
        <ele>164.2</ele>
        <time>2022-01-15T15:04:18Z</time>
      </trkpt>
      <trkpt lat="44.51265" lon="1.39231">
        <ele>163.4</ele>
        <time>2022-01-15T15:04:19Z</time>
      </trkpt>
      <trkpt lat="44.51269" lon="1.39225">
        <ele>163.4</ele>
        <time>2022-01-15T15:04:20Z</time>
      </trkpt>
      <trkpt lat="44.51273" lon="1.3922">
        <ele>163.4</ele>
        <time>2022-01-15T15:04:21Z</time>
      </trkpt>
      <trkpt lat="44.51273" lon="1.39216">
        <ele>163.1</ele>
        <time>2022-01-15T15:04:22Z</time>
      </trkpt>
      <trkpt lat="44.51273" lon="1.39208">
        <ele>163.1</ele>
        <time>2022-01-15T15:04:23Z</time>
      </trkpt>
      <trkpt lat="44.51276" lon="1.39202">
        <ele>163.1</ele>
        <time>2022-01-15T15:04:25Z</time>
      </trkpt>
      <trkpt lat="44.51276" lon="1.39197">
        <ele>162.9</ele>
        <time>2022-01-15T15:04:26Z</time>
      </trkpt>
      <trkpt lat="44.51274" lon="1.39195">
        <ele>162.9</ele>
        <time>2022-01-15T15:04:27Z</time>
      </trkpt>
      <trkpt lat="44.51273" lon="1.39192">
        <ele>162.9</ele>
        <time>2022-01-15T15:04:29Z</time>
      </trkpt>
      <trkpt lat="44.51273" lon="1.39192">
        <ele>162.9</ele>
        <time>2022-01-15T15:04:30Z</time>
      </trkpt>
      <trkpt lat="44.51273" lon="1.39193">
        <ele>162.9</ele>
        <time>2022-01-15T15:04:31Z</time>
      </trkpt>
      <trkpt lat="44.51273" lon="1.39193">
        <ele>162.9</ele>
        <time>2022-01-15T15:04:33Z</time>
      </trkpt>
      <trkpt lat="44.51273" lon="1.39193">
        <ele>162.9</ele>
        <time>2022-01-15T15:04:34Z</time>
      </trkpt>
      <trkpt lat="44.51273" lon="1.39193">
        <ele>162.9</ele>
        <time>2022-01-15T15:04:35Z</time>
      </trkpt>
      <trkpt lat="44.51273" lon="1.39193">
        <ele>162.9</ele>
        <time>2022-01-15T15:04:37Z</time>
      </trkpt>
      <trkpt lat="44.51274" lon="1.39189">
        <ele>162.9</ele>
        <time>2022-01-15T15:06:38Z</time>
      </trkpt>
      <trkpt lat="44.51273" lon="1.39184">
        <ele>162.9</ele>
        <time>2022-01-15T15:06:40Z</time>
      </trkpt>
      <trkpt lat="44.51273" lon="1.39177">
        <ele>162.3</ele>
        <time>2022-01-15T15:06:41Z</time>
      </trkpt>
      <trkpt lat="44.51272" lon="1.39174">
        <ele>162.4</ele>
        <time>2022-01-15T15:06:42Z</time>
      </trkpt>
      <trkpt lat="44.51271" lon="1.39168">
        <ele>162.4</ele>
        <time>2022-01-15T15:06:44Z</time>
      </trkpt>
      <trkpt lat="44.5127" lon="1.39159">
        <ele>161</ele>
        <time>2022-01-15T15:06:45Z</time>
      </trkpt>
      <trkpt lat="44.51269" lon="1.39154">
        <ele>161</ele>
        <time>2022-01-15T15:06:46Z</time>
      </trkpt>
      <trkpt lat="44.51267" lon="1.39149">
        <ele>161</ele>
        <time>2022-01-15T15:06:47Z</time>
      </trkpt>
      <trkpt lat="44.51265" lon="1.39143">
        <ele>159.8</ele>
        <time>2022-01-15T15:06:49Z</time>
      </trkpt>
      <trkpt lat="44.51264" lon="1.39138">
        <ele>159.8</ele>
        <time>2022-01-15T15:06:50Z</time>
      </trkpt>
      <trkpt lat="44.51261" lon="1.39132">
        <ele>159.9</ele>
        <time>2022-01-15T15:06:51Z</time>
      </trkpt>
      <trkpt lat="44.51259" lon="1.39127">
        <ele>158.1</ele>
        <time>2022-01-15T15:06:52Z</time>
      </trkpt>
      <trkpt lat="44.51258" lon="1.39122">
        <ele>158.1</ele>
        <time>2022-01-15T15:06:53Z</time>
      </trkpt>
      <trkpt lat="44.51255" lon="1.39114">
        <ele>158.1</ele>
        <time>2022-01-15T15:06:55Z</time>
      </trkpt>
      <trkpt lat="44.51253" lon="1.3911">
        <ele>157.6</ele>
        <time>2022-01-15T15:06:56Z</time>
      </trkpt>
      <trkpt lat="44.51251" lon="1.39105">
        <ele>157.6</ele>
        <time>2022-01-15T15:06:57Z</time>
      </trkpt>
      <trkpt lat="44.51248" lon="1.391">
        <ele>157.7</ele>
        <time>2022-01-15T15:06:58Z</time>
      </trkpt>
      <trkpt lat="44.51246" lon="1.39096">
        <ele>156.9</ele>
        <time>2022-01-15T15:07:00Z</time>
      </trkpt>
      <trkpt lat="44.51244" lon="1.39092">
        <ele>156.9</ele>
        <time>2022-01-15T15:07:01Z</time>
      </trkpt>
      <trkpt lat="44.51243" lon="1.39088">
        <ele>156.9</ele>
        <time>2022-01-15T15:07:02Z</time>
      </trkpt>
      <trkpt lat="44.5124" lon="1.39084">
        <ele>157.8</ele>
        <time>2022-01-15T15:07:03Z</time>
      </trkpt>
      <trkpt lat="44.51238" lon="1.39079">
        <ele>156.8</ele>
        <time>2022-01-15T15:07:04Z</time>
      </trkpt>
      <trkpt lat="44.51236" lon="1.39075">
        <ele>156.8</ele>
        <time>2022-01-15T15:07:05Z</time>
      </trkpt>
      <trkpt lat="44.51232" lon="1.39068">
        <ele>156.8</ele>
        <time>2022-01-15T15:07:06Z</time>
      </trkpt>
      <trkpt lat="44.51229" lon="1.39063">
        <ele>156.5</ele>
        <time>2022-01-15T15:07:07Z</time>
      </trkpt>
      <trkpt lat="44.51225" lon="1.39057">
        <ele>156.5</ele>
        <time>2022-01-15T15:07:08Z</time>
      </trkpt>
      <trkpt lat="44.5122" lon="1.39053">
        <ele>156.5</ele>
        <time>2022-01-15T15:07:09Z</time>
      </trkpt>
      <trkpt lat="44.51214" lon="1.3905">
        <ele>157.2</ele>
        <time>2022-01-15T15:07:10Z</time>
      </trkpt>
      <trkpt lat="44.51207" lon="1.39049">
        <ele>157.2</ele>
        <time>2022-01-15T15:07:11Z</time>
      </trkpt>
      <trkpt lat="44.512" lon="1.39049">
        <ele>157.8</ele>
        <time>2022-01-15T15:07:12Z</time>
      </trkpt>
      <trkpt lat="44.51192" lon="1.39048">
        <ele>158.1</ele>
        <time>2022-01-15T15:07:13Z</time>
      </trkpt>
      <trkpt lat="44.51185" lon="1.39047">
        <ele>158.1</ele>
        <time>2022-01-15T15:07:14Z</time>
      </trkpt>
      <trkpt lat="44.51178" lon="1.39044">
        <ele>156.9</ele>
        <time>2022-01-15T15:07:15Z</time>
      </trkpt>
      <trkpt lat="44.51172" lon="1.39039">
        <ele>156.9</ele>
        <time>2022-01-15T15:07:16Z</time>
      </trkpt>
      <trkpt lat="44.51167" lon="1.39034">
        <ele>157.6</ele>
        <time>2022-01-15T15:07:17Z</time>
      </trkpt>
      <trkpt lat="44.51164" lon="1.39028">
        <ele>155.9</ele>
        <time>2022-01-15T15:07:18Z</time>
      </trkpt>
      <trkpt lat="44.5116" lon="1.39022">
        <ele>155.9</ele>
        <time>2022-01-15T15:07:19Z</time>
      </trkpt>
      <trkpt lat="44.51157" lon="1.39015">
        <ele>155.9</ele>
        <time>2022-01-15T15:07:20Z</time>
      </trkpt>
      <trkpt lat="44.51155" lon="1.39008">
        <ele>155.6</ele>
        <time>2022-01-15T15:07:21Z</time>
      </trkpt>
      <trkpt lat="44.51154" lon="1.39001">
        <ele>155.6</ele>
        <time>2022-01-15T15:07:22Z</time>
      </trkpt>
      <trkpt lat="44.51154" lon="1.38993">
        <ele>154.5</ele>
        <time>2022-01-15T15:07:23Z</time>
      </trkpt>
      <trkpt lat="44.51155" lon="1.38989">
        <ele>154.5</ele>
        <time>2022-01-15T15:07:24Z</time>
      </trkpt>
      <trkpt lat="44.51156" lon="1.38982">
        <ele>154.5</ele>
        <time>2022-01-15T15:07:25Z</time>
      </trkpt>
      <trkpt lat="44.51158" lon="1.38977">
        <ele>153.8</ele>
        <time>2022-01-15T15:07:26Z</time>
      </trkpt>
      <trkpt lat="44.51159" lon="1.38971">
        <ele>153.8</ele>
        <time>2022-01-15T15:07:27Z</time>
      </trkpt>
      <trkpt lat="44.5116" lon="1.38965">
        <ele>153.8</ele>
        <time>2022-01-15T15:07:28Z</time>
      </trkpt>
      <trkpt lat="44.5116" lon="1.38956">
        <ele>153.2</ele>
        <time>2022-01-15T15:07:29Z</time>
      </trkpt>
      <trkpt lat="44.5116" lon="1.38949">
        <ele>153.2</ele>
        <time>2022-01-15T15:07:30Z</time>
      </trkpt>
      <trkpt lat="44.5116" lon="1.38942">
        <ele>152.4</ele>
        <time>2022-01-15T15:07:31Z</time>
      </trkpt>
      <trkpt lat="44.51159" lon="1.38934">
        <ele>152.4</ele>
        <time>2022-01-15T15:07:32Z</time>
      </trkpt>
      <trkpt lat="44.51158" lon="1.38927">
        <ele>152.4</ele>
        <time>2022-01-15T15:07:33Z</time>
      </trkpt>
      <trkpt lat="44.51156" lon="1.38919">
        <ele>151.7</ele>
        <time>2022-01-15T15:07:34Z</time>
      </trkpt>
      <trkpt lat="44.51154" lon="1.3891">
        <ele>151.7</ele>
        <time>2022-01-15T15:07:35Z</time>
      </trkpt>
      <trkpt lat="44.51153" lon="1.38901">
        <ele>151.3</ele>
        <time>2022-01-15T15:07:36Z</time>
      </trkpt>
      <trkpt lat="44.51152" lon="1.38891">
        <ele>151.3</ele>
        <time>2022-01-15T15:07:37Z</time>
      </trkpt>
      <trkpt lat="44.5115" lon="1.38882">
        <ele>150.7</ele>
        <time>2022-01-15T15:07:38Z</time>
      </trkpt>
      <trkpt lat="44.51149" lon="1.38873">
        <ele>150.2</ele>
        <time>2022-01-15T15:07:39Z</time>
      </trkpt>
      <trkpt lat="44.51147" lon="1.38865">
        <ele>150.2</ele>
        <time>2022-01-15T15:07:40Z</time>
      </trkpt>
      <trkpt lat="44.51145" lon="1.38857">
        <ele>150.2</ele>
        <time>2022-01-15T15:07:41Z</time>
      </trkpt>
      <trkpt lat="44.51144" lon="1.3885">
        <ele>149.6</ele>
        <time>2022-01-15T15:07:42Z</time>
      </trkpt>
      <trkpt lat="44.51142" lon="1.38842">
        <ele>149.6</ele>
        <time>2022-01-15T15:07:43Z</time>
      </trkpt>
      <trkpt lat="44.5114" lon="1.38833">
        <ele>149.9</ele>
        <time>2022-01-15T15:07:44Z</time>
      </trkpt>
      <trkpt lat="44.51138" lon="1.38824">
        <ele>149.9</ele>
        <time>2022-01-15T15:07:45Z</time>
      </trkpt>
      <trkpt lat="44.51135" lon="1.38813">
        <ele>150.4</ele>
        <time>2022-01-15T15:07:46Z</time>
      </trkpt>
      <trkpt lat="44.51132" lon="1.38802">
        <ele>151.5</ele>
        <time>2022-01-15T15:07:47Z</time>
      </trkpt>
      <trkpt lat="44.51129" lon="1.38791">
        <ele>151.6</ele>
        <time>2022-01-15T15:07:48Z</time>
      </trkpt>
      <trkpt lat="44.51126" lon="1.3878">
        <ele>151.4</ele>
        <time>2022-01-15T15:07:49Z</time>
      </trkpt>
      <trkpt lat="44.51122" lon="1.3877">
        <ele>151</ele>
        <time>2022-01-15T15:07:50Z</time>
      </trkpt>
      <trkpt lat="44.51118" lon="1.38762">
        <ele>151.4</ele>
        <time>2022-01-15T15:07:51Z</time>
      </trkpt>
      <trkpt lat="44.51114" lon="1.38754">
        <ele>150.9</ele>
        <time>2022-01-15T15:07:52Z</time>
      </trkpt>
      <trkpt lat="44.5111" lon="1.38747">
        <ele>150.9</ele>
        <time>2022-01-15T15:07:53Z</time>
      </trkpt>
      <trkpt lat="44.51108" lon="1.38741">
        <ele>150.9</ele>
        <time>2022-01-15T15:07:54Z</time>
      </trkpt>
      <trkpt lat="44.51105" lon="1.38736">
        <ele>150.3</ele>
        <time>2022-01-15T15:07:55Z</time>
      </trkpt>
      <trkpt lat="44.51102" lon="1.38729">
        <ele>150.3</ele>
        <time>2022-01-15T15:07:56Z</time>
      </trkpt>
      <trkpt lat="44.51099" lon="1.38721">
        <ele>150.3</ele>
        <time>2022-01-15T15:07:57Z</time>
      </trkpt>
      <trkpt lat="44.51095" lon="1.38713">
        <ele>149.9</ele>
        <time>2022-01-15T15:07:58Z</time>
      </trkpt>
      <trkpt lat="44.51091" lon="1.38706">
        <ele>149.9</ele>
        <time>2022-01-15T15:07:59Z</time>
      </trkpt>
      <trkpt lat="44.51087" lon="1.387">
        <ele>149.9</ele>
        <time>2022-01-15T15:08:00Z</time>
      </trkpt>
      <trkpt lat="44.51082" lon="1.38695">
        <ele>149.7</ele>
        <time>2022-01-15T15:08:01Z</time>
      </trkpt>
      <trkpt lat="44.51076" lon="1.3869">
        <ele>149.7</ele>
        <time>2022-01-15T15:08:02Z</time>
      </trkpt>
      <trkpt lat="44.5107" lon="1.38686">
        <ele>149.8</ele>
        <time>2022-01-15T15:08:03Z</time>
      </trkpt>
      <trkpt lat="44.51064" lon="1.38682">
        <ele>149.5</ele>
        <time>2022-01-15T15:08:04Z</time>
      </trkpt>
      <trkpt lat="44.51058" lon="1.38678">
        <ele>149</ele>
        <time>2022-01-15T15:08:05Z</time>
      </trkpt>
      <trkpt lat="44.51054" lon="1.38676">
        <ele>149</ele>
        <time>2022-01-15T15:08:06Z</time>
      </trkpt>
      <trkpt lat="44.51051" lon="1.38674">
        <ele>149</ele>
        <time>2022-01-15T15:08:07Z</time>
      </trkpt>
      <trkpt lat="44.5105" lon="1.38673">
        <ele>149</ele>
        <time>2022-01-15T15:08:08Z</time>
      </trkpt>
      <trkpt lat="44.51049" lon="1.38671">
        <ele>149</ele>
        <time>2022-01-15T15:08:09Z</time>
      </trkpt>
      <trkpt lat="44.51048" lon="1.38669">
        <ele>149</ele>
        <time>2022-01-15T15:08:10Z</time>
      </trkpt>
      <trkpt lat="44.51048" lon="1.38668">
        <ele>149</ele>
        <time>2022-01-15T15:08:11Z</time>
      </trkpt>
      <trkpt lat="44.51048" lon="1.38668">
        <ele>149</ele>
        <time>2022-01-15T15:08:12Z</time>
      </trkpt>
      <trkpt lat="44.51048" lon="1.38668">
        <ele>149</ele>
        <time>2022-01-15T15:08:13Z</time>
      </trkpt>
      <trkpt lat="44.51048" lon="1.38668">
        <ele>149</ele>
        <time>2022-01-15T15:08:14Z</time>
      </trkpt>
      <trkpt lat="44.51048" lon="1.38668">
        <ele>149</ele>
        <time>2022-01-15T15:08:15Z</time>
      </trkpt>
      <trkpt lat="44.51048" lon="1.38668">
        <ele>148.6</ele>
        <time>2022-01-15T15:08:17Z</time>
      </trkpt>
      <trkpt lat="44.51048" lon="1.38668">
        <ele>148.6</ele>
        <time>2022-01-15T15:08:18Z</time>
      </trkpt>
      <trkpt lat="44.51048" lon="1.38668">
        <ele>148.6</ele>
        <time>2022-01-15T15:08:19Z</time>
      </trkpt>
      <trkpt lat="44.51048" lon="1.38668">
        <ele>148.6</ele>
        <time>2022-01-15T15:08:20Z</time>
      </trkpt>
      <trkpt lat="44.51048" lon="1.38664">
        <ele>148.6</ele>
        <time>2022-01-15T15:08:24Z</time>
      </trkpt>
      <trkpt lat="44.51047" lon="1.38662">
        <ele>148.6</ele>
        <time>2022-01-15T15:08:25Z</time>
      </trkpt>
      <trkpt lat="44.51046" lon="1.38661">
        <ele>148.1</ele>
        <time>2022-01-15T15:08:26Z</time>
      </trkpt>
      <trkpt lat="44.51045" lon="1.38657">
        <ele>148.1</ele>
        <time>2022-01-15T15:08:28Z</time>
      </trkpt>
      <trkpt lat="44.51043" lon="1.38653">
        <ele>148.1</ele>
        <time>2022-01-15T15:08:29Z</time>
      </trkpt>
      <trkpt lat="44.5104" lon="1.38648">
        <ele>147.6</ele>
        <time>2022-01-15T15:08:30Z</time>
      </trkpt>
      <trkpt lat="44.51038" lon="1.38641">
        <ele>147.6</ele>
        <time>2022-01-15T15:08:31Z</time>
      </trkpt>
      <trkpt lat="44.51036" lon="1.38637">
        <ele>147.7</ele>
        <time>2022-01-15T15:08:32Z</time>
      </trkpt>
      <trkpt lat="44.51032" lon="1.38629">
        <ele>146.7</ele>
        <time>2022-01-15T15:08:34Z</time>
      </trkpt>
      <trkpt lat="44.51031" lon="1.38623">
        <ele>146.7</ele>
        <time>2022-01-15T15:08:35Z</time>
      </trkpt>
      <trkpt lat="44.51029" lon="1.38618">
        <ele>146.7</ele>
        <time>2022-01-15T15:08:36Z</time>
      </trkpt>
      <trkpt lat="44.51027" lon="1.38614">
        <ele>146.7</ele>
        <time>2022-01-15T15:08:37Z</time>
      </trkpt>
      <trkpt lat="44.51025" lon="1.3861">
        <ele>146.7</ele>
        <time>2022-01-15T15:08:38Z</time>
      </trkpt>
      <trkpt lat="44.51024" lon="1.38606">
        <ele>146.7</ele>
        <time>2022-01-15T15:08:39Z</time>
      </trkpt>
      <trkpt lat="44.51023" lon="1.38602">
        <ele>146.7</ele>
        <time>2022-01-15T15:08:40Z</time>
      </trkpt>
      <trkpt lat="44.51021" lon="1.38598">
        <ele>145.8</ele>
        <time>2022-01-15T15:08:41Z</time>
      </trkpt>
      <trkpt lat="44.51019" lon="1.38594">
        <ele>145.8</ele>
        <time>2022-01-15T15:08:42Z</time>
      </trkpt>
      <trkpt lat="44.51018" lon="1.3859">
        <ele>145.8</ele>
        <time>2022-01-15T15:08:43Z</time>
      </trkpt>
      <trkpt lat="44.51016" lon="1.38586">
        <ele>145.9</ele>
        <time>2022-01-15T15:08:44Z</time>
      </trkpt>
      <trkpt lat="44.51014" lon="1.38581">
        <ele>145.7</ele>
        <time>2022-01-15T15:08:45Z</time>
      </trkpt>
      <trkpt lat="44.51012" lon="1.38576">
        <ele>145.7</ele>
        <time>2022-01-15T15:08:46Z</time>
      </trkpt>
      <trkpt lat="44.51012" lon="1.3857">
        <ele>145.7</ele>
        <time>2022-01-15T15:08:48Z</time>
      </trkpt>
      <trkpt lat="44.51012" lon="1.38566">
        <ele>145.7</ele>
        <time>2022-01-15T15:08:49Z</time>
      </trkpt>
      <trkpt lat="44.51013" lon="1.38565">
        <ele>145.7</ele>
        <time>2022-01-15T15:08:50Z</time>
      </trkpt>
      <trkpt lat="44.51015" lon="1.38563">
        <ele>145.3</ele>
        <time>2022-01-15T15:08:51Z</time>
      </trkpt>
      <trkpt lat="44.51016" lon="1.38562">
        <ele>145.3</ele>
        <time>2022-01-15T15:08:52Z</time>
      </trkpt>
      <trkpt lat="44.51019" lon="1.3856">
        <ele>145.3</ele>
        <time>2022-01-15T15:08:54Z</time>
      </trkpt>
      <trkpt lat="44.51022" lon="1.38558">
        <ele>145.3</ele>
        <time>2022-01-15T15:08:55Z</time>
      </trkpt>
      <trkpt lat="44.51024" lon="1.38557">
        <ele>145.3</ele>
        <time>2022-01-15T15:08:56Z</time>
      </trkpt>
      <trkpt lat="44.51027" lon="1.38555">
        <ele>145.3</ele>
        <time>2022-01-15T15:08:57Z</time>
      </trkpt>
      <trkpt lat="44.51028" lon="1.38553">
        <ele>145.3</ele>
        <time>2022-01-15T15:08:58Z</time>
      </trkpt>
      <trkpt lat="44.51029" lon="1.38549">
        <ele>145.3</ele>
        <time>2022-01-15T15:09:00Z</time>
      </trkpt>
      <trkpt lat="44.51031" lon="1.38546">
        <ele>145.3</ele>
        <time>2022-01-15T15:09:01Z</time>
      </trkpt>
      <trkpt lat="44.51032" lon="1.38545">
        <ele>145.3</ele>
        <time>2022-01-15T15:09:02Z</time>
      </trkpt>
      <trkpt lat="44.51035" lon="1.38541">
        <ele>145.4</ele>
        <time>2022-01-15T15:09:03Z</time>
      </trkpt>
      <trkpt lat="44.51036" lon="1.3854">
        <ele>145.4</ele>
        <time>2022-01-15T15:09:04Z</time>
      </trkpt>
      <trkpt lat="44.51039" lon="1.38536">
        <ele>145.4</ele>
        <time>2022-01-15T15:09:05Z</time>
      </trkpt>
      <trkpt lat="44.51039" lon="1.38535">
        <ele>145.4</ele>
        <time>2022-01-15T15:09:06Z</time>
      </trkpt>
      <trkpt lat="44.51043" lon="1.38532">
        <ele>145.5</ele>
        <time>2022-01-15T15:09:07Z</time>
      </trkpt>
      <trkpt lat="44.51044" lon="1.38531">
        <ele>145.5</ele>
        <time>2022-01-15T15:09:08Z</time>
      </trkpt>
      <trkpt lat="44.51046" lon="1.38529">
        <ele>145.5</ele>
        <time>2022-01-15T15:09:09Z</time>
      </trkpt>
      <trkpt lat="44.51049" lon="1.38525">
        <ele>145.5</ele>
        <time>2022-01-15T15:09:10Z</time>
      </trkpt>
      <trkpt lat="44.51049" lon="1.38524">
        <ele>145.5</ele>
        <time>2022-01-15T15:09:11Z</time>
      </trkpt>
      <trkpt lat="44.51051" lon="1.38519">
        <ele>145.5</ele>
        <time>2022-01-15T15:09:13Z</time>
      </trkpt>
      <trkpt lat="44.51054" lon="1.38516">
        <ele>145.5</ele>
        <time>2022-01-15T15:09:14Z</time>
      </trkpt>
      <trkpt lat="44.51055" lon="1.38514">
        <ele>145.5</ele>
        <time>2022-01-15T15:09:15Z</time>
      </trkpt>
      <trkpt lat="44.51055" lon="1.38511">
        <ele>145.5</ele>
        <time>2022-01-15T15:09:16Z</time>
      </trkpt>
      <trkpt lat="44.51057" lon="1.38506">
        <ele>145.5</ele>
        <time>2022-01-15T15:09:17Z</time>
      </trkpt>
      <trkpt lat="44.51057" lon="1.38505">
        <ele>145.5</ele>
        <time>2022-01-15T15:09:18Z</time>
      </trkpt>
      <trkpt lat="44.51058" lon="1.385">
        <ele>145.5</ele>
        <time>2022-01-15T15:09:19Z</time>
      </trkpt>
      <trkpt lat="44.51058" lon="1.38498">
        <ele>145.5</ele>
        <time>2022-01-15T15:09:20Z</time>
      </trkpt>
      <trkpt lat="44.51058" lon="1.38492">
        <ele>145.6</ele>
        <time>2022-01-15T15:09:22Z</time>
      </trkpt>
      <trkpt lat="44.51059" lon="1.38488">
        <ele>145.7</ele>
        <time>2022-01-15T15:09:23Z</time>
      </trkpt>
      <trkpt lat="44.51058" lon="1.38483">
        <ele>145.7</ele>
        <time>2022-01-15T15:09:24Z</time>
      </trkpt>
      <trkpt lat="44.51059" lon="1.38478">
        <ele>145.7</ele>
        <time>2022-01-15T15:09:25Z</time>
      </trkpt>
      <trkpt lat="44.51059" lon="1.38476">
        <ele>145.8</ele>
        <time>2022-01-15T15:09:26Z</time>
      </trkpt>
      <trkpt lat="44.51058" lon="1.38472">
        <ele>145.8</ele>
        <time>2022-01-15T15:09:27Z</time>
      </trkpt>
      <trkpt lat="44.51058" lon="1.38468">
        <ele>145.8</ele>
        <time>2022-01-15T15:09:28Z</time>
      </trkpt>
      <trkpt lat="44.51058" lon="1.38466">
        <ele>145.8</ele>
        <time>2022-01-15T15:09:29Z</time>
      </trkpt>
      <trkpt lat="44.51058" lon="1.38463">
        <ele>145.8</ele>
        <time>2022-01-15T15:09:30Z</time>
      </trkpt>
      <trkpt lat="44.51059" lon="1.3846">
        <ele>145.8</ele>
        <time>2022-01-15T15:09:32Z</time>
      </trkpt>
      <trkpt lat="44.51059" lon="1.38456">
        <ele>145.8</ele>
        <time>2022-01-15T15:09:33Z</time>
      </trkpt>
      <trkpt lat="44.5106" lon="1.38455">
        <ele>145.8</ele>
        <time>2022-01-15T15:09:34Z</time>
      </trkpt>
      <trkpt lat="44.51061" lon="1.38449">
        <ele>145.8</ele>
        <time>2022-01-15T15:09:35Z</time>
      </trkpt>
      <trkpt lat="44.51061" lon="1.38447">
        <ele>145.8</ele>
        <time>2022-01-15T15:09:36Z</time>
      </trkpt>
      <trkpt lat="44.5106" lon="1.38439">
        <ele>145.9</ele>
        <time>2022-01-15T15:09:38Z</time>
      </trkpt>
      <trkpt lat="44.51061" lon="1.38434">
        <ele>145.9</ele>
        <time>2022-01-15T15:09:39Z</time>
      </trkpt>
      <trkpt lat="44.51061" lon="1.38429">
        <ele>145.9</ele>
        <time>2022-01-15T15:09:40Z</time>
      </trkpt>
      <trkpt lat="44.51062" lon="1.38424">
        <ele>146</ele>
        <time>2022-01-15T15:09:41Z</time>
      </trkpt>
      <trkpt lat="44.51062" lon="1.38422">
        <ele>146</ele>
        <time>2022-01-15T15:09:42Z</time>
      </trkpt>
      <trkpt lat="44.51061" lon="1.38417">
        <ele>146</ele>
        <time>2022-01-15T15:09:43Z</time>
      </trkpt>
      <trkpt lat="44.51061" lon="1.38416">
        <ele>146</ele>
        <time>2022-01-15T15:09:44Z</time>
      </trkpt>
      <trkpt lat="44.51061" lon="1.38414">
        <ele>146.1</ele>
        <time>2022-01-15T15:09:45Z</time>
      </trkpt>
      <trkpt lat="44.51061" lon="1.38411">
        <ele>146.1</ele>
        <time>2022-01-15T15:09:46Z</time>
      </trkpt>
      <trkpt lat="44.51061" lon="1.38406">
        <ele>146.1</ele>
        <time>2022-01-15T15:09:47Z</time>
      </trkpt>
      <trkpt lat="44.51062" lon="1.38404">
        <ele>146.2</ele>
        <time>2022-01-15T15:09:48Z</time>
      </trkpt>
      <trkpt lat="44.51062" lon="1.38399">
        <ele>146.2</ele>
        <time>2022-01-15T15:09:49Z</time>
      </trkpt>
      <trkpt lat="44.51064" lon="1.38395">
        <ele>146.3</ele>
        <time>2022-01-15T15:09:50Z</time>
      </trkpt>
      <trkpt lat="44.51066" lon="1.38389">
        <ele>146.2</ele>
        <time>2022-01-15T15:09:51Z</time>
      </trkpt>
      <trkpt lat="44.51064" lon="1.38381">
        <ele>145.9</ele>
        <time>2022-01-15T15:09:53Z</time>
      </trkpt>
      <trkpt lat="44.51059" lon="1.38375">
        <ele>145.5</ele>
        <time>2022-01-15T15:09:55Z</time>
      </trkpt>
      <trkpt lat="44.51054" lon="1.38371">
        <ele>145.1</ele>
        <time>2022-01-15T15:09:56Z</time>
      </trkpt>
      <trkpt lat="44.51049" lon="1.38368">
        <ele>144.6</ele>
        <time>2022-01-15T15:09:57Z</time>
      </trkpt>
      <trkpt lat="44.51043" lon="1.38366">
        <ele>144.3</ele>
        <time>2022-01-15T15:09:58Z</time>
      </trkpt>
      <trkpt lat="44.51037" lon="1.38366">
        <ele>143.9</ele>
        <time>2022-01-15T15:09:59Z</time>
      </trkpt>
      <trkpt lat="44.51031" lon="1.38366">
        <ele>143.5</ele>
        <time>2022-01-15T15:10:00Z</time>
      </trkpt>
      <trkpt lat="44.51024" lon="1.38367">
        <ele>143.2</ele>
        <time>2022-01-15T15:10:01Z</time>
      </trkpt>
      <trkpt lat="44.51018" lon="1.38367">
        <ele>142.9</ele>
        <time>2022-01-15T15:10:02Z</time>
      </trkpt>
      <trkpt lat="44.51012" lon="1.38367">
        <ele>142.6</ele>
        <time>2022-01-15T15:10:03Z</time>
      </trkpt>
      <trkpt lat="44.51006" lon="1.38368">
        <ele>142.3</ele>
        <time>2022-01-15T15:10:04Z</time>
      </trkpt>
      <trkpt lat="44.51" lon="1.38368">
        <ele>142</ele>
        <time>2022-01-15T15:10:05Z</time>
      </trkpt>
      <trkpt lat="44.50994" lon="1.38369">
        <ele>141.7</ele>
        <time>2022-01-15T15:10:06Z</time>
      </trkpt>
      <trkpt lat="44.50987" lon="1.38369">
        <ele>141.3</ele>
        <time>2022-01-15T15:10:07Z</time>
      </trkpt>
      <trkpt lat="44.50981" lon="1.3837">
        <ele>141</ele>
        <time>2022-01-15T15:10:08Z</time>
      </trkpt>
      <trkpt lat="44.50974" lon="1.38368">
        <ele>140.6</ele>
        <time>2022-01-15T15:10:09Z</time>
      </trkpt>
      <trkpt lat="44.50969" lon="1.38365">
        <ele>140.3</ele>
        <time>2022-01-15T15:10:10Z</time>
      </trkpt>
      <trkpt lat="44.50965" lon="1.38359">
        <ele>140</ele>
        <time>2022-01-15T15:10:11Z</time>
      </trkpt>
      <trkpt lat="44.50962" lon="1.38352">
        <ele>139.7</ele>
        <time>2022-01-15T15:10:12Z</time>
      </trkpt>
      <trkpt lat="44.50961" lon="1.38343">
        <ele>139.3</ele>
        <time>2022-01-15T15:10:13Z</time>
      </trkpt>
      <trkpt lat="44.50961" lon="1.38334">
        <ele>138.9</ele>
        <time>2022-01-15T15:10:14Z</time>
      </trkpt>
      <trkpt lat="44.50963" lon="1.38325">
        <ele>138.5</ele>
        <time>2022-01-15T15:10:15Z</time>
      </trkpt>
      <trkpt lat="44.50964" lon="1.38316">
        <ele>138.1</ele>
        <time>2022-01-15T15:10:16Z</time>
      </trkpt>
      <trkpt lat="44.50966" lon="1.38308">
        <ele>137.7</ele>
        <time>2022-01-15T15:10:17Z</time>
      </trkpt>
      <trkpt lat="44.50968" lon="1.38299">
        <ele>137.3</ele>
        <time>2022-01-15T15:10:18Z</time>
      </trkpt>
      <trkpt lat="44.50971" lon="1.3829">
        <ele>137</ele>
        <time>2022-01-15T15:10:19Z</time>
      </trkpt>
      <trkpt lat="44.50973" lon="1.38284">
        <ele>136.8</ele>
        <time>2022-01-15T15:10:20Z</time>
      </trkpt>
      <trkpt lat="44.50976" lon="1.38279">
        <ele>136.4</ele>
        <time>2022-01-15T15:10:21Z</time>
      </trkpt>
      <trkpt lat="44.50978" lon="1.38276">
        <ele>136.3</ele>
        <time>2022-01-15T15:10:22Z</time>
      </trkpt>
      <trkpt lat="44.50981" lon="1.38274">
        <ele>136.2</ele>
        <time>2022-01-15T15:10:23Z</time>
      </trkpt>
      <trkpt lat="44.50983" lon="1.38272">
        <ele>136.1</ele>
        <time>2022-01-15T15:10:24Z</time>
      </trkpt>
      <trkpt lat="44.50986" lon="1.38267">
        <ele>136</ele>
        <time>2022-01-15T15:10:25Z</time>
      </trkpt>
      <trkpt lat="44.50987" lon="1.38266">
        <ele>136</ele>
        <time>2022-01-15T15:10:26Z</time>
      </trkpt>
      <trkpt lat="44.50989" lon="1.38262">
        <ele>135.9</ele>
        <time>2022-01-15T15:10:27Z</time>
      </trkpt>
      <trkpt lat="44.50991" lon="1.38259">
        <ele>135.9</ele>
        <time>2022-01-15T15:10:28Z</time>
      </trkpt>
      <trkpt lat="44.50994" lon="1.38255">
        <ele>135.8</ele>
        <time>2022-01-15T15:10:29Z</time>
      </trkpt>
      <trkpt lat="44.50994" lon="1.38253">
        <ele>135.8</ele>
        <time>2022-01-15T15:10:30Z</time>
      </trkpt>
      <trkpt lat="44.50997" lon="1.38249">
        <ele>135.7</ele>
        <time>2022-01-15T15:10:31Z</time>
      </trkpt>
      <trkpt lat="44.51" lon="1.38245">
        <ele>135.7</ele>
        <time>2022-01-15T15:10:32Z</time>
      </trkpt>
      <trkpt lat="44.51003" lon="1.38241">
        <ele>135.6</ele>
        <time>2022-01-15T15:10:33Z</time>
      </trkpt>
      <trkpt lat="44.51005" lon="1.38237">
        <ele>135.6</ele>
        <time>2022-01-15T15:10:34Z</time>
      </trkpt>
      <trkpt lat="44.51009" lon="1.38231">
        <ele>135.6</ele>
        <time>2022-01-15T15:10:35Z</time>
      </trkpt>
      <trkpt lat="44.51012" lon="1.38227">
        <ele>135.5</ele>
        <time>2022-01-15T15:10:36Z</time>
      </trkpt>
      <trkpt lat="44.51015" lon="1.38222">
        <ele>135.5</ele>
        <time>2022-01-15T15:10:37Z</time>
      </trkpt>
      <trkpt lat="44.51019" lon="1.38216">
        <ele>135.5</ele>
        <time>2022-01-15T15:10:39Z</time>
      </trkpt>
      <trkpt lat="44.51021" lon="1.38211">
        <ele>135.4</ele>
        <time>2022-01-15T15:10:40Z</time>
      </trkpt>
      <trkpt lat="44.51024" lon="1.38207">
        <ele>135.4</ele>
        <time>2022-01-15T15:10:41Z</time>
      </trkpt>
      <trkpt lat="44.51026" lon="1.38203">
        <ele>135.4</ele>
        <time>2022-01-15T15:10:42Z</time>
      </trkpt>
      <trkpt lat="44.5103" lon="1.38196">
        <ele>135.3</ele>
        <time>2022-01-15T15:10:43Z</time>
      </trkpt>
      <trkpt lat="44.51036" lon="1.38188">
        <ele>135.2</ele>
        <time>2022-01-15T15:10:45Z</time>
      </trkpt>
      <trkpt lat="44.5104" lon="1.38183">
        <ele>135.1</ele>
        <time>2022-01-15T15:10:46Z</time>
      </trkpt>
      <trkpt lat="44.51044" lon="1.38178">
        <ele>135</ele>
        <time>2022-01-15T15:10:47Z</time>
      </trkpt>
      <trkpt lat="44.51048" lon="1.38174">
        <ele>134.9</ele>
        <time>2022-01-15T15:10:48Z</time>
      </trkpt>
      <trkpt lat="44.51052" lon="1.3817">
        <ele>134.9</ele>
        <time>2022-01-15T15:10:49Z</time>
      </trkpt>
      <trkpt lat="44.51056" lon="1.38168">
        <ele>134.8</ele>
        <time>2022-01-15T15:10:50Z</time>
      </trkpt>
      <trkpt lat="44.5106" lon="1.38163">
        <ele>134.8</ele>
        <time>2022-01-15T15:10:51Z</time>
      </trkpt>
      <trkpt lat="44.51065" lon="1.38157">
        <ele>134.8</ele>
        <time>2022-01-15T15:10:52Z</time>
      </trkpt>
      <trkpt lat="44.51068" lon="1.38151">
        <ele>134.7</ele>
        <time>2022-01-15T15:10:53Z</time>
      </trkpt>
      <trkpt lat="44.51072" lon="1.38143">
        <ele>134.7</ele>
        <time>2022-01-15T15:10:54Z</time>
      </trkpt>
      <trkpt lat="44.51076" lon="1.38137">
        <ele>134.7</ele>
        <time>2022-01-15T15:10:55Z</time>
      </trkpt>
      <trkpt lat="44.5108" lon="1.38129">
        <ele>134.7</ele>
        <time>2022-01-15T15:10:56Z</time>
      </trkpt>
      <trkpt lat="44.51084" lon="1.38121">
        <ele>134.6</ele>
        <time>2022-01-15T15:10:57Z</time>
      </trkpt>
      <trkpt lat="44.51086" lon="1.38112">
        <ele>134.6</ele>
        <time>2022-01-15T15:10:58Z</time>
      </trkpt>
      <trkpt lat="44.5109" lon="1.38104">
        <ele>134.7</ele>
        <time>2022-01-15T15:10:59Z</time>
      </trkpt>
      <trkpt lat="44.51093" lon="1.38096">
        <ele>134.7</ele>
        <time>2022-01-15T15:11:00Z</time>
      </trkpt>
      <trkpt lat="44.51097" lon="1.38089">
        <ele>134.7</ele>
        <time>2022-01-15T15:11:01Z</time>
      </trkpt>
      <trkpt lat="44.51098" lon="1.38083">
        <ele>134.8</ele>
        <time>2022-01-15T15:11:02Z</time>
      </trkpt>
      <trkpt lat="44.51099" lon="1.38076">
        <ele>134.8</ele>
        <time>2022-01-15T15:11:03Z</time>
      </trkpt>
      <trkpt lat="44.511" lon="1.3807">
        <ele>134.8</ele>
        <time>2022-01-15T15:11:04Z</time>
      </trkpt>
      <trkpt lat="44.51101" lon="1.38067">
        <ele>134.9</ele>
        <time>2022-01-15T15:11:05Z</time>
      </trkpt>
      <trkpt lat="44.51103" lon="1.38061">
        <ele>134.9</ele>
        <time>2022-01-15T15:11:06Z</time>
      </trkpt>
      <trkpt lat="44.51104" lon="1.38057">
        <ele>135</ele>
        <time>2022-01-15T15:11:07Z</time>
      </trkpt>
      <trkpt lat="44.51104" lon="1.38053">
        <ele>135</ele>
        <time>2022-01-15T15:11:08Z</time>
      </trkpt>
      <trkpt lat="44.51104" lon="1.38048">
        <ele>135.1</ele>
        <time>2022-01-15T15:11:09Z</time>
      </trkpt>
      <trkpt lat="44.51104" lon="1.38043">
        <ele>135.1</ele>
        <time>2022-01-15T15:11:10Z</time>
      </trkpt>
      <trkpt lat="44.51102" lon="1.38038">
        <ele>135.2</ele>
        <time>2022-01-15T15:11:11Z</time>
      </trkpt>
      <trkpt lat="44.51101" lon="1.38035">
        <ele>135.2</ele>
        <time>2022-01-15T15:11:12Z</time>
      </trkpt>
      <trkpt lat="44.51098" lon="1.38029">
        <ele>135.2</ele>
        <time>2022-01-15T15:11:14Z</time>
      </trkpt>
      <trkpt lat="44.51097" lon="1.38025">
        <ele>135.3</ele>
        <time>2022-01-15T15:11:15Z</time>
      </trkpt>
      <trkpt lat="44.51096" lon="1.38021">
        <ele>135.3</ele>
        <time>2022-01-15T15:11:16Z</time>
      </trkpt>
      <trkpt lat="44.51096" lon="1.38017">
        <ele>135.3</ele>
        <time>2022-01-15T15:11:17Z</time>
      </trkpt>
      <trkpt lat="44.51097" lon="1.38011">
        <ele>135.3</ele>
        <time>2022-01-15T15:11:19Z</time>
      </trkpt>
      <trkpt lat="44.51096" lon="1.38006">
        <ele>135.3</ele>
        <time>2022-01-15T15:11:20Z</time>
      </trkpt>
      <trkpt lat="44.51095" lon="1.38001">
        <ele>135.3</ele>
        <time>2022-01-15T15:11:21Z</time>
      </trkpt>
      <trkpt lat="44.51093" lon="1.37998">
        <ele>135.3</ele>
        <time>2022-01-15T15:11:22Z</time>
      </trkpt>
      <trkpt lat="44.51091" lon="1.37994">
        <ele>135.3</ele>
        <time>2022-01-15T15:11:23Z</time>
      </trkpt>
      <trkpt lat="44.51089" lon="1.37991">
        <ele>135.3</ele>
        <time>2022-01-15T15:11:24Z</time>
      </trkpt>
      <trkpt lat="44.51087" lon="1.37988">
        <ele>135.4</ele>
        <time>2022-01-15T15:11:25Z</time>
      </trkpt>
      <trkpt lat="44.51085" lon="1.37986">
        <ele>135.4</ele>
        <time>2022-01-15T15:11:26Z</time>
      </trkpt>
      <trkpt lat="44.51082" lon="1.37984">
        <ele>135.4</ele>
        <time>2022-01-15T15:11:27Z</time>
      </trkpt>
      <trkpt lat="44.51078" lon="1.37982">
        <ele>135.4</ele>
        <time>2022-01-15T15:11:28Z</time>
      </trkpt>
      <trkpt lat="44.51075" lon="1.37981">
        <ele>135.4</ele>
        <time>2022-01-15T15:11:29Z</time>
      </trkpt>
      <trkpt lat="44.51072" lon="1.37979">
        <ele>135.4</ele>
        <time>2022-01-15T15:11:30Z</time>
      </trkpt>
      <trkpt lat="44.51069" lon="1.37977">
        <ele>135.3</ele>
        <time>2022-01-15T15:11:31Z</time>
      </trkpt>
      <trkpt lat="44.51066" lon="1.37975">
        <ele>135.3</ele>
        <time>2022-01-15T15:11:32Z</time>
      </trkpt>
      <trkpt lat="44.51062" lon="1.37973">
        <ele>135.3</ele>
        <time>2022-01-15T15:11:33Z</time>
      </trkpt>
      <trkpt lat="44.51059" lon="1.37971">
        <ele>135.3</ele>
        <time>2022-01-15T15:11:34Z</time>
      </trkpt>
      <trkpt lat="44.51055" lon="1.37969">
        <ele>135.3</ele>
        <time>2022-01-15T15:11:35Z</time>
      </trkpt>
      <trkpt lat="44.51051" lon="1.37967">
        <ele>135.2</ele>
        <time>2022-01-15T15:11:36Z</time>
      </trkpt>
      <trkpt lat="44.51047" lon="1.37965">
        <ele>135.2</ele>
        <time>2022-01-15T15:11:37Z</time>
      </trkpt>
      <trkpt lat="44.51044" lon="1.37963">
        <ele>135.2</ele>
        <time>2022-01-15T15:11:38Z</time>
      </trkpt>
      <trkpt lat="44.51039" lon="1.37958">
        <ele>135.1</ele>
        <time>2022-01-15T15:11:39Z</time>
      </trkpt>
      <trkpt lat="44.51034" lon="1.37954">
        <ele>135.1</ele>
        <time>2022-01-15T15:11:41Z</time>
      </trkpt>
      <trkpt lat="44.5103" lon="1.37953">
        <ele>135</ele>
        <time>2022-01-15T15:11:42Z</time>
      </trkpt>
      <trkpt lat="44.51026" lon="1.37951">
        <ele>135</ele>
        <time>2022-01-15T15:11:43Z</time>
      </trkpt>
      <trkpt lat="44.51022" lon="1.3795">
        <ele>135</ele>
        <time>2022-01-15T15:11:44Z</time>
      </trkpt>
      <trkpt lat="44.51017" lon="1.37947">
        <ele>134.9</ele>
        <time>2022-01-15T15:11:45Z</time>
      </trkpt>
      <trkpt lat="44.51012" lon="1.37945">
        <ele>134.9</ele>
        <time>2022-01-15T15:11:46Z</time>
      </trkpt>
      <trkpt lat="44.51007" lon="1.37943">
        <ele>134.8</ele>
        <time>2022-01-15T15:11:48Z</time>
      </trkpt>
      <trkpt lat="44.51003" lon="1.37941">
        <ele>134.8</ele>
        <time>2022-01-15T15:11:49Z</time>
      </trkpt>
      <trkpt lat="44.50998" lon="1.3794">
        <ele>134.7</ele>
        <time>2022-01-15T15:11:50Z</time>
      </trkpt>
      <trkpt lat="44.50993" lon="1.37937">
        <ele>134.7</ele>
        <time>2022-01-15T15:11:51Z</time>
      </trkpt>
      <trkpt lat="44.50989" lon="1.37935">
        <ele>134.6</ele>
        <time>2022-01-15T15:11:52Z</time>
      </trkpt>
      <trkpt lat="44.50985" lon="1.37933">
        <ele>134.6</ele>
        <time>2022-01-15T15:11:53Z</time>
      </trkpt>
      <trkpt lat="44.5098" lon="1.37931">
        <ele>134.5</ele>
        <time>2022-01-15T15:11:54Z</time>
      </trkpt>
      <trkpt lat="44.50976" lon="1.37929">
        <ele>134.5</ele>
        <time>2022-01-15T15:11:55Z</time>
      </trkpt>
      <trkpt lat="44.50972" lon="1.37927">
        <ele>134.5</ele>
        <time>2022-01-15T15:11:56Z</time>
      </trkpt>
      <trkpt lat="44.50968" lon="1.37925">
        <ele>134.4</ele>
        <time>2022-01-15T15:11:57Z</time>
      </trkpt>
      <trkpt lat="44.50964" lon="1.3792">
        <ele>134.4</ele>
        <time>2022-01-15T15:11:58Z</time>
      </trkpt>
      <trkpt lat="44.5096" lon="1.37916">
        <ele>134.3</ele>
        <time>2022-01-15T15:11:59Z</time>
      </trkpt>
      <trkpt lat="44.50956" lon="1.37912">
        <ele>134.2</ele>
        <time>2022-01-15T15:12:00Z</time>
      </trkpt>
      <trkpt lat="44.50952" lon="1.37908">
        <ele>134.2</ele>
        <time>2022-01-15T15:12:01Z</time>
      </trkpt>
      <trkpt lat="44.50948" lon="1.37904">
        <ele>134.1</ele>
        <time>2022-01-15T15:12:02Z</time>
      </trkpt>
      <trkpt lat="44.50943" lon="1.379">
        <ele>134</ele>
        <time>2022-01-15T15:12:03Z</time>
      </trkpt>
      <trkpt lat="44.50939" lon="1.37896">
        <ele>134</ele>
        <time>2022-01-15T15:12:04Z</time>
      </trkpt>
      <trkpt lat="44.50935" lon="1.37892">
        <ele>133.9</ele>
        <time>2022-01-15T15:12:05Z</time>
      </trkpt>
      <trkpt lat="44.5093" lon="1.37887">
        <ele>133.9</ele>
        <time>2022-01-15T15:12:06Z</time>
      </trkpt>
      <trkpt lat="44.50926" lon="1.37883">
        <ele>133.8</ele>
        <time>2022-01-15T15:12:07Z</time>
      </trkpt>
      <trkpt lat="44.50921" lon="1.37879">
        <ele>133.8</ele>
        <time>2022-01-15T15:12:08Z</time>
      </trkpt>
      <trkpt lat="44.50916" lon="1.37874">
        <ele>133.7</ele>
        <time>2022-01-15T15:12:09Z</time>
      </trkpt>
      <trkpt lat="44.50911" lon="1.3787">
        <ele>133.7</ele>
        <time>2022-01-15T15:12:10Z</time>
      </trkpt>
      <trkpt lat="44.50906" lon="1.37864">
        <ele>133.7</ele>
        <time>2022-01-15T15:12:11Z</time>
      </trkpt>
      <trkpt lat="44.50902" lon="1.37859">
        <ele>133.7</ele>
        <time>2022-01-15T15:12:12Z</time>
      </trkpt>
      <trkpt lat="44.50897" lon="1.37854">
        <ele>133.7</ele>
        <time>2022-01-15T15:12:13Z</time>
      </trkpt>
      <trkpt lat="44.50892" lon="1.37849">
        <ele>133.6</ele>
        <time>2022-01-15T15:12:14Z</time>
      </trkpt>
      <trkpt lat="44.50888" lon="1.37843">
        <ele>133.5</ele>
        <time>2022-01-15T15:12:15Z</time>
      </trkpt>
      <trkpt lat="44.50884" lon="1.37837">
        <ele>133.4</ele>
        <time>2022-01-15T15:12:16Z</time>
      </trkpt>
      <trkpt lat="44.50879" lon="1.37831">
        <ele>133.4</ele>
        <time>2022-01-15T15:12:17Z</time>
      </trkpt>
      <trkpt lat="44.50876" lon="1.37825">
        <ele>133.3</ele>
        <time>2022-01-15T15:12:18Z</time>
      </trkpt>
      <trkpt lat="44.50872" lon="1.37819">
        <ele>133.3</ele>
        <time>2022-01-15T15:12:19Z</time>
      </trkpt>
      <trkpt lat="44.50869" lon="1.37814">
        <ele>133.3</ele>
        <time>2022-01-15T15:12:20Z</time>
      </trkpt>
      <trkpt lat="44.50865" lon="1.37807">
        <ele>133.2</ele>
        <time>2022-01-15T15:12:21Z</time>
      </trkpt>
      <trkpt lat="44.50862" lon="1.37801">
        <ele>133.2</ele>
        <time>2022-01-15T15:12:22Z</time>
      </trkpt>
      <trkpt lat="44.50859" lon="1.37795">
        <ele>133.2</ele>
        <time>2022-01-15T15:12:23Z</time>
      </trkpt>
      <trkpt lat="44.50856" lon="1.3779">
        <ele>133.2</ele>
        <time>2022-01-15T15:12:24Z</time>
      </trkpt>
      <trkpt lat="44.50852" lon="1.37784">
        <ele>133.2</ele>
        <time>2022-01-15T15:12:25Z</time>
      </trkpt>
      <trkpt lat="44.50849" lon="1.37777">
        <ele>133.2</ele>
        <time>2022-01-15T15:12:26Z</time>
      </trkpt>
      <trkpt lat="44.50845" lon="1.3777">
        <ele>133.2</ele>
        <time>2022-01-15T15:12:27Z</time>
      </trkpt>
      <trkpt lat="44.50841" lon="1.37763">
        <ele>133.2</ele>
        <time>2022-01-15T15:12:28Z</time>
      </trkpt>
      <trkpt lat="44.50837" lon="1.37757">
        <ele>133.3</ele>
        <time>2022-01-15T15:12:29Z</time>
      </trkpt>
      <trkpt lat="44.50833" lon="1.37749">
        <ele>133.3</ele>
        <time>2022-01-15T15:12:30Z</time>
      </trkpt>
      <trkpt lat="44.50829" lon="1.37742">
        <ele>133.3</ele>
        <time>2022-01-15T15:12:31Z</time>
      </trkpt>
      <trkpt lat="44.50825" lon="1.37735">
        <ele>133.3</ele>
        <time>2022-01-15T15:12:32Z</time>
      </trkpt>
      <trkpt lat="44.50821" lon="1.37728">
        <ele>133.3</ele>
        <time>2022-01-15T15:12:33Z</time>
      </trkpt>
      <trkpt lat="44.50818" lon="1.37722">
        <ele>133.4</ele>
        <time>2022-01-15T15:12:34Z</time>
      </trkpt>
      <trkpt lat="44.50814" lon="1.37716">
        <ele>133.4</ele>
        <time>2022-01-15T15:12:35Z</time>
      </trkpt>
      <trkpt lat="44.50811" lon="1.37709">
        <ele>133.4</ele>
        <time>2022-01-15T15:12:36Z</time>
      </trkpt>
      <trkpt lat="44.50807" lon="1.37703">
        <ele>133.4</ele>
        <time>2022-01-15T15:12:37Z</time>
      </trkpt>
      <trkpt lat="44.50805" lon="1.37696">
        <ele>133.5</ele>
        <time>2022-01-15T15:12:38Z</time>
      </trkpt>
      <trkpt lat="44.50802" lon="1.37689">
        <ele>133.5</ele>
        <time>2022-01-15T15:12:39Z</time>
      </trkpt>
      <trkpt lat="44.50799" lon="1.37683">
        <ele>133.5</ele>
        <time>2022-01-15T15:12:40Z</time>
      </trkpt>
      <trkpt lat="44.50797" lon="1.37677">
        <ele>133.6</ele>
        <time>2022-01-15T15:12:41Z</time>
      </trkpt>
      <trkpt lat="44.50797" lon="1.3767">
        <ele>133.6</ele>
        <time>2022-01-15T15:12:42Z</time>
      </trkpt>
      <trkpt lat="44.50797" lon="1.37664">
        <ele>133.5</ele>
        <time>2022-01-15T15:12:43Z</time>
      </trkpt>
      <trkpt lat="44.50798" lon="1.3766">
        <ele>133.6</ele>
        <time>2022-01-15T15:12:44Z</time>
      </trkpt>
      <trkpt lat="44.50798" lon="1.37655">
        <ele>133.6</ele>
        <time>2022-01-15T15:12:45Z</time>
      </trkpt>
      <trkpt lat="44.50799" lon="1.3765">
        <ele>133.6</ele>
        <time>2022-01-15T15:12:46Z</time>
      </trkpt>
      <trkpt lat="44.50801" lon="1.37646">
        <ele>133.6</ele>
        <time>2022-01-15T15:12:47Z</time>
      </trkpt>
      <trkpt lat="44.50803" lon="1.37642">
        <ele>133.7</ele>
        <time>2022-01-15T15:12:48Z</time>
      </trkpt>
      <trkpt lat="44.50804" lon="1.37641">
        <ele>133.7</ele>
        <time>2022-01-15T15:12:49Z</time>
      </trkpt>
      <trkpt lat="44.50805" lon="1.37639">
        <ele>133.7</ele>
        <time>2022-01-15T15:12:50Z</time>
      </trkpt>
      <trkpt lat="44.50806" lon="1.37638">
        <ele>133.7</ele>
        <time>2022-01-15T15:12:51Z</time>
      </trkpt>
      <trkpt lat="44.50806" lon="1.37636">
        <ele>133.7</ele>
        <time>2022-01-15T15:12:52Z</time>
      </trkpt>
      <trkpt lat="44.50808" lon="1.37634">
        <ele>133.7</ele>
        <time>2022-01-15T15:12:53Z</time>
      </trkpt>
      <trkpt lat="44.50811" lon="1.37634">
        <ele>133.8</ele>
        <time>2022-01-15T15:12:54Z</time>
      </trkpt>
      <trkpt lat="44.50812" lon="1.37634">
        <ele>133.8</ele>
        <time>2022-01-15T15:12:55Z</time>
      </trkpt>
      <trkpt lat="44.50814" lon="1.37631">
        <ele>133.8</ele>
        <time>2022-01-15T15:12:56Z</time>
      </trkpt>
      <trkpt lat="44.50815" lon="1.37626">
        <ele>133.9</ele>
        <time>2022-01-15T15:12:57Z</time>
      </trkpt>
      <trkpt lat="44.50816" lon="1.37622">
        <ele>133.9</ele>
        <time>2022-01-15T15:12:58Z</time>
      </trkpt>
      <trkpt lat="44.50816" lon="1.37617">
        <ele>134</ele>
        <time>2022-01-15T15:13:00Z</time>
      </trkpt>
      <trkpt lat="44.50817" lon="1.37613">
        <ele>134.1</ele>
        <time>2022-01-15T15:13:01Z</time>
      </trkpt>
      <trkpt lat="44.5082" lon="1.37607">
        <ele>134.2</ele>
        <time>2022-01-15T15:13:02Z</time>
      </trkpt>
      <trkpt lat="44.50821" lon="1.37605">
        <ele>134.2</ele>
        <time>2022-01-15T15:13:03Z</time>
      </trkpt>
      <trkpt lat="44.50825" lon="1.376">
        <ele>134.3</ele>
        <time>2022-01-15T15:13:04Z</time>
      </trkpt>
      <trkpt lat="44.50828" lon="1.37597">
        <ele>134.4</ele>
        <time>2022-01-15T15:13:05Z</time>
      </trkpt>
      <trkpt lat="44.5083" lon="1.37594">
        <ele>134.4</ele>
        <time>2022-01-15T15:13:06Z</time>
      </trkpt>
      <trkpt lat="44.50833" lon="1.3759">
        <ele>134.5</ele>
        <time>2022-01-15T15:13:07Z</time>
      </trkpt>
      <trkpt lat="44.50837" lon="1.37583">
        <ele>134.7</ele>
        <time>2022-01-15T15:13:09Z</time>
      </trkpt>
      <trkpt lat="44.50841" lon="1.37579">
        <ele>134.8</ele>
        <time>2022-01-15T15:13:10Z</time>
      </trkpt>
      <trkpt lat="44.50843" lon="1.37576">
        <ele>134.9</ele>
        <time>2022-01-15T15:13:11Z</time>
      </trkpt>
      <trkpt lat="44.50845" lon="1.37573">
        <ele>134.9</ele>
        <time>2022-01-15T15:13:12Z</time>
      </trkpt>
      <trkpt lat="44.50847" lon="1.37569">
        <ele>135</ele>
        <time>2022-01-15T15:13:13Z</time>
      </trkpt>
      <trkpt lat="44.50849" lon="1.37566">
        <ele>135.1</ele>
        <time>2022-01-15T15:13:14Z</time>
      </trkpt>
      <trkpt lat="44.50852" lon="1.37561">
        <ele>135.2</ele>
        <time>2022-01-15T15:13:15Z</time>
      </trkpt>
      <trkpt lat="44.50855" lon="1.37557">
        <ele>135.3</ele>
        <time>2022-01-15T15:13:16Z</time>
      </trkpt>
      <trkpt lat="44.50858" lon="1.37552">
        <ele>135.4</ele>
        <time>2022-01-15T15:13:17Z</time>
      </trkpt>
      <trkpt lat="44.50862" lon="1.37546">
        <ele>135.6</ele>
        <time>2022-01-15T15:13:19Z</time>
      </trkpt>
      <trkpt lat="44.50865" lon="1.37541">
        <ele>135.7</ele>
        <time>2022-01-15T15:13:20Z</time>
      </trkpt>
      <trkpt lat="44.50867" lon="1.37538">
        <ele>135.7</ele>
        <time>2022-01-15T15:13:21Z</time>
      </trkpt>
      <trkpt lat="44.50869" lon="1.37534">
        <ele>135.8</ele>
        <time>2022-01-15T15:13:22Z</time>
      </trkpt>
      <trkpt lat="44.50872" lon="1.37529">
        <ele>135.9</ele>
        <time>2022-01-15T15:13:23Z</time>
      </trkpt>
      <trkpt lat="44.50875" lon="1.37525">
        <ele>136</ele>
        <time>2022-01-15T15:13:25Z</time>
      </trkpt>
      <trkpt lat="44.50879" lon="1.3752">
        <ele>136.2</ele>
        <time>2022-01-15T15:13:26Z</time>
      </trkpt>
      <trkpt lat="44.50881" lon="1.37516">
        <ele>136.2</ele>
        <time>2022-01-15T15:13:27Z</time>
      </trkpt>
      <trkpt lat="44.50884" lon="1.37512">
        <ele>136.3</ele>
        <time>2022-01-15T15:13:28Z</time>
      </trkpt>
      <trkpt lat="44.50887" lon="1.37507">
        <ele>136.4</ele>
        <time>2022-01-15T15:13:29Z</time>
      </trkpt>
      <trkpt lat="44.5089" lon="1.37503">
        <ele>136.6</ele>
        <time>2022-01-15T15:13:30Z</time>
      </trkpt>
      <trkpt lat="44.50893" lon="1.37499">
        <ele>136.7</ele>
        <time>2022-01-15T15:13:31Z</time>
      </trkpt>
      <trkpt lat="44.50898" lon="1.37494">
        <ele>136.8</ele>
        <time>2022-01-15T15:13:33Z</time>
      </trkpt>
      <trkpt lat="44.509" lon="1.3749">
        <ele>136.9</ele>
        <time>2022-01-15T15:13:34Z</time>
      </trkpt>
      <trkpt lat="44.50903" lon="1.37486">
        <ele>137</ele>
        <time>2022-01-15T15:13:35Z</time>
      </trkpt>
      <trkpt lat="44.50905" lon="1.37484">
        <ele>137</ele>
        <time>2022-01-15T15:13:36Z</time>
      </trkpt>
      <trkpt lat="44.50908" lon="1.37481">
        <ele>137.1</ele>
        <time>2022-01-15T15:13:37Z</time>
      </trkpt>
      <trkpt lat="44.5091" lon="1.37478">
        <ele>137.2</ele>
        <time>2022-01-15T15:13:38Z</time>
      </trkpt>
      <trkpt lat="44.50912" lon="1.37474">
        <ele>137.3</ele>
        <time>2022-01-15T15:13:39Z</time>
      </trkpt>
      <trkpt lat="44.50914" lon="1.3747">
        <ele>137.4</ele>
        <time>2022-01-15T15:13:40Z</time>
      </trkpt>
      <trkpt lat="44.50916" lon="1.37466">
        <ele>137.4</ele>
        <time>2022-01-15T15:13:41Z</time>
      </trkpt>
      <trkpt lat="44.50918" lon="1.37463">
        <ele>137.5</ele>
        <time>2022-01-15T15:13:42Z</time>
      </trkpt>
      <trkpt lat="44.50921" lon="1.37459">
        <ele>137.6</ele>
        <time>2022-01-15T15:13:43Z</time>
      </trkpt>
      <trkpt lat="44.50924" lon="1.37456">
        <ele>137.7</ele>
        <time>2022-01-15T15:13:44Z</time>
      </trkpt>
      <trkpt lat="44.50926" lon="1.37452">
        <ele>137.8</ele>
        <time>2022-01-15T15:13:45Z</time>
      </trkpt>
      <trkpt lat="44.50928" lon="1.3745">
        <ele>137.9</ele>
        <time>2022-01-15T15:13:46Z</time>
      </trkpt>
      <trkpt lat="44.50932" lon="1.37445">
        <ele>137.9</ele>
        <time>2022-01-15T15:13:48Z</time>
      </trkpt>
      <trkpt lat="44.50934" lon="1.37443">
        <ele>138</ele>
        <time>2022-01-15T15:13:49Z</time>
      </trkpt>
      <trkpt lat="44.50937" lon="1.37439">
        <ele>138.1</ele>
        <time>2022-01-15T15:13:50Z</time>
      </trkpt>
      <trkpt lat="44.50939" lon="1.37435">
        <ele>138.2</ele>
        <time>2022-01-15T15:13:51Z</time>
      </trkpt>
      <trkpt lat="44.50942" lon="1.37432">
        <ele>138.2</ele>
        <time>2022-01-15T15:13:53Z</time>
      </trkpt>
      <trkpt lat="44.50945" lon="1.37428">
        <ele>138.3</ele>
        <time>2022-01-15T15:13:54Z</time>
      </trkpt>
      <trkpt lat="44.50947" lon="1.37425">
        <ele>138.4</ele>
        <time>2022-01-15T15:13:55Z</time>
      </trkpt>
      <trkpt lat="44.5095" lon="1.3742">
        <ele>138.5</ele>
        <time>2022-01-15T15:13:56Z</time>
      </trkpt>
      <trkpt lat="44.50953" lon="1.37417">
        <ele>138.6</ele>
        <time>2022-01-15T15:13:57Z</time>
      </trkpt>
      <trkpt lat="44.50957" lon="1.37412">
        <ele>138.7</ele>
        <time>2022-01-15T15:13:59Z</time>
      </trkpt>
      <trkpt lat="44.50959" lon="1.37408">
        <ele>138.7</ele>
        <time>2022-01-15T15:14:00Z</time>
      </trkpt>
      <trkpt lat="44.50963" lon="1.37404">
        <ele>138.8</ele>
        <time>2022-01-15T15:14:01Z</time>
      </trkpt>
      <trkpt lat="44.50965" lon="1.37401">
        <ele>138.9</ele>
        <time>2022-01-15T15:14:02Z</time>
      </trkpt>
      <trkpt lat="44.50968" lon="1.37399">
        <ele>139</ele>
        <time>2022-01-15T15:14:03Z</time>
      </trkpt>
      <trkpt lat="44.50972" lon="1.37394">
        <ele>139.1</ele>
        <time>2022-01-15T15:14:05Z</time>
      </trkpt>
      <trkpt lat="44.50974" lon="1.3739">
        <ele>139.2</ele>
        <time>2022-01-15T15:14:06Z</time>
      </trkpt>
      <trkpt lat="44.50976" lon="1.37387">
        <ele>139.2</ele>
        <time>2022-01-15T15:14:07Z</time>
      </trkpt>
      <trkpt lat="44.50979" lon="1.37384">
        <ele>139.3</ele>
        <time>2022-01-15T15:14:08Z</time>
      </trkpt>
      <trkpt lat="44.50982" lon="1.3738">
        <ele>139.4</ele>
        <time>2022-01-15T15:14:09Z</time>
      </trkpt>
      <trkpt lat="44.50984" lon="1.37377">
        <ele>139.5</ele>
        <time>2022-01-15T15:14:10Z</time>
      </trkpt>
      <trkpt lat="44.50987" lon="1.37374">
        <ele>139.6</ele>
        <time>2022-01-15T15:14:11Z</time>
      </trkpt>
      <trkpt lat="44.50989" lon="1.3737">
        <ele>139.7</ele>
        <time>2022-01-15T15:14:12Z</time>
      </trkpt>
      <trkpt lat="44.50993" lon="1.37365">
        <ele>139.8</ele>
        <time>2022-01-15T15:14:14Z</time>
      </trkpt>
      <trkpt lat="44.50994" lon="1.37362">
        <ele>139.8</ele>
        <time>2022-01-15T15:14:15Z</time>
      </trkpt>
      <trkpt lat="44.50996" lon="1.37358">
        <ele>139.9</ele>
        <time>2022-01-15T15:14:16Z</time>
      </trkpt>
      <trkpt lat="44.50999" lon="1.37352">
        <ele>140.1</ele>
        <time>2022-01-15T15:14:17Z</time>
      </trkpt>
      <trkpt lat="44.51002" lon="1.37349">
        <ele>140.2</ele>
        <time>2022-01-15T15:14:18Z</time>
      </trkpt>
      <trkpt lat="44.51005" lon="1.37344">
        <ele>140.3</ele>
        <time>2022-01-15T15:14:20Z</time>
      </trkpt>
      <trkpt lat="44.51009" lon="1.37338">
        <ele>140.4</ele>
        <time>2022-01-15T15:14:21Z</time>
      </trkpt>
      <trkpt lat="44.51011" lon="1.37334">
        <ele>140.5</ele>
        <time>2022-01-15T15:14:22Z</time>
      </trkpt>
      <trkpt lat="44.51013" lon="1.37331">
        <ele>140.5</ele>
        <time>2022-01-15T15:14:23Z</time>
      </trkpt>
      <trkpt lat="44.51016" lon="1.37327">
        <ele>140.6</ele>
        <time>2022-01-15T15:14:24Z</time>
      </trkpt>
      <trkpt lat="44.51018" lon="1.37324">
        <ele>140.7</ele>
        <time>2022-01-15T15:14:25Z</time>
      </trkpt>
      <trkpt lat="44.51021" lon="1.3732">
        <ele>140.7</ele>
        <time>2022-01-15T15:14:26Z</time>
      </trkpt>
      <trkpt lat="44.51024" lon="1.37317">
        <ele>140.8</ele>
        <time>2022-01-15T15:14:27Z</time>
      </trkpt>
      <trkpt lat="44.51027" lon="1.37313">
        <ele>140.8</ele>
        <time>2022-01-15T15:14:28Z</time>
      </trkpt>
      <trkpt lat="44.51029" lon="1.3731">
        <ele>140.9</ele>
        <time>2022-01-15T15:14:29Z</time>
      </trkpt>
      <trkpt lat="44.51032" lon="1.37304">
        <ele>141</ele>
        <time>2022-01-15T15:14:31Z</time>
      </trkpt>
      <trkpt lat="44.51035" lon="1.37301">
        <ele>141.1</ele>
        <time>2022-01-15T15:14:32Z</time>
      </trkpt>
      <trkpt lat="44.51037" lon="1.37298">
        <ele>141.1</ele>
        <time>2022-01-15T15:14:33Z</time>
      </trkpt>
      <trkpt lat="44.5104" lon="1.37293">
        <ele>141.2</ele>
        <time>2022-01-15T15:14:34Z</time>
      </trkpt>
      <trkpt lat="44.51042" lon="1.3729">
        <ele>141.3</ele>
        <time>2022-01-15T15:14:35Z</time>
      </trkpt>
      <trkpt lat="44.51045" lon="1.37286">
        <ele>141.4</ele>
        <time>2022-01-15T15:14:37Z</time>
      </trkpt>
      <trkpt lat="44.51048" lon="1.37282">
        <ele>141.5</ele>
        <time>2022-01-15T15:14:38Z</time>
      </trkpt>
      <trkpt lat="44.5105" lon="1.37279">
        <ele>141.5</ele>
        <time>2022-01-15T15:14:39Z</time>
      </trkpt>
      <trkpt lat="44.51053" lon="1.37275">
        <ele>141.6</ele>
        <time>2022-01-15T15:14:40Z</time>
      </trkpt>
      <trkpt lat="44.51056" lon="1.37271">
        <ele>141.7</ele>
        <time>2022-01-15T15:14:41Z</time>
      </trkpt>
      <trkpt lat="44.51059" lon="1.37267">
        <ele>141.8</ele>
        <time>2022-01-15T15:14:43Z</time>
      </trkpt>
      <trkpt lat="44.51062" lon="1.37264">
        <ele>141.9</ele>
        <time>2022-01-15T15:14:44Z</time>
      </trkpt>
      <trkpt lat="44.51064" lon="1.37261">
        <ele>141.9</ele>
        <time>2022-01-15T15:14:45Z</time>
      </trkpt>
      <trkpt lat="44.51066" lon="1.37257">
        <ele>142</ele>
        <time>2022-01-15T15:14:46Z</time>
      </trkpt>
      <trkpt lat="44.51067" lon="1.37256">
        <ele>142</ele>
        <time>2022-01-15T15:14:47Z</time>
      </trkpt>
      <trkpt lat="44.51068" lon="1.37254">
        <ele>142.1</ele>
        <time>2022-01-15T15:14:48Z</time>
      </trkpt>
      <trkpt lat="44.5107" lon="1.37252">
        <ele>142.1</ele>
        <time>2022-01-15T15:14:50Z</time>
      </trkpt>
      <trkpt lat="44.51069" lon="1.37252">
        <ele>142.1</ele>
        <time>2022-01-15T15:14:51Z</time>
      </trkpt>
      <trkpt lat="44.51069" lon="1.37252">
        <ele>142.2</ele>
        <time>2022-01-15T15:14:52Z</time>
      </trkpt>
      <trkpt lat="44.51069" lon="1.37252">
        <ele>142.2</ele>
        <time>2022-01-15T15:14:53Z</time>
      </trkpt>
      <trkpt lat="44.51069" lon="1.37252">
        <ele>142.2</ele>
        <time>2022-01-15T15:14:54Z</time>
      </trkpt>
      <trkpt lat="44.51069" lon="1.37252">
        <ele>142.2</ele>
        <time>2022-01-15T15:14:55Z</time>
      </trkpt>
      <trkpt lat="44.51069" lon="1.37252">
        <ele>142.2</ele>
        <time>2022-01-15T15:14:56Z</time>
      </trkpt>
      <trkpt lat="44.51069" lon="1.37251">
        <ele>142.2</ele>
        <time>2022-01-15T15:14:57Z</time>
      </trkpt>
      <trkpt lat="44.51069" lon="1.37251">
        <ele>142.2</ele>
        <time>2022-01-15T15:14:58Z</time>
      </trkpt>
      <trkpt lat="44.51069" lon="1.37251">
        <ele>142.2</ele>
        <time>2022-01-15T15:14:59Z</time>
      </trkpt>
      <trkpt lat="44.51068" lon="1.37246">
        <ele>142.3</ele>
        <time>2022-01-15T15:15:01Z</time>
      </trkpt>
      <trkpt lat="44.51068" lon="1.37246">
        <ele>142.3</ele>
        <time>2022-01-15T15:15:01Z</time>
      </trkpt>
      <trkpt lat="44.51069" lon="1.37242">
        <ele>142.3</ele>
        <time>2022-01-15T15:15:02Z</time>
      </trkpt>
      <trkpt lat="44.5107" lon="1.37232">
        <ele>142.6</ele>
        <time>2022-01-15T15:15:03Z</time>
      </trkpt>
      <trkpt lat="44.51069" lon="1.37227">
        <ele>142.6</ele>
        <time>2022-01-15T15:15:04Z</time>
      </trkpt>
      <trkpt lat="44.51067" lon="1.37224">
        <ele>142.5</ele>
        <time>2022-01-15T15:15:05Z</time>
      </trkpt>
      <trkpt lat="44.51064" lon="1.37223">
        <ele>142.5</ele>
        <time>2022-01-15T15:15:07Z</time>
      </trkpt>
      <trkpt lat="44.51062" lon="1.37222">
        <ele>142.5</ele>
        <time>2022-01-15T15:15:08Z</time>
      </trkpt>
      <trkpt lat="44.51061" lon="1.37222">
        <ele>142.5</ele>
        <time>2022-01-15T15:15:09Z</time>
      </trkpt>
      <trkpt lat="44.51059" lon="1.37223">
        <ele>142.5</ele>
        <time>2022-01-15T15:15:10Z</time>
      </trkpt>
      <trkpt lat="44.51058" lon="1.37223">
        <ele>142.5</ele>
        <time>2022-01-15T15:15:11Z</time>
      </trkpt>
      <trkpt lat="44.51058" lon="1.37224">
        <ele>142.5</ele>
        <time>2022-01-15T15:15:12Z</time>
      </trkpt>
      <trkpt lat="44.51055" lon="1.37226">
        <ele>142.5</ele>
        <time>2022-01-15T15:15:13Z</time>
      </trkpt>
      <trkpt lat="44.51051" lon="1.37227">
        <ele>142.5</ele>
        <time>2022-01-15T15:15:15Z</time>
      </trkpt>
      <trkpt lat="44.5105" lon="1.37225">
        <ele>142.5</ele>
        <time>2022-01-15T15:15:16Z</time>
      </trkpt>
      <trkpt lat="44.51049" lon="1.37223">
        <ele>142.5</ele>
        <time>2022-01-15T15:15:18Z</time>
      </trkpt>
      <trkpt lat="44.51049" lon="1.37221">
        <ele>142.6</ele>
        <time>2022-01-15T15:15:19Z</time>
      </trkpt>
      <trkpt lat="44.51048" lon="1.37216">
        <ele>142.6</ele>
        <time>2022-01-15T15:15:20Z</time>
      </trkpt>
      <trkpt lat="44.51048" lon="1.37215">
        <ele>142.6</ele>
        <time>2022-01-15T15:15:21Z</time>
      </trkpt>
      <trkpt lat="44.51045" lon="1.37209">
        <ele>142.6</ele>
        <time>2022-01-15T15:15:23Z</time>
      </trkpt>
      <trkpt lat="44.51044" lon="1.37206">
        <ele>142.6</ele>
        <time>2022-01-15T15:15:24Z</time>
      </trkpt>
      <trkpt lat="44.51044" lon="1.37204">
        <ele>142.6</ele>
        <time>2022-01-15T15:15:25Z</time>
      </trkpt>
      <trkpt lat="44.51043" lon="1.37202">
        <ele>142.6</ele>
        <time>2022-01-15T15:15:27Z</time>
      </trkpt>
      <trkpt lat="44.51044" lon="1.37203">
        <ele>142.6</ele>
        <time>2022-01-15T15:15:28Z</time>
      </trkpt>
      <trkpt lat="44.51044" lon="1.37203">
        <ele>142.6</ele>
        <time>2022-01-15T15:15:29Z</time>
      </trkpt>
      <trkpt lat="44.51044" lon="1.37203">
        <ele>142.6</ele>
        <time>2022-01-15T15:15:30Z</time>
      </trkpt>
      <trkpt lat="44.51044" lon="1.37203">
        <ele>142.6</ele>
        <time>2022-01-15T15:15:31Z</time>
      </trkpt>
      <trkpt lat="44.51044" lon="1.37203">
        <ele>142.6</ele>
        <time>2022-01-15T15:15:32Z</time>
      </trkpt>
      <trkpt lat="44.51044" lon="1.37203">
        <ele>142.6</ele>
        <time>2022-01-15T15:15:34Z</time>
      </trkpt>
      <trkpt lat="44.51044" lon="1.37203">
        <ele>142.6</ele>
        <time>2022-01-15T15:15:35Z</time>
      </trkpt>
      <trkpt lat="44.51047" lon="1.3721">
        <ele>142.6</ele>
        <time>2022-01-15T15:15:38Z</time>
      </trkpt>
      <trkpt lat="44.51048" lon="1.3722">
        <ele>142.6</ele>
        <time>2022-01-15T15:15:40Z</time>
      </trkpt>
      <trkpt lat="44.51047" lon="1.37227">
        <ele>142.7</ele>
        <time>2022-01-15T15:15:41Z</time>
      </trkpt>
      <trkpt lat="44.51043" lon="1.37233">
        <ele>142.7</ele>
        <time>2022-01-15T15:15:42Z</time>
      </trkpt>
      <trkpt lat="44.51038" lon="1.37234">
        <ele>142.8</ele>
        <time>2022-01-15T15:15:44Z</time>
      </trkpt>
      <trkpt lat="44.51032" lon="1.37233">
        <ele>142.8</ele>
        <time>2022-01-15T15:15:45Z</time>
      </trkpt>
      <trkpt lat="44.51028" lon="1.37232">
        <ele>142.9</ele>
        <time>2022-01-15T15:15:47Z</time>
      </trkpt>
      <trkpt lat="44.51024" lon="1.37233">
        <ele>143</ele>
        <time>2022-01-15T15:15:48Z</time>
      </trkpt>
      <trkpt lat="44.51018" lon="1.37233">
        <ele>143.1</ele>
        <time>2022-01-15T15:15:49Z</time>
      </trkpt>
      <trkpt lat="44.51012" lon="1.37233">
        <ele>143.2</ele>
        <time>2022-01-15T15:15:51Z</time>
      </trkpt>
      <trkpt lat="44.51008" lon="1.37233">
        <ele>143.2</ele>
        <time>2022-01-15T15:15:52Z</time>
      </trkpt>
      <trkpt lat="44.51005" lon="1.37232">
        <ele>143.3</ele>
        <time>2022-01-15T15:15:53Z</time>
      </trkpt>
      <trkpt lat="44.51" lon="1.37232">
        <ele>143.3</ele>
        <time>2022-01-15T15:15:54Z</time>
      </trkpt>
      <trkpt lat="44.50994" lon="1.37231">
        <ele>143.4</ele>
        <time>2022-01-15T15:15:56Z</time>
      </trkpt>
      <trkpt lat="44.50989" lon="1.3723">
        <ele>143.5</ele>
        <time>2022-01-15T15:15:57Z</time>
      </trkpt>
      <trkpt lat="44.50986" lon="1.3723">
        <ele>143.6</ele>
        <time>2022-01-15T15:15:58Z</time>
      </trkpt>
      <trkpt lat="44.50982" lon="1.37229">
        <ele>143.6</ele>
        <time>2022-01-15T15:15:59Z</time>
      </trkpt>
      <trkpt lat="44.50978" lon="1.37229">
        <ele>143.6</ele>
        <time>2022-01-15T15:16:00Z</time>
      </trkpt>
      <trkpt lat="44.50974" lon="1.37228">
        <ele>143.7</ele>
        <time>2022-01-15T15:16:01Z</time>
      </trkpt>
      <trkpt lat="44.5097" lon="1.37227">
        <ele>143.7</ele>
        <time>2022-01-15T15:16:02Z</time>
      </trkpt>
      <trkpt lat="44.50966" lon="1.37227">
        <ele>143.8</ele>
        <time>2022-01-15T15:16:03Z</time>
      </trkpt>
      <trkpt lat="44.50963" lon="1.37227">
        <ele>143.8</ele>
        <time>2022-01-15T15:16:04Z</time>
      </trkpt>
      <trkpt lat="44.50958" lon="1.37226">
        <ele>144</ele>
        <time>2022-01-15T15:16:05Z</time>
      </trkpt>
      <trkpt lat="44.5095" lon="1.37225">
        <ele>144.4</ele>
        <time>2022-01-15T15:16:07Z</time>
      </trkpt>
      <trkpt lat="44.50945" lon="1.37225">
        <ele>144.7</ele>
        <time>2022-01-15T15:16:08Z</time>
      </trkpt>
      <trkpt lat="44.50941" lon="1.37225">
        <ele>144.9</ele>
        <time>2022-01-15T15:16:09Z</time>
      </trkpt>
      <trkpt lat="44.50938" lon="1.37225">
        <ele>145.2</ele>
        <time>2022-01-15T15:16:10Z</time>
      </trkpt>
      <trkpt lat="44.50934" lon="1.37225">
        <ele>145.4</ele>
        <time>2022-01-15T15:16:11Z</time>
      </trkpt>
      <trkpt lat="44.50931" lon="1.37225">
        <ele>145.6</ele>
        <time>2022-01-15T15:16:12Z</time>
      </trkpt>
      <trkpt lat="44.50926" lon="1.37222">
        <ele>146</ele>
        <time>2022-01-15T15:16:13Z</time>
      </trkpt>
      <trkpt lat="44.50923" lon="1.3722">
        <ele>146.2</ele>
        <time>2022-01-15T15:16:15Z</time>
      </trkpt>
      <trkpt lat="44.5092" lon="1.37218">
        <ele>146.5</ele>
        <time>2022-01-15T15:16:16Z</time>
      </trkpt>
      <trkpt lat="44.50917" lon="1.37217">
        <ele>146.7</ele>
        <time>2022-01-15T15:16:17Z</time>
      </trkpt>
      <trkpt lat="44.50914" lon="1.37215">
        <ele>146.9</ele>
        <time>2022-01-15T15:16:18Z</time>
      </trkpt>
      <trkpt lat="44.50911" lon="1.37214">
        <ele>147.1</ele>
        <time>2022-01-15T15:16:19Z</time>
      </trkpt>
      <trkpt lat="44.50908" lon="1.37213">
        <ele>147.3</ele>
        <time>2022-01-15T15:16:20Z</time>
      </trkpt>
      <trkpt lat="44.50903" lon="1.37209">
        <ele>147.7</ele>
        <time>2022-01-15T15:16:22Z</time>
      </trkpt>
      <trkpt lat="44.50902" lon="1.37205">
        <ele>147.8</ele>
        <time>2022-01-15T15:16:23Z</time>
      </trkpt>
      <trkpt lat="44.50902" lon="1.37203">
        <ele>147.8</ele>
        <time>2022-01-15T15:16:24Z</time>
      </trkpt>
      <trkpt lat="44.50902" lon="1.37199">
        <ele>147.9</ele>
        <time>2022-01-15T15:16:25Z</time>
      </trkpt>
      <trkpt lat="44.50903" lon="1.37193">
        <ele>148</ele>
        <time>2022-01-15T15:16:26Z</time>
      </trkpt>
      <trkpt lat="44.50903" lon="1.37191">
        <ele>148</ele>
        <time>2022-01-15T15:16:27Z</time>
      </trkpt>
      <trkpt lat="44.50904" lon="1.37187">
        <ele>148.1</ele>
        <time>2022-01-15T15:16:28Z</time>
      </trkpt>
      <trkpt lat="44.50907" lon="1.37179">
        <ele>148.4</ele>
        <time>2022-01-15T15:16:30Z</time>
      </trkpt>
      <trkpt lat="44.50909" lon="1.37175">
        <ele>148.6</ele>
        <time>2022-01-15T15:16:31Z</time>
      </trkpt>
      <trkpt lat="44.50911" lon="1.37172">
        <ele>148.8</ele>
        <time>2022-01-15T15:16:32Z</time>
      </trkpt>
      <trkpt lat="44.50913" lon="1.37168">
        <ele>149</ele>
        <time>2022-01-15T15:16:33Z</time>
      </trkpt>
      <trkpt lat="44.50914" lon="1.37167">
        <ele>149.1</ele>
        <time>2022-01-15T15:16:34Z</time>
      </trkpt>
      <trkpt lat="44.50916" lon="1.37161">
        <ele>149.4</ele>
        <time>2022-01-15T15:16:36Z</time>
      </trkpt>
      <trkpt lat="44.50918" lon="1.37156">
        <ele>149.6</ele>
        <time>2022-01-15T15:16:37Z</time>
      </trkpt>
      <trkpt lat="44.50919" lon="1.37155">
        <ele>149.7</ele>
        <time>2022-01-15T15:16:38Z</time>
      </trkpt>
      <trkpt lat="44.50921" lon="1.3715">
        <ele>149.9</ele>
        <time>2022-01-15T15:16:39Z</time>
      </trkpt>
      <trkpt lat="44.50921" lon="1.37149">
        <ele>150</ele>
        <time>2022-01-15T15:16:40Z</time>
      </trkpt>
      <trkpt lat="44.50922" lon="1.37144">
        <ele>150.2</ele>
        <time>2022-01-15T15:16:41Z</time>
      </trkpt>
      <trkpt lat="44.50922" lon="1.37143">
        <ele>150.3</ele>
        <time>2022-01-15T15:16:42Z</time>
      </trkpt>
      <trkpt lat="44.50924" lon="1.37138">
        <ele>150.5</ele>
        <time>2022-01-15T15:16:43Z</time>
      </trkpt>
      <trkpt lat="44.50925" lon="1.37137">
        <ele>150.6</ele>
        <time>2022-01-15T15:16:44Z</time>
      </trkpt>
      <trkpt lat="44.50927" lon="1.37134">
        <ele>150.8</ele>
        <time>2022-01-15T15:16:45Z</time>
      </trkpt>
      <trkpt lat="44.50927" lon="1.37133">
        <ele>150.9</ele>
        <time>2022-01-15T15:16:46Z</time>
      </trkpt>
      <trkpt lat="44.50928" lon="1.37131">
        <ele>151</ele>
        <time>2022-01-15T15:16:47Z</time>
      </trkpt>
      <trkpt lat="44.5093" lon="1.37127">
        <ele>151.3</ele>
        <time>2022-01-15T15:16:49Z</time>
      </trkpt>
      <trkpt lat="44.50932" lon="1.37123">
        <ele>151.6</ele>
        <time>2022-01-15T15:16:50Z</time>
      </trkpt>
      <trkpt lat="44.50932" lon="1.37122">
        <ele>151.7</ele>
        <time>2022-01-15T15:16:51Z</time>
      </trkpt>
      <trkpt lat="44.50933" lon="1.37117">
        <ele>152</ele>
        <time>2022-01-15T15:16:52Z</time>
      </trkpt>
      <trkpt lat="44.50934" lon="1.37114">
        <ele>152.1</ele>
        <time>2022-01-15T15:16:53Z</time>
      </trkpt>
      <trkpt lat="44.50935" lon="1.37109">
        <ele>152.5</ele>
        <time>2022-01-15T15:16:55Z</time>
      </trkpt>
      <trkpt lat="44.50936" lon="1.37107">
        <ele>152.6</ele>
        <time>2022-01-15T15:16:56Z</time>
      </trkpt>
      <trkpt lat="44.50936" lon="1.37105">
        <ele>152.7</ele>
        <time>2022-01-15T15:16:57Z</time>
      </trkpt>
      <trkpt lat="44.50937" lon="1.37101">
        <ele>152.9</ele>
        <time>2022-01-15T15:16:58Z</time>
      </trkpt>
      <trkpt lat="44.50937" lon="1.37099">
        <ele>153</ele>
        <time>2022-01-15T15:16:59Z</time>
      </trkpt>
      <trkpt lat="44.50939" lon="1.37094">
        <ele>153.4</ele>
        <time>2022-01-15T15:17:01Z</time>
      </trkpt>
      <trkpt lat="44.50939" lon="1.37092">
        <ele>153.5</ele>
        <time>2022-01-15T15:17:02Z</time>
      </trkpt>
      <trkpt lat="44.50939" lon="1.3709">
        <ele>153.6</ele>
        <time>2022-01-15T15:17:03Z</time>
      </trkpt>
      <trkpt lat="44.50941" lon="1.37087">
        <ele>153.8</ele>
        <time>2022-01-15T15:17:04Z</time>
      </trkpt>
      <trkpt lat="44.50941" lon="1.37086">
        <ele>153.9</ele>
        <time>2022-01-15T15:17:05Z</time>
      </trkpt>
      <trkpt lat="44.50942" lon="1.37082">
        <ele>154.1</ele>
        <time>2022-01-15T15:17:06Z</time>
      </trkpt>
      <trkpt lat="44.50943" lon="1.37077">
        <ele>154.4</ele>
        <time>2022-01-15T15:17:08Z</time>
      </trkpt>
      <trkpt lat="44.50943" lon="1.37075">
        <ele>154.6</ele>
        <time>2022-01-15T15:17:09Z</time>
      </trkpt>
      <trkpt lat="44.50944" lon="1.37073">
        <ele>154.7</ele>
        <time>2022-01-15T15:17:10Z</time>
      </trkpt>
      <trkpt lat="44.50944" lon="1.3707">
        <ele>154.9</ele>
        <time>2022-01-15T15:17:11Z</time>
      </trkpt>
      <trkpt lat="44.50945" lon="1.37068">
        <ele>155</ele>
        <time>2022-01-15T15:17:12Z</time>
      </trkpt>
      <trkpt lat="44.50945" lon="1.37066">
        <ele>155.2</ele>
        <time>2022-01-15T15:17:13Z</time>
      </trkpt>
      <trkpt lat="44.50947" lon="1.37062">
        <ele>155.5</ele>
        <time>2022-01-15T15:17:14Z</time>
      </trkpt>
      <trkpt lat="44.50947" lon="1.37061">
        <ele>155.6</ele>
        <time>2022-01-15T15:17:15Z</time>
      </trkpt>
      <trkpt lat="44.50949" lon="1.37057">
        <ele>155.9</ele>
        <time>2022-01-15T15:17:16Z</time>
      </trkpt>
      <trkpt lat="44.50949" lon="1.37056">
        <ele>156</ele>
        <time>2022-01-15T15:17:17Z</time>
      </trkpt>
      <trkpt lat="44.5095" lon="1.37054">
        <ele>156.1</ele>
        <time>2022-01-15T15:17:18Z</time>
      </trkpt>
      <trkpt lat="44.5095" lon="1.37051">
        <ele>156.3</ele>
        <time>2022-01-15T15:17:19Z</time>
      </trkpt>
      <trkpt lat="44.50951" lon="1.37047">
        <ele>156.6</ele>
        <time>2022-01-15T15:17:20Z</time>
      </trkpt>
      <trkpt lat="44.50952" lon="1.37045">
        <ele>156.8</ele>
        <time>2022-01-15T15:17:21Z</time>
      </trkpt>
      <trkpt lat="44.50953" lon="1.37041">
        <ele>157.1</ele>
        <time>2022-01-15T15:17:22Z</time>
      </trkpt>
      <trkpt lat="44.50954" lon="1.37039">
        <ele>157.3</ele>
        <time>2022-01-15T15:17:24Z</time>
      </trkpt>
      <trkpt lat="44.50954" lon="1.37037">
        <ele>157.4</ele>
        <time>2022-01-15T15:17:25Z</time>
      </trkpt>
      <trkpt lat="44.50955" lon="1.37035">
        <ele>157.6</ele>
        <time>2022-01-15T15:17:26Z</time>
      </trkpt>
      <trkpt lat="44.50956" lon="1.37033">
        <ele>157.8</ele>
        <time>2022-01-15T15:17:27Z</time>
      </trkpt>
      <trkpt lat="44.50957" lon="1.3703">
        <ele>158</ele>
        <time>2022-01-15T15:17:28Z</time>
      </trkpt>
      <trkpt lat="44.50958" lon="1.37027">
        <ele>158.3</ele>
        <time>2022-01-15T15:17:29Z</time>
      </trkpt>
      <trkpt lat="44.50958" lon="1.37026">
        <ele>158.4</ele>
        <time>2022-01-15T15:17:30Z</time>
      </trkpt>
      <trkpt lat="44.5096" lon="1.37023">
        <ele>158.6</ele>
        <time>2022-01-15T15:17:31Z</time>
      </trkpt>
      <trkpt lat="44.50961" lon="1.3702">
        <ele>158.9</ele>
        <time>2022-01-15T15:17:33Z</time>
      </trkpt>
      <trkpt lat="44.50962" lon="1.37018">
        <ele>159</ele>
        <time>2022-01-15T15:17:34Z</time>
      </trkpt>
      <trkpt lat="44.50964" lon="1.37016">
        <ele>159.2</ele>
        <time>2022-01-15T15:17:35Z</time>
      </trkpt>
      <trkpt lat="44.50966" lon="1.37013">
        <ele>159.5</ele>
        <time>2022-01-15T15:17:36Z</time>
      </trkpt>
      <trkpt lat="44.50966" lon="1.37012">
        <ele>159.6</ele>
        <time>2022-01-15T15:17:37Z</time>
      </trkpt>
      <trkpt lat="44.50967" lon="1.37008">
        <ele>159.9</ele>
        <time>2022-01-15T15:17:38Z</time>
      </trkpt>
      <trkpt lat="44.50969" lon="1.37003">
        <ele>160.3</ele>
        <time>2022-01-15T15:17:40Z</time>
      </trkpt>
      <trkpt lat="44.50969" lon="1.37002">
        <ele>160.4</ele>
        <time>2022-01-15T15:17:41Z</time>
      </trkpt>
      <trkpt lat="44.50971" lon="1.36998">
        <ele>160.7</ele>
        <time>2022-01-15T15:17:43Z</time>
      </trkpt>
      <trkpt lat="44.50971" lon="1.36996">
        <ele>160.8</ele>
        <time>2022-01-15T15:17:44Z</time>
      </trkpt>
      <trkpt lat="44.50972" lon="1.36995">
        <ele>160.9</ele>
        <time>2022-01-15T15:17:45Z</time>
      </trkpt>
      <trkpt lat="44.50973" lon="1.36993">
        <ele>161.1</ele>
        <time>2022-01-15T15:17:46Z</time>
      </trkpt>
      <trkpt lat="44.50974" lon="1.36991">
        <ele>161.2</ele>
        <time>2022-01-15T15:17:47Z</time>
      </trkpt>
      <trkpt lat="44.50974" lon="1.3699">
        <ele>161.4</ele>
        <time>2022-01-15T15:17:48Z</time>
      </trkpt>
      <trkpt lat="44.50976" lon="1.36988">
        <ele>161.6</ele>
        <time>2022-01-15T15:17:49Z</time>
      </trkpt>
      <trkpt lat="44.50976" lon="1.36986">
        <ele>161.7</ele>
        <time>2022-01-15T15:17:50Z</time>
      </trkpt>
      <trkpt lat="44.50977" lon="1.36985">
        <ele>161.8</ele>
        <time>2022-01-15T15:17:51Z</time>
      </trkpt>
      <trkpt lat="44.50979" lon="1.36982">
        <ele>162.1</ele>
        <time>2022-01-15T15:17:53Z</time>
      </trkpt>
      <trkpt lat="44.50979" lon="1.3698">
        <ele>162.2</ele>
        <time>2022-01-15T15:17:54Z</time>
      </trkpt>
      <trkpt lat="44.50979" lon="1.36979">
        <ele>162.4</ele>
        <time>2022-01-15T15:17:55Z</time>
      </trkpt>
      <trkpt lat="44.50978" lon="1.36978">
        <ele>162.4</ele>
        <time>2022-01-15T15:17:57Z</time>
      </trkpt>
      <trkpt lat="44.50978" lon="1.36978">
        <ele>162.5</ele>
        <time>2022-01-15T15:17:58Z</time>
      </trkpt>
      <trkpt lat="44.50979" lon="1.36974">
        <ele>162.9</ele>
        <time>2022-01-15T15:18:00Z</time>
      </trkpt>
      <trkpt lat="44.50981" lon="1.36972">
        <ele>163.1</ele>
        <time>2022-01-15T15:18:01Z</time>
      </trkpt>
      <trkpt lat="44.50981" lon="1.3697">
        <ele>163.4</ele>
        <time>2022-01-15T15:18:02Z</time>
      </trkpt>
      <trkpt lat="44.50982" lon="1.36968">
        <ele>163.6</ele>
        <time>2022-01-15T15:18:03Z</time>
      </trkpt>
      <trkpt lat="44.50983" lon="1.36966">
        <ele>163.8</ele>
        <time>2022-01-15T15:18:04Z</time>
      </trkpt>
      <trkpt lat="44.50983" lon="1.36965">
        <ele>164</ele>
        <time>2022-01-15T15:18:05Z</time>
      </trkpt>
      <trkpt lat="44.50983" lon="1.36964">
        <ele>164</ele>
        <time>2022-01-15T15:18:06Z</time>
      </trkpt>
      <trkpt lat="44.50983" lon="1.36964">
        <ele>164.1</ele>
        <time>2022-01-15T15:18:08Z</time>
      </trkpt>
      <trkpt lat="44.50983" lon="1.36964">
        <ele>164.1</ele>
        <time>2022-01-15T15:18:09Z</time>
      </trkpt>
      <trkpt lat="44.50984" lon="1.36962">
        <ele>164.3</ele>
        <time>2022-01-15T15:18:10Z</time>
      </trkpt>
      <trkpt lat="44.50984" lon="1.36961">
        <ele>164.5</ele>
        <time>2022-01-15T15:18:11Z</time>
      </trkpt>
      <trkpt lat="44.50985" lon="1.36961">
        <ele>164.6</ele>
        <time>2022-01-15T15:18:12Z</time>
      </trkpt>
      <trkpt lat="44.50985" lon="1.3696">
        <ele>164.7</ele>
        <time>2022-01-15T15:18:13Z</time>
      </trkpt>
      <trkpt lat="44.50985" lon="1.36959">
        <ele>164.8</ele>
        <time>2022-01-15T15:18:14Z</time>
      </trkpt>
      <trkpt lat="44.50986" lon="1.36958">
        <ele>164.9</ele>
        <time>2022-01-15T15:18:15Z</time>
      </trkpt>
      <trkpt lat="44.50986" lon="1.36957">
        <ele>165</ele>
        <time>2022-01-15T15:18:16Z</time>
      </trkpt>
      <trkpt lat="44.50986" lon="1.36957">
        <ele>165.1</ele>
        <time>2022-01-15T15:18:18Z</time>
      </trkpt>
      <trkpt lat="44.50986" lon="1.36957">
        <ele>165.1</ele>
        <time>2022-01-15T15:18:19Z</time>
      </trkpt>
      <trkpt lat="44.50986" lon="1.36956">
        <ele>165.2</ele>
        <time>2022-01-15T15:18:21Z</time>
      </trkpt>
      <trkpt lat="44.50993" lon="1.36937">
        <ele>167.7</ele>
        <time>2022-01-15T15:18:33Z</time>
      </trkpt>
      <trkpt lat="44.50994" lon="1.36935">
        <ele>167.9</ele>
        <time>2022-01-15T15:18:34Z</time>
      </trkpt>
      <trkpt lat="44.50995" lon="1.36933">
        <ele>168.2</ele>
        <time>2022-01-15T15:18:36Z</time>
      </trkpt>
      <trkpt lat="44.50996" lon="1.36931">
        <ele>168.4</ele>
        <time>2022-01-15T15:18:37Z</time>
      </trkpt>
      <trkpt lat="44.50997" lon="1.3693">
        <ele>168.6</ele>
        <time>2022-01-15T15:18:38Z</time>
      </trkpt>
      <trkpt lat="44.50997" lon="1.36929">
        <ele>168.7</ele>
        <time>2022-01-15T15:18:39Z</time>
      </trkpt>
      <trkpt lat="44.50998" lon="1.36927">
        <ele>168.8</ele>
        <time>2022-01-15T15:18:41Z</time>
      </trkpt>
      <trkpt lat="44.50999" lon="1.36926">
        <ele>169</ele>
        <time>2022-01-15T15:18:42Z</time>
      </trkpt>
      <trkpt lat="44.51" lon="1.36924">
        <ele>169.1</ele>
        <time>2022-01-15T15:18:44Z</time>
      </trkpt>
      <trkpt lat="44.51" lon="1.36923">
        <ele>169.3</ele>
        <time>2022-01-15T15:18:45Z</time>
      </trkpt>
      <trkpt lat="44.51001" lon="1.36922">
        <ele>169.4</ele>
        <time>2022-01-15T15:18:47Z</time>
      </trkpt>
      <trkpt lat="44.51002" lon="1.3692">
        <ele>169.7</ele>
        <time>2022-01-15T15:18:48Z</time>
      </trkpt>
      <trkpt lat="44.51003" lon="1.36918">
        <ele>169.9</ele>
        <time>2022-01-15T15:18:49Z</time>
      </trkpt>
      <trkpt lat="44.51005" lon="1.36914">
        <ele>170.2</ele>
        <time>2022-01-15T15:18:51Z</time>
      </trkpt>
      <trkpt lat="44.51006" lon="1.36913">
        <ele>170.4</ele>
        <time>2022-01-15T15:18:52Z</time>
      </trkpt>
      <trkpt lat="44.51008" lon="1.3691">
        <ele>170.8</ele>
        <time>2022-01-15T15:18:53Z</time>
      </trkpt>
      <trkpt lat="44.51008" lon="1.36908">
        <ele>170.9</ele>
        <time>2022-01-15T15:18:54Z</time>
      </trkpt>
      <trkpt lat="44.51009" lon="1.36907">
        <ele>171.1</ele>
        <time>2022-01-15T15:18:56Z</time>
      </trkpt>
      <trkpt lat="44.5101" lon="1.36905">
        <ele>171.3</ele>
        <time>2022-01-15T15:18:57Z</time>
      </trkpt>
      <trkpt lat="44.5101" lon="1.36903">
        <ele>171.5</ele>
        <time>2022-01-15T15:18:58Z</time>
      </trkpt>
      <trkpt lat="44.51011" lon="1.36902">
        <ele>171.6</ele>
        <time>2022-01-15T15:18:59Z</time>
      </trkpt>
      <trkpt lat="44.51011" lon="1.36901">
        <ele>171.7</ele>
        <time>2022-01-15T15:19:00Z</time>
      </trkpt>
      <trkpt lat="44.51011" lon="1.369">
        <ele>171.8</ele>
        <time>2022-01-15T15:19:01Z</time>
      </trkpt>
      <trkpt lat="44.51011" lon="1.369">
        <ele>171.9</ele>
        <time>2022-01-15T15:19:02Z</time>
      </trkpt>
      <trkpt lat="44.51012" lon="1.36897">
        <ele>172.2</ele>
        <time>2022-01-15T15:19:04Z</time>
      </trkpt>
      <trkpt lat="44.51012" lon="1.36896">
        <ele>172.3</ele>
        <time>2022-01-15T15:19:05Z</time>
      </trkpt>
      <trkpt lat="44.51012" lon="1.36895">
        <ele>172.4</ele>
        <time>2022-01-15T15:19:06Z</time>
      </trkpt>
      <trkpt lat="44.51012" lon="1.36894">
        <ele>172.5</ele>
        <time>2022-01-15T15:19:07Z</time>
      </trkpt>
      <trkpt lat="44.51013" lon="1.36893">
        <ele>172.6</ele>
        <time>2022-01-15T15:19:08Z</time>
      </trkpt>
      <trkpt lat="44.51013" lon="1.36892">
        <ele>172.7</ele>
        <time>2022-01-15T15:19:09Z</time>
      </trkpt>
      <trkpt lat="44.51013" lon="1.36892">
        <ele>172.8</ele>
        <time>2022-01-15T15:19:11Z</time>
      </trkpt>
      <trkpt lat="44.51013" lon="1.36892">
        <ele>172.8</ele>
        <time>2022-01-15T15:19:12Z</time>
      </trkpt>
      <trkpt lat="44.51018" lon="1.36883">
        <ele>174</ele>
        <time>2022-01-15T15:19:19Z</time>
      </trkpt>
      <trkpt lat="44.51019" lon="1.36879">
        <ele>174.6</ele>
        <time>2022-01-15T15:19:20Z</time>
      </trkpt>
      <trkpt lat="44.51021" lon="1.36875">
        <ele>175.1</ele>
        <time>2022-01-15T15:19:21Z</time>
      </trkpt>
      <trkpt lat="44.51021" lon="1.36873">
        <ele>175.3</ele>
        <time>2022-01-15T15:19:22Z</time>
      </trkpt>
      <trkpt lat="44.51022" lon="1.36872">
        <ele>175.5</ele>
        <time>2022-01-15T15:19:24Z</time>
      </trkpt>
      <trkpt lat="44.51022" lon="1.36872">
        <ele>175.6</ele>
        <time>2022-01-15T15:19:25Z</time>
      </trkpt>
      <trkpt lat="44.51023" lon="1.36872">
        <ele>175.6</ele>
        <time>2022-01-15T15:19:26Z</time>
      </trkpt>
      <trkpt lat="44.51024" lon="1.3687">
        <ele>175.9</ele>
        <time>2022-01-15T15:19:28Z</time>
      </trkpt>
      <trkpt lat="44.51024" lon="1.36869">
        <ele>176</ele>
        <time>2022-01-15T15:19:29Z</time>
      </trkpt>
      <trkpt lat="44.51025" lon="1.36868">
        <ele>176.2</ele>
        <time>2022-01-15T15:19:30Z</time>
      </trkpt>
      <trkpt lat="44.51026" lon="1.36867">
        <ele>176.4</ele>
        <time>2022-01-15T15:19:31Z</time>
      </trkpt>
      <trkpt lat="44.51027" lon="1.36863">
        <ele>176.9</ele>
        <time>2022-01-15T15:19:32Z</time>
      </trkpt>
      <trkpt lat="44.51027" lon="1.36862">
        <ele>177.1</ele>
        <time>2022-01-15T15:19:33Z</time>
      </trkpt>
      <trkpt lat="44.51029" lon="1.36859">
        <ele>177.5</ele>
        <time>2022-01-15T15:19:34Z</time>
      </trkpt>
      <trkpt lat="44.5103" lon="1.36858">
        <ele>177.6</ele>
        <time>2022-01-15T15:19:35Z</time>
      </trkpt>
      <trkpt lat="44.51031" lon="1.36857">
        <ele>177.8</ele>
        <time>2022-01-15T15:19:37Z</time>
      </trkpt>
      <trkpt lat="44.51031" lon="1.36856">
        <ele>178</ele>
        <time>2022-01-15T15:19:38Z</time>
      </trkpt>
      <trkpt lat="44.51032" lon="1.36855">
        <ele>178.2</ele>
        <time>2022-01-15T15:19:39Z</time>
      </trkpt>
      <trkpt lat="44.51033" lon="1.36854">
        <ele>178.4</ele>
        <time>2022-01-15T15:19:40Z</time>
      </trkpt>
      <trkpt lat="44.51034" lon="1.36853">
        <ele>178.5</ele>
        <time>2022-01-15T15:19:41Z</time>
      </trkpt>
      <trkpt lat="44.51035" lon="1.36852">
        <ele>178.7</ele>
        <time>2022-01-15T15:19:43Z</time>
      </trkpt>
      <trkpt lat="44.51036" lon="1.36851">
        <ele>178.9</ele>
        <time>2022-01-15T15:19:44Z</time>
      </trkpt>
      <trkpt lat="44.51036" lon="1.3685">
        <ele>179.1</ele>
        <time>2022-01-15T15:19:47Z</time>
      </trkpt>
      <trkpt lat="44.51037" lon="1.36849">
        <ele>179.2</ele>
        <time>2022-01-15T15:19:48Z</time>
      </trkpt>
      <trkpt lat="44.51039" lon="1.36847">
        <ele>179.7</ele>
        <time>2022-01-15T15:19:50Z</time>
      </trkpt>
      <trkpt lat="44.5104" lon="1.36847">
        <ele>179.8</ele>
        <time>2022-01-15T15:19:51Z</time>
      </trkpt>
      <trkpt lat="44.5104" lon="1.36846">
        <ele>179.9</ele>
        <time>2022-01-15T15:19:52Z</time>
      </trkpt>
      <trkpt lat="44.5104" lon="1.36846">
        <ele>179.9</ele>
        <time>2022-01-15T15:19:53Z</time>
      </trkpt>
      <trkpt lat="44.51041" lon="1.36846">
        <ele>179.9</ele>
        <time>2022-01-15T15:19:54Z</time>
      </trkpt>
      <trkpt lat="44.51041" lon="1.36846">
        <ele>179.9</ele>
        <time>2022-01-15T15:19:55Z</time>
      </trkpt>
      <trkpt lat="44.51041" lon="1.36846">
        <ele>179.9</ele>
        <time>2022-01-15T15:19:56Z</time>
      </trkpt>
      <trkpt lat="44.51041" lon="1.36846">
        <ele>179.9</ele>
        <time>2022-01-15T15:19:57Z</time>
      </trkpt>
      <trkpt lat="44.51043" lon="1.36844">
        <ele>180.4</ele>
        <time>2022-01-15T15:19:58Z</time>
      </trkpt>
      <trkpt lat="44.51046" lon="1.3684">
        <ele>181.1</ele>
        <time>2022-01-15T15:19:59Z</time>
      </trkpt>
      <trkpt lat="44.51049" lon="1.36838">
        <ele>181.7</ele>
        <time>2022-01-15T15:20:01Z</time>
      </trkpt>
      <trkpt lat="44.51049" lon="1.36837">
        <ele>181.8</ele>
        <time>2022-01-15T15:20:02Z</time>
      </trkpt>
      <trkpt lat="44.51051" lon="1.36836">
        <ele>182.3</ele>
        <time>2022-01-15T15:20:03Z</time>
      </trkpt>
      <trkpt lat="44.51052" lon="1.36836">
        <ele>182.4</ele>
        <time>2022-01-15T15:20:04Z</time>
      </trkpt>
      <trkpt lat="44.51053" lon="1.36835">
        <ele>182.6</ele>
        <time>2022-01-15T15:20:05Z</time>
      </trkpt>
      <trkpt lat="44.51054" lon="1.36835">
        <ele>182.8</ele>
        <time>2022-01-15T15:20:06Z</time>
      </trkpt>
      <trkpt lat="44.51055" lon="1.36835">
        <ele>182.9</ele>
        <time>2022-01-15T15:20:07Z</time>
      </trkpt>
      <trkpt lat="44.51055" lon="1.36834">
        <ele>183.1</ele>
        <time>2022-01-15T15:20:08Z</time>
      </trkpt>
      <trkpt lat="44.51056" lon="1.36834">
        <ele>183.2</ele>
        <time>2022-01-15T15:20:09Z</time>
      </trkpt>
      <trkpt lat="44.51058" lon="1.36833">
        <ele>183.5</ele>
        <time>2022-01-15T15:20:10Z</time>
      </trkpt>
      <trkpt lat="44.51059" lon="1.36833">
        <ele>183.8</ele>
        <time>2022-01-15T15:20:11Z</time>
      </trkpt>
      <trkpt lat="44.51061" lon="1.36833">
        <ele>184.1</ele>
        <time>2022-01-15T15:20:13Z</time>
      </trkpt>
      <trkpt lat="44.51062" lon="1.36833">
        <ele>184.3</ele>
        <time>2022-01-15T15:20:14Z</time>
      </trkpt>
      <trkpt lat="44.51062" lon="1.36832">
        <ele>184.4</ele>
        <time>2022-01-15T15:20:15Z</time>
      </trkpt>
      <trkpt lat="44.51063" lon="1.36832">
        <ele>184.6</ele>
        <time>2022-01-15T15:20:16Z</time>
      </trkpt>
      <trkpt lat="44.51064" lon="1.36833">
        <ele>184.7</ele>
        <time>2022-01-15T15:20:17Z</time>
      </trkpt>
      <trkpt lat="44.51064" lon="1.36833">
        <ele>184.8</ele>
        <time>2022-01-15T15:20:18Z</time>
      </trkpt>
      <trkpt lat="44.51065" lon="1.36833">
        <ele>184.9</ele>
        <time>2022-01-15T15:20:19Z</time>
      </trkpt>
      <trkpt lat="44.51066" lon="1.36834">
        <ele>185</ele>
        <time>2022-01-15T15:20:20Z</time>
      </trkpt>
      <trkpt lat="44.51066" lon="1.36834">
        <ele>185.2</ele>
        <time>2022-01-15T15:20:21Z</time>
      </trkpt>
      <trkpt lat="44.5107" lon="1.36834">
        <ele>185.9</ele>
        <time>2022-01-15T15:20:22Z</time>
      </trkpt>
      <trkpt lat="44.51072" lon="1.36833">
        <ele>186.1</ele>
        <time>2022-01-15T15:20:23Z</time>
      </trkpt>
      <trkpt lat="44.51075" lon="1.36833">
        <ele>186.5</ele>
        <time>2022-01-15T15:20:24Z</time>
      </trkpt>
      <trkpt lat="44.51078" lon="1.36832">
        <ele>187</ele>
        <time>2022-01-15T15:20:26Z</time>
      </trkpt>
      <trkpt lat="44.5108" lon="1.36832">
        <ele>187.4</ele>
        <time>2022-01-15T15:20:27Z</time>
      </trkpt>
      <trkpt lat="44.51081" lon="1.36831">
        <ele>187.5</ele>
        <time>2022-01-15T15:20:28Z</time>
      </trkpt>
      <trkpt lat="44.51081" lon="1.3683">
        <ele>187.7</ele>
        <time>2022-01-15T15:20:29Z</time>
      </trkpt>
      <trkpt lat="44.51081" lon="1.36829">
        <ele>187.8</ele>
        <time>2022-01-15T15:20:30Z</time>
      </trkpt>
      <trkpt lat="44.51082" lon="1.36828">
        <ele>187.9</ele>
        <time>2022-01-15T15:20:31Z</time>
      </trkpt>
      <trkpt lat="44.51082" lon="1.36827">
        <ele>188</ele>
        <time>2022-01-15T15:20:32Z</time>
      </trkpt>
      <trkpt lat="44.51084" lon="1.36826">
        <ele>188.3</ele>
        <time>2022-01-15T15:20:33Z</time>
      </trkpt>
      <trkpt lat="44.51085" lon="1.36826">
        <ele>188.5</ele>
        <time>2022-01-15T15:20:34Z</time>
      </trkpt>
      <trkpt lat="44.51086" lon="1.36825">
        <ele>188.8</ele>
        <time>2022-01-15T15:20:36Z</time>
      </trkpt>
      <trkpt lat="44.51088" lon="1.36824">
        <ele>189</ele>
        <time>2022-01-15T15:20:37Z</time>
      </trkpt>
      <trkpt lat="44.51089" lon="1.36824">
        <ele>189.3</ele>
        <time>2022-01-15T15:20:39Z</time>
      </trkpt>
      <trkpt lat="44.5109" lon="1.36823">
        <ele>189.5</ele>
        <time>2022-01-15T15:20:40Z</time>
      </trkpt>
      <trkpt lat="44.51092" lon="1.36822">
        <ele>189.8</ele>
        <time>2022-01-15T15:20:41Z</time>
      </trkpt>
      <trkpt lat="44.51093" lon="1.36822">
        <ele>189.9</ele>
        <time>2022-01-15T15:20:42Z</time>
      </trkpt>
      <trkpt lat="44.51094" lon="1.36821">
        <ele>190.1</ele>
        <time>2022-01-15T15:20:43Z</time>
      </trkpt>
      <trkpt lat="44.51094" lon="1.3682">
        <ele>190.2</ele>
        <time>2022-01-15T15:20:44Z</time>
      </trkpt>
      <trkpt lat="44.51095" lon="1.3682">
        <ele>190.3</ele>
        <time>2022-01-15T15:20:45Z</time>
      </trkpt>
      <trkpt lat="44.51095" lon="1.36819">
        <ele>190.4</ele>
        <time>2022-01-15T15:20:47Z</time>
      </trkpt>
      <trkpt lat="44.51096" lon="1.36819">
        <ele>190.5</ele>
        <time>2022-01-15T15:20:48Z</time>
      </trkpt>
      <trkpt lat="44.51096" lon="1.36819">
        <ele>190.5</ele>
        <time>2022-01-15T15:20:49Z</time>
      </trkpt>
      <trkpt lat="44.51097" lon="1.36818">
        <ele>190.6</ele>
        <time>2022-01-15T15:20:50Z</time>
      </trkpt>
      <trkpt lat="44.51097" lon="1.36818">
        <ele>190.7</ele>
        <time>2022-01-15T15:20:52Z</time>
      </trkpt>
      <trkpt lat="44.51097" lon="1.36817">
        <ele>190.8</ele>
        <time>2022-01-15T15:20:53Z</time>
      </trkpt>
      <trkpt lat="44.51102" lon="1.36813">
        <ele>191.6</ele>
        <time>2022-01-15T15:20:54Z</time>
      </trkpt>
      <trkpt lat="44.51105" lon="1.36811">
        <ele>192.1</ele>
        <time>2022-01-15T15:20:55Z</time>
      </trkpt>
      <trkpt lat="44.51105" lon="1.3681">
        <ele>192.2</ele>
        <time>2022-01-15T15:20:56Z</time>
      </trkpt>
      <trkpt lat="44.51107" lon="1.36808">
        <ele>192.5</ele>
        <time>2022-01-15T15:20:57Z</time>
      </trkpt>
      <trkpt lat="44.51109" lon="1.36806">
        <ele>192.9</ele>
        <time>2022-01-15T15:20:59Z</time>
      </trkpt>
      <trkpt lat="44.51111" lon="1.36805">
        <ele>193.1</ele>
        <time>2022-01-15T15:21:00Z</time>
      </trkpt>
      <trkpt lat="44.51112" lon="1.36804">
        <ele>193.2</ele>
        <time>2022-01-15T15:21:01Z</time>
      </trkpt>
      <trkpt lat="44.51113" lon="1.36804">
        <ele>193.4</ele>
        <time>2022-01-15T15:21:02Z</time>
      </trkpt>
      <trkpt lat="44.51113" lon="1.36803">
        <ele>193.5</ele>
        <time>2022-01-15T15:21:03Z</time>
      </trkpt>
      <trkpt lat="44.51114" lon="1.36802">
        <ele>193.6</ele>
        <time>2022-01-15T15:21:04Z</time>
      </trkpt>
      <trkpt lat="44.51115" lon="1.36802">
        <ele>193.7</ele>
        <time>2022-01-15T15:21:05Z</time>
      </trkpt>
      <trkpt lat="44.51116" lon="1.36801">
        <ele>193.8</ele>
        <time>2022-01-15T15:21:06Z</time>
      </trkpt>
      <trkpt lat="44.51116" lon="1.36801">
        <ele>193.9</ele>
        <time>2022-01-15T15:21:07Z</time>
      </trkpt>
      <trkpt lat="44.51117" lon="1.36801">
        <ele>194</ele>
        <time>2022-01-15T15:21:08Z</time>
      </trkpt>
      <trkpt lat="44.51118" lon="1.36799">
        <ele>194.2</ele>
        <time>2022-01-15T15:21:09Z</time>
      </trkpt>
      <trkpt lat="44.5112" lon="1.36798">
        <ele>194.5</ele>
        <time>2022-01-15T15:21:11Z</time>
      </trkpt>
      <trkpt lat="44.5112" lon="1.36797">
        <ele>194.6</ele>
        <time>2022-01-15T15:21:12Z</time>
      </trkpt>
      <trkpt lat="44.51121" lon="1.36797">
        <ele>194.6</ele>
        <time>2022-01-15T15:21:13Z</time>
      </trkpt>
      <trkpt lat="44.51121" lon="1.36797">
        <ele>194.7</ele>
        <time>2022-01-15T15:21:14Z</time>
      </trkpt>
      <trkpt lat="44.51122" lon="1.36797">
        <ele>194.8</ele>
        <time>2022-01-15T15:21:15Z</time>
      </trkpt>
      <trkpt lat="44.51122" lon="1.36797">
        <ele>194.8</ele>
        <time>2022-01-15T15:21:16Z</time>
      </trkpt>
      <trkpt lat="44.51122" lon="1.36796">
        <ele>194.9</ele>
        <time>2022-01-15T15:21:18Z</time>
      </trkpt>
      <trkpt lat="44.51123" lon="1.36796">
        <ele>194.9</ele>
        <time>2022-01-15T15:21:19Z</time>
      </trkpt>
      <trkpt lat="44.51123" lon="1.36794">
        <ele>195.1</ele>
        <time>2022-01-15T15:21:23Z</time>
      </trkpt>
      <trkpt lat="44.51124" lon="1.36792">
        <ele>195.4</ele>
        <time>2022-01-15T15:21:25Z</time>
      </trkpt>
      <trkpt lat="44.51125" lon="1.36791">
        <ele>195.5</ele>
        <time>2022-01-15T15:21:26Z</time>
      </trkpt>
      <trkpt lat="44.51125" lon="1.36791">
        <ele>195.6</ele>
        <time>2022-01-15T15:21:27Z</time>
      </trkpt>
      <trkpt lat="44.51129" lon="1.36789">
        <ele>196.2</ele>
        <time>2022-01-15T15:21:28Z</time>
      </trkpt>
      <trkpt lat="44.5113" lon="1.36788">
        <ele>196.6</ele>
        <time>2022-01-15T15:21:29Z</time>
      </trkpt>
      <trkpt lat="44.51132" lon="1.36785">
        <ele>197</ele>
        <time>2022-01-15T15:21:31Z</time>
      </trkpt>
      <trkpt lat="44.51133" lon="1.36784">
        <ele>197.2</ele>
        <time>2022-01-15T15:21:32Z</time>
      </trkpt>
      <trkpt lat="44.51134" lon="1.36784">
        <ele>197.4</ele>
        <time>2022-01-15T15:21:33Z</time>
      </trkpt>
      <trkpt lat="44.51135" lon="1.36783">
        <ele>197.7</ele>
        <time>2022-01-15T15:21:34Z</time>
      </trkpt>
      <trkpt lat="44.51136" lon="1.36782">
        <ele>197.8</ele>
        <time>2022-01-15T15:21:35Z</time>
      </trkpt>
      <trkpt lat="44.51137" lon="1.36781">
        <ele>198</ele>
        <time>2022-01-15T15:21:36Z</time>
      </trkpt>
      <trkpt lat="44.51137" lon="1.3678">
        <ele>198.2</ele>
        <time>2022-01-15T15:21:37Z</time>
      </trkpt>
      <trkpt lat="44.51138" lon="1.36779">
        <ele>198.4</ele>
        <time>2022-01-15T15:21:38Z</time>
      </trkpt>
      <trkpt lat="44.51139" lon="1.36777">
        <ele>198.6</ele>
        <time>2022-01-15T15:21:39Z</time>
      </trkpt>
      <trkpt lat="44.51139" lon="1.36775">
        <ele>198.8</ele>
        <time>2022-01-15T15:21:40Z</time>
      </trkpt>
      <trkpt lat="44.51142" lon="1.36774">
        <ele>199.2</ele>
        <time>2022-01-15T15:21:41Z</time>
      </trkpt>
      <trkpt lat="44.51143" lon="1.36772">
        <ele>199.6</ele>
        <time>2022-01-15T15:21:43Z</time>
      </trkpt>
      <trkpt lat="44.51145" lon="1.36768">
        <ele>200</ele>
        <time>2022-01-15T15:21:44Z</time>
      </trkpt>
      <trkpt lat="44.51146" lon="1.36766">
        <ele>200.3</ele>
        <time>2022-01-15T15:21:45Z</time>
      </trkpt>
      <trkpt lat="44.51149" lon="1.36762">
        <ele>200.9</ele>
        <time>2022-01-15T15:21:47Z</time>
      </trkpt>
      <trkpt lat="44.51151" lon="1.36761">
        <ele>201.3</ele>
        <time>2022-01-15T15:21:48Z</time>
      </trkpt>
      <trkpt lat="44.51152" lon="1.3676">
        <ele>201.5</ele>
        <time>2022-01-15T15:21:49Z</time>
      </trkpt>
      <trkpt lat="44.51153" lon="1.36758">
        <ele>201.7</ele>
        <time>2022-01-15T15:21:50Z</time>
      </trkpt>
      <trkpt lat="44.51154" lon="1.36758">
        <ele>201.9</ele>
        <time>2022-01-15T15:21:51Z</time>
      </trkpt>
      <trkpt lat="44.51155" lon="1.36758">
        <ele>202.1</ele>
        <time>2022-01-15T15:21:52Z</time>
      </trkpt>
      <trkpt lat="44.51156" lon="1.36758">
        <ele>202.2</ele>
        <time>2022-01-15T15:21:53Z</time>
      </trkpt>
      <trkpt lat="44.51156" lon="1.36757">
        <ele>202.2</ele>
        <time>2022-01-15T15:21:54Z</time>
      </trkpt>
      <trkpt lat="44.51157" lon="1.36756">
        <ele>202.3</ele>
        <time>2022-01-15T15:21:55Z</time>
      </trkpt>
      <trkpt lat="44.51157" lon="1.36756">
        <ele>202.4</ele>
        <time>2022-01-15T15:21:56Z</time>
      </trkpt>
      <trkpt lat="44.51158" lon="1.36755">
        <ele>202.5</ele>
        <time>2022-01-15T15:21:57Z</time>
      </trkpt>
      <trkpt lat="44.51158" lon="1.36755">
        <ele>202.6</ele>
        <time>2022-01-15T15:21:58Z</time>
      </trkpt>
      <trkpt lat="44.51159" lon="1.36754">
        <ele>202.7</ele>
        <time>2022-01-15T15:21:59Z</time>
      </trkpt>
      <trkpt lat="44.51159" lon="1.36754">
        <ele>202.8</ele>
        <time>2022-01-15T15:22:00Z</time>
      </trkpt>
      <trkpt lat="44.5116" lon="1.36753">
        <ele>202.9</ele>
        <time>2022-01-15T15:23:59Z</time>
      </trkpt>
      <trkpt lat="44.5116" lon="1.36753">
        <ele>203</ele>
        <time>2022-01-15T15:24:00Z</time>
      </trkpt>
      <trkpt lat="44.51161" lon="1.36752">
        <ele>203.1</ele>
        <time>2022-01-15T15:24:01Z</time>
      </trkpt>
      <trkpt lat="44.51161" lon="1.36752">
        <ele>203.2</ele>
        <time>2022-01-15T15:24:02Z</time>
      </trkpt>
      <trkpt lat="44.51162" lon="1.3675">
        <ele>203.4</ele>
        <time>2022-01-15T15:24:03Z</time>
      </trkpt>
      <trkpt lat="44.51163" lon="1.36749">
        <ele>203.5</ele>
        <time>2022-01-15T15:24:05Z</time>
      </trkpt>
      <trkpt lat="44.51164" lon="1.36747">
        <ele>203.7</ele>
        <time>2022-01-15T15:24:06Z</time>
      </trkpt>
      <trkpt lat="44.51165" lon="1.36745">
        <ele>204</ele>
        <time>2022-01-15T15:24:07Z</time>
      </trkpt>
      <trkpt lat="44.51166" lon="1.36744">
        <ele>204.2</ele>
        <time>2022-01-15T15:24:08Z</time>
      </trkpt>
      <trkpt lat="44.51168" lon="1.36742">
        <ele>204.5</ele>
        <time>2022-01-15T15:24:09Z</time>
      </trkpt>
      <trkpt lat="44.51168" lon="1.36742">
        <ele>204.6</ele>
        <time>2022-01-15T15:24:10Z</time>
      </trkpt>
      <trkpt lat="44.51169" lon="1.36741">
        <ele>204.7</ele>
        <time>2022-01-15T15:24:11Z</time>
      </trkpt>
      <trkpt lat="44.51169" lon="1.36739">
        <ele>204.9</ele>
        <time>2022-01-15T15:24:12Z</time>
      </trkpt>
      <trkpt lat="44.51169" lon="1.3674">
        <ele>204.9</ele>
        <time>2022-01-15T15:24:13Z</time>
      </trkpt>
      <trkpt lat="44.5117" lon="1.36739">
        <ele>205</ele>
        <time>2022-01-15T15:24:14Z</time>
      </trkpt>
      <trkpt lat="44.51171" lon="1.36738">
        <ele>205.2</ele>
        <time>2022-01-15T15:24:15Z</time>
      </trkpt>
      <trkpt lat="44.51173" lon="1.36735">
        <ele>205.7</ele>
        <time>2022-01-15T15:24:16Z</time>
      </trkpt>
      <trkpt lat="44.51175" lon="1.36734">
        <ele>205.9</ele>
        <time>2022-01-15T15:24:17Z</time>
      </trkpt>
      <trkpt lat="44.51176" lon="1.36732">
        <ele>206.1</ele>
        <time>2022-01-15T15:24:18Z</time>
      </trkpt>
      <trkpt lat="44.51177" lon="1.3673">
        <ele>206.4</ele>
        <time>2022-01-15T15:24:20Z</time>
      </trkpt>
      <trkpt lat="44.51177" lon="1.36729">
        <ele>206.5</ele>
        <time>2022-01-15T15:24:22Z</time>
      </trkpt>
      <trkpt lat="44.51178" lon="1.36728">
        <ele>206.7</ele>
        <time>2022-01-15T15:24:23Z</time>
      </trkpt>
      <trkpt lat="44.51179" lon="1.36727">
        <ele>206.9</ele>
        <time>2022-01-15T15:24:24Z</time>
      </trkpt>
      <trkpt lat="44.5118" lon="1.36724">
        <ele>207.3</ele>
        <time>2022-01-15T15:24:25Z</time>
      </trkpt>
      <trkpt lat="44.51181" lon="1.36723">
        <ele>207.4</ele>
        <time>2022-01-15T15:24:26Z</time>
      </trkpt>
      <trkpt lat="44.51181" lon="1.36722">
        <ele>207.4</ele>
        <time>2022-01-15T15:24:27Z</time>
      </trkpt>
      <trkpt lat="44.51181" lon="1.36722">
        <ele>207.5</ele>
        <time>2022-01-15T15:24:28Z</time>
      </trkpt>
      <trkpt lat="44.51183" lon="1.36719">
        <ele>207.9</ele>
        <time>2022-01-15T15:24:29Z</time>
      </trkpt>
      <trkpt lat="44.51184" lon="1.36717">
        <ele>208.2</ele>
        <time>2022-01-15T15:24:31Z</time>
      </trkpt>
      <trkpt lat="44.51185" lon="1.36715">
        <ele>208.5</ele>
        <time>2022-01-15T15:24:32Z</time>
      </trkpt>
      <trkpt lat="44.51186" lon="1.36714">
        <ele>208.6</ele>
        <time>2022-01-15T15:24:33Z</time>
      </trkpt>
      <trkpt lat="44.51186" lon="1.36713">
        <ele>208.6</ele>
        <time>2022-01-15T15:24:34Z</time>
      </trkpt>
      <trkpt lat="44.51186" lon="1.36713">
        <ele>208.7</ele>
        <time>2022-01-15T15:24:35Z</time>
      </trkpt>
      <trkpt lat="44.51188" lon="1.3671">
        <ele>209.1</ele>
        <time>2022-01-15T15:24:37Z</time>
      </trkpt>
      <trkpt lat="44.51189" lon="1.36708">
        <ele>209.3</ele>
        <time>2022-01-15T15:24:38Z</time>
      </trkpt>
      <trkpt lat="44.51189" lon="1.36706">
        <ele>209.5</ele>
        <time>2022-01-15T15:24:39Z</time>
      </trkpt>
      <trkpt lat="44.5119" lon="1.36705">
        <ele>209.7</ele>
        <time>2022-01-15T15:24:40Z</time>
      </trkpt>
      <trkpt lat="44.51191" lon="1.36704">
        <ele>209.7</ele>
        <time>2022-01-15T15:24:41Z</time>
      </trkpt>
      <trkpt lat="44.51191" lon="1.36704">
        <ele>209.8</ele>
        <time>2022-01-15T15:24:42Z</time>
      </trkpt>
      <trkpt lat="44.51191" lon="1.36703">
        <ele>209.9</ele>
        <time>2022-01-15T15:24:43Z</time>
      </trkpt>
      <trkpt lat="44.51193" lon="1.367">
        <ele>210.2</ele>
        <time>2022-01-15T15:24:45Z</time>
      </trkpt>
      <trkpt lat="44.51193" lon="1.367">
        <ele>210.3</ele>
        <time>2022-01-15T15:24:46Z</time>
      </trkpt>
      <trkpt lat="44.51193" lon="1.36699">
        <ele>210.3</ele>
        <time>2022-01-15T15:24:48Z</time>
      </trkpt>
      <trkpt lat="44.51194" lon="1.36698">
        <ele>210.5</ele>
        <time>2022-01-15T15:24:50Z</time>
      </trkpt>
      <trkpt lat="44.51195" lon="1.36696">
        <ele>210.7</ele>
        <time>2022-01-15T15:24:51Z</time>
      </trkpt>
      <trkpt lat="44.51195" lon="1.36695">
        <ele>210.9</ele>
        <time>2022-01-15T15:24:52Z</time>
      </trkpt>
      <trkpt lat="44.51196" lon="1.36693">
        <ele>211.1</ele>
        <time>2022-01-15T15:24:53Z</time>
      </trkpt>
      <trkpt lat="44.51197" lon="1.36691">
        <ele>211.3</ele>
        <time>2022-01-15T15:24:55Z</time>
      </trkpt>
      <trkpt lat="44.51198" lon="1.36689">
        <ele>211.5</ele>
        <time>2022-01-15T15:24:56Z</time>
      </trkpt>
      <trkpt lat="44.51199" lon="1.36686">
        <ele>212</ele>
        <time>2022-01-15T15:24:57Z</time>
      </trkpt>
      <trkpt lat="44.512" lon="1.36685">
        <ele>212.1</ele>
        <time>2022-01-15T15:24:58Z</time>
      </trkpt>
      <trkpt lat="44.51201" lon="1.36684">
        <ele>212.4</ele>
        <time>2022-01-15T15:24:59Z</time>
      </trkpt>
      <trkpt lat="44.51202" lon="1.36682">
        <ele>212.6</ele>
        <time>2022-01-15T15:25:00Z</time>
      </trkpt>
      <trkpt lat="44.51203" lon="1.36678">
        <ele>213.1</ele>
        <time>2022-01-15T15:25:02Z</time>
      </trkpt>
      <trkpt lat="44.51203" lon="1.36678">
        <ele>213.1</ele>
        <time>2022-01-15T15:25:03Z</time>
      </trkpt>
      <trkpt lat="44.51203" lon="1.36678">
        <ele>213.1</ele>
        <time>2022-01-15T15:25:04Z</time>
      </trkpt>
      <trkpt lat="44.51203" lon="1.36677">
        <ele>213.2</ele>
        <time>2022-01-15T15:25:05Z</time>
      </trkpt>
      <trkpt lat="44.51205" lon="1.36673">
        <ele>213.7</ele>
        <time>2022-01-15T15:25:07Z</time>
      </trkpt>
      <trkpt lat="44.51205" lon="1.36672">
        <ele>213.8</ele>
        <time>2022-01-15T15:25:08Z</time>
      </trkpt>
      <trkpt lat="44.51205" lon="1.36672">
        <ele>213.9</ele>
        <time>2022-01-15T15:25:09Z</time>
      </trkpt>
      <trkpt lat="44.51206" lon="1.36671">
        <ele>214</ele>
        <time>2022-01-15T15:25:11Z</time>
      </trkpt>
      <trkpt lat="44.51206" lon="1.3667">
        <ele>214</ele>
        <time>2022-01-15T15:25:12Z</time>
      </trkpt>
      <trkpt lat="44.51206" lon="1.3667">
        <ele>214.1</ele>
        <time>2022-01-15T15:25:13Z</time>
      </trkpt>
      <trkpt lat="44.51206" lon="1.3667">
        <ele>214.1</ele>
        <time>2022-01-15T15:25:14Z</time>
      </trkpt>
      <trkpt lat="44.51206" lon="1.3667">
        <ele>214.1</ele>
        <time>2022-01-15T15:25:15Z</time>
      </trkpt>
      <trkpt lat="44.51206" lon="1.3667">
        <ele>214.2</ele>
        <time>2022-01-15T15:25:16Z</time>
      </trkpt>
      <trkpt lat="44.51206" lon="1.36669">
        <ele>214.2</ele>
        <time>2022-01-15T15:25:18Z</time>
      </trkpt>
      <trkpt lat="44.51211" lon="1.36659">
        <ele>215.4</ele>
        <time>2022-01-15T15:25:23Z</time>
      </trkpt>
      <trkpt lat="44.51212" lon="1.36655">
        <ele>215.8</ele>
        <time>2022-01-15T15:25:24Z</time>
      </trkpt>
      <trkpt lat="44.51212" lon="1.36655">
        <ele>215.8</ele>
        <time>2022-01-15T15:25:25Z</time>
      </trkpt>
      <trkpt lat="44.51214" lon="1.36652">
        <ele>216.1</ele>
        <time>2022-01-15T15:25:27Z</time>
      </trkpt>
      <trkpt lat="44.51214" lon="1.36651">
        <ele>216.2</ele>
        <time>2022-01-15T15:25:28Z</time>
      </trkpt>
      <trkpt lat="44.51214" lon="1.36651">
        <ele>216.2</ele>
        <time>2022-01-15T15:25:29Z</time>
      </trkpt>
      <trkpt lat="44.51214" lon="1.3665">
        <ele>216.3</ele>
        <time>2022-01-15T15:25:30Z</time>
      </trkpt>
      <trkpt lat="44.51215" lon="1.3665">
        <ele>216.4</ele>
        <time>2022-01-15T15:25:31Z</time>
      </trkpt>
      <trkpt lat="44.51215" lon="1.36649">
        <ele>216.4</ele>
        <time>2022-01-15T15:25:32Z</time>
      </trkpt>
      <trkpt lat="44.51215" lon="1.36648">
        <ele>216.5</ele>
        <time>2022-01-15T15:25:33Z</time>
      </trkpt>
      <trkpt lat="44.51216" lon="1.36647">
        <ele>216.6</ele>
        <time>2022-01-15T15:25:34Z</time>
      </trkpt>
      <trkpt lat="44.51217" lon="1.36643">
        <ele>217</ele>
        <time>2022-01-15T15:25:35Z</time>
      </trkpt>
      <trkpt lat="44.51218" lon="1.36642">
        <ele>217.1</ele>
        <time>2022-01-15T15:25:36Z</time>
      </trkpt>
      <trkpt lat="44.51218" lon="1.36642">
        <ele>217.1</ele>
        <time>2022-01-15T15:25:37Z</time>
      </trkpt>
      <trkpt lat="44.51218" lon="1.36641">
        <ele>217.2</ele>
        <time>2022-01-15T15:25:38Z</time>
      </trkpt>
      <trkpt lat="44.51219" lon="1.36639">
        <ele>217.4</ele>
        <time>2022-01-15T15:25:39Z</time>
      </trkpt>
      <trkpt lat="44.5122" lon="1.36634">
        <ele>217.8</ele>
        <time>2022-01-15T15:25:41Z</time>
      </trkpt>
      <trkpt lat="44.51221" lon="1.36631">
        <ele>218.1</ele>
        <time>2022-01-15T15:25:42Z</time>
      </trkpt>
      <trkpt lat="44.51221" lon="1.36629">
        <ele>218.2</ele>
        <time>2022-01-15T15:25:43Z</time>
      </trkpt>
      <trkpt lat="44.51221" lon="1.36627">
        <ele>218.4</ele>
        <time>2022-01-15T15:25:44Z</time>
      </trkpt>
      <trkpt lat="44.51223" lon="1.36624">
        <ele>218.7</ele>
        <time>2022-01-15T15:25:46Z</time>
      </trkpt>
      <trkpt lat="44.51223" lon="1.36622">
        <ele>218.9</ele>
        <time>2022-01-15T15:25:47Z</time>
      </trkpt>
      <trkpt lat="44.51224" lon="1.36621">
        <ele>218.9</ele>
        <time>2022-01-15T15:25:48Z</time>
      </trkpt>
      <trkpt lat="44.51224" lon="1.36621">
        <ele>219</ele>
        <time>2022-01-15T15:25:49Z</time>
      </trkpt>
      <trkpt lat="44.51224" lon="1.36621">
        <ele>219</ele>
        <time>2022-01-15T15:25:50Z</time>
      </trkpt>
      <trkpt lat="44.51224" lon="1.36621">
        <ele>219</ele>
        <time>2022-01-15T15:25:52Z</time>
      </trkpt>
      <trkpt lat="44.51224" lon="1.36621">
        <ele>219</ele>
        <time>2022-01-15T15:25:53Z</time>
      </trkpt>
      <trkpt lat="44.51224" lon="1.36621">
        <ele>219</ele>
        <time>2022-01-15T15:25:54Z</time>
      </trkpt>
      <trkpt lat="44.51225" lon="1.36619">
        <ele>219.2</ele>
        <time>2022-01-15T15:25:55Z</time>
      </trkpt>
      <trkpt lat="44.51225" lon="1.36617">
        <ele>219.3</ele>
        <time>2022-01-15T15:25:56Z</time>
      </trkpt>
      <trkpt lat="44.51226" lon="1.36614">
        <ele>219.6</ele>
        <time>2022-01-15T15:25:58Z</time>
      </trkpt>
      <trkpt lat="44.51227" lon="1.36609">
        <ele>220</ele>
        <time>2022-01-15T15:26:00Z</time>
      </trkpt>
      <trkpt lat="44.51228" lon="1.36608">
        <ele>220.2</ele>
        <time>2022-01-15T15:26:01Z</time>
      </trkpt>
      <trkpt lat="44.51228" lon="1.36606">
        <ele>220.3</ele>
        <time>2022-01-15T15:26:02Z</time>
      </trkpt>
      <trkpt lat="44.51229" lon="1.36605">
        <ele>220.4</ele>
        <time>2022-01-15T15:26:03Z</time>
      </trkpt>
      <trkpt lat="44.51229" lon="1.36604">
        <ele>220.5</ele>
        <time>2022-01-15T15:26:04Z</time>
      </trkpt>
      <trkpt lat="44.5123" lon="1.36602">
        <ele>220.7</ele>
        <time>2022-01-15T15:26:05Z</time>
      </trkpt>
      <trkpt lat="44.51231" lon="1.36598">
        <ele>221.1</ele>
        <time>2022-01-15T15:26:07Z</time>
      </trkpt>
      <trkpt lat="44.51232" lon="1.36595">
        <ele>221.3</ele>
        <time>2022-01-15T15:26:08Z</time>
      </trkpt>
      <trkpt lat="44.51233" lon="1.36594">
        <ele>221.4</ele>
        <time>2022-01-15T15:26:09Z</time>
      </trkpt>
      <trkpt lat="44.51233" lon="1.36593">
        <ele>221.5</ele>
        <time>2022-01-15T15:26:10Z</time>
      </trkpt>
      <trkpt lat="44.51234" lon="1.3659">
        <ele>221.8</ele>
        <time>2022-01-15T15:26:12Z</time>
      </trkpt>
      <trkpt lat="44.51234" lon="1.36589">
        <ele>221.9</ele>
        <time>2022-01-15T15:26:13Z</time>
      </trkpt>
      <trkpt lat="44.51235" lon="1.36587">
        <ele>222.1</ele>
        <time>2022-01-15T15:26:14Z</time>
      </trkpt>
      <trkpt lat="44.51235" lon="1.36586">
        <ele>222.2</ele>
        <time>2022-01-15T15:26:15Z</time>
      </trkpt>
      <trkpt lat="44.51235" lon="1.36584">
        <ele>222.3</ele>
        <time>2022-01-15T15:26:16Z</time>
      </trkpt>
      <trkpt lat="44.51236" lon="1.36582">
        <ele>222.5</ele>
        <time>2022-01-15T15:26:17Z</time>
      </trkpt>
      <trkpt lat="44.51236" lon="1.36581">
        <ele>222.6</ele>
        <time>2022-01-15T15:26:19Z</time>
      </trkpt>
      <trkpt lat="44.51237" lon="1.3658">
        <ele>222.7</ele>
        <time>2022-01-15T15:26:20Z</time>
      </trkpt>
      <trkpt lat="44.51237" lon="1.36579">
        <ele>222.7</ele>
        <time>2022-01-15T15:26:21Z</time>
      </trkpt>
      <trkpt lat="44.51237" lon="1.36578">
        <ele>222.8</ele>
        <time>2022-01-15T15:26:22Z</time>
      </trkpt>
      <trkpt lat="44.51237" lon="1.36577">
        <ele>222.9</ele>
        <time>2022-01-15T15:26:24Z</time>
      </trkpt>
      <trkpt lat="44.51238" lon="1.36572">
        <ele>223.3</ele>
        <time>2022-01-15T15:26:26Z</time>
      </trkpt>
      <trkpt lat="44.51239" lon="1.3657">
        <ele>223.6</ele>
        <time>2022-01-15T15:26:27Z</time>
      </trkpt>
      <trkpt lat="44.51239" lon="1.36568">
        <ele>223.7</ele>
        <time>2022-01-15T15:26:28Z</time>
      </trkpt>
      <trkpt lat="44.51239" lon="1.36567">
        <ele>223.8</ele>
        <time>2022-01-15T15:26:29Z</time>
      </trkpt>
      <trkpt lat="44.5124" lon="1.36565">
        <ele>224</ele>
        <time>2022-01-15T15:26:30Z</time>
      </trkpt>
      <trkpt lat="44.51241" lon="1.36562">
        <ele>224.3</ele>
        <time>2022-01-15T15:26:32Z</time>
      </trkpt>
      <trkpt lat="44.51241" lon="1.3656">
        <ele>224.5</ele>
        <time>2022-01-15T15:26:33Z</time>
      </trkpt>
      <trkpt lat="44.51242" lon="1.36559">
        <ele>224.6</ele>
        <time>2022-01-15T15:26:34Z</time>
      </trkpt>
      <trkpt lat="44.51242" lon="1.36557">
        <ele>224.8</ele>
        <time>2022-01-15T15:26:35Z</time>
      </trkpt>
      <trkpt lat="44.51243" lon="1.36556">
        <ele>224.9</ele>
        <time>2022-01-15T15:26:36Z</time>
      </trkpt>
      <trkpt lat="44.51243" lon="1.36554">
        <ele>225.1</ele>
        <time>2022-01-15T15:26:37Z</time>
      </trkpt>
      <trkpt lat="44.51244" lon="1.36553">
        <ele>225.3</ele>
        <time>2022-01-15T15:26:38Z</time>
      </trkpt>
      <trkpt lat="44.51244" lon="1.36551">
        <ele>225.4</ele>
        <time>2022-01-15T15:26:39Z</time>
      </trkpt>
      <trkpt lat="44.51245" lon="1.3655">
        <ele>225.6</ele>
        <time>2022-01-15T15:26:40Z</time>
      </trkpt>
      <trkpt lat="44.51245" lon="1.36549">
        <ele>225.7</ele>
        <time>2022-01-15T15:26:42Z</time>
      </trkpt>
      <trkpt lat="44.51246" lon="1.36547">
        <ele>225.8</ele>
        <time>2022-01-15T15:26:43Z</time>
      </trkpt>
      <trkpt lat="44.51246" lon="1.36546">
        <ele>226</ele>
        <time>2022-01-15T15:26:44Z</time>
      </trkpt>
      <trkpt lat="44.51246" lon="1.36544">
        <ele>226.1</ele>
        <time>2022-01-15T15:26:46Z</time>
      </trkpt>
      <trkpt lat="44.51247" lon="1.36543">
        <ele>226.2</ele>
        <time>2022-01-15T15:26:47Z</time>
      </trkpt>
      <trkpt lat="44.51247" lon="1.36541">
        <ele>226.4</ele>
        <time>2022-01-15T15:26:48Z</time>
      </trkpt>
      <trkpt lat="44.51247" lon="1.3654">
        <ele>226.4</ele>
        <time>2022-01-15T15:26:49Z</time>
      </trkpt>
      <trkpt lat="44.51247" lon="1.3654">
        <ele>226.5</ele>
        <time>2022-01-15T15:26:50Z</time>
      </trkpt>
      <trkpt lat="44.51247" lon="1.36538">
        <ele>226.7</ele>
        <time>2022-01-15T15:26:52Z</time>
      </trkpt>
      <trkpt lat="44.51248" lon="1.36534">
        <ele>226.9</ele>
        <time>2022-01-15T15:26:54Z</time>
      </trkpt>
      <trkpt lat="44.51248" lon="1.36534">
        <ele>227</ele>
        <time>2022-01-15T15:26:55Z</time>
      </trkpt>
      <trkpt lat="44.51248" lon="1.36533">
        <ele>227</ele>
        <time>2022-01-15T15:26:56Z</time>
      </trkpt>
      <trkpt lat="44.51249" lon="1.3653">
        <ele>227.3</ele>
        <time>2022-01-15T15:26:57Z</time>
      </trkpt>
      <trkpt lat="44.5125" lon="1.36526">
        <ele>227.6</ele>
        <time>2022-01-15T15:26:59Z</time>
      </trkpt>
      <trkpt lat="44.5125" lon="1.36525">
        <ele>227.7</ele>
        <time>2022-01-15T15:27:00Z</time>
      </trkpt>
      <trkpt lat="44.51251" lon="1.36521">
        <ele>228.1</ele>
        <time>2022-01-15T15:27:01Z</time>
      </trkpt>
      <trkpt lat="44.51252" lon="1.3652">
        <ele>228.2</ele>
        <time>2022-01-15T15:27:02Z</time>
      </trkpt>
      <trkpt lat="44.51252" lon="1.36519">
        <ele>228.3</ele>
        <time>2022-01-15T15:27:03Z</time>
      </trkpt>
      <trkpt lat="44.51252" lon="1.36518">
        <ele>228.4</ele>
        <time>2022-01-15T15:27:04Z</time>
      </trkpt>
      <trkpt lat="44.51252" lon="1.36518">
        <ele>228.4</ele>
        <time>2022-01-15T15:27:06Z</time>
      </trkpt>
      <trkpt lat="44.51252" lon="1.36516">
        <ele>228.6</ele>
        <time>2022-01-15T15:27:07Z</time>
      </trkpt>
      <trkpt lat="44.51253" lon="1.36514">
        <ele>228.9</ele>
        <time>2022-01-15T15:27:08Z</time>
      </trkpt>
      <trkpt lat="44.51254" lon="1.36511">
        <ele>229.2</ele>
        <time>2022-01-15T15:27:10Z</time>
      </trkpt>
      <trkpt lat="44.51255" lon="1.36508">
        <ele>229.5</ele>
        <time>2022-01-15T15:27:11Z</time>
      </trkpt>
      <trkpt lat="44.51255" lon="1.36507">
        <ele>229.6</ele>
        <time>2022-01-15T15:27:12Z</time>
      </trkpt>
      <trkpt lat="44.51256" lon="1.36506">
        <ele>229.7</ele>
        <time>2022-01-15T15:27:13Z</time>
      </trkpt>
      <trkpt lat="44.51256" lon="1.36505">
        <ele>229.8</ele>
        <time>2022-01-15T15:27:14Z</time>
      </trkpt>
      <trkpt lat="44.51256" lon="1.36504">
        <ele>229.9</ele>
        <time>2022-01-15T15:27:15Z</time>
      </trkpt>
      <trkpt lat="44.51257" lon="1.36503">
        <ele>230</ele>
        <time>2022-01-15T15:27:16Z</time>
      </trkpt>
      <trkpt lat="44.51257" lon="1.36502">
        <ele>230.1</ele>
        <time>2022-01-15T15:27:18Z</time>
      </trkpt>
      <trkpt lat="44.51257" lon="1.36501">
        <ele>230.2</ele>
        <time>2022-01-15T15:27:19Z</time>
      </trkpt>
      <trkpt lat="44.51258" lon="1.365">
        <ele>230.3</ele>
        <time>2022-01-15T15:27:20Z</time>
      </trkpt>
      <trkpt lat="44.51258" lon="1.36498">
        <ele>230.6</ele>
        <time>2022-01-15T15:27:21Z</time>
      </trkpt>
      <trkpt lat="44.51259" lon="1.36496">
        <ele>230.7</ele>
        <time>2022-01-15T15:27:22Z</time>
      </trkpt>
      <trkpt lat="44.51259" lon="1.36495">
        <ele>230.9</ele>
        <time>2022-01-15T15:27:24Z</time>
      </trkpt>
      <trkpt lat="44.5126" lon="1.36493">
        <ele>231</ele>
        <time>2022-01-15T15:27:25Z</time>
      </trkpt>
      <trkpt lat="44.5126" lon="1.36492">
        <ele>231.2</ele>
        <time>2022-01-15T15:27:26Z</time>
      </trkpt>
      <trkpt lat="44.51261" lon="1.36491">
        <ele>231.3</ele>
        <time>2022-01-15T15:27:27Z</time>
      </trkpt>
      <trkpt lat="44.51261" lon="1.36489">
        <ele>231.4</ele>
        <time>2022-01-15T15:27:28Z</time>
      </trkpt>
      <trkpt lat="44.51262" lon="1.36484">
        <ele>231.9</ele>
        <time>2022-01-15T15:27:30Z</time>
      </trkpt>
      <trkpt lat="44.51262" lon="1.36483">
        <ele>231.9</ele>
        <time>2022-01-15T15:27:32Z</time>
      </trkpt>
      <trkpt lat="44.51262" lon="1.36483">
        <ele>231.9</ele>
        <time>2022-01-15T15:27:33Z</time>
      </trkpt>
      <trkpt lat="44.51262" lon="1.36482">
        <ele>231.9</ele>
        <time>2022-01-15T15:27:34Z</time>
      </trkpt>
      <trkpt lat="44.51264" lon="1.36478">
        <ele>231.9</ele>
        <time>2022-01-15T15:27:35Z</time>
      </trkpt>
      <trkpt lat="44.51264" lon="1.36476">
        <ele>231.9</ele>
        <time>2022-01-15T15:27:36Z</time>
      </trkpt>
      <trkpt lat="44.51265" lon="1.36472">
        <ele>231.9</ele>
        <time>2022-01-15T15:27:38Z</time>
      </trkpt>
      <trkpt lat="44.51265" lon="1.36471">
        <ele>231.9</ele>
        <time>2022-01-15T15:27:39Z</time>
      </trkpt>
      <trkpt lat="44.51266" lon="1.36469">
        <ele>232.7</ele>
        <time>2022-01-15T15:27:40Z</time>
      </trkpt>
      <trkpt lat="44.51266" lon="1.36468">
        <ele>232.7</ele>
        <time>2022-01-15T15:27:41Z</time>
      </trkpt>
      <trkpt lat="44.51267" lon="1.36464">
        <ele>232.7</ele>
        <time>2022-01-15T15:27:43Z</time>
      </trkpt>
      <trkpt lat="44.51268" lon="1.36462">
        <ele>232.7</ele>
        <time>2022-01-15T15:27:44Z</time>
      </trkpt>
      <trkpt lat="44.51268" lon="1.3646">
        <ele>232.7</ele>
        <time>2022-01-15T15:27:46Z</time>
      </trkpt>
      <trkpt lat="44.51269" lon="1.36456">
        <ele>232.7</ele>
        <time>2022-01-15T15:27:47Z</time>
      </trkpt>
      <trkpt lat="44.51269" lon="1.36456">
        <ele>232.7</ele>
        <time>2022-01-15T15:27:48Z</time>
      </trkpt>
      <trkpt lat="44.5127" lon="1.36455">
        <ele>232.7</ele>
        <time>2022-01-15T15:27:49Z</time>
      </trkpt>
      <trkpt lat="44.5127" lon="1.36453">
        <ele>233.5</ele>
        <time>2022-01-15T15:27:50Z</time>
      </trkpt>
      <trkpt lat="44.5127" lon="1.36452">
        <ele>233.5</ele>
        <time>2022-01-15T15:27:51Z</time>
      </trkpt>
      <trkpt lat="44.51271" lon="1.3645">
        <ele>233.5</ele>
        <time>2022-01-15T15:27:52Z</time>
      </trkpt>
      <trkpt lat="44.51271" lon="1.36449">
        <ele>233.5</ele>
        <time>2022-01-15T15:27:53Z</time>
      </trkpt>
      <trkpt lat="44.51271" lon="1.36449">
        <ele>233.5</ele>
        <time>2022-01-15T15:27:55Z</time>
      </trkpt>
      <trkpt lat="44.51271" lon="1.36448">
        <ele>233.5</ele>
        <time>2022-01-15T15:27:56Z</time>
      </trkpt>
      <trkpt lat="44.51271" lon="1.36448">
        <ele>233.5</ele>
        <time>2022-01-15T15:27:57Z</time>
      </trkpt>
      <trkpt lat="44.51271" lon="1.36448">
        <ele>233.5</ele>
        <time>2022-01-15T15:27:59Z</time>
      </trkpt>
      <trkpt lat="44.51271" lon="1.36448">
        <ele>233.5</ele>
        <time>2022-01-15T15:28:00Z</time>
      </trkpt>
      <trkpt lat="44.51273" lon="1.36443">
        <ele>233.5</ele>
        <time>2022-01-15T15:28:02Z</time>
      </trkpt>
      <trkpt lat="44.51274" lon="1.36439">
        <ele>233.5</ele>
        <time>2022-01-15T15:28:04Z</time>
      </trkpt>
      <trkpt lat="44.51275" lon="1.36437">
        <ele>233.5</ele>
        <time>2022-01-15T15:28:05Z</time>
      </trkpt>
      <trkpt lat="44.51276" lon="1.36435">
        <ele>234.1</ele>
        <time>2022-01-15T15:28:06Z</time>
      </trkpt>
      <trkpt lat="44.51276" lon="1.36432">
        <ele>234.1</ele>
        <time>2022-01-15T15:28:07Z</time>
      </trkpt>
      <trkpt lat="44.51277" lon="1.36431">
        <ele>234.1</ele>
        <time>2022-01-15T15:28:08Z</time>
      </trkpt>
      <trkpt lat="44.51277" lon="1.3643">
        <ele>234.1</ele>
        <time>2022-01-15T15:28:09Z</time>
      </trkpt>
      <trkpt lat="44.51277" lon="1.36428">
        <ele>234.1</ele>
        <time>2022-01-15T15:28:10Z</time>
      </trkpt>
      <trkpt lat="44.51277" lon="1.36426">
        <ele>234.1</ele>
        <time>2022-01-15T15:28:11Z</time>
      </trkpt>
      <trkpt lat="44.51278" lon="1.36424">
        <ele>234.1</ele>
        <time>2022-01-15T15:28:12Z</time>
      </trkpt>
      <trkpt lat="44.51278" lon="1.36423">
        <ele>234.1</ele>
        <time>2022-01-15T15:28:13Z</time>
      </trkpt>
      <trkpt lat="44.51278" lon="1.36421">
        <ele>234.1</ele>
        <time>2022-01-15T15:28:14Z</time>
      </trkpt>
      <trkpt lat="44.51279" lon="1.3642">
        <ele>234.1</ele>
        <time>2022-01-15T15:28:15Z</time>
      </trkpt>
      <trkpt lat="44.51279" lon="1.36417">
        <ele>234.8</ele>
        <time>2022-01-15T15:28:16Z</time>
      </trkpt>
      <trkpt lat="44.5128" lon="1.36416">
        <ele>234.8</ele>
        <time>2022-01-15T15:28:18Z</time>
      </trkpt>
      <trkpt lat="44.5128" lon="1.36414">
        <ele>234.8</ele>
        <time>2022-01-15T15:28:19Z</time>
      </trkpt>
      <trkpt lat="44.5128" lon="1.36414">
        <ele>234.8</ele>
        <time>2022-01-15T15:28:20Z</time>
      </trkpt>
      <trkpt lat="44.5128" lon="1.36414">
        <ele>234.8</ele>
        <time>2022-01-15T15:28:21Z</time>
      </trkpt>
      <trkpt lat="44.5128" lon="1.36411">
        <ele>234.8</ele>
        <time>2022-01-15T15:28:22Z</time>
      </trkpt>
      <trkpt lat="44.51281" lon="1.36409">
        <ele>234.8</ele>
        <time>2022-01-15T15:28:24Z</time>
      </trkpt>
      <trkpt lat="44.51281" lon="1.36409">
        <ele>234.8</ele>
        <time>2022-01-15T15:28:25Z</time>
      </trkpt>
      <trkpt lat="44.51281" lon="1.36409">
        <ele>234.8</ele>
        <time>2022-01-15T15:28:26Z</time>
      </trkpt>
      <trkpt lat="44.51281" lon="1.36407">
        <ele>234.8</ele>
        <time>2022-01-15T15:28:28Z</time>
      </trkpt>
      <trkpt lat="44.51282" lon="1.36405">
        <ele>234.8</ele>
        <time>2022-01-15T15:28:29Z</time>
      </trkpt>
      <trkpt lat="44.51283" lon="1.36403">
        <ele>234.8</ele>
        <time>2022-01-15T15:28:30Z</time>
      </trkpt>
      <trkpt lat="44.51283" lon="1.36403">
        <ele>234.8</ele>
        <time>2022-01-15T15:28:31Z</time>
      </trkpt>
      <trkpt lat="44.51283" lon="1.36402">
        <ele>235.2</ele>
        <time>2022-01-15T15:28:32Z</time>
      </trkpt>
      <trkpt lat="44.51283" lon="1.36401">
        <ele>235.2</ele>
        <time>2022-01-15T15:28:33Z</time>
      </trkpt>
      <trkpt lat="44.51284" lon="1.36401">
        <ele>235.2</ele>
        <time>2022-01-15T15:28:34Z</time>
      </trkpt>
      <trkpt lat="44.51285" lon="1.36396">
        <ele>235.2</ele>
        <time>2022-01-15T15:28:36Z</time>
      </trkpt>
      <trkpt lat="44.51287" lon="1.36392">
        <ele>235.2</ele>
        <time>2022-01-15T15:28:37Z</time>
      </trkpt>
      <trkpt lat="44.51288" lon="1.36391">
        <ele>235.2</ele>
        <time>2022-01-15T15:28:38Z</time>
      </trkpt>
      <trkpt lat="44.51288" lon="1.36388">
        <ele>235.2</ele>
        <time>2022-01-15T15:28:40Z</time>
      </trkpt>
      <trkpt lat="44.51289" lon="1.36385">
        <ele>235.5</ele>
        <time>2022-01-15T15:28:42Z</time>
      </trkpt>
      <trkpt lat="44.5129" lon="1.36382">
        <ele>235.5</ele>
        <time>2022-01-15T15:28:43Z</time>
      </trkpt>
      <trkpt lat="44.51291" lon="1.36381">
        <ele>235.5</ele>
        <time>2022-01-15T15:28:44Z</time>
      </trkpt>
      <trkpt lat="44.51291" lon="1.3638">
        <ele>235.5</ele>
        <time>2022-01-15T15:28:45Z</time>
      </trkpt>
      <trkpt lat="44.51291" lon="1.36379">
        <ele>235.5</ele>
        <time>2022-01-15T15:28:46Z</time>
      </trkpt>
      <trkpt lat="44.51291" lon="1.36379">
        <ele>235.7</ele>
        <time>2022-01-15T15:28:47Z</time>
      </trkpt>
      <trkpt lat="44.51292" lon="1.36376">
        <ele>235.7</ele>
        <time>2022-01-15T15:28:49Z</time>
      </trkpt>
      <trkpt lat="44.51293" lon="1.36374">
        <ele>235.7</ele>
        <time>2022-01-15T15:28:50Z</time>
      </trkpt>
      <trkpt lat="44.51294" lon="1.36372">
        <ele>235.7</ele>
        <time>2022-01-15T15:28:51Z</time>
      </trkpt>
      <trkpt lat="44.51295" lon="1.36368">
        <ele>235.7</ele>
        <time>2022-01-15T15:28:52Z</time>
      </trkpt>
      <trkpt lat="44.51296" lon="1.36367">
        <ele>236.1</ele>
        <time>2022-01-15T15:28:54Z</time>
      </trkpt>
      <trkpt lat="44.51296" lon="1.36366">
        <ele>236.1</ele>
        <time>2022-01-15T15:28:55Z</time>
      </trkpt>
      <trkpt lat="44.51297" lon="1.36364">
        <ele>236.1</ele>
        <time>2022-01-15T15:28:56Z</time>
      </trkpt>
      <trkpt lat="44.51297" lon="1.36363">
        <ele>236.1</ele>
        <time>2022-01-15T15:28:57Z</time>
      </trkpt>
      <trkpt lat="44.51298" lon="1.36362">
        <ele>236.1</ele>
        <time>2022-01-15T15:28:58Z</time>
      </trkpt>
      <trkpt lat="44.51299" lon="1.36361">
        <ele>236.1</ele>
        <time>2022-01-15T15:28:59Z</time>
      </trkpt>
      <trkpt lat="44.51299" lon="1.36358">
        <ele>236.1</ele>
        <time>2022-01-15T15:29:01Z</time>
      </trkpt>
      <trkpt lat="44.513" lon="1.36356">
        <ele>236.1</ele>
        <time>2022-01-15T15:29:02Z</time>
      </trkpt>
      <trkpt lat="44.513" lon="1.36355">
        <ele>236.1</ele>
        <time>2022-01-15T15:29:03Z</time>
      </trkpt>
      <trkpt lat="44.513" lon="1.36354">
        <ele>236.1</ele>
        <time>2022-01-15T15:29:04Z</time>
      </trkpt>
      <trkpt lat="44.51301" lon="1.36352">
        <ele>236.1</ele>
        <time>2022-01-15T15:29:05Z</time>
      </trkpt>
      <trkpt lat="44.51302" lon="1.3635">
        <ele>236</ele>
        <time>2022-01-15T15:29:06Z</time>
      </trkpt>
      <trkpt lat="44.51303" lon="1.36346">
        <ele>236</ele>
        <time>2022-01-15T15:29:08Z</time>
      </trkpt>
      <trkpt lat="44.51303" lon="1.36345">
        <ele>236</ele>
        <time>2022-01-15T15:29:09Z</time>
      </trkpt>
      <trkpt lat="44.51303" lon="1.36344">
        <ele>236.7</ele>
        <time>2022-01-15T15:29:10Z</time>
      </trkpt>
      <trkpt lat="44.51305" lon="1.36342">
        <ele>236.7</ele>
        <time>2022-01-15T15:29:11Z</time>
      </trkpt>
      <trkpt lat="44.51305" lon="1.36338">
        <ele>236.7</ele>
        <time>2022-01-15T15:29:13Z</time>
      </trkpt>
      <trkpt lat="44.51306" lon="1.36337">
        <ele>236.7</ele>
        <time>2022-01-15T15:29:14Z</time>
      </trkpt>
      <trkpt lat="44.51307" lon="1.36335">
        <ele>236.7</ele>
        <time>2022-01-15T15:29:15Z</time>
      </trkpt>
      <trkpt lat="44.51307" lon="1.36334">
        <ele>236.7</ele>
        <time>2022-01-15T15:29:16Z</time>
      </trkpt>
      <trkpt lat="44.51308" lon="1.36332">
        <ele>236.5</ele>
        <time>2022-01-15T15:29:17Z</time>
      </trkpt>
      <trkpt lat="44.51308" lon="1.36329">
        <ele>236.5</ele>
        <time>2022-01-15T15:29:19Z</time>
      </trkpt>
      <trkpt lat="44.51309" lon="1.36327">
        <ele>236.5</ele>
        <time>2022-01-15T15:29:20Z</time>
      </trkpt>
      <trkpt lat="44.5131" lon="1.36325">
        <ele>236.5</ele>
        <time>2022-01-15T15:29:21Z</time>
      </trkpt>
      <trkpt lat="44.51311" lon="1.36321">
        <ele>236.5</ele>
        <time>2022-01-15T15:29:22Z</time>
      </trkpt>
      <trkpt lat="44.51311" lon="1.3632">
        <ele>236.5</ele>
        <time>2022-01-15T15:29:23Z</time>
      </trkpt>
      <trkpt lat="44.51312" lon="1.36318">
        <ele>236.5</ele>
        <time>2022-01-15T15:29:24Z</time>
      </trkpt>
      <trkpt lat="44.51312" lon="1.36316">
        <ele>236.2</ele>
        <time>2022-01-15T15:29:25Z</time>
      </trkpt>
      <trkpt lat="44.51314" lon="1.36313">
        <ele>236.2</ele>
        <time>2022-01-15T15:29:26Z</time>
      </trkpt>
      <trkpt lat="44.51314" lon="1.36311">
        <ele>236.2</ele>
        <time>2022-01-15T15:29:28Z</time>
      </trkpt>
      <trkpt lat="44.51315" lon="1.36309">
        <ele>236.2</ele>
        <time>2022-01-15T15:29:29Z</time>
      </trkpt>
      <trkpt lat="44.51315" lon="1.36307">
        <ele>236.2</ele>
        <time>2022-01-15T15:29:30Z</time>
      </trkpt>
      <trkpt lat="44.51316" lon="1.36304">
        <ele>236.8</ele>
        <time>2022-01-15T15:29:31Z</time>
      </trkpt>
      <trkpt lat="44.51317" lon="1.36302">
        <ele>236.8</ele>
        <time>2022-01-15T15:29:33Z</time>
      </trkpt>
      <trkpt lat="44.51317" lon="1.36301">
        <ele>236.8</ele>
        <time>2022-01-15T15:29:34Z</time>
      </trkpt>
      <trkpt lat="44.51318" lon="1.36299">
        <ele>236.3</ele>
        <time>2022-01-15T15:29:35Z</time>
      </trkpt>
      <trkpt lat="44.51318" lon="1.36297">
        <ele>236.3</ele>
        <time>2022-01-15T15:29:36Z</time>
      </trkpt>
      <trkpt lat="44.51319" lon="1.36295">
        <ele>236.3</ele>
        <time>2022-01-15T15:29:37Z</time>
      </trkpt>
      <trkpt lat="44.51319" lon="1.36293">
        <ele>236.3</ele>
        <time>2022-01-15T15:29:38Z</time>
      </trkpt>
      <trkpt lat="44.51321" lon="1.36289">
        <ele>236.3</ele>
        <time>2022-01-15T15:29:40Z</time>
      </trkpt>
      <trkpt lat="44.51321" lon="1.36288">
        <ele>236.3</ele>
        <time>2022-01-15T15:29:41Z</time>
      </trkpt>
      <trkpt lat="44.51322" lon="1.36286">
        <ele>236.3</ele>
        <time>2022-01-15T15:29:42Z</time>
      </trkpt>
      <trkpt lat="44.51323" lon="1.36284">
        <ele>236.3</ele>
        <time>2022-01-15T15:29:43Z</time>
      </trkpt>
      <trkpt lat="44.51324" lon="1.36282">
        <ele>235.5</ele>
        <time>2022-01-15T15:29:44Z</time>
      </trkpt>
      <trkpt lat="44.51325" lon="1.3628">
        <ele>235.5</ele>
        <time>2022-01-15T15:29:45Z</time>
      </trkpt>
      <trkpt lat="44.51326" lon="1.36275">
        <ele>235.5</ele>
        <time>2022-01-15T15:29:46Z</time>
      </trkpt>
      <trkpt lat="44.51327" lon="1.36274">
        <ele>235.5</ele>
        <time>2022-01-15T15:29:47Z</time>
      </trkpt>
      <trkpt lat="44.51327" lon="1.36272">
        <ele>235.5</ele>
        <time>2022-01-15T15:29:48Z</time>
      </trkpt>
      <trkpt lat="44.51329" lon="1.36269">
        <ele>236.2</ele>
        <time>2022-01-15T15:29:50Z</time>
      </trkpt>
      <trkpt lat="44.51329" lon="1.36268">
        <ele>236.2</ele>
        <time>2022-01-15T15:29:51Z</time>
      </trkpt>
      <trkpt lat="44.51329" lon="1.36266">
        <ele>236.2</ele>
        <time>2022-01-15T15:29:52Z</time>
      </trkpt>
      <trkpt lat="44.51329" lon="1.36264">
        <ele>235.7</ele>
        <time>2022-01-15T15:29:53Z</time>
      </trkpt>
      <trkpt lat="44.5133" lon="1.36263">
        <ele>235.7</ele>
        <time>2022-01-15T15:29:54Z</time>
      </trkpt>
      <trkpt lat="44.5133" lon="1.36263">
        <ele>235.7</ele>
        <time>2022-01-15T15:29:55Z</time>
      </trkpt>
      <trkpt lat="44.5133" lon="1.36262">
        <ele>235.7</ele>
        <time>2022-01-15T15:29:56Z</time>
      </trkpt>
      <trkpt lat="44.5133" lon="1.36261">
        <ele>235.7</ele>
        <time>2022-01-15T15:29:58Z</time>
      </trkpt>
      <trkpt lat="44.5133" lon="1.36261">
        <ele>235.7</ele>
        <time>2022-01-15T15:29:59Z</time>
      </trkpt>
      <trkpt lat="44.51329" lon="1.36261">
        <ele>235.7</ele>
        <time>2022-01-15T15:30:00Z</time>
      </trkpt>
      <trkpt lat="44.51328" lon="1.36261">
        <ele>235.7</ele>
        <time>2022-01-15T15:30:01Z</time>
      </trkpt>
      <trkpt lat="44.51327" lon="1.36261">
        <ele>234.9</ele>
        <time>2022-01-15T15:30:02Z</time>
      </trkpt>
      <trkpt lat="44.51326" lon="1.36261">
        <ele>234.9</ele>
        <time>2022-01-15T15:30:03Z</time>
      </trkpt>
      <trkpt lat="44.51325" lon="1.36261">
        <ele>234.9</ele>
        <time>2022-01-15T15:30:04Z</time>
      </trkpt>
      <trkpt lat="44.51324" lon="1.36261">
        <ele>234.9</ele>
        <time>2022-01-15T15:35:49Z</time>
      </trkpt>
      <trkpt lat="44.51323" lon="1.3626">
        <ele>234.9</ele>
        <time>2022-01-15T15:35:50Z</time>
      </trkpt>
      <trkpt lat="44.5132" lon="1.36262">
        <ele>234.9</ele>
        <time>2022-01-15T15:35:51Z</time>
      </trkpt>
      <trkpt lat="44.51317" lon="1.36264">
        <ele>234.9</ele>
        <time>2022-01-15T15:35:52Z</time>
      </trkpt>
      <trkpt lat="44.51315" lon="1.36267">
        <ele>234.6</ele>
        <time>2022-01-15T15:35:53Z</time>
      </trkpt>
      <trkpt lat="44.51314" lon="1.36268">
        <ele>234.6</ele>
        <time>2022-01-15T15:35:55Z</time>
      </trkpt>
      <trkpt lat="44.51311" lon="1.36271">
        <ele>234.6</ele>
        <time>2022-01-15T15:35:56Z</time>
      </trkpt>
      <trkpt lat="44.5131" lon="1.36273">
        <ele>234.6</ele>
        <time>2022-01-15T15:35:57Z</time>
      </trkpt>
      <trkpt lat="44.51307" lon="1.36276">
        <ele>234.6</ele>
        <time>2022-01-15T15:35:59Z</time>
      </trkpt>
      <trkpt lat="44.51306" lon="1.36277">
        <ele>234.6</ele>
        <time>2022-01-15T15:36:00Z</time>
      </trkpt>
      <trkpt lat="44.51302" lon="1.3628">
        <ele>233.4</ele>
        <time>2022-01-15T15:36:01Z</time>
      </trkpt>
      <trkpt lat="44.51301" lon="1.36281">
        <ele>233.4</ele>
        <time>2022-01-15T15:36:02Z</time>
      </trkpt>
      <trkpt lat="44.51299" lon="1.36284">
        <ele>234.4</ele>
        <time>2022-01-15T15:36:03Z</time>
      </trkpt>
      <trkpt lat="44.51298" lon="1.36288">
        <ele>234.4</ele>
        <time>2022-01-15T15:36:04Z</time>
      </trkpt>
      <trkpt lat="44.51297" lon="1.36292">
        <ele>234.4</ele>
        <time>2022-01-15T15:36:05Z</time>
      </trkpt>
      <trkpt lat="44.51295" lon="1.36299">
        <ele>234.4</ele>
        <time>2022-01-15T15:36:06Z</time>
      </trkpt>
      <trkpt lat="44.51294" lon="1.36304">
        <ele>235.1</ele>
        <time>2022-01-15T15:36:08Z</time>
      </trkpt>
      <trkpt lat="44.51291" lon="1.36308">
        <ele>235.1</ele>
        <time>2022-01-15T15:36:09Z</time>
      </trkpt>
      <trkpt lat="44.51291" lon="1.36309">
        <ele>234</ele>
        <time>2022-01-15T15:36:10Z</time>
      </trkpt>
      <trkpt lat="44.51288" lon="1.36313">
        <ele>234</ele>
        <time>2022-01-15T15:36:11Z</time>
      </trkpt>
      <trkpt lat="44.51287" lon="1.36314">
        <ele>234</ele>
        <time>2022-01-15T15:36:12Z</time>
      </trkpt>
      <trkpt lat="44.51284" lon="1.36315">
        <ele>234</ele>
        <time>2022-01-15T15:36:13Z</time>
      </trkpt>
      <trkpt lat="44.51283" lon="1.36316">
        <ele>234</ele>
        <time>2022-01-15T15:36:14Z</time>
      </trkpt>
      <trkpt lat="44.5128" lon="1.36318">
        <ele>234.6</ele>
        <time>2022-01-15T15:36:15Z</time>
      </trkpt>
      <trkpt lat="44.51277" lon="1.3632">
        <ele>233.4</ele>
        <time>2022-01-15T15:36:16Z</time>
      </trkpt>
      <trkpt lat="44.51274" lon="1.36323">
        <ele>233.4</ele>
        <time>2022-01-15T15:36:17Z</time>
      </trkpt>
      <trkpt lat="44.51272" lon="1.36326">
        <ele>233.4</ele>
        <time>2022-01-15T15:36:18Z</time>
      </trkpt>
      <trkpt lat="44.51269" lon="1.3633">
        <ele>233.4</ele>
        <time>2022-01-15T15:36:19Z</time>
      </trkpt>
      <trkpt lat="44.51268" lon="1.36334">
        <ele>234.3</ele>
        <time>2022-01-15T15:36:20Z</time>
      </trkpt>
      <trkpt lat="44.51266" lon="1.36337">
        <ele>233.3</ele>
        <time>2022-01-15T15:36:21Z</time>
      </trkpt>
      <trkpt lat="44.51263" lon="1.36342">
        <ele>233.3</ele>
        <time>2022-01-15T15:36:22Z</time>
      </trkpt>
      <trkpt lat="44.51259" lon="1.36347">
        <ele>233.3</ele>
        <time>2022-01-15T15:36:24Z</time>
      </trkpt>
      <trkpt lat="44.51256" lon="1.36352">
        <ele>234</ele>
        <time>2022-01-15T15:36:25Z</time>
      </trkpt>
      <trkpt lat="44.51255" lon="1.36358">
        <ele>234</ele>
        <time>2022-01-15T15:36:26Z</time>
      </trkpt>
      <trkpt lat="44.51256" lon="1.36363">
        <ele>234</ele>
        <time>2022-01-15T15:36:27Z</time>
      </trkpt>
      <trkpt lat="44.51257" lon="1.36368">
        <ele>234</ele>
        <time>2022-01-15T15:36:28Z</time>
      </trkpt>
      <trkpt lat="44.51258" lon="1.36369">
        <ele>234.4</ele>
        <time>2022-01-15T15:36:29Z</time>
      </trkpt>
      <trkpt lat="44.51259" lon="1.36372">
        <ele>234.4</ele>
        <time>2022-01-15T15:36:30Z</time>
      </trkpt>
      <trkpt lat="44.51259" lon="1.36376">
        <ele>234.4</ele>
        <time>2022-01-15T15:36:32Z</time>
      </trkpt>
      <trkpt lat="44.51259" lon="1.36378">
        <ele>234.4</ele>
        <time>2022-01-15T15:36:33Z</time>
      </trkpt>
      <trkpt lat="44.51258" lon="1.3638">
        <ele>234.4</ele>
        <time>2022-01-15T15:36:34Z</time>
      </trkpt>
      <trkpt lat="44.51256" lon="1.36383">
        <ele>234.4</ele>
        <time>2022-01-15T15:36:35Z</time>
      </trkpt>
      <trkpt lat="44.51255" lon="1.36386">
        <ele>234.5</ele>
        <time>2022-01-15T15:36:36Z</time>
      </trkpt>
      <trkpt lat="44.51255" lon="1.36393">
        <ele>234.5</ele>
        <time>2022-01-15T15:36:38Z</time>
      </trkpt>
      <trkpt lat="44.51254" lon="1.36395">
        <ele>234.2</ele>
        <time>2022-01-15T15:36:39Z</time>
      </trkpt>
      <trkpt lat="44.51255" lon="1.36396">
        <ele>234.5</ele>
        <time>2022-01-15T15:36:40Z</time>
      </trkpt>
      <trkpt lat="44.51254" lon="1.36396">
        <ele>234.2</ele>
        <time>2022-01-15T15:36:41Z</time>
      </trkpt>
      <trkpt lat="44.51253" lon="1.36395">
        <ele>234.2</ele>
        <time>2022-01-15T15:36:42Z</time>
      </trkpt>
      <trkpt lat="44.51253" lon="1.36395">
        <ele>234.2</ele>
        <time>2022-01-15T15:36:43Z</time>
      </trkpt>
      <trkpt lat="44.51254" lon="1.36394">
        <ele>234.2</ele>
        <time>2022-01-15T15:36:44Z</time>
      </trkpt>
      <trkpt lat="44.51254" lon="1.36394">
        <ele>234.2</ele>
        <time>2022-01-15T15:36:45Z</time>
      </trkpt>
      <trkpt lat="44.51254" lon="1.36394">
        <ele>234.2</ele>
        <time>2022-01-15T15:36:46Z</time>
      </trkpt>
      <trkpt lat="44.51254" lon="1.36394">
        <ele>234.2</ele>
        <time>2022-01-15T15:36:47Z</time>
      </trkpt>
      <trkpt lat="44.51254" lon="1.36395">
        <ele>234.2</ele>
        <time>2022-01-15T15:36:48Z</time>
      </trkpt>
      <trkpt lat="44.51253" lon="1.36397">
        <ele>234.2</ele>
        <time>2022-01-15T15:36:49Z</time>
      </trkpt>
      <trkpt lat="44.51249" lon="1.36399">
        <ele>234.2</ele>
        <time>2022-01-15T15:36:51Z</time>
      </trkpt>
      <trkpt lat="44.51246" lon="1.364">
        <ele>234.2</ele>
        <time>2022-01-15T15:36:52Z</time>
      </trkpt>
      <trkpt lat="44.51245" lon="1.364">
        <ele>234.2</ele>
        <time>2022-01-15T15:36:53Z</time>
      </trkpt>
      <trkpt lat="44.51244" lon="1.364">
        <ele>234.2</ele>
        <time>2022-01-15T15:36:54Z</time>
      </trkpt>
      <trkpt lat="44.51244" lon="1.364">
        <ele>234.2</ele>
        <time>2022-01-15T15:36:55Z</time>
      </trkpt>
      <trkpt lat="44.51244" lon="1.364">
        <ele>234.2</ele>
        <time>2022-01-15T15:36:56Z</time>
      </trkpt>
      <trkpt lat="44.51243" lon="1.36402">
        <ele>234.2</ele>
        <time>2022-01-15T15:36:58Z</time>
      </trkpt>
      <trkpt lat="44.51241" lon="1.36406">
        <ele>233.8</ele>
        <time>2022-01-15T15:36:59Z</time>
      </trkpt>
      <trkpt lat="44.51238" lon="1.3641">
        <ele>233.8</ele>
        <time>2022-01-15T15:37:00Z</time>
      </trkpt>
      <trkpt lat="44.51235" lon="1.36413">
        <ele>233.8</ele>
        <time>2022-01-15T15:37:01Z</time>
      </trkpt>
      <trkpt lat="44.5123" lon="1.36414">
        <ele>233.8</ele>
        <time>2022-01-15T15:37:02Z</time>
      </trkpt>
      <trkpt lat="44.51224" lon="1.36417">
        <ele>232.7</ele>
        <time>2022-01-15T15:37:04Z</time>
      </trkpt>
      <trkpt lat="44.5122" lon="1.36421">
        <ele>232.8</ele>
        <time>2022-01-15T15:37:05Z</time>
      </trkpt>
      <trkpt lat="44.51219" lon="1.36427">
        <ele>232.8</ele>
        <time>2022-01-15T15:37:06Z</time>
      </trkpt>
      <trkpt lat="44.51217" lon="1.36435">
        <ele>231.8</ele>
        <time>2022-01-15T15:37:07Z</time>
      </trkpt>
      <trkpt lat="44.51214" lon="1.3644">
        <ele>231.8</ele>
        <time>2022-01-15T15:37:08Z</time>
      </trkpt>
      <trkpt lat="44.51212" lon="1.36442">
        <ele>231.8</ele>
        <time>2022-01-15T15:37:09Z</time>
      </trkpt>
      <trkpt lat="44.51209" lon="1.36443">
        <ele>231.8</ele>
        <time>2022-01-15T15:37:10Z</time>
      </trkpt>
      <trkpt lat="44.51208" lon="1.36443">
        <ele>231.8</ele>
        <time>2022-01-15T15:37:11Z</time>
      </trkpt>
      <trkpt lat="44.51207" lon="1.36442">
        <ele>231.8</ele>
        <time>2022-01-15T15:37:12Z</time>
      </trkpt>
      <trkpt lat="44.51206" lon="1.36441">
        <ele>231.8</ele>
        <time>2022-01-15T15:37:13Z</time>
      </trkpt>
      <trkpt lat="44.51204" lon="1.3644">
        <ele>231.2</ele>
        <time>2022-01-15T15:37:14Z</time>
      </trkpt>
      <trkpt lat="44.512" lon="1.36437">
        <ele>231.2</ele>
        <time>2022-01-15T15:37:15Z</time>
      </trkpt>
      <trkpt lat="44.51198" lon="1.36435">
        <ele>231</ele>
        <time>2022-01-15T15:37:16Z</time>
      </trkpt>
      <trkpt lat="44.51192" lon="1.36429">
        <ele>229.8</ele>
        <time>2022-01-15T15:37:18Z</time>
      </trkpt>
      <trkpt lat="44.51188" lon="1.36425">
        <ele>229.8</ele>
        <time>2022-01-15T15:37:19Z</time>
      </trkpt>
      <trkpt lat="44.51185" lon="1.36423">
        <ele>229.8</ele>
        <time>2022-01-15T15:37:20Z</time>
      </trkpt>
      <trkpt lat="44.5118" lon="1.36418">
        <ele>226.8</ele>
        <time>2022-01-15T15:37:21Z</time>
      </trkpt>
      <trkpt lat="44.51175" lon="1.36413">
        <ele>226.8</ele>
        <time>2022-01-15T15:37:22Z</time>
      </trkpt>
      <trkpt lat="44.5117" lon="1.36408">
        <ele>226.8</ele>
        <time>2022-01-15T15:37:23Z</time>
      </trkpt>
      <trkpt lat="44.51168" lon="1.36405">
        <ele>224.3</ele>
        <time>2022-01-15T15:37:24Z</time>
      </trkpt>
      <trkpt lat="44.51164" lon="1.36403">
        <ele>224.3</ele>
        <time>2022-01-15T15:37:25Z</time>
      </trkpt>
      <trkpt lat="44.51161" lon="1.36405">
        <ele>224.3</ele>
        <time>2022-01-15T15:37:26Z</time>
      </trkpt>
      <trkpt lat="44.51157" lon="1.36407">
        <ele>224.3</ele>
        <time>2022-01-15T15:37:27Z</time>
      </trkpt>
      <trkpt lat="44.51151" lon="1.36408">
        <ele>222.2</ele>
        <time>2022-01-15T15:37:29Z</time>
      </trkpt>
      <trkpt lat="44.51148" lon="1.36406">
        <ele>222.2</ele>
        <time>2022-01-15T15:37:30Z</time>
      </trkpt>
      <trkpt lat="44.51147" lon="1.36406">
        <ele>222.2</ele>
        <time>2022-01-15T15:37:31Z</time>
      </trkpt>
      <trkpt lat="44.51147" lon="1.36406">
        <ele>222.2</ele>
        <time>2022-01-15T15:37:32Z</time>
      </trkpt>
      <trkpt lat="44.51147" lon="1.36403">
        <ele>222.2</ele>
        <time>2022-01-15T15:37:33Z</time>
      </trkpt>
      <trkpt lat="44.51147" lon="1.36401">
        <ele>220.2</ele>
        <time>2022-01-15T15:37:35Z</time>
      </trkpt>
      <trkpt lat="44.51147" lon="1.36401">
        <ele>220.2</ele>
        <time>2022-01-15T15:37:36Z</time>
      </trkpt>
      <trkpt lat="44.51146" lon="1.364">
        <ele>220.2</ele>
        <time>2022-01-15T15:37:37Z</time>
      </trkpt>
      <trkpt lat="44.51145" lon="1.36399">
        <ele>220.2</ele>
        <time>2022-01-15T15:37:39Z</time>
      </trkpt>
      <trkpt lat="44.51145" lon="1.36399">
        <ele>220.2</ele>
        <time>2022-01-15T15:37:40Z</time>
      </trkpt>
      <trkpt lat="44.51144" lon="1.36398">
        <ele>218</ele>
        <time>2022-01-15T15:37:46Z</time>
      </trkpt>
      <trkpt lat="44.51143" lon="1.36397">
        <ele>218</ele>
        <time>2022-01-15T15:37:48Z</time>
      </trkpt>
      <trkpt lat="44.51143" lon="1.36397">
        <ele>218</ele>
        <time>2022-01-15T15:37:49Z</time>
      </trkpt>
      <trkpt lat="44.51139" lon="1.364">
        <ele>218</ele>
        <time>2022-01-15T15:37:50Z</time>
      </trkpt>
      <trkpt lat="44.51132" lon="1.36405">
        <ele>220.1</ele>
        <time>2022-01-15T15:37:52Z</time>
      </trkpt>
      <trkpt lat="44.51128" lon="1.36405">
        <ele>218.3</ele>
        <time>2022-01-15T15:37:53Z</time>
      </trkpt>
      <trkpt lat="44.51124" lon="1.36404">
        <ele>218.3</ele>
        <time>2022-01-15T15:37:54Z</time>
      </trkpt>
      <trkpt lat="44.51118" lon="1.36405">
        <ele>216.5</ele>
        <time>2022-01-15T15:37:55Z</time>
      </trkpt>
      <trkpt lat="44.51112" lon="1.36406">
        <ele>216.5</ele>
        <time>2022-01-15T15:37:56Z</time>
      </trkpt>
      <trkpt lat="44.51105" lon="1.36407">
        <ele>214.6</ele>
        <time>2022-01-15T15:37:57Z</time>
      </trkpt>
      <trkpt lat="44.51098" lon="1.36408">
        <ele>214.6</ele>
        <time>2022-01-15T15:37:58Z</time>
      </trkpt>
      <trkpt lat="44.51091" lon="1.36408">
        <ele>212.8</ele>
        <time>2022-01-15T15:37:59Z</time>
      </trkpt>
      <trkpt lat="44.51084" lon="1.36407">
        <ele>212.8</ele>
        <time>2022-01-15T15:38:00Z</time>
      </trkpt>
      <trkpt lat="44.51077" lon="1.36406">
        <ele>210.9</ele>
        <time>2022-01-15T15:38:01Z</time>
      </trkpt>
      <trkpt lat="44.5107" lon="1.36406">
        <ele>209.4</ele>
        <time>2022-01-15T15:38:02Z</time>
      </trkpt>
      <trkpt lat="44.51064" lon="1.36408">
        <ele>209.4</ele>
        <time>2022-01-15T15:38:03Z</time>
      </trkpt>
      <trkpt lat="44.51057" lon="1.36409">
        <ele>207.9</ele>
        <time>2022-01-15T15:38:04Z</time>
      </trkpt>
      <trkpt lat="44.51051" lon="1.36408">
        <ele>207.9</ele>
        <time>2022-01-15T15:38:05Z</time>
      </trkpt>
      <trkpt lat="44.51045" lon="1.36405">
        <ele>206.9</ele>
        <time>2022-01-15T15:38:06Z</time>
      </trkpt>
      <trkpt lat="44.51042" lon="1.36403">
        <ele>206.9</ele>
        <time>2022-01-15T15:38:07Z</time>
      </trkpt>
      <trkpt lat="44.51041" lon="1.36402">
        <ele>206.9</ele>
        <time>2022-01-15T15:38:08Z</time>
      </trkpt>
      <trkpt lat="44.51039" lon="1.36401">
        <ele>205.1</ele>
        <time>2022-01-15T15:38:09Z</time>
      </trkpt>
      <trkpt lat="44.51038" lon="1.36401">
        <ele>205.1</ele>
        <time>2022-01-15T15:38:10Z</time>
      </trkpt>
      <trkpt lat="44.51037" lon="1.364">
        <ele>205.2</ele>
        <time>2022-01-15T15:38:11Z</time>
      </trkpt>
      <trkpt lat="44.51036" lon="1.364">
        <ele>205.2</ele>
        <time>2022-01-15T15:38:12Z</time>
      </trkpt>
      <trkpt lat="44.51036" lon="1.364">
        <ele>205.2</ele>
        <time>2022-01-15T15:38:13Z</time>
      </trkpt>
      <trkpt lat="44.51035" lon="1.36399">
        <ele>205.2</ele>
        <time>2022-01-15T15:38:14Z</time>
      </trkpt>
      <trkpt lat="44.51034" lon="1.36399">
        <ele>204.3</ele>
        <time>2022-01-15T15:38:15Z</time>
      </trkpt>
      <trkpt lat="44.51033" lon="1.36398">
        <ele>204.3</ele>
        <time>2022-01-15T15:38:16Z</time>
      </trkpt>
      <trkpt lat="44.51032" lon="1.36398">
        <ele>204.3</ele>
        <time>2022-01-15T15:38:17Z</time>
      </trkpt>
      <trkpt lat="44.51031" lon="1.36398">
        <ele>204.3</ele>
        <time>2022-01-15T15:38:18Z</time>
      </trkpt>
      <trkpt lat="44.5103" lon="1.36397">
        <ele>204.3</ele>
        <time>2022-01-15T15:38:19Z</time>
      </trkpt>
      <trkpt lat="44.5103" lon="1.36397">
        <ele>204.3</ele>
        <time>2022-01-15T15:38:30Z</time>
      </trkpt>
      <trkpt lat="44.51029" lon="1.36396">
        <ele>204.3</ele>
        <time>2022-01-15T15:38:31Z</time>
      </trkpt>
      <trkpt lat="44.51022" lon="1.36395">
        <ele>203.3</ele>
        <time>2022-01-15T15:38:33Z</time>
      </trkpt>
      <trkpt lat="44.51016" lon="1.36395">
        <ele>203.3</ele>
        <time>2022-01-15T15:38:34Z</time>
      </trkpt>
      <trkpt lat="44.51011" lon="1.36396">
        <ele>203.3</ele>
        <time>2022-01-15T15:38:35Z</time>
      </trkpt>
      <trkpt lat="44.51005" lon="1.36395">
        <ele>202.3</ele>
        <time>2022-01-15T15:38:36Z</time>
      </trkpt>
      <trkpt lat="44.51" lon="1.36394">
        <ele>202.3</ele>
        <time>2022-01-15T15:38:37Z</time>
      </trkpt>
      <trkpt lat="44.50996" lon="1.36392">
        <ele>201.2</ele>
        <time>2022-01-15T15:38:38Z</time>
      </trkpt>
      <trkpt lat="44.50991" lon="1.36392">
        <ele>201.2</ele>
        <time>2022-01-15T15:38:39Z</time>
      </trkpt>
      <trkpt lat="44.50989" lon="1.36395">
        <ele>201.2</ele>
        <time>2022-01-15T15:38:40Z</time>
      </trkpt>
      <trkpt lat="44.50983" lon="1.36398">
        <ele>200.3</ele>
        <time>2022-01-15T15:38:41Z</time>
      </trkpt>
      <trkpt lat="44.50977" lon="1.36402">
        <ele>200.3</ele>
        <time>2022-01-15T15:38:42Z</time>
      </trkpt>
      <trkpt lat="44.50971" lon="1.36406">
        <ele>200.3</ele>
        <time>2022-01-15T15:38:43Z</time>
      </trkpt>
      <trkpt lat="44.50964" lon="1.3641">
        <ele>200.3</ele>
        <time>2022-01-15T15:38:44Z</time>
      </trkpt>
      <trkpt lat="44.50958" lon="1.36413">
        <ele>199.4</ele>
        <time>2022-01-15T15:38:45Z</time>
      </trkpt>
      <trkpt lat="44.50953" lon="1.36414">
        <ele>199.4</ele>
        <time>2022-01-15T15:38:46Z</time>
      </trkpt>
      <trkpt lat="44.50948" lon="1.36413">
        <ele>198.1</ele>
        <time>2022-01-15T15:38:47Z</time>
      </trkpt>
      <trkpt lat="44.50945" lon="1.36412">
        <ele>198.1</ele>
        <time>2022-01-15T15:38:48Z</time>
      </trkpt>
      <trkpt lat="44.50937" lon="1.36411">
        <ele>198.1</ele>
        <time>2022-01-15T15:38:50Z</time>
      </trkpt>
      <trkpt lat="44.5093" lon="1.36413">
        <ele>196.6</ele>
        <time>2022-01-15T15:38:51Z</time>
      </trkpt>
      <trkpt lat="44.50924" lon="1.36416">
        <ele>196.7</ele>
        <time>2022-01-15T15:38:52Z</time>
      </trkpt>
      <trkpt lat="44.50918" lon="1.36419">
        <ele>195</ele>
        <time>2022-01-15T15:38:53Z</time>
      </trkpt>
      <trkpt lat="44.50914" lon="1.36422">
        <ele>194.8</ele>
        <time>2022-01-15T15:38:54Z</time>
      </trkpt>
      <trkpt lat="44.5091" lon="1.36424">
        <ele>193.2</ele>
        <time>2022-01-15T15:38:55Z</time>
      </trkpt>
      <trkpt lat="44.50906" lon="1.36427">
        <ele>193.2</ele>
        <time>2022-01-15T15:38:56Z</time>
      </trkpt>
      <trkpt lat="44.50903" lon="1.36429">
        <ele>193.2</ele>
        <time>2022-01-15T15:38:58Z</time>
      </trkpt>
      <trkpt lat="44.50905" lon="1.3643">
        <ele>193.2</ele>
        <time>2022-01-15T15:38:59Z</time>
      </trkpt>
      <trkpt lat="44.50906" lon="1.36431">
        <ele>193.2</ele>
        <time>2022-01-15T15:39:00Z</time>
      </trkpt>
      <trkpt lat="44.50906" lon="1.36431">
        <ele>193.3</ele>
        <time>2022-01-15T15:39:01Z</time>
      </trkpt>
      <trkpt lat="44.50905" lon="1.36431">
        <ele>193.3</ele>
        <time>2022-01-15T15:39:02Z</time>
      </trkpt>
      <trkpt lat="44.50904" lon="1.36431">
        <ele>193.3</ele>
        <time>2022-01-15T15:39:03Z</time>
      </trkpt>
      <trkpt lat="44.50903" lon="1.36431">
        <ele>193.3</ele>
        <time>2022-01-15T15:39:04Z</time>
      </trkpt>
      <trkpt lat="44.50902" lon="1.36431">
        <ele>193.3</ele>
        <time>2022-01-15T15:39:05Z</time>
      </trkpt>
      <trkpt lat="44.50901" lon="1.36431">
        <ele>193.3</ele>
        <time>2022-01-15T15:39:06Z</time>
      </trkpt>
      <trkpt lat="44.509" lon="1.36431">
        <ele>193.3</ele>
        <time>2022-01-15T15:39:12Z</time>
      </trkpt>
      <trkpt lat="44.50898" lon="1.36431">
        <ele>191.9</ele>
        <time>2022-01-15T15:39:13Z</time>
      </trkpt>
      <trkpt lat="44.50897" lon="1.36431">
        <ele>191.9</ele>
        <time>2022-01-15T15:39:14Z</time>
      </trkpt>
      <trkpt lat="44.50893" lon="1.36429">
        <ele>191.9</ele>
        <time>2022-01-15T15:39:16Z</time>
      </trkpt>
      <trkpt lat="44.50892" lon="1.36428">
        <ele>191.9</ele>
        <time>2022-01-15T15:39:17Z</time>
      </trkpt>
      <trkpt lat="44.50891" lon="1.36427">
        <ele>191.9</ele>
        <time>2022-01-15T15:39:18Z</time>
      </trkpt>
      <trkpt lat="44.50888" lon="1.36424">
        <ele>191.9</ele>
        <time>2022-01-15T15:39:19Z</time>
      </trkpt>
      <trkpt lat="44.50884" lon="1.36421">
        <ele>190.2</ele>
        <time>2022-01-15T15:39:20Z</time>
      </trkpt>
      <trkpt lat="44.50881" lon="1.36417">
        <ele>190.4</ele>
        <time>2022-01-15T15:39:21Z</time>
      </trkpt>
      <trkpt lat="44.50877" lon="1.36414">
        <ele>190.4</ele>
        <time>2022-01-15T15:39:22Z</time>
      </trkpt>
      <trkpt lat="44.50873" lon="1.36411">
        <ele>188.6</ele>
        <time>2022-01-15T15:39:23Z</time>
      </trkpt>
      <trkpt lat="44.50869" lon="1.36409">
        <ele>188.6</ele>
        <time>2022-01-15T15:39:24Z</time>
      </trkpt>
      <trkpt lat="44.50866" lon="1.36406">
        <ele>188.6</ele>
        <time>2022-01-15T15:39:25Z</time>
      </trkpt>
      <trkpt lat="44.50862" lon="1.36403">
        <ele>186.3</ele>
        <time>2022-01-15T15:39:26Z</time>
      </trkpt>
      <trkpt lat="44.50858" lon="1.364">
        <ele>186.1</ele>
        <time>2022-01-15T15:39:27Z</time>
      </trkpt>
      <trkpt lat="44.50857" lon="1.36396">
        <ele>186.1</ele>
        <time>2022-01-15T15:39:28Z</time>
      </trkpt>
      <trkpt lat="44.50857" lon="1.36394">
        <ele>186.1</ele>
        <time>2022-01-15T15:39:29Z</time>
      </trkpt>
      <trkpt lat="44.50856" lon="1.3639">
        <ele>186.1</ele>
        <time>2022-01-15T15:39:31Z</time>
      </trkpt>
      <trkpt lat="44.50854" lon="1.3639">
        <ele>186.1</ele>
        <time>2022-01-15T15:39:32Z</time>
      </trkpt>
      <trkpt lat="44.50851" lon="1.36389">
        <ele>186.2</ele>
        <time>2022-01-15T15:39:33Z</time>
      </trkpt>
      <trkpt lat="44.50842" lon="1.36385">
        <ele>184.1</ele>
        <time>2022-01-15T15:39:35Z</time>
      </trkpt>
      <trkpt lat="44.50835" lon="1.36384">
        <ele>182.6</ele>
        <time>2022-01-15T15:39:36Z</time>
      </trkpt>
      <trkpt lat="44.50829" lon="1.36383">
        <ele>182.6</ele>
        <time>2022-01-15T15:39:37Z</time>
      </trkpt>
      <trkpt lat="44.50824" lon="1.36381">
        <ele>181.3</ele>
        <time>2022-01-15T15:39:38Z</time>
      </trkpt>
      <trkpt lat="44.50819" lon="1.36381">
        <ele>181.3</ele>
        <time>2022-01-15T15:39:39Z</time>
      </trkpt>
      <trkpt lat="44.50816" lon="1.36383">
        <ele>181.3</ele>
        <time>2022-01-15T15:39:40Z</time>
      </trkpt>
      <trkpt lat="44.50812" lon="1.36383">
        <ele>180.1</ele>
        <time>2022-01-15T15:39:41Z</time>
      </trkpt>
      <trkpt lat="44.50807" lon="1.36382">
        <ele>180.1</ele>
        <time>2022-01-15T15:39:42Z</time>
      </trkpt>
      <trkpt lat="44.50802" lon="1.36383">
        <ele>180.1</ele>
        <time>2022-01-15T15:39:43Z</time>
      </trkpt>
      <trkpt lat="44.50796" lon="1.36383">
        <ele>178.8</ele>
        <time>2022-01-15T15:39:44Z</time>
      </trkpt>
      <trkpt lat="44.5079" lon="1.36382">
        <ele>178.8</ele>
        <time>2022-01-15T15:39:45Z</time>
      </trkpt>
      <trkpt lat="44.50784" lon="1.3638">
        <ele>177.7</ele>
        <time>2022-01-15T15:39:46Z</time>
      </trkpt>
      <trkpt lat="44.50779" lon="1.36377">
        <ele>177.7</ele>
        <time>2022-01-15T15:39:47Z</time>
      </trkpt>
      <trkpt lat="44.50773" lon="1.36375">
        <ele>176.4</ele>
        <time>2022-01-15T15:39:48Z</time>
      </trkpt>
      <trkpt lat="44.50768" lon="1.36373">
        <ele>176.4</ele>
        <time>2022-01-15T15:39:49Z</time>
      </trkpt>
      <trkpt lat="44.50763" lon="1.36371">
        <ele>175.3</ele>
        <time>2022-01-15T15:39:50Z</time>
      </trkpt>
      <trkpt lat="44.50758" lon="1.36369">
        <ele>175.3</ele>
        <time>2022-01-15T15:39:51Z</time>
      </trkpt>
      <trkpt lat="44.50753" lon="1.36368">
        <ele>175.3</ele>
        <time>2022-01-15T15:39:52Z</time>
      </trkpt>
      <trkpt lat="44.50747" lon="1.36368">
        <ele>174</ele>
        <time>2022-01-15T15:39:53Z</time>
      </trkpt>
      <trkpt lat="44.50742" lon="1.36367">
        <ele>174.2</ele>
        <time>2022-01-15T15:39:54Z</time>
      </trkpt>
      <trkpt lat="44.5074" lon="1.36368">
        <ele>173.1</ele>
        <time>2022-01-15T15:39:55Z</time>
      </trkpt>
      <trkpt lat="44.50739" lon="1.36368">
        <ele>173.1</ele>
        <time>2022-01-15T15:39:56Z</time>
      </trkpt>
      <trkpt lat="44.50739" lon="1.36369">
        <ele>173.1</ele>
        <time>2022-01-15T15:39:57Z</time>
      </trkpt>
      <trkpt lat="44.50738" lon="1.36369">
        <ele>173.1</ele>
        <time>2022-01-15T15:39:58Z</time>
      </trkpt>
      <trkpt lat="44.50738" lon="1.3637">
        <ele>173.2</ele>
        <time>2022-01-15T15:39:59Z</time>
      </trkpt>
      <trkpt lat="44.50738" lon="1.3637">
        <ele>173.2</ele>
        <time>2022-01-15T15:40:00Z</time>
      </trkpt>
      <trkpt lat="44.50737" lon="1.36371">
        <ele>173.2</ele>
        <time>2022-01-15T15:40:01Z</time>
      </trkpt>
      <trkpt lat="44.50729" lon="1.36371">
        <ele>173.2</ele>
        <time>2022-01-15T15:40:03Z</time>
      </trkpt>
      <trkpt lat="44.50722" lon="1.36372">
        <ele>172.2</ele>
        <time>2022-01-15T15:40:04Z</time>
      </trkpt>
      <trkpt lat="44.50717" lon="1.36371">
        <ele>172.2</ele>
        <time>2022-01-15T15:40:05Z</time>
      </trkpt>
      <trkpt lat="44.50712" lon="1.36369">
        <ele>171.2</ele>
        <time>2022-01-15T15:40:06Z</time>
      </trkpt>
      <trkpt lat="44.50706" lon="1.36367">
        <ele>171.1</ele>
        <time>2022-01-15T15:40:07Z</time>
      </trkpt>
      <trkpt lat="44.507" lon="1.36364">
        <ele>170</ele>
        <time>2022-01-15T15:40:08Z</time>
      </trkpt>
      <trkpt lat="44.50695" lon="1.36362">
        <ele>170</ele>
        <time>2022-01-15T15:40:09Z</time>
      </trkpt>
      <trkpt lat="44.50693" lon="1.36361">
        <ele>170</ele>
        <time>2022-01-15T15:40:10Z</time>
      </trkpt>
      <trkpt lat="44.50683" lon="1.36354">
        <ele>168.5</ele>
        <time>2022-01-15T15:40:12Z</time>
      </trkpt>
      <trkpt lat="44.50678" lon="1.36349">
        <ele>166.7</ele>
        <time>2022-01-15T15:40:13Z</time>
      </trkpt>
      <trkpt lat="44.50674" lon="1.36345">
        <ele>166.7</ele>
        <time>2022-01-15T15:40:14Z</time>
      </trkpt>
      <trkpt lat="44.50669" lon="1.36343">
        <ele>166.7</ele>
        <time>2022-01-15T15:40:15Z</time>
      </trkpt>
      <trkpt lat="44.50666" lon="1.36342">
        <ele>164.8</ele>
        <time>2022-01-15T15:40:16Z</time>
      </trkpt>
      <trkpt lat="44.50663" lon="1.36344">
        <ele>164.8</ele>
        <time>2022-01-15T15:40:17Z</time>
      </trkpt>
      <trkpt lat="44.50662" lon="1.3635">
        <ele>164.8</ele>
        <time>2022-01-15T15:40:18Z</time>
      </trkpt>
      <trkpt lat="44.5066" lon="1.36353">
        <ele>165.1</ele>
        <time>2022-01-15T15:40:19Z</time>
      </trkpt>
      <trkpt lat="44.50658" lon="1.36358">
        <ele>165.1</ele>
        <time>2022-01-15T15:40:21Z</time>
      </trkpt>
      <trkpt lat="44.50656" lon="1.36364">
        <ele>165.1</ele>
        <time>2022-01-15T15:40:22Z</time>
      </trkpt>
      <trkpt lat="44.50656" lon="1.36366">
        <ele>165.1</ele>
        <time>2022-01-15T15:40:23Z</time>
      </trkpt>
      <trkpt lat="44.50656" lon="1.36368">
        <ele>165.1</ele>
        <time>2022-01-15T15:40:24Z</time>
      </trkpt>
      <trkpt lat="44.50657" lon="1.36367">
        <ele>165.1</ele>
        <time>2022-01-15T15:40:25Z</time>
      </trkpt>
      <trkpt lat="44.50657" lon="1.36367">
        <ele>165.1</ele>
        <time>2022-01-15T15:40:26Z</time>
      </trkpt>
      <trkpt lat="44.50657" lon="1.36367">
        <ele>165.1</ele>
        <time>2022-01-15T15:40:27Z</time>
      </trkpt>
      <trkpt lat="44.50657" lon="1.36367">
        <ele>165.1</ele>
        <time>2022-01-15T15:40:28Z</time>
      </trkpt>
      <trkpt lat="44.50657" lon="1.36367">
        <ele>165.1</ele>
        <time>2022-01-15T15:40:29Z</time>
      </trkpt>
      <trkpt lat="44.50657" lon="1.36368">
        <ele>165.1</ele>
        <time>2022-01-15T15:40:30Z</time>
      </trkpt>
      <trkpt lat="44.50656" lon="1.36368">
        <ele>165.2</ele>
        <time>2022-01-15T15:40:32Z</time>
      </trkpt>
      <trkpt lat="44.50653" lon="1.3637">
        <ele>163.5</ele>
        <time>2022-01-15T15:40:33Z</time>
      </trkpt>
      <trkpt lat="44.50651" lon="1.36374">
        <ele>163.5</ele>
        <time>2022-01-15T15:40:34Z</time>
      </trkpt>
      <trkpt lat="44.50648" lon="1.36382">
        <ele>163.5</ele>
        <time>2022-01-15T15:40:35Z</time>
      </trkpt>
      <trkpt lat="44.50645" lon="1.36383">
        <ele>163.5</ele>
        <time>2022-01-15T15:40:36Z</time>
      </trkpt>
      <trkpt lat="44.50639" lon="1.36382">
        <ele>161.5</ele>
        <time>2022-01-15T15:40:38Z</time>
      </trkpt>
      <trkpt lat="44.50631" lon="1.36384">
        <ele>161.5</ele>
        <time>2022-01-15T15:40:39Z</time>
      </trkpt>
      <trkpt lat="44.50625" lon="1.36387">
        <ele>160.3</ele>
        <time>2022-01-15T15:40:40Z</time>
      </trkpt>
      <trkpt lat="44.50621" lon="1.36391">
        <ele>160.3</ele>
        <time>2022-01-15T15:40:41Z</time>
      </trkpt>
      <trkpt lat="44.50618" lon="1.36395">
        <ele>158.1</ele>
        <time>2022-01-15T15:40:43Z</time>
      </trkpt>
      <trkpt lat="44.50617" lon="1.36403">
        <ele>158.6</ele>
        <time>2022-01-15T15:40:44Z</time>
      </trkpt>
      <trkpt lat="44.50614" lon="1.36407">
        <ele>158.6</ele>
        <time>2022-01-15T15:40:45Z</time>
      </trkpt>
      <trkpt lat="44.5061" lon="1.3641">
        <ele>158.6</ele>
        <time>2022-01-15T15:40:46Z</time>
      </trkpt>
      <trkpt lat="44.50605" lon="1.36414">
        <ele>156.4</ele>
        <time>2022-01-15T15:40:47Z</time>
      </trkpt>
      <trkpt lat="44.50601" lon="1.36419">
        <ele>157.1</ele>
        <time>2022-01-15T15:40:48Z</time>
      </trkpt>
      <trkpt lat="44.50598" lon="1.36426">
        <ele>157.1</ele>
        <time>2022-01-15T15:40:49Z</time>
      </trkpt>
      <trkpt lat="44.50596" lon="1.36433">
        <ele>157.1</ele>
        <time>2022-01-15T15:40:50Z</time>
      </trkpt>
      <trkpt lat="44.50594" lon="1.36437">
        <ele>157.7</ele>
        <time>2022-01-15T15:40:51Z</time>
      </trkpt>
      <trkpt lat="44.50593" lon="1.3644">
        <ele>156</ele>
        <time>2022-01-15T15:40:52Z</time>
      </trkpt>
      <trkpt lat="44.50589" lon="1.36448">
        <ele>156</ele>
        <time>2022-01-15T15:40:54Z</time>
      </trkpt>
      <trkpt lat="44.50587" lon="1.36449">
        <ele>156</ele>
        <time>2022-01-15T15:40:55Z</time>
      </trkpt>
      <trkpt lat="44.50587" lon="1.36451">
        <ele>156</ele>
        <time>2022-01-15T15:40:56Z</time>
      </trkpt>
      <trkpt lat="44.50589" lon="1.3645">
        <ele>156</ele>
        <time>2022-01-15T15:40:57Z</time>
      </trkpt>
      <trkpt lat="44.5059" lon="1.3645">
        <ele>156</ele>
        <time>2022-01-15T15:40:58Z</time>
      </trkpt>
      <trkpt lat="44.5059" lon="1.36451">
        <ele>156</ele>
        <time>2022-01-15T15:40:59Z</time>
      </trkpt>
      <trkpt lat="44.5059" lon="1.36451">
        <ele>156</ele>
        <time>2022-01-15T15:41:00Z</time>
      </trkpt>
      <trkpt lat="44.5059" lon="1.36451">
        <ele>156</ele>
        <time>2022-01-15T15:41:01Z</time>
      </trkpt>
      <trkpt lat="44.5059" lon="1.36451">
        <ele>156</ele>
        <time>2022-01-15T15:41:02Z</time>
      </trkpt>
      <trkpt lat="44.5059" lon="1.36451">
        <ele>156</ele>
        <time>2022-01-15T15:41:03Z</time>
      </trkpt>
      <trkpt lat="44.5059" lon="1.36451">
        <ele>156</ele>
        <time>2022-01-15T15:41:04Z</time>
      </trkpt>
      <trkpt lat="44.50579" lon="1.36453">
        <ele>154.1</ele>
        <time>2022-01-15T15:42:58Z</time>
      </trkpt>
      <trkpt lat="44.50576" lon="1.36453">
        <ele>154.1</ele>
        <time>2022-01-15T15:42:59Z</time>
      </trkpt>
      <trkpt lat="44.50572" lon="1.36452">
        <ele>154.1</ele>
        <time>2022-01-15T15:43:00Z</time>
      </trkpt>
      <trkpt lat="44.50571" lon="1.36451">
        <ele>154.1</ele>
        <time>2022-01-15T15:43:01Z</time>
      </trkpt>
      <trkpt lat="44.50566" lon="1.3645">
        <ele>152.8</ele>
        <time>2022-01-15T15:43:02Z</time>
      </trkpt>
      <trkpt lat="44.50565" lon="1.36449">
        <ele>152.8</ele>
        <time>2022-01-15T15:43:03Z</time>
      </trkpt>
      <trkpt lat="44.5056" lon="1.36449">
        <ele>152.8</ele>
        <time>2022-01-15T15:43:04Z</time>
      </trkpt>
      <trkpt lat="44.50558" lon="1.36449">
        <ele>152.8</ele>
        <time>2022-01-15T15:43:05Z</time>
      </trkpt>
      <trkpt lat="44.50554" lon="1.36448">
        <ele>151.4</ele>
        <time>2022-01-15T15:43:06Z</time>
      </trkpt>
      <trkpt lat="44.50549" lon="1.36447">
        <ele>151.4</ele>
        <time>2022-01-15T15:43:07Z</time>
      </trkpt>
      <trkpt lat="44.50543" lon="1.36446">
        <ele>150.3</ele>
        <time>2022-01-15T15:43:08Z</time>
      </trkpt>
      <trkpt lat="44.50535" lon="1.36444">
        <ele>150.3</ele>
        <time>2022-01-15T15:43:10Z</time>
      </trkpt>
      <trkpt lat="44.5053" lon="1.36442">
        <ele>149</ele>
        <time>2022-01-15T15:43:11Z</time>
      </trkpt>
      <trkpt lat="44.50525" lon="1.3644">
        <ele>149</ele>
        <time>2022-01-15T15:43:12Z</time>
      </trkpt>
      <trkpt lat="44.5052" lon="1.36438">
        <ele>147.8</ele>
        <time>2022-01-15T15:43:13Z</time>
      </trkpt>
      <trkpt lat="44.50514" lon="1.36437">
        <ele>147.8</ele>
        <time>2022-01-15T15:43:14Z</time>
      </trkpt>
      <trkpt lat="44.50509" lon="1.36434">
        <ele>147.2</ele>
        <time>2022-01-15T15:43:15Z</time>
      </trkpt>
      <trkpt lat="44.50504" lon="1.36432">
        <ele>146.2</ele>
        <time>2022-01-15T15:43:16Z</time>
      </trkpt>
      <trkpt lat="44.50499" lon="1.36429">
        <ele>146.2</ele>
        <time>2022-01-15T15:43:17Z</time>
      </trkpt>
      <trkpt lat="44.50493" lon="1.36427">
        <ele>144.9</ele>
        <time>2022-01-15T15:43:18Z</time>
      </trkpt>
      <trkpt lat="44.50487" lon="1.36425">
        <ele>144.9</ele>
        <time>2022-01-15T15:43:19Z</time>
      </trkpt>
      <trkpt lat="44.50481" lon="1.36421">
        <ele>143.5</ele>
        <time>2022-01-15T15:43:20Z</time>
      </trkpt>
      <trkpt lat="44.50475" lon="1.36417">
        <ele>143.1</ele>
        <time>2022-01-15T15:43:21Z</time>
      </trkpt>
      <trkpt lat="44.5047" lon="1.36411">
        <ele>141.5</ele>
        <time>2022-01-15T15:43:22Z</time>
      </trkpt>
      <trkpt lat="44.50465" lon="1.36404">
        <ele>141.5</ele>
        <time>2022-01-15T15:43:23Z</time>
      </trkpt>
      <trkpt lat="44.50462" lon="1.36398">
        <ele>141.7</ele>
        <time>2022-01-15T15:43:24Z</time>
      </trkpt>
      <trkpt lat="44.50458" lon="1.36393">
        <ele>141</ele>
        <time>2022-01-15T15:43:25Z</time>
      </trkpt>
      <trkpt lat="44.50456" lon="1.36391">
        <ele>140.8</ele>
        <time>2022-01-15T15:43:26Z</time>
      </trkpt>
      <trkpt lat="44.50452" lon="1.36391">
        <ele>140.6</ele>
        <time>2022-01-15T15:43:27Z</time>
      </trkpt>
      <trkpt lat="44.5045" lon="1.36392">
        <ele>140.5</ele>
        <time>2022-01-15T15:43:28Z</time>
      </trkpt>
      <trkpt lat="44.50447" lon="1.36395">
        <ele>140.3</ele>
        <time>2022-01-15T15:43:29Z</time>
      </trkpt>
      <trkpt lat="44.50445" lon="1.36398">
        <ele>140.1</ele>
        <time>2022-01-15T15:43:30Z</time>
      </trkpt>
      <trkpt lat="44.50442" lon="1.36402">
        <ele>139.9</ele>
        <time>2022-01-15T15:43:31Z</time>
      </trkpt>
      <trkpt lat="44.50442" lon="1.36406">
        <ele>139.7</ele>
        <time>2022-01-15T15:43:33Z</time>
      </trkpt>
      <trkpt lat="44.5044" lon="1.36408">
        <ele>139.6</ele>
        <time>2022-01-15T15:43:34Z</time>
      </trkpt>
      <trkpt lat="44.50437" lon="1.3641">
        <ele>139.5</ele>
        <time>2022-01-15T15:43:35Z</time>
      </trkpt>
      <trkpt lat="44.50435" lon="1.3641">
        <ele>139.4</ele>
        <time>2022-01-15T15:43:36Z</time>
      </trkpt>
      <trkpt lat="44.50434" lon="1.36411">
        <ele>139.4</ele>
        <time>2022-01-15T15:43:37Z</time>
      </trkpt>
      <trkpt lat="44.50434" lon="1.36413">
        <ele>139.3</ele>
        <time>2022-01-15T15:43:38Z</time>
      </trkpt>
      <trkpt lat="44.50433" lon="1.36415">
        <ele>139.3</ele>
        <time>2022-01-15T15:43:39Z</time>
      </trkpt>
      <trkpt lat="44.50433" lon="1.36417">
        <ele>139.2</ele>
        <time>2022-01-15T15:43:41Z</time>
      </trkpt>
      <trkpt lat="44.50432" lon="1.36419">
        <ele>139.2</ele>
        <time>2022-01-15T15:43:42Z</time>
      </trkpt>
      <trkpt lat="44.5043" lon="1.36423">
        <ele>139.1</ele>
        <time>2022-01-15T15:43:43Z</time>
      </trkpt>
      <trkpt lat="44.5043" lon="1.36424">
        <ele>139</ele>
        <time>2022-01-15T15:43:44Z</time>
      </trkpt>
      <trkpt lat="44.50428" lon="1.36429">
        <ele>138.9</ele>
        <time>2022-01-15T15:43:46Z</time>
      </trkpt>
      <trkpt lat="44.50426" lon="1.36432">
        <ele>138.9</ele>
        <time>2022-01-15T15:43:47Z</time>
      </trkpt>
      <trkpt lat="44.50425" lon="1.36435">
        <ele>138.8</ele>
        <time>2022-01-15T15:43:48Z</time>
      </trkpt>
      <trkpt lat="44.50423" lon="1.36438">
        <ele>138.8</ele>
        <time>2022-01-15T15:43:49Z</time>
      </trkpt>
      <trkpt lat="44.50422" lon="1.36439">
        <ele>138.8</ele>
        <time>2022-01-15T15:43:50Z</time>
      </trkpt>
      <trkpt lat="44.50421" lon="1.36441">
        <ele>138.7</ele>
        <time>2022-01-15T15:43:51Z</time>
      </trkpt>
      <trkpt lat="44.50421" lon="1.36443">
        <ele>138.7</ele>
        <time>2022-01-15T15:43:52Z</time>
      </trkpt>
      <trkpt lat="44.5042" lon="1.36445">
        <ele>138.7</ele>
        <time>2022-01-15T15:43:53Z</time>
      </trkpt>
      <trkpt lat="44.50419" lon="1.36447">
        <ele>138.7</ele>
        <time>2022-01-15T15:43:54Z</time>
      </trkpt>
      <trkpt lat="44.50418" lon="1.36449">
        <ele>138.7</ele>
        <time>2022-01-15T15:43:55Z</time>
      </trkpt>
      <trkpt lat="44.50417" lon="1.3645">
        <ele>138.6</ele>
        <time>2022-01-15T15:43:56Z</time>
      </trkpt>
      <trkpt lat="44.50416" lon="1.36453">
        <ele>138.6</ele>
        <time>2022-01-15T15:43:57Z</time>
      </trkpt>
      <trkpt lat="44.50415" lon="1.36456">
        <ele>138.6</ele>
        <time>2022-01-15T15:43:59Z</time>
      </trkpt>
      <trkpt lat="44.50414" lon="1.36459">
        <ele>138.6</ele>
        <time>2022-01-15T15:44:00Z</time>
      </trkpt>
      <trkpt lat="44.50413" lon="1.36461">
        <ele>138.6</ele>
        <time>2022-01-15T15:44:02Z</time>
      </trkpt>
      <trkpt lat="44.50412" lon="1.36464">
        <ele>138.6</ele>
        <time>2022-01-15T15:44:03Z</time>
      </trkpt>
      <trkpt lat="44.50412" lon="1.36465">
        <ele>138.6</ele>
        <time>2022-01-15T15:44:04Z</time>
      </trkpt>
      <trkpt lat="44.50412" lon="1.36466">
        <ele>138.6</ele>
        <time>2022-01-15T15:44:05Z</time>
      </trkpt>
      <trkpt lat="44.50412" lon="1.36469">
        <ele>138.6</ele>
        <time>2022-01-15T15:44:06Z</time>
      </trkpt>
      <trkpt lat="44.50411" lon="1.3647">
        <ele>138.6</ele>
        <time>2022-01-15T15:44:07Z</time>
      </trkpt>
      <trkpt lat="44.5041" lon="1.36471">
        <ele>138.6</ele>
        <time>2022-01-15T15:44:08Z</time>
      </trkpt>
      <trkpt lat="44.5041" lon="1.36472">
        <ele>138.6</ele>
        <time>2022-01-15T15:44:09Z</time>
      </trkpt>
      <trkpt lat="44.50409" lon="1.36473">
        <ele>138.6</ele>
        <time>2022-01-15T15:44:11Z</time>
      </trkpt>
      <trkpt lat="44.50409" lon="1.36474">
        <ele>138.5</ele>
        <time>2022-01-15T15:44:12Z</time>
      </trkpt>
      <trkpt lat="44.50408" lon="1.36476">
        <ele>138.5</ele>
        <time>2022-01-15T15:44:13Z</time>
      </trkpt>
      <trkpt lat="44.50408" lon="1.36477">
        <ele>138.5</ele>
        <time>2022-01-15T15:44:14Z</time>
      </trkpt>
      <trkpt lat="44.50407" lon="1.36478">
        <ele>138.5</ele>
        <time>2022-01-15T15:44:15Z</time>
      </trkpt>
      <trkpt lat="44.50407" lon="1.36479">
        <ele>138.5</ele>
        <time>2022-01-15T15:44:36Z</time>
      </trkpt>
      <trkpt lat="44.50406" lon="1.3648">
        <ele>138.5</ele>
        <time>2022-01-15T15:44:37Z</time>
      </trkpt>
      <trkpt lat="44.50404" lon="1.36485">
        <ele>138.5</ele>
        <time>2022-01-15T15:44:38Z</time>
      </trkpt>
      <trkpt lat="44.50403" lon="1.36489">
        <ele>138.5</ele>
        <time>2022-01-15T15:44:39Z</time>
      </trkpt>
      <trkpt lat="44.50401" lon="1.36492">
        <ele>138.5</ele>
        <time>2022-01-15T15:44:40Z</time>
      </trkpt>
      <trkpt lat="44.504" lon="1.36496">
        <ele>138.5</ele>
        <time>2022-01-15T15:44:41Z</time>
      </trkpt>
      <trkpt lat="44.50398" lon="1.36502">
        <ele>138.5</ele>
        <time>2022-01-15T15:44:43Z</time>
      </trkpt>
      <trkpt lat="44.50398" lon="1.36502">
        <ele>138.5</ele>
        <time>2022-01-15T15:44:45Z</time>
      </trkpt>
      <trkpt lat="44.50397" lon="1.36503">
        <ele>138.5</ele>
        <time>2022-01-15T15:44:47Z</time>
      </trkpt>
      <trkpt lat="44.50397" lon="1.36504">
        <ele>138.5</ele>
        <time>2022-01-15T15:44:48Z</time>
      </trkpt>
      <trkpt lat="44.50397" lon="1.36505">
        <ele>138.5</ele>
        <time>2022-01-15T15:44:49Z</time>
      </trkpt>
      <trkpt lat="44.50397" lon="1.36505">
        <ele>138.5</ele>
        <time>2022-01-15T15:44:50Z</time>
      </trkpt>
      <trkpt lat="44.50396" lon="1.36507">
        <ele>138.5</ele>
        <time>2022-01-15T15:44:52Z</time>
      </trkpt>
      <trkpt lat="44.50395" lon="1.36509">
        <ele>138.4</ele>
        <time>2022-01-15T15:44:53Z</time>
      </trkpt>
      <trkpt lat="44.50393" lon="1.36513">
        <ele>138.4</ele>
        <time>2022-01-15T15:44:55Z</time>
      </trkpt>
      <trkpt lat="44.50391" lon="1.36519">
        <ele>138.4</ele>
        <time>2022-01-15T15:44:56Z</time>
      </trkpt>
      <trkpt lat="44.50389" lon="1.36525">
        <ele>138.4</ele>
        <time>2022-01-15T15:44:58Z</time>
      </trkpt>
      <trkpt lat="44.50387" lon="1.36529">
        <ele>138.4</ele>
        <time>2022-01-15T15:44:59Z</time>
      </trkpt>
      <trkpt lat="44.50387" lon="1.3653">
        <ele>138.4</ele>
        <time>2022-01-15T15:45:00Z</time>
      </trkpt>
      <trkpt lat="44.50385" lon="1.36534">
        <ele>138.4</ele>
        <time>2022-01-15T15:45:01Z</time>
      </trkpt>
      <trkpt lat="44.50385" lon="1.36536">
        <ele>138.4</ele>
        <time>2022-01-15T15:45:02Z</time>
      </trkpt>
      <trkpt lat="44.50383" lon="1.36539">
        <ele>138.3</ele>
        <time>2022-01-15T15:45:03Z</time>
      </trkpt>
      <trkpt lat="44.50383" lon="1.3654">
        <ele>138.3</ele>
        <time>2022-01-15T15:45:04Z</time>
      </trkpt>
      <trkpt lat="44.50382" lon="1.36544">
        <ele>138.3</ele>
        <time>2022-01-15T15:45:05Z</time>
      </trkpt>
      <trkpt lat="44.50381" lon="1.36546">
        <ele>138.3</ele>
        <time>2022-01-15T15:45:06Z</time>
      </trkpt>
      <trkpt lat="44.50381" lon="1.3655">
        <ele>138.3</ele>
        <time>2022-01-15T15:45:07Z</time>
      </trkpt>
      <trkpt lat="44.5038" lon="1.36552">
        <ele>138.3</ele>
        <time>2022-01-15T15:45:08Z</time>
      </trkpt>
      <trkpt lat="44.50379" lon="1.36555">
        <ele>138.2</ele>
        <time>2022-01-15T15:45:09Z</time>
      </trkpt>
      <trkpt lat="44.50378" lon="1.36558">
        <ele>138.2</ele>
        <time>2022-01-15T15:45:10Z</time>
      </trkpt>
      <trkpt lat="44.50378" lon="1.36562">
        <ele>138.2</ele>
        <time>2022-01-15T15:45:12Z</time>
      </trkpt>
      <trkpt lat="44.50377" lon="1.36566">
        <ele>138.1</ele>
        <time>2022-01-15T15:45:13Z</time>
      </trkpt>
      <trkpt lat="44.50377" lon="1.36568">
        <ele>138.1</ele>
        <time>2022-01-15T15:45:14Z</time>
      </trkpt>
      <trkpt lat="44.50376" lon="1.36573">
        <ele>138</ele>
        <time>2022-01-15T15:45:15Z</time>
      </trkpt>
      <trkpt lat="44.50376" lon="1.36575">
        <ele>138</ele>
        <time>2022-01-15T15:45:16Z</time>
      </trkpt>
      <trkpt lat="44.50375" lon="1.36579">
        <ele>137.9</ele>
        <time>2022-01-15T15:45:17Z</time>
      </trkpt>
      <trkpt lat="44.50374" lon="1.36583">
        <ele>137.8</ele>
        <time>2022-01-15T15:45:19Z</time>
      </trkpt>
      <trkpt lat="44.50373" lon="1.36588">
        <ele>137.7</ele>
        <time>2022-01-15T15:45:20Z</time>
      </trkpt>
      <trkpt lat="44.50373" lon="1.36592">
        <ele>137.6</ele>
        <time>2022-01-15T15:45:21Z</time>
      </trkpt>
      <trkpt lat="44.50371" lon="1.36598">
        <ele>137.5</ele>
        <time>2022-01-15T15:45:22Z</time>
      </trkpt>
      <trkpt lat="44.50369" lon="1.36604">
        <ele>137.4</ele>
        <time>2022-01-15T15:45:23Z</time>
      </trkpt>
      <trkpt lat="44.50367" lon="1.36612">
        <ele>137.2</ele>
        <time>2022-01-15T15:45:25Z</time>
      </trkpt>
      <trkpt lat="44.50366" lon="1.36618">
        <ele>137.1</ele>
        <time>2022-01-15T15:45:26Z</time>
      </trkpt>
      <trkpt lat="44.50365" lon="1.36623">
        <ele>137</ele>
        <time>2022-01-15T15:45:27Z</time>
      </trkpt>
      <trkpt lat="44.50364" lon="1.36628">
        <ele>137</ele>
        <time>2022-01-15T15:45:28Z</time>
      </trkpt>
      <trkpt lat="44.50362" lon="1.36633">
        <ele>136.9</ele>
        <time>2022-01-15T15:45:29Z</time>
      </trkpt>
      <trkpt lat="44.50361" lon="1.36639">
        <ele>136.8</ele>
        <time>2022-01-15T15:45:30Z</time>
      </trkpt>
      <trkpt lat="44.50358" lon="1.36646">
        <ele>136.7</ele>
        <time>2022-01-15T15:45:31Z</time>
      </trkpt>
      <trkpt lat="44.50356" lon="1.36651">
        <ele>136.6</ele>
        <time>2022-01-15T15:45:33Z</time>
      </trkpt>
      <trkpt lat="44.50355" lon="1.36656">
        <ele>136.6</ele>
        <time>2022-01-15T15:45:34Z</time>
      </trkpt>
      <trkpt lat="44.50354" lon="1.36659">
        <ele>136.6</ele>
        <time>2022-01-15T15:45:35Z</time>
      </trkpt>
      <trkpt lat="44.50352" lon="1.36664">
        <ele>136.5</ele>
        <time>2022-01-15T15:45:36Z</time>
      </trkpt>
      <trkpt lat="44.50352" lon="1.36665">
        <ele>136.5</ele>
        <time>2022-01-15T15:45:37Z</time>
      </trkpt>
      <trkpt lat="44.5035" lon="1.36671">
        <ele>136.5</ele>
        <time>2022-01-15T15:45:38Z</time>
      </trkpt>
      <trkpt lat="44.50348" lon="1.36676">
        <ele>136.5</ele>
        <time>2022-01-15T15:45:40Z</time>
      </trkpt>
      <trkpt lat="44.50347" lon="1.3668">
        <ele>136.5</ele>
        <time>2022-01-15T15:45:41Z</time>
      </trkpt>
      <trkpt lat="44.50346" lon="1.36686">
        <ele>136.5</ele>
        <time>2022-01-15T15:45:42Z</time>
      </trkpt>
      <trkpt lat="44.50344" lon="1.3669">
        <ele>136.5</ele>
        <time>2022-01-15T15:45:43Z</time>
      </trkpt>
      <trkpt lat="44.50344" lon="1.36694">
        <ele>136.5</ele>
        <time>2022-01-15T15:45:44Z</time>
      </trkpt>
      <trkpt lat="44.50342" lon="1.36698">
        <ele>136.5</ele>
        <time>2022-01-15T15:45:45Z</time>
      </trkpt>
      <trkpt lat="44.5034" lon="1.36703">
        <ele>136.6</ele>
        <time>2022-01-15T15:45:47Z</time>
      </trkpt>
      <trkpt lat="44.5034" lon="1.36707">
        <ele>136.6</ele>
        <time>2022-01-15T15:45:48Z</time>
      </trkpt>
      <trkpt lat="44.50339" lon="1.36711">
        <ele>136.6</ele>
        <time>2022-01-15T15:45:49Z</time>
      </trkpt>
      <trkpt lat="44.5034" lon="1.36717">
        <ele>136.6</ele>
        <time>2022-01-15T15:45:50Z</time>
      </trkpt>
      <trkpt lat="44.5034" lon="1.36718">
        <ele>136.9</ele>
        <time>2022-01-15T15:45:51Z</time>
      </trkpt>
      <trkpt lat="44.50342" lon="1.36724">
        <ele>137.3</ele>
        <time>2022-01-15T15:45:53Z</time>
      </trkpt>
      <trkpt lat="44.50343" lon="1.36726">
        <ele>137.5</ele>
        <time>2022-01-15T15:45:54Z</time>
      </trkpt>
      <trkpt lat="44.50345" lon="1.36729">
        <ele>137.7</ele>
        <time>2022-01-15T15:45:56Z</time>
      </trkpt>
      <trkpt lat="44.50347" lon="1.36732">
        <ele>138</ele>
        <time>2022-01-15T15:45:57Z</time>
      </trkpt>
      <trkpt lat="44.5035" lon="1.36736">
        <ele>138.3</ele>
        <time>2022-01-15T15:45:58Z</time>
      </trkpt>
      <trkpt lat="44.50351" lon="1.36737">
        <ele>138.4</ele>
        <time>2022-01-15T15:45:59Z</time>
      </trkpt>
      <trkpt lat="44.50353" lon="1.3674">
        <ele>138.6</ele>
        <time>2022-01-15T15:46:00Z</time>
      </trkpt>
      <trkpt lat="44.50356" lon="1.36744">
        <ele>138.9</ele>
        <time>2022-01-15T15:46:01Z</time>
      </trkpt>
      <trkpt lat="44.50357" lon="1.36746">
        <ele>139.1</ele>
        <time>2022-01-15T15:46:02Z</time>
      </trkpt>
      <trkpt lat="44.50359" lon="1.36748">
        <ele>139.3</ele>
        <time>2022-01-15T15:46:03Z</time>
      </trkpt>
      <trkpt lat="44.50361" lon="1.36751">
        <ele>139.5</ele>
        <time>2022-01-15T15:46:04Z</time>
      </trkpt>
      <trkpt lat="44.50363" lon="1.36754">
        <ele>139.7</ele>
        <time>2022-01-15T15:46:05Z</time>
      </trkpt>
      <trkpt lat="44.50365" lon="1.36757">
        <ele>140</ele>
        <time>2022-01-15T15:46:06Z</time>
      </trkpt>
      <trkpt lat="44.50367" lon="1.36761">
        <ele>140.3</ele>
        <time>2022-01-15T15:46:07Z</time>
      </trkpt>
      <trkpt lat="44.5037" lon="1.36765">
        <ele>140.6</ele>
        <time>2022-01-15T15:46:09Z</time>
      </trkpt>
      <trkpt lat="44.50373" lon="1.36768">
        <ele>140.8</ele>
        <time>2022-01-15T15:46:10Z</time>
      </trkpt>
      <trkpt lat="44.50375" lon="1.36772">
        <ele>141.1</ele>
        <time>2022-01-15T15:46:11Z</time>
      </trkpt>
      <trkpt lat="44.50378" lon="1.36776">
        <ele>141.4</ele>
        <time>2022-01-15T15:46:12Z</time>
      </trkpt>
      <trkpt lat="44.50379" lon="1.36778">
        <ele>141.5</ele>
        <time>2022-01-15T15:46:13Z</time>
      </trkpt>
      <trkpt lat="44.50381" lon="1.36782">
        <ele>141.8</ele>
        <time>2022-01-15T15:46:14Z</time>
      </trkpt>
      <trkpt lat="44.50382" lon="1.36784">
        <ele>141.9</ele>
        <time>2022-01-15T15:46:15Z</time>
      </trkpt>
      <trkpt lat="44.50384" lon="1.36787">
        <ele>142.2</ele>
        <time>2022-01-15T15:46:16Z</time>
      </trkpt>
      <trkpt lat="44.50387" lon="1.36793">
        <ele>142.5</ele>
        <time>2022-01-15T15:46:18Z</time>
      </trkpt>
      <trkpt lat="44.5039" lon="1.36797">
        <ele>142.8</ele>
        <time>2022-01-15T15:46:19Z</time>
      </trkpt>
      <trkpt lat="44.50393" lon="1.36802">
        <ele>143.1</ele>
        <time>2022-01-15T15:46:21Z</time>
      </trkpt>
      <trkpt lat="44.50394" lon="1.36806">
        <ele>143.2</ele>
        <time>2022-01-15T15:46:22Z</time>
      </trkpt>
      <trkpt lat="44.50396" lon="1.36811">
        <ele>143.5</ele>
        <time>2022-01-15T15:46:23Z</time>
      </trkpt>
      <trkpt lat="44.50397" lon="1.36812">
        <ele>143.5</ele>
        <time>2022-01-15T15:46:24Z</time>
      </trkpt>
      <trkpt lat="44.50399" lon="1.36816">
        <ele>143.7</ele>
        <time>2022-01-15T15:46:25Z</time>
      </trkpt>
      <trkpt lat="44.504" lon="1.36818">
        <ele>143.8</ele>
        <time>2022-01-15T15:46:26Z</time>
      </trkpt>
      <trkpt lat="44.50402" lon="1.36822">
        <ele>144</ele>
        <time>2022-01-15T15:46:27Z</time>
      </trkpt>
      <trkpt lat="44.50402" lon="1.36823">
        <ele>144</ele>
        <time>2022-01-15T15:46:28Z</time>
      </trkpt>
      <trkpt lat="44.50404" lon="1.36827">
        <ele>144.2</ele>
        <time>2022-01-15T15:46:29Z</time>
      </trkpt>
      <trkpt lat="44.50407" lon="1.36833">
        <ele>144.4</ele>
        <time>2022-01-15T15:46:31Z</time>
      </trkpt>
      <trkpt lat="44.50409" lon="1.36839">
        <ele>144.5</ele>
        <time>2022-01-15T15:46:33Z</time>
      </trkpt>
      <trkpt lat="44.50411" lon="1.36843">
        <ele>144.6</ele>
        <time>2022-01-15T15:46:34Z</time>
      </trkpt>
      <trkpt lat="44.50413" lon="1.36847">
        <ele>144.7</ele>
        <time>2022-01-15T15:46:35Z</time>
      </trkpt>
      <trkpt lat="44.50415" lon="1.36849">
        <ele>144.8</ele>
        <time>2022-01-15T15:46:36Z</time>
      </trkpt>
      <trkpt lat="44.50416" lon="1.36852">
        <ele>144.9</ele>
        <time>2022-01-15T15:46:38Z</time>
      </trkpt>
      <trkpt lat="44.50418" lon="1.36855">
        <ele>145</ele>
        <time>2022-01-15T15:46:39Z</time>
      </trkpt>
      <trkpt lat="44.50421" lon="1.36859">
        <ele>145</ele>
        <time>2022-01-15T15:46:41Z</time>
      </trkpt>
      <trkpt lat="44.50425" lon="1.36865">
        <ele>145.1</ele>
        <time>2022-01-15T15:46:43Z</time>
      </trkpt>
      <trkpt lat="44.50428" lon="1.36867">
        <ele>145.1</ele>
        <time>2022-01-15T15:46:44Z</time>
      </trkpt>
      <trkpt lat="44.50431" lon="1.36872">
        <ele>145.1</ele>
        <time>2022-01-15T15:46:46Z</time>
      </trkpt>
      <trkpt lat="44.50434" lon="1.36875">
        <ele>145.2</ele>
        <time>2022-01-15T15:46:47Z</time>
      </trkpt>
      <trkpt lat="44.50436" lon="1.36878">
        <ele>145.2</ele>
        <time>2022-01-15T15:46:48Z</time>
      </trkpt>
      <trkpt lat="44.50441" lon="1.36883">
        <ele>145.2</ele>
        <time>2022-01-15T15:46:50Z</time>
      </trkpt>
      <trkpt lat="44.50444" lon="1.36887">
        <ele>145.2</ele>
        <time>2022-01-15T15:46:51Z</time>
      </trkpt>
      <trkpt lat="44.50448" lon="1.36892">
        <ele>145.3</ele>
        <time>2022-01-15T15:46:53Z</time>
      </trkpt>
      <trkpt lat="44.50451" lon="1.36895">
        <ele>145.3</ele>
        <time>2022-01-15T15:46:54Z</time>
      </trkpt>
      <trkpt lat="44.50453" lon="1.36898">
        <ele>145.3</ele>
        <time>2022-01-15T15:46:55Z</time>
      </trkpt>
      <trkpt lat="44.50456" lon="1.36902">
        <ele>145.3</ele>
        <time>2022-01-15T15:46:56Z</time>
      </trkpt>
      <trkpt lat="44.50459" lon="1.36905">
        <ele>145.4</ele>
        <time>2022-01-15T15:46:57Z</time>
      </trkpt>
      <trkpt lat="44.50464" lon="1.3691">
        <ele>145.4</ele>
        <time>2022-01-15T15:46:59Z</time>
      </trkpt>
      <trkpt lat="44.50469" lon="1.36916">
        <ele>145.5</ele>
        <time>2022-01-15T15:47:01Z</time>
      </trkpt>
      <trkpt lat="44.50472" lon="1.3692">
        <ele>145.6</ele>
        <time>2022-01-15T15:47:02Z</time>
      </trkpt>
      <trkpt lat="44.50474" lon="1.36922">
        <ele>145.6</ele>
        <time>2022-01-15T15:47:03Z</time>
      </trkpt>
      <trkpt lat="44.50476" lon="1.36925">
        <ele>145.6</ele>
        <time>2022-01-15T15:47:04Z</time>
      </trkpt>
      <trkpt lat="44.50479" lon="1.36927">
        <ele>145.6</ele>
        <time>2022-01-15T15:47:05Z</time>
      </trkpt>
      <trkpt lat="44.50481" lon="1.3693">
        <ele>145.6</ele>
        <time>2022-01-15T15:47:06Z</time>
      </trkpt>
      <trkpt lat="44.50484" lon="1.36933">
        <ele>145.7</ele>
        <time>2022-01-15T15:47:07Z</time>
      </trkpt>
      <trkpt lat="44.50487" lon="1.36936">
        <ele>145.7</ele>
        <time>2022-01-15T15:47:08Z</time>
      </trkpt>
      <trkpt lat="44.50489" lon="1.36939">
        <ele>145.7</ele>
        <time>2022-01-15T15:47:09Z</time>
      </trkpt>
      <trkpt lat="44.50492" lon="1.36942">
        <ele>145.7</ele>
        <time>2022-01-15T15:47:10Z</time>
      </trkpt>
      <trkpt lat="44.50495" lon="1.36944">
        <ele>145.7</ele>
        <time>2022-01-15T15:47:11Z</time>
      </trkpt>
      <trkpt lat="44.50499" lon="1.36948">
        <ele>145.7</ele>
        <time>2022-01-15T15:47:12Z</time>
      </trkpt>
      <trkpt lat="44.50502" lon="1.36953">
        <ele>145.7</ele>
        <time>2022-01-15T15:47:14Z</time>
      </trkpt>
      <trkpt lat="44.50505" lon="1.36956">
        <ele>145.8</ele>
        <time>2022-01-15T15:47:15Z</time>
      </trkpt>
      <trkpt lat="44.50508" lon="1.36957">
        <ele>145.8</ele>
        <time>2022-01-15T15:47:16Z</time>
      </trkpt>
      <trkpt lat="44.50511" lon="1.3696">
        <ele>145.8</ele>
        <time>2022-01-15T15:47:17Z</time>
      </trkpt>
      <trkpt lat="44.50515" lon="1.36966">
        <ele>145.8</ele>
        <time>2022-01-15T15:47:19Z</time>
      </trkpt>
      <trkpt lat="44.5052" lon="1.36972">
        <ele>145.8</ele>
        <time>2022-01-15T15:47:21Z</time>
      </trkpt>
      <trkpt lat="44.50524" lon="1.36974">
        <ele>145.8</ele>
        <time>2022-01-15T15:47:22Z</time>
      </trkpt>
      <trkpt lat="44.50526" lon="1.36976">
        <ele>145.9</ele>
        <time>2022-01-15T15:47:23Z</time>
      </trkpt>
      <trkpt lat="44.50529" lon="1.36979">
        <ele>145.9</ele>
        <time>2022-01-15T15:47:24Z</time>
      </trkpt>
      <trkpt lat="44.50532" lon="1.36981">
        <ele>145.9</ele>
        <time>2022-01-15T15:47:25Z</time>
      </trkpt>
      <trkpt lat="44.50534" lon="1.36984">
        <ele>145.9</ele>
        <time>2022-01-15T15:47:26Z</time>
      </trkpt>
      <trkpt lat="44.50535" lon="1.36988">
        <ele>146</ele>
        <time>2022-01-15T15:47:27Z</time>
      </trkpt>
      <trkpt lat="44.50535" lon="1.36992">
        <ele>146</ele>
        <time>2022-01-15T15:47:28Z</time>
      </trkpt>
      <trkpt lat="44.50534" lon="1.36995">
        <ele>146</ele>
        <time>2022-01-15T15:47:29Z</time>
      </trkpt>
      <trkpt lat="44.50531" lon="1.37">
        <ele>145.4</ele>
        <time>2022-01-15T15:47:30Z</time>
      </trkpt>
      <trkpt lat="44.50529" lon="1.37005">
        <ele>145.1</ele>
        <time>2022-01-15T15:47:32Z</time>
      </trkpt>
      <trkpt lat="44.50527" lon="1.37009">
        <ele>145.1</ele>
        <time>2022-01-15T15:47:33Z</time>
      </trkpt>
      <trkpt lat="44.50524" lon="1.37016">
        <ele>145.2</ele>
        <time>2022-01-15T15:47:34Z</time>
      </trkpt>
      <trkpt lat="44.50522" lon="1.37021">
        <ele>145</ele>
        <time>2022-01-15T15:47:35Z</time>
      </trkpt>
      <trkpt lat="44.5052" lon="1.37026">
        <ele>144.6</ele>
        <time>2022-01-15T15:47:37Z</time>
      </trkpt>
      <trkpt lat="44.50518" lon="1.3703">
        <ele>144.6</ele>
        <time>2022-01-15T15:47:38Z</time>
      </trkpt>
      <trkpt lat="44.50516" lon="1.37034">
        <ele>144.7</ele>
        <time>2022-01-15T15:47:39Z</time>
      </trkpt>
      <trkpt lat="44.50514" lon="1.37041">
        <ele>144.6</ele>
        <time>2022-01-15T15:47:40Z</time>
      </trkpt>
      <trkpt lat="44.50512" lon="1.37047">
        <ele>144.6</ele>
        <time>2022-01-15T15:47:42Z</time>
      </trkpt>
      <trkpt lat="44.5051" lon="1.37052">
        <ele>144.6</ele>
        <time>2022-01-15T15:47:43Z</time>
      </trkpt>
      <trkpt lat="44.50509" lon="1.37055">
        <ele>144.6</ele>
        <time>2022-01-15T15:47:44Z</time>
      </trkpt>
      <trkpt lat="44.50506" lon="1.37063">
        <ele>144.3</ele>
        <time>2022-01-15T15:47:46Z</time>
      </trkpt>
      <trkpt lat="44.50505" lon="1.37069">
        <ele>144.3</ele>
        <time>2022-01-15T15:47:47Z</time>
      </trkpt>
      <trkpt lat="44.50504" lon="1.37073">
        <ele>144.4</ele>
        <time>2022-01-15T15:47:48Z</time>
      </trkpt>
      <trkpt lat="44.50501" lon="1.37076">
        <ele>144.4</ele>
        <time>2022-01-15T15:47:49Z</time>
      </trkpt>
      <trkpt lat="44.50499" lon="1.37079">
        <ele>144.4</ele>
        <time>2022-01-15T15:47:50Z</time>
      </trkpt>
      <trkpt lat="44.50497" lon="1.37083">
        <ele>144.5</ele>
        <time>2022-01-15T15:47:51Z</time>
      </trkpt>
      <trkpt lat="44.50494" lon="1.37086">
        <ele>144.1</ele>
        <time>2022-01-15T15:47:52Z</time>
      </trkpt>
      <trkpt lat="44.50493" lon="1.3709">
        <ele>144.3</ele>
        <time>2022-01-15T15:47:53Z</time>
      </trkpt>
      <trkpt lat="44.50491" lon="1.37093">
        <ele>144.3</ele>
        <time>2022-01-15T15:47:54Z</time>
      </trkpt>
      <trkpt lat="44.50489" lon="1.37098">
        <ele>144.4</ele>
        <time>2022-01-15T15:47:56Z</time>
      </trkpt>
      <trkpt lat="44.50487" lon="1.37102">
        <ele>144.4</ele>
        <time>2022-01-15T15:47:57Z</time>
      </trkpt>
      <trkpt lat="44.50486" lon="1.37106">
        <ele>144.6</ele>
        <time>2022-01-15T15:47:58Z</time>
      </trkpt>
      <trkpt lat="44.50484" lon="1.37111">
        <ele>144.6</ele>
        <time>2022-01-15T15:47:59Z</time>
      </trkpt>
      <trkpt lat="44.50482" lon="1.37115">
        <ele>144.4</ele>
        <time>2022-01-15T15:48:00Z</time>
      </trkpt>
      <trkpt lat="44.5048" lon="1.3712">
        <ele>144.4</ele>
        <time>2022-01-15T15:48:01Z</time>
      </trkpt>
      <trkpt lat="44.50478" lon="1.37125">
        <ele>144.6</ele>
        <time>2022-01-15T15:48:02Z</time>
      </trkpt>
      <trkpt lat="44.50474" lon="1.3713">
        <ele>144.6</ele>
        <time>2022-01-15T15:48:03Z</time>
      </trkpt>
      <trkpt lat="44.50472" lon="1.37135">
        <ele>144.7</ele>
        <time>2022-01-15T15:48:05Z</time>
      </trkpt>
      <trkpt lat="44.50469" lon="1.37141">
        <ele>144.6</ele>
        <time>2022-01-15T15:48:06Z</time>
      </trkpt>
      <trkpt lat="44.50465" lon="1.37145">
        <ele>144.7</ele>
        <time>2022-01-15T15:48:07Z</time>
      </trkpt>
      <trkpt lat="44.50461" lon="1.37148">
        <ele>144.7</ele>
        <time>2022-01-15T15:48:08Z</time>
      </trkpt>
      <trkpt lat="44.50459" lon="1.37149">
        <ele>144.4</ele>
        <time>2022-01-15T15:48:09Z</time>
      </trkpt>
      <trkpt lat="44.50454" lon="1.3715">
        <ele>144.5</ele>
        <time>2022-01-15T15:48:10Z</time>
      </trkpt>
      <trkpt lat="44.5045" lon="1.37153">
        <ele>144.5</ele>
        <time>2022-01-15T15:48:11Z</time>
      </trkpt>
      <trkpt lat="44.50448" lon="1.37158">
        <ele>144.7</ele>
        <time>2022-01-15T15:48:12Z</time>
      </trkpt>
      <trkpt lat="44.50448" lon="1.37161">
        <ele>144.8</ele>
        <time>2022-01-15T15:48:13Z</time>
      </trkpt>
      <trkpt lat="44.5045" lon="1.37167">
        <ele>144.8</ele>
        <time>2022-01-15T15:48:14Z</time>
      </trkpt>
      <trkpt lat="44.50455" lon="1.37168">
        <ele>144.8</ele>
        <time>2022-01-15T15:48:16Z</time>
      </trkpt>
      <trkpt lat="44.50456" lon="1.37168">
        <ele>144.9</ele>
        <time>2022-01-15T15:48:17Z</time>
      </trkpt>
      <trkpt lat="44.50455" lon="1.37167">
        <ele>144.9</ele>
        <time>2022-01-15T15:48:19Z</time>
      </trkpt>
      <trkpt lat="44.50453" lon="1.37164">
        <ele>144.9</ele>
        <time>2022-01-15T15:48:20Z</time>
      </trkpt>
      <trkpt lat="44.5045" lon="1.37163">
        <ele>145</ele>
        <time>2022-01-15T15:48:21Z</time>
      </trkpt>
      <trkpt lat="44.50443" lon="1.37161">
        <ele>144.7</ele>
        <time>2022-01-15T15:48:22Z</time>
      </trkpt>
      <trkpt lat="44.50439" lon="1.37157">
        <ele>144.5</ele>
        <time>2022-01-15T15:48:23Z</time>
      </trkpt>
      <trkpt lat="44.50435" lon="1.37155">
        <ele>144.5</ele>
        <time>2022-01-15T15:48:25Z</time>
      </trkpt>
      <trkpt lat="44.50429" lon="1.37156">
        <ele>144.3</ele>
        <time>2022-01-15T15:48:26Z</time>
      </trkpt>
      <trkpt lat="44.50424" lon="1.3716">
        <ele>144.5</ele>
        <time>2022-01-15T15:48:28Z</time>
      </trkpt>
      <trkpt lat="44.50421" lon="1.37164">
        <ele>144.3</ele>
        <time>2022-01-15T15:48:29Z</time>
      </trkpt>
      <trkpt lat="44.50418" lon="1.37168">
        <ele>144.3</ele>
        <time>2022-01-15T15:48:30Z</time>
      </trkpt>
      <trkpt lat="44.50417" lon="1.37171">
        <ele>144.3</ele>
        <time>2022-01-15T15:48:31Z</time>
      </trkpt>
      <trkpt lat="44.50415" lon="1.37175">
        <ele>144.4</ele>
        <time>2022-01-15T15:48:32Z</time>
      </trkpt>
      <trkpt lat="44.50414" lon="1.37178">
        <ele>144.6</ele>
        <time>2022-01-15T15:48:33Z</time>
      </trkpt>
      <trkpt lat="44.50413" lon="1.37182">
        <ele>144.6</ele>
        <time>2022-01-15T15:48:34Z</time>
      </trkpt>
      <trkpt lat="44.50411" lon="1.37187">
        <ele>144.6</ele>
        <time>2022-01-15T15:48:35Z</time>
      </trkpt>
      <trkpt lat="44.50409" lon="1.37191">
        <ele>144.4</ele>
        <time>2022-01-15T15:48:36Z</time>
      </trkpt>
      <trkpt lat="44.50408" lon="1.37195">
        <ele>144.6</ele>
        <time>2022-01-15T15:48:37Z</time>
      </trkpt>
      <trkpt lat="44.50406" lon="1.37199">
        <ele>144.6</ele>
        <time>2022-01-15T15:48:38Z</time>
      </trkpt>
      <trkpt lat="44.50405" lon="1.37202">
        <ele>144.6</ele>
        <time>2022-01-15T15:48:39Z</time>
      </trkpt>
      <trkpt lat="44.50403" lon="1.37206">
        <ele>144.7</ele>
        <time>2022-01-15T15:48:40Z</time>
      </trkpt>
      <trkpt lat="44.50401" lon="1.37212">
        <ele>144.9</ele>
        <time>2022-01-15T15:48:41Z</time>
      </trkpt>
      <trkpt lat="44.50399" lon="1.37217">
        <ele>144.9</ele>
        <time>2022-01-15T15:48:42Z</time>
      </trkpt>
      <trkpt lat="44.50398" lon="1.37223">
        <ele>144.9</ele>
        <time>2022-01-15T15:48:44Z</time>
      </trkpt>
      <trkpt lat="44.50396" lon="1.37227">
        <ele>144.9</ele>
        <time>2022-01-15T15:48:45Z</time>
      </trkpt>
      <trkpt lat="44.50394" lon="1.3723">
        <ele>144.9</ele>
        <time>2022-01-15T15:48:46Z</time>
      </trkpt>
      <trkpt lat="44.50392" lon="1.37236">
        <ele>145</ele>
        <time>2022-01-15T15:48:47Z</time>
      </trkpt>
      <trkpt lat="44.5039" lon="1.37242">
        <ele>145</ele>
        <time>2022-01-15T15:48:49Z</time>
      </trkpt>
      <trkpt lat="44.50388" lon="1.37247">
        <ele>145.1</ele>
        <time>2022-01-15T15:48:50Z</time>
      </trkpt>
      <trkpt lat="44.50386" lon="1.3725">
        <ele>145.2</ele>
        <time>2022-01-15T15:48:51Z</time>
      </trkpt>
      <trkpt lat="44.50385" lon="1.37253">
        <ele>144.9</ele>
        <time>2022-01-15T15:48:52Z</time>
      </trkpt>
      <trkpt lat="44.50384" lon="1.37257">
        <ele>144.9</ele>
        <time>2022-01-15T15:48:53Z</time>
      </trkpt>
      <trkpt lat="44.50382" lon="1.37261">
        <ele>144.7</ele>
        <time>2022-01-15T15:48:54Z</time>
      </trkpt>
      <trkpt lat="44.50381" lon="1.37264">
        <ele>144.8</ele>
        <time>2022-01-15T15:48:55Z</time>
      </trkpt>
      <trkpt lat="44.50379" lon="1.37269">
        <ele>144.8</ele>
        <time>2022-01-15T15:48:56Z</time>
      </trkpt>
      <trkpt lat="44.50378" lon="1.3727">
        <ele>144.8</ele>
        <time>2022-01-15T15:48:57Z</time>
      </trkpt>
      <trkpt lat="44.50377" lon="1.37272">
        <ele>144.8</ele>
        <time>2022-01-15T15:48:58Z</time>
      </trkpt>
      <trkpt lat="44.50377" lon="1.37272">
        <ele>144.8</ele>
        <time>2022-01-15T15:49:00Z</time>
      </trkpt>
      <trkpt lat="44.50377" lon="1.37272">
        <ele>144.8</ele>
        <time>2022-01-15T15:49:01Z</time>
      </trkpt>
      <trkpt lat="44.50377" lon="1.37272">
        <ele>144.8</ele>
        <time>2022-01-15T15:49:02Z</time>
      </trkpt>
      <trkpt lat="44.50378" lon="1.37278">
        <ele>144.8</ele>
        <time>2022-01-15T15:49:04Z</time>
      </trkpt>
      <trkpt lat="44.50382" lon="1.37285">
        <ele>144.7</ele>
        <time>2022-01-15T15:49:06Z</time>
      </trkpt>
      <trkpt lat="44.50384" lon="1.37289">
        <ele>144.7</ele>
        <time>2022-01-15T15:49:07Z</time>
      </trkpt>
      <trkpt lat="44.50388" lon="1.37293">
        <ele>144.6</ele>
        <time>2022-01-15T15:49:08Z</time>
      </trkpt>
      <trkpt lat="44.50391" lon="1.37297">
        <ele>144.5</ele>
        <time>2022-01-15T15:49:10Z</time>
      </trkpt>
      <trkpt lat="44.50393" lon="1.373">
        <ele>144.5</ele>
        <time>2022-01-15T15:49:11Z</time>
      </trkpt>
      <trkpt lat="44.50396" lon="1.37305">
        <ele>144.4</ele>
        <time>2022-01-15T15:49:12Z</time>
      </trkpt>
      <trkpt lat="44.504" lon="1.37308">
        <ele>144.3</ele>
        <time>2022-01-15T15:49:13Z</time>
      </trkpt>
      <trkpt lat="44.50405" lon="1.37313">
        <ele>144.1</ele>
        <time>2022-01-15T15:49:15Z</time>
      </trkpt>
      <trkpt lat="44.50408" lon="1.37317">
        <ele>144</ele>
        <time>2022-01-15T15:49:16Z</time>
      </trkpt>
      <trkpt lat="44.50411" lon="1.37321">
        <ele>143.9</ele>
        <time>2022-01-15T15:49:17Z</time>
      </trkpt>
      <trkpt lat="44.50415" lon="1.37328">
        <ele>143.7</ele>
        <time>2022-01-15T15:49:19Z</time>
      </trkpt>
      <trkpt lat="44.5042" lon="1.37333">
        <ele>143.5</ele>
        <time>2022-01-15T15:49:20Z</time>
      </trkpt>
      <trkpt lat="44.50423" lon="1.37338">
        <ele>143.3</ele>
        <time>2022-01-15T15:49:21Z</time>
      </trkpt>
      <trkpt lat="44.50427" lon="1.37342">
        <ele>143.2</ele>
        <time>2022-01-15T15:49:22Z</time>
      </trkpt>
      <trkpt lat="44.50431" lon="1.37346">
        <ele>143</ele>
        <time>2022-01-15T15:49:23Z</time>
      </trkpt>
      <trkpt lat="44.50435" lon="1.37349">
        <ele>142.8</ele>
        <time>2022-01-15T15:49:24Z</time>
      </trkpt>
      <trkpt lat="44.50439" lon="1.37353">
        <ele>142.6</ele>
        <time>2022-01-15T15:49:25Z</time>
      </trkpt>
      <trkpt lat="44.50443" lon="1.37357">
        <ele>142.4</ele>
        <time>2022-01-15T15:49:26Z</time>
      </trkpt>
      <trkpt lat="44.50447" lon="1.37362">
        <ele>142.2</ele>
        <time>2022-01-15T15:49:27Z</time>
      </trkpt>
      <trkpt lat="44.50451" lon="1.37367">
        <ele>141.9</ele>
        <time>2022-01-15T15:49:28Z</time>
      </trkpt>
      <trkpt lat="44.50456" lon="1.37373">
        <ele>141.6</ele>
        <time>2022-01-15T15:49:29Z</time>
      </trkpt>
      <trkpt lat="44.50461" lon="1.37378">
        <ele>141.3</ele>
        <time>2022-01-15T15:49:30Z</time>
      </trkpt>
      <trkpt lat="44.50466" lon="1.37384">
        <ele>141</ele>
        <time>2022-01-15T15:49:31Z</time>
      </trkpt>
      <trkpt lat="44.50471" lon="1.37389">
        <ele>140.7</ele>
        <time>2022-01-15T15:49:32Z</time>
      </trkpt>
      <trkpt lat="44.50476" lon="1.37395">
        <ele>140.4</ele>
        <time>2022-01-15T15:49:33Z</time>
      </trkpt>
      <trkpt lat="44.50482" lon="1.37401">
        <ele>140</ele>
        <time>2022-01-15T15:49:34Z</time>
      </trkpt>
      <trkpt lat="44.50487" lon="1.37405">
        <ele>139.7</ele>
        <time>2022-01-15T15:49:35Z</time>
      </trkpt>
      <trkpt lat="44.50491" lon="1.3741">
        <ele>139.4</ele>
        <time>2022-01-15T15:49:36Z</time>
      </trkpt>
      <trkpt lat="44.50495" lon="1.37416">
        <ele>139.1</ele>
        <time>2022-01-15T15:49:37Z</time>
      </trkpt>
      <trkpt lat="44.505" lon="1.37421">
        <ele>138.7</ele>
        <time>2022-01-15T15:49:38Z</time>
      </trkpt>
      <trkpt lat="44.50505" lon="1.37424">
        <ele>138.4</ele>
        <time>2022-01-15T15:49:39Z</time>
      </trkpt>
      <trkpt lat="44.50511" lon="1.37427">
        <ele>138</ele>
        <time>2022-01-15T15:49:40Z</time>
      </trkpt>
      <trkpt lat="44.50517" lon="1.37431">
        <ele>137.7</ele>
        <time>2022-01-15T15:49:41Z</time>
      </trkpt>
      <trkpt lat="44.50523" lon="1.37434">
        <ele>137.3</ele>
        <time>2022-01-15T15:49:42Z</time>
      </trkpt>
      <trkpt lat="44.5053" lon="1.37436">
        <ele>137</ele>
        <time>2022-01-15T15:49:43Z</time>
      </trkpt>
      <trkpt lat="44.50537" lon="1.37438">
        <ele>136.6</ele>
        <time>2022-01-15T15:49:44Z</time>
      </trkpt>
      <trkpt lat="44.50544" lon="1.37441">
        <ele>136.3</ele>
        <time>2022-01-15T15:49:45Z</time>
      </trkpt>
      <trkpt lat="44.50551" lon="1.37443">
        <ele>135.9</ele>
        <time>2022-01-15T15:49:46Z</time>
      </trkpt>
      <trkpt lat="44.50559" lon="1.37445">
        <ele>135.6</ele>
        <time>2022-01-15T15:49:47Z</time>
      </trkpt>
      <trkpt lat="44.50568" lon="1.37448">
        <ele>135.2</ele>
        <time>2022-01-15T15:49:48Z</time>
      </trkpt>
      <trkpt lat="44.50576" lon="1.37452">
        <ele>135</ele>
        <time>2022-01-15T15:49:49Z</time>
      </trkpt>
      <trkpt lat="44.50585" lon="1.37458">
        <ele>134.8</ele>
        <time>2022-01-15T15:49:50Z</time>
      </trkpt>
      <trkpt lat="44.50594" lon="1.37462">
        <ele>134.6</ele>
        <time>2022-01-15T15:49:51Z</time>
      </trkpt>
      <trkpt lat="44.50603" lon="1.37467">
        <ele>134.4</ele>
        <time>2022-01-15T15:49:52Z</time>
      </trkpt>
      <trkpt lat="44.50612" lon="1.37473">
        <ele>134.3</ele>
        <time>2022-01-15T15:49:53Z</time>
      </trkpt>
      <trkpt lat="44.5062" lon="1.37479">
        <ele>134.2</ele>
        <time>2022-01-15T15:49:54Z</time>
      </trkpt>
      <trkpt lat="44.50627" lon="1.37485">
        <ele>134.1</ele>
        <time>2022-01-15T15:49:55Z</time>
      </trkpt>
      <trkpt lat="44.50634" lon="1.37491">
        <ele>134</ele>
        <time>2022-01-15T15:49:56Z</time>
      </trkpt>
      <trkpt lat="44.50642" lon="1.37497">
        <ele>133.9</ele>
        <time>2022-01-15T15:49:57Z</time>
      </trkpt>
      <trkpt lat="44.50651" lon="1.37503">
        <ele>133.9</ele>
        <time>2022-01-15T15:49:58Z</time>
      </trkpt>
      <trkpt lat="44.50659" lon="1.37509">
        <ele>133.8</ele>
        <time>2022-01-15T15:49:59Z</time>
      </trkpt>
      <trkpt lat="44.50667" lon="1.37514">
        <ele>133.8</ele>
        <time>2022-01-15T15:50:00Z</time>
      </trkpt>
      <trkpt lat="44.50674" lon="1.3752">
        <ele>133.8</ele>
        <time>2022-01-15T15:50:01Z</time>
      </trkpt>
      <trkpt lat="44.50681" lon="1.37527">
        <ele>133.8</ele>
        <time>2022-01-15T15:50:02Z</time>
      </trkpt>
      <trkpt lat="44.50687" lon="1.37533">
        <ele>133.7</ele>
        <time>2022-01-15T15:50:03Z</time>
      </trkpt>
      <trkpt lat="44.50693" lon="1.3754">
        <ele>133.7</ele>
        <time>2022-01-15T15:50:04Z</time>
      </trkpt>
      <trkpt lat="44.50698" lon="1.37547">
        <ele>133.6</ele>
        <time>2022-01-15T15:50:05Z</time>
      </trkpt>
      <trkpt lat="44.50702" lon="1.37552">
        <ele>133.5</ele>
        <time>2022-01-15T15:50:06Z</time>
      </trkpt>
      <trkpt lat="44.50706" lon="1.37557">
        <ele>133.5</ele>
        <time>2022-01-15T15:50:07Z</time>
      </trkpt>
      <trkpt lat="44.50711" lon="1.37562">
        <ele>133.4</ele>
        <time>2022-01-15T15:50:08Z</time>
      </trkpt>
      <trkpt lat="44.50715" lon="1.37567">
        <ele>133.4</ele>
        <time>2022-01-15T15:50:09Z</time>
      </trkpt>
      <trkpt lat="44.50719" lon="1.37572">
        <ele>133.3</ele>
        <time>2022-01-15T15:50:10Z</time>
      </trkpt>
      <trkpt lat="44.50723" lon="1.37576">
        <ele>133.3</ele>
        <time>2022-01-15T15:50:11Z</time>
      </trkpt>
      <trkpt lat="44.50727" lon="1.37581">
        <ele>133.2</ele>
        <time>2022-01-15T15:50:12Z</time>
      </trkpt>
      <trkpt lat="44.5073" lon="1.37585">
        <ele>133.2</ele>
        <time>2022-01-15T15:50:13Z</time>
      </trkpt>
      <trkpt lat="44.50734" lon="1.3759">
        <ele>133.2</ele>
        <time>2022-01-15T15:50:14Z</time>
      </trkpt>
      <trkpt lat="44.50737" lon="1.37595">
        <ele>133.1</ele>
        <time>2022-01-15T15:50:15Z</time>
      </trkpt>
      <trkpt lat="44.50741" lon="1.37599">
        <ele>133.1</ele>
        <time>2022-01-15T15:50:16Z</time>
      </trkpt>
      <trkpt lat="44.50743" lon="1.37603">
        <ele>133.1</ele>
        <time>2022-01-15T15:50:17Z</time>
      </trkpt>
      <trkpt lat="44.50746" lon="1.37607">
        <ele>133.1</ele>
        <time>2022-01-15T15:50:18Z</time>
      </trkpt>
      <trkpt lat="44.50749" lon="1.37611">
        <ele>133.1</ele>
        <time>2022-01-15T15:50:19Z</time>
      </trkpt>
      <trkpt lat="44.50752" lon="1.37615">
        <ele>133.2</ele>
        <time>2022-01-15T15:50:20Z</time>
      </trkpt>
      <trkpt lat="44.50755" lon="1.37619">
        <ele>133.2</ele>
        <time>2022-01-15T15:50:21Z</time>
      </trkpt>
      <trkpt lat="44.50758" lon="1.37622">
        <ele>133.2</ele>
        <time>2022-01-15T15:50:22Z</time>
      </trkpt>
      <trkpt lat="44.50761" lon="1.37627">
        <ele>133.3</ele>
        <time>2022-01-15T15:50:23Z</time>
      </trkpt>
      <trkpt lat="44.50764" lon="1.37631">
        <ele>133.4</ele>
        <time>2022-01-15T15:50:24Z</time>
      </trkpt>
      <trkpt lat="44.50767" lon="1.37636">
        <ele>133.4</ele>
        <time>2022-01-15T15:50:26Z</time>
      </trkpt>
      <trkpt lat="44.50769" lon="1.37642">
        <ele>133.5</ele>
        <time>2022-01-15T15:50:27Z</time>
      </trkpt>
      <trkpt lat="44.50774" lon="1.37651">
        <ele>133.5</ele>
        <time>2022-01-15T15:50:29Z</time>
      </trkpt>
      <trkpt lat="44.50775" lon="1.37655">
        <ele>133.5</ele>
        <time>2022-01-15T15:50:30Z</time>
      </trkpt>
      <trkpt lat="44.50776" lon="1.37655">
        <ele>133.5</ele>
        <time>2022-01-15T15:50:31Z</time>
      </trkpt>
      <trkpt lat="44.50777" lon="1.37655">
        <ele>133.5</ele>
        <time>2022-01-15T15:50:32Z</time>
      </trkpt>
      <trkpt lat="44.50777" lon="1.37655">
        <ele>133.5</ele>
        <time>2022-01-15T15:50:33Z</time>
      </trkpt>
      <trkpt lat="44.50777" lon="1.37655">
        <ele>133.5</ele>
        <time>2022-01-15T15:50:34Z</time>
      </trkpt>
      <trkpt lat="44.50777" lon="1.37655">
        <ele>133.5</ele>
        <time>2022-01-15T15:50:35Z</time>
      </trkpt>
      <trkpt lat="44.50777" lon="1.37655">
        <ele>133.5</ele>
        <time>2022-01-15T15:50:36Z</time>
      </trkpt>
      <trkpt lat="44.50777" lon="1.37654">
        <ele>133.5</ele>
        <time>2022-01-15T15:50:37Z</time>
      </trkpt>
      <trkpt lat="44.50777" lon="1.37654">
        <ele>133.5</ele>
        <time>2022-01-15T15:50:38Z</time>
      </trkpt>
      <trkpt lat="44.50777" lon="1.37654">
        <ele>133.5</ele>
        <time>2022-01-15T15:50:39Z</time>
      </trkpt>
      <trkpt lat="44.50777" lon="1.37654">
        <ele>133.5</ele>
        <time>2022-01-15T15:50:41Z</time>
      </trkpt>
      <trkpt lat="44.5078" lon="1.37659">
        <ele>133.5</ele>
        <time>2022-01-15T15:51:01Z</time>
      </trkpt>
      <trkpt lat="44.50783" lon="1.37662">
        <ele>133.5</ele>
        <time>2022-01-15T15:51:02Z</time>
      </trkpt>
      <trkpt lat="44.50788" lon="1.37665">
        <ele>133.6</ele>
        <time>2022-01-15T15:51:03Z</time>
      </trkpt>
      <trkpt lat="44.50792" lon="1.3767">
        <ele>133.6</ele>
        <time>2022-01-15T15:51:04Z</time>
      </trkpt>
      <trkpt lat="44.50796" lon="1.37675">
        <ele>133.6</ele>
        <time>2022-01-15T15:51:05Z</time>
      </trkpt>
      <trkpt lat="44.50799" lon="1.37682">
        <ele>133.5</ele>
        <time>2022-01-15T15:51:06Z</time>
      </trkpt>
      <trkpt lat="44.50802" lon="1.37688">
        <ele>133.5</ele>
        <time>2022-01-15T15:51:07Z</time>
      </trkpt>
      <trkpt lat="44.50803" lon="1.37692">
        <ele>133.5</ele>
        <time>2022-01-15T15:51:08Z</time>
      </trkpt>
      <trkpt lat="44.50806" lon="1.37695">
        <ele>133.5</ele>
        <time>2022-01-15T15:51:09Z</time>
      </trkpt>
      <trkpt lat="44.50808" lon="1.377">
        <ele>133.4</ele>
        <time>2022-01-15T15:51:10Z</time>
      </trkpt>
      <trkpt lat="44.5081" lon="1.37705">
        <ele>133.4</ele>
        <time>2022-01-15T15:51:11Z</time>
      </trkpt>
      <trkpt lat="44.50813" lon="1.3771">
        <ele>133.4</ele>
        <time>2022-01-15T15:51:12Z</time>
      </trkpt>
      <trkpt lat="44.50815" lon="1.37714">
        <ele>133.4</ele>
        <time>2022-01-15T15:51:13Z</time>
      </trkpt>
      <trkpt lat="44.50816" lon="1.37718">
        <ele>133.4</ele>
        <time>2022-01-15T15:51:14Z</time>
      </trkpt>
      <trkpt lat="44.50818" lon="1.37722">
        <ele>133.4</ele>
        <time>2022-01-15T15:51:15Z</time>
      </trkpt>
      <trkpt lat="44.5082" lon="1.37726">
        <ele>133.3</ele>
        <time>2022-01-15T15:51:16Z</time>
      </trkpt>
      <trkpt lat="44.50822" lon="1.37731">
        <ele>133.3</ele>
        <time>2022-01-15T15:51:17Z</time>
      </trkpt>
      <trkpt lat="44.50825" lon="1.37734">
        <ele>133.3</ele>
        <time>2022-01-15T15:51:18Z</time>
      </trkpt>
      <trkpt lat="44.50827" lon="1.37737">
        <ele>133.3</ele>
        <time>2022-01-15T15:51:19Z</time>
      </trkpt>
      <trkpt lat="44.5083" lon="1.37741">
        <ele>133.3</ele>
        <time>2022-01-15T15:51:20Z</time>
      </trkpt>
      <trkpt lat="44.50831" lon="1.37745">
        <ele>133.3</ele>
        <time>2022-01-15T15:51:21Z</time>
      </trkpt>
      <trkpt lat="44.50834" lon="1.37749">
        <ele>133.3</ele>
        <time>2022-01-15T15:51:22Z</time>
      </trkpt>
      <trkpt lat="44.50836" lon="1.37753">
        <ele>133.3</ele>
        <time>2022-01-15T15:51:23Z</time>
      </trkpt>
      <trkpt lat="44.50837" lon="1.37757">
        <ele>133.3</ele>
        <time>2022-01-15T15:51:24Z</time>
      </trkpt>
      <trkpt lat="44.50839" lon="1.37761">
        <ele>133.2</ele>
        <time>2022-01-15T15:51:25Z</time>
      </trkpt>
      <trkpt lat="44.50842" lon="1.37766">
        <ele>133.2</ele>
        <time>2022-01-15T15:51:26Z</time>
      </trkpt>
      <trkpt lat="44.50845" lon="1.3777">
        <ele>133.2</ele>
        <time>2022-01-15T15:51:27Z</time>
      </trkpt>
      <trkpt lat="44.50847" lon="1.37775">
        <ele>133.2</ele>
        <time>2022-01-15T15:51:28Z</time>
      </trkpt>
      <trkpt lat="44.5085" lon="1.37782">
        <ele>133.2</ele>
        <time>2022-01-15T15:51:29Z</time>
      </trkpt>
      <trkpt lat="44.50853" lon="1.37787">
        <ele>133.2</ele>
        <time>2022-01-15T15:51:30Z</time>
      </trkpt>
      <trkpt lat="44.50855" lon="1.37794">
        <ele>133.2</ele>
        <time>2022-01-15T15:51:32Z</time>
      </trkpt>
      <trkpt lat="44.50859" lon="1.37799">
        <ele>133.2</ele>
        <time>2022-01-15T15:51:33Z</time>
      </trkpt>
      <trkpt lat="44.50862" lon="1.37804">
        <ele>133.2</ele>
        <time>2022-01-15T15:51:34Z</time>
      </trkpt>
      <trkpt lat="44.50865" lon="1.37809">
        <ele>133.2</ele>
        <time>2022-01-15T15:51:35Z</time>
      </trkpt>
      <trkpt lat="44.50868" lon="1.37814">
        <ele>133.3</ele>
        <time>2022-01-15T15:51:36Z</time>
      </trkpt>
      <trkpt lat="44.50871" lon="1.37819">
        <ele>133.3</ele>
        <time>2022-01-15T15:51:37Z</time>
      </trkpt>
      <trkpt lat="44.50875" lon="1.37826">
        <ele>133.3</ele>
        <time>2022-01-15T15:51:38Z</time>
      </trkpt>
      <trkpt lat="44.50879" lon="1.37833">
        <ele>133.4</ele>
        <time>2022-01-15T15:51:40Z</time>
      </trkpt>
      <trkpt lat="44.50884" lon="1.37839">
        <ele>133.5</ele>
        <time>2022-01-15T15:51:41Z</time>
      </trkpt>
      <trkpt lat="44.50888" lon="1.37846">
        <ele>133.6</ele>
        <time>2022-01-15T15:51:43Z</time>
      </trkpt>
      <trkpt lat="44.50891" lon="1.3785">
        <ele>133.6</ele>
        <time>2022-01-15T15:51:44Z</time>
      </trkpt>
      <trkpt lat="44.50896" lon="1.37855">
        <ele>133.7</ele>
        <time>2022-01-15T15:51:45Z</time>
      </trkpt>
      <trkpt lat="44.50899" lon="1.3786">
        <ele>133.7</ele>
        <time>2022-01-15T15:51:47Z</time>
      </trkpt>
      <trkpt lat="44.50901" lon="1.37864">
        <ele>133.7</ele>
        <time>2022-01-15T15:51:48Z</time>
      </trkpt>
      <trkpt lat="44.50904" lon="1.37868">
        <ele>133.7</ele>
        <time>2022-01-15T15:51:49Z</time>
      </trkpt>
      <trkpt lat="44.50907" lon="1.37871">
        <ele>133.7</ele>
        <time>2022-01-15T15:51:50Z</time>
      </trkpt>
      <trkpt lat="44.5091" lon="1.37874">
        <ele>133.7</ele>
        <time>2022-01-15T15:51:51Z</time>
      </trkpt>
      <trkpt lat="44.50915" lon="1.3788">
        <ele>133.7</ele>
        <time>2022-01-15T15:51:52Z</time>
      </trkpt>
      <trkpt lat="44.50919" lon="1.37882">
        <ele>133.8</ele>
        <time>2022-01-15T15:51:53Z</time>
      </trkpt>
      <trkpt lat="44.50924" lon="1.37886">
        <ele>133.8</ele>
        <time>2022-01-15T15:51:55Z</time>
      </trkpt>
      <trkpt lat="44.50927" lon="1.37889">
        <ele>133.9</ele>
        <time>2022-01-15T15:51:56Z</time>
      </trkpt>
      <trkpt lat="44.5093" lon="1.37892">
        <ele>133.9</ele>
        <time>2022-01-15T15:51:57Z</time>
      </trkpt>
      <trkpt lat="44.50932" lon="1.37895">
        <ele>133.9</ele>
        <time>2022-01-15T15:51:58Z</time>
      </trkpt>
      <trkpt lat="44.50935" lon="1.37898">
        <ele>134</ele>
        <time>2022-01-15T15:51:59Z</time>
      </trkpt>
      <trkpt lat="44.50939" lon="1.37901">
        <ele>134</ele>
        <time>2022-01-15T15:52:00Z</time>
      </trkpt>
      <trkpt lat="44.50942" lon="1.37904">
        <ele>134.1</ele>
        <time>2022-01-15T15:52:01Z</time>
      </trkpt>
      <trkpt lat="44.50945" lon="1.37907">
        <ele>134.1</ele>
        <time>2022-01-15T15:52:02Z</time>
      </trkpt>
      <trkpt lat="44.50948" lon="1.3791">
        <ele>134.1</ele>
        <time>2022-01-15T15:52:03Z</time>
      </trkpt>
      <trkpt lat="44.50951" lon="1.37913">
        <ele>134.2</ele>
        <time>2022-01-15T15:52:04Z</time>
      </trkpt>
      <trkpt lat="44.50954" lon="1.37915">
        <ele>134.2</ele>
        <time>2022-01-15T15:52:05Z</time>
      </trkpt>
      <trkpt lat="44.50957" lon="1.37918">
        <ele>134.3</ele>
        <time>2022-01-15T15:52:06Z</time>
      </trkpt>
      <trkpt lat="44.50959" lon="1.3792">
        <ele>134.3</ele>
        <time>2022-01-15T15:52:07Z</time>
      </trkpt>
      <trkpt lat="44.50963" lon="1.37923">
        <ele>134.4</ele>
        <time>2022-01-15T15:52:08Z</time>
      </trkpt>
      <trkpt lat="44.50965" lon="1.37926">
        <ele>134.4</ele>
        <time>2022-01-15T15:52:09Z</time>
      </trkpt>
      <trkpt lat="44.50968" lon="1.37928">
        <ele>134.4</ele>
        <time>2022-01-15T15:52:10Z</time>
      </trkpt>
      <trkpt lat="44.50971" lon="1.3793">
        <ele>134.5</ele>
        <time>2022-01-15T15:52:11Z</time>
      </trkpt>
      <trkpt lat="44.50975" lon="1.37932">
        <ele>134.5</ele>
        <time>2022-01-15T15:52:12Z</time>
      </trkpt>
      <trkpt lat="44.50978" lon="1.37934">
        <ele>134.5</ele>
        <time>2022-01-15T15:52:13Z</time>
      </trkpt>
      <trkpt lat="44.50982" lon="1.37936">
        <ele>134.6</ele>
        <time>2022-01-15T15:52:14Z</time>
      </trkpt>
      <trkpt lat="44.50986" lon="1.37938">
        <ele>134.6</ele>
        <time>2022-01-15T15:52:15Z</time>
      </trkpt>
      <trkpt lat="44.50989" lon="1.3794">
        <ele>134.6</ele>
        <time>2022-01-15T15:52:16Z</time>
      </trkpt>
      <trkpt lat="44.50992" lon="1.37941">
        <ele>134.7</ele>
        <time>2022-01-15T15:52:17Z</time>
      </trkpt>
      <trkpt lat="44.50997" lon="1.37943">
        <ele>134.7</ele>
        <time>2022-01-15T15:52:18Z</time>
      </trkpt>
      <trkpt lat="44.51002" lon="1.37944">
        <ele>134.8</ele>
        <time>2022-01-15T15:52:19Z</time>
      </trkpt>
      <trkpt lat="44.51007" lon="1.37947">
        <ele>134.8</ele>
        <time>2022-01-15T15:52:21Z</time>
      </trkpt>
      <trkpt lat="44.51011" lon="1.37947">
        <ele>134.9</ele>
        <time>2022-01-15T15:52:22Z</time>
      </trkpt>
      <trkpt lat="44.51014" lon="1.37949">
        <ele>134.9</ele>
        <time>2022-01-15T15:52:23Z</time>
      </trkpt>
      <trkpt lat="44.51018" lon="1.37951">
        <ele>134.9</ele>
        <time>2022-01-15T15:52:24Z</time>
      </trkpt>
      <trkpt lat="44.51021" lon="1.37953">
        <ele>135</ele>
        <time>2022-01-15T15:52:25Z</time>
      </trkpt>
      <trkpt lat="44.51025" lon="1.37954">
        <ele>135</ele>
        <time>2022-01-15T15:52:26Z</time>
      </trkpt>
      <trkpt lat="44.51028" lon="1.37956">
        <ele>135</ele>
        <time>2022-01-15T15:52:27Z</time>
      </trkpt>
      <trkpt lat="44.51032" lon="1.37957">
        <ele>135.1</ele>
        <time>2022-01-15T15:52:28Z</time>
      </trkpt>
      <trkpt lat="44.51037" lon="1.3796">
        <ele>135.1</ele>
        <time>2022-01-15T15:52:29Z</time>
      </trkpt>
      <trkpt lat="44.51041" lon="1.37963">
        <ele>135.1</ele>
        <time>2022-01-15T15:52:30Z</time>
      </trkpt>
      <trkpt lat="44.51046" lon="1.37965">
        <ele>135.2</ele>
        <time>2022-01-15T15:52:32Z</time>
      </trkpt>
      <trkpt lat="44.5105" lon="1.37966">
        <ele>135.2</ele>
        <time>2022-01-15T15:52:33Z</time>
      </trkpt>
      <trkpt lat="44.51053" lon="1.37969">
        <ele>135.2</ele>
        <time>2022-01-15T15:52:34Z</time>
      </trkpt>
      <trkpt lat="44.51056" lon="1.37971">
        <ele>135.3</ele>
        <time>2022-01-15T15:52:35Z</time>
      </trkpt>
      <trkpt lat="44.51058" lon="1.37972">
        <ele>135.3</ele>
        <time>2022-01-15T15:52:36Z</time>
      </trkpt>
      <trkpt lat="44.51061" lon="1.37974">
        <ele>135.3</ele>
        <time>2022-01-15T15:52:37Z</time>
      </trkpt>
      <trkpt lat="44.51064" lon="1.37975">
        <ele>135.3</ele>
        <time>2022-01-15T15:52:38Z</time>
      </trkpt>
      <trkpt lat="44.51067" lon="1.37977">
        <ele>135.3</ele>
        <time>2022-01-15T15:52:39Z</time>
      </trkpt>
      <trkpt lat="44.5107" lon="1.37979">
        <ele>135.4</ele>
        <time>2022-01-15T15:52:40Z</time>
      </trkpt>
      <trkpt lat="44.51074" lon="1.37981">
        <ele>135.4</ele>
        <time>2022-01-15T15:52:41Z</time>
      </trkpt>
      <trkpt lat="44.51076" lon="1.37983">
        <ele>135.4</ele>
        <time>2022-01-15T15:52:42Z</time>
      </trkpt>
      <trkpt lat="44.5108" lon="1.37986">
        <ele>135.4</ele>
        <time>2022-01-15T15:52:43Z</time>
      </trkpt>
      <trkpt lat="44.51083" lon="1.37989">
        <ele>135.4</ele>
        <time>2022-01-15T15:52:44Z</time>
      </trkpt>
      <trkpt lat="44.51087" lon="1.37993">
        <ele>135.3</ele>
        <time>2022-01-15T15:52:45Z</time>
      </trkpt>
      <trkpt lat="44.51091" lon="1.37997">
        <ele>135.3</ele>
        <time>2022-01-15T15:52:46Z</time>
      </trkpt>
      <trkpt lat="44.51093" lon="1.38003">
        <ele>135.3</ele>
        <time>2022-01-15T15:52:47Z</time>
      </trkpt>
      <trkpt lat="44.51095" lon="1.38009">
        <ele>135.3</ele>
        <time>2022-01-15T15:52:48Z</time>
      </trkpt>
      <trkpt lat="44.51092" lon="1.38016">
        <ele>135.3</ele>
        <time>2022-01-15T15:52:50Z</time>
      </trkpt>
      <trkpt lat="44.51093" lon="1.38026">
        <ele>135.3</ele>
        <time>2022-01-15T15:52:51Z</time>
      </trkpt>
      <trkpt lat="44.51093" lon="1.38034">
        <ele>135.2</ele>
        <time>2022-01-15T15:52:52Z</time>
      </trkpt>
      <trkpt lat="44.51093" lon="1.38041">
        <ele>135.2</ele>
        <time>2022-01-15T15:52:53Z</time>
      </trkpt>
      <trkpt lat="44.51093" lon="1.38048">
        <ele>135.1</ele>
        <time>2022-01-15T15:52:54Z</time>
      </trkpt>
      <trkpt lat="44.51093" lon="1.38054">
        <ele>135</ele>
        <time>2022-01-15T15:52:55Z</time>
      </trkpt>
      <trkpt lat="44.51092" lon="1.38061">
        <ele>134.9</ele>
        <time>2022-01-15T15:52:56Z</time>
      </trkpt>
      <trkpt lat="44.51091" lon="1.38067">
        <ele>134.9</ele>
        <time>2022-01-15T15:52:57Z</time>
      </trkpt>
      <trkpt lat="44.5109" lon="1.38073">
        <ele>134.8</ele>
        <time>2022-01-15T15:52:58Z</time>
      </trkpt>
      <trkpt lat="44.51089" lon="1.3808">
        <ele>134.8</ele>
        <time>2022-01-15T15:52:59Z</time>
      </trkpt>
      <trkpt lat="44.51087" lon="1.38086">
        <ele>134.7</ele>
        <time>2022-01-15T15:53:00Z</time>
      </trkpt>
      <trkpt lat="44.51086" lon="1.3809">
        <ele>134.7</ele>
        <time>2022-01-15T15:53:01Z</time>
      </trkpt>
      <trkpt lat="44.51084" lon="1.38097">
        <ele>134.7</ele>
        <time>2022-01-15T15:53:02Z</time>
      </trkpt>
      <trkpt lat="44.51082" lon="1.38106">
        <ele>134.6</ele>
        <time>2022-01-15T15:53:04Z</time>
      </trkpt>
      <trkpt lat="44.5108" lon="1.38112">
        <ele>134.6</ele>
        <time>2022-01-15T15:53:05Z</time>
      </trkpt>
      <trkpt lat="44.51078" lon="1.38117">
        <ele>134.6</ele>
        <time>2022-01-15T15:53:06Z</time>
      </trkpt>
      <trkpt lat="44.51076" lon="1.38122">
        <ele>134.7</ele>
        <time>2022-01-15T15:53:07Z</time>
      </trkpt>
      <trkpt lat="44.51073" lon="1.38128">
        <ele>134.7</ele>
        <time>2022-01-15T15:53:08Z</time>
      </trkpt>
      <trkpt lat="44.51068" lon="1.38136">
        <ele>134.7</ele>
        <time>2022-01-15T15:53:10Z</time>
      </trkpt>
      <trkpt lat="44.51066" lon="1.3814">
        <ele>134.7</ele>
        <time>2022-01-15T15:53:11Z</time>
      </trkpt>
      <trkpt lat="44.51063" lon="1.38145">
        <ele>134.7</ele>
        <time>2022-01-15T15:53:12Z</time>
      </trkpt>
      <trkpt lat="44.5106" lon="1.38149">
        <ele>134.7</ele>
        <time>2022-01-15T15:53:13Z</time>
      </trkpt>
      <trkpt lat="44.51057" lon="1.38154">
        <ele>134.8</ele>
        <time>2022-01-15T15:53:14Z</time>
      </trkpt>
      <trkpt lat="44.51051" lon="1.38163">
        <ele>134.8</ele>
        <time>2022-01-15T15:53:16Z</time>
      </trkpt>
      <trkpt lat="44.51048" lon="1.38168">
        <ele>134.9</ele>
        <time>2022-01-15T15:53:18Z</time>
      </trkpt>
      <trkpt lat="44.51045" lon="1.38172">
        <ele>134.9</ele>
        <time>2022-01-15T15:53:19Z</time>
      </trkpt>
      <trkpt lat="44.51042" lon="1.38177">
        <ele>135</ele>
        <time>2022-01-15T15:53:20Z</time>
      </trkpt>
      <trkpt lat="44.51039" lon="1.38184">
        <ele>135.1</ele>
        <time>2022-01-15T15:53:22Z</time>
      </trkpt>
      <trkpt lat="44.51036" lon="1.38187">
        <ele>135.2</ele>
        <time>2022-01-15T15:53:23Z</time>
      </trkpt>
      <trkpt lat="44.51034" lon="1.38191">
        <ele>135.3</ele>
        <time>2022-01-15T15:53:24Z</time>
      </trkpt>
      <trkpt lat="44.51032" lon="1.38194">
        <ele>135.3</ele>
        <time>2022-01-15T15:53:25Z</time>
      </trkpt>
      <trkpt lat="44.5103" lon="1.38197">
        <ele>135.3</ele>
        <time>2022-01-15T15:53:26Z</time>
      </trkpt>
      <trkpt lat="44.51028" lon="1.38201">
        <ele>135.4</ele>
        <time>2022-01-15T15:53:27Z</time>
      </trkpt>
      <trkpt lat="44.51025" lon="1.38205">
        <ele>135.4</ele>
        <time>2022-01-15T15:53:28Z</time>
      </trkpt>
      <trkpt lat="44.51023" lon="1.38208">
        <ele>135.4</ele>
        <time>2022-01-15T15:53:29Z</time>
      </trkpt>
      <trkpt lat="44.51021" lon="1.38211">
        <ele>135.4</ele>
        <time>2022-01-15T15:53:30Z</time>
      </trkpt>
      <trkpt lat="44.51019" lon="1.38215">
        <ele>135.5</ele>
        <time>2022-01-15T15:53:31Z</time>
      </trkpt>
      <trkpt lat="44.51016" lon="1.3822">
        <ele>135.5</ele>
        <time>2022-01-15T15:53:33Z</time>
      </trkpt>
      <trkpt lat="44.51013" lon="1.38223">
        <ele>135.5</ele>
        <time>2022-01-15T15:53:34Z</time>
      </trkpt>
      <trkpt lat="44.5101" lon="1.38226">
        <ele>135.5</ele>
        <time>2022-01-15T15:53:35Z</time>
      </trkpt>
      <trkpt lat="44.51008" lon="1.3823">
        <ele>135.6</ele>
        <time>2022-01-15T15:53:36Z</time>
      </trkpt>
      <trkpt lat="44.51005" lon="1.38234">
        <ele>135.6</ele>
        <time>2022-01-15T15:53:37Z</time>
      </trkpt>
      <trkpt lat="44.51002" lon="1.38239">
        <ele>135.6</ele>
        <time>2022-01-15T15:53:38Z</time>
      </trkpt>
      <trkpt lat="44.51" lon="1.38242">
        <ele>135.7</ele>
        <time>2022-01-15T15:53:39Z</time>
      </trkpt>
      <trkpt lat="44.50997" lon="1.38247">
        <ele>135.8</ele>
        <time>2022-01-15T15:53:40Z</time>
      </trkpt>
      <trkpt lat="44.50994" lon="1.38251">
        <ele>135.8</ele>
        <time>2022-01-15T15:53:41Z</time>
      </trkpt>
      <trkpt lat="44.50991" lon="1.38255">
        <ele>135.9</ele>
        <time>2022-01-15T15:53:43Z</time>
      </trkpt>
      <trkpt lat="44.50988" lon="1.38259">
        <ele>136</ele>
        <time>2022-01-15T15:53:44Z</time>
      </trkpt>
      <trkpt lat="44.50986" lon="1.38262">
        <ele>136.1</ele>
        <time>2022-01-15T15:53:45Z</time>
      </trkpt>
      <trkpt lat="44.50984" lon="1.38264">
        <ele>136.1</ele>
        <time>2022-01-15T15:53:46Z</time>
      </trkpt>
      <trkpt lat="44.50979" lon="1.38267">
        <ele>136.3</ele>
        <time>2022-01-15T15:53:48Z</time>
      </trkpt>
      <trkpt lat="44.50975" lon="1.38267">
        <ele>136.4</ele>
        <time>2022-01-15T15:53:49Z</time>
      </trkpt>
      <trkpt lat="44.50973" lon="1.38267">
        <ele>136.4</ele>
        <time>2022-01-15T15:53:50Z</time>
      </trkpt>
      <trkpt lat="44.5097" lon="1.38266">
        <ele>136.4</ele>
        <time>2022-01-15T15:53:51Z</time>
      </trkpt>
      <trkpt lat="44.50967" lon="1.38263">
        <ele>136.4</ele>
        <time>2022-01-15T15:53:52Z</time>
      </trkpt>
      <trkpt lat="44.50964" lon="1.38259">
        <ele>136.3</ele>
        <time>2022-01-15T15:53:53Z</time>
      </trkpt>
      <trkpt lat="44.50958" lon="1.38256">
        <ele>136.3</ele>
        <time>2022-01-15T15:53:55Z</time>
      </trkpt>
      <trkpt lat="44.50955" lon="1.38255">
        <ele>136.4</ele>
        <time>2022-01-15T15:53:56Z</time>
      </trkpt>
      <trkpt lat="44.50951" lon="1.38254">
        <ele>136.5</ele>
        <time>2022-01-15T15:53:57Z</time>
      </trkpt>
      <trkpt lat="44.50947" lon="1.38253">
        <ele>136.6</ele>
        <time>2022-01-15T15:53:58Z</time>
      </trkpt>
      <trkpt lat="44.50942" lon="1.38253">
        <ele>136.7</ele>
        <time>2022-01-15T15:53:59Z</time>
      </trkpt>
      <trkpt lat="44.50937" lon="1.38253">
        <ele>136.7</ele>
        <time>2022-01-15T15:54:01Z</time>
      </trkpt>
      <trkpt lat="44.50934" lon="1.38252">
        <ele>136.8</ele>
        <time>2022-01-15T15:54:02Z</time>
      </trkpt>
      <trkpt lat="44.50931" lon="1.38251">
        <ele>136.8</ele>
        <time>2022-01-15T15:54:03Z</time>
      </trkpt>
      <trkpt lat="44.50927" lon="1.38249">
        <ele>136.9</ele>
        <time>2022-01-15T15:54:04Z</time>
      </trkpt>
      <trkpt lat="44.50924" lon="1.38248">
        <ele>137</ele>
        <time>2022-01-15T15:54:05Z</time>
      </trkpt>
      <trkpt lat="44.50921" lon="1.38246">
        <ele>137</ele>
        <time>2022-01-15T15:54:06Z</time>
      </trkpt>
      <trkpt lat="44.50916" lon="1.38244">
        <ele>137.2</ele>
        <time>2022-01-15T15:54:07Z</time>
      </trkpt>
      <trkpt lat="44.50911" lon="1.38241">
        <ele>137.4</ele>
        <time>2022-01-15T15:54:09Z</time>
      </trkpt>
      <trkpt lat="44.50908" lon="1.38239">
        <ele>137.5</ele>
        <time>2022-01-15T15:54:10Z</time>
      </trkpt>
      <trkpt lat="44.50904" lon="1.38237">
        <ele>137.7</ele>
        <time>2022-01-15T15:54:11Z</time>
      </trkpt>
      <trkpt lat="44.50901" lon="1.38236">
        <ele>137.8</ele>
        <time>2022-01-15T15:54:12Z</time>
      </trkpt>
      <trkpt lat="44.50898" lon="1.38234">
        <ele>137.9</ele>
        <time>2022-01-15T15:54:13Z</time>
      </trkpt>
      <trkpt lat="44.50895" lon="1.38233">
        <ele>138.1</ele>
        <time>2022-01-15T15:54:14Z</time>
      </trkpt>
      <trkpt lat="44.50891" lon="1.38232">
        <ele>138.3</ele>
        <time>2022-01-15T15:54:15Z</time>
      </trkpt>
      <trkpt lat="44.50885" lon="1.38231">
        <ele>138.6</ele>
        <time>2022-01-15T15:54:16Z</time>
      </trkpt>
      <trkpt lat="44.50881" lon="1.38229">
        <ele>138.8</ele>
        <time>2022-01-15T15:54:18Z</time>
      </trkpt>
      <trkpt lat="44.50878" lon="1.38228">
        <ele>139</ele>
        <time>2022-01-15T15:54:19Z</time>
      </trkpt>
      <trkpt lat="44.50874" lon="1.38228">
        <ele>139.2</ele>
        <time>2022-01-15T15:54:20Z</time>
      </trkpt>
      <trkpt lat="44.50871" lon="1.38227">
        <ele>139.4</ele>
        <time>2022-01-15T15:54:21Z</time>
      </trkpt>
      <trkpt lat="44.50868" lon="1.38227">
        <ele>139.6</ele>
        <time>2022-01-15T15:54:22Z</time>
      </trkpt>
      <trkpt lat="44.50865" lon="1.38228">
        <ele>139.7</ele>
        <time>2022-01-15T15:54:23Z</time>
      </trkpt>
      <trkpt lat="44.50862" lon="1.38229">
        <ele>139.9</ele>
        <time>2022-01-15T15:54:24Z</time>
      </trkpt>
      <trkpt lat="44.50857" lon="1.38231">
        <ele>140.2</ele>
        <time>2022-01-15T15:54:26Z</time>
      </trkpt>
      <trkpt lat="44.50854" lon="1.38233">
        <ele>140.4</ele>
        <time>2022-01-15T15:54:27Z</time>
      </trkpt>
      <trkpt lat="44.50851" lon="1.38234">
        <ele>140.5</ele>
        <time>2022-01-15T15:54:28Z</time>
      </trkpt>
      <trkpt lat="44.50848" lon="1.38236">
        <ele>140.7</ele>
        <time>2022-01-15T15:54:29Z</time>
      </trkpt>
      <trkpt lat="44.50845" lon="1.38238">
        <ele>140.9</ele>
        <time>2022-01-15T15:54:30Z</time>
      </trkpt>
      <trkpt lat="44.50842" lon="1.3824">
        <ele>141</ele>
        <time>2022-01-15T15:54:31Z</time>
      </trkpt>
      <trkpt lat="44.5084" lon="1.38242">
        <ele>141.2</ele>
        <time>2022-01-15T15:54:32Z</time>
      </trkpt>
      <trkpt lat="44.50835" lon="1.38247">
        <ele>141.5</ele>
        <time>2022-01-15T15:54:34Z</time>
      </trkpt>
      <trkpt lat="44.50833" lon="1.3825">
        <ele>141.6</ele>
        <time>2022-01-15T15:54:35Z</time>
      </trkpt>
      <trkpt lat="44.5083" lon="1.38252">
        <ele>141.7</ele>
        <time>2022-01-15T15:54:36Z</time>
      </trkpt>
      <trkpt lat="44.50828" lon="1.38254">
        <ele>141.9</ele>
        <time>2022-01-15T15:54:37Z</time>
      </trkpt>
      <trkpt lat="44.50825" lon="1.38257">
        <ele>142</ele>
        <time>2022-01-15T15:54:38Z</time>
      </trkpt>
      <trkpt lat="44.50823" lon="1.38259">
        <ele>142.1</ele>
        <time>2022-01-15T15:54:39Z</time>
      </trkpt>
      <trkpt lat="44.50821" lon="1.38261">
        <ele>142.2</ele>
        <time>2022-01-15T15:54:40Z</time>
      </trkpt>
      <trkpt lat="44.50819" lon="1.38263">
        <ele>142.3</ele>
        <time>2022-01-15T15:54:41Z</time>
      </trkpt>
      <trkpt lat="44.50816" lon="1.38266">
        <ele>142.5</ele>
        <time>2022-01-15T15:54:42Z</time>
      </trkpt>
      <trkpt lat="44.50814" lon="1.38268">
        <ele>142.6</ele>
        <time>2022-01-15T15:54:43Z</time>
      </trkpt>
      <trkpt lat="44.5081" lon="1.38272">
        <ele>142.8</ele>
        <time>2022-01-15T15:54:45Z</time>
      </trkpt>
      <trkpt lat="44.50807" lon="1.38274">
        <ele>143</ele>
        <time>2022-01-15T15:54:46Z</time>
      </trkpt>
      <trkpt lat="44.50805" lon="1.38277">
        <ele>143.1</ele>
        <time>2022-01-15T15:54:47Z</time>
      </trkpt>
      <trkpt lat="44.50802" lon="1.38278">
        <ele>143.2</ele>
        <time>2022-01-15T15:54:48Z</time>
      </trkpt>
      <trkpt lat="44.50799" lon="1.3828">
        <ele>143.4</ele>
        <time>2022-01-15T15:54:49Z</time>
      </trkpt>
      <trkpt lat="44.50795" lon="1.38282">
        <ele>143.5</ele>
        <time>2022-01-15T15:54:50Z</time>
      </trkpt>
      <trkpt lat="44.50793" lon="1.38283">
        <ele>143.6</ele>
        <time>2022-01-15T15:54:51Z</time>
      </trkpt>
      <trkpt lat="44.5079" lon="1.38284">
        <ele>143.8</ele>
        <time>2022-01-15T15:54:52Z</time>
      </trkpt>
      <trkpt lat="44.50787" lon="1.38286">
        <ele>143.9</ele>
        <time>2022-01-15T15:54:53Z</time>
      </trkpt>
      <trkpt lat="44.50783" lon="1.38286">
        <ele>144</ele>
        <time>2022-01-15T15:54:54Z</time>
      </trkpt>
      <trkpt lat="44.5078" lon="1.38286">
        <ele>144.2</ele>
        <time>2022-01-15T15:54:55Z</time>
      </trkpt>
      <trkpt lat="44.50776" lon="1.38287">
        <ele>144.4</ele>
        <time>2022-01-15T15:54:56Z</time>
      </trkpt>
      <trkpt lat="44.50774" lon="1.38288">
        <ele>144.5</ele>
        <time>2022-01-15T15:54:57Z</time>
      </trkpt>
      <trkpt lat="44.5077" lon="1.3829">
        <ele>144.6</ele>
        <time>2022-01-15T15:54:58Z</time>
      </trkpt>
      <trkpt lat="44.50768" lon="1.3829">
        <ele>144.7</ele>
        <time>2022-01-15T15:54:59Z</time>
      </trkpt>
      <trkpt lat="44.50765" lon="1.38291">
        <ele>144.9</ele>
        <time>2022-01-15T15:55:00Z</time>
      </trkpt>
      <trkpt lat="44.50761" lon="1.38292">
        <ele>145</ele>
        <time>2022-01-15T15:55:01Z</time>
      </trkpt>
      <trkpt lat="44.50759" lon="1.38292">
        <ele>145.1</ele>
        <time>2022-01-15T15:55:02Z</time>
      </trkpt>
      <trkpt lat="44.50756" lon="1.38293">
        <ele>145.2</ele>
        <time>2022-01-15T15:55:03Z</time>
      </trkpt>
      <trkpt lat="44.50754" lon="1.38293">
        <ele>145.4</ele>
        <time>2022-01-15T15:55:04Z</time>
      </trkpt>
      <trkpt lat="44.50748" lon="1.38296">
        <ele>145.6</ele>
        <time>2022-01-15T15:55:06Z</time>
      </trkpt>
      <trkpt lat="44.50745" lon="1.38296">
        <ele>145.7</ele>
        <time>2022-01-15T15:55:07Z</time>
      </trkpt>
      <trkpt lat="44.50742" lon="1.38296">
        <ele>145.7</ele>
        <time>2022-01-15T15:55:08Z</time>
      </trkpt>
      <trkpt lat="44.50739" lon="1.38297">
        <ele>145.8</ele>
        <time>2022-01-15T15:55:09Z</time>
      </trkpt>
      <trkpt lat="44.50735" lon="1.38299">
        <ele>145.9</ele>
        <time>2022-01-15T15:55:10Z</time>
      </trkpt>
      <trkpt lat="44.50731" lon="1.383">
        <ele>146</ele>
        <time>2022-01-15T15:55:12Z</time>
      </trkpt>
      <trkpt lat="44.50728" lon="1.38301">
        <ele>146</ele>
        <time>2022-01-15T15:55:13Z</time>
      </trkpt>
      <trkpt lat="44.50725" lon="1.38303">
        <ele>146.1</ele>
        <time>2022-01-15T15:55:14Z</time>
      </trkpt>
      <trkpt lat="44.50721" lon="1.38304">
        <ele>146.1</ele>
        <time>2022-01-15T15:55:15Z</time>
      </trkpt>
      <trkpt lat="44.50718" lon="1.38305">
        <ele>146.2</ele>
        <time>2022-01-15T15:55:16Z</time>
      </trkpt>
      <trkpt lat="44.50715" lon="1.38307">
        <ele>146.2</ele>
        <time>2022-01-15T15:55:17Z</time>
      </trkpt>
      <trkpt lat="44.50712" lon="1.38309">
        <ele>146.2</ele>
        <time>2022-01-15T15:55:18Z</time>
      </trkpt>
      <trkpt lat="44.5071" lon="1.3831">
        <ele>146.3</ele>
        <time>2022-01-15T15:55:19Z</time>
      </trkpt>
      <trkpt lat="44.50706" lon="1.38312">
        <ele>146.3</ele>
        <time>2022-01-15T15:55:20Z</time>
      </trkpt>
      <trkpt lat="44.50703" lon="1.38314">
        <ele>146.3</ele>
        <time>2022-01-15T15:55:21Z</time>
      </trkpt>
      <trkpt lat="44.507" lon="1.38317">
        <ele>146.4</ele>
        <time>2022-01-15T15:55:22Z</time>
      </trkpt>
      <trkpt lat="44.50697" lon="1.3832">
        <ele>146.4</ele>
        <time>2022-01-15T15:55:23Z</time>
      </trkpt>
      <trkpt lat="44.50696" lon="1.38321">
        <ele>146.4</ele>
        <time>2022-01-15T15:55:24Z</time>
      </trkpt>
      <trkpt lat="44.50693" lon="1.38323">
        <ele>146.4</ele>
        <time>2022-01-15T15:55:25Z</time>
      </trkpt>
      <trkpt lat="44.50691" lon="1.38325">
        <ele>146.4</ele>
        <time>2022-01-15T15:55:26Z</time>
      </trkpt>
      <trkpt lat="44.50689" lon="1.38328">
        <ele>146.5</ele>
        <time>2022-01-15T15:55:27Z</time>
      </trkpt>
      <trkpt lat="44.50686" lon="1.3833">
        <ele>146.5</ele>
        <time>2022-01-15T15:55:28Z</time>
      </trkpt>
      <trkpt lat="44.50684" lon="1.38332">
        <ele>146.5</ele>
        <time>2022-01-15T15:55:29Z</time>
      </trkpt>
      <trkpt lat="44.50681" lon="1.38336">
        <ele>146.5</ele>
        <time>2022-01-15T15:55:30Z</time>
      </trkpt>
      <trkpt lat="44.5068" lon="1.38337">
        <ele>146.5</ele>
        <time>2022-01-15T15:55:31Z</time>
      </trkpt>
      <trkpt lat="44.50677" lon="1.3834">
        <ele>146.5</ele>
        <time>2022-01-15T15:55:32Z</time>
      </trkpt>
      <trkpt lat="44.50675" lon="1.38343">
        <ele>146.4</ele>
        <time>2022-01-15T15:55:33Z</time>
      </trkpt>
      <trkpt lat="44.50672" lon="1.38346">
        <ele>146.4</ele>
        <time>2022-01-15T15:55:34Z</time>
      </trkpt>
      <trkpt lat="44.5067" lon="1.38349">
        <ele>146.3</ele>
        <time>2022-01-15T15:55:35Z</time>
      </trkpt>
      <trkpt lat="44.50666" lon="1.38353">
        <ele>146.2</ele>
        <time>2022-01-15T15:55:36Z</time>
      </trkpt>
      <trkpt lat="44.50662" lon="1.38357">
        <ele>146.1</ele>
        <time>2022-01-15T15:55:38Z</time>
      </trkpt>
      <trkpt lat="44.5066" lon="1.3836">
        <ele>146.1</ele>
        <time>2022-01-15T15:55:39Z</time>
      </trkpt>
      <trkpt lat="44.50657" lon="1.38364">
        <ele>146</ele>
        <time>2022-01-15T15:55:40Z</time>
      </trkpt>
      <trkpt lat="44.50655" lon="1.38367">
        <ele>146</ele>
        <time>2022-01-15T15:55:41Z</time>
      </trkpt>
      <trkpt lat="44.50652" lon="1.3837">
        <ele>145.9</ele>
        <time>2022-01-15T15:55:42Z</time>
      </trkpt>
      <trkpt lat="44.50649" lon="1.38372">
        <ele>145.8</ele>
        <time>2022-01-15T15:55:43Z</time>
      </trkpt>
      <trkpt lat="44.50647" lon="1.38376">
        <ele>145.8</ele>
        <time>2022-01-15T15:55:44Z</time>
      </trkpt>
      <trkpt lat="44.50644" lon="1.38379">
        <ele>145.7</ele>
        <time>2022-01-15T15:55:45Z</time>
      </trkpt>
      <trkpt lat="44.50641" lon="1.38383">
        <ele>145.6</ele>
        <time>2022-01-15T15:55:46Z</time>
      </trkpt>
      <trkpt lat="44.50638" lon="1.38387">
        <ele>145.5</ele>
        <time>2022-01-15T15:55:47Z</time>
      </trkpt>
      <trkpt lat="44.50635" lon="1.38391">
        <ele>145.4</ele>
        <time>2022-01-15T15:55:48Z</time>
      </trkpt>
      <trkpt lat="44.50632" lon="1.38395">
        <ele>145.3</ele>
        <time>2022-01-15T15:55:49Z</time>
      </trkpt>
      <trkpt lat="44.50629" lon="1.384">
        <ele>145.2</ele>
        <time>2022-01-15T15:55:50Z</time>
      </trkpt>
      <trkpt lat="44.50625" lon="1.38405">
        <ele>145.1</ele>
        <time>2022-01-15T15:55:51Z</time>
      </trkpt>
      <trkpt lat="44.50622" lon="1.3841">
        <ele>145</ele>
        <time>2022-01-15T15:55:52Z</time>
      </trkpt>
      <trkpt lat="44.50619" lon="1.38415">
        <ele>144.8</ele>
        <time>2022-01-15T15:55:53Z</time>
      </trkpt>
      <trkpt lat="44.50616" lon="1.38419">
        <ele>144.7</ele>
        <time>2022-01-15T15:55:54Z</time>
      </trkpt>
      <trkpt lat="44.50613" lon="1.38423">
        <ele>144.6</ele>
        <time>2022-01-15T15:55:55Z</time>
      </trkpt>
      <trkpt lat="44.50609" lon="1.38428">
        <ele>144.5</ele>
        <time>2022-01-15T15:55:56Z</time>
      </trkpt>
      <trkpt lat="44.50606" lon="1.38433">
        <ele>144.3</ele>
        <time>2022-01-15T15:55:57Z</time>
      </trkpt>
      <trkpt lat="44.50602" lon="1.38438">
        <ele>144.2</ele>
        <time>2022-01-15T15:55:58Z</time>
      </trkpt>
      <trkpt lat="44.50598" lon="1.38442">
        <ele>144.2</ele>
        <time>2022-01-15T15:55:59Z</time>
      </trkpt>
      <trkpt lat="44.50594" lon="1.38447">
        <ele>144.1</ele>
        <time>2022-01-15T15:56:00Z</time>
      </trkpt>
      <trkpt lat="44.50589" lon="1.38451">
        <ele>144</ele>
        <time>2022-01-15T15:56:01Z</time>
      </trkpt>
      <trkpt lat="44.50585" lon="1.38455">
        <ele>144</ele>
        <time>2022-01-15T15:56:02Z</time>
      </trkpt>
      <trkpt lat="44.5058" lon="1.38459">
        <ele>144</ele>
        <time>2022-01-15T15:56:03Z</time>
      </trkpt>
      <trkpt lat="44.50576" lon="1.38462">
        <ele>144</ele>
        <time>2022-01-15T15:56:04Z</time>
      </trkpt>
      <trkpt lat="44.50571" lon="1.38464">
        <ele>144.1</ele>
        <time>2022-01-15T15:56:05Z</time>
      </trkpt>
      <trkpt lat="44.50568" lon="1.38465">
        <ele>144.1</ele>
        <time>2022-01-15T15:56:06Z</time>
      </trkpt>
      <trkpt lat="44.50564" lon="1.38466">
        <ele>144.1</ele>
        <time>2022-01-15T15:56:07Z</time>
      </trkpt>
      <trkpt lat="44.50561" lon="1.38468">
        <ele>144.1</ele>
        <time>2022-01-15T15:56:08Z</time>
      </trkpt>
      <trkpt lat="44.50556" lon="1.38471">
        <ele>144.1</ele>
        <time>2022-01-15T15:56:09Z</time>
      </trkpt>
      <trkpt lat="44.50553" lon="1.38476">
        <ele>144</ele>
        <time>2022-01-15T15:56:10Z</time>
      </trkpt>
      <trkpt lat="44.50548" lon="1.38479">
        <ele>143.9</ele>
        <time>2022-01-15T15:56:11Z</time>
      </trkpt>
      <trkpt lat="44.50547" lon="1.38481">
        <ele>143.9</ele>
        <time>2022-01-15T15:56:12Z</time>
      </trkpt>
      <trkpt lat="44.50545" lon="1.38483">
        <ele>143.9</ele>
        <time>2022-01-15T15:56:13Z</time>
      </trkpt>
      <trkpt lat="44.50539" lon="1.38486">
        <ele>143.8</ele>
        <time>2022-01-15T15:56:14Z</time>
      </trkpt>
      <trkpt lat="44.50534" lon="1.38488">
        <ele>143.8</ele>
        <time>2022-01-15T15:56:15Z</time>
      </trkpt>
      <trkpt lat="44.50528" lon="1.38489">
        <ele>143.8</ele>
        <time>2022-01-15T15:56:16Z</time>
      </trkpt>
      <trkpt lat="44.50524" lon="1.3849">
        <ele>143.8</ele>
        <time>2022-01-15T15:56:17Z</time>
      </trkpt>
      <trkpt lat="44.50519" lon="1.38492">
        <ele>143.8</ele>
        <time>2022-01-15T15:56:18Z</time>
      </trkpt>
      <trkpt lat="44.50516" lon="1.38493">
        <ele>143.8</ele>
        <time>2022-01-15T15:56:19Z</time>
      </trkpt>
      <trkpt lat="44.50513" lon="1.38495">
        <ele>143.8</ele>
        <time>2022-01-15T15:56:20Z</time>
      </trkpt>
      <trkpt lat="44.50509" lon="1.38496">
        <ele>143.9</ele>
        <time>2022-01-15T15:56:21Z</time>
      </trkpt>
      <trkpt lat="44.50504" lon="1.38498">
        <ele>143.9</ele>
        <time>2022-01-15T15:56:22Z</time>
      </trkpt>
      <trkpt lat="44.50499" lon="1.38499">
        <ele>144</ele>
        <time>2022-01-15T15:56:23Z</time>
      </trkpt>
      <trkpt lat="44.50495" lon="1.38502">
        <ele>144.1</ele>
        <time>2022-01-15T15:56:24Z</time>
      </trkpt>
      <trkpt lat="44.50491" lon="1.38504">
        <ele>144.2</ele>
        <time>2022-01-15T15:56:25Z</time>
      </trkpt>
      <trkpt lat="44.50487" lon="1.38506">
        <ele>144.3</ele>
        <time>2022-01-15T15:56:26Z</time>
      </trkpt>
      <trkpt lat="44.50483" lon="1.38508">
        <ele>144.4</ele>
        <time>2022-01-15T15:56:27Z</time>
      </trkpt>
      <trkpt lat="44.5048" lon="1.3851">
        <ele>144.5</ele>
        <time>2022-01-15T15:56:28Z</time>
      </trkpt>
      <trkpt lat="44.50476" lon="1.38512">
        <ele>144.6</ele>
        <time>2022-01-15T15:56:29Z</time>
      </trkpt>
      <trkpt lat="44.50473" lon="1.38514">
        <ele>144.7</ele>
        <time>2022-01-15T15:56:30Z</time>
      </trkpt>
      <trkpt lat="44.5047" lon="1.38517">
        <ele>144.8</ele>
        <time>2022-01-15T15:56:31Z</time>
      </trkpt>
      <trkpt lat="44.50467" lon="1.38519">
        <ele>144.9</ele>
        <time>2022-01-15T15:56:32Z</time>
      </trkpt>
      <trkpt lat="44.50465" lon="1.38522">
        <ele>145</ele>
        <time>2022-01-15T15:56:33Z</time>
      </trkpt>
      <trkpt lat="44.50462" lon="1.38524">
        <ele>145.2</ele>
        <time>2022-01-15T15:56:34Z</time>
      </trkpt>
      <trkpt lat="44.50459" lon="1.38525">
        <ele>145.3</ele>
        <time>2022-01-15T15:56:35Z</time>
      </trkpt>
      <trkpt lat="44.50456" lon="1.38528">
        <ele>145.4</ele>
        <time>2022-01-15T15:56:36Z</time>
      </trkpt>
      <trkpt lat="44.50453" lon="1.38531">
        <ele>145.6</ele>
        <time>2022-01-15T15:56:37Z</time>
      </trkpt>
      <trkpt lat="44.5045" lon="1.38533">
        <ele>145.7</ele>
        <time>2022-01-15T15:56:38Z</time>
      </trkpt>
      <trkpt lat="44.50446" lon="1.38535">
        <ele>145.9</ele>
        <time>2022-01-15T15:56:39Z</time>
      </trkpt>
      <trkpt lat="44.50444" lon="1.38535">
        <ele>145.9</ele>
        <time>2022-01-15T15:56:40Z</time>
      </trkpt>
      <trkpt lat="44.50438" lon="1.38542">
        <ele>146.3</ele>
        <time>2022-01-15T15:56:42Z</time>
      </trkpt>
      <trkpt lat="44.50434" lon="1.38545">
        <ele>146.4</ele>
        <time>2022-01-15T15:56:43Z</time>
      </trkpt>
      <trkpt lat="44.50431" lon="1.38547">
        <ele>146.6</ele>
        <time>2022-01-15T15:56:44Z</time>
      </trkpt>
      <trkpt lat="44.50428" lon="1.38548">
        <ele>146.7</ele>
        <time>2022-01-15T15:56:45Z</time>
      </trkpt>
      <trkpt lat="44.50425" lon="1.3855">
        <ele>146.8</ele>
        <time>2022-01-15T15:56:46Z</time>
      </trkpt>
      <trkpt lat="44.50422" lon="1.38552">
        <ele>146.9</ele>
        <time>2022-01-15T15:56:47Z</time>
      </trkpt>
      <trkpt lat="44.50419" lon="1.38554">
        <ele>147</ele>
        <time>2022-01-15T15:56:48Z</time>
      </trkpt>
      <trkpt lat="44.50416" lon="1.38556">
        <ele>147</ele>
        <time>2022-01-15T15:56:49Z</time>
      </trkpt>
      <trkpt lat="44.50412" lon="1.38557">
        <ele>147.1</ele>
        <time>2022-01-15T15:56:50Z</time>
      </trkpt>
      <trkpt lat="44.50409" lon="1.38559">
        <ele>147.2</ele>
        <time>2022-01-15T15:56:51Z</time>
      </trkpt>
      <trkpt lat="44.50406" lon="1.3856">
        <ele>147.3</ele>
        <time>2022-01-15T15:56:52Z</time>
      </trkpt>
      <trkpt lat="44.50403" lon="1.38562">
        <ele>147.3</ele>
        <time>2022-01-15T15:56:53Z</time>
      </trkpt>
      <trkpt lat="44.504" lon="1.38563">
        <ele>147.4</ele>
        <time>2022-01-15T15:56:54Z</time>
      </trkpt>
      <trkpt lat="44.50397" lon="1.38565">
        <ele>147.4</ele>
        <time>2022-01-15T15:56:55Z</time>
      </trkpt>
      <trkpt lat="44.50394" lon="1.38567">
        <ele>147.4</ele>
        <time>2022-01-15T15:56:56Z</time>
      </trkpt>
      <trkpt lat="44.5039" lon="1.38569">
        <ele>147.5</ele>
        <time>2022-01-15T15:56:57Z</time>
      </trkpt>
      <trkpt lat="44.50387" lon="1.38571">
        <ele>147.5</ele>
        <time>2022-01-15T15:56:58Z</time>
      </trkpt>
      <trkpt lat="44.50381" lon="1.38575">
        <ele>147.5</ele>
        <time>2022-01-15T15:57:00Z</time>
      </trkpt>
      <trkpt lat="44.50377" lon="1.38578">
        <ele>147.5</ele>
        <time>2022-01-15T15:57:01Z</time>
      </trkpt>
      <trkpt lat="44.50374" lon="1.38581">
        <ele>147.5</ele>
        <time>2022-01-15T15:57:02Z</time>
      </trkpt>
      <trkpt lat="44.50371" lon="1.38584">
        <ele>147.5</ele>
        <time>2022-01-15T15:57:03Z</time>
      </trkpt>
      <trkpt lat="44.50367" lon="1.38587">
        <ele>147.5</ele>
        <time>2022-01-15T15:57:04Z</time>
      </trkpt>
      <trkpt lat="44.50364" lon="1.38591">
        <ele>147.4</ele>
        <time>2022-01-15T15:57:05Z</time>
      </trkpt>
      <trkpt lat="44.50361" lon="1.38594">
        <ele>147.4</ele>
        <time>2022-01-15T15:57:06Z</time>
      </trkpt>
      <trkpt lat="44.50358" lon="1.38597">
        <ele>147.4</ele>
        <time>2022-01-15T15:57:07Z</time>
      </trkpt>
      <trkpt lat="44.50355" lon="1.38601">
        <ele>147.3</ele>
        <time>2022-01-15T15:57:08Z</time>
      </trkpt>
      <trkpt lat="44.50352" lon="1.38604">
        <ele>147.3</ele>
        <time>2022-01-15T15:57:09Z</time>
      </trkpt>
      <trkpt lat="44.50348" lon="1.38608">
        <ele>147.2</ele>
        <time>2022-01-15T15:57:10Z</time>
      </trkpt>
      <trkpt lat="44.50346" lon="1.38611">
        <ele>147.2</ele>
        <time>2022-01-15T15:57:11Z</time>
      </trkpt>
      <trkpt lat="44.50343" lon="1.38614">
        <ele>147.2</ele>
        <time>2022-01-15T15:57:12Z</time>
      </trkpt>
      <trkpt lat="44.5034" lon="1.38617">
        <ele>147.1</ele>
        <time>2022-01-15T15:57:13Z</time>
      </trkpt>
      <trkpt lat="44.50336" lon="1.38621">
        <ele>147.1</ele>
        <time>2022-01-15T15:57:14Z</time>
      </trkpt>
      <trkpt lat="44.50333" lon="1.38624">
        <ele>147</ele>
        <time>2022-01-15T15:57:15Z</time>
      </trkpt>
      <trkpt lat="44.50329" lon="1.38628">
        <ele>146.9</ele>
        <time>2022-01-15T15:57:16Z</time>
      </trkpt>
      <trkpt lat="44.50325" lon="1.38632">
        <ele>146.9</ele>
        <time>2022-01-15T15:57:17Z</time>
      </trkpt>
      <trkpt lat="44.50322" lon="1.38636">
        <ele>146.8</ele>
        <time>2022-01-15T15:57:18Z</time>
      </trkpt>
      <trkpt lat="44.50318" lon="1.3864">
        <ele>146.7</ele>
        <time>2022-01-15T15:57:19Z</time>
      </trkpt>
      <trkpt lat="44.50315" lon="1.38643">
        <ele>146.7</ele>
        <time>2022-01-15T15:57:20Z</time>
      </trkpt>
      <trkpt lat="44.50312" lon="1.38647">
        <ele>146.6</ele>
        <time>2022-01-15T15:57:21Z</time>
      </trkpt>
      <trkpt lat="44.50308" lon="1.3865">
        <ele>146.6</ele>
        <time>2022-01-15T15:57:22Z</time>
      </trkpt>
      <trkpt lat="44.50305" lon="1.38654">
        <ele>146.5</ele>
        <time>2022-01-15T15:57:23Z</time>
      </trkpt>
      <trkpt lat="44.50302" lon="1.38658">
        <ele>146.4</ele>
        <time>2022-01-15T15:57:24Z</time>
      </trkpt>
      <trkpt lat="44.50299" lon="1.38661">
        <ele>146.4</ele>
        <time>2022-01-15T15:57:25Z</time>
      </trkpt>
      <trkpt lat="44.50296" lon="1.38665">
        <ele>146.3</ele>
        <time>2022-01-15T15:57:26Z</time>
      </trkpt>
      <trkpt lat="44.50292" lon="1.38669">
        <ele>146.2</ele>
        <time>2022-01-15T15:57:27Z</time>
      </trkpt>
      <trkpt lat="44.50289" lon="1.38673">
        <ele>146.1</ele>
        <time>2022-01-15T15:57:28Z</time>
      </trkpt>
      <trkpt lat="44.50285" lon="1.38677">
        <ele>146.1</ele>
        <time>2022-01-15T15:57:29Z</time>
      </trkpt>
      <trkpt lat="44.50282" lon="1.3868">
        <ele>146</ele>
        <time>2022-01-15T15:57:30Z</time>
      </trkpt>
      <trkpt lat="44.50279" lon="1.38683">
        <ele>146</ele>
        <time>2022-01-15T15:57:31Z</time>
      </trkpt>
      <trkpt lat="44.50276" lon="1.38686">
        <ele>145.9</ele>
        <time>2022-01-15T15:57:32Z</time>
      </trkpt>
      <trkpt lat="44.50273" lon="1.3869">
        <ele>145.9</ele>
        <time>2022-01-15T15:57:33Z</time>
      </trkpt>
      <trkpt lat="44.5027" lon="1.38694">
        <ele>145.8</ele>
        <time>2022-01-15T15:57:34Z</time>
      </trkpt>
      <trkpt lat="44.50266" lon="1.38698">
        <ele>145.8</ele>
        <time>2022-01-15T15:57:35Z</time>
      </trkpt>
      <trkpt lat="44.50263" lon="1.38702">
        <ele>145.8</ele>
        <time>2022-01-15T15:57:36Z</time>
      </trkpt>
      <trkpt lat="44.50259" lon="1.38705">
        <ele>145.7</ele>
        <time>2022-01-15T15:57:37Z</time>
      </trkpt>
      <trkpt lat="44.50256" lon="1.38709">
        <ele>145.7</ele>
        <time>2022-01-15T15:57:38Z</time>
      </trkpt>
      <trkpt lat="44.50252" lon="1.38713">
        <ele>145.7</ele>
        <time>2022-01-15T15:57:39Z</time>
      </trkpt>
      <trkpt lat="44.50249" lon="1.38717">
        <ele>145.7</ele>
        <time>2022-01-15T15:57:40Z</time>
      </trkpt>
      <trkpt lat="44.50246" lon="1.38721">
        <ele>145.8</ele>
        <time>2022-01-15T15:57:41Z</time>
      </trkpt>
      <trkpt lat="44.50243" lon="1.38724">
        <ele>145.8</ele>
        <time>2022-01-15T15:57:42Z</time>
      </trkpt>
      <trkpt lat="44.5024" lon="1.38728">
        <ele>145.8</ele>
        <time>2022-01-15T15:57:43Z</time>
      </trkpt>
      <trkpt lat="44.50237" lon="1.38731">
        <ele>145.8</ele>
        <time>2022-01-15T15:57:44Z</time>
      </trkpt>
      <trkpt lat="44.50234" lon="1.38735">
        <ele>145.9</ele>
        <time>2022-01-15T15:57:45Z</time>
      </trkpt>
      <trkpt lat="44.50231" lon="1.38739">
        <ele>145.9</ele>
        <time>2022-01-15T15:57:46Z</time>
      </trkpt>
      <trkpt lat="44.50227" lon="1.38744">
        <ele>146</ele>
        <time>2022-01-15T15:57:47Z</time>
      </trkpt>
      <trkpt lat="44.50224" lon="1.38749">
        <ele>146.1</ele>
        <time>2022-01-15T15:57:48Z</time>
      </trkpt>
      <trkpt lat="44.5022" lon="1.38757">
        <ele>146.1</ele>
        <time>2022-01-15T15:57:50Z</time>
      </trkpt>
      <trkpt lat="44.50216" lon="1.38763">
        <ele>146.2</ele>
        <time>2022-01-15T15:57:51Z</time>
      </trkpt>
      <trkpt lat="44.50212" lon="1.3877">
        <ele>146.3</ele>
        <time>2022-01-15T15:57:53Z</time>
      </trkpt>
      <trkpt lat="44.50209" lon="1.38775">
        <ele>146.3</ele>
        <time>2022-01-15T15:57:54Z</time>
      </trkpt>
      <trkpt lat="44.50207" lon="1.38778">
        <ele>146.3</ele>
        <time>2022-01-15T15:57:55Z</time>
      </trkpt>
      <trkpt lat="44.50204" lon="1.38781">
        <ele>146.4</ele>
        <time>2022-01-15T15:57:56Z</time>
      </trkpt>
      <trkpt lat="44.50202" lon="1.38785">
        <ele>146.4</ele>
        <time>2022-01-15T15:57:57Z</time>
      </trkpt>
      <trkpt lat="44.50199" lon="1.38788">
        <ele>146.5</ele>
        <time>2022-01-15T15:57:58Z</time>
      </trkpt>
      <trkpt lat="44.50197" lon="1.38791">
        <ele>146.5</ele>
        <time>2022-01-15T15:57:59Z</time>
      </trkpt>
      <trkpt lat="44.50194" lon="1.38794">
        <ele>146.6</ele>
        <time>2022-01-15T15:58:00Z</time>
      </trkpt>
      <trkpt lat="44.50191" lon="1.38797">
        <ele>146.6</ele>
        <time>2022-01-15T15:58:01Z</time>
      </trkpt>
      <trkpt lat="44.50189" lon="1.388">
        <ele>146.7</ele>
        <time>2022-01-15T15:58:02Z</time>
      </trkpt>
      <trkpt lat="44.50186" lon="1.38803">
        <ele>146.7</ele>
        <time>2022-01-15T15:58:03Z</time>
      </trkpt>
      <trkpt lat="44.50183" lon="1.38806">
        <ele>146.8</ele>
        <time>2022-01-15T15:58:04Z</time>
      </trkpt>
      <trkpt lat="44.5018" lon="1.38809">
        <ele>146.8</ele>
        <time>2022-01-15T15:58:05Z</time>
      </trkpt>
      <trkpt lat="44.50177" lon="1.38812">
        <ele>146.9</ele>
        <time>2022-01-15T15:58:06Z</time>
      </trkpt>
      <trkpt lat="44.50173" lon="1.38814">
        <ele>146.9</ele>
        <time>2022-01-15T15:58:07Z</time>
      </trkpt>
      <trkpt lat="44.50169" lon="1.38815">
        <ele>146.9</ele>
        <time>2022-01-15T15:58:08Z</time>
      </trkpt>
      <trkpt lat="44.50166" lon="1.38816">
        <ele>146.9</ele>
        <time>2022-01-15T15:58:09Z</time>
      </trkpt>
      <trkpt lat="44.50163" lon="1.38817">
        <ele>146.9</ele>
        <time>2022-01-15T15:58:10Z</time>
      </trkpt>
      <trkpt lat="44.5016" lon="1.38819">
        <ele>146.9</ele>
        <time>2022-01-15T15:58:11Z</time>
      </trkpt>
      <trkpt lat="44.50156" lon="1.38821">
        <ele>146.9</ele>
        <time>2022-01-15T15:58:12Z</time>
      </trkpt>
      <trkpt lat="44.50152" lon="1.38823">
        <ele>146.9</ele>
        <time>2022-01-15T15:58:13Z</time>
      </trkpt>
      <trkpt lat="44.50147" lon="1.38824">
        <ele>146.9</ele>
        <time>2022-01-15T15:58:14Z</time>
      </trkpt>
      <trkpt lat="44.50144" lon="1.38825">
        <ele>146.8</ele>
        <time>2022-01-15T15:58:15Z</time>
      </trkpt>
      <trkpt lat="44.5014" lon="1.38827">
        <ele>146.8</ele>
        <time>2022-01-15T15:58:16Z</time>
      </trkpt>
      <trkpt lat="44.50136" lon="1.38827">
        <ele>146.8</ele>
        <time>2022-01-15T15:58:17Z</time>
      </trkpt>
      <trkpt lat="44.50132" lon="1.38827">
        <ele>146.8</ele>
        <time>2022-01-15T15:58:18Z</time>
      </trkpt>
      <trkpt lat="44.50127" lon="1.38828">
        <ele>146.8</ele>
        <time>2022-01-15T15:58:19Z</time>
      </trkpt>
      <trkpt lat="44.50122" lon="1.38828">
        <ele>146.9</ele>
        <time>2022-01-15T15:58:20Z</time>
      </trkpt>
      <trkpt lat="44.50118" lon="1.38828">
        <ele>146.9</ele>
        <time>2022-01-15T15:58:21Z</time>
      </trkpt>
      <trkpt lat="44.50113" lon="1.38827">
        <ele>146.9</ele>
        <time>2022-01-15T15:58:22Z</time>
      </trkpt>
      <trkpt lat="44.50109" lon="1.38827">
        <ele>147</ele>
        <time>2022-01-15T15:58:23Z</time>
      </trkpt>
      <trkpt lat="44.50105" lon="1.38827">
        <ele>147</ele>
        <time>2022-01-15T15:58:24Z</time>
      </trkpt>
      <trkpt lat="44.50101" lon="1.38826">
        <ele>147</ele>
        <time>2022-01-15T15:58:25Z</time>
      </trkpt>
      <trkpt lat="44.50098" lon="1.38826">
        <ele>147.1</ele>
        <time>2022-01-15T15:58:26Z</time>
      </trkpt>
      <trkpt lat="44.50094" lon="1.38827">
        <ele>147.1</ele>
        <time>2022-01-15T15:58:27Z</time>
      </trkpt>
      <trkpt lat="44.50089" lon="1.38828">
        <ele>147.2</ele>
        <time>2022-01-15T15:58:28Z</time>
      </trkpt>
      <trkpt lat="44.50085" lon="1.38829">
        <ele>147.2</ele>
        <time>2022-01-15T15:58:29Z</time>
      </trkpt>
      <trkpt lat="44.50081" lon="1.38829">
        <ele>147.3</ele>
        <time>2022-01-15T15:58:30Z</time>
      </trkpt>
      <trkpt lat="44.50077" lon="1.3883">
        <ele>147.4</ele>
        <time>2022-01-15T15:58:31Z</time>
      </trkpt>
      <trkpt lat="44.50073" lon="1.38831">
        <ele>147.4</ele>
        <time>2022-01-15T15:58:32Z</time>
      </trkpt>
      <trkpt lat="44.50069" lon="1.38831">
        <ele>147.5</ele>
        <time>2022-01-15T15:58:33Z</time>
      </trkpt>
      <trkpt lat="44.50065" lon="1.38832">
        <ele>147.6</ele>
        <time>2022-01-15T15:58:34Z</time>
      </trkpt>
      <trkpt lat="44.50061" lon="1.38833">
        <ele>147.6</ele>
        <time>2022-01-15T15:58:35Z</time>
      </trkpt>
      <trkpt lat="44.50058" lon="1.38832">
        <ele>147.7</ele>
        <time>2022-01-15T15:58:36Z</time>
      </trkpt>
      <trkpt lat="44.50054" lon="1.38833">
        <ele>147.8</ele>
        <time>2022-01-15T15:58:37Z</time>
      </trkpt>
      <trkpt lat="44.5005" lon="1.38833">
        <ele>147.9</ele>
        <time>2022-01-15T15:58:38Z</time>
      </trkpt>
      <trkpt lat="44.50046" lon="1.38833">
        <ele>148</ele>
        <time>2022-01-15T15:58:39Z</time>
      </trkpt>
      <trkpt lat="44.50043" lon="1.38832">
        <ele>148</ele>
        <time>2022-01-15T15:58:40Z</time>
      </trkpt>
      <trkpt lat="44.50039" lon="1.38832">
        <ele>148.1</ele>
        <time>2022-01-15T15:58:41Z</time>
      </trkpt>
      <trkpt lat="44.50035" lon="1.38831">
        <ele>148.2</ele>
        <time>2022-01-15T15:58:42Z</time>
      </trkpt>
      <trkpt lat="44.50032" lon="1.38831">
        <ele>148.3</ele>
        <time>2022-01-15T15:58:43Z</time>
      </trkpt>
      <trkpt lat="44.50028" lon="1.3883">
        <ele>148.4</ele>
        <time>2022-01-15T15:58:44Z</time>
      </trkpt>
      <trkpt lat="44.50025" lon="1.3883">
        <ele>148.5</ele>
        <time>2022-01-15T15:58:45Z</time>
      </trkpt>
      <trkpt lat="44.50021" lon="1.38829">
        <ele>148.6</ele>
        <time>2022-01-15T15:58:46Z</time>
      </trkpt>
      <trkpt lat="44.50018" lon="1.38828">
        <ele>148.7</ele>
        <time>2022-01-15T15:58:47Z</time>
      </trkpt>
      <trkpt lat="44.50014" lon="1.38827">
        <ele>148.8</ele>
        <time>2022-01-15T15:58:48Z</time>
      </trkpt>
      <trkpt lat="44.50011" lon="1.38826">
        <ele>148.9</ele>
        <time>2022-01-15T15:58:49Z</time>
      </trkpt>
      <trkpt lat="44.50007" lon="1.38825">
        <ele>149</ele>
        <time>2022-01-15T15:58:50Z</time>
      </trkpt>
      <trkpt lat="44.50004" lon="1.38824">
        <ele>149.1</ele>
        <time>2022-01-15T15:58:51Z</time>
      </trkpt>
      <trkpt lat="44.5" lon="1.38823">
        <ele>149.2</ele>
        <time>2022-01-15T15:58:52Z</time>
      </trkpt>
      <trkpt lat="44.49997" lon="1.38822">
        <ele>149.3</ele>
        <time>2022-01-15T15:58:53Z</time>
      </trkpt>
      <trkpt lat="44.49993" lon="1.38821">
        <ele>149.4</ele>
        <time>2022-01-15T15:58:54Z</time>
      </trkpt>
      <trkpt lat="44.4999" lon="1.3882">
        <ele>149.5</ele>
        <time>2022-01-15T15:58:55Z</time>
      </trkpt>
      <trkpt lat="44.49987" lon="1.38819">
        <ele>149.6</ele>
        <time>2022-01-15T15:58:56Z</time>
      </trkpt>
      <trkpt lat="44.49983" lon="1.38818">
        <ele>149.7</ele>
        <time>2022-01-15T15:58:57Z</time>
      </trkpt>
      <trkpt lat="44.4998" lon="1.38817">
        <ele>149.8</ele>
        <time>2022-01-15T15:58:58Z</time>
      </trkpt>
      <trkpt lat="44.49977" lon="1.38816">
        <ele>149.9</ele>
        <time>2022-01-15T15:58:59Z</time>
      </trkpt>
      <trkpt lat="44.49973" lon="1.38815">
        <ele>150</ele>
        <time>2022-01-15T15:59:00Z</time>
      </trkpt>
      <trkpt lat="44.4997" lon="1.38815">
        <ele>150.1</ele>
        <time>2022-01-15T15:59:01Z</time>
      </trkpt>
      <trkpt lat="44.49967" lon="1.38814">
        <ele>150.2</ele>
        <time>2022-01-15T15:59:02Z</time>
      </trkpt>
      <trkpt lat="44.49964" lon="1.38814">
        <ele>150.3</ele>
        <time>2022-01-15T15:59:03Z</time>
      </trkpt>
      <trkpt lat="44.49957" lon="1.38813">
        <ele>150.5</ele>
        <time>2022-01-15T15:59:05Z</time>
      </trkpt>
      <trkpt lat="44.49954" lon="1.38812">
        <ele>150.6</ele>
        <time>2022-01-15T15:59:06Z</time>
      </trkpt>
      <trkpt lat="44.49951" lon="1.38811">
        <ele>150.7</ele>
        <time>2022-01-15T15:59:07Z</time>
      </trkpt>
      <trkpt lat="44.49945" lon="1.38809">
        <ele>150.9</ele>
        <time>2022-01-15T15:59:09Z</time>
      </trkpt>
      <trkpt lat="44.49943" lon="1.38808">
        <ele>151</ele>
        <time>2022-01-15T15:59:10Z</time>
      </trkpt>
      <trkpt lat="44.4994" lon="1.38807">
        <ele>151.1</ele>
        <time>2022-01-15T15:59:11Z</time>
      </trkpt>
      <trkpt lat="44.49937" lon="1.38806">
        <ele>151.1</ele>
        <time>2022-01-15T15:59:12Z</time>
      </trkpt>
      <trkpt lat="44.49933" lon="1.38805">
        <ele>151.2</ele>
        <time>2022-01-15T15:59:13Z</time>
      </trkpt>
      <trkpt lat="44.4993" lon="1.38804">
        <ele>151.3</ele>
        <time>2022-01-15T15:59:14Z</time>
      </trkpt>
      <trkpt lat="44.49924" lon="1.38803">
        <ele>151.4</ele>
        <time>2022-01-15T15:59:16Z</time>
      </trkpt>
      <trkpt lat="44.4992" lon="1.38802">
        <ele>151.5</ele>
        <time>2022-01-15T15:59:17Z</time>
      </trkpt>
      <trkpt lat="44.49917" lon="1.38802">
        <ele>151.5</ele>
        <time>2022-01-15T15:59:18Z</time>
      </trkpt>
      <trkpt lat="44.49913" lon="1.38803">
        <ele>151.5</ele>
        <time>2022-01-15T15:59:19Z</time>
      </trkpt>
      <trkpt lat="44.4991" lon="1.38803">
        <ele>151.6</ele>
        <time>2022-01-15T15:59:20Z</time>
      </trkpt>
      <trkpt lat="44.49907" lon="1.38803">
        <ele>151.6</ele>
        <time>2022-01-15T15:59:21Z</time>
      </trkpt>
      <trkpt lat="44.49904" lon="1.38803">
        <ele>151.6</ele>
        <time>2022-01-15T15:59:22Z</time>
      </trkpt>
      <trkpt lat="44.499" lon="1.38803">
        <ele>151.6</ele>
        <time>2022-01-15T15:59:23Z</time>
      </trkpt>
      <trkpt lat="44.49897" lon="1.38803">
        <ele>151.7</ele>
        <time>2022-01-15T15:59:24Z</time>
      </trkpt>
      <trkpt lat="44.49894" lon="1.38802">
        <ele>151.7</ele>
        <time>2022-01-15T15:59:25Z</time>
      </trkpt>
      <trkpt lat="44.49891" lon="1.38801">
        <ele>151.6</ele>
        <time>2022-01-15T15:59:26Z</time>
      </trkpt>
      <trkpt lat="44.49887" lon="1.38801">
        <ele>151.6</ele>
        <time>2022-01-15T15:59:27Z</time>
      </trkpt>
      <trkpt lat="44.49885" lon="1.38801">
        <ele>151.6</ele>
        <time>2022-01-15T15:59:28Z</time>
      </trkpt>
      <trkpt lat="44.49879" lon="1.38799">
        <ele>151.5</ele>
        <time>2022-01-15T15:59:30Z</time>
      </trkpt>
      <trkpt lat="44.49875" lon="1.38796">
        <ele>151.5</ele>
        <time>2022-01-15T15:59:31Z</time>
      </trkpt>
      <trkpt lat="44.49872" lon="1.38794">
        <ele>151.5</ele>
        <time>2022-01-15T15:59:32Z</time>
      </trkpt>
      <trkpt lat="44.49868" lon="1.38793">
        <ele>151.4</ele>
        <time>2022-01-15T15:59:33Z</time>
      </trkpt>
      <trkpt lat="44.49864" lon="1.38792">
        <ele>151.4</ele>
        <time>2022-01-15T15:59:34Z</time>
      </trkpt>
      <trkpt lat="44.49857" lon="1.38789">
        <ele>151.3</ele>
        <time>2022-01-15T15:59:36Z</time>
      </trkpt>
      <trkpt lat="44.49854" lon="1.38789">
        <ele>151.2</ele>
        <time>2022-01-15T15:59:37Z</time>
      </trkpt>
      <trkpt lat="44.49851" lon="1.3879">
        <ele>151.2</ele>
        <time>2022-01-15T15:59:38Z</time>
      </trkpt>
      <trkpt lat="44.49847" lon="1.38791">
        <ele>151.1</ele>
        <time>2022-01-15T15:59:39Z</time>
      </trkpt>
      <trkpt lat="44.49844" lon="1.38792">
        <ele>151</ele>
        <time>2022-01-15T15:59:40Z</time>
      </trkpt>
      <trkpt lat="44.4984" lon="1.38792">
        <ele>151</ele>
        <time>2022-01-15T15:59:41Z</time>
      </trkpt>
      <trkpt lat="44.49836" lon="1.38792">
        <ele>150.9</ele>
        <time>2022-01-15T15:59:42Z</time>
      </trkpt>
      <trkpt lat="44.49832" lon="1.38791">
        <ele>150.8</ele>
        <time>2022-01-15T15:59:44Z</time>
      </trkpt>
      <trkpt lat="44.49827" lon="1.38791">
        <ele>150.8</ele>
        <time>2022-01-15T15:59:45Z</time>
      </trkpt>
      <trkpt lat="44.49822" lon="1.3879">
        <ele>150.7</ele>
        <time>2022-01-15T15:59:46Z</time>
      </trkpt>
      <trkpt lat="44.49817" lon="1.38788">
        <ele>150.7</ele>
        <time>2022-01-15T15:59:47Z</time>
      </trkpt>
      <trkpt lat="44.49813" lon="1.38787">
        <ele>150.7</ele>
        <time>2022-01-15T15:59:48Z</time>
      </trkpt>
      <trkpt lat="44.49809" lon="1.38787">
        <ele>150.7</ele>
        <time>2022-01-15T15:59:49Z</time>
      </trkpt>
      <trkpt lat="44.49803" lon="1.38786">
        <ele>150.7</ele>
        <time>2022-01-15T15:59:51Z</time>
      </trkpt>
      <trkpt lat="44.498" lon="1.38785">
        <ele>150.7</ele>
        <time>2022-01-15T15:59:52Z</time>
      </trkpt>
      <trkpt lat="44.49795" lon="1.38784">
        <ele>150.7</ele>
        <time>2022-01-15T15:59:53Z</time>
      </trkpt>
      <trkpt lat="44.49789" lon="1.38782">
        <ele>150.8</ele>
        <time>2022-01-15T15:59:55Z</time>
      </trkpt>
      <trkpt lat="44.49785" lon="1.38781">
        <ele>150.8</ele>
        <time>2022-01-15T15:59:56Z</time>
      </trkpt>
      <trkpt lat="44.49781" lon="1.3878">
        <ele>150.8</ele>
        <time>2022-01-15T15:59:57Z</time>
      </trkpt>
      <trkpt lat="44.49778" lon="1.38778">
        <ele>150.8</ele>
        <time>2022-01-15T15:59:58Z</time>
      </trkpt>
      <trkpt lat="44.49773" lon="1.38777">
        <ele>150.9</ele>
        <time>2022-01-15T15:59:59Z</time>
      </trkpt>
      <trkpt lat="44.49768" lon="1.38775">
        <ele>150.9</ele>
        <time>2022-01-15T16:00:01Z</time>
      </trkpt>
      <trkpt lat="44.49765" lon="1.38774">
        <ele>151</ele>
        <time>2022-01-15T16:00:02Z</time>
      </trkpt>
      <trkpt lat="44.4976" lon="1.38772">
        <ele>151</ele>
        <time>2022-01-15T16:00:03Z</time>
      </trkpt>
      <trkpt lat="44.49756" lon="1.38771">
        <ele>151</ele>
        <time>2022-01-15T16:00:05Z</time>
      </trkpt>
      <trkpt lat="44.49753" lon="1.3877">
        <ele>151.1</ele>
        <time>2022-01-15T16:00:06Z</time>
      </trkpt>
      <trkpt lat="44.4975" lon="1.3877">
        <ele>151.1</ele>
        <time>2022-01-15T16:00:07Z</time>
      </trkpt>
      <trkpt lat="44.49746" lon="1.38769">
        <ele>151.2</ele>
        <time>2022-01-15T16:00:08Z</time>
      </trkpt>
      <trkpt lat="44.49745" lon="1.38768">
        <ele>151.2</ele>
        <time>2022-01-15T16:00:09Z</time>
      </trkpt>
      <trkpt lat="44.49742" lon="1.38767">
        <ele>151.3</ele>
        <time>2022-01-15T16:00:10Z</time>
      </trkpt>
      <trkpt lat="44.49739" lon="1.38766">
        <ele>151.4</ele>
        <time>2022-01-15T16:00:11Z</time>
      </trkpt>
      <trkpt lat="44.49736" lon="1.38764">
        <ele>151.4</ele>
        <time>2022-01-15T16:00:12Z</time>
      </trkpt>
      <trkpt lat="44.49735" lon="1.38764">
        <ele>151.5</ele>
        <time>2022-01-15T16:00:13Z</time>
      </trkpt>
      <trkpt lat="44.4973" lon="1.38763">
        <ele>151.5</ele>
        <time>2022-01-15T16:00:14Z</time>
      </trkpt>
      <trkpt lat="44.49729" lon="1.38762">
        <ele>151.6</ele>
        <time>2022-01-15T16:00:15Z</time>
      </trkpt>
      <trkpt lat="44.49725" lon="1.38762">
        <ele>151.6</ele>
        <time>2022-01-15T16:00:17Z</time>
      </trkpt>
      <trkpt lat="44.49722" lon="1.38761">
        <ele>151.7</ele>
        <time>2022-01-15T16:00:18Z</time>
      </trkpt>
      <trkpt lat="44.49719" lon="1.3876">
        <ele>151.7</ele>
        <time>2022-01-15T16:00:19Z</time>
      </trkpt>
      <trkpt lat="44.49718" lon="1.38759">
        <ele>151.7</ele>
        <time>2022-01-15T16:00:20Z</time>
      </trkpt>
      <trkpt lat="44.49714" lon="1.38758">
        <ele>151.8</ele>
        <time>2022-01-15T16:00:21Z</time>
      </trkpt>
      <trkpt lat="44.49713" lon="1.38757">
        <ele>151.8</ele>
        <time>2022-01-15T16:00:22Z</time>
      </trkpt>
      <trkpt lat="44.4971" lon="1.38756">
        <ele>151.8</ele>
        <time>2022-01-15T16:00:23Z</time>
      </trkpt>
      <trkpt lat="44.49708" lon="1.38756">
        <ele>151.8</ele>
        <time>2022-01-15T16:00:24Z</time>
      </trkpt>
      <trkpt lat="44.49706" lon="1.38755">
        <ele>151.8</ele>
        <time>2022-01-15T16:00:25Z</time>
      </trkpt>
      <trkpt lat="44.49705" lon="1.38755">
        <ele>151.8</ele>
        <time>2022-01-15T16:00:26Z</time>
      </trkpt>
      <trkpt lat="44.49701" lon="1.38758">
        <ele>151.8</ele>
        <time>2022-01-15T16:00:27Z</time>
      </trkpt>
      <trkpt lat="44.497" lon="1.38759">
        <ele>151.8</ele>
        <time>2022-01-15T16:00:28Z</time>
      </trkpt>
      <trkpt lat="44.49697" lon="1.38765">
        <ele>151.8</ele>
        <time>2022-01-15T16:00:30Z</time>
      </trkpt>
      <trkpt lat="44.49697" lon="1.38769">
        <ele>151.9</ele>
        <time>2022-01-15T16:00:31Z</time>
      </trkpt>
      <trkpt lat="44.49695" lon="1.38775">
        <ele>151.9</ele>
        <time>2022-01-15T16:00:32Z</time>
      </trkpt>
      <trkpt lat="44.49694" lon="1.38781">
        <ele>151.9</ele>
        <time>2022-01-15T16:00:34Z</time>
      </trkpt>
      <trkpt lat="44.49693" lon="1.38785">
        <ele>152</ele>
        <time>2022-01-15T16:00:35Z</time>
      </trkpt>
      <trkpt lat="44.49693" lon="1.3879">
        <ele>152</ele>
        <time>2022-01-15T16:00:36Z</time>
      </trkpt>
      <trkpt lat="44.49692" lon="1.38795">
        <ele>152.1</ele>
        <time>2022-01-15T16:00:37Z</time>
      </trkpt>
      <trkpt lat="44.49692" lon="1.38799">
        <ele>152.1</ele>
        <time>2022-01-15T16:00:38Z</time>
      </trkpt>
      <trkpt lat="44.49691" lon="1.38805">
        <ele>152.2</ele>
        <time>2022-01-15T16:00:40Z</time>
      </trkpt>
      <trkpt lat="44.4969" lon="1.38811">
        <ele>152.3</ele>
        <time>2022-01-15T16:00:41Z</time>
      </trkpt>
      <trkpt lat="44.49689" lon="1.38818">
        <ele>152.4</ele>
        <time>2022-01-15T16:00:43Z</time>
      </trkpt>
      <trkpt lat="44.49688" lon="1.38821">
        <ele>152.5</ele>
        <time>2022-01-15T16:00:44Z</time>
      </trkpt>
      <trkpt lat="44.49688" lon="1.38827">
        <ele>152.6</ele>
        <time>2022-01-15T16:00:45Z</time>
      </trkpt>
      <trkpt lat="44.49688" lon="1.38829">
        <ele>152.6</ele>
        <time>2022-01-15T16:00:46Z</time>
      </trkpt>
      <trkpt lat="44.49688" lon="1.38833">
        <ele>152.7</ele>
        <time>2022-01-15T16:00:47Z</time>
      </trkpt>
      <trkpt lat="44.49688" lon="1.38838">
        <ele>152.7</ele>
        <time>2022-01-15T16:00:48Z</time>
      </trkpt>
      <trkpt lat="44.49688" lon="1.3884">
        <ele>152.8</ele>
        <time>2022-01-15T16:00:49Z</time>
      </trkpt>
      <trkpt lat="44.49687" lon="1.38841">
        <ele>152.8</ele>
        <time>2022-01-15T16:00:50Z</time>
      </trkpt>
      <trkpt lat="44.49683" lon="1.38841">
        <ele>152.8</ele>
        <time>2022-01-15T16:00:52Z</time>
      </trkpt>
      <trkpt lat="44.4968" lon="1.38841">
        <ele>152.8</ele>
        <time>2022-01-15T16:00:53Z</time>
      </trkpt>
      <trkpt lat="44.49679" lon="1.38841">
        <ele>152.8</ele>
        <time>2022-01-15T16:00:54Z</time>
      </trkpt>
      <trkpt lat="44.49675" lon="1.38841">
        <ele>152.9</ele>
        <time>2022-01-15T16:00:55Z</time>
      </trkpt>
      <trkpt lat="44.49673" lon="1.38842">
        <ele>152.9</ele>
        <time>2022-01-15T16:00:56Z</time>
      </trkpt>
      <trkpt lat="44.49672" lon="1.38843">
        <ele>152.9</ele>
        <time>2022-01-15T16:00:58Z</time>
      </trkpt>
      <trkpt lat="44.49672" lon="1.38843">
        <ele>152.9</ele>
        <time>2022-01-15T16:00:59Z</time>
      </trkpt>
      <trkpt lat="44.49672" lon="1.38843">
        <ele>152.9</ele>
        <time>2022-01-15T16:01:00Z</time>
      </trkpt>
      <trkpt lat="44.49672" lon="1.38843">
        <ele>152.9</ele>
        <time>2022-01-15T16:01:01Z</time>
      </trkpt>
      <trkpt lat="44.49672" lon="1.38843">
        <ele>152.9</ele>
        <time>2022-01-15T16:01:02Z</time>
      </trkpt>
      <trkpt lat="44.49672" lon="1.38844">
        <ele>152.9</ele>
        <time>2022-01-15T16:01:03Z</time>
      </trkpt>
      <trkpt lat="44.49672" lon="1.38844">
        <ele>152.9</ele>
        <time>2022-01-15T16:01:05Z</time>
      </trkpt>
      <trkpt lat="44.49672" lon="1.38844">
        <ele>152.9</ele>
        <time>2022-01-15T16:01:06Z</time>
      </trkpt>
      <trkpt lat="44.49669" lon="1.38847">
        <ele>152.9</ele>
        <time>2022-01-15T16:01:41Z</time>
      </trkpt>
      <trkpt lat="44.49667" lon="1.38849">
        <ele>153</ele>
        <time>2022-01-15T16:01:42Z</time>
      </trkpt>
      <trkpt lat="44.49666" lon="1.3885">
        <ele>153</ele>
        <time>2022-01-15T16:01:43Z</time>
      </trkpt>
      <trkpt lat="44.49666" lon="1.38852">
        <ele>153</ele>
        <time>2022-01-15T16:01:45Z</time>
      </trkpt>
      <trkpt lat="44.49666" lon="1.38853">
        <ele>153</ele>
        <time>2022-01-15T16:01:46Z</time>
      </trkpt>
      <trkpt lat="44.49665" lon="1.38854">
        <ele>153</ele>
        <time>2022-01-15T16:01:47Z</time>
      </trkpt>
      <trkpt lat="44.49665" lon="1.38855">
        <ele>153</ele>
        <time>2022-01-15T16:01:48Z</time>
      </trkpt>
      <trkpt lat="44.49673" lon="1.38859">
        <ele>153.1</ele>
        <time>2022-01-15T16:01:50Z</time>
      </trkpt>
      <trkpt lat="44.49677" lon="1.38859">
        <ele>153.1</ele>
        <time>2022-01-15T16:01:51Z</time>
      </trkpt>
      <trkpt lat="44.49681" lon="1.38859">
        <ele>153.1</ele>
        <time>2022-01-15T16:01:52Z</time>
      </trkpt>
      <trkpt lat="44.49682" lon="1.38859">
        <ele>153.2</ele>
        <time>2022-01-15T16:01:53Z</time>
      </trkpt>
      <trkpt lat="44.49684" lon="1.38858">
        <ele>153.2</ele>
        <time>2022-01-15T16:01:54Z</time>
      </trkpt>
      <trkpt lat="44.49685" lon="1.38858">
        <ele>153.2</ele>
        <time>2022-01-15T16:01:55Z</time>
      </trkpt>
      <trkpt lat="44.49685" lon="1.38857">
        <ele>153.2</ele>
        <time>2022-01-15T16:01:56Z</time>
      </trkpt>
      <trkpt lat="44.49687" lon="1.38862">
        <ele>153.2</ele>
        <time>2022-01-15T16:01:57Z</time>
      </trkpt>
      <trkpt lat="44.49688" lon="1.38864">
        <ele>153.2</ele>
        <time>2022-01-15T16:01:58Z</time>
      </trkpt>
    </trkseg>
  </trk>
</gpx>